<?xml version='1.0' encoding='UTF-8'?><gpx version="1.1" creator="JPX - https://github.com/jenetics/jpx" xmlns="http://www.topografix.com/GPX/1/1"><trk><trkseg><trkpt lat="46.1062929" lon="13.5646861"><ele>673.0</ele><time>2026-05-02T09:04:12.259Z</time></trkpt><trkpt lat="46.1063384" lon="13.5647906"><ele>673.0</ele><time>2026-05-02T09:04:13.258Z</time></trkpt><trkpt lat="46.1064083" lon="13.5649055"><ele>673.0</ele><time>2026-05-02T09:04:14.259Z</time></trkpt><trkpt lat="46.1064922" lon="13.5650059"><ele>673.0</ele><time>2026-05-02T09:04:15.258Z</time></trkpt><trkpt lat="46.106584" lon="13.565105"><ele>673.0</ele><time>2026-05-02T09:04:16.259Z</time></trkpt><trkpt lat="46.1066589" lon="13.5652246"><ele>673.5999999999999</ele><time>2026-05-02T09:04:17.258Z</time></trkpt><trkpt lat="46.1066977" lon="13.5653399"><ele>674.1999999999999</ele><time>2026-05-02T09:04:18.258Z</time></trkpt><trkpt lat="46.1066998" lon="13.5654867"><ele>674.8</ele><time>2026-05-02T09:04:19.259Z</time></trkpt><trkpt lat="46.1066944" lon="13.5656461"><ele>675.4</ele><time>2026-05-02T09:04:20.259Z</time></trkpt><trkpt lat="46.1067227" lon="13.5658078"><ele>676.0</ele><time>2026-05-02T09:04:21.259Z</time></trkpt><trkpt lat="46.1067933" lon="13.5659432"><ele>676.0</ele><time>2026-05-02T09:04:22.259Z</time></trkpt><trkpt lat="46.1068953" lon="13.5660426"><ele>676.0</ele><time>2026-05-02T09:04:23.258Z</time></trkpt><trkpt lat="46.1070112" lon="13.566119"><ele>676.0</ele><time>2026-05-02T09:04:24.259Z</time></trkpt><trkpt lat="46.1071148" lon="13.5661879"><ele>676.0</ele><time>2026-05-02T09:04:25.259Z</time></trkpt><trkpt lat="46.1071811" lon="13.5662752"><ele>676.0</ele><time>2026-05-02T09:04:26.259Z</time></trkpt><trkpt lat="46.1072365" lon="13.5664186"><ele>676.0</ele><time>2026-05-02T09:04:27.259Z</time></trkpt><trkpt lat="46.107282" lon="13.5665839"><ele>676.0</ele><time>2026-05-02T09:04:28.258Z</time></trkpt><trkpt lat="46.107317" lon="13.5667766"><ele>676.0</ele><time>2026-05-02T09:04:29.258Z</time></trkpt><trkpt lat="46.1073563" lon="13.5669713"><ele>675.3333333333334</ele><time>2026-05-02T09:04:30.259Z</time></trkpt><trkpt lat="46.1073893" lon="13.5671844"><ele>674.6666666666666</ele><time>2026-05-02T09:04:31.259Z</time></trkpt><trkpt lat="46.1074302" lon="13.5673977"><ele>674.0</ele><time>2026-05-02T09:04:32.258Z</time></trkpt><trkpt lat="46.1074797" lon="13.5676258"><ele>674.0</ele><time>2026-05-02T09:04:33.259Z</time></trkpt><trkpt lat="46.1075395" lon="13.5678262"><ele>674.0</ele><time>2026-05-02T09:04:34.258Z</time></trkpt><trkpt lat="46.1076019" lon="13.5679958"><ele>674.0</ele><time>2026-05-02T09:04:35.258Z</time></trkpt><trkpt lat="46.1076637" lon="13.5681519"><ele>674.0</ele><time>2026-05-02T09:04:36.258Z</time></trkpt><trkpt lat="46.1076892" lon="13.5683142"><ele>674.5</ele><time>2026-05-02T09:04:37.258Z</time></trkpt><trkpt lat="46.107695" lon="13.5684956"><ele>675.0</ele><time>2026-05-02T09:04:38.259Z</time></trkpt><trkpt lat="46.1077022" lon="13.5686758"><ele>675.5</ele><time>2026-05-02T09:04:39.258Z</time></trkpt><trkpt lat="46.1077028" lon="13.5688498"><ele>676.0</ele><time>2026-05-02T09:04:40.259Z</time></trkpt><trkpt lat="46.1077386" lon="13.569001"><ele>674.5</ele><time>2026-05-02T09:04:41.258Z</time></trkpt><trkpt lat="46.1078022" lon="13.569139"><ele>673.0</ele><time>2026-05-02T09:04:42.258Z</time></trkpt><trkpt lat="46.1078933" lon="13.5692571"><ele>671.5</ele><time>2026-05-02T09:04:43.259Z</time></trkpt><trkpt lat="46.1080226" lon="13.5693219"><ele>670.0</ele><time>2026-05-02T09:04:44.258Z</time></trkpt><trkpt lat="46.1081484" lon="13.5693591"><ele>669.5</ele><time>2026-05-02T09:04:45.259Z</time></trkpt><trkpt lat="46.1082671" lon="13.5694134"><ele>669.0</ele><time>2026-05-02T09:04:46.258Z</time></trkpt><trkpt lat="46.1083787" lon="13.5694871"><ele>668.5</ele><time>2026-05-02T09:04:47.258Z</time></trkpt><trkpt lat="46.108494" lon="13.5695969"><ele>668.0</ele><time>2026-05-02T09:04:48.259Z</time></trkpt><trkpt lat="46.1086057" lon="13.5697245"><ele>669.0</ele><time>2026-05-02T09:04:49.259Z</time></trkpt><trkpt lat="46.108704" lon="13.5698494"><ele>670.0</ele><time>2026-05-02T09:04:50.259Z</time></trkpt><trkpt lat="46.1087776" lon="13.5699822"><ele>671.0</ele><time>2026-05-02T09:04:51.258Z</time></trkpt><trkpt lat="46.1088366" lon="13.5701319"><ele>672.0</ele><time>2026-05-02T09:04:52.259Z</time></trkpt><trkpt lat="46.1088654" lon="13.5703185"><ele>671.3333333333334</ele><time>2026-05-02T09:04:53.258Z</time></trkpt><trkpt lat="46.1088638" lon="13.5705344"><ele>670.6666666666667</ele><time>2026-05-02T09:04:54.259Z</time></trkpt><trkpt lat="46.1088615" lon="13.5707551"><ele>670.0</ele><time>2026-05-02T09:04:55.259Z</time></trkpt><trkpt lat="46.1088444" lon="13.5710046"><ele>666.6666666666667</ele><time>2026-05-02T09:04:56.258Z</time></trkpt><trkpt lat="46.1088283" lon="13.5712626"><ele>663.3333333333334</ele><time>2026-05-02T09:04:57.258Z</time></trkpt><trkpt lat="46.108808" lon="13.5715227"><ele>660.0</ele><time>2026-05-02T09:04:58.258Z</time></trkpt><trkpt lat="46.108773" lon="13.5717622"><ele>660.0</ele><time>2026-05-02T09:04:59.259Z</time></trkpt><trkpt lat="46.1087291" lon="13.5719924"><ele>660.0</ele><time>2026-05-02T09:05:00.258Z</time></trkpt><trkpt lat="46.1086688" lon="13.572193"><ele>660.0</ele><time>2026-05-02T09:05:01.259Z</time></trkpt><trkpt lat="46.1085903" lon="13.5723697"><ele>658.25</ele><time>2026-05-02T09:05:02.258Z</time></trkpt><trkpt lat="46.1085118" lon="13.5725463"><ele>656.5</ele><time>2026-05-02T09:05:03.258Z</time></trkpt><trkpt lat="46.1084612" lon="13.5727296"><ele>654.75</ele><time>2026-05-02T09:05:04.258Z</time></trkpt><trkpt lat="46.1084341" lon="13.5729363"><ele>653.0</ele><time>2026-05-02T09:05:05.259Z</time></trkpt><trkpt lat="46.1084364" lon="13.5731424"><ele>652.0</ele><time>2026-05-02T09:05:06.259Z</time></trkpt><trkpt lat="46.1084558" lon="13.5733601"><ele>651.0</ele><time>2026-05-02T09:05:07.258Z</time></trkpt><trkpt lat="46.1084875" lon="13.5735915"><ele>650.0</ele><time>2026-05-02T09:05:08.258Z</time></trkpt><trkpt lat="46.1085273" lon="13.5738237"><ele>650.0</ele><time>2026-05-02T09:05:09.258Z</time></trkpt><trkpt lat="46.108575" lon="13.5740482"><ele>650.0</ele><time>2026-05-02T09:05:10.258Z</time></trkpt><trkpt lat="46.1086337" lon="13.5742553"><ele>650.0</ele><time>2026-05-02T09:05:11.258Z</time></trkpt><trkpt lat="46.1086841" lon="13.5744719"><ele>651.75</ele><time>2026-05-02T09:05:12.258Z</time></trkpt><trkpt lat="46.1087243" lon="13.5746858"><ele>653.5</ele><time>2026-05-02T09:05:13.258Z</time></trkpt><trkpt lat="46.1087476" lon="13.5748974"><ele>655.25</ele><time>2026-05-02T09:05:14.259Z</time></trkpt><trkpt lat="46.1087576" lon="13.5750974"><ele>657.0</ele><time>2026-05-02T09:05:15.258Z</time></trkpt><trkpt lat="46.1087817" lon="13.5752656"><ele>656.25</ele><time>2026-05-02T09:05:16.259Z</time></trkpt><trkpt lat="46.1088458" lon="13.5754361"><ele>655.5</ele><time>2026-05-02T09:05:17.258Z</time></trkpt><trkpt lat="46.1089268" lon="13.5755649"><ele>654.75</ele><time>2026-05-02T09:05:18.258Z</time></trkpt><trkpt lat="46.1089952" lon="13.5756931"><ele>654.0</ele><time>2026-05-02T09:05:19.258Z</time></trkpt><trkpt lat="46.1090336" lon="13.5758195"><ele>654.0</ele><time>2026-05-02T09:05:20.259Z</time></trkpt><trkpt lat="46.1090085" lon="13.5759485"><ele>654.0</ele><time>2026-05-02T09:05:21.258Z</time></trkpt><trkpt lat="46.108961" lon="13.5760599"><ele>654.0</ele><time>2026-05-02T09:05:22.259Z</time></trkpt><trkpt lat="46.1088942" lon="13.5761892"><ele>654.0</ele><time>2026-05-02T09:05:23.259Z</time></trkpt><trkpt lat="46.1088279" lon="13.5763225"><ele>654.0</ele><time>2026-05-02T09:05:24.259Z</time></trkpt><trkpt lat="46.108821" lon="13.5764646"><ele>654.0</ele><time>2026-05-02T09:05:25.259Z</time></trkpt><trkpt lat="46.1088572" lon="13.5766015"><ele>654.0</ele><time>2026-05-02T09:05:26.258Z</time></trkpt><trkpt lat="46.1089193" lon="13.5767193"><ele>654.0</ele><time>2026-05-02T09:05:27.258Z</time></trkpt><trkpt lat="46.1090069" lon="13.576828"><ele>654.0</ele><time>2026-05-02T09:05:28.259Z</time></trkpt><trkpt lat="46.1090909" lon="13.5769264"><ele>654.0</ele><time>2026-05-02T09:05:29.258Z</time></trkpt><trkpt lat="46.1091546" lon="13.577033"><ele>654.0</ele><time>2026-05-02T09:05:30.259Z</time></trkpt><trkpt lat="46.1091934" lon="13.5771558"><ele>654.0</ele><time>2026-05-02T09:05:31.259Z</time></trkpt><trkpt lat="46.1092136" lon="13.5772944"><ele>654.0</ele><time>2026-05-02T09:05:32.259Z</time></trkpt><trkpt lat="46.1092021" lon="13.5774414"><ele>654.0</ele><time>2026-05-02T09:05:33.258Z</time></trkpt><trkpt lat="46.1091635" lon="13.5775992"><ele>654.0</ele><time>2026-05-02T09:05:34.258Z</time></trkpt><trkpt lat="46.1091487" lon="13.5777818"><ele>654.75</ele><time>2026-05-02T09:05:35.259Z</time></trkpt><trkpt lat="46.1091876" lon="13.5779705"><ele>655.5</ele><time>2026-05-02T09:05:36.259Z</time></trkpt><trkpt lat="46.1092407" lon="13.5781748"><ele>656.25</ele><time>2026-05-02T09:05:37.259Z</time></trkpt><trkpt lat="46.1092945" lon="13.5783889"><ele>657.0</ele><time>2026-05-02T09:05:38.258Z</time></trkpt><trkpt lat="46.1093506" lon="13.5786126"><ele>659.3333333333334</ele><time>2026-05-02T09:05:39.259Z</time></trkpt><trkpt lat="46.1093999" lon="13.5788256"><ele>661.6666666666667</ele><time>2026-05-02T09:05:40.259Z</time></trkpt><trkpt lat="46.1094504" lon="13.5790462"><ele>664.0</ele><time>2026-05-02T09:05:41.258Z</time></trkpt><trkpt lat="46.1095087" lon="13.5792733"><ele>664.0</ele><time>2026-05-02T09:05:42.259Z</time></trkpt><trkpt lat="46.1095699" lon="13.579491"><ele>664.0</ele><time>2026-05-02T09:05:43.258Z</time></trkpt><trkpt lat="46.1096309" lon="13.5797002"><ele>664.0</ele><time>2026-05-02T09:05:44.259Z</time></trkpt><trkpt lat="46.1096861" lon="13.5798801"><ele>664.5</ele><time>2026-05-02T09:05:45.258Z</time></trkpt><trkpt lat="46.1097347" lon="13.5800448"><ele>665.0</ele><time>2026-05-02T09:05:46.259Z</time></trkpt><trkpt lat="46.109768" lon="13.5802055"><ele>665.5</ele><time>2026-05-02T09:05:47.259Z</time></trkpt><trkpt lat="46.1097802" lon="13.5803721"><ele>666.0</ele><time>2026-05-02T09:05:48.258Z</time></trkpt><trkpt lat="46.1097802" lon="13.5805427"><ele>664.0</ele><time>2026-05-02T09:05:49.258Z</time></trkpt><trkpt lat="46.1097802" lon="13.5807186"><ele>662.0</ele><time>2026-05-02T09:05:50.259Z</time></trkpt><trkpt lat="46.1097719" lon="13.5809027"><ele>660.0</ele><time>2026-05-02T09:05:51.259Z</time></trkpt><trkpt lat="46.1097484" lon="13.5811009"><ele>658.0</ele><time>2026-05-02T09:05:52.258Z</time></trkpt><trkpt lat="46.1097296" lon="13.5813193"><ele>655.0</ele><time>2026-05-02T09:05:53.258Z</time></trkpt><trkpt lat="46.1097134" lon="13.5815284"><ele>652.0</ele><time>2026-05-02T09:05:54.259Z</time></trkpt><trkpt lat="46.1097084" lon="13.5817123"><ele>649.0</ele><time>2026-05-02T09:05:55.259Z</time></trkpt><trkpt lat="46.1097416" lon="13.5818626"><ele>646.0</ele><time>2026-05-02T09:05:56.259Z</time></trkpt><trkpt lat="46.109789" lon="13.5819906"><ele>646.0</ele><time>2026-05-02T09:05:57.258Z</time></trkpt><trkpt lat="46.1098371" lon="13.5821015"><ele>646.0</ele><time>2026-05-02T09:05:58.259Z</time></trkpt><trkpt lat="46.1098752" lon="13.5822088"><ele>646.0</ele><time>2026-05-02T09:05:59.258Z</time></trkpt><trkpt lat="46.1099011" lon="13.582312"><ele>646.0</ele><time>2026-05-02T09:06:00.259Z</time></trkpt><trkpt lat="46.1099202" lon="13.5824072"><ele>646.0</ele><time>2026-05-02T09:06:01.259Z</time></trkpt><trkpt lat="46.1099597" lon="13.5825254"><ele>646.0</ele><time>2026-05-02T09:06:03.259Z</time></trkpt><trkpt lat="46.1099866" lon="13.5826324"><ele>646.0</ele><time>2026-05-02T09:06:06.259Z</time></trkpt><trkpt lat="46.1099412" lon="13.5827484"><ele>646.0</ele><time>2026-05-02T09:06:09.259Z</time></trkpt><trkpt lat="46.1099164" lon="13.5828598"><ele>646.0</ele><time>2026-05-02T09:06:12.258Z</time></trkpt><trkpt lat="46.1099208" lon="13.5829905"><ele>646.0</ele><time>2026-05-02T09:06:14.258Z</time></trkpt><trkpt lat="46.1099325" lon="13.5831565"><ele>646.0</ele><time>2026-05-02T09:06:16.259Z</time></trkpt><trkpt lat="46.1099401" lon="13.5833109"><ele>645.5999999999999</ele><time>2026-05-02T09:06:18.259Z</time></trkpt><trkpt lat="46.1099644" lon="13.5834747"><ele>645.2</ele><time>2026-05-02T09:06:20.258Z</time></trkpt><trkpt lat="46.1099702" lon="13.5836074"><ele>644.8</ele><time>2026-05-02T09:06:22.258Z</time></trkpt><trkpt lat="46.1099922" lon="13.5837899"><ele>644.4000000000001</ele><time>2026-05-02T09:06:24.258Z</time></trkpt><trkpt lat="46.1100098" lon="13.5838977"><ele>644.0</ele><time>2026-05-02T09:06:25.258Z</time></trkpt><trkpt lat="46.1100669" lon="13.58406"><ele>642.6</ele><time>2026-05-02T09:06:27.259Z</time></trkpt><trkpt lat="46.1100926" lon="13.5842432"><ele>641.2</ele><time>2026-05-02T09:06:29.259Z</time></trkpt><trkpt lat="46.1101085" lon="13.5843807"><ele>639.8000000000001</ele><time>2026-05-02T09:06:31.259Z</time></trkpt><trkpt lat="46.1101094" lon="13.5845517"><ele>638.4000000000001</ele><time>2026-05-02T09:06:33.258Z</time></trkpt><trkpt lat="46.1101123" lon="13.58465"><ele>637.0</ele><time>2026-05-02T09:06:34.259Z</time></trkpt><trkpt lat="46.1101129" lon="13.5847527"><ele>635.6</ele><time>2026-05-02T09:06:35.259Z</time></trkpt><trkpt lat="46.1100956" lon="13.584916"><ele>634.2</ele><time>2026-05-02T09:06:37.258Z</time></trkpt><trkpt lat="46.110076" lon="13.5850821"><ele>632.8</ele><time>2026-05-02T09:06:39.259Z</time></trkpt><trkpt lat="46.1100683" lon="13.5851982"><ele>631.4</ele><time>2026-05-02T09:06:40.259Z</time></trkpt><trkpt lat="46.1100428" lon="13.5853694"><ele>630.0</ele><time>2026-05-02T09:06:42.258Z</time></trkpt><trkpt lat="46.1100239" lon="13.5854628"><ele>629.6666666666666</ele><time>2026-05-02T09:06:43.259Z</time></trkpt><trkpt lat="46.1099967" lon="13.5855679"><ele>629.3333333333334</ele><time>2026-05-02T09:06:44.259Z</time></trkpt><trkpt lat="46.1099299" lon="13.5857258"><ele>629.0</ele><time>2026-05-02T09:06:46.259Z</time></trkpt><trkpt lat="46.1098886" lon="13.5858041"><ele>628.6666666666667</ele><time>2026-05-02T09:06:47.259Z</time></trkpt><trkpt lat="46.1098513" lon="13.5858923"><ele>628.3333333333334</ele><time>2026-05-02T09:06:48.259Z</time></trkpt><trkpt lat="46.1098173" lon="13.5859989"><ele>628.0</ele><time>2026-05-02T09:06:49.258Z</time></trkpt><trkpt lat="46.1097768" lon="13.5861637"><ele>620.4</ele><time>2026-05-02T09:06:51.258Z</time></trkpt><trkpt lat="46.1097584" lon="13.5862519"><ele>612.8</ele><time>2026-05-02T09:06:52.258Z</time></trkpt><trkpt lat="46.1097274" lon="13.5864054"><ele>605.2</ele><time>2026-05-02T09:06:54.259Z</time></trkpt><trkpt lat="46.1097021" lon="13.5865883"><ele>597.6</ele><time>2026-05-02T09:06:56.258Z</time></trkpt><trkpt lat="46.1096763" lon="13.5867779"><ele>590.0</ele><time>2026-05-02T09:06:58.258Z</time></trkpt><trkpt lat="46.1096607" lon="13.586878"><ele>590.0</ele><time>2026-05-02T09:06:59.258Z</time></trkpt><trkpt lat="46.1096415" lon="13.586971"><ele>590.0</ele><time>2026-05-02T09:07:00.258Z</time></trkpt><trkpt lat="46.1096247" lon="13.5870588"><ele>590.0</ele><time>2026-05-02T09:07:01.259Z</time></trkpt><trkpt lat="46.1096054" lon="13.5871481"><ele>590.0</ele><time>2026-05-02T09:07:02.258Z</time></trkpt><trkpt lat="46.1095652" lon="13.5873051"><ele>590.0</ele><time>2026-05-02T09:07:04.258Z</time></trkpt><trkpt lat="46.1095255" lon="13.5874639"><ele>590.0</ele><time>2026-05-02T09:07:06.258Z</time></trkpt><trkpt lat="46.109511" lon="13.5876174"><ele>590.6666666666666</ele><time>2026-05-02T09:07:08.259Z</time></trkpt><trkpt lat="46.1095147" lon="13.5877322"><ele>591.3333333333333</ele><time>2026-05-02T09:07:10.258Z</time></trkpt><trkpt lat="46.1095491" lon="13.5878849"><ele>592.0</ele><time>2026-05-02T09:07:12.258Z</time></trkpt><trkpt lat="46.1095826" lon="13.5879888"><ele>592.6666666666666</ele><time>2026-05-02T09:07:13.258Z</time></trkpt><trkpt lat="46.1096238" lon="13.5880599"><ele>593.3333333333334</ele><time>2026-05-02T09:07:14.259Z</time></trkpt><trkpt lat="46.1097005" lon="13.5881544"><ele>594.0</ele><time>2026-05-02T09:07:16.259Z</time></trkpt><trkpt lat="46.1096911" lon="13.5882564"><ele>594.0</ele><time>2026-05-02T09:07:20.259Z</time></trkpt><trkpt lat="46.1096074" lon="13.5882253"><ele>594.0</ele><time>2026-05-02T09:07:22.258Z</time></trkpt><trkpt lat="46.1095312" lon="13.5881553"><ele>594.0</ele><time>2026-05-02T09:07:24.259Z</time></trkpt><trkpt lat="46.1094562" lon="13.5880756"><ele>594.0</ele><time>2026-05-02T09:07:26.258Z</time></trkpt><trkpt lat="46.1093995" lon="13.5879509"><ele>594.0</ele><time>2026-05-02T09:07:28.258Z</time></trkpt><trkpt lat="46.1093716" lon="13.5878151"><ele>594.0</ele><time>2026-05-02T09:07:30.259Z</time></trkpt><trkpt lat="46.1093476" lon="13.5877256"><ele>594.0</ele><time>2026-05-02T09:07:31.258Z</time></trkpt><trkpt lat="46.1093231" lon="13.5875633"><ele>594.0</ele><time>2026-05-02T09:07:33.259Z</time></trkpt><trkpt lat="46.1093152" lon="13.5874598"><ele>594.0</ele><time>2026-05-02T09:07:34.259Z</time></trkpt><trkpt lat="46.1092992" lon="13.5873511"><ele>594.0</ele><time>2026-05-02T09:07:35.258Z</time></trkpt><trkpt lat="46.1092846" lon="13.5872624"><ele>594.0</ele><time>2026-05-02T09:07:36.258Z</time></trkpt><trkpt lat="46.1092706" lon="13.5871483"><ele>594.0</ele><time>2026-05-02T09:07:37.259Z</time></trkpt><trkpt lat="46.1092689" lon="13.58703"><ele>594.0</ele><time>2026-05-02T09:07:38.259Z</time></trkpt><trkpt lat="46.1092668" lon="13.5869334"><ele>594.0</ele><time>2026-05-02T09:07:39.259Z</time></trkpt><trkpt lat="46.1092595" lon="13.5868252"><ele>594.0</ele><time>2026-05-02T09:07:40.258Z</time></trkpt><trkpt lat="46.1092466" lon="13.5867192"><ele>594.0</ele><time>2026-05-02T09:07:41.259Z</time></trkpt><trkpt lat="46.1092412" lon="13.5866118"><ele>594.0</ele><time>2026-05-02T09:07:42.259Z</time></trkpt><trkpt lat="46.1092364" lon="13.5864614"><ele>593.3333333333334</ele><time>2026-05-02T09:07:44.259Z</time></trkpt><trkpt lat="46.1092731" lon="13.5862693"><ele>592.6666666666666</ele><time>2026-05-02T09:07:46.259Z</time></trkpt><trkpt lat="46.1092833" lon="13.5861694"><ele>592.0</ele><time>2026-05-02T09:07:47.259Z</time></trkpt><trkpt lat="46.1092925" lon="13.5860736"><ele>591.3333333333333</ele><time>2026-05-02T09:07:48.259Z</time></trkpt><trkpt lat="46.1092934" lon="13.5859703"><ele>590.6666666666666</ele><time>2026-05-02T09:07:49.259Z</time></trkpt><trkpt lat="46.1092982" lon="13.5858706"><ele>590.0</ele><time>2026-05-02T09:07:50.259Z</time></trkpt><trkpt lat="46.1092938" lon="13.585769"><ele>589.2</ele><time>2026-05-02T09:07:51.258Z</time></trkpt><trkpt lat="46.1093003" lon="13.5856747"><ele>588.4</ele><time>2026-05-02T09:07:52.258Z</time></trkpt><trkpt lat="46.1092882" lon="13.5855139"><ele>587.6</ele><time>2026-05-02T09:07:54.258Z</time></trkpt><trkpt lat="46.109241" lon="13.5853576"><ele>586.8</ele><time>2026-05-02T09:07:56.259Z</time></trkpt><trkpt lat="46.109194" lon="13.5852065"><ele>586.0</ele><time>2026-05-02T09:07:58.259Z</time></trkpt><trkpt lat="46.1091654" lon="13.5850316"><ele>586.0</ele><time>2026-05-02T09:08:00.258Z</time></trkpt><trkpt lat="46.109163" lon="13.5848753"><ele>586.0</ele><time>2026-05-02T09:08:02.258Z</time></trkpt><trkpt lat="46.1091291" lon="13.584794"><ele>586.0</ele><time>2026-05-02T09:08:03.259Z</time></trkpt><trkpt lat="46.109069" lon="13.584646"><ele>586.0</ele><time>2026-05-02T09:08:05.258Z</time></trkpt><trkpt lat="46.109027" lon="13.5845678"><ele>586.0</ele><time>2026-05-02T09:08:06.259Z</time></trkpt><trkpt lat="46.1089869" lon="13.5844818"><ele>586.0</ele><time>2026-05-02T09:08:07.259Z</time></trkpt><trkpt lat="46.1089243" lon="13.5843471"><ele>579.8</ele><time>2026-05-02T09:08:09.259Z</time></trkpt><trkpt lat="46.1088808" lon="13.5842707"><ele>573.6</ele><time>2026-05-02T09:08:10.259Z</time></trkpt><trkpt lat="46.1088195" lon="13.5841056"><ele>567.4</ele><time>2026-05-02T09:08:12.259Z</time></trkpt><trkpt lat="46.1087865" lon="13.5839875"><ele>561.2</ele><time>2026-05-02T09:08:14.259Z</time></trkpt><trkpt lat="46.1086928" lon="13.5838058"><ele>555.0</ele><time>2026-05-02T09:08:16.259Z</time></trkpt><trkpt lat="46.1086423" lon="13.5837361"><ele>553.4</ele><time>2026-05-02T09:08:17.259Z</time></trkpt><trkpt lat="46.1085749" lon="13.5836151"><ele>551.8</ele><time>2026-05-02T09:08:19.259Z</time></trkpt><trkpt lat="46.1084878" lon="13.5835522"><ele>550.2</ele><time>2026-05-02T09:08:21.258Z</time></trkpt><trkpt lat="46.1083873" lon="13.5835713"><ele>548.6</ele><time>2026-05-02T09:08:23.258Z</time></trkpt><trkpt lat="46.1082649" lon="13.5836089"><ele>547.0</ele><time>2026-05-02T09:08:25.258Z</time></trkpt><trkpt lat="46.108186" lon="13.5836503"><ele>547.0</ele><time>2026-05-02T09:08:26.258Z</time></trkpt><trkpt lat="46.108123" lon="13.5836669"><ele>547.0</ele><time>2026-05-02T09:08:27.258Z</time></trkpt><trkpt lat="46.1080133" lon="13.5836705"><ele>547.0</ele><time>2026-05-02T09:08:29.259Z</time></trkpt><trkpt lat="46.1079058" lon="13.5836519"><ele>547.0</ele><time>2026-05-02T09:08:31.258Z</time></trkpt><trkpt lat="46.1078029" lon="13.5835891"><ele>547.0</ele><time>2026-05-02T09:08:33.258Z</time></trkpt><trkpt lat="46.1076897" lon="13.5835026"><ele>547.0</ele><time>2026-05-02T09:08:35.259Z</time></trkpt><trkpt lat="46.1075863" lon="13.583441"><ele>547.0</ele><time>2026-05-02T09:08:37.259Z</time></trkpt><trkpt lat="46.107509" lon="13.5833594"><ele>547.0</ele><time>2026-05-02T09:08:39.258Z</time></trkpt><trkpt lat="46.107451" lon="13.583259"><ele>547.0</ele><time>2026-05-02T09:08:41.258Z</time></trkpt><trkpt lat="46.1074177" lon="13.5833723"><ele>547.0</ele><time>2026-05-02T09:08:48.258Z</time></trkpt><trkpt lat="46.1074766" lon="13.583485"><ele>547.0</ele><time>2026-05-02T09:08:50.258Z</time></trkpt><trkpt lat="46.1075505" lon="13.5836272"><ele>547.0</ele><time>2026-05-02T09:08:52.258Z</time></trkpt><trkpt lat="46.1075998" lon="13.5836975"><ele>547.0</ele><time>2026-05-02T09:08:53.259Z</time></trkpt><trkpt lat="46.1076403" lon="13.5837807"><ele>547.0</ele><time>2026-05-02T09:08:54.259Z</time></trkpt><trkpt lat="46.1076841" lon="13.5838601"><ele>547.0</ele><time>2026-05-02T09:08:55.259Z</time></trkpt><trkpt lat="46.1077282" lon="13.5839322"><ele>547.0</ele><time>2026-05-02T09:08:56.258Z</time></trkpt><trkpt lat="46.1077739" lon="13.5839982"><ele>545.6</ele><time>2026-05-02T09:08:57.258Z</time></trkpt><trkpt lat="46.107858" lon="13.5840962"><ele>544.2</ele><time>2026-05-02T09:08:59.258Z</time></trkpt><trkpt lat="46.1079283" lon="13.5841662"><ele>542.8</ele><time>2026-05-02T09:09:01.259Z</time></trkpt><trkpt lat="46.108035" lon="13.5841372"><ele>541.4</ele><time>2026-05-02T09:09:04.259Z</time></trkpt><trkpt lat="46.1080981" lon="13.5841236"><ele>540.0</ele><time>2026-05-02T09:09:05.259Z</time></trkpt><trkpt lat="46.1082046" lon="13.5841565"><ele>540.25</ele><time>2026-05-02T09:09:07.258Z</time></trkpt><trkpt lat="46.1082571" lon="13.584258"><ele>540.5</ele><time>2026-05-02T09:09:09.258Z</time></trkpt><trkpt lat="46.1082519" lon="13.5844314"><ele>540.75</ele><time>2026-05-02T09:09:11.259Z</time></trkpt><trkpt lat="46.1082592" lon="13.5845935"><ele>541.0</ele><time>2026-05-02T09:09:13.258Z</time></trkpt><trkpt lat="46.1082722" lon="13.5847852"><ele>541.0</ele><time>2026-05-02T09:09:15.258Z</time></trkpt><trkpt lat="46.1082718" lon="13.5848879"><ele>541.0</ele><time>2026-05-02T09:09:16.258Z</time></trkpt><trkpt lat="46.1082665" lon="13.5849857"><ele>541.0</ele><time>2026-05-02T09:09:17.258Z</time></trkpt><trkpt lat="46.1082604" lon="13.5850826"><ele>541.0</ele><time>2026-05-02T09:09:18.259Z</time></trkpt><trkpt lat="46.1082483" lon="13.5852481"><ele>541.0</ele><time>2026-05-02T09:09:20.259Z</time></trkpt><trkpt lat="46.1082428" lon="13.5853962"><ele>541.0</ele><time>2026-05-02T09:09:22.258Z</time></trkpt><trkpt lat="46.1082341" lon="13.5854899"><ele>530.5</ele><time>2026-05-02T09:09:23.258Z</time></trkpt><trkpt lat="46.1081754" lon="13.5856311"><ele>520.0</ele><time>2026-05-02T09:09:25.258Z</time></trkpt><trkpt lat="46.1081044" lon="13.5857752"><ele>509.5</ele><time>2026-05-02T09:09:27.259Z</time></trkpt><trkpt lat="46.1080231" lon="13.5858819"><ele>499.0</ele><time>2026-05-02T09:09:29.258Z</time></trkpt><trkpt lat="46.1079469" lon="13.5860221"><ele>499.0</ele><time>2026-05-02T09:09:31.259Z</time></trkpt><trkpt lat="46.1079121" lon="13.5861669"><ele>499.0</ele><time>2026-05-02T09:09:33.258Z</time></trkpt><trkpt lat="46.1078942" lon="13.5862987"><ele>499.0</ele><time>2026-05-02T09:09:35.258Z</time></trkpt><trkpt lat="46.1078672" lon="13.5863957"><ele>499.0</ele><time>2026-05-02T09:09:37.258Z</time></trkpt><trkpt lat="46.1078145" lon="13.5865838"><ele>499.0</ele><time>2026-05-02T09:09:39.258Z</time></trkpt><trkpt lat="46.1077823" lon="13.5866839"><ele>498.6666666666667</ele><time>2026-05-02T09:09:40.258Z</time></trkpt><trkpt lat="46.1077485" lon="13.5867975"><ele>498.33333333333337</ele><time>2026-05-02T09:09:41.258Z</time></trkpt><trkpt lat="46.1077081" lon="13.5868959"><ele>498.0</ele><time>2026-05-02T09:09:42.259Z</time></trkpt><trkpt lat="46.1076871" lon="13.586989"><ele>497.66666666666663</ele><time>2026-05-02T09:09:43.258Z</time></trkpt><trkpt lat="46.1076616" lon="13.5870733"><ele>497.3333333333333</ele><time>2026-05-02T09:09:44.258Z</time></trkpt><trkpt lat="46.1076147" lon="13.5872258"><ele>497.0</ele><time>2026-05-02T09:09:46.259Z</time></trkpt><trkpt lat="46.1075564" lon="13.5873456"><ele>497.99999999999994</ele><time>2026-05-02T09:09:48.258Z</time></trkpt><trkpt lat="46.1074897" lon="13.5874539"><ele>499.0</ele><time>2026-05-02T09:09:50.258Z</time></trkpt><trkpt lat="46.1074535" lon="13.5875616"><ele>500.0</ele><time>2026-05-02T09:09:52.258Z</time></trkpt><trkpt lat="46.1074578" lon="13.5876823"><ele>501.0</ele><time>2026-05-02T09:09:55.258Z</time></trkpt><trkpt lat="46.1074156" lon="13.5877831"><ele>501.99999999999994</ele><time>2026-05-02T09:09:56.259Z</time></trkpt><trkpt lat="46.1073698" lon="13.5878985"><ele>503.0</ele><time>2026-05-02T09:09:57.258Z</time></trkpt><trkpt lat="46.1073412" lon="13.5879967"><ele>492.99999999999994</ele><time>2026-05-02T09:09:58.258Z</time></trkpt><trkpt lat="46.10732" lon="13.5881015"><ele>483.0</ele><time>2026-05-02T09:09:59.259Z</time></trkpt><trkpt lat="46.1073092" lon="13.5882138"><ele>473.0</ele><time>2026-05-02T09:10:00.258Z</time></trkpt><trkpt lat="46.1073103" lon="13.5883077"><ele>463.0</ele><time>2026-05-02T09:10:01.258Z</time></trkpt><trkpt lat="46.1073121" lon="13.5884144"><ele>452.99999999999994</ele><time>2026-05-02T09:10:02.258Z</time></trkpt><trkpt lat="46.1073454" lon="13.5885817"><ele>443.0</ele><time>2026-05-02T09:10:04.258Z</time></trkpt><trkpt lat="46.1073714" lon="13.5886674"><ele>443.0</ele><time>2026-05-02T09:10:05.259Z</time></trkpt><trkpt lat="46.107401" lon="13.588748"><ele>442.99999999999994</ele><time>2026-05-02T09:10:06.259Z</time></trkpt><trkpt lat="46.1074785" lon="13.5888837"><ele>442.99999999999994</ele><time>2026-05-02T09:10:08.258Z</time></trkpt><trkpt lat="46.1075618" lon="13.5890137"><ele>443.0</ele><time>2026-05-02T09:10:10.258Z</time></trkpt><trkpt lat="46.1076643" lon="13.5891334"><ele>443.0</ele><time>2026-05-02T09:10:12.258Z</time></trkpt><trkpt lat="46.1077405" lon="13.5891891"><ele>447.4</ele><time>2026-05-02T09:10:13.258Z</time></trkpt><trkpt lat="46.107834" lon="13.5892503"><ele>451.79999999999995</ele><time>2026-05-02T09:10:14.259Z</time></trkpt><trkpt lat="46.1079193" lon="13.5893199"><ele>456.2</ele><time>2026-05-02T09:10:15.259Z</time></trkpt><trkpt lat="46.1080093" lon="13.5893991"><ele>460.6</ele><time>2026-05-02T09:10:16.258Z</time></trkpt><trkpt lat="46.1080886" lon="13.5894473"><ele>465.0</ele><time>2026-05-02T09:10:17.259Z</time></trkpt><trkpt lat="46.108171" lon="13.5894952"><ele>460.8333333333333</ele><time>2026-05-02T09:10:18.258Z</time></trkpt><trkpt lat="46.1082386" lon="13.5895378"><ele>456.66666666666663</ele><time>2026-05-02T09:10:19.258Z</time></trkpt><trkpt lat="46.108319" lon="13.5895863"><ele>452.5</ele><time>2026-05-02T09:10:20.259Z</time></trkpt><trkpt lat="46.108409" lon="13.5896338"><ele>448.3333333333333</ele><time>2026-05-02T09:10:21.259Z</time></trkpt><trkpt lat="46.108487" lon="13.5896805"><ele>444.16666666666663</ele><time>2026-05-02T09:10:22.258Z</time></trkpt><trkpt lat="46.1085536" lon="13.5897268"><ele>440.0</ele><time>2026-05-02T09:10:23.259Z</time></trkpt><trkpt lat="46.1086254" lon="13.5897646"><ele>439.99999999999994</ele><time>2026-05-02T09:10:24.258Z</time></trkpt><trkpt lat="46.1087064" lon="13.5897813"><ele>440.0</ele><time>2026-05-02T09:10:25.258Z</time></trkpt><trkpt lat="46.1087898" lon="13.5898064"><ele>440.0</ele><time>2026-05-02T09:10:26.258Z</time></trkpt><trkpt lat="46.1088839" lon="13.5898292"><ele>440.0</ele><time>2026-05-02T09:10:27.259Z</time></trkpt><trkpt lat="46.1089736" lon="13.5898492"><ele>439.99999999999994</ele><time>2026-05-02T09:10:28.259Z</time></trkpt><trkpt lat="46.1090531" lon="13.5898749"><ele>440.0</ele><time>2026-05-02T09:10:29.259Z</time></trkpt><trkpt lat="46.1091222" lon="13.5899057"><ele>439.99999999999994</ele><time>2026-05-02T09:10:30.258Z</time></trkpt><trkpt lat="46.1091925" lon="13.5899396"><ele>440.0</ele><time>2026-05-02T09:10:31.259Z</time></trkpt><trkpt lat="46.1092735" lon="13.5899692"><ele>440.0</ele><time>2026-05-02T09:10:32.258Z</time></trkpt><trkpt lat="46.1093528" lon="13.5900005"><ele>440.0</ele><time>2026-05-02T09:10:33.258Z</time></trkpt><trkpt lat="46.1094252" lon="13.5900206"><ele>439.99999999999994</ele><time>2026-05-02T09:10:34.259Z</time></trkpt><trkpt lat="46.1094943" lon="13.5900257"><ele>440.0</ele><time>2026-05-02T09:10:35.259Z</time></trkpt><trkpt lat="46.1095683" lon="13.5900431"><ele>440.0</ele><time>2026-05-02T09:10:36.259Z</time></trkpt><trkpt lat="46.1096374" lon="13.5900519"><ele>440.0</ele><time>2026-05-02T09:10:37.258Z</time></trkpt><trkpt lat="46.1097694" lon="13.5900746"><ele>440.0</ele><time>2026-05-02T09:10:39.259Z</time></trkpt><trkpt lat="46.1098588" lon="13.5901412"><ele>440.0</ele><time>2026-05-02T09:10:41.259Z</time></trkpt><trkpt lat="46.1099395" lon="13.5902446"><ele>440.0</ele><time>2026-05-02T09:10:43.259Z</time></trkpt><trkpt lat="46.109998" lon="13.5903666"><ele>440.0</ele><time>2026-05-02T09:10:45.259Z</time></trkpt><trkpt lat="46.1100232" lon="13.5904827"><ele>440.0</ele><time>2026-05-02T09:10:47.259Z</time></trkpt><trkpt lat="46.1099985" lon="13.5906354"><ele>440.0</ele><time>2026-05-02T09:10:49.258Z</time></trkpt><trkpt lat="46.109994" lon="13.5907263"><ele>440.0</ele><time>2026-05-02T09:10:50.259Z</time></trkpt><trkpt lat="46.1099872" lon="13.5908175"><ele>440.0</ele><time>2026-05-02T09:10:51.258Z</time></trkpt><trkpt lat="46.1099756" lon="13.5910139"><ele>440.0</ele><time>2026-05-02T09:10:53.259Z</time></trkpt><trkpt lat="46.1099648" lon="13.5911107"><ele>440.0</ele><time>2026-05-02T09:10:54.258Z</time></trkpt><trkpt lat="46.1099591" lon="13.5912034"><ele>440.0</ele><time>2026-05-02T09:10:55.259Z</time></trkpt><trkpt lat="46.1099516" lon="13.591374"><ele>440.0</ele><time>2026-05-02T09:10:57.259Z</time></trkpt><trkpt lat="46.1099524" lon="13.5915449"><ele>440.0</ele><time>2026-05-02T09:10:59.258Z</time></trkpt><trkpt lat="46.1099659" lon="13.5917018"><ele>440.6</ele><time>2026-05-02T09:11:01.259Z</time></trkpt><trkpt lat="46.1099774" lon="13.5918467"><ele>441.2</ele><time>2026-05-02T09:11:03.259Z</time></trkpt><trkpt lat="46.110033" lon="13.5919798"><ele>441.79999999999995</ele><time>2026-05-02T09:11:05.259Z</time></trkpt><trkpt lat="46.1101029" lon="13.5920734"><ele>442.4</ele><time>2026-05-02T09:11:07.258Z</time></trkpt><trkpt lat="46.1101802" lon="13.5921419"><ele>443.0</ele><time>2026-05-02T09:11:09.259Z</time></trkpt><trkpt lat="46.1102996" lon="13.5921792"><ele>443.0</ele><time>2026-05-02T09:11:11.258Z</time></trkpt><trkpt lat="46.1104072" lon="13.5922285"><ele>442.99999999999994</ele><time>2026-05-02T09:11:13.258Z</time></trkpt><trkpt lat="46.1105202" lon="13.5922989"><ele>442.99999999999994</ele><time>2026-05-02T09:11:15.258Z</time></trkpt><trkpt lat="46.110611" lon="13.5924228"><ele>443.0</ele><time>2026-05-02T09:11:17.258Z</time></trkpt><trkpt lat="46.1106631" lon="13.5924871"><ele>443.0</ele><time>2026-05-02T09:11:18.258Z</time></trkpt><trkpt lat="46.1107044" lon="13.5925592"><ele>444.75</ele><time>2026-05-02T09:11:19.258Z</time></trkpt><trkpt lat="46.1107633" lon="13.5926915"><ele>446.5</ele><time>2026-05-02T09:11:21.258Z</time></trkpt><trkpt lat="46.1108059" lon="13.5928376"><ele>448.25</ele><time>2026-05-02T09:11:23.259Z</time></trkpt><trkpt lat="46.1108188" lon="13.5929887"><ele>450.0</ele><time>2026-05-02T09:11:25.259Z</time></trkpt><trkpt lat="46.1107983" lon="13.5931858"><ele>450.0</ele><time>2026-05-02T09:11:27.258Z</time></trkpt><trkpt lat="46.1107806" lon="13.5932796"><ele>450.0</ele><time>2026-05-02T09:11:28.259Z</time></trkpt><trkpt lat="46.1107657" lon="13.5933828"><ele>450.0</ele><time>2026-05-02T09:11:29.258Z</time></trkpt><trkpt lat="46.110739" lon="13.5935325"><ele>450.0</ele><time>2026-05-02T09:11:31.259Z</time></trkpt><trkpt lat="46.1107415" lon="13.5936663"><ele>450.0</ele><time>2026-05-02T09:11:33.258Z</time></trkpt><trkpt lat="46.110687" lon="13.5936009"><ele>450.0</ele><time>2026-05-02T09:11:39.259Z</time></trkpt><trkpt lat="46.1106935" lon="13.5935084"><ele>444.1666666666667</ele><time>2026-05-02T09:11:40.258Z</time></trkpt><trkpt lat="46.1107048" lon="13.5934189"><ele>438.33333333333337</ele><time>2026-05-02T09:11:41.258Z</time></trkpt><trkpt lat="46.1107154" lon="13.5933209"><ele>432.5</ele><time>2026-05-02T09:11:42.259Z</time></trkpt><trkpt lat="46.1107185" lon="13.5932195"><ele>426.6666666666667</ele><time>2026-05-02T09:11:43.259Z</time></trkpt><trkpt lat="46.1106977" lon="13.5930618"><ele>420.83333333333337</ele><time>2026-05-02T09:11:45.259Z</time></trkpt><trkpt lat="46.1106344" lon="13.5929539"><ele>415.0</ele><time>2026-05-02T09:11:47.259Z</time></trkpt><trkpt lat="46.1105507" lon="13.5928546"><ele>420.6</ele><time>2026-05-02T09:11:49.259Z</time></trkpt><trkpt lat="46.1104569" lon="13.5927657"><ele>426.2</ele><time>2026-05-02T09:11:51.259Z</time></trkpt><trkpt lat="46.1103314" lon="13.592703"><ele>431.79999999999995</ele><time>2026-05-02T09:11:53.258Z</time></trkpt><trkpt lat="46.1102705" lon="13.5926793"><ele>437.4</ele><time>2026-05-02T09:11:54.259Z</time></trkpt><trkpt lat="46.1102041" lon="13.5926679"><ele>443.0</ele><time>2026-05-02T09:11:55.259Z</time></trkpt><trkpt lat="46.1100807" lon="13.5926911"><ele>442.99999999999994</ele><time>2026-05-02T09:11:57.259Z</time></trkpt><trkpt lat="46.1099585" lon="13.5927525"><ele>443.0</ele><time>2026-05-02T09:11:59.259Z</time></trkpt><trkpt lat="46.1098926" lon="13.5927672"><ele>443.0</ele><time>2026-05-02T09:12:00.259Z</time></trkpt><trkpt lat="46.1098145" lon="13.5927639"><ele>443.0</ele><time>2026-05-02T09:12:01.259Z</time></trkpt><trkpt lat="46.1097442" lon="13.5927641"><ele>442.99999999999994</ele><time>2026-05-02T09:12:02.258Z</time></trkpt><trkpt lat="46.1096743" lon="13.5927749"><ele>443.0</ele><time>2026-05-02T09:12:03.258Z</time></trkpt><trkpt lat="46.1096111" lon="13.5927833"><ele>437.79999999999995</ele><time>2026-05-02T09:12:04.258Z</time></trkpt><trkpt lat="46.1094937" lon="13.5928026"><ele>432.59999999999997</ele><time>2026-05-02T09:12:06.258Z</time></trkpt><trkpt lat="46.1093846" lon="13.5928455"><ele>427.4</ele><time>2026-05-02T09:12:08.259Z</time></trkpt><trkpt lat="46.1092909" lon="13.5928389"><ele>422.20000000000005</ele><time>2026-05-02T09:12:10.258Z</time></trkpt><trkpt lat="46.109198" lon="13.5928046"><ele>417.0</ele><time>2026-05-02T09:12:12.258Z</time></trkpt><trkpt lat="46.1091487" lon="13.5926678"><ele>417.0</ele><time>2026-05-02T09:12:14.258Z</time></trkpt><trkpt lat="46.1091288" lon="13.5925341"><ele>417.0</ele><time>2026-05-02T09:12:16.258Z</time></trkpt><trkpt lat="46.1091422" lon="13.5924384"><ele>417.0</ele><time>2026-05-02T09:12:17.259Z</time></trkpt><trkpt lat="46.1091676" lon="13.5922649"><ele>417.0</ele><time>2026-05-02T09:12:19.259Z</time></trkpt><trkpt lat="46.1091772" lon="13.592151"><ele>417.0</ele><time>2026-05-02T09:12:20.258Z</time></trkpt><trkpt lat="46.1091881" lon="13.5920595"><ele>417.0</ele><time>2026-05-02T09:12:21.258Z</time></trkpt><trkpt lat="46.1091868" lon="13.591961"><ele>417.0</ele><time>2026-05-02T09:12:22.258Z</time></trkpt><trkpt lat="46.1091797" lon="13.5917705"><ele>417.0</ele><time>2026-05-02T09:12:24.259Z</time></trkpt><trkpt lat="46.1091545" lon="13.5915948"><ele>417.0</ele><time>2026-05-02T09:12:26.258Z</time></trkpt><trkpt lat="46.1090962" lon="13.5914549"><ele>417.0</ele><time>2026-05-02T09:12:28.258Z</time></trkpt><trkpt lat="46.1090324" lon="13.5913187"><ele>412.8</ele><time>2026-05-02T09:12:30.259Z</time></trkpt><trkpt lat="46.108965" lon="13.5912538"><ele>408.6</ele><time>2026-05-02T09:12:32.259Z</time></trkpt><trkpt lat="46.1088734" lon="13.5912456"><ele>404.40000000000003</ele><time>2026-05-02T09:12:34.259Z</time></trkpt><trkpt lat="46.1087514" lon="13.5912866"><ele>400.20000000000005</ele><time>2026-05-02T09:12:36.258Z</time></trkpt><trkpt lat="46.1086886" lon="13.5913178"><ele>396.0</ele><time>2026-05-02T09:12:37.258Z</time></trkpt><trkpt lat="46.10856" lon="13.5913596"><ele>396.0</ele><time>2026-05-02T09:12:39.258Z</time></trkpt><trkpt lat="46.1084875" lon="13.5913802"><ele>396.0</ele><time>2026-05-02T09:12:40.259Z</time></trkpt><trkpt lat="46.1083775" lon="13.5914028"><ele>396.0</ele><time>2026-05-02T09:12:42.258Z</time></trkpt><trkpt lat="46.1082688" lon="13.5913785"><ele>396.0</ele><time>2026-05-02T09:12:44.258Z</time></trkpt><trkpt lat="46.1081966" lon="13.5913945"><ele>396.0</ele><time>2026-05-02T09:12:45.259Z</time></trkpt><trkpt lat="46.108123" lon="13.5914017"><ele>396.0</ele><time>2026-05-02T09:12:46.259Z</time></trkpt><trkpt lat="46.1079995" lon="13.5914013"><ele>393.1666666666667</ele><time>2026-05-02T09:12:48.258Z</time></trkpt><trkpt lat="46.1079296" lon="13.5913836"><ele>390.3333333333333</ele><time>2026-05-02T09:12:49.259Z</time></trkpt><trkpt lat="46.1078673" lon="13.5913693"><ele>387.5</ele><time>2026-05-02T09:12:50.258Z</time></trkpt><trkpt lat="46.107746" lon="13.5913644"><ele>384.66666666666663</ele><time>2026-05-02T09:12:52.258Z</time></trkpt><trkpt lat="46.1076836" lon="13.5913498"><ele>381.8333333333333</ele><time>2026-05-02T09:12:53.258Z</time></trkpt><trkpt lat="46.107623" lon="13.5913152"><ele>379.0</ele><time>2026-05-02T09:12:54.259Z</time></trkpt><trkpt lat="46.1075492" lon="13.5912975"><ele>379.0</ele><time>2026-05-02T09:12:55.259Z</time></trkpt><trkpt lat="46.1074231" lon="13.5912753"><ele>379.0</ele><time>2026-05-02T09:12:57.259Z</time></trkpt><trkpt lat="46.1073468" lon="13.5912913"><ele>379.0</ele><time>2026-05-02T09:12:58.259Z</time></trkpt><trkpt lat="46.107215" lon="13.5913007"><ele>379.0</ele><time>2026-05-02T09:13:00.258Z</time></trkpt><trkpt lat="46.1071062" lon="13.5913006"><ele>379.0</ele><time>2026-05-02T09:13:02.258Z</time></trkpt><trkpt lat="46.1069888" lon="13.5913179"><ele>377.79999999999995</ele><time>2026-05-02T09:13:04.259Z</time></trkpt><trkpt lat="46.106849" lon="13.5913974"><ele>376.59999999999997</ele><time>2026-05-02T09:13:06.259Z</time></trkpt><trkpt lat="46.1067712" lon="13.5914627"><ele>375.4</ele><time>2026-05-02T09:13:07.258Z</time></trkpt><trkpt lat="46.1067125" lon="13.5915128"><ele>374.2</ele><time>2026-05-02T09:13:08.258Z</time></trkpt><trkpt lat="46.1066561" lon="13.59156"><ele>373.0</ele><time>2026-05-02T09:13:09.258Z</time></trkpt><trkpt lat="46.1065436" lon="13.5916177"><ele>373.0</ele><time>2026-05-02T09:13:11.259Z</time></trkpt><trkpt lat="46.1064275" lon="13.5916375"><ele>373.0</ele><time>2026-05-02T09:13:13.258Z</time></trkpt><trkpt lat="46.1063631" lon="13.591681"><ele>373.0</ele><time>2026-05-02T09:13:15.266Z</time></trkpt><trkpt lat="46.1064192" lon="13.5917387"><ele>373.0</ele><time>2026-05-02T09:13:18.267Z</time></trkpt><trkpt lat="46.1065127" lon="13.5917019"><ele>373.0</ele><time>2026-05-02T09:13:20.266Z</time></trkpt><trkpt lat="46.1066294" lon="13.5916934"><ele>373.0</ele><time>2026-05-02T09:13:22.266Z</time></trkpt><trkpt lat="46.1067436" lon="13.5916606"><ele>373.0</ele><time>2026-05-02T09:13:24.267Z</time></trkpt><trkpt lat="46.1068213" lon="13.5916259"><ele>373.0</ele><time>2026-05-02T09:13:26.267Z</time></trkpt><trkpt lat="46.1069262" lon="13.5916292"><ele>373.0</ele><time>2026-05-02T09:13:28.266Z</time></trkpt><trkpt lat="46.1070599" lon="13.5916511"><ele>373.0</ele><time>2026-05-02T09:13:30.266Z</time></trkpt><trkpt lat="46.1071359" lon="13.5916846"><ele>373.0</ele><time>2026-05-02T09:13:31.267Z</time></trkpt><trkpt lat="46.1071971" lon="13.5917228"><ele>373.0</ele><time>2026-05-02T09:13:32.266Z</time></trkpt><trkpt lat="46.1072526" lon="13.5917778"><ele>373.0</ele><time>2026-05-02T09:13:33.267Z</time></trkpt><trkpt lat="46.1073145" lon="13.5918325"><ele>373.0</ele><time>2026-05-02T09:13:34.267Z</time></trkpt><trkpt lat="46.1073686" lon="13.5918929"><ele>373.0</ele><time>2026-05-02T09:13:35.267Z</time></trkpt><trkpt lat="46.1074264" lon="13.5919455"><ele>373.0</ele><time>2026-05-02T09:13:36.266Z</time></trkpt><trkpt lat="46.1075176" lon="13.5920478"><ele>369.16666666666663</ele><time>2026-05-02T09:13:38.266Z</time></trkpt><trkpt lat="46.1075642" lon="13.5921277"><ele>365.3333333333333</ele><time>2026-05-02T09:13:40.267Z</time></trkpt><trkpt lat="46.1076403" lon="13.5922302"><ele>361.5</ele><time>2026-05-02T09:13:42.267Z</time></trkpt><trkpt lat="46.1076979" lon="13.5922991"><ele>357.6666666666667</ele><time>2026-05-02T09:13:43.267Z</time></trkpt><trkpt lat="46.1077584" lon="13.5924133"><ele>353.83333333333337</ele><time>2026-05-02T09:13:45.266Z</time></trkpt><trkpt lat="46.1077941" lon="13.5924986"><ele>350.0</ele><time>2026-05-02T09:13:47.267Z</time></trkpt><trkpt lat="46.107858" lon="13.5924865"><ele>350.0</ele><time>2026-05-02T09:13:49.267Z</time></trkpt><trkpt lat="46.1079386" lon="13.5924165"><ele>350.0</ele><time>2026-05-02T09:13:51.267Z</time></trkpt><trkpt lat="46.1080175" lon="13.5924452"><ele>350.0</ele><time>2026-05-02T09:13:54.267Z</time></trkpt><trkpt lat="46.1079967" lon="13.5925321"><ele>350.0</ele><time>2026-05-02T09:13:58.266Z</time></trkpt><trkpt lat="46.1079453" lon="13.5926176"><ele>350.0</ele><time>2026-05-02T09:14:00.267Z</time></trkpt><trkpt lat="46.1078855" lon="13.5926882"><ele>350.0</ele><time>2026-05-02T09:14:02.266Z</time></trkpt><trkpt lat="46.1078105" lon="13.5927211"><ele>350.0</ele><time>2026-05-02T09:14:04.267Z</time></trkpt><trkpt lat="46.1077088" lon="13.5926918"><ele>350.0</ele><time>2026-05-02T09:14:06.267Z</time></trkpt><trkpt lat="46.1075971" lon="13.5926641"><ele>350.0</ele><time>2026-05-02T09:14:08.267Z</time></trkpt><trkpt lat="46.1074867" lon="13.5925955"><ele>350.0</ele><time>2026-05-02T09:14:10.266Z</time></trkpt><trkpt lat="46.1074277" lon="13.5925628"><ele>350.0</ele><time>2026-05-02T09:14:11.267Z</time></trkpt><trkpt lat="46.1073248" lon="13.5925298"><ele>348.0</ele><time>2026-05-02T09:14:13.267Z</time></trkpt><trkpt lat="46.1072523" lon="13.5925092"><ele>346.0</ele><time>2026-05-02T09:14:14.266Z</time></trkpt><trkpt lat="46.1071435" lon="13.5924884"><ele>344.0</ele><time>2026-05-02T09:14:16.266Z</time></trkpt><trkpt lat="46.1070781" lon="13.5924782"><ele>342.0</ele><time>2026-05-02T09:14:17.267Z</time></trkpt><trkpt lat="46.1069553" lon="13.592473"><ele>340.0</ele><time>2026-05-02T09:14:19.267Z</time></trkpt><trkpt lat="46.1068376" lon="13.5924885"><ele>340.0</ele><time>2026-05-02T09:14:21.267Z</time></trkpt><trkpt lat="46.1067366" lon="13.5924949"><ele>340.0</ele><time>2026-05-02T09:14:23.267Z</time></trkpt><trkpt lat="46.1066344" lon="13.5924953"><ele>340.0</ele><time>2026-05-02T09:14:25.266Z</time></trkpt><trkpt lat="46.106504" lon="13.5925502"><ele>340.0</ele><time>2026-05-02T09:14:27.266Z</time></trkpt><trkpt lat="46.1064357" lon="13.5925653"><ele>340.0</ele><time>2026-05-02T09:14:28.267Z</time></trkpt><trkpt lat="46.1063243" lon="13.5925922"><ele>340.0</ele><time>2026-05-02T09:14:30.267Z</time></trkpt><trkpt lat="46.1063221" lon="13.5926988"><ele>340.0</ele><time>2026-05-02T09:14:33.266Z</time></trkpt><trkpt lat="46.1064173" lon="13.5926982"><ele>340.0</ele><time>2026-05-02T09:14:35.266Z</time></trkpt><trkpt lat="46.1064812" lon="13.5927035"><ele>340.0</ele><time>2026-05-02T09:14:36.266Z</time></trkpt><trkpt lat="46.1065635" lon="13.5926983"><ele>340.0</ele><time>2026-05-02T09:14:37.267Z</time></trkpt><trkpt lat="46.1066354" lon="13.59273"><ele>340.0</ele><time>2026-05-02T09:14:38.266Z</time></trkpt><trkpt lat="46.1067076" lon="13.5927715"><ele>340.0</ele><time>2026-05-02T09:14:39.266Z</time></trkpt><trkpt lat="46.1067703" lon="13.5928153"><ele>340.0</ele><time>2026-05-02T09:14:40.267Z</time></trkpt><trkpt lat="46.1068459" lon="13.5928809"><ele>340.0</ele><time>2026-05-02T09:14:41.267Z</time></trkpt><trkpt lat="46.1069073" lon="13.5929589"><ele>340.0</ele><time>2026-05-02T09:14:42.267Z</time></trkpt><trkpt lat="46.1069521" lon="13.593054"><ele>340.0</ele><time>2026-05-02T09:14:43.267Z</time></trkpt><trkpt lat="46.1069984" lon="13.5931662"><ele>340.0</ele><time>2026-05-02T09:14:44.267Z</time></trkpt><trkpt lat="46.1070406" lon="13.5932942"><ele>335.5</ele><time>2026-05-02T09:14:45.267Z</time></trkpt><trkpt lat="46.107072" lon="13.5933764"><ele>331.0</ele><time>2026-05-02T09:14:46.267Z</time></trkpt><trkpt lat="46.1071171" lon="13.5934467"><ele>326.5</ele><time>2026-05-02T09:14:47.266Z</time></trkpt><trkpt lat="46.1071607" lon="13.593516"><ele>322.0</ele><time>2026-05-02T09:14:48.266Z</time></trkpt><trkpt lat="46.1072641" lon="13.5936112"><ele>317.5</ele><time>2026-05-02T09:14:50.267Z</time></trkpt><trkpt lat="46.1073539" lon="13.5937024"><ele>313.0</ele><time>2026-05-02T09:14:52.267Z</time></trkpt><trkpt lat="46.1073654" lon="13.5938673"><ele>309.0</ele><time>2026-05-02T09:14:54.266Z</time></trkpt><trkpt lat="46.1073211" lon="13.5940099"><ele>305.0</ele><time>2026-05-02T09:14:56.266Z</time></trkpt><trkpt lat="46.1073009" lon="13.5941109"><ele>301.0</ele><time>2026-05-02T09:14:57.267Z</time></trkpt><trkpt lat="46.107272" lon="13.5942766"><ele>297.0</ele><time>2026-05-02T09:14:59.266Z</time></trkpt><trkpt lat="46.1072617" lon="13.5943979"><ele>293.0</ele><time>2026-05-02T09:15:01.267Z</time></trkpt><trkpt lat="46.10723" lon="13.5945064"><ele>295.0</ele><time>2026-05-02T09:15:04.266Z</time></trkpt><trkpt lat="46.1072408" lon="13.5946593"><ele>297.0</ele><time>2026-05-02T09:15:07.266Z</time></trkpt><trkpt lat="46.1073138" lon="13.5948141"><ele>299.0</ele><time>2026-05-02T09:15:09.266Z</time></trkpt><trkpt lat="46.1073677" lon="13.5948916"><ele>301.0</ele><time>2026-05-02T09:15:10.266Z</time></trkpt><trkpt lat="46.1074161" lon="13.5949797"><ele>303.0</ele><time>2026-05-02T09:15:11.266Z</time></trkpt><trkpt lat="46.1074582" lon="13.5950668"><ele>303.0</ele><time>2026-05-02T09:15:12.266Z</time></trkpt><trkpt lat="46.1074981" lon="13.5951527"><ele>303.0</ele><time>2026-05-02T09:15:13.266Z</time></trkpt><trkpt lat="46.1075389" lon="13.5952383"><ele>303.0</ele><time>2026-05-02T09:15:14.266Z</time></trkpt><trkpt lat="46.1075691" lon="13.5953189"><ele>303.0</ele><time>2026-05-02T09:15:15.267Z</time></trkpt><trkpt lat="46.1075936" lon="13.5954127"><ele>303.0</ele><time>2026-05-02T09:15:16.266Z</time></trkpt><trkpt lat="46.1076285" lon="13.5955029"><ele>303.0</ele><time>2026-05-02T09:15:17.266Z</time></trkpt><trkpt lat="46.107655" lon="13.5955965"><ele>303.0</ele><time>2026-05-02T09:15:18.267Z</time></trkpt><trkpt lat="46.1077048" lon="13.5957272"><ele>298.8333333333333</ele><time>2026-05-02T09:15:20.266Z</time></trkpt><trkpt lat="46.1077917" lon="13.5958381"><ele>294.6666666666667</ele><time>2026-05-02T09:15:22.266Z</time></trkpt><trkpt lat="46.1078584" lon="13.5958734"><ele>290.5</ele><time>2026-05-02T09:15:23.266Z</time></trkpt><trkpt lat="46.1079291" lon="13.5959019"><ele>286.33333333333337</ele><time>2026-05-02T09:15:24.267Z</time></trkpt><trkpt lat="46.1079925" lon="13.5959155"><ele>282.1666666666667</ele><time>2026-05-02T09:15:25.266Z</time></trkpt><trkpt lat="46.108112" lon="13.5959282"><ele>278.0</ele><time>2026-05-02T09:15:27.266Z</time></trkpt><trkpt lat="46.1081876" lon="13.5960332"><ele>278.0</ele><time>2026-05-02T09:15:29.267Z</time></trkpt><trkpt lat="46.1081685" lon="13.5961363"><ele>278.0</ele><time>2026-05-02T09:15:31.267Z</time></trkpt><trkpt lat="46.1080997" lon="13.5961489"><ele>278.0</ele><time>2026-05-02T09:15:33.267Z</time></trkpt><trkpt lat="46.1079958" lon="13.5961002"><ele>278.0</ele><time>2026-05-02T09:15:35.266Z</time></trkpt><trkpt lat="46.1079262" lon="13.5960895"><ele>278.0</ele><time>2026-05-02T09:15:36.266Z</time></trkpt><trkpt lat="46.1078392" lon="13.5960986"><ele>278.0</ele><time>2026-05-02T09:15:37.267Z</time></trkpt><trkpt lat="46.1077579" lon="13.5961042"><ele>278.0</ele><time>2026-05-02T09:15:38.266Z</time></trkpt><trkpt lat="46.1076924" lon="13.5960789"><ele>278.0</ele><time>2026-05-02T09:15:39.267Z</time></trkpt><trkpt lat="46.1076211" lon="13.5960228"><ele>278.0</ele><time>2026-05-02T09:15:40.266Z</time></trkpt><trkpt lat="46.1075609" lon="13.5959521"><ele>278.0</ele><time>2026-05-02T09:15:41.267Z</time></trkpt><trkpt lat="46.1074963" lon="13.595821"><ele>278.0</ele><time>2026-05-02T09:15:42.266Z</time></trkpt><trkpt lat="46.1074298" lon="13.5956637"><ele>278.5</ele><time>2026-05-02T09:15:43.267Z</time></trkpt><trkpt lat="46.107349" lon="13.5954998"><ele>279.0</ele><time>2026-05-02T09:15:44.266Z</time></trkpt><trkpt lat="46.1072642" lon="13.5953547"><ele>279.5</ele><time>2026-05-02T09:15:45.266Z</time></trkpt><trkpt lat="46.1071647" lon="13.5952422"><ele>280.0</ele><time>2026-05-02T09:15:46.267Z</time></trkpt><trkpt lat="46.1070802" lon="13.5951405"><ele>280.0</ele><time>2026-05-02T09:15:47.267Z</time></trkpt><trkpt lat="46.1070006" lon="13.5950518"><ele>280.0</ele><time>2026-05-02T09:15:48.266Z</time></trkpt><trkpt lat="46.1069371" lon="13.5949877"><ele>280.0</ele><time>2026-05-02T09:15:49.266Z</time></trkpt><trkpt lat="46.1068498" lon="13.5949486"><ele>280.0</ele><time>2026-05-02T09:15:51.266Z</time></trkpt><trkpt lat="46.1067863" lon="13.5949228"><ele>280.0</ele><time>2026-05-02T09:15:54.267Z</time></trkpt><trkpt lat="46.106731" lon="13.59486"><ele>280.0</ele><time>2026-05-02T09:15:57.267Z</time></trkpt><trkpt lat="46.1066949" lon="13.5947536"><ele>280.0</ele><time>2026-05-02T09:15:59.266Z</time></trkpt><trkpt lat="46.1066585" lon="13.5946269"><ele>280.0</ele><time>2026-05-02T09:16:01.266Z</time></trkpt><trkpt lat="46.1066463" lon="13.594535"><ele>280.0</ele><time>2026-05-02T09:16:03.266Z</time></trkpt><trkpt lat="46.1066668" lon="13.5944462"><ele>280.0</ele><time>2026-05-02T09:27:23.266Z</time></trkpt><trkpt lat="46.1066323" lon="13.5943643"><ele>280.0</ele><time>2026-05-02T09:27:25.266Z</time></trkpt><trkpt lat="46.1065863" lon="13.5942902"><ele>280.0</ele><time>2026-05-02T09:27:27.267Z</time></trkpt><trkpt lat="46.1065159" lon="13.5942542"><ele>280.0</ele><time>2026-05-02T09:27:29.266Z</time></trkpt><trkpt lat="46.1064307" lon="13.5941699"><ele>278.4</ele><time>2026-05-02T09:27:31.267Z</time></trkpt><trkpt lat="46.106348" lon="13.5940263"><ele>276.8</ele><time>2026-05-02T09:27:33.266Z</time></trkpt><trkpt lat="46.1062945" lon="13.5939442"><ele>275.2</ele><time>2026-05-02T09:27:34.267Z</time></trkpt><trkpt lat="46.1062111" lon="13.5938584"><ele>273.6</ele><time>2026-05-02T09:27:35.266Z</time></trkpt><trkpt lat="46.1060992" lon="13.5937935"><ele>272.0</ele><time>2026-05-02T09:27:36.267Z</time></trkpt><trkpt lat="46.1059739" lon="13.5937474"><ele>272.0</ele><time>2026-05-02T09:27:37.267Z</time></trkpt><trkpt lat="46.1058459" lon="13.5936956"><ele>272.0</ele><time>2026-05-02T09:27:38.267Z</time></trkpt><trkpt lat="46.1057146" lon="13.5936025"><ele>272.0</ele><time>2026-05-02T09:27:39.266Z</time></trkpt><trkpt lat="46.1055861" lon="13.5934865"><ele>272.0</ele><time>2026-05-02T09:27:40.267Z</time></trkpt><trkpt lat="46.1054494" lon="13.5933744"><ele>271.5</ele><time>2026-05-02T09:27:41.266Z</time></trkpt><trkpt lat="46.105316" lon="13.5932628"><ele>271.0</ele><time>2026-05-02T09:27:42.266Z</time></trkpt><trkpt lat="46.1052008" lon="13.5931755"><ele>270.5</ele><time>2026-05-02T09:27:43.266Z</time></trkpt><trkpt lat="46.1051052" lon="13.5930738"><ele>270.0</ele><time>2026-05-02T09:27:44.267Z</time></trkpt><trkpt lat="46.1050253" lon="13.5929674"><ele>270.0</ele><time>2026-05-02T09:27:45.266Z</time></trkpt><trkpt lat="46.1049476" lon="13.5928645"><ele>270.0</ele><time>2026-05-02T09:27:46.266Z</time></trkpt><trkpt lat="46.1048746" lon="13.5927459"><ele>270.0</ele><time>2026-05-02T09:27:47.267Z</time></trkpt><trkpt lat="46.1047918" lon="13.5926232"><ele>270.0</ele><time>2026-05-02T09:27:48.267Z</time></trkpt><trkpt lat="46.1047083" lon="13.5924841"><ele>272.25</ele><time>2026-05-02T09:27:49.267Z</time></trkpt><trkpt lat="46.1046166" lon="13.5923238"><ele>274.5</ele><time>2026-05-02T09:27:50.266Z</time></trkpt><trkpt lat="46.1045105" lon="13.5921788"><ele>276.75</ele><time>2026-05-02T09:27:51.267Z</time></trkpt><trkpt lat="46.1044139" lon="13.5919977"><ele>279.0</ele><time>2026-05-02T09:27:52.266Z</time></trkpt><trkpt lat="46.1043256" lon="13.5918106"><ele>279.0</ele><time>2026-05-02T09:27:53.267Z</time></trkpt><trkpt lat="46.1042437" lon="13.5916189"><ele>279.0</ele><time>2026-05-02T09:27:54.267Z</time></trkpt><trkpt lat="46.104164" lon="13.5914026"><ele>279.0</ele><time>2026-05-02T09:27:55.266Z</time></trkpt><trkpt lat="46.1040803" lon="13.5911744"><ele>269.6666666666667</ele><time>2026-05-02T09:27:56.266Z</time></trkpt><trkpt lat="46.1040213" lon="13.5909394"><ele>260.33333333333337</ele><time>2026-05-02T09:27:57.267Z</time></trkpt><trkpt lat="46.103956" lon="13.5907169"><ele>251.0</ele><time>2026-05-02T09:27:58.267Z</time></trkpt><trkpt lat="46.1038836" lon="13.5905042"><ele>255.0</ele><time>2026-05-02T09:27:59.266Z</time></trkpt><trkpt lat="46.1038088" lon="13.5903036"><ele>259.0</ele><time>2026-05-02T09:28:00.267Z</time></trkpt><trkpt lat="46.1037376" lon="13.5901197"><ele>263.0</ele><time>2026-05-02T09:28:01.266Z</time></trkpt><trkpt lat="46.1036715" lon="13.5899666"><ele>267.0</ele><time>2026-05-02T09:28:02.266Z</time></trkpt><trkpt lat="46.1036124" lon="13.5898451"><ele>267.0</ele><time>2026-05-02T09:28:03.266Z</time></trkpt><trkpt lat="46.1035614" lon="13.5897483"><ele>267.0</ele><time>2026-05-02T09:28:04.267Z</time></trkpt><trkpt lat="46.1035198" lon="13.5896766"><ele>267.0</ele><time>2026-05-02T09:28:05.266Z</time></trkpt><trkpt lat="46.1034774" lon="13.5896069"><ele>267.0</ele><time>2026-05-02T09:28:08.267Z</time></trkpt><trkpt lat="46.1035273" lon="13.5897285"><ele>267.0</ele><time>2026-05-02T09:28:17.267Z</time></trkpt><trkpt lat="46.1035869" lon="13.5897994"><ele>267.0</ele><time>2026-05-02T09:28:18.266Z</time></trkpt><trkpt lat="46.1036436" lon="13.5898736"><ele>267.0</ele><time>2026-05-02T09:28:19.267Z</time></trkpt><trkpt lat="46.1036495" lon="13.58999"><ele>267.0</ele><time>2026-05-02T09:28:21.267Z</time></trkpt><trkpt lat="46.1035649" lon="13.5899646"><ele>267.0</ele><time>2026-05-02T09:28:23.267Z</time></trkpt><trkpt lat="46.1035084" lon="13.589885"><ele>267.0</ele><time>2026-05-02T09:28:24.266Z</time></trkpt><trkpt lat="46.1034564" lon="13.5897872"><ele>267.0</ele><time>2026-05-02T09:28:25.266Z</time></trkpt><trkpt lat="46.1033874" lon="13.5896675"><ele>267.0</ele><time>2026-05-02T09:28:26.267Z</time></trkpt><trkpt lat="46.1032867" lon="13.589533"><ele>264.0</ele><time>2026-05-02T09:28:27.267Z</time></trkpt><trkpt lat="46.1031561" lon="13.5893948"><ele>261.0</ele><time>2026-05-02T09:28:28.267Z</time></trkpt><trkpt lat="46.1030144" lon="13.5892766"><ele>258.0</ele><time>2026-05-02T09:28:29.266Z</time></trkpt><trkpt lat="46.1028746" lon="13.5891687"><ele>258.0</ele><time>2026-05-02T09:28:30.267Z</time></trkpt><trkpt lat="46.1027441" lon="13.5890717"><ele>258.0</ele><time>2026-05-02T09:28:31.267Z</time></trkpt><trkpt lat="46.1026128" lon="13.5889774"><ele>258.0</ele><time>2026-05-02T09:28:32.266Z</time></trkpt><trkpt lat="46.102483" lon="13.5888768"><ele>258.0</ele><time>2026-05-02T09:28:33.266Z</time></trkpt><trkpt lat="46.1023766" lon="13.5887417"><ele>254.0</ele><time>2026-05-02T09:28:34.267Z</time></trkpt><trkpt lat="46.1022876" lon="13.5886161"><ele>250.0</ele><time>2026-05-02T09:28:35.267Z</time></trkpt><trkpt lat="46.102213" lon="13.5885219"><ele>246.0</ele><time>2026-05-02T09:28:36.266Z</time></trkpt><trkpt lat="46.1021719" lon="13.588419"><ele>242.0</ele><time>2026-05-02T09:28:37.266Z</time></trkpt><trkpt lat="46.1021436" lon="13.5883193"><ele>238.0</ele><time>2026-05-02T09:28:38.267Z</time></trkpt><trkpt lat="46.1021402" lon="13.5882185"><ele>238.0</ele><time>2026-05-02T09:28:39.266Z</time></trkpt><trkpt lat="46.1021657" lon="13.5880969"><ele>238.0</ele><time>2026-05-02T09:28:40.267Z</time></trkpt><trkpt lat="46.1022205" lon="13.5879996"><ele>238.0</ele><time>2026-05-02T09:28:41.266Z</time></trkpt><trkpt lat="46.1023008" lon="13.5878937"><ele>238.0</ele><time>2026-05-02T09:28:42.266Z</time></trkpt><trkpt lat="46.1023891" lon="13.5877653"><ele>238.0</ele><time>2026-05-02T09:28:43.267Z</time></trkpt><trkpt lat="46.1024698" lon="13.5876421"><ele>238.4</ele><time>2026-05-02T09:28:44.266Z</time></trkpt><trkpt lat="46.1025211" lon="13.5875099"><ele>238.8</ele><time>2026-05-02T09:28:45.266Z</time></trkpt><trkpt lat="46.1025203" lon="13.587367"><ele>239.2</ele><time>2026-05-02T09:28:46.267Z</time></trkpt><trkpt lat="46.1024811" lon="13.5872313"><ele>239.6</ele><time>2026-05-02T09:28:47.266Z</time></trkpt><trkpt lat="46.1024045" lon="13.5871471"><ele>240.0</ele><time>2026-05-02T09:28:48.267Z</time></trkpt><trkpt lat="46.1023013" lon="13.5871009"><ele>240.0</ele><time>2026-05-02T09:28:49.267Z</time></trkpt><trkpt lat="46.1021978" lon="13.5871088"><ele>240.0</ele><time>2026-05-02T09:28:50.267Z</time></trkpt><trkpt lat="46.1021076" lon="13.5871849"><ele>240.0</ele><time>2026-05-02T09:28:51.266Z</time></trkpt><trkpt lat="46.1020457" lon="13.5873104"><ele>240.0</ele><time>2026-05-02T09:28:52.267Z</time></trkpt><trkpt lat="46.1019876" lon="13.5874667"><ele>240.0</ele><time>2026-05-02T09:28:53.267Z</time></trkpt><trkpt lat="46.101909" lon="13.5876406"><ele>240.0</ele><time>2026-05-02T09:28:54.266Z</time></trkpt><trkpt lat="46.1018399" lon="13.587791"><ele>240.0</ele><time>2026-05-02T09:28:55.266Z</time></trkpt><trkpt lat="46.1017839" lon="13.5879377"><ele>240.0</ele><time>2026-05-02T09:28:56.266Z</time></trkpt><trkpt lat="46.1017459" lon="13.5880856"><ele>240.0</ele><time>2026-05-02T09:28:57.267Z</time></trkpt><trkpt lat="46.1017271" lon="13.5882334"><ele>239.66666666666666</ele><time>2026-05-02T09:28:58.267Z</time></trkpt><trkpt lat="46.1017226" lon="13.5883707"><ele>239.33333333333331</ele><time>2026-05-02T09:28:59.267Z</time></trkpt><trkpt lat="46.1017108" lon="13.5884672"><ele>239.0</ele><time>2026-05-02T09:29:00.266Z</time></trkpt><trkpt lat="46.1016847" lon="13.5885916"><ele>238.66666666666666</ele><time>2026-05-02T09:29:03.267Z</time></trkpt><trkpt lat="46.1017096" lon="13.5886785"><ele>238.33333333333331</ele><time>2026-05-02T09:29:04.266Z</time></trkpt><trkpt lat="46.1017532" lon="13.5887621"><ele>238.0</ele><time>2026-05-02T09:29:05.267Z</time></trkpt><trkpt lat="46.1018186" lon="13.5888493"><ele>237.0</ele><time>2026-05-02T09:29:06.266Z</time></trkpt><trkpt lat="46.1019015" lon="13.5889334"><ele>236.0</ele><time>2026-05-02T09:29:07.266Z</time></trkpt><trkpt lat="46.1020023" lon="13.589031"><ele>235.0</ele><time>2026-05-02T09:29:08.266Z</time></trkpt><trkpt lat="46.1021209" lon="13.5891386"><ele>234.0</ele><time>2026-05-02T09:29:09.266Z</time></trkpt><trkpt lat="46.1022574" lon="13.5892452"><ele>234.0</ele><time>2026-05-02T09:29:10.267Z</time></trkpt><trkpt lat="46.1023912" lon="13.5893633"><ele>234.0</ele><time>2026-05-02T09:29:11.266Z</time></trkpt><trkpt lat="46.1025216" lon="13.589474"><ele>234.0</ele><time>2026-05-02T09:29:12.266Z</time></trkpt><trkpt lat="46.1026438" lon="13.5895925"><ele>235.25</ele><time>2026-05-02T09:29:13.266Z</time></trkpt><trkpt lat="46.1027644" lon="13.5897207"><ele>236.5</ele><time>2026-05-02T09:29:14.266Z</time></trkpt><trkpt lat="46.1028666" lon="13.5898445"><ele>237.75</ele><time>2026-05-02T09:29:15.266Z</time></trkpt><trkpt lat="46.1029663" lon="13.5899672"><ele>239.0</ele><time>2026-05-02T09:29:16.266Z</time></trkpt><trkpt lat="46.1030612" lon="13.5901059"><ele>239.0</ele><time>2026-05-02T09:29:17.267Z</time></trkpt><trkpt lat="46.1031643" lon="13.5902634"><ele>239.0</ele><time>2026-05-02T09:29:18.266Z</time></trkpt><trkpt lat="46.103256" lon="13.5904184"><ele>239.0</ele><time>2026-05-02T09:29:19.267Z</time></trkpt><trkpt lat="46.1033374" lon="13.5905752"><ele>239.0</ele><time>2026-05-02T09:29:20.266Z</time></trkpt><trkpt lat="46.1034089" lon="13.5907463"><ele>240.0</ele><time>2026-05-02T09:29:21.266Z</time></trkpt><trkpt lat="46.1034753" lon="13.5909212"><ele>241.0</ele><time>2026-05-02T09:29:22.267Z</time></trkpt><trkpt lat="46.1035231" lon="13.5911123"><ele>242.0</ele><time>2026-05-02T09:29:23.267Z</time></trkpt><trkpt lat="46.1035832" lon="13.5912889"><ele>243.0</ele><time>2026-05-02T09:29:24.266Z</time></trkpt><trkpt lat="46.1036462" lon="13.5914611"><ele>243.0</ele><time>2026-05-02T09:29:25.266Z</time></trkpt><trkpt lat="46.1037075" lon="13.5916294"><ele>243.0</ele><time>2026-05-02T09:29:26.266Z</time></trkpt><trkpt lat="46.1037618" lon="13.5917943"><ele>243.0</ele><time>2026-05-02T09:29:27.267Z</time></trkpt><trkpt lat="46.1038103" lon="13.59196"><ele>243.0</ele><time>2026-05-02T09:29:28.266Z</time></trkpt><trkpt lat="46.1038668" lon="13.5921095"><ele>242.75</ele><time>2026-05-02T09:29:29.267Z</time></trkpt><trkpt lat="46.1039338" lon="13.5922385"><ele>242.5</ele><time>2026-05-02T09:29:30.267Z</time></trkpt><trkpt lat="46.1040063" lon="13.5923676"><ele>242.25</ele><time>2026-05-02T09:29:31.267Z</time></trkpt><trkpt lat="46.1040959" lon="13.5924932"><ele>242.0</ele><time>2026-05-02T09:29:32.267Z</time></trkpt><trkpt lat="46.1042067" lon="13.5926207"><ele>242.0</ele><time>2026-05-02T09:29:33.266Z</time></trkpt><trkpt lat="46.1043108" lon="13.5927711"><ele>242.0</ele><time>2026-05-02T09:29:34.266Z</time></trkpt><trkpt lat="46.1044138" lon="13.5929462"><ele>242.0</ele><time>2026-05-02T09:29:35.266Z</time></trkpt><trkpt lat="46.1045212" lon="13.5931253"><ele>242.0</ele><time>2026-05-02T09:29:36.267Z</time></trkpt><trkpt lat="46.1046169" lon="13.5933062"><ele>242.0</ele><time>2026-05-02T09:29:37.267Z</time></trkpt><trkpt lat="46.1047072" lon="13.5934781"><ele>242.0</ele><time>2026-05-02T09:29:38.266Z</time></trkpt><trkpt lat="46.1047916" lon="13.5936454"><ele>243.5</ele><time>2026-05-02T09:29:39.267Z</time></trkpt><trkpt lat="46.104884" lon="13.5938005"><ele>245.0</ele><time>2026-05-02T09:29:40.267Z</time></trkpt><trkpt lat="46.1049887" lon="13.5939456"><ele>246.5</ele><time>2026-05-02T09:29:41.267Z</time></trkpt><trkpt lat="46.1050982" lon="13.5940677"><ele>248.0</ele><time>2026-05-02T09:29:42.266Z</time></trkpt><trkpt lat="46.1052018" lon="13.5942087"><ele>248.0</ele><time>2026-05-02T09:29:43.266Z</time></trkpt><trkpt lat="46.1052917" lon="13.5943704"><ele>248.0</ele><time>2026-05-02T09:29:44.267Z</time></trkpt><trkpt lat="46.1053662" lon="13.5945487"><ele>248.0</ele><time>2026-05-02T09:29:45.267Z</time></trkpt><trkpt lat="46.1054312" lon="13.5947414"><ele>248.0</ele><time>2026-05-02T09:29:46.267Z</time></trkpt><trkpt lat="46.1054927" lon="13.5949248"><ele>246.0</ele><time>2026-05-02T09:29:47.267Z</time></trkpt><trkpt lat="46.1055457" lon="13.5950989"><ele>244.0</ele><time>2026-05-02T09:29:48.267Z</time></trkpt><trkpt lat="46.1055843" lon="13.5952566"><ele>242.0</ele><time>2026-05-02T09:29:49.266Z</time></trkpt><trkpt lat="46.1056109" lon="13.5954097"><ele>240.0</ele><time>2026-05-02T09:29:50.267Z</time></trkpt><trkpt lat="46.1056469" lon="13.5955487"><ele>239.6</ele><time>2026-05-02T09:29:51.266Z</time></trkpt><trkpt lat="46.1056939" lon="13.595666"><ele>239.2</ele><time>2026-05-02T09:29:52.266Z</time></trkpt><trkpt lat="46.1057529" lon="13.5957797"><ele>238.8</ele><time>2026-05-02T09:29:53.267Z</time></trkpt><trkpt lat="46.1058239" lon="13.5958819"><ele>238.4</ele><time>2026-05-02T09:29:54.267Z</time></trkpt><trkpt lat="46.1059115" lon="13.5959585"><ele>238.0</ele><time>2026-05-02T09:29:55.266Z</time></trkpt><trkpt lat="46.1060189" lon="13.5959991"><ele>240.75</ele><time>2026-05-02T09:29:56.266Z</time></trkpt><trkpt lat="46.1061324" lon="13.5960161"><ele>243.5</ele><time>2026-05-02T09:29:57.266Z</time></trkpt><trkpt lat="46.1062511" lon="13.5960403"><ele>246.25</ele><time>2026-05-02T09:29:58.266Z</time></trkpt><trkpt lat="46.1063667" lon="13.5960587"><ele>249.0</ele><time>2026-05-02T09:29:59.266Z</time></trkpt><trkpt lat="46.1064722" lon="13.5961083"><ele>249.0</ele><time>2026-05-02T09:30:00.267Z</time></trkpt><trkpt lat="46.1065579" lon="13.596168"><ele>248.99999999999997</ele><time>2026-05-02T09:30:01.266Z</time></trkpt><trkpt lat="46.1066434" lon="13.5961711"><ele>248.99999999999997</ele><time>2026-05-02T09:30:02.267Z</time></trkpt><trkpt lat="46.1067296" lon="13.5961391"><ele>249.0</ele><time>2026-05-02T09:30:03.267Z</time></trkpt><trkpt lat="46.1068201" lon="13.5961283"><ele>249.0</ele><time>2026-05-02T09:30:04.266Z</time></trkpt><trkpt lat="46.1069127" lon="13.5961275"><ele>247.75</ele><time>2026-05-02T09:30:05.267Z</time></trkpt><trkpt lat="46.1070109" lon="13.5961822"><ele>246.5</ele><time>2026-05-02T09:30:06.267Z</time></trkpt><trkpt lat="46.107114" lon="13.5962563"><ele>245.25</ele><time>2026-05-02T09:30:07.266Z</time></trkpt><trkpt lat="46.1072222" lon="13.5963399"><ele>244.0</ele><time>2026-05-02T09:30:08.266Z</time></trkpt><trkpt lat="46.107353" lon="13.596445"><ele>246.6</ele><time>2026-05-02T09:30:09.266Z</time></trkpt><trkpt lat="46.1074563" lon="13.5965419"><ele>249.2</ele><time>2026-05-02T09:30:10.267Z</time></trkpt><trkpt lat="46.107555" lon="13.5966142"><ele>251.79999999999998</ele><time>2026-05-02T09:30:11.267Z</time></trkpt><trkpt lat="46.1076472" lon="13.5966577"><ele>254.39999999999998</ele><time>2026-05-02T09:30:12.266Z</time></trkpt><trkpt lat="46.1077478" lon="13.596711"><ele>257.0</ele><time>2026-05-02T09:30:13.267Z</time></trkpt><trkpt lat="46.1078401" lon="13.5968107"><ele>257.0</ele><time>2026-05-02T09:30:14.267Z</time></trkpt><trkpt lat="46.1079118" lon="13.5969321"><ele>257.0</ele><time>2026-05-02T09:30:15.266Z</time></trkpt><trkpt lat="46.1079908" lon="13.5970478"><ele>257.0</ele><time>2026-05-02T09:30:16.266Z</time></trkpt><trkpt lat="46.1080981" lon="13.5971368"><ele>257.0</ele><time>2026-05-02T09:30:17.266Z</time></trkpt><trkpt lat="46.1082212" lon="13.5972016"><ele>258.6</ele><time>2026-05-02T09:30:18.266Z</time></trkpt><trkpt lat="46.1083295" lon="13.5972715"><ele>260.2</ele><time>2026-05-02T09:30:19.267Z</time></trkpt><trkpt lat="46.1084259" lon="13.5973433"><ele>261.8</ele><time>2026-05-02T09:30:20.266Z</time></trkpt><trkpt lat="46.1085017" lon="13.5974211"><ele>263.4</ele><time>2026-05-02T09:30:21.267Z</time></trkpt><trkpt lat="46.1085654" lon="13.5974778"><ele>265.0</ele><time>2026-05-02T09:30:22.267Z</time></trkpt><trkpt lat="46.1086234" lon="13.5975377"><ele>265.0</ele><time>2026-05-02T09:30:23.267Z</time></trkpt><trkpt lat="46.1086812" lon="13.5976699"><ele>265.0</ele><time>2026-05-02T09:30:25.267Z</time></trkpt><trkpt lat="46.1087341" lon="13.5978257"><ele>265.0</ele><time>2026-05-02T09:30:27.265Z</time></trkpt><trkpt lat="46.1087507" lon="13.5979181"><ele>265.0</ele><time>2026-05-02T09:30:28.265Z</time></trkpt><trkpt lat="46.1087654" lon="13.598025"><ele>265.0</ele><time>2026-05-02T09:30:29.266Z</time></trkpt><trkpt lat="46.1087807" lon="13.5981499"><ele>261.4</ele><time>2026-05-02T09:30:30.266Z</time></trkpt><trkpt lat="46.1088079" lon="13.5982804"><ele>257.8</ele><time>2026-05-02T09:30:31.265Z</time></trkpt><trkpt lat="46.1088465" lon="13.5984159"><ele>254.2</ele><time>2026-05-02T09:30:32.266Z</time></trkpt><trkpt lat="46.1089055" lon="13.5985513"><ele>250.6</ele><time>2026-05-02T09:30:33.266Z</time></trkpt><trkpt lat="46.1089669" lon="13.5986849"><ele>247.0</ele><time>2026-05-02T09:30:34.266Z</time></trkpt><trkpt lat="46.1090371" lon="13.5988229"><ele>249.75</ele><time>2026-05-02T09:30:35.265Z</time></trkpt><trkpt lat="46.1091203" lon="13.5989723"><ele>252.5</ele><time>2026-05-02T09:30:36.265Z</time></trkpt><trkpt lat="46.1091994" lon="13.5991109"><ele>255.25</ele><time>2026-05-02T09:30:37.265Z</time></trkpt><trkpt lat="46.1092726" lon="13.599233"><ele>258.0</ele><time>2026-05-02T09:30:38.265Z</time></trkpt><trkpt lat="46.109357" lon="13.5993262"><ele>258.0</ele><time>2026-05-02T09:30:39.266Z</time></trkpt><trkpt lat="46.1094453" lon="13.5993687"><ele>258.0</ele><time>2026-05-02T09:30:40.265Z</time></trkpt><trkpt lat="46.1095418" lon="13.5993877"><ele>258.0</ele><time>2026-05-02T09:30:41.265Z</time></trkpt><trkpt lat="46.1096541" lon="13.5993796"><ele>258.0</ele><time>2026-05-02T09:30:42.266Z</time></trkpt><trkpt lat="46.1097764" lon="13.5993684"><ele>258.0</ele><time>2026-05-02T09:30:43.266Z</time></trkpt><trkpt lat="46.1098911" lon="13.5993634"><ele>259.5</ele><time>2026-05-02T09:30:44.265Z</time></trkpt><trkpt lat="46.1099972" lon="13.5993524"><ele>261.0</ele><time>2026-05-02T09:30:45.266Z</time></trkpt><trkpt lat="46.1100795" lon="13.5993211"><ele>262.5</ele><time>2026-05-02T09:30:46.266Z</time></trkpt><trkpt lat="46.1101541" lon="13.5992743"><ele>264.0</ele><time>2026-05-02T09:30:47.266Z</time></trkpt><trkpt lat="46.1102301" lon="13.5992543"><ele>265.5</ele><time>2026-05-02T09:30:48.265Z</time></trkpt><trkpt lat="46.1103143" lon="13.5992621"><ele>267.0</ele><time>2026-05-02T09:30:49.265Z</time></trkpt><trkpt lat="46.1104202" lon="13.5992866"><ele>267.0</ele><time>2026-05-02T09:30:50.265Z</time></trkpt><trkpt lat="46.1105317" lon="13.5993016"><ele>267.0</ele><time>2026-05-02T09:30:51.266Z</time></trkpt><trkpt lat="46.1106541" lon="13.5993022"><ele>267.0</ele><time>2026-05-02T09:30:52.266Z</time></trkpt><trkpt lat="46.1107737" lon="13.5993169"><ele>267.0</ele><time>2026-05-02T09:30:53.265Z</time></trkpt><trkpt lat="46.1108994" lon="13.5993327"><ele>265.0</ele><time>2026-05-02T09:30:54.265Z</time></trkpt><trkpt lat="46.1110307" lon="13.5993704"><ele>263.0</ele><time>2026-05-02T09:30:55.266Z</time></trkpt><trkpt lat="46.111149" lon="13.5994084"><ele>261.0</ele><time>2026-05-02T09:30:56.265Z</time></trkpt><trkpt lat="46.1112526" lon="13.5994496"><ele>259.0</ele><time>2026-05-02T09:30:57.266Z</time></trkpt><trkpt lat="46.1113485" lon="13.599512"><ele>259.0</ele><time>2026-05-02T09:30:58.265Z</time></trkpt><trkpt lat="46.1114428" lon="13.5995804"><ele>259.0</ele><time>2026-05-02T09:30:59.266Z</time></trkpt><trkpt lat="46.1115329" lon="13.5996405"><ele>259.0</ele><time>2026-05-02T09:31:00.265Z</time></trkpt><trkpt lat="46.1116151" lon="13.5997281"><ele>259.0</ele><time>2026-05-02T09:31:01.265Z</time></trkpt><trkpt lat="46.1117067" lon="13.5998092"><ele>259.0</ele><time>2026-05-02T09:31:02.265Z</time></trkpt><trkpt lat="46.1117979" lon="13.599889"><ele>262.25</ele><time>2026-05-02T09:31:03.265Z</time></trkpt><trkpt lat="46.1119061" lon="13.5999801"><ele>265.5</ele><time>2026-05-02T09:31:04.265Z</time></trkpt><trkpt lat="46.112012" lon="13.600071"><ele>268.75</ele><time>2026-05-02T09:31:05.266Z</time></trkpt><trkpt lat="46.1121196" lon="13.6001723"><ele>272.0</ele><time>2026-05-02T09:31:06.265Z</time></trkpt><trkpt lat="46.1122349" lon="13.6002385"><ele>272.0</ele><time>2026-05-02T09:31:07.266Z</time></trkpt><trkpt lat="46.1123542" lon="13.6002713"><ele>272.0</ele><time>2026-05-02T09:31:08.265Z</time></trkpt><trkpt lat="46.1124652" lon="13.6002894"><ele>272.0</ele><time>2026-05-02T09:31:09.266Z</time></trkpt><trkpt lat="46.1125618" lon="13.6003235"><ele>272.0</ele><time>2026-05-02T09:31:10.265Z</time></trkpt><trkpt lat="46.1126408" lon="13.6003807"><ele>272.0</ele><time>2026-05-02T09:31:11.266Z</time></trkpt><trkpt lat="46.1126772" lon="13.6004934"><ele>271.0</ele><time>2026-05-02T09:31:12.265Z</time></trkpt><trkpt lat="46.1127025" lon="13.6006182"><ele>270.0</ele><time>2026-05-02T09:31:13.265Z</time></trkpt><trkpt lat="46.1127376" lon="13.6007431"><ele>269.0</ele><time>2026-05-02T09:31:14.265Z</time></trkpt><trkpt lat="46.112789" lon="13.6008443"><ele>268.0</ele><time>2026-05-02T09:31:15.265Z</time></trkpt><trkpt lat="46.1128515" lon="13.6009411"><ele>267.0</ele><time>2026-05-02T09:31:16.266Z</time></trkpt><trkpt lat="46.1129326" lon="13.6010234"><ele>267.0</ele><time>2026-05-02T09:31:17.266Z</time></trkpt><trkpt lat="46.1130214" lon="13.6011036"><ele>267.0</ele><time>2026-05-02T09:31:18.265Z</time></trkpt><trkpt lat="46.1131096" lon="13.6011815"><ele>267.0</ele><time>2026-05-02T09:31:19.266Z</time></trkpt><trkpt lat="46.1131826" lon="13.6012796"><ele>267.0</ele><time>2026-05-02T09:31:20.266Z</time></trkpt><trkpt lat="46.1132282" lon="13.6013928"><ele>267.0</ele><time>2026-05-02T09:31:21.265Z</time></trkpt><trkpt lat="46.1132672" lon="13.60149"><ele>267.6</ele><time>2026-05-02T09:31:22.266Z</time></trkpt><trkpt lat="46.1133365" lon="13.6015634"><ele>268.2</ele><time>2026-05-02T09:31:23.266Z</time></trkpt><trkpt lat="46.1134257" lon="13.6016107"><ele>268.8</ele><time>2026-05-02T09:31:24.265Z</time></trkpt><trkpt lat="46.1135232" lon="13.6016689"><ele>269.4</ele><time>2026-05-02T09:31:25.266Z</time></trkpt><trkpt lat="46.1136092" lon="13.6017609"><ele>270.0</ele><time>2026-05-02T09:31:26.265Z</time></trkpt><trkpt lat="46.1136819" lon="13.6018946"><ele>268.5</ele><time>2026-05-02T09:31:27.266Z</time></trkpt><trkpt lat="46.1137419" lon="13.6020628"><ele>267.0</ele><time>2026-05-02T09:31:28.266Z</time></trkpt><trkpt lat="46.1138177" lon="13.6022333"><ele>265.5</ele><time>2026-05-02T09:31:29.265Z</time></trkpt><trkpt lat="46.1139043" lon="13.6024109"><ele>264.0</ele><time>2026-05-02T09:31:30.266Z</time></trkpt><trkpt lat="46.1139894" lon="13.602584"><ele>264.0</ele><time>2026-05-02T09:31:31.265Z</time></trkpt><trkpt lat="46.1140554" lon="13.6027514"><ele>264.0</ele><time>2026-05-02T09:31:32.266Z</time></trkpt><trkpt lat="46.1140956" lon="13.6029224"><ele>264.0</ele><time>2026-05-02T09:31:33.266Z</time></trkpt><trkpt lat="46.1141177" lon="13.6030712"><ele>264.0</ele><time>2026-05-02T09:31:34.266Z</time></trkpt><trkpt lat="46.1141385" lon="13.6032085"><ele>264.6666666666667</ele><time>2026-05-02T09:31:35.265Z</time></trkpt><trkpt lat="46.1141469" lon="13.6033362"><ele>265.3333333333333</ele><time>2026-05-02T09:31:36.266Z</time></trkpt><trkpt lat="46.1141519" lon="13.6034602"><ele>266.0</ele><time>2026-05-02T09:31:37.265Z</time></trkpt><trkpt lat="46.1141683" lon="13.6035774"><ele>266.66666666666663</ele><time>2026-05-02T09:31:38.265Z</time></trkpt><trkpt lat="46.1141962" lon="13.6036894"><ele>267.3333333333333</ele><time>2026-05-02T09:31:40.266Z</time></trkpt><trkpt lat="46.114217" lon="13.6037894"><ele>268.0</ele><time>2026-05-02T09:31:55.265Z</time></trkpt><trkpt lat="46.1142368" lon="13.6039003"><ele>268.0</ele><time>2026-05-02T09:31:57.265Z</time></trkpt><trkpt lat="46.1142651" lon="13.6040376"><ele>268.0</ele><time>2026-05-02T09:31:59.265Z</time></trkpt><trkpt lat="46.1143138" lon="13.604169"><ele>268.0</ele><time>2026-05-02T09:32:01.265Z</time></trkpt><trkpt lat="46.1143846" lon="13.6043094"><ele>268.0</ele><time>2026-05-02T09:32:03.266Z</time></trkpt><trkpt lat="46.1144278" lon="13.6043767"><ele>268.0</ele><time>2026-05-02T09:32:04.265Z</time></trkpt><trkpt lat="46.1144798" lon="13.6044444"><ele>268.16666666666663</ele><time>2026-05-02T09:32:05.266Z</time></trkpt><trkpt lat="46.114529" lon="13.6045072"><ele>268.3333333333333</ele><time>2026-05-02T09:32:06.265Z</time></trkpt><trkpt lat="46.1145757" lon="13.6045752"><ele>268.5</ele><time>2026-05-02T09:32:07.265Z</time></trkpt><trkpt lat="46.114614" lon="13.6046474"><ele>268.6666666666667</ele><time>2026-05-02T09:32:08.265Z</time></trkpt><trkpt lat="46.1146722" lon="13.6048008"><ele>268.83333333333337</ele><time>2026-05-02T09:32:10.266Z</time></trkpt><trkpt lat="46.1147279" lon="13.6049369"><ele>269.0</ele><time>2026-05-02T09:32:12.266Z</time></trkpt><trkpt lat="46.1147729" lon="13.6050446"><ele>269.0</ele><time>2026-05-02T09:32:14.266Z</time></trkpt><trkpt lat="46.1147873" lon="13.6051427"><ele>269.0</ele><time>2026-05-02T09:32:16.265Z</time></trkpt><trkpt lat="46.114762" lon="13.605012"><ele>269.0</ele><time>2026-05-02T09:32:23.265Z</time></trkpt><trkpt lat="46.1147222" lon="13.6049394"><ele>269.0</ele><time>2026-05-02T09:32:24.265Z</time></trkpt><trkpt lat="46.1146792" lon="13.6048391"><ele>269.0</ele><time>2026-05-02T09:32:25.265Z</time></trkpt><trkpt lat="46.1146351" lon="13.6047168"><ele>269.0</ele><time>2026-05-02T09:32:26.265Z</time></trkpt><trkpt lat="46.1145749" lon="13.6045924"><ele>268.83333333333337</ele><time>2026-05-02T09:32:27.266Z</time></trkpt><trkpt lat="46.1145029" lon="13.6044865"><ele>268.6666666666667</ele><time>2026-05-02T09:32:28.265Z</time></trkpt><trkpt lat="46.1144379" lon="13.6043977"><ele>268.5</ele><time>2026-05-02T09:32:29.265Z</time></trkpt><trkpt lat="46.1143898" lon="13.6043121"><ele>268.3333333333333</ele><time>2026-05-02T09:32:30.266Z</time></trkpt><trkpt lat="46.1143511" lon="13.604228"><ele>268.16666666666663</ele><time>2026-05-02T09:32:31.266Z</time></trkpt><trkpt lat="46.1143148" lon="13.6041395"><ele>268.0</ele><time>2026-05-02T09:32:32.265Z</time></trkpt><trkpt lat="46.1142845" lon="13.6040516"><ele>268.0</ele><time>2026-05-02T09:32:33.266Z</time></trkpt><trkpt lat="46.1142527" lon="13.6039712"><ele>268.0</ele><time>2026-05-02T09:32:34.266Z</time></trkpt><trkpt lat="46.1142122" lon="13.603839"><ele>268.0</ele><time>2026-05-02T09:32:36.265Z</time></trkpt><trkpt lat="46.1142308" lon="13.6037475"><ele>268.0</ele><time>2026-05-02T09:32:38.266Z</time></trkpt><trkpt lat="46.1143004" lon="13.6038133"><ele>268.0</ele><time>2026-05-02T09:32:41.265Z</time></trkpt><trkpt lat="46.1143537" lon="13.6039507"><ele>268.0</ele><time>2026-05-02T09:32:43.265Z</time></trkpt><trkpt lat="46.1144089" lon="13.6040841"><ele>268.0</ele><time>2026-05-02T09:32:45.265Z</time></trkpt><trkpt lat="46.1144671" lon="13.6042092"><ele>268.0</ele><time>2026-05-02T09:32:47.265Z</time></trkpt><trkpt lat="46.114555" lon="13.6042871"><ele>268.0</ele><time>2026-05-02T09:32:49.265Z</time></trkpt><trkpt lat="46.1146438" lon="13.6043515"><ele>268.0</ele><time>2026-05-02T09:32:51.266Z</time></trkpt><trkpt lat="46.1147388" lon="13.604382"><ele>268.0</ele><time>2026-05-02T09:32:53.266Z</time></trkpt><trkpt lat="46.1148298" lon="13.6043878"><ele>268.0</ele><time>2026-05-02T09:32:55.266Z</time></trkpt><trkpt lat="46.1149145" lon="13.6043862"><ele>268.0</ele><time>2026-05-02T09:32:57.265Z</time></trkpt><trkpt lat="46.1149174" lon="13.6042662"><ele>268.0</ele><time>2026-05-02T09:32:59.266Z</time></trkpt><trkpt lat="46.1148766" lon="13.6041439"><ele>268.0</ele><time>2026-05-02T09:33:01.265Z</time></trkpt><trkpt lat="46.1148611" lon="13.6039985"><ele>268.0</ele><time>2026-05-02T09:33:03.266Z</time></trkpt><trkpt lat="46.1148472" lon="13.603855"><ele>268.0</ele><time>2026-05-02T09:33:05.266Z</time></trkpt><trkpt lat="46.1148668" lon="13.6037062"><ele>268.0</ele><time>2026-05-02T09:33:07.266Z</time></trkpt><trkpt lat="46.1148707" lon="13.6035774"><ele>268.0</ele><time>2026-05-02T09:33:09.265Z</time></trkpt><trkpt lat="46.1148616" lon="13.6034574"><ele>268.0</ele><time>2026-05-02T09:33:11.265Z</time></trkpt><trkpt lat="46.1149014" lon="13.6033363"><ele>268.0</ele><time>2026-05-02T09:33:14.265Z</time></trkpt><trkpt lat="46.1149853" lon="13.6033367"><ele>271.0</ele><time>2026-05-02T09:33:16.266Z</time></trkpt><trkpt lat="46.1150332" lon="13.6034138"><ele>274.0</ele><time>2026-05-02T09:33:18.265Z</time></trkpt><trkpt lat="46.1150563" lon="13.6035284"><ele>277.0</ele><time>2026-05-02T09:33:20.265Z</time></trkpt><trkpt lat="46.1151105" lon="13.6037027"><ele>280.0</ele><time>2026-05-02T09:33:22.265Z</time></trkpt><trkpt lat="46.1151558" lon="13.6038008"><ele>283.0</ele><time>2026-05-02T09:33:23.266Z</time></trkpt><trkpt lat="46.1151934" lon="13.6038991"><ele>286.0</ele><time>2026-05-02T09:33:24.265Z</time></trkpt><trkpt lat="46.1152264" lon="13.6039933"><ele>286.0</ele><time>2026-05-02T09:33:25.266Z</time></trkpt><trkpt lat="46.1152567" lon="13.6040844"><ele>286.0</ele><time>2026-05-02T09:33:26.265Z</time></trkpt><trkpt lat="46.1152983" lon="13.6041611"><ele>286.0</ele><time>2026-05-02T09:33:27.266Z</time></trkpt><trkpt lat="46.1153442" lon="13.6042371"><ele>286.0</ele><time>2026-05-02T09:33:28.266Z</time></trkpt><trkpt lat="46.1153959" lon="13.6042961"><ele>286.0</ele><time>2026-05-02T09:33:29.265Z</time></trkpt><trkpt lat="46.1154538" lon="13.6043536"><ele>286.0</ele><time>2026-05-02T09:33:30.266Z</time></trkpt><trkpt lat="46.1155404" lon="13.6044772"><ele>284.0</ele><time>2026-05-02T09:33:32.265Z</time></trkpt><trkpt lat="46.1156238" lon="13.6046084"><ele>282.0</ele><time>2026-05-02T09:33:34.266Z</time></trkpt><trkpt lat="46.1156984" lon="13.6047505"><ele>280.0</ele><time>2026-05-02T09:33:36.265Z</time></trkpt><trkpt lat="46.1157681" lon="13.6048612"><ele>278.0</ele><time>2026-05-02T09:33:38.266Z</time></trkpt><trkpt lat="46.1158691" lon="13.6049131"><ele>284.8</ele><time>2026-05-02T09:33:40.265Z</time></trkpt><trkpt lat="46.1159547" lon="13.604852"><ele>291.6</ele><time>2026-05-02T09:33:42.265Z</time></trkpt><trkpt lat="46.1160585" lon="13.6047728"><ele>298.4</ele><time>2026-05-02T09:33:44.265Z</time></trkpt><trkpt lat="46.1161602" lon="13.60471"><ele>305.2</ele><time>2026-05-02T09:33:46.266Z</time></trkpt><trkpt lat="46.1162615" lon="13.604692"><ele>312.0</ele><time>2026-05-02T09:33:48.265Z</time></trkpt><trkpt lat="46.1163652" lon="13.6046444"><ele>312.0</ele><time>2026-05-02T09:33:50.266Z</time></trkpt><trkpt lat="46.1164886" lon="13.60461"><ele>312.0</ele><time>2026-05-02T09:33:52.266Z</time></trkpt><trkpt lat="46.1165542" lon="13.6045991"><ele>312.0</ele><time>2026-05-02T09:33:53.266Z</time></trkpt><trkpt lat="46.1166228" lon="13.6045763"><ele>312.0</ele><time>2026-05-02T09:33:54.266Z</time></trkpt><trkpt lat="46.1167161" lon="13.6045764"><ele>312.0</ele><time>2026-05-02T09:33:56.265Z</time></trkpt><trkpt lat="46.1167987" lon="13.6046281"><ele>312.0</ele><time>2026-05-02T09:33:58.265Z</time></trkpt><trkpt lat="46.1168581" lon="13.6047452"><ele>314.5</ele><time>2026-05-02T09:34:00.266Z</time></trkpt><trkpt lat="46.1168508" lon="13.6048833"><ele>317.0</ele><time>2026-05-02T09:34:02.266Z</time></trkpt><trkpt lat="46.1168158" lon="13.6050103"><ele>319.5</ele><time>2026-05-02T09:34:04.266Z</time></trkpt><trkpt lat="46.116789" lon="13.6050952"><ele>322.0</ele><time>2026-05-02T09:34:05.265Z</time></trkpt><trkpt lat="46.1167772" lon="13.6051869"><ele>324.5</ele><time>2026-05-02T09:34:06.266Z</time></trkpt><trkpt lat="46.1167578" lon="13.6053634"><ele>327.0</ele><time>2026-05-02T09:34:08.265Z</time></trkpt><trkpt lat="46.1167573" lon="13.60546"><ele>327.0</ele><time>2026-05-02T09:34:09.266Z</time></trkpt><trkpt lat="46.1167769" lon="13.6056243"><ele>327.0</ele><time>2026-05-02T09:34:11.265Z</time></trkpt><trkpt lat="46.1168063" lon="13.6057192"><ele>327.0</ele><time>2026-05-02T09:34:12.266Z</time></trkpt><trkpt lat="46.1168653" lon="13.6058424"><ele>327.0</ele><time>2026-05-02T09:34:14.265Z</time></trkpt><trkpt lat="46.1169119" lon="13.6059574"><ele>327.0</ele><time>2026-05-02T09:34:16.266Z</time></trkpt><trkpt lat="46.1169528" lon="13.6061345"><ele>324.20000000000005</ele><time>2026-05-02T09:34:18.265Z</time></trkpt><trkpt lat="46.1170023" lon="13.6063181"><ele>321.40000000000003</ele><time>2026-05-02T09:34:20.265Z</time></trkpt><trkpt lat="46.1170155" lon="13.6064093"><ele>318.6</ele><time>2026-05-02T09:34:21.265Z</time></trkpt><trkpt lat="46.1170242" lon="13.6065546"><ele>315.8</ele><time>2026-05-02T09:34:23.266Z</time></trkpt><trkpt lat="46.1170269" lon="13.6066757"><ele>313.0</ele><time>2026-05-02T09:34:25.266Z</time></trkpt><trkpt lat="46.1170932" lon="13.6067962"><ele>313.0</ele><time>2026-05-02T09:34:54.266Z</time></trkpt><trkpt lat="46.1171663" lon="13.6069421"><ele>313.0</ele><time>2026-05-02T09:34:56.266Z</time></trkpt><trkpt lat="46.1172451" lon="13.6070643"><ele>313.0</ele><time>2026-05-02T09:34:58.266Z</time></trkpt><trkpt lat="46.117296" lon="13.6071389"><ele>313.0</ele><time>2026-05-02T09:34:59.266Z</time></trkpt><trkpt lat="46.1173648" lon="13.6072691"><ele>313.0</ele><time>2026-05-02T09:35:01.266Z</time></trkpt><trkpt lat="46.1174071" lon="13.6073399"><ele>315.5</ele><time>2026-05-02T09:35:02.265Z</time></trkpt><trkpt lat="46.1174527" lon="13.6074386"><ele>318.0</ele><time>2026-05-02T09:35:03.266Z</time></trkpt><trkpt lat="46.1175039" lon="13.607548"><ele>320.5</ele><time>2026-05-02T09:35:04.266Z</time></trkpt><trkpt lat="46.1175479" lon="13.607657"><ele>323.0</ele><time>2026-05-02T09:35:05.265Z</time></trkpt><trkpt lat="46.1175869" lon="13.6077617"><ele>325.5</ele><time>2026-05-02T09:35:06.265Z</time></trkpt><trkpt lat="46.1176266" lon="13.6078507"><ele>328.0</ele><time>2026-05-02T09:35:07.266Z</time></trkpt><trkpt lat="46.1176701" lon="13.6079351"><ele>329.79999999999995</ele><time>2026-05-02T09:35:08.266Z</time></trkpt><trkpt lat="46.1177048" lon="13.6080161"><ele>331.6</ele><time>2026-05-02T09:35:09.266Z</time></trkpt><trkpt lat="46.1177712" lon="13.6081558"><ele>333.4</ele><time>2026-05-02T09:35:11.265Z</time></trkpt><trkpt lat="46.1178178" lon="13.6083159"><ele>335.20000000000005</ele><time>2026-05-02T09:35:13.266Z</time></trkpt><trkpt lat="46.1178433" lon="13.6084194"><ele>337.0</ele><time>2026-05-02T09:35:14.266Z</time></trkpt><trkpt lat="46.1178694" lon="13.6085452"><ele>337.0</ele><time>2026-05-02T09:35:15.266Z</time></trkpt><trkpt lat="46.117909" lon="13.6086485"><ele>337.0</ele><time>2026-05-02T09:35:16.266Z</time></trkpt><trkpt lat="46.1179564" lon="13.6087434"><ele>337.0</ele><time>2026-05-02T09:35:17.266Z</time></trkpt><trkpt lat="46.1179991" lon="13.6088444"><ele>337.0</ele><time>2026-05-02T09:35:18.266Z</time></trkpt><trkpt lat="46.1180375" lon="13.6089514"><ele>337.0</ele><time>2026-05-02T09:35:19.265Z</time></trkpt><trkpt lat="46.1180709" lon="13.6090491"><ele>337.0</ele><time>2026-05-02T09:35:20.266Z</time></trkpt><trkpt lat="46.1181006" lon="13.6091343"><ele>336.8571428571429</ele><time>2026-05-02T09:35:21.266Z</time></trkpt><trkpt lat="46.1181342" lon="13.609233"><ele>336.7142857142857</ele><time>2026-05-02T09:35:22.265Z</time></trkpt><trkpt lat="46.1181608" lon="13.6093381"><ele>336.57142857142856</ele><time>2026-05-02T09:35:23.266Z</time></trkpt><trkpt lat="46.1181771" lon="13.6094409"><ele>336.42857142857144</ele><time>2026-05-02T09:35:24.266Z</time></trkpt><trkpt lat="46.1181937" lon="13.60953"><ele>336.2857142857143</ele><time>2026-05-02T09:35:25.266Z</time></trkpt><trkpt lat="46.1182042" lon="13.6096227"><ele>336.14285714285717</ele><time>2026-05-02T09:35:26.265Z</time></trkpt><trkpt lat="46.1182119" lon="13.6097305"><ele>336.0</ele><time>2026-05-02T09:35:28.265Z</time></trkpt><trkpt lat="46.1182491" lon="13.6098258"><ele>338.3333333333333</ele><time>2026-05-02T09:36:59.265Z</time></trkpt><trkpt lat="46.1183199" lon="13.6098422"><ele>340.6666666666667</ele><time>2026-05-02T09:37:01.266Z</time></trkpt><trkpt lat="46.1184041" lon="13.6098256"><ele>343.0</ele><time>2026-05-02T09:37:02.265Z</time></trkpt><trkpt lat="46.1184859" lon="13.6098128"><ele>345.33333333333337</ele><time>2026-05-02T09:37:03.265Z</time></trkpt><trkpt lat="46.1185613" lon="13.6097998"><ele>347.6666666666667</ele><time>2026-05-02T09:37:04.266Z</time></trkpt><trkpt lat="46.1186327" lon="13.60977"><ele>350.0</ele><time>2026-05-02T09:37:05.265Z</time></trkpt><trkpt lat="46.1187448" lon="13.6097006"><ele>350.0</ele><time>2026-05-02T09:37:07.265Z</time></trkpt><trkpt lat="46.1188058" lon="13.6096412"><ele>350.0</ele><time>2026-05-02T09:37:09.266Z</time></trkpt><trkpt lat="46.118901" lon="13.6095676"><ele>350.0</ele><time>2026-05-02T09:37:12.265Z</time></trkpt><trkpt lat="46.1189933" lon="13.609496"><ele>350.0</ele><time>2026-05-02T09:37:14.265Z</time></trkpt><trkpt lat="46.1190637" lon="13.6094662"><ele>350.0</ele><time>2026-05-02T09:37:15.266Z</time></trkpt><trkpt lat="46.1191271" lon="13.6094374"><ele>350.0</ele><time>2026-05-02T09:37:16.265Z</time></trkpt><trkpt lat="46.1191896" lon="13.6094072"><ele>350.83333333333337</ele><time>2026-05-02T09:37:17.265Z</time></trkpt><trkpt lat="46.1192906" lon="13.6093851"><ele>351.6666666666667</ele><time>2026-05-02T09:37:19.265Z</time></trkpt><trkpt lat="46.1193582" lon="13.6094171"><ele>352.5</ele><time>2026-05-02T09:37:21.266Z</time></trkpt><trkpt lat="46.1193993" lon="13.609488"><ele>353.3333333333333</ele><time>2026-05-02T09:37:23.265Z</time></trkpt><trkpt lat="46.1194445" lon="13.6096154"><ele>354.16666666666663</ele><time>2026-05-02T09:37:25.265Z</time></trkpt><trkpt lat="46.1194577" lon="13.6097102"><ele>355.0</ele><time>2026-05-02T09:37:26.265Z</time></trkpt><trkpt lat="46.1194774" lon="13.6098161"><ele>355.0</ele><time>2026-05-02T09:37:27.265Z</time></trkpt><trkpt lat="46.1195084" lon="13.6099374"><ele>355.0</ele><time>2026-05-02T09:37:28.265Z</time></trkpt><trkpt lat="46.1195283" lon="13.6100893"><ele>355.0</ele><time>2026-05-02T09:37:29.265Z</time></trkpt><trkpt lat="46.1195541" lon="13.6102419"><ele>355.0</ele><time>2026-05-02T09:37:30.265Z</time></trkpt><trkpt lat="46.119571" lon="13.6103685"><ele>355.0</ele><time>2026-05-02T09:37:31.266Z</time></trkpt><trkpt lat="46.1195895" lon="13.6104777"><ele>352.2</ele><time>2026-05-02T09:37:32.266Z</time></trkpt><trkpt lat="46.1195998" lon="13.6105882"><ele>349.4</ele><time>2026-05-02T09:37:33.265Z</time></trkpt><trkpt lat="46.119612" lon="13.6106904"><ele>346.6</ele><time>2026-05-02T09:37:34.265Z</time></trkpt><trkpt lat="46.1196353" lon="13.610866"><ele>343.8</ele><time>2026-05-02T09:37:36.265Z</time></trkpt><trkpt lat="46.1196961" lon="13.6110007"><ele>341.0</ele><time>2026-05-02T09:37:38.266Z</time></trkpt><trkpt lat="46.1197492" lon="13.611055"><ele>341.0</ele><time>2026-05-02T09:37:39.266Z</time></trkpt><trkpt lat="46.1198229" lon="13.6111106"><ele>341.0</ele><time>2026-05-02T09:37:40.265Z</time></trkpt><trkpt lat="46.1199081" lon="13.6111815"><ele>341.0</ele><time>2026-05-02T09:37:41.265Z</time></trkpt><trkpt lat="46.1199832" lon="13.6112486"><ele>341.0</ele><time>2026-05-02T09:37:42.266Z</time></trkpt><trkpt lat="46.1200448" lon="13.6113106"><ele>341.0</ele><time>2026-05-02T09:37:43.265Z</time></trkpt><trkpt lat="46.1200873" lon="13.6113845"><ele>341.0</ele><time>2026-05-02T09:37:44.266Z</time></trkpt><trkpt lat="46.1201146" lon="13.6114783"><ele>346.0</ele><time>2026-05-02T09:37:45.265Z</time></trkpt><trkpt lat="46.1201456" lon="13.6115732"><ele>351.0</ele><time>2026-05-02T09:37:46.266Z</time></trkpt><trkpt lat="46.1202306" lon="13.6117191"><ele>356.0</ele><time>2026-05-02T09:37:48.266Z</time></trkpt><trkpt lat="46.1203177" lon="13.6118202"><ele>361.0</ele><time>2026-05-02T09:37:50.265Z</time></trkpt><trkpt lat="46.1204042" lon="13.6119031"><ele>366.0</ele><time>2026-05-02T09:37:52.266Z</time></trkpt><trkpt lat="46.1204994" lon="13.6119493"><ele>366.0</ele><time>2026-05-02T09:37:54.265Z</time></trkpt><trkpt lat="46.1206263" lon="13.6119317"><ele>366.0</ele><time>2026-05-02T09:37:56.266Z</time></trkpt><trkpt lat="46.1207542" lon="13.6119103"><ele>366.0</ele><time>2026-05-02T09:37:58.265Z</time></trkpt><trkpt lat="46.1208219" lon="13.611876"><ele>366.0</ele><time>2026-05-02T09:37:59.265Z</time></trkpt><trkpt lat="46.1209095" lon="13.6118243"><ele>366.0</ele><time>2026-05-02T09:38:01.266Z</time></trkpt><trkpt lat="46.1209992" lon="13.6117414"><ele>370.42857142857144</ele><time>2026-05-02T09:38:03.266Z</time></trkpt><trkpt lat="46.1210516" lon="13.6116898"><ele>374.8571428571429</ele><time>2026-05-02T09:38:04.266Z</time></trkpt><trkpt lat="46.1211063" lon="13.6116382"><ele>379.2857142857143</ele><time>2026-05-02T09:38:05.266Z</time></trkpt><trkpt lat="46.1211649" lon="13.6115912"><ele>383.7142857142857</ele><time>2026-05-02T09:38:06.265Z</time></trkpt><trkpt lat="46.1212297" lon="13.6115534"><ele>388.1428571428571</ele><time>2026-05-02T09:38:07.266Z</time></trkpt><trkpt lat="46.1213062" lon="13.6115056"><ele>392.57142857142856</ele><time>2026-05-02T09:38:09.266Z</time></trkpt><trkpt lat="46.121378" lon="13.611516"><ele>397.0</ele><time>2026-05-02T09:38:11.266Z</time></trkpt><trkpt lat="46.1214511" lon="13.61157"><ele>397.0</ele><time>2026-05-02T09:38:13.265Z</time></trkpt><trkpt lat="46.1215066" lon="13.6117318"><ele>397.0</ele><time>2026-05-02T09:38:15.265Z</time></trkpt><trkpt lat="46.1215395" lon="13.6118772"><ele>397.0</ele><time>2026-05-02T09:38:16.266Z</time></trkpt><trkpt lat="46.1215709" lon="13.6120009"><ele>397.0</ele><time>2026-05-02T09:38:17.265Z</time></trkpt><trkpt lat="46.1215946" lon="13.6121237"><ele>397.0</ele><time>2026-05-02T09:38:18.266Z</time></trkpt><trkpt lat="46.1216211" lon="13.6122382"><ele>396.7142857142857</ele><time>2026-05-02T09:38:19.265Z</time></trkpt><trkpt lat="46.1216443" lon="13.6123344"><ele>396.42857142857144</ele><time>2026-05-02T09:38:20.266Z</time></trkpt><trkpt lat="46.1216588" lon="13.6124283"><ele>396.1428571428571</ele><time>2026-05-02T09:38:21.266Z</time></trkpt><trkpt lat="46.1216787" lon="13.6125335"><ele>395.8571428571429</ele><time>2026-05-02T09:38:22.266Z</time></trkpt><trkpt lat="46.1216942" lon="13.6126448"><ele>395.5714285714286</ele><time>2026-05-02T09:38:23.265Z</time></trkpt><trkpt lat="46.1217115" lon="13.6127431"><ele>395.2857142857143</ele><time>2026-05-02T09:38:24.265Z</time></trkpt><trkpt lat="46.1217331" lon="13.6128409"><ele>395.0</ele><time>2026-05-02T09:38:25.266Z</time></trkpt><trkpt lat="46.1217776" lon="13.6129256"><ele>394.99999999999994</ele><time>2026-05-02T09:38:27.265Z</time></trkpt><trkpt lat="46.1218322" lon="13.6128533"><ele>395.0</ele><time>2026-05-02T09:38:31.265Z</time></trkpt><trkpt lat="46.1218182" lon="13.6127549"><ele>395.0</ele><time>2026-05-02T09:38:33.265Z</time></trkpt><trkpt lat="46.1217935" lon="13.6126554"><ele>395.0</ele><time>2026-05-02T09:38:35.265Z</time></trkpt><trkpt lat="46.1217827" lon="13.6124959"><ele>394.99999999999994</ele><time>2026-05-02T09:38:37.265Z</time></trkpt><trkpt lat="46.1217911" lon="13.6123946"><ele>395.0</ele><time>2026-05-02T09:38:38.266Z</time></trkpt><trkpt lat="46.1217942" lon="13.612289"><ele>394.99999999999994</ele><time>2026-05-02T09:38:39.266Z</time></trkpt><trkpt lat="46.1217955" lon="13.6121886"><ele>395.0</ele><time>2026-05-02T09:38:40.265Z</time></trkpt><trkpt lat="46.1218073" lon="13.6120167"><ele>395.0</ele><time>2026-05-02T09:38:42.265Z</time></trkpt><trkpt lat="46.1218263" lon="13.61185"><ele>395.0</ele><time>2026-05-02T09:38:44.265Z</time></trkpt><trkpt lat="46.1218323" lon="13.6117466"><ele>394.99999999999994</ele><time>2026-05-02T09:38:45.265Z</time></trkpt><trkpt lat="46.1218454" lon="13.611647"><ele>395.0</ele><time>2026-05-02T09:38:46.265Z</time></trkpt><trkpt lat="46.121849" lon="13.6114733"><ele>397.2</ele><time>2026-05-02T09:38:48.266Z</time></trkpt><trkpt lat="46.1218172" lon="13.6113012"><ele>399.4</ele><time>2026-05-02T09:38:50.266Z</time></trkpt><trkpt lat="46.1217943" lon="13.6112063"><ele>401.6</ele><time>2026-05-02T09:38:51.265Z</time></trkpt><trkpt lat="46.1217649" lon="13.6110183"><ele>403.8</ele><time>2026-05-02T09:38:53.266Z</time></trkpt><trkpt lat="46.1217524" lon="13.6109268"><ele>406.0</ele><time>2026-05-02T09:38:54.265Z</time></trkpt><trkpt lat="46.1217141" lon="13.6107985"><ele>410.0</ele><time>2026-05-02T09:38:56.266Z</time></trkpt><trkpt lat="46.1216273" lon="13.6107633"><ele>414.0</ele><time>2026-05-02T09:38:58.266Z</time></trkpt><trkpt lat="46.1215269" lon="13.6107707"><ele>418.0</ele><time>2026-05-02T09:39:00.266Z</time></trkpt><trkpt lat="46.1214032" lon="13.6108053"><ele>422.0</ele><time>2026-05-02T09:39:02.265Z</time></trkpt><trkpt lat="46.1212932" lon="13.6108701"><ele>426.0</ele><time>2026-05-02T09:39:04.265Z</time></trkpt><trkpt lat="46.1211847" lon="13.6109275"><ele>426.0</ele><time>2026-05-02T09:39:06.266Z</time></trkpt><trkpt lat="46.1211161" lon="13.610962"><ele>426.0</ele><time>2026-05-02T09:39:07.266Z</time></trkpt><trkpt lat="46.1210542" lon="13.6109864"><ele>426.0</ele><time>2026-05-02T09:39:08.266Z</time></trkpt><trkpt lat="46.1209492" lon="13.6110064"><ele>426.0</ele><time>2026-05-02T09:39:10.266Z</time></trkpt><trkpt lat="46.1208319" lon="13.6109743"><ele>426.0</ele><time>2026-05-02T09:39:12.265Z</time></trkpt><trkpt lat="46.1207468" lon="13.6109096"><ele>418.6</ele><time>2026-05-02T09:39:14.266Z</time></trkpt><trkpt lat="46.1206909" lon="13.6107765"><ele>411.20000000000005</ele><time>2026-05-02T09:39:16.266Z</time></trkpt><trkpt lat="46.1206602" lon="13.6106942"><ele>403.79999999999995</ele><time>2026-05-02T09:39:17.265Z</time></trkpt><trkpt lat="46.1206361" lon="13.6105902"><ele>396.4</ele><time>2026-05-02T09:39:18.266Z</time></trkpt><trkpt lat="46.1206079" lon="13.6104891"><ele>389.0</ele><time>2026-05-02T09:39:19.265Z</time></trkpt><trkpt lat="46.1205552" lon="13.610325"><ele>390.0</ele><time>2026-05-02T09:39:21.265Z</time></trkpt><trkpt lat="46.1205305" lon="13.6102333"><ele>391.0</ele><time>2026-05-02T09:39:22.266Z</time></trkpt><trkpt lat="46.120514" lon="13.610075"><ele>392.0</ele><time>2026-05-02T09:39:24.265Z</time></trkpt><trkpt lat="46.1205399" lon="13.6099203"><ele>393.0</ele><time>2026-05-02T09:39:26.266Z</time></trkpt><trkpt lat="46.1205714" lon="13.6097825"><ele>394.0</ele><time>2026-05-02T09:39:28.266Z</time></trkpt><trkpt lat="46.1205914" lon="13.6096109"><ele>396.0</ele><time>2026-05-02T09:39:30.265Z</time></trkpt><trkpt lat="46.1205932" lon="13.6094337"><ele>398.0</ele><time>2026-05-02T09:39:32.265Z</time></trkpt><trkpt lat="46.1206344" lon="13.6092661"><ele>400.0</ele><time>2026-05-02T09:39:34.266Z</time></trkpt><trkpt lat="46.1206799" lon="13.6091802"><ele>402.0</ele><time>2026-05-02T09:39:35.265Z</time></trkpt><trkpt lat="46.1207362" lon="13.6090222"><ele>404.0</ele><time>2026-05-02T09:39:37.266Z</time></trkpt><trkpt lat="46.1207684" lon="13.6089328"><ele>413.6</ele><time>2026-05-02T09:39:38.265Z</time></trkpt><trkpt lat="46.1207866" lon="13.6088233"><ele>423.2</ele><time>2026-05-02T09:39:39.266Z</time></trkpt><trkpt lat="46.1207893" lon="13.6087094"><ele>432.80000000000007</ele><time>2026-05-02T09:39:40.266Z</time></trkpt><trkpt lat="46.1207954" lon="13.6086105"><ele>442.40000000000003</ele><time>2026-05-02T09:39:41.265Z</time></trkpt><trkpt lat="46.1207968" lon="13.6084417"><ele>452.0</ele><time>2026-05-02T09:39:43.265Z</time></trkpt><trkpt lat="46.1208213" lon="13.608277"><ele>451.99999999999994</ele><time>2026-05-02T09:39:45.265Z</time></trkpt><trkpt lat="46.120849" lon="13.6081928"><ele>452.0</ele><time>2026-05-02T09:39:46.266Z</time></trkpt><trkpt lat="46.1208912" lon="13.6081079"><ele>452.0</ele><time>2026-05-02T09:39:47.265Z</time></trkpt><trkpt lat="46.1209411" lon="13.6080102"><ele>452.0</ele><time>2026-05-02T09:39:48.266Z</time></trkpt><trkpt lat="46.1209936" lon="13.6079326"><ele>451.99999999999994</ele><time>2026-05-02T09:39:49.265Z</time></trkpt><trkpt lat="46.1210438" lon="13.6078612"><ele>452.0</ele><time>2026-05-02T09:39:50.265Z</time></trkpt><trkpt lat="46.1211262" lon="13.6077311"><ele>451.57142857142856</ele><time>2026-05-02T09:39:52.266Z</time></trkpt><trkpt lat="46.1211827" lon="13.607669"><ele>451.1428571428571</ele><time>2026-05-02T09:39:53.265Z</time></trkpt><trkpt lat="46.1212406" lon="13.6076076"><ele>450.71428571428567</ele><time>2026-05-02T09:39:54.265Z</time></trkpt><trkpt lat="46.1212903" lon="13.6075225"><ele>450.2857142857143</ele><time>2026-05-02T09:39:55.265Z</time></trkpt><trkpt lat="46.1213471" lon="13.6074448"><ele>449.8571428571428</ele><time>2026-05-02T09:39:56.266Z</time></trkpt><trkpt lat="46.1213897" lon="13.6073551"><ele>449.4285714285714</ele><time>2026-05-02T09:39:57.265Z</time></trkpt><trkpt lat="46.1214242" lon="13.6072783"><ele>449.0</ele><time>2026-05-02T09:39:58.266Z</time></trkpt><trkpt lat="46.1214453" lon="13.6071893"><ele>448.99999999999994</ele><time>2026-05-02T09:39:59.266Z</time></trkpt><trkpt lat="46.1214877" lon="13.6070892"><ele>449.0</ele><time>2026-05-02T09:40:01.266Z</time></trkpt><trkpt lat="46.1214043" lon="13.6070231"><ele>449.0</ele><time>2026-05-02T09:40:04.266Z</time></trkpt><trkpt lat="46.1212899" lon="13.606983"><ele>449.0</ele><time>2026-05-02T09:40:06.265Z</time></trkpt><trkpt lat="46.1212256" lon="13.6069311"><ele>448.99999999999994</ele><time>2026-05-02T09:40:07.266Z</time></trkpt><trkpt lat="46.121167" lon="13.6068913"><ele>449.0</ele><time>2026-05-02T09:40:08.265Z</time></trkpt><trkpt lat="46.1211021" lon="13.6068456"><ele>453.6</ele><time>2026-05-02T09:40:09.265Z</time></trkpt><trkpt lat="46.1210415" lon="13.6068086"><ele>458.2</ele><time>2026-05-02T09:40:10.265Z</time></trkpt><trkpt lat="46.1209767" lon="13.6067539"><ele>462.80000000000007</ele><time>2026-05-02T09:40:11.266Z</time></trkpt><trkpt lat="46.1208675" lon="13.6066836"><ele>467.40000000000003</ele><time>2026-05-02T09:40:13.265Z</time></trkpt><trkpt lat="46.1207706" lon="13.6066178"><ele>472.0</ele><time>2026-05-02T09:40:15.266Z</time></trkpt><trkpt lat="46.1206863" lon="13.6065076"><ele>473.1666666666667</ele><time>2026-05-02T09:40:17.266Z</time></trkpt><trkpt lat="46.1206478" lon="13.6064336"><ele>474.33333333333337</ele><time>2026-05-02T09:40:18.266Z</time></trkpt><trkpt lat="46.120616" lon="13.6063342"><ele>475.5</ele><time>2026-05-02T09:40:19.266Z</time></trkpt><trkpt lat="46.1206031" lon="13.6062419"><ele>476.66666666666663</ele><time>2026-05-02T09:40:20.265Z</time></trkpt><trkpt lat="46.1205764" lon="13.6061305"><ele>477.8333333333333</ele><time>2026-05-02T09:40:22.265Z</time></trkpt><trkpt lat="46.1204859" lon="13.6061008"><ele>479.0</ele><time>2026-05-02T09:40:24.266Z</time></trkpt><trkpt lat="46.1204153" lon="13.6061116"><ele>478.99999999999994</ele><time>2026-05-02T09:40:25.265Z</time></trkpt><trkpt lat="46.1203451" lon="13.6061277"><ele>479.0</ele><time>2026-05-02T09:40:26.265Z</time></trkpt><trkpt lat="46.1202729" lon="13.6061456"><ele>479.0</ele><time>2026-05-02T09:40:27.265Z</time></trkpt><trkpt lat="46.1202073" lon="13.6061761"><ele>479.0</ele><time>2026-05-02T09:40:28.266Z</time></trkpt><trkpt lat="46.1201315" lon="13.6062057"><ele>478.99999999999994</ele><time>2026-05-02T09:40:29.265Z</time></trkpt><trkpt lat="46.1200031" lon="13.6062215"><ele>479.0</ele><time>2026-05-02T09:40:31.265Z</time></trkpt><trkpt lat="46.1199394" lon="13.606236"><ele>477.16666666666663</ele><time>2026-05-02T09:40:32.265Z</time></trkpt><trkpt lat="46.1198749" lon="13.6062558"><ele>475.3333333333333</ele><time>2026-05-02T09:40:33.266Z</time></trkpt><trkpt lat="46.1197586" lon="13.606317"><ele>473.5</ele><time>2026-05-02T09:40:35.265Z</time></trkpt><trkpt lat="46.1196819" lon="13.6063561"><ele>471.66666666666663</ele><time>2026-05-02T09:40:37.265Z</time></trkpt><trkpt lat="46.119601" lon="13.6063466"><ele>469.8333333333333</ele><time>2026-05-02T09:40:39.266Z</time></trkpt><trkpt lat="46.1195526" lon="13.6062776"><ele>468.0</ele><time>2026-05-02T09:40:41.265Z</time></trkpt><trkpt lat="46.1195605" lon="13.6061669"><ele>468.59999999999997</ele><time>2026-05-02T09:40:43.265Z</time></trkpt><trkpt lat="46.119598" lon="13.6060229"><ele>469.19999999999993</ele><time>2026-05-02T09:40:45.266Z</time></trkpt><trkpt lat="46.1196026" lon="13.6058701"><ele>469.8</ele><time>2026-05-02T09:40:47.265Z</time></trkpt><trkpt lat="46.119646" lon="13.6057117"><ele>470.4</ele><time>2026-05-02T09:40:49.266Z</time></trkpt><trkpt lat="46.119698" lon="13.6055652"><ele>471.0</ele><time>2026-05-02T09:40:51.265Z</time></trkpt><trkpt lat="46.11975" lon="13.6054483"><ele>471.0</ele><time>2026-05-02T09:40:53.265Z</time></trkpt><trkpt lat="46.119835" lon="13.6053523"><ele>471.0</ele><time>2026-05-02T09:40:55.265Z</time></trkpt><trkpt lat="46.1199241" lon="13.6052697"><ele>471.0</ele><time>2026-05-02T09:40:57.266Z</time></trkpt><trkpt lat="46.1200263" lon="13.6051662"><ele>471.0</ele><time>2026-05-02T09:40:59.266Z</time></trkpt><trkpt lat="46.1201251" lon="13.6050791"><ele>476.6</ele><time>2026-05-02T09:41:01.266Z</time></trkpt><trkpt lat="46.1201855" lon="13.6050201"><ele>482.20000000000005</ele><time>2026-05-02T09:41:02.265Z</time></trkpt><trkpt lat="46.1202766" lon="13.6049278"><ele>487.79999999999995</ele><time>2026-05-02T09:41:04.266Z</time></trkpt><trkpt lat="46.1203629" lon="13.6048743"><ele>493.4</ele><time>2026-05-02T09:41:06.265Z</time></trkpt><trkpt lat="46.1204551" lon="13.6048617"><ele>499.0</ele><time>2026-05-02T09:41:08.265Z</time></trkpt><trkpt lat="46.1205554" lon="13.6048336"><ele>499.0</ele><time>2026-05-02T09:41:10.265Z</time></trkpt><trkpt lat="46.1206341" lon="13.6048266"><ele>499.0</ele><time>2026-05-02T09:41:12.265Z</time></trkpt><trkpt lat="46.1206955" lon="13.6047509"><ele>499.0</ele><time>2026-05-02T09:41:15.266Z</time></trkpt><trkpt lat="46.1207706" lon="13.6047208"><ele>499.0</ele><time>2026-05-02T09:41:17.266Z</time></trkpt><trkpt lat="46.1208809" lon="13.6046787"><ele>499.0</ele><time>2026-05-02T09:41:19.266Z</time></trkpt><trkpt lat="46.1209553" lon="13.6045797"><ele>498.83333333333337</ele><time>2026-05-02T09:41:21.266Z</time></trkpt><trkpt lat="46.1209085" lon="13.604494"><ele>498.6666666666667</ele><time>2026-05-02T09:41:25.265Z</time></trkpt><trkpt lat="46.1208386" lon="13.6044805"><ele>498.5</ele><time>2026-05-02T09:41:27.266Z</time></trkpt><trkpt lat="46.1207421" lon="13.6044211"><ele>498.33333333333337</ele><time>2026-05-02T09:41:29.265Z</time></trkpt><trkpt lat="46.120689" lon="13.6042814"><ele>498.1666666666667</ele><time>2026-05-02T09:41:31.265Z</time></trkpt><trkpt lat="46.1206746" lon="13.6041784"><ele>498.0</ele><time>2026-05-02T09:41:32.265Z</time></trkpt><trkpt lat="46.1206719" lon="13.6040697"><ele>498.0</ele><time>2026-05-02T09:41:33.265Z</time></trkpt><trkpt lat="46.1206809" lon="13.6039311"><ele>498.0</ele><time>2026-05-02T09:41:34.265Z</time></trkpt><trkpt lat="46.1206682" lon="13.6038306"><ele>498.0</ele><time>2026-05-02T09:41:35.266Z</time></trkpt><trkpt lat="46.1206375" lon="13.6037428"><ele>498.0</ele><time>2026-05-02T09:41:36.265Z</time></trkpt><trkpt lat="46.1206121" lon="13.6036588"><ele>498.0</ele><time>2026-05-02T09:41:37.266Z</time></trkpt><trkpt lat="46.1205906" lon="13.6035033"><ele>498.0</ele><time>2026-05-02T09:41:39.265Z</time></trkpt><trkpt lat="46.1205927" lon="13.60341"><ele>499.6666666666667</ele><time>2026-05-02T09:41:40.266Z</time></trkpt><trkpt lat="46.1205943" lon="13.6033171"><ele>501.33333333333337</ele><time>2026-05-02T09:41:41.266Z</time></trkpt><trkpt lat="46.120607" lon="13.6032078"><ele>503.0</ele><time>2026-05-02T09:41:42.265Z</time></trkpt><trkpt lat="46.120626" lon="13.6031208"><ele>504.6666666666667</ele><time>2026-05-02T09:41:43.266Z</time></trkpt><trkpt lat="46.1206734" lon="13.6029532"><ele>506.33333333333337</ele><time>2026-05-02T09:41:45.265Z</time></trkpt><trkpt lat="46.1207446" lon="13.602826"><ele>508.0</ele><time>2026-05-02T09:41:47.266Z</time></trkpt><trkpt lat="46.1208274" lon="13.6026941"><ele>517.3333333333334</ele><time>2026-05-02T09:41:49.265Z</time></trkpt><trkpt lat="46.1208603" lon="13.6026074"><ele>526.6666666666667</ele><time>2026-05-02T09:41:50.265Z</time></trkpt><trkpt lat="46.1208931" lon="13.6025239"><ele>536.0</ele><time>2026-05-02T09:41:51.265Z</time></trkpt><trkpt lat="46.1209001" lon="13.602338"><ele>545.3333333333334</ele><time>2026-05-02T09:41:53.265Z</time></trkpt><trkpt lat="46.1208889" lon="13.6022248"><ele>554.6666666666666</ele><time>2026-05-02T09:41:54.265Z</time></trkpt><trkpt lat="46.1208746" lon="13.6021151"><ele>564.0</ele><time>2026-05-02T09:41:55.265Z</time></trkpt><trkpt lat="46.1208582" lon="13.6020049"><ele>564.3333333333334</ele><time>2026-05-02T09:41:56.265Z</time></trkpt><trkpt lat="46.1208519" lon="13.601906"><ele>564.6666666666666</ele><time>2026-05-02T09:41:57.265Z</time></trkpt><trkpt lat="46.1208682" lon="13.6017462"><ele>565.0</ele><time>2026-05-02T09:41:59.266Z</time></trkpt><trkpt lat="46.1208892" lon="13.6016504"><ele>565.3333333333333</ele><time>2026-05-02T09:42:00.265Z</time></trkpt><trkpt lat="46.120921" lon="13.6015401"><ele>565.6666666666666</ele><time>2026-05-02T09:42:01.265Z</time></trkpt><trkpt lat="46.1209461" lon="13.6013952"><ele>566.0</ele><time>2026-05-02T09:42:02.265Z</time></trkpt><trkpt lat="46.1209656" lon="13.6012548"><ele>566.2</ele><time>2026-05-02T09:42:03.266Z</time></trkpt><trkpt lat="46.120978" lon="13.6011276"><ele>566.4000000000001</ele><time>2026-05-02T09:42:04.266Z</time></trkpt><trkpt lat="46.1209915" lon="13.6010187"><ele>566.6</ele><time>2026-05-02T09:42:05.266Z</time></trkpt><trkpt lat="46.1209852" lon="13.6008383"><ele>566.8000000000001</ele><time>2026-05-02T09:42:07.266Z</time></trkpt><trkpt lat="46.1209985" lon="13.6006429"><ele>567.0</ele><time>2026-05-02T09:42:09.266Z</time></trkpt><trkpt lat="46.1209924" lon="13.6005101"><ele>567.0</ele><time>2026-05-02T09:42:10.266Z</time></trkpt><trkpt lat="46.1209896" lon="13.6003869"><ele>567.0</ele><time>2026-05-02T09:42:11.266Z</time></trkpt><trkpt lat="46.1209874" lon="13.6002769"><ele>567.0</ele><time>2026-05-02T09:42:12.266Z</time></trkpt><trkpt lat="46.120985" lon="13.6001712"><ele>567.0</ele><time>2026-05-02T09:42:13.266Z</time></trkpt><trkpt lat="46.120976" lon="13.600035"><ele>567.0</ele><time>2026-05-02T09:42:15.265Z</time></trkpt><trkpt lat="46.1209976" lon="13.5999111"><ele>567.0</ele><time>2026-05-02T09:42:17.265Z</time></trkpt><trkpt lat="46.1210559" lon="13.5998131"><ele>566.8000000000001</ele><time>2026-05-02T09:42:19.265Z</time></trkpt><trkpt lat="46.1211588" lon="13.5997592"><ele>566.6</ele><time>2026-05-02T09:42:21.266Z</time></trkpt><trkpt lat="46.121245" lon="13.5997827"><ele>566.4000000000001</ele><time>2026-05-02T09:42:23.266Z</time></trkpt><trkpt lat="46.1213411" lon="13.5998343"><ele>566.2</ele><time>2026-05-02T09:42:26.265Z</time></trkpt><trkpt lat="46.1214279" lon="13.5999259"><ele>566.0</ele><time>2026-05-02T09:42:28.266Z</time></trkpt><trkpt lat="46.121541" lon="13.5999488"><ele>569.4</ele><time>2026-05-02T09:42:30.265Z</time></trkpt><trkpt lat="46.1216028" lon="13.5999835"><ele>572.8</ele><time>2026-05-02T09:42:31.266Z</time></trkpt><trkpt lat="46.121678" lon="13.600134"><ele>576.1999999999999</ele><time>2026-05-02T09:42:33.266Z</time></trkpt><trkpt lat="46.1217048" lon="13.6002416"><ele>579.6</ele><time>2026-05-02T09:42:34.265Z</time></trkpt><trkpt lat="46.1217141" lon="13.6003558"><ele>583.0</ele><time>2026-05-02T09:42:35.266Z</time></trkpt><trkpt lat="46.121718" lon="13.6004991"><ele>584.25</ele><time>2026-05-02T09:42:36.265Z</time></trkpt><trkpt lat="46.1217108" lon="13.6006393"><ele>585.5</ele><time>2026-05-02T09:42:37.265Z</time></trkpt><trkpt lat="46.1216786" lon="13.6007946"><ele>586.75</ele><time>2026-05-02T09:42:38.266Z</time></trkpt><trkpt lat="46.1216419" lon="13.6009674"><ele>588.0</ele><time>2026-05-02T09:42:39.265Z</time></trkpt><trkpt lat="46.1216017" lon="13.6011568"><ele>587.75</ele><time>2026-05-02T09:42:40.266Z</time></trkpt><trkpt lat="46.121591" lon="13.6013298"><ele>587.5</ele><time>2026-05-02T09:42:41.265Z</time></trkpt><trkpt lat="46.121605" lon="13.6015009"><ele>587.25</ele><time>2026-05-02T09:42:42.266Z</time></trkpt><trkpt lat="46.1216475" lon="13.6016811"><ele>587.0</ele><time>2026-05-02T09:42:43.266Z</time></trkpt><trkpt lat="46.1217237" lon="13.601832"><ele>587.0</ele><time>2026-05-02T09:42:44.266Z</time></trkpt><trkpt lat="46.1218152" lon="13.6019638"><ele>587.0</ele><time>2026-05-02T09:42:45.265Z</time></trkpt><trkpt lat="46.121912" lon="13.6020821"><ele>587.0</ele><time>2026-05-02T09:42:46.266Z</time></trkpt><trkpt lat="46.122033" lon="13.6021455"><ele>587.0</ele><time>2026-05-02T09:42:47.265Z</time></trkpt><trkpt lat="46.1221654" lon="13.6021632"><ele>588.2</ele><time>2026-05-02T09:42:48.266Z</time></trkpt><trkpt lat="46.122287" lon="13.6021328"><ele>589.4000000000001</ele><time>2026-05-02T09:42:49.265Z</time></trkpt><trkpt lat="46.1223818" lon="13.6020933"><ele>590.5999999999999</ele><time>2026-05-02T09:42:50.265Z</time></trkpt><trkpt lat="46.1224783" lon="13.6020758"><ele>591.8</ele><time>2026-05-02T09:42:51.265Z</time></trkpt><trkpt lat="46.1225705" lon="13.6020883"><ele>593.0</ele><time>2026-05-02T09:42:52.265Z</time></trkpt><trkpt lat="46.1226631" lon="13.6021687"><ele>593.8</ele><time>2026-05-02T09:42:53.265Z</time></trkpt><trkpt lat="46.1227473" lon="13.6022564"><ele>594.5999999999999</ele><time>2026-05-02T09:42:54.266Z</time></trkpt><trkpt lat="46.1228443" lon="13.6023576"><ele>595.4000000000001</ele><time>2026-05-02T09:42:55.265Z</time></trkpt><trkpt lat="46.1229355" lon="13.6024528"><ele>596.2</ele><time>2026-05-02T09:42:56.266Z</time></trkpt><trkpt lat="46.1230137" lon="13.6025501"><ele>597.0</ele><time>2026-05-02T09:42:57.265Z</time></trkpt><trkpt lat="46.1230751" lon="13.6026547"><ele>597.0</ele><time>2026-05-02T09:42:58.265Z</time></trkpt><trkpt lat="46.1231393" lon="13.6027661"><ele>597.0</ele><time>2026-05-02T09:42:59.265Z</time></trkpt><trkpt lat="46.1232154" lon="13.6028238"><ele>597.0</ele><time>2026-05-02T09:43:00.266Z</time></trkpt><trkpt lat="46.1233112" lon="13.6028213"><ele>597.0</ele><time>2026-05-02T09:43:01.265Z</time></trkpt><trkpt lat="46.1234097" lon="13.6028155"><ele>597.0</ele><time>2026-05-02T09:43:02.265Z</time></trkpt><trkpt lat="46.123512" lon="13.6028189"><ele>595.2</ele><time>2026-05-02T09:43:03.266Z</time></trkpt><trkpt lat="46.1236175" lon="13.6027987"><ele>593.4000000000001</ele><time>2026-05-02T09:43:04.265Z</time></trkpt><trkpt lat="46.1237072" lon="13.6027536"><ele>591.5999999999999</ele><time>2026-05-02T09:43:05.265Z</time></trkpt><trkpt lat="46.123783" lon="13.6027"><ele>589.8</ele><time>2026-05-02T09:43:06.266Z</time></trkpt><trkpt lat="46.1238671" lon="13.6026719"><ele>588.0</ele><time>2026-05-02T09:43:07.265Z</time></trkpt><trkpt lat="46.1239478" lon="13.602669"><ele>588.0</ele><time>2026-05-02T09:43:08.265Z</time></trkpt><trkpt lat="46.1240455" lon="13.6026832"><ele>588.0</ele><time>2026-05-02T09:43:09.266Z</time></trkpt><trkpt lat="46.124147" lon="13.6026832"><ele>588.0</ele><time>2026-05-02T09:43:10.266Z</time></trkpt><trkpt lat="46.1242404" lon="13.6026203"><ele>588.0</ele><time>2026-05-02T09:43:11.266Z</time></trkpt><trkpt lat="46.1243116" lon="13.6025141"><ele>588.0</ele><time>2026-05-02T09:43:12.265Z</time></trkpt><trkpt lat="46.1243648" lon="13.6023651"><ele>588.6</ele><time>2026-05-02T09:43:13.265Z</time></trkpt><trkpt lat="46.1244119" lon="13.6022059"><ele>589.1999999999999</ele><time>2026-05-02T09:43:14.266Z</time></trkpt><trkpt lat="46.1244609" lon="13.6020614"><ele>589.8</ele><time>2026-05-02T09:43:15.266Z</time></trkpt><trkpt lat="46.1245067" lon="13.6019434"><ele>590.4</ele><time>2026-05-02T09:43:16.265Z</time></trkpt><trkpt lat="46.1245623" lon="13.6018501"><ele>591.0</ele><time>2026-05-02T09:43:17.265Z</time></trkpt><trkpt lat="46.1246346" lon="13.6018029"><ele>590.2</ele><time>2026-05-02T09:43:18.266Z</time></trkpt><trkpt lat="46.1247175" lon="13.6017992"><ele>589.4000000000001</ele><time>2026-05-02T09:43:19.265Z</time></trkpt><trkpt lat="46.1247988" lon="13.6018554"><ele>588.6</ele><time>2026-05-02T09:43:20.266Z</time></trkpt><trkpt lat="46.1248824" lon="13.6019448"><ele>587.8000000000001</ele><time>2026-05-02T09:43:21.266Z</time></trkpt><trkpt lat="46.1249648" lon="13.6020421"><ele>587.0</ele><time>2026-05-02T09:43:22.265Z</time></trkpt><trkpt lat="46.1250447" lon="13.6021333"><ele>587.0</ele><time>2026-05-02T09:43:23.266Z</time></trkpt><trkpt lat="46.1251175" lon="13.6022622"><ele>587.0</ele><time>2026-05-02T09:43:24.266Z</time></trkpt><trkpt lat="46.125182" lon="13.6024165"><ele>587.0</ele><time>2026-05-02T09:43:25.265Z</time></trkpt><trkpt lat="46.1252176" lon="13.6025712"><ele>587.0</ele><time>2026-05-02T09:43:26.266Z</time></trkpt><trkpt lat="46.1251962" lon="13.602726"><ele>586.75</ele><time>2026-05-02T09:43:27.265Z</time></trkpt><trkpt lat="46.1251558" lon="13.6028736"><ele>586.5</ele><time>2026-05-02T09:43:28.265Z</time></trkpt><trkpt lat="46.1251016" lon="13.6029948"><ele>586.25</ele><time>2026-05-02T09:43:29.265Z</time></trkpt><trkpt lat="46.1250594" lon="13.6031481"><ele>586.0</ele><time>2026-05-02T09:43:30.265Z</time></trkpt><trkpt lat="46.12504" lon="13.6033273"><ele>586.0</ele><time>2026-05-02T09:43:31.265Z</time></trkpt><trkpt lat="46.1250341" lon="13.603505"><ele>586.0</ele><time>2026-05-02T09:43:32.265Z</time></trkpt><trkpt lat="46.1250242" lon="13.6036558"><ele>586.0</ele><time>2026-05-02T09:43:33.266Z</time></trkpt><trkpt lat="46.1250474" lon="13.6037737"><ele>586.0</ele><time>2026-05-02T09:43:34.265Z</time></trkpt><trkpt lat="46.1250975" lon="13.603879"><ele>586.0</ele><time>2026-05-02T09:43:35.266Z</time></trkpt><trkpt lat="46.1251691" lon="13.6039486"><ele>587.6</ele><time>2026-05-02T09:43:36.266Z</time></trkpt><trkpt lat="46.1252633" lon="13.6040229"><ele>589.2</ele><time>2026-05-02T09:43:37.266Z</time></trkpt><trkpt lat="46.1253307" lon="13.6041296"><ele>590.8</ele><time>2026-05-02T09:43:38.266Z</time></trkpt><trkpt lat="46.1253909" lon="13.6042502"><ele>592.4</ele><time>2026-05-02T09:43:39.265Z</time></trkpt><trkpt lat="46.1254593" lon="13.6043196"><ele>594.0</ele><time>2026-05-02T09:43:40.266Z</time></trkpt><trkpt lat="46.1255387" lon="13.6043693"><ele>594.0</ele><time>2026-05-02T09:43:41.265Z</time></trkpt><trkpt lat="46.125615" lon="13.604398"><ele>594.0</ele><time>2026-05-02T09:43:42.266Z</time></trkpt><trkpt lat="46.1256941" lon="13.6044306"><ele>594.0</ele><time>2026-05-02T09:43:43.265Z</time></trkpt><trkpt lat="46.125767" lon="13.6044507"><ele>594.0</ele><time>2026-05-02T09:43:44.265Z</time></trkpt><trkpt lat="46.125824" lon="13.6043934"><ele>594.0</ele><time>2026-05-02T09:43:46.265Z</time></trkpt><trkpt lat="46.1257548" lon="13.6043405"><ele>594.0</ele><time>2026-05-02T09:43:48.266Z</time></trkpt><trkpt lat="46.1256867" lon="13.6043171"><ele>594.0</ele><time>2026-05-02T09:43:49.265Z</time></trkpt><trkpt lat="46.1256033" lon="13.6042638"><ele>594.0</ele><time>2026-05-02T09:43:50.265Z</time></trkpt><trkpt lat="46.1255124" lon="13.6041958"><ele>594.0</ele><time>2026-05-02T09:43:51.266Z</time></trkpt><trkpt lat="46.1254312" lon="13.604097"><ele>594.0</ele><time>2026-05-02T09:43:52.265Z</time></trkpt><trkpt lat="46.1253683" lon="13.6039763"><ele>594.0</ele><time>2026-05-02T09:43:53.266Z</time></trkpt><trkpt lat="46.1253221" lon="13.6038382"><ele>594.0</ele><time>2026-05-02T09:43:54.265Z</time></trkpt><trkpt lat="46.1252821" lon="13.6036903"><ele>594.0</ele><time>2026-05-02T09:43:55.266Z</time></trkpt><trkpt lat="46.1252526" lon="13.6035473"><ele>594.0</ele><time>2026-05-02T09:43:56.265Z</time></trkpt><trkpt lat="46.1252668" lon="13.6033898"><ele>594.0</ele><time>2026-05-02T09:43:57.266Z</time></trkpt><trkpt lat="46.1253405" lon="13.6032387"><ele>592.6</ele><time>2026-05-02T09:43:58.266Z</time></trkpt><trkpt lat="46.1254218" lon="13.6031215"><ele>591.2</ele><time>2026-05-02T09:43:59.266Z</time></trkpt><trkpt lat="46.1255037" lon="13.60301"><ele>589.8000000000001</ele><time>2026-05-02T09:44:00.265Z</time></trkpt><trkpt lat="46.1255647" lon="13.6028929"><ele>588.4</ele><time>2026-05-02T09:44:01.266Z</time></trkpt><trkpt lat="46.1255978" lon="13.6027545"><ele>587.0</ele><time>2026-05-02T09:44:02.266Z</time></trkpt><trkpt lat="46.1256098" lon="13.6025638"><ele>587.0</ele><time>2026-05-02T09:44:03.266Z</time></trkpt><trkpt lat="46.1256497" lon="13.6023855"><ele>587.0</ele><time>2026-05-02T09:44:04.265Z</time></trkpt><trkpt lat="46.1257095" lon="13.6022137"><ele>587.0</ele><time>2026-05-02T09:44:05.265Z</time></trkpt><trkpt lat="46.1257613" lon="13.6020478"><ele>587.0</ele><time>2026-05-02T09:44:06.266Z</time></trkpt><trkpt lat="46.1257949" lon="13.6019034"><ele>585.6</ele><time>2026-05-02T09:44:07.265Z</time></trkpt><trkpt lat="46.1257776" lon="13.6017862"><ele>584.2</ele><time>2026-05-02T09:44:08.265Z</time></trkpt><trkpt lat="46.1257072" lon="13.6016808"><ele>582.8</ele><time>2026-05-02T09:44:09.266Z</time></trkpt><trkpt lat="46.1256195" lon="13.6016116"><ele>581.4</ele><time>2026-05-02T09:44:10.265Z</time></trkpt><trkpt lat="46.12553" lon="13.6015253"><ele>580.0</ele><time>2026-05-02T09:44:11.266Z</time></trkpt><trkpt lat="46.1254802" lon="13.6014074"><ele>580.0</ele><time>2026-05-02T09:44:12.265Z</time></trkpt><trkpt lat="46.1254626" lon="13.6012551"><ele>580.0</ele><time>2026-05-02T09:44:13.265Z</time></trkpt><trkpt lat="46.1254702" lon="13.6011125"><ele>580.0</ele><time>2026-05-02T09:44:14.265Z</time></trkpt><trkpt lat="46.1255089" lon="13.60097"><ele>580.0</ele><time>2026-05-02T09:44:15.266Z</time></trkpt><trkpt lat="46.1255716" lon="13.6008242"><ele>580.0</ele><time>2026-05-02T09:44:16.266Z</time></trkpt><trkpt lat="46.1256372" lon="13.6006781"><ele>575.5</ele><time>2026-05-02T09:44:17.265Z</time></trkpt><trkpt lat="46.1257191" lon="13.6005099"><ele>571.0</ele><time>2026-05-02T09:44:18.265Z</time></trkpt><trkpt lat="46.1258001" lon="13.6003466"><ele>566.5</ele><time>2026-05-02T09:44:19.266Z</time></trkpt><trkpt lat="46.1258607" lon="13.6001823"><ele>562.0</ele><time>2026-05-02T09:44:20.265Z</time></trkpt><trkpt lat="46.1258954" lon="13.6000313"><ele>559.4</ele><time>2026-05-02T09:44:21.265Z</time></trkpt><trkpt lat="46.1258953" lon="13.5998938"><ele>556.8000000000001</ele><time>2026-05-02T09:44:22.266Z</time></trkpt><trkpt lat="46.1258659" lon="13.5997808"><ele>554.2</ele><time>2026-05-02T09:44:23.265Z</time></trkpt><trkpt lat="46.1257925" lon="13.5996886"><ele>551.6</ele><time>2026-05-02T09:44:24.266Z</time></trkpt><trkpt lat="46.1256954" lon="13.5996009"><ele>549.0</ele><time>2026-05-02T09:44:25.266Z</time></trkpt><trkpt lat="46.125619" lon="13.5994657"><ele>546.25</ele><time>2026-05-02T09:44:26.265Z</time></trkpt><trkpt lat="46.1255924" lon="13.5993308"><ele>543.5</ele><time>2026-05-02T09:44:27.266Z</time></trkpt><trkpt lat="46.1256172" lon="13.599162"><ele>540.75</ele><time>2026-05-02T09:44:28.266Z</time></trkpt><trkpt lat="46.1256489" lon="13.5989999"><ele>538.0</ele><time>2026-05-02T09:44:29.266Z</time></trkpt><trkpt lat="46.1256924" lon="13.5988066"><ele>536.0</ele><time>2026-05-02T09:44:30.265Z</time></trkpt><trkpt lat="46.1257153" lon="13.5985824"><ele>534.0</ele><time>2026-05-02T09:44:31.265Z</time></trkpt><trkpt lat="46.1257132" lon="13.5983978"><ele>532.0</ele><time>2026-05-02T09:44:32.265Z</time></trkpt><trkpt lat="46.1257129" lon="13.5982173"><ele>530.0</ele><time>2026-05-02T09:44:33.266Z</time></trkpt><trkpt lat="46.1257204" lon="13.5980339"><ele>530.0</ele><time>2026-05-02T09:44:34.265Z</time></trkpt><trkpt lat="46.1257259" lon="13.5978588"><ele>530.0</ele><time>2026-05-02T09:44:35.266Z</time></trkpt><trkpt lat="46.1257345" lon="13.5976754"><ele>530.0</ele><time>2026-05-02T09:44:36.265Z</time></trkpt><trkpt lat="46.1257406" lon="13.5974982"><ele>530.0</ele><time>2026-05-02T09:44:37.266Z</time></trkpt><trkpt lat="46.1257496" lon="13.5973239"><ele>527.75</ele><time>2026-05-02T09:44:38.266Z</time></trkpt><trkpt lat="46.1257708" lon="13.5971348"><ele>525.5</ele><time>2026-05-02T09:44:39.266Z</time></trkpt><trkpt lat="46.1257989" lon="13.59695"><ele>523.25</ele><time>2026-05-02T09:44:40.265Z</time></trkpt><trkpt lat="46.1258241" lon="13.5967583"><ele>521.0</ele><time>2026-05-02T09:44:41.265Z</time></trkpt><trkpt lat="46.1258543" lon="13.5965782"><ele>521.0</ele><time>2026-05-02T09:44:42.265Z</time></trkpt><trkpt lat="46.1258869" lon="13.5964016"><ele>521.0</ele><time>2026-05-02T09:44:43.265Z</time></trkpt><trkpt lat="46.1259248" lon="13.5962389"><ele>521.0</ele><time>2026-05-02T09:44:44.266Z</time></trkpt><trkpt lat="46.1259647" lon="13.5960898"><ele>521.0</ele><time>2026-05-02T09:44:45.265Z</time></trkpt><trkpt lat="46.1260094" lon="13.5959531"><ele>521.2</ele><time>2026-05-02T09:44:46.265Z</time></trkpt><trkpt lat="46.1260569" lon="13.5958068"><ele>521.4000000000001</ele><time>2026-05-02T09:44:47.266Z</time></trkpt><trkpt lat="46.1261022" lon="13.5956656"><ele>521.6</ele><time>2026-05-02T09:44:48.266Z</time></trkpt><trkpt lat="46.1261453" lon="13.595529"><ele>521.8000000000001</ele><time>2026-05-02T09:44:49.266Z</time></trkpt><trkpt lat="46.126189" lon="13.5954268"><ele>522.0</ele><time>2026-05-02T09:44:50.266Z</time></trkpt><trkpt lat="46.1262132" lon="13.5953378"><ele>522.0</ele><time>2026-05-02T09:44:51.265Z</time></trkpt><trkpt lat="46.1262338" lon="13.5952496"><ele>522.0</ele><time>2026-05-02T09:44:53.265Z</time></trkpt><trkpt lat="46.1262959" lon="13.595289"><ele>522.0</ele><time>2026-05-02T09:44:57.266Z</time></trkpt><trkpt lat="46.1262677" lon="13.5953961"><ele>522.0</ele><time>2026-05-02T09:44:59.266Z</time></trkpt><trkpt lat="46.1262227" lon="13.5955124"><ele>522.0</ele><time>2026-05-02T09:45:01.265Z</time></trkpt><trkpt lat="46.1262202" lon="13.5956852"><ele>522.0</ele><time>2026-05-02T09:45:03.266Z</time></trkpt><trkpt lat="46.1262343" lon="13.5958398"><ele>522.0</ele><time>2026-05-02T09:45:05.266Z</time></trkpt><trkpt lat="46.1262803" lon="13.5960024"><ele>522.0</ele><time>2026-05-02T09:45:07.265Z</time></trkpt><trkpt lat="46.126295" lon="13.5961711"><ele>522.0</ele><time>2026-05-02T09:45:09.266Z</time></trkpt><trkpt lat="46.1262978" lon="13.5962705"><ele>522.0</ele><time>2026-05-02T09:45:10.265Z</time></trkpt><trkpt lat="46.1263026" lon="13.5964471"><ele>522.0</ele><time>2026-05-02T09:45:12.266Z</time></trkpt><trkpt lat="46.1263104" lon="13.5965917"><ele>521.8571428571429</ele><time>2026-05-02T09:45:14.266Z</time></trkpt><trkpt lat="46.1263156" lon="13.5966915"><ele>521.7142857142857</ele><time>2026-05-02T09:45:16.266Z</time></trkpt><trkpt lat="46.1263332" lon="13.5967819"><ele>521.5714285714286</ele><time>2026-05-02T09:45:17.266Z</time></trkpt><trkpt lat="46.1263482" lon="13.5968712"><ele>521.4285714285714</ele><time>2026-05-02T09:45:18.265Z</time></trkpt><trkpt lat="46.1263527" lon="13.5969624"><ele>521.2857142857143</ele><time>2026-05-02T09:45:19.266Z</time></trkpt><trkpt lat="46.1263537" lon="13.5970579"><ele>521.1428571428571</ele><time>2026-05-02T09:45:20.265Z</time></trkpt><trkpt lat="46.126352" lon="13.5971574"><ele>521.0</ele><time>2026-05-02T09:45:21.266Z</time></trkpt><trkpt lat="46.126335" lon="13.5972477"><ele>521.0</ele><time>2026-05-02T09:45:22.266Z</time></trkpt><trkpt lat="46.1263052" lon="13.5974117"><ele>521.0</ele><time>2026-05-02T09:45:24.265Z</time></trkpt><trkpt lat="46.1262857" lon="13.5975828"><ele>521.0</ele><time>2026-05-02T09:45:26.266Z</time></trkpt><trkpt lat="46.1262863" lon="13.5977335"><ele>521.0</ele><time>2026-05-02T09:45:28.265Z</time></trkpt><trkpt lat="46.1262764" lon="13.5979039"><ele>522.0</ele><time>2026-05-02T09:45:30.266Z</time></trkpt><trkpt lat="46.1262885" lon="13.5980753"><ele>523.0</ele><time>2026-05-02T09:45:32.265Z</time></trkpt><trkpt lat="46.1263346" lon="13.598232"><ele>524.0</ele><time>2026-05-02T09:45:34.266Z</time></trkpt><trkpt lat="46.1263597" lon="13.5983179"><ele>525.0</ele><time>2026-05-02T09:45:35.265Z</time></trkpt><trkpt lat="46.1263818" lon="13.5984048"><ele>526.0</ele><time>2026-05-02T09:45:36.266Z</time></trkpt><trkpt lat="46.1264173" lon="13.5985651"><ele>528.0</ele><time>2026-05-02T09:45:38.266Z</time></trkpt><trkpt lat="46.1264414" lon="13.5986738"><ele>530.0</ele><time>2026-05-02T09:45:40.266Z</time></trkpt><trkpt lat="46.1265061" lon="13.5987606"><ele>532.0</ele><time>2026-05-02T09:45:42.266Z</time></trkpt><trkpt lat="46.1266005" lon="13.598831"><ele>534.0</ele><time>2026-05-02T09:45:44.265Z</time></trkpt><trkpt lat="46.1267056" lon="13.5988768"><ele>536.0</ele><time>2026-05-02T09:45:46.266Z</time></trkpt><trkpt lat="46.1268155" lon="13.5989071"><ele>531.2</ele><time>2026-05-02T09:45:48.266Z</time></trkpt><trkpt lat="46.1269209" lon="13.5989104"><ele>526.4000000000001</ele><time>2026-05-02T09:45:50.266Z</time></trkpt><trkpt lat="46.1270196" lon="13.5989599"><ele>521.6</ele><time>2026-05-02T09:45:52.265Z</time></trkpt><trkpt lat="46.1270965" lon="13.5990953"><ele>516.8000000000001</ele><time>2026-05-02T09:45:54.265Z</time></trkpt><trkpt lat="46.127134" lon="13.5991864"><ele>512.0</ele><time>2026-05-02T09:45:55.266Z</time></trkpt><trkpt lat="46.1271552" lon="13.5992775"><ele>511.99999999999994</ele><time>2026-05-02T09:45:56.265Z</time></trkpt><trkpt lat="46.127155" lon="13.5994477"><ele>512.0</ele><time>2026-05-02T09:45:58.265Z</time></trkpt><trkpt lat="46.1271539" lon="13.5995428"><ele>512.0</ele><time>2026-05-02T09:45:59.266Z</time></trkpt><trkpt lat="46.12714" lon="13.5996399"><ele>512.0</ele><time>2026-05-02T09:46:00.266Z</time></trkpt><trkpt lat="46.127114" lon="13.5997342"><ele>511.99999999999994</ele><time>2026-05-02T09:46:01.266Z</time></trkpt><trkpt lat="46.1270714" lon="13.5999036"><ele>512.0</ele><time>2026-05-02T09:46:03.266Z</time></trkpt><trkpt lat="46.1270385" lon="13.5999891"><ele>513.2</ele><time>2026-05-02T09:46:04.264Z</time></trkpt><trkpt lat="46.1270105" lon="13.60014"><ele>514.4000000000001</ele><time>2026-05-02T09:46:06.264Z</time></trkpt><trkpt lat="46.1269918" lon="13.6002732"><ele>515.5999999999999</ele><time>2026-05-02T09:46:08.265Z</time></trkpt><trkpt lat="46.1270604" lon="13.6003285"><ele>516.8</ele><time>2026-05-02T09:46:11.264Z</time></trkpt><trkpt lat="46.127181" lon="13.6002563"><ele>518.0</ele><time>2026-05-02T09:46:13.264Z</time></trkpt><trkpt lat="46.1272526" lon="13.6002095"><ele>518.0</ele><time>2026-05-02T09:46:14.264Z</time></trkpt><trkpt lat="46.1273273" lon="13.6001608"><ele>518.0</ele><time>2026-05-02T09:46:15.265Z</time></trkpt><trkpt lat="46.1274049" lon="13.6001268"><ele>518.0</ele><time>2026-05-02T09:46:16.264Z</time></trkpt><trkpt lat="46.1274832" lon="13.6000774"><ele>518.0</ele><time>2026-05-02T09:46:17.265Z</time></trkpt><trkpt lat="46.1275571" lon="13.6000485"><ele>518.0</ele><time>2026-05-02T09:46:18.264Z</time></trkpt><trkpt lat="46.1276297" lon="13.6000192"><ele>518.0</ele><time>2026-05-02T09:46:19.264Z</time></trkpt><trkpt lat="46.1277021" lon="13.599993"><ele>513.0</ele><time>2026-05-02T09:46:20.264Z</time></trkpt><trkpt lat="46.1277671" lon="13.5999769"><ele>507.99999999999994</ele><time>2026-05-02T09:46:21.264Z</time></trkpt><trkpt lat="46.1278822" lon="13.5999432"><ele>502.99999999999994</ele><time>2026-05-02T09:46:23.265Z</time></trkpt><trkpt lat="46.1279836" lon="13.5999321"><ele>498.0</ele><time>2026-05-02T09:46:25.264Z</time></trkpt><trkpt lat="46.1280687" lon="13.5999996"><ele>493.0</ele><time>2026-05-02T09:46:27.265Z</time></trkpt><trkpt lat="46.1281004" lon="13.6000915"><ele>493.00000000000006</ele><time>2026-05-02T09:46:29.265Z</time></trkpt><trkpt lat="46.1280749" lon="13.600248"><ele>493.0</ele><time>2026-05-02T09:46:31.264Z</time></trkpt><trkpt lat="46.1280418" lon="13.600368"><ele>493.0</ele><time>2026-05-02T09:46:32.264Z</time></trkpt><trkpt lat="46.1280057" lon="13.600491"><ele>493.0</ele><time>2026-05-02T09:46:33.264Z</time></trkpt><trkpt lat="46.1279805" lon="13.6006004"><ele>493.00000000000006</ele><time>2026-05-02T09:46:34.264Z</time></trkpt><trkpt lat="46.1279483" lon="13.6006907"><ele>493.0</ele><time>2026-05-02T09:46:35.265Z</time></trkpt><trkpt lat="46.1279196" lon="13.6007879"><ele>494.50000000000006</ele><time>2026-05-02T09:46:36.265Z</time></trkpt><trkpt lat="46.1278966" lon="13.600885"><ele>496.0</ele><time>2026-05-02T09:46:37.265Z</time></trkpt><trkpt lat="46.127874" lon="13.6009808"><ele>497.5</ele><time>2026-05-02T09:46:38.264Z</time></trkpt><trkpt lat="46.1278452" lon="13.6010694"><ele>499.0</ele><time>2026-05-02T09:46:39.265Z</time></trkpt><trkpt lat="46.1278235" lon="13.601159"><ele>500.50000000000006</ele><time>2026-05-02T09:46:40.265Z</time></trkpt><trkpt lat="46.1277825" lon="13.6013091"><ele>502.0</ele><time>2026-05-02T09:46:42.264Z</time></trkpt><trkpt lat="46.1277832" lon="13.6014658"><ele>502.00000000000006</ele><time>2026-05-02T09:46:44.264Z</time></trkpt><trkpt lat="46.1277692" lon="13.6015704"><ele>502.0</ele><time>2026-05-02T09:46:45.265Z</time></trkpt><trkpt lat="46.1277697" lon="13.6016633"><ele>502.0</ele><time>2026-05-02T09:46:46.264Z</time></trkpt><trkpt lat="46.1277794" lon="13.6017575"><ele>502.0</ele><time>2026-05-02T09:46:47.265Z</time></trkpt><trkpt lat="46.1277854" lon="13.6019246"><ele>502.00000000000006</ele><time>2026-05-02T09:46:49.264Z</time></trkpt><trkpt lat="46.1277386" lon="13.6020647"><ele>502.0</ele><time>2026-05-02T09:46:51.265Z</time></trkpt><trkpt lat="46.1276969" lon="13.6021427"><ele>502.33333333333337</ele><time>2026-05-02T09:46:52.265Z</time></trkpt><trkpt lat="46.1276656" lon="13.6022608"><ele>502.6666666666667</ele><time>2026-05-02T09:46:54.265Z</time></trkpt><trkpt lat="46.1277289" lon="13.6022994"><ele>503.0</ele><time>2026-05-02T09:46:58.265Z</time></trkpt><trkpt lat="46.1278232" lon="13.6023191"><ele>503.33333333333337</ele><time>2026-05-02T09:47:00.265Z</time></trkpt><trkpt lat="46.127923" lon="13.6023483"><ele>503.6666666666667</ele><time>2026-05-02T09:47:02.264Z</time></trkpt><trkpt lat="46.1279928" lon="13.6023727"><ele>504.0</ele><time>2026-05-02T09:47:03.265Z</time></trkpt><trkpt lat="46.1280565" lon="13.6023975"><ele>504.0</ele><time>2026-05-02T09:47:04.264Z</time></trkpt><trkpt lat="46.1281256" lon="13.6024396"><ele>504.0</ele><time>2026-05-02T09:47:05.265Z</time></trkpt><trkpt lat="46.1282473" lon="13.6024874"><ele>504.0</ele><time>2026-05-02T09:47:07.264Z</time></trkpt><trkpt lat="46.1283123" lon="13.6025066"><ele>504.0</ele><time>2026-05-02T09:47:08.265Z</time></trkpt><trkpt lat="46.1284248" lon="13.6025405"><ele>504.0</ele><time>2026-05-02T09:47:10.265Z</time></trkpt><trkpt lat="46.1284899" lon="13.6025606"><ele>504.0</ele><time>2026-05-02T09:47:11.265Z</time></trkpt><trkpt lat="46.1285998" lon="13.6025779"><ele>500.2</ele><time>2026-05-02T09:47:13.264Z</time></trkpt><trkpt lat="46.1287147" lon="13.6025587"><ele>496.4</ele><time>2026-05-02T09:47:15.265Z</time></trkpt><trkpt lat="46.1288339" lon="13.6025283"><ele>492.6</ele><time>2026-05-02T09:47:17.264Z</time></trkpt><trkpt lat="46.1289509" lon="13.6025355"><ele>488.8</ele><time>2026-05-02T09:47:19.265Z</time></trkpt><trkpt lat="46.129023" lon="13.6025531"><ele>485.0</ele><time>2026-05-02T09:47:20.265Z</time></trkpt><trkpt lat="46.1290865" lon="13.6025614"><ele>483.66666666666663</ele><time>2026-05-02T09:47:21.264Z</time></trkpt><trkpt lat="46.1291886" lon="13.6025994"><ele>482.3333333333333</ele><time>2026-05-02T09:47:23.264Z</time></trkpt><trkpt lat="46.1292307" lon="13.6026693"><ele>481.0</ele><time>2026-05-02T09:47:24.264Z</time></trkpt><trkpt lat="46.1292928" lon="13.602798"><ele>479.66666666666663</ele><time>2026-05-02T09:47:26.265Z</time></trkpt><trkpt lat="46.1293784" lon="13.602859"><ele>478.3333333333333</ele><time>2026-05-02T09:47:28.265Z</time></trkpt><trkpt lat="46.1294374" lon="13.6029014"><ele>477.0</ele><time>2026-05-02T09:47:29.264Z</time></trkpt><trkpt lat="46.1295461" lon="13.6029656"><ele>478.40000000000003</ele><time>2026-05-02T09:47:31.265Z</time></trkpt><trkpt lat="46.1296405" lon="13.6030129"><ele>479.80000000000007</ele><time>2026-05-02T09:47:33.264Z</time></trkpt><trkpt lat="46.1297385" lon="13.6030584"><ele>481.2</ele><time>2026-05-02T09:47:35.265Z</time></trkpt><trkpt lat="46.1298081" lon="13.6030725"><ele>482.6</ele><time>2026-05-02T09:47:36.264Z</time></trkpt><trkpt lat="46.1298769" lon="13.6030893"><ele>484.0</ele><time>2026-05-02T09:47:37.264Z</time></trkpt><trkpt lat="46.1299864" lon="13.6031409"><ele>484.0</ele><time>2026-05-02T09:47:39.264Z</time></trkpt><trkpt lat="46.1300826" lon="13.603208"><ele>484.0</ele><time>2026-05-02T09:47:41.265Z</time></trkpt><trkpt lat="46.1301639" lon="13.6033296"><ele>484.0</ele><time>2026-05-02T09:47:43.265Z</time></trkpt><trkpt lat="46.1301983" lon="13.6034832"><ele>484.0</ele><time>2026-05-02T09:47:45.264Z</time></trkpt><trkpt lat="46.1301895" lon="13.6035834"><ele>484.0</ele><time>2026-05-02T09:47:46.264Z</time></trkpt><trkpt lat="46.1301636" lon="13.6037084"><ele>484.0</ele><time>2026-05-02T09:47:47.264Z</time></trkpt><trkpt lat="46.1301208" lon="13.603863"><ele>484.0</ele><time>2026-05-02T09:47:48.265Z</time></trkpt><trkpt lat="46.1300794" lon="13.604008"><ele>484.0</ele><time>2026-05-02T09:47:49.265Z</time></trkpt><trkpt lat="46.1300398" lon="13.6041381"><ele>484.0</ele><time>2026-05-02T09:47:50.264Z</time></trkpt><trkpt lat="46.1300033" lon="13.6042624"><ele>484.0</ele><time>2026-05-02T09:47:51.265Z</time></trkpt><trkpt lat="46.1299727" lon="13.6043703"><ele>484.00000000000006</ele><time>2026-05-02T09:47:52.265Z</time></trkpt><trkpt lat="46.1299526" lon="13.6044695"><ele>484.0</ele><time>2026-05-02T09:47:53.264Z</time></trkpt><trkpt lat="46.1299318" lon="13.60458"><ele>484.0</ele><time>2026-05-02T09:47:54.265Z</time></trkpt><trkpt lat="46.1298936" lon="13.6047394"><ele>484.0</ele><time>2026-05-02T09:47:56.265Z</time></trkpt><trkpt lat="46.12987" lon="13.6048239"><ele>484.00000000000006</ele><time>2026-05-02T09:47:57.265Z</time></trkpt><trkpt lat="46.1298443" lon="13.604908"><ele>484.0</ele><time>2026-05-02T09:47:58.264Z</time></trkpt><trkpt lat="46.1297993" lon="13.6050522"><ele>487.6666666666667</ele><time>2026-05-02T09:48:00.264Z</time></trkpt><trkpt lat="46.129743" lon="13.6051752"><ele>491.33333333333337</ele><time>2026-05-02T09:48:02.265Z</time></trkpt><trkpt lat="46.1297086" lon="13.605279"><ele>495.0</ele><time>2026-05-02T09:48:04.265Z</time></trkpt><trkpt lat="46.1296654" lon="13.6053889"><ele>498.66666666666663</ele><time>2026-05-02T09:48:05.264Z</time></trkpt><trkpt lat="46.129626" lon="13.6054721"><ele>502.3333333333333</ele><time>2026-05-02T09:48:06.264Z</time></trkpt><trkpt lat="46.1295977" lon="13.6055552"><ele>506.0</ele><time>2026-05-02T09:48:07.264Z</time></trkpt><trkpt lat="46.1295673" lon="13.6056544"><ele>506.0</ele><time>2026-05-02T09:48:08.264Z</time></trkpt><trkpt lat="46.1295307" lon="13.6057552"><ele>506.0</ele><time>2026-05-02T09:48:09.265Z</time></trkpt><trkpt lat="46.1294853" lon="13.605882"><ele>506.0</ele><time>2026-05-02T09:48:11.265Z</time></trkpt><trkpt lat="46.129442" lon="13.6060323"><ele>506.0</ele><time>2026-05-02T09:48:13.264Z</time></trkpt><trkpt lat="46.1294089" lon="13.6062294"><ele>506.0</ele><time>2026-05-02T09:48:15.265Z</time></trkpt><trkpt lat="46.1293937" lon="13.6064008"><ele>503.3333333333333</ele><time>2026-05-02T09:48:17.264Z</time></trkpt><trkpt lat="46.1293946" lon="13.6065004"><ele>500.66666666666663</ele><time>2026-05-02T09:48:18.265Z</time></trkpt><trkpt lat="46.1293865" lon="13.6065909"><ele>498.0</ele><time>2026-05-02T09:48:19.264Z</time></trkpt><trkpt lat="46.1293767" lon="13.6067411"><ele>495.33333333333337</ele><time>2026-05-02T09:48:21.264Z</time></trkpt><trkpt lat="46.1293606" lon="13.6069006"><ele>492.6666666666667</ele><time>2026-05-02T09:48:23.265Z</time></trkpt><trkpt lat="46.1293208" lon="13.6069986"><ele>490.0</ele><time>2026-05-02T09:48:24.265Z</time></trkpt><trkpt lat="46.129288" lon="13.6071045"><ele>490.00000000000006</ele><time>2026-05-02T09:48:25.264Z</time></trkpt><trkpt lat="46.129254" lon="13.6071829"><ele>490.0</ele><time>2026-05-02T09:48:26.264Z</time></trkpt><trkpt lat="46.1292307" lon="13.6072816"><ele>490.0</ele><time>2026-05-02T09:48:27.265Z</time></trkpt><trkpt lat="46.1291793" lon="13.607418"><ele>490.0</ele><time>2026-05-02T09:48:29.265Z</time></trkpt><trkpt lat="46.1291616" lon="13.607506"><ele>490.00000000000006</ele><time>2026-05-02T09:48:30.264Z</time></trkpt><trkpt lat="46.129164" lon="13.60766"><ele>490.0</ele><time>2026-05-02T09:48:32.265Z</time></trkpt><trkpt lat="46.1291863" lon="13.6077544"><ele>490.0</ele><time>2026-05-02T09:48:34.264Z</time></trkpt><trkpt lat="46.1292685" lon="13.607757"><ele>490.0</ele><time>2026-05-02T09:48:37.264Z</time></trkpt><trkpt lat="46.1293564" lon="13.6077234"><ele>490.0</ele><time>2026-05-02T09:48:39.264Z</time></trkpt><trkpt lat="46.1294262" lon="13.6076822"><ele>490.0</ele><time>2026-05-02T09:48:40.264Z</time></trkpt><trkpt lat="46.1294834" lon="13.6076389"><ele>490.0</ele><time>2026-05-02T09:48:41.264Z</time></trkpt><trkpt lat="46.1295525" lon="13.6076264"><ele>490.0</ele><time>2026-05-02T09:48:42.265Z</time></trkpt><trkpt lat="46.1296163" lon="13.6076051"><ele>490.0</ele><time>2026-05-02T09:48:43.264Z</time></trkpt><trkpt lat="46.1296897" lon="13.6075919"><ele>490.0</ele><time>2026-05-02T09:48:44.265Z</time></trkpt><trkpt lat="46.1297548" lon="13.6075879"><ele>490.0</ele><time>2026-05-02T09:48:45.264Z</time></trkpt><trkpt lat="46.1298648" lon="13.6076076"><ele>490.0</ele><time>2026-05-02T09:48:47.264Z</time></trkpt><trkpt lat="46.1299404" lon="13.6076378"><ele>490.0</ele><time>2026-05-02T09:48:49.265Z</time></trkpt><trkpt lat="46.1300597" lon="13.6076753"><ele>490.0</ele><time>2026-05-02T09:48:51.265Z</time></trkpt><trkpt lat="46.1301647" lon="13.607714"><ele>491.4</ele><time>2026-05-02T09:48:53.265Z</time></trkpt><trkpt lat="46.1302535" lon="13.6077741"><ele>492.8</ele><time>2026-05-02T09:48:55.265Z</time></trkpt><trkpt lat="46.1303118" lon="13.6079164"><ele>494.20000000000005</ele><time>2026-05-02T09:48:57.264Z</time></trkpt><trkpt lat="46.1303126" lon="13.6080431"><ele>495.6</ele><time>2026-05-02T09:48:58.264Z</time></trkpt><trkpt lat="46.1303214" lon="13.6081833"><ele>497.0</ele><time>2026-05-02T09:48:59.264Z</time></trkpt><trkpt lat="46.130323" lon="13.6083056"><ele>497.0</ele><time>2026-05-02T09:49:00.264Z</time></trkpt><trkpt lat="46.1303053" lon="13.6084228"><ele>497.0</ele><time>2026-05-02T09:49:01.264Z</time></trkpt><trkpt lat="46.1302822" lon="13.6085181"><ele>497.0</ele><time>2026-05-02T09:49:02.264Z</time></trkpt><trkpt lat="46.1302677" lon="13.6086264"><ele>497.0</ele><time>2026-05-02T09:49:03.264Z</time></trkpt><trkpt lat="46.1302468" lon="13.6087206"><ele>497.0</ele><time>2026-05-02T09:49:04.265Z</time></trkpt><trkpt lat="46.1302311" lon="13.6088143"><ele>497.0</ele><time>2026-05-02T09:49:05.264Z</time></trkpt><trkpt lat="46.1302154" lon="13.6089101"><ele>497.0</ele><time>2026-05-02T09:49:06.264Z</time></trkpt><trkpt lat="46.1301758" lon="13.6090613"><ele>498.6</ele><time>2026-05-02T09:49:08.265Z</time></trkpt><trkpt lat="46.1301186" lon="13.6091999"><ele>500.20000000000005</ele><time>2026-05-02T09:49:10.265Z</time></trkpt><trkpt lat="46.1301085" lon="13.6093127"><ele>501.8</ele><time>2026-05-02T09:49:12.265Z</time></trkpt><trkpt lat="46.1301508" lon="13.6094072"><ele>503.4</ele><time>2026-05-02T09:49:14.264Z</time></trkpt><trkpt lat="46.1302206" lon="13.6094089"><ele>505.0</ele><time>2026-05-02T09:49:16.265Z</time></trkpt><trkpt lat="46.1303374" lon="13.6093809"><ele>505.0</ele><time>2026-05-02T09:49:18.265Z</time></trkpt><trkpt lat="46.130429" lon="13.6093754"><ele>505.0</ele><time>2026-05-02T09:49:19.265Z</time></trkpt><trkpt lat="46.130496" lon="13.6093618"><ele>505.0</ele><time>2026-05-02T09:49:20.264Z</time></trkpt><trkpt lat="46.1306096" lon="13.6093234"><ele>505.0</ele><time>2026-05-02T09:49:22.264Z</time></trkpt><trkpt lat="46.1307243" lon="13.6093163"><ele>505.0</ele><time>2026-05-02T09:49:24.264Z</time></trkpt><trkpt lat="46.1307887" lon="13.6093039"><ele>507.1666666666667</ele><time>2026-05-02T09:49:25.265Z</time></trkpt><trkpt lat="46.1308874" lon="13.6093396"><ele>509.33333333333337</ele><time>2026-05-02T09:49:27.265Z</time></trkpt><trkpt lat="46.1309347" lon="13.6093998"><ele>511.5</ele><time>2026-05-02T09:49:28.264Z</time></trkpt><trkpt lat="46.1309836" lon="13.60946"><ele>513.6666666666666</ele><time>2026-05-02T09:49:29.264Z</time></trkpt><trkpt lat="46.1310718" lon="13.6095067"><ele>515.8333333333333</ele><time>2026-05-02T09:49:31.264Z</time></trkpt><trkpt lat="46.1311623" lon="13.6094916"><ele>518.0</ele><time>2026-05-02T09:49:33.265Z</time></trkpt><trkpt lat="46.131229" lon="13.6094158"><ele>511.0</ele><time>2026-05-02T09:49:35.265Z</time></trkpt><trkpt lat="46.1312819" lon="13.6092633"><ele>503.99999999999994</ele><time>2026-05-02T09:49:37.265Z</time></trkpt><trkpt lat="46.1312939" lon="13.6091712"><ele>496.99999999999994</ele><time>2026-05-02T09:49:38.265Z</time></trkpt><trkpt lat="46.1313037" lon="13.6090752"><ele>490.0</ele><time>2026-05-02T09:49:39.265Z</time></trkpt><trkpt lat="46.1313407" lon="13.6089083"><ele>483.0</ele><time>2026-05-02T09:49:41.265Z</time></trkpt><trkpt lat="46.1314226" lon="13.6087504"><ele>483.0</ele><time>2026-05-02T09:49:43.264Z</time></trkpt><trkpt lat="46.1314713" lon="13.6086816"><ele>482.99999999999994</ele><time>2026-05-02T09:49:44.264Z</time></trkpt><trkpt lat="46.1315438" lon="13.6085712"><ele>482.99999999999994</ele><time>2026-05-02T09:49:46.264Z</time></trkpt><trkpt lat="46.1315877" lon="13.6084995"><ele>483.0</ele><time>2026-05-02T09:49:47.265Z</time></trkpt><trkpt lat="46.1316691" lon="13.6084064"><ele>483.0</ele><time>2026-05-02T09:49:49.265Z</time></trkpt><trkpt lat="46.1317215" lon="13.6082537"><ele>483.4</ele><time>2026-05-02T09:49:50.265Z</time></trkpt><trkpt lat="46.1317705" lon="13.6081222"><ele>483.79999999999995</ele><time>2026-05-02T09:49:51.265Z</time></trkpt><trkpt lat="46.1318048" lon="13.6079857"><ele>484.2</ele><time>2026-05-02T09:49:52.265Z</time></trkpt><trkpt lat="46.1318418" lon="13.6078553"><ele>484.6</ele><time>2026-05-02T09:49:53.265Z</time></trkpt><trkpt lat="46.1318746" lon="13.6077528"><ele>485.0</ele><time>2026-05-02T09:49:54.264Z</time></trkpt><trkpt lat="46.1319045" lon="13.6076599"><ele>480.0</ele><time>2026-05-02T09:49:55.264Z</time></trkpt><trkpt lat="46.1319462" lon="13.6075578"><ele>475.0</ele><time>2026-05-02T09:49:56.264Z</time></trkpt><trkpt lat="46.1320357" lon="13.6074357"><ele>470.0</ele><time>2026-05-02T09:49:58.264Z</time></trkpt><trkpt lat="46.1321242" lon="13.607391"><ele>465.0</ele><time>2026-05-02T09:50:00.264Z</time></trkpt><trkpt lat="46.1322149" lon="13.607401"><ele>460.0</ele><time>2026-05-02T09:50:02.265Z</time></trkpt><trkpt lat="46.1323349" lon="13.6074798"><ele>467.4</ele><time>2026-05-02T09:50:04.264Z</time></trkpt><trkpt lat="46.1324031" lon="13.6075243"><ele>474.8</ele><time>2026-05-02T09:50:05.265Z</time></trkpt><trkpt lat="46.132503" lon="13.6075503"><ele>482.20000000000005</ele><time>2026-05-02T09:50:07.265Z</time></trkpt><trkpt lat="46.1325887" lon="13.6074932"><ele>489.6</ele><time>2026-05-02T09:50:09.264Z</time></trkpt><trkpt lat="46.1326675" lon="13.6073455"><ele>497.0</ele><time>2026-05-02T09:50:11.265Z</time></trkpt><trkpt lat="46.1327087" lon="13.6072166"><ele>497.0</ele><time>2026-05-02T09:50:12.265Z</time></trkpt><trkpt lat="46.1327645" lon="13.6070935"><ele>497.00000000000006</ele><time>2026-05-02T09:50:13.264Z</time></trkpt><trkpt lat="46.1328104" lon="13.6069729"><ele>497.00000000000006</ele><time>2026-05-02T09:50:14.265Z</time></trkpt><trkpt lat="46.1328535" lon="13.6068787"><ele>497.0</ele><time>2026-05-02T09:50:15.265Z</time></trkpt><trkpt lat="46.132929" lon="13.6067479"><ele>497.0</ele><time>2026-05-02T09:50:17.265Z</time></trkpt><trkpt lat="46.1330141" lon="13.6066955"><ele>494.8333333333333</ele><time>2026-05-02T09:50:19.265Z</time></trkpt><trkpt lat="46.1331151" lon="13.6067012"><ele>492.66666666666663</ele><time>2026-05-02T09:50:21.264Z</time></trkpt><trkpt lat="46.1331816" lon="13.6067283"><ele>490.5</ele><time>2026-05-02T09:50:22.265Z</time></trkpt><trkpt lat="46.133252" lon="13.6067524"><ele>488.33333333333337</ele><time>2026-05-02T09:50:23.264Z</time></trkpt><trkpt lat="46.1333271" lon="13.6067608"><ele>486.1666666666667</ele><time>2026-05-02T09:50:24.265Z</time></trkpt><trkpt lat="46.1334062" lon="13.6067694"><ele>484.0</ele><time>2026-05-02T09:50:25.265Z</time></trkpt><trkpt lat="46.1334776" lon="13.6067764"><ele>484.0</ele><time>2026-05-02T09:50:26.264Z</time></trkpt><trkpt lat="46.1336017" lon="13.6068171"><ele>484.0</ele><time>2026-05-02T09:50:28.264Z</time></trkpt><trkpt lat="46.1337131" lon="13.606856"><ele>484.0</ele><time>2026-05-02T09:50:30.265Z</time></trkpt><trkpt lat="46.1338059" lon="13.6068869"><ele>484.0</ele><time>2026-05-02T09:50:32.264Z</time></trkpt><trkpt lat="46.1339258" lon="13.6069066"><ele>484.00000000000006</ele><time>2026-05-02T09:50:34.264Z</time></trkpt><trkpt lat="46.1340077" lon="13.6069338"><ele>484.0</ele><time>2026-05-02T09:50:35.264Z</time></trkpt><trkpt lat="46.1340864" lon="13.6069597"><ele>484.0</ele><time>2026-05-02T09:50:36.265Z</time></trkpt><trkpt lat="46.1341685" lon="13.6069805"><ele>484.0</ele><time>2026-05-02T09:50:37.264Z</time></trkpt><trkpt lat="46.1342433" lon="13.6069835"><ele>484.00000000000006</ele><time>2026-05-02T09:50:38.265Z</time></trkpt><trkpt lat="46.134308" lon="13.6069869"><ele>484.0</ele><time>2026-05-02T09:50:39.264Z</time></trkpt><trkpt lat="46.1344197" lon="13.6070186"><ele>490.6</ele><time>2026-05-02T09:50:41.265Z</time></trkpt><trkpt lat="46.1345273" lon="13.6070907"><ele>497.2</ele><time>2026-05-02T09:50:43.265Z</time></trkpt><trkpt lat="46.1346264" lon="13.6071638"><ele>503.80000000000007</ele><time>2026-05-02T09:50:45.265Z</time></trkpt><trkpt lat="46.1346735" lon="13.6072253"><ele>510.40000000000003</ele><time>2026-05-02T09:50:46.264Z</time></trkpt><trkpt lat="46.13472" lon="13.6073596"><ele>517.0</ele><time>2026-05-02T09:50:48.264Z</time></trkpt><trkpt lat="46.1348055" lon="13.6074291"><ele>512.6</ele><time>2026-05-02T09:50:50.265Z</time></trkpt><trkpt lat="46.1349275" lon="13.6074511"><ele>508.20000000000005</ele><time>2026-05-02T09:50:52.265Z</time></trkpt><trkpt lat="46.1349957" lon="13.6074663"><ele>503.8</ele><time>2026-05-02T09:50:53.264Z</time></trkpt><trkpt lat="46.1350978" lon="13.6075531"><ele>499.4</ele><time>2026-05-02T09:50:55.264Z</time></trkpt><trkpt lat="46.1351649" lon="13.6076818"><ele>495.0</ele><time>2026-05-02T09:50:57.265Z</time></trkpt><trkpt lat="46.1352183" lon="13.6077682"><ele>500.6666666666667</ele><time>2026-05-02T09:50:58.264Z</time></trkpt><trkpt lat="46.1352776" lon="13.6078372"><ele>506.33333333333337</ele><time>2026-05-02T09:50:59.264Z</time></trkpt><trkpt lat="46.1353278" lon="13.6078971"><ele>512.0</ele><time>2026-05-02T09:51:00.265Z</time></trkpt><trkpt lat="46.1354139" lon="13.607999"><ele>517.6666666666667</ele><time>2026-05-02T09:51:02.264Z</time></trkpt><trkpt lat="46.1354976" lon="13.608123"><ele>523.3333333333334</ele><time>2026-05-02T09:51:04.264Z</time></trkpt><trkpt lat="46.135555" lon="13.6081817"><ele>529.0</ele><time>2026-05-02T09:51:05.264Z</time></trkpt><trkpt lat="46.1356198" lon="13.6082407"><ele>529.0</ele><time>2026-05-02T09:51:07.264Z</time></trkpt><trkpt lat="46.1356935" lon="13.6082553"><ele>529.0</ele><time>2026-05-02T09:51:09.265Z</time></trkpt><trkpt lat="46.1358129" lon="13.6083174"><ele>529.0</ele><time>2026-05-02T09:51:11.265Z</time></trkpt><trkpt lat="46.135866" lon="13.6084226"><ele>529.0</ele><time>2026-05-02T09:51:13.265Z</time></trkpt><trkpt lat="46.1359121" lon="13.6085651"><ele>529.0</ele><time>2026-05-02T09:51:15.265Z</time></trkpt><trkpt lat="46.1359022" lon="13.6087367"><ele>530.3333333333334</ele><time>2026-05-02T09:51:17.265Z</time></trkpt><trkpt lat="46.1358528" lon="13.6089057"><ele>531.6666666666667</ele><time>2026-05-02T09:51:19.264Z</time></trkpt><trkpt lat="46.1358191" lon="13.6090117"><ele>533.0</ele><time>2026-05-02T09:51:20.265Z</time></trkpt><trkpt lat="46.1357818" lon="13.6091162"><ele>534.3333333333334</ele><time>2026-05-02T09:51:21.264Z</time></trkpt><trkpt lat="46.1357466" lon="13.6092168"><ele>535.6666666666666</ele><time>2026-05-02T09:51:22.264Z</time></trkpt><trkpt lat="46.1357144" lon="13.6093104"><ele>537.0</ele><time>2026-05-02T09:51:23.264Z</time></trkpt><trkpt lat="46.1356823" lon="13.6094143"><ele>536.0</ele><time>2026-05-02T09:51:24.265Z</time></trkpt><trkpt lat="46.135633" lon="13.6095696"><ele>535.0</ele><time>2026-05-02T09:51:26.264Z</time></trkpt><trkpt lat="46.1355972" lon="13.6096464"><ele>534.0</ele><time>2026-05-02T09:51:27.264Z</time></trkpt><trkpt lat="46.135559" lon="13.6097312"><ele>533.0</ele><time>2026-05-02T09:51:28.264Z</time></trkpt><trkpt lat="46.1355369" lon="13.6098583"><ele>532.0</ele><time>2026-05-02T09:51:29.264Z</time></trkpt><trkpt lat="46.1355273" lon="13.6099578"><ele>531.0</ele><time>2026-05-02T09:51:30.265Z</time></trkpt><trkpt lat="46.1355185" lon="13.6100542"><ele>531.0</ele><time>2026-05-02T09:51:31.264Z</time></trkpt><trkpt lat="46.1355039" lon="13.6101993"><ele>531.0</ele><time>2026-05-02T09:51:33.265Z</time></trkpt><trkpt lat="46.1355349" lon="13.6102948"><ele>531.0</ele><time>2026-05-02T09:51:36.265Z</time></trkpt><trkpt lat="46.1356205" lon="13.6103481"><ele>531.0</ele><time>2026-05-02T09:51:40.264Z</time></trkpt><trkpt lat="46.1357452" lon="13.6104204"><ele>531.0</ele><time>2026-05-02T09:51:42.264Z</time></trkpt><trkpt lat="46.1358036" lon="13.6104597"><ele>526.8</ele><time>2026-05-02T09:51:43.264Z</time></trkpt><trkpt lat="46.1358573" lon="13.6105086"><ele>522.6</ele><time>2026-05-02T09:51:44.265Z</time></trkpt><trkpt lat="46.1359357" lon="13.6106157"><ele>518.4</ele><time>2026-05-02T09:51:46.265Z</time></trkpt><trkpt lat="46.1359829" lon="13.6107806"><ele>514.2</ele><time>2026-05-02T09:51:48.265Z</time></trkpt><trkpt lat="46.1359946" lon="13.6109436"><ele>510.0</ele><time>2026-05-02T09:51:50.264Z</time></trkpt><trkpt lat="46.1359896" lon="13.611094"><ele>511.2</ele><time>2026-05-02T09:51:52.264Z</time></trkpt><trkpt lat="46.1359848" lon="13.6112322"><ele>512.4</ele><time>2026-05-02T09:51:54.265Z</time></trkpt><trkpt lat="46.1360012" lon="13.6113819"><ele>513.6</ele><time>2026-05-02T09:51:56.265Z</time></trkpt><trkpt lat="46.1360779" lon="13.6114875"><ele>514.8</ele><time>2026-05-02T09:51:58.264Z</time></trkpt><trkpt lat="46.1361354" lon="13.6116116"><ele>516.0</ele><time>2026-05-02T09:52:00.264Z</time></trkpt><trkpt lat="46.1361257" lon="13.6117507"><ele>516.0</ele><time>2026-05-02T09:52:02.265Z</time></trkpt><trkpt lat="46.1360779" lon="13.6118191"><ele>516.0</ele><time>2026-05-02T09:52:03.264Z</time></trkpt><trkpt lat="46.1360194" lon="13.6119005"><ele>516.0</ele><time>2026-05-02T09:52:04.265Z</time></trkpt><trkpt lat="46.1359516" lon="13.6119654"><ele>516.0</ele><time>2026-05-02T09:52:05.264Z</time></trkpt><trkpt lat="46.1358942" lon="13.6120291"><ele>516.0</ele><time>2026-05-02T09:52:06.265Z</time></trkpt><trkpt lat="46.1358455" lon="13.612097"><ele>516.0</ele><time>2026-05-02T09:52:07.264Z</time></trkpt><trkpt lat="46.1357739" lon="13.6122172"><ele>516.8333333333334</ele><time>2026-05-02T09:52:09.265Z</time></trkpt><trkpt lat="46.1357363" lon="13.6123459"><ele>517.6666666666666</ele><time>2026-05-02T09:52:11.264Z</time></trkpt><trkpt lat="46.1357754" lon="13.6124444"><ele>518.5</ele><time>2026-05-02T09:52:14.264Z</time></trkpt><trkpt lat="46.1358887" lon="13.6124525"><ele>519.3333333333333</ele><time>2026-05-02T09:52:16.265Z</time></trkpt><trkpt lat="46.1359668" lon="13.6124895"><ele>520.1666666666666</ele><time>2026-05-02T09:52:17.265Z</time></trkpt><trkpt lat="46.1360373" lon="13.612527"><ele>521.0</ele><time>2026-05-02T09:52:18.264Z</time></trkpt><trkpt lat="46.1361088" lon="13.6125663"><ele>521.0</ele><time>2026-05-02T09:52:19.265Z</time></trkpt><trkpt lat="46.1362166" lon="13.6126417"><ele>521.0</ele><time>2026-05-02T09:52:21.265Z</time></trkpt><trkpt lat="46.1362679" lon="13.6127026"><ele>521.0</ele><time>2026-05-02T09:52:22.265Z</time></trkpt><trkpt lat="46.1363204" lon="13.6127681"><ele>521.0</ele><time>2026-05-02T09:52:23.265Z</time></trkpt><trkpt lat="46.1363706" lon="13.6129188"><ele>521.0</ele><time>2026-05-02T09:52:25.264Z</time></trkpt><trkpt lat="46.1363843" lon="13.6130994"><ele>520.5</ele><time>2026-05-02T09:52:27.265Z</time></trkpt><trkpt lat="46.1363771" lon="13.613199"><ele>520.0</ele><time>2026-05-02T09:52:28.264Z</time></trkpt><trkpt lat="46.1363694" lon="13.613296"><ele>519.5</ele><time>2026-05-02T09:52:29.265Z</time></trkpt><trkpt lat="46.1363703" lon="13.6134377"><ele>519.0</ele><time>2026-05-02T09:52:31.264Z</time></trkpt><trkpt lat="46.1364254" lon="13.6135041"><ele>518.5</ele><time>2026-05-02T09:52:34.265Z</time></trkpt><trkpt lat="46.1364989" lon="13.6134792"><ele>518.0</ele><time>2026-05-02T09:52:36.264Z</time></trkpt><trkpt lat="46.1365718" lon="13.613421"><ele>518.0</ele><time>2026-05-02T09:52:38.264Z</time></trkpt><trkpt lat="46.1366616" lon="13.6132986"><ele>518.0</ele><time>2026-05-02T09:52:40.264Z</time></trkpt><trkpt lat="46.1367069" lon="13.6132131"><ele>518.0</ele><time>2026-05-02T09:52:41.265Z</time></trkpt><trkpt lat="46.1367482" lon="13.6131294"><ele>518.0</ele><time>2026-05-02T09:52:42.265Z</time></trkpt><trkpt lat="46.1367919" lon="13.6130427"><ele>518.0</ele><time>2026-05-02T09:52:43.265Z</time></trkpt><trkpt lat="46.1368382" lon="13.6128893"><ele>515.0</ele><time>2026-05-02T09:52:45.265Z</time></trkpt><trkpt lat="46.1368811" lon="13.6127075"><ele>511.99999999999994</ele><time>2026-05-02T09:52:47.264Z</time></trkpt><trkpt lat="46.1369052" lon="13.6126121"><ele>508.99999999999994</ele><time>2026-05-02T09:52:48.265Z</time></trkpt><trkpt lat="46.1369583" lon="13.6124679"><ele>506.0</ele><time>2026-05-02T09:52:50.264Z</time></trkpt><trkpt lat="46.1370125" lon="13.6123936"><ele>503.0</ele><time>2026-05-02T09:52:51.264Z</time></trkpt><trkpt lat="46.1370679" lon="13.6123253"><ele>503.0</ele><time>2026-05-02T09:52:52.264Z</time></trkpt><trkpt lat="46.1371272" lon="13.6122786"><ele>502.99999999999994</ele><time>2026-05-02T09:52:53.265Z</time></trkpt><trkpt lat="46.1371812" lon="13.612204"><ele>502.99999999999994</ele><time>2026-05-02T09:52:54.264Z</time></trkpt><trkpt lat="46.1372904" lon="13.6121324"><ele>503.0</ele><time>2026-05-02T09:52:56.264Z</time></trkpt><trkpt lat="46.1373731" lon="13.6120628"><ele>503.0</ele><time>2026-05-02T09:52:58.265Z</time></trkpt><trkpt lat="46.1373895" lon="13.611903"><ele>500.8333333333333</ele><time>2026-05-02T09:53:00.265Z</time></trkpt><trkpt lat="46.1373652" lon="13.6117977"><ele>498.66666666666663</ele><time>2026-05-02T09:53:01.265Z</time></trkpt><trkpt lat="46.1373519" lon="13.6116984"><ele>496.5</ele><time>2026-05-02T09:53:02.265Z</time></trkpt><trkpt lat="46.1373354" lon="13.6116061"><ele>494.33333333333337</ele><time>2026-05-02T09:53:03.264Z</time></trkpt><trkpt lat="46.1373019" lon="13.6114182"><ele>492.1666666666667</ele><time>2026-05-02T09:53:05.264Z</time></trkpt><trkpt lat="46.1372941" lon="13.6113048"><ele>490.0</ele><time>2026-05-02T09:53:06.264Z</time></trkpt><trkpt lat="46.1372813" lon="13.6112069"><ele>487.33333333333337</ele><time>2026-05-02T09:53:07.265Z</time></trkpt><trkpt lat="46.1372653" lon="13.6111042"><ele>484.6666666666667</ele><time>2026-05-02T09:53:08.265Z</time></trkpt><trkpt lat="46.1372572" lon="13.6110002"><ele>482.0</ele><time>2026-05-02T09:53:09.265Z</time></trkpt><trkpt lat="46.1372527" lon="13.6108783"><ele>479.33333333333337</ele><time>2026-05-02T09:53:10.265Z</time></trkpt><trkpt lat="46.1372517" lon="13.6107795"><ele>476.6666666666667</ele><time>2026-05-02T09:53:11.264Z</time></trkpt><trkpt lat="46.1372573" lon="13.6106113"><ele>474.0</ele><time>2026-05-02T09:53:13.264Z</time></trkpt><trkpt lat="46.1372727" lon="13.610489"><ele>474.0</ele><time>2026-05-02T09:53:15.264Z</time></trkpt><trkpt lat="46.1372985" lon="13.6103465"><ele>474.0</ele><time>2026-05-02T09:53:18.265Z</time></trkpt><trkpt lat="46.1373302" lon="13.6102386"><ele>474.0</ele><time>2026-05-02T09:53:19.264Z</time></trkpt><trkpt lat="46.1373745" lon="13.6101331"><ele>474.0</ele><time>2026-05-02T09:53:20.265Z</time></trkpt><trkpt lat="46.137422" lon="13.6100394"><ele>474.0</ele><time>2026-05-02T09:53:21.265Z</time></trkpt><trkpt lat="46.1374669" lon="13.6099647"><ele>474.0</ele><time>2026-05-02T09:53:22.265Z</time></trkpt><trkpt lat="46.1375142" lon="13.6098771"><ele>476.0</ele><time>2026-05-02T09:53:23.264Z</time></trkpt><trkpt lat="46.1376087" lon="13.6097998"><ele>478.0</ele><time>2026-05-02T09:53:25.264Z</time></trkpt><trkpt lat="46.1376613" lon="13.6097406"><ele>480.0</ele><time>2026-05-02T09:53:26.265Z</time></trkpt><trkpt lat="46.1377245" lon="13.6096493"><ele>482.0</ele><time>2026-05-02T09:53:27.264Z</time></trkpt><trkpt lat="46.1378084" lon="13.6095399"><ele>484.0</ele><time>2026-05-02T09:53:29.264Z</time></trkpt><trkpt lat="46.1378826" lon="13.6094301"><ele>486.00000000000006</ele><time>2026-05-02T09:53:31.264Z</time></trkpt><trkpt lat="46.1379315" lon="13.6093338"><ele>488.0</ele><time>2026-05-02T09:53:32.265Z</time></trkpt><trkpt lat="46.1379692" lon="13.6092408"><ele>490.0</ele><time>2026-05-02T09:53:33.265Z</time></trkpt><trkpt lat="46.1380103" lon="13.6091568"><ele>492.0</ele><time>2026-05-02T09:53:34.265Z</time></trkpt><trkpt lat="46.138049" lon="13.6090636"><ele>494.00000000000006</ele><time>2026-05-02T09:53:35.264Z</time></trkpt><trkpt lat="46.1381339" lon="13.608957"><ele>496.0</ele><time>2026-05-02T09:53:37.264Z</time></trkpt><trkpt lat="46.1382213" lon="13.6089871"><ele>496.00000000000006</ele><time>2026-05-02T09:53:39.265Z</time></trkpt><trkpt lat="46.1383144" lon="13.6090519"><ele>496.0</ele><time>2026-05-02T09:53:41.264Z</time></trkpt><trkpt lat="46.138397" lon="13.6091376"><ele>496.0</ele><time>2026-05-02T09:53:43.265Z</time></trkpt><trkpt lat="46.1384489" lon="13.6092061"><ele>496.0</ele><time>2026-05-02T09:53:44.265Z</time></trkpt><trkpt lat="46.138513" lon="13.6092778"><ele>496.00000000000006</ele><time>2026-05-02T09:53:45.264Z</time></trkpt><trkpt lat="46.1385777" lon="13.6093456"><ele>496.0</ele><time>2026-05-02T09:53:46.264Z</time></trkpt><trkpt lat="46.1386534" lon="13.6094072"><ele>496.00000000000006</ele><time>2026-05-02T09:53:47.264Z</time></trkpt><trkpt lat="46.1387277" lon="13.6094625"><ele>496.0</ele><time>2026-05-02T09:53:48.265Z</time></trkpt><trkpt lat="46.1387918" lon="13.6095313"><ele>496.0</ele><time>2026-05-02T09:53:49.264Z</time></trkpt><trkpt lat="46.1388479" lon="13.6095927"><ele>496.0</ele><time>2026-05-02T09:53:50.265Z</time></trkpt><trkpt lat="46.1389186" lon="13.6096564"><ele>496.00000000000006</ele><time>2026-05-02T09:53:51.265Z</time></trkpt><trkpt lat="46.1389772" lon="13.6097149"><ele>496.0</ele><time>2026-05-02T09:53:52.265Z</time></trkpt><trkpt lat="46.139046" lon="13.6098385"><ele>496.83333333333337</ele><time>2026-05-02T09:53:54.264Z</time></trkpt><trkpt lat="46.139107" lon="13.6099307"><ele>497.6666666666667</ele><time>2026-05-02T09:53:56.265Z</time></trkpt><trkpt lat="46.1391166" lon="13.6100573"><ele>498.5</ele><time>2026-05-02T09:53:58.265Z</time></trkpt><trkpt lat="46.1391056" lon="13.6102217"><ele>499.33333333333337</ele><time>2026-05-02T09:54:00.264Z</time></trkpt><trkpt lat="46.1391035" lon="13.6103139"><ele>500.1666666666667</ele><time>2026-05-02T09:54:01.264Z</time></trkpt><trkpt lat="46.1390896" lon="13.6104063"><ele>501.0</ele><time>2026-05-02T09:54:02.264Z</time></trkpt><trkpt lat="46.1390841" lon="13.6105743"><ele>502.4</ele><time>2026-05-02T09:54:04.264Z</time></trkpt><trkpt lat="46.1390845" lon="13.6107244"><ele>503.8</ele><time>2026-05-02T09:54:06.265Z</time></trkpt><trkpt lat="46.1390683" lon="13.6108767"><ele>505.19999999999993</ele><time>2026-05-02T09:54:08.265Z</time></trkpt><trkpt lat="46.139048" lon="13.6110129"><ele>506.59999999999997</ele><time>2026-05-02T09:54:10.265Z</time></trkpt><trkpt lat="46.1390418" lon="13.6111435"><ele>508.0</ele><time>2026-05-02T09:54:12.265Z</time></trkpt><trkpt lat="46.1390568" lon="13.6112713"><ele>511.33333333333337</ele><time>2026-05-02T09:54:14.264Z</time></trkpt><trkpt lat="46.1391234" lon="13.6113802"><ele>514.6666666666667</ele><time>2026-05-02T09:54:16.265Z</time></trkpt><trkpt lat="46.1392007" lon="13.611425"><ele>518.0</ele><time>2026-05-02T09:54:18.264Z</time></trkpt><trkpt lat="46.1392736" lon="13.6114539"><ele>521.3333333333334</ele><time>2026-05-02T09:54:19.264Z</time></trkpt><trkpt lat="46.1393533" lon="13.6114939"><ele>524.6666666666666</ele><time>2026-05-02T09:54:20.264Z</time></trkpt><trkpt lat="46.1394189" lon="13.6115166"><ele>528.0</ele><time>2026-05-02T09:54:21.265Z</time></trkpt><trkpt lat="46.1394837" lon="13.6115078"><ele>528.0</ele><time>2026-05-02T09:54:22.265Z</time></trkpt><trkpt lat="46.1395937" lon="13.6114875"><ele>528.0</ele><time>2026-05-02T09:54:24.265Z</time></trkpt><trkpt lat="46.1396854" lon="13.6114915"><ele>528.0</ele><time>2026-05-02T09:54:25.264Z</time></trkpt><trkpt lat="46.1397513" lon="13.6115026"><ele>528.0</ele><time>2026-05-02T09:54:26.265Z</time></trkpt><trkpt lat="46.1398588" lon="13.6115381"><ele>528.0</ele><time>2026-05-02T09:54:28.265Z</time></trkpt><trkpt lat="46.1399443" lon="13.6116692"><ele>529.0</ele><time>2026-05-02T09:54:30.265Z</time></trkpt><trkpt lat="46.1399875" lon="13.6118554"><ele>530.0</ele><time>2026-05-02T09:54:32.264Z</time></trkpt><trkpt lat="46.1400097" lon="13.6119554"><ele>531.0</ele><time>2026-05-02T09:54:33.265Z</time></trkpt><trkpt lat="46.1400583" lon="13.6121024"><ele>532.0</ele><time>2026-05-02T09:54:35.264Z</time></trkpt><trkpt lat="46.1401024" lon="13.612246"><ele>533.0</ele><time>2026-05-02T09:54:37.264Z</time></trkpt><trkpt lat="46.1401458" lon="13.6123859"><ele>566.0</ele><time>2026-05-02T09:54:39.265Z</time></trkpt><trkpt lat="46.1208892" lon="13.6016504"><ele>566.0</ele><time>2026-05-02T09:42:00.265Z</time></trkpt><trkpt lat="46.120921" lon="13.6015401"><ele>566.0</ele><time>2026-05-02T09:42:01.265Z</time></trkpt><trkpt lat="46.1209461" lon="13.6013952"><ele>566.0</ele><time>2026-05-02T09:42:02.265Z</time></trkpt><trkpt lat="46.1209656" lon="13.6012548"><ele>566.0</ele><time>2026-05-02T09:42:03.266Z</time></trkpt><trkpt lat="46.120978" lon="13.6011276"><ele>566.0</ele><time>2026-05-02T09:42:04.266Z</time></trkpt><trkpt lat="46.1209915" lon="13.6010187"><ele>566.0</ele><time>2026-05-02T09:42:05.266Z</time></trkpt><trkpt lat="46.1209852" lon="13.6008383"><ele>566.0</ele><time>2026-05-02T09:42:07.266Z</time></trkpt><trkpt lat="46.1209985" lon="13.6006429"><ele>566.0</ele><time>2026-05-02T09:42:09.266Z</time></trkpt><trkpt lat="46.1209924" lon="13.6005101"><ele>566.0</ele><time>2026-05-02T09:42:10.266Z</time></trkpt><trkpt lat="46.1209896" lon="13.6003869"><ele>566.0</ele><time>2026-05-02T09:42:11.266Z</time></trkpt><trkpt lat="46.1209874" lon="13.6002769"><ele>566.0</ele><time>2026-05-02T09:42:12.266Z</time></trkpt><trkpt lat="46.120985" lon="13.6001712"><ele>566.0</ele><time>2026-05-02T09:42:13.266Z</time></trkpt><trkpt lat="46.120976" lon="13.600035"><ele>566.0</ele><time>2026-05-02T09:42:15.265Z</time></trkpt><trkpt lat="46.1209976" lon="13.5999111"><ele>566.0</ele><time>2026-05-02T09:42:17.265Z</time></trkpt><trkpt lat="46.1210559" lon="13.5998131"><ele>566.0</ele><time>2026-05-02T09:42:19.265Z</time></trkpt><trkpt lat="46.1211588" lon="13.5997592"><ele>566.0</ele><time>2026-05-02T09:42:21.266Z</time></trkpt><trkpt lat="46.121245" lon="13.5997827"><ele>566.0</ele><time>2026-05-02T09:42:23.266Z</time></trkpt><trkpt lat="46.1213411" lon="13.5998343"><ele>566.0</ele><time>2026-05-02T09:42:26.265Z</time></trkpt><trkpt lat="46.1214279" lon="13.5999259"><ele>566.0</ele><time>2026-05-02T09:42:28.266Z</time></trkpt><trkpt lat="46.121541" lon="13.5999488"><ele>566.0</ele><time>2026-05-02T09:42:30.265Z</time></trkpt><trkpt lat="46.1216028" lon="13.5999835"><ele>569.4</ele><time>2026-05-02T09:42:31.266Z</time></trkpt><trkpt lat="46.121678" lon="13.600134"><ele>572.8</ele><time>2026-05-02T09:42:33.266Z</time></trkpt><trkpt lat="46.1217048" lon="13.6002416"><ele>576.1999999999999</ele><time>2026-05-02T09:42:34.265Z</time></trkpt><trkpt lat="46.1217141" lon="13.6003558"><ele>579.6</ele><time>2026-05-02T09:42:35.266Z</time></trkpt><trkpt lat="46.121718" lon="13.6004991"><ele>583.0</ele><time>2026-05-02T09:42:36.265Z</time></trkpt><trkpt lat="46.1217108" lon="13.6006393"><ele>584.0</ele><time>2026-05-02T09:42:37.265Z</time></trkpt><trkpt lat="46.1216786" lon="13.6007946"><ele>585.0</ele><time>2026-05-02T09:42:38.266Z</time></trkpt><trkpt lat="46.1216419" lon="13.6009674"><ele>586.0</ele><time>2026-05-02T09:42:39.265Z</time></trkpt><trkpt lat="46.1216017" lon="13.6011568"><ele>587.0</ele><time>2026-05-02T09:42:40.266Z</time></trkpt><trkpt lat="46.121591" lon="13.6013298"><ele>587.0</ele><time>2026-05-02T09:42:41.265Z</time></trkpt><trkpt lat="46.121605" lon="13.6015009"><ele>587.0</ele><time>2026-05-02T09:42:42.266Z</time></trkpt><trkpt lat="46.1216475" lon="13.6016811"><ele>587.0</ele><time>2026-05-02T09:42:43.266Z</time></trkpt><trkpt lat="46.1217237" lon="13.601832"><ele>587.0</ele><time>2026-05-02T09:42:44.266Z</time></trkpt><trkpt lat="46.1218152" lon="13.6019638"><ele>588.5</ele><time>2026-05-02T09:42:45.265Z</time></trkpt><trkpt lat="46.121912" lon="13.6020821"><ele>590.0</ele><time>2026-05-02T09:42:46.266Z</time></trkpt><trkpt lat="46.122033" lon="13.6021455"><ele>591.5</ele><time>2026-05-02T09:42:47.265Z</time></trkpt><trkpt lat="46.1221654" lon="13.6021632"><ele>593.0</ele><time>2026-05-02T09:42:48.266Z</time></trkpt><trkpt lat="46.122287" lon="13.6021328"><ele>593.0</ele><time>2026-05-02T09:42:49.265Z</time></trkpt><trkpt lat="46.1223818" lon="13.6020933"><ele>593.0</ele><time>2026-05-02T09:42:50.265Z</time></trkpt><trkpt lat="46.1224783" lon="13.6020758"><ele>593.0</ele><time>2026-05-02T09:42:51.265Z</time></trkpt><trkpt lat="46.1225705" lon="13.6020883"><ele>593.0</ele><time>2026-05-02T09:42:52.265Z</time></trkpt><trkpt lat="46.1226631" lon="13.6021687"><ele>593.0</ele><time>2026-05-02T09:42:53.265Z</time></trkpt><trkpt lat="46.1227473" lon="13.6022564"><ele>593.8</ele><time>2026-05-02T09:42:54.266Z</time></trkpt><trkpt lat="46.1228443" lon="13.6023576"><ele>594.5999999999999</ele><time>2026-05-02T09:42:55.265Z</time></trkpt><trkpt lat="46.1229355" lon="13.6024528"><ele>595.4000000000001</ele><time>2026-05-02T09:42:56.266Z</time></trkpt><trkpt lat="46.1230137" lon="13.6025501"><ele>596.2</ele><time>2026-05-02T09:42:57.265Z</time></trkpt><trkpt lat="46.1230751" lon="13.6026547"><ele>597.0</ele><time>2026-05-02T09:42:58.265Z</time></trkpt><trkpt lat="46.1231393" lon="13.6027661"><ele>597.0</ele><time>2026-05-02T09:42:59.265Z</time></trkpt><trkpt lat="46.1232154" lon="13.6028238"><ele>597.0</ele><time>2026-05-02T09:43:00.266Z</time></trkpt><trkpt lat="46.1233112" lon="13.6028213"><ele>597.0</ele><time>2026-05-02T09:43:01.265Z</time></trkpt><trkpt lat="46.1234097" lon="13.6028155"><ele>597.0</ele><time>2026-05-02T09:43:02.265Z</time></trkpt><trkpt lat="46.123512" lon="13.6028189"><ele>597.0</ele><time>2026-05-02T09:43:03.266Z</time></trkpt><trkpt lat="46.1236175" lon="13.6027987"><ele>596.0</ele><time>2026-05-02T09:43:04.265Z</time></trkpt><trkpt lat="46.1237072" lon="13.6027536"><ele>595.0</ele><time>2026-05-02T09:43:05.265Z</time></trkpt><trkpt lat="46.123783" lon="13.6027"><ele>594.0</ele><time>2026-05-02T09:43:06.266Z</time></trkpt><trkpt lat="46.1238671" lon="13.6026719"><ele>593.0</ele><time>2026-05-02T09:43:07.265Z</time></trkpt><trkpt lat="46.1239478" lon="13.602669"><ele>592.0</ele><time>2026-05-02T09:43:08.265Z</time></trkpt><trkpt lat="46.1240455" lon="13.6026832"><ele>591.0</ele><time>2026-05-02T09:43:09.266Z</time></trkpt><trkpt lat="46.124147" lon="13.6026832"><ele>591.0</ele><time>2026-05-02T09:43:10.266Z</time></trkpt><trkpt lat="46.1242404" lon="13.6026203"><ele>591.0</ele><time>2026-05-02T09:43:11.266Z</time></trkpt><trkpt lat="46.1243116" lon="13.6025141"><ele>591.0</ele><time>2026-05-02T09:43:12.265Z</time></trkpt><trkpt lat="46.1243648" lon="13.6023651"><ele>591.0</ele><time>2026-05-02T09:43:13.265Z</time></trkpt><trkpt lat="46.1244119" lon="13.6022059"><ele>591.0</ele><time>2026-05-02T09:43:14.266Z</time></trkpt><trkpt lat="46.1244609" lon="13.6020614"><ele>588.1666666666666</ele><time>2026-05-02T09:43:15.266Z</time></trkpt><trkpt lat="46.1245067" lon="13.6019434"><ele>585.3333333333334</ele><time>2026-05-02T09:43:16.265Z</time></trkpt><trkpt lat="46.1245623" lon="13.6018501"><ele>582.5</ele><time>2026-05-02T09:43:17.265Z</time></trkpt><trkpt lat="46.1246346" lon="13.6018029"><ele>579.6666666666667</ele><time>2026-05-02T09:43:18.266Z</time></trkpt><trkpt lat="46.1247175" lon="13.6017992"><ele>576.8333333333334</ele><time>2026-05-02T09:43:19.265Z</time></trkpt><trkpt lat="46.1247988" lon="13.6018554"><ele>574.0</ele><time>2026-05-02T09:43:20.266Z</time></trkpt><trkpt lat="46.1248824" lon="13.6019448"><ele>576.6</ele><time>2026-05-02T09:43:21.266Z</time></trkpt><trkpt lat="46.1249648" lon="13.6020421"><ele>579.2</ele><time>2026-05-02T09:43:22.265Z</time></trkpt><trkpt lat="46.1250447" lon="13.6021333"><ele>581.8000000000001</ele><time>2026-05-02T09:43:23.266Z</time></trkpt><trkpt lat="46.1251175" lon="13.6022622"><ele>584.4</ele><time>2026-05-02T09:43:24.266Z</time></trkpt><trkpt lat="46.125182" lon="13.6024165"><ele>587.0</ele><time>2026-05-02T09:43:25.265Z</time></trkpt><trkpt lat="46.1252176" lon="13.6025712"><ele>587.0</ele><time>2026-05-02T09:43:26.266Z</time></trkpt><trkpt lat="46.1251962" lon="13.602726"><ele>587.0</ele><time>2026-05-02T09:43:27.265Z</time></trkpt><trkpt lat="46.1251558" lon="13.6028736"><ele>587.0</ele><time>2026-05-02T09:43:28.265Z</time></trkpt><trkpt lat="46.1251016" lon="13.6029948"><ele>587.0</ele><time>2026-05-02T09:43:29.265Z</time></trkpt><trkpt lat="46.1250594" lon="13.6031481"><ele>587.0</ele><time>2026-05-02T09:43:30.265Z</time></trkpt><trkpt lat="46.12504" lon="13.6033273"><ele>586.8000000000001</ele><time>2026-05-02T09:43:31.265Z</time></trkpt><trkpt lat="46.1250341" lon="13.603505"><ele>586.6</ele><time>2026-05-02T09:43:32.265Z</time></trkpt><trkpt lat="46.1250242" lon="13.6036558"><ele>586.4000000000001</ele><time>2026-05-02T09:43:33.266Z</time></trkpt><trkpt lat="46.1250474" lon="13.6037737"><ele>586.2</ele><time>2026-05-02T09:43:34.265Z</time></trkpt><trkpt lat="46.1250975" lon="13.603879"><ele>586.0</ele><time>2026-05-02T09:43:35.266Z</time></trkpt><trkpt lat="46.1251691" lon="13.6039486"><ele>587.6</ele><time>2026-05-02T09:43:36.266Z</time></trkpt><trkpt lat="46.1252633" lon="13.6040229"><ele>589.2</ele><time>2026-05-02T09:43:37.266Z</time></trkpt><trkpt lat="46.1253307" lon="13.6041296"><ele>590.8</ele><time>2026-05-02T09:43:38.266Z</time></trkpt><trkpt lat="46.1253909" lon="13.6042502"><ele>592.4</ele><time>2026-05-02T09:43:39.265Z</time></trkpt><trkpt lat="46.1254593" lon="13.6043196"><ele>594.0</ele><time>2026-05-02T09:43:40.266Z</time></trkpt><trkpt lat="46.1255387" lon="13.6043693"><ele>594.0</ele><time>2026-05-02T09:43:41.265Z</time></trkpt><trkpt lat="46.125615" lon="13.604398"><ele>594.0</ele><time>2026-05-02T09:43:42.266Z</time></trkpt><trkpt lat="46.1256941" lon="13.6044306"><ele>594.0</ele><time>2026-05-02T09:43:43.265Z</time></trkpt><trkpt lat="46.125767" lon="13.6044507"><ele>594.0</ele><time>2026-05-02T09:43:44.265Z</time></trkpt><trkpt lat="46.125824" lon="13.6043934"><ele>594.0</ele><time>2026-05-02T09:43:46.265Z</time></trkpt><trkpt lat="46.1257548" lon="13.6043405"><ele>594.0</ele><time>2026-05-02T09:43:48.266Z</time></trkpt><trkpt lat="46.1256867" lon="13.6043171"><ele>594.0</ele><time>2026-05-02T09:43:49.265Z</time></trkpt><trkpt lat="46.1256033" lon="13.6042638"><ele>594.0</ele><time>2026-05-02T09:43:50.265Z</time></trkpt><trkpt lat="46.1255124" lon="13.6041958"><ele>594.0</ele><time>2026-05-02T09:43:51.266Z</time></trkpt><trkpt lat="46.1254312" lon="13.604097"><ele>594.0</ele><time>2026-05-02T09:43:52.265Z</time></trkpt><trkpt lat="46.1253683" lon="13.6039763"><ele>594.0</ele><time>2026-05-02T09:43:53.266Z</time></trkpt><trkpt lat="46.1253221" lon="13.6038382"><ele>594.0</ele><time>2026-05-02T09:43:54.265Z</time></trkpt><trkpt lat="46.1252821" lon="13.6036903"><ele>594.0</ele><time>2026-05-02T09:43:55.266Z</time></trkpt><trkpt lat="46.1252526" lon="13.6035473"><ele>594.0</ele><time>2026-05-02T09:43:56.265Z</time></trkpt><trkpt lat="46.1252668" lon="13.6033898"><ele>594.0</ele><time>2026-05-02T09:43:57.266Z</time></trkpt><trkpt lat="46.1253405" lon="13.6032387"><ele>592.6</ele><time>2026-05-02T09:43:58.266Z</time></trkpt><trkpt lat="46.1254218" lon="13.6031215"><ele>591.2</ele><time>2026-05-02T09:43:59.266Z</time></trkpt><trkpt lat="46.1255037" lon="13.60301"><ele>589.8000000000001</ele><time>2026-05-02T09:44:00.265Z</time></trkpt><trkpt lat="46.1255647" lon="13.6028929"><ele>588.4</ele><time>2026-05-02T09:44:01.266Z</time></trkpt><trkpt lat="46.1255978" lon="13.6027545"><ele>587.0</ele><time>2026-05-02T09:44:02.266Z</time></trkpt><trkpt lat="46.1256098" lon="13.6025638"><ele>587.0</ele><time>2026-05-02T09:44:03.266Z</time></trkpt><trkpt lat="46.1256497" lon="13.6023855"><ele>587.0</ele><time>2026-05-02T09:44:04.265Z</time></trkpt><trkpt lat="46.1257095" lon="13.6022137"><ele>587.0</ele><time>2026-05-02T09:44:05.265Z</time></trkpt><trkpt lat="46.1257613" lon="13.6020478"><ele>587.0</ele><time>2026-05-02T09:44:06.266Z</time></trkpt><trkpt lat="46.1257949" lon="13.6019034"><ele>585.6</ele><time>2026-05-02T09:44:07.265Z</time></trkpt><trkpt lat="46.1257776" lon="13.6017862"><ele>584.2</ele><time>2026-05-02T09:44:08.265Z</time></trkpt><trkpt lat="46.1257072" lon="13.6016808"><ele>582.8</ele><time>2026-05-02T09:44:09.266Z</time></trkpt><trkpt lat="46.1256195" lon="13.6016116"><ele>581.4</ele><time>2026-05-02T09:44:10.265Z</time></trkpt><trkpt lat="46.12553" lon="13.6015253"><ele>580.0</ele><time>2026-05-02T09:44:11.266Z</time></trkpt><trkpt lat="46.1254802" lon="13.6014074"><ele>580.0</ele><time>2026-05-02T09:44:12.265Z</time></trkpt><trkpt lat="46.1254626" lon="13.6012551"><ele>580.0</ele><time>2026-05-02T09:44:13.265Z</time></trkpt><trkpt lat="46.1254702" lon="13.6011125"><ele>580.0</ele><time>2026-05-02T09:44:14.265Z</time></trkpt><trkpt lat="46.1255089" lon="13.60097"><ele>580.0</ele><time>2026-05-02T09:44:15.266Z</time></trkpt><trkpt lat="46.1255716" lon="13.6008242"><ele>580.0</ele><time>2026-05-02T09:44:16.266Z</time></trkpt><trkpt lat="46.1256372" lon="13.6006781"><ele>575.5</ele><time>2026-05-02T09:44:17.265Z</time></trkpt><trkpt lat="46.1257191" lon="13.6005099"><ele>571.0</ele><time>2026-05-02T09:44:18.265Z</time></trkpt><trkpt lat="46.1258001" lon="13.6003466"><ele>566.5</ele><time>2026-05-02T09:44:19.266Z</time></trkpt><trkpt lat="46.1258607" lon="13.6001823"><ele>562.0</ele><time>2026-05-02T09:44:20.265Z</time></trkpt><trkpt lat="46.1258954" lon="13.6000313"><ele>559.4</ele><time>2026-05-02T09:44:21.265Z</time></trkpt><trkpt lat="46.1258953" lon="13.5998938"><ele>556.8000000000001</ele><time>2026-05-02T09:44:22.266Z</time></trkpt><trkpt lat="46.1258659" lon="13.5997808"><ele>554.2</ele><time>2026-05-02T09:44:23.265Z</time></trkpt><trkpt lat="46.1257925" lon="13.5996886"><ele>551.6</ele><time>2026-05-02T09:44:24.266Z</time></trkpt><trkpt lat="46.1256954" lon="13.5996009"><ele>549.0</ele><time>2026-05-02T09:44:25.266Z</time></trkpt><trkpt lat="46.125619" lon="13.5994657"><ele>546.25</ele><time>2026-05-02T09:44:26.265Z</time></trkpt><trkpt lat="46.1255924" lon="13.5993308"><ele>543.5</ele><time>2026-05-02T09:44:27.266Z</time></trkpt><trkpt lat="46.1256172" lon="13.599162"><ele>540.75</ele><time>2026-05-02T09:44:28.266Z</time></trkpt><trkpt lat="46.1256489" lon="13.5989999"><ele>538.0</ele><time>2026-05-02T09:44:29.266Z</time></trkpt><trkpt lat="46.1256924" lon="13.5988066"><ele>536.0</ele><time>2026-05-02T09:44:30.265Z</time></trkpt><trkpt lat="46.1257153" lon="13.5985824"><ele>534.0</ele><time>2026-05-02T09:44:31.265Z</time></trkpt><trkpt lat="46.1257132" lon="13.5983978"><ele>532.0</ele><time>2026-05-02T09:44:32.265Z</time></trkpt><trkpt lat="46.1257129" lon="13.5982173"><ele>530.0</ele><time>2026-05-02T09:44:33.266Z</time></trkpt><trkpt lat="46.1257204" lon="13.5980339"><ele>530.0</ele><time>2026-05-02T09:44:34.265Z</time></trkpt><trkpt lat="46.1257259" lon="13.5978588"><ele>530.0</ele><time>2026-05-02T09:44:35.266Z</time></trkpt><trkpt lat="46.1257345" lon="13.5976754"><ele>530.0</ele><time>2026-05-02T09:44:36.265Z</time></trkpt><trkpt lat="46.1257406" lon="13.5974982"><ele>530.0</ele><time>2026-05-02T09:44:37.266Z</time></trkpt><trkpt lat="46.1257496" lon="13.5973239"><ele>527.75</ele><time>2026-05-02T09:44:38.266Z</time></trkpt><trkpt lat="46.1257708" lon="13.5971348"><ele>525.5</ele><time>2026-05-02T09:44:39.266Z</time></trkpt><trkpt lat="46.1257989" lon="13.59695"><ele>523.25</ele><time>2026-05-02T09:44:40.265Z</time></trkpt><trkpt lat="46.1258241" lon="13.5967583"><ele>521.0</ele><time>2026-05-02T09:44:41.265Z</time></trkpt><trkpt lat="46.1258543" lon="13.5965782"><ele>521.0</ele><time>2026-05-02T09:44:42.265Z</time></trkpt><trkpt lat="46.1258869" lon="13.5964016"><ele>521.0</ele><time>2026-05-02T09:44:43.265Z</time></trkpt><trkpt lat="46.1259248" lon="13.5962389"><ele>521.0</ele><time>2026-05-02T09:44:44.266Z</time></trkpt><trkpt lat="46.1259647" lon="13.5960898"><ele>521.0</ele><time>2026-05-02T09:44:45.265Z</time></trkpt><trkpt lat="46.1260094" lon="13.5959531"><ele>521.2</ele><time>2026-05-02T09:44:46.265Z</time></trkpt><trkpt lat="46.1260569" lon="13.5958068"><ele>521.4000000000001</ele><time>2026-05-02T09:44:47.266Z</time></trkpt><trkpt lat="46.1261022" lon="13.5956656"><ele>521.6</ele><time>2026-05-02T09:44:48.266Z</time></trkpt><trkpt lat="46.1261453" lon="13.595529"><ele>521.8000000000001</ele><time>2026-05-02T09:44:49.266Z</time></trkpt><trkpt lat="46.126189" lon="13.5954268"><ele>522.0</ele><time>2026-05-02T09:44:50.266Z</time></trkpt><trkpt lat="46.1262132" lon="13.5953378"><ele>522.0</ele><time>2026-05-02T09:44:51.265Z</time></trkpt><trkpt lat="46.1262338" lon="13.5952496"><ele>522.0</ele><time>2026-05-02T09:44:53.265Z</time></trkpt><trkpt lat="46.1262959" lon="13.595289"><ele>522.0</ele><time>2026-05-02T09:44:57.266Z</time></trkpt><trkpt lat="46.1262677" lon="13.5953961"><ele>522.0</ele><time>2026-05-02T09:44:59.266Z</time></trkpt><trkpt lat="46.1262227" lon="13.5955124"><ele>522.0</ele><time>2026-05-02T09:45:01.265Z</time></trkpt><trkpt lat="46.1262202" lon="13.5956852"><ele>522.0</ele><time>2026-05-02T09:45:03.266Z</time></trkpt><trkpt lat="46.1262343" lon="13.5958398"><ele>522.0</ele><time>2026-05-02T09:45:05.266Z</time></trkpt><trkpt lat="46.1262803" lon="13.5960024"><ele>522.0</ele><time>2026-05-02T09:45:07.265Z</time></trkpt><trkpt lat="46.126295" lon="13.5961711"><ele>522.0</ele><time>2026-05-02T09:45:09.266Z</time></trkpt><trkpt lat="46.1262978" lon="13.5962705"><ele>522.0</ele><time>2026-05-02T09:45:10.265Z</time></trkpt><trkpt lat="46.1263026" lon="13.5964471"><ele>522.0</ele><time>2026-05-02T09:45:12.266Z</time></trkpt><trkpt lat="46.1263104" lon="13.5965917"><ele>521.8571428571429</ele><time>2026-05-02T09:45:14.266Z</time></trkpt><trkpt lat="46.1263156" lon="13.5966915"><ele>521.7142857142857</ele><time>2026-05-02T09:45:16.266Z</time></trkpt><trkpt lat="46.1263332" lon="13.5967819"><ele>521.5714285714286</ele><time>2026-05-02T09:45:17.266Z</time></trkpt><trkpt lat="46.1263482" lon="13.5968712"><ele>521.4285714285714</ele><time>2026-05-02T09:45:18.265Z</time></trkpt><trkpt lat="46.1263527" lon="13.5969624"><ele>521.2857142857143</ele><time>2026-05-02T09:45:19.266Z</time></trkpt><trkpt lat="46.1263537" lon="13.5970579"><ele>521.1428571428571</ele><time>2026-05-02T09:45:20.265Z</time></trkpt><trkpt lat="46.126352" lon="13.5971574"><ele>521.0</ele><time>2026-05-02T09:45:21.266Z</time></trkpt><trkpt lat="46.126335" lon="13.5972477"><ele>521.0</ele><time>2026-05-02T09:45:22.266Z</time></trkpt><trkpt lat="46.1263052" lon="13.5974117"><ele>521.0</ele><time>2026-05-02T09:45:24.265Z</time></trkpt><trkpt lat="46.1262857" lon="13.5975828"><ele>521.0</ele><time>2026-05-02T09:45:26.266Z</time></trkpt><trkpt lat="46.1262863" lon="13.5977335"><ele>521.0</ele><time>2026-05-02T09:45:28.265Z</time></trkpt><trkpt lat="46.1262764" lon="13.5979039"><ele>522.0</ele><time>2026-05-02T09:45:30.266Z</time></trkpt><trkpt lat="46.1262885" lon="13.5980753"><ele>523.0</ele><time>2026-05-02T09:45:32.265Z</time></trkpt><trkpt lat="46.1263346" lon="13.598232"><ele>524.0</ele><time>2026-05-02T09:45:34.266Z</time></trkpt><trkpt lat="46.1263597" lon="13.5983179"><ele>525.0</ele><time>2026-05-02T09:45:35.265Z</time></trkpt><trkpt lat="46.1263818" lon="13.5984048"><ele>526.0</ele><time>2026-05-02T09:45:36.266Z</time></trkpt><trkpt lat="46.1264173" lon="13.5985651"><ele>528.0</ele><time>2026-05-02T09:45:38.266Z</time></trkpt><trkpt lat="46.1264414" lon="13.5986738"><ele>530.0</ele><time>2026-05-02T09:45:40.266Z</time></trkpt><trkpt lat="46.1265061" lon="13.5987606"><ele>532.0</ele><time>2026-05-02T09:45:42.266Z</time></trkpt><trkpt lat="46.1266005" lon="13.598831"><ele>534.0</ele><time>2026-05-02T09:45:44.265Z</time></trkpt><trkpt lat="46.1267056" lon="13.5988768"><ele>536.0</ele><time>2026-05-02T09:45:46.266Z</time></trkpt><trkpt lat="46.1268155" lon="13.5989071"><ele>531.2</ele><time>2026-05-02T09:45:48.266Z</time></trkpt><trkpt lat="46.1269209" lon="13.5989104"><ele>526.4000000000001</ele><time>2026-05-02T09:45:50.266Z</time></trkpt><trkpt lat="46.1270196" lon="13.5989599"><ele>521.6</ele><time>2026-05-02T09:45:52.265Z</time></trkpt><trkpt lat="46.1270965" lon="13.5990953"><ele>516.8000000000001</ele><time>2026-05-02T09:45:54.265Z</time></trkpt><trkpt lat="46.127134" lon="13.5991864"><ele>512.0</ele><time>2026-05-02T09:45:55.266Z</time></trkpt><trkpt lat="46.1271552" lon="13.5992775"><ele>511.99999999999994</ele><time>2026-05-02T09:45:56.265Z</time></trkpt><trkpt lat="46.127155" lon="13.5994477"><ele>512.0</ele><time>2026-05-02T09:45:58.265Z</time></trkpt><trkpt lat="46.1271539" lon="13.5995428"><ele>512.0</ele><time>2026-05-02T09:45:59.266Z</time></trkpt><trkpt lat="46.12714" lon="13.5996399"><ele>512.0</ele><time>2026-05-02T09:46:00.266Z</time></trkpt><trkpt lat="46.127114" lon="13.5997342"><ele>511.99999999999994</ele><time>2026-05-02T09:46:01.266Z</time></trkpt><trkpt lat="46.1270714" lon="13.5999036"><ele>512.0</ele><time>2026-05-02T09:46:03.266Z</time></trkpt><trkpt lat="46.1270385" lon="13.5999891"><ele>513.2</ele><time>2026-05-02T09:46:04.264Z</time></trkpt><trkpt lat="46.1270105" lon="13.60014"><ele>514.4000000000001</ele><time>2026-05-02T09:46:06.264Z</time></trkpt><trkpt lat="46.1269918" lon="13.6002732"><ele>515.5999999999999</ele><time>2026-05-02T09:46:08.265Z</time></trkpt><trkpt lat="46.1270604" lon="13.6003285"><ele>516.8</ele><time>2026-05-02T09:46:11.264Z</time></trkpt><trkpt lat="46.127181" lon="13.6002563"><ele>518.0</ele><time>2026-05-02T09:46:13.264Z</time></trkpt><trkpt lat="46.1272526" lon="13.6002095"><ele>518.0</ele><time>2026-05-02T09:46:14.264Z</time></trkpt><trkpt lat="46.1273273" lon="13.6001608"><ele>518.0</ele><time>2026-05-02T09:46:15.265Z</time></trkpt><trkpt lat="46.1274049" lon="13.6001268"><ele>518.0</ele><time>2026-05-02T09:46:16.264Z</time></trkpt><trkpt lat="46.1274832" lon="13.6000774"><ele>518.0</ele><time>2026-05-02T09:46:17.265Z</time></trkpt><trkpt lat="46.1275571" lon="13.6000485"><ele>518.0</ele><time>2026-05-02T09:46:18.264Z</time></trkpt><trkpt lat="46.1276297" lon="13.6000192"><ele>518.0</ele><time>2026-05-02T09:46:19.264Z</time></trkpt><trkpt lat="46.1277021" lon="13.599993"><ele>513.0</ele><time>2026-05-02T09:46:20.264Z</time></trkpt><trkpt lat="46.1277671" lon="13.5999769"><ele>507.99999999999994</ele><time>2026-05-02T09:46:21.264Z</time></trkpt><trkpt lat="46.1278822" lon="13.5999432"><ele>502.99999999999994</ele><time>2026-05-02T09:46:23.265Z</time></trkpt><trkpt lat="46.1279836" lon="13.5999321"><ele>498.0</ele><time>2026-05-02T09:46:25.264Z</time></trkpt><trkpt lat="46.1280687" lon="13.5999996"><ele>493.0</ele><time>2026-05-02T09:46:27.265Z</time></trkpt><trkpt lat="46.1281004" lon="13.6000915"><ele>493.00000000000006</ele><time>2026-05-02T09:46:29.265Z</time></trkpt><trkpt lat="46.1280749" lon="13.600248"><ele>493.0</ele><time>2026-05-02T09:46:31.264Z</time></trkpt><trkpt lat="46.1280418" lon="13.600368"><ele>493.0</ele><time>2026-05-02T09:46:32.264Z</time></trkpt><trkpt lat="46.1280057" lon="13.600491"><ele>493.0</ele><time>2026-05-02T09:46:33.264Z</time></trkpt><trkpt lat="46.1279805" lon="13.6006004"><ele>493.00000000000006</ele><time>2026-05-02T09:46:34.264Z</time></trkpt><trkpt lat="46.1279483" lon="13.6006907"><ele>493.0</ele><time>2026-05-02T09:46:35.265Z</time></trkpt><trkpt lat="46.1279196" lon="13.6007879"><ele>494.50000000000006</ele><time>2026-05-02T09:46:36.265Z</time></trkpt><trkpt lat="46.1278966" lon="13.600885"><ele>496.0</ele><time>2026-05-02T09:46:37.265Z</time></trkpt><trkpt lat="46.127874" lon="13.6009808"><ele>497.5</ele><time>2026-05-02T09:46:38.264Z</time></trkpt><trkpt lat="46.1278452" lon="13.6010694"><ele>499.0</ele><time>2026-05-02T09:46:39.265Z</time></trkpt><trkpt lat="46.1278235" lon="13.601159"><ele>500.50000000000006</ele><time>2026-05-02T09:46:40.265Z</time></trkpt><trkpt lat="46.1277825" lon="13.6013091"><ele>502.0</ele><time>2026-05-02T09:46:42.264Z</time></trkpt><trkpt lat="46.1277832" lon="13.6014658"><ele>502.00000000000006</ele><time>2026-05-02T09:46:44.264Z</time></trkpt><trkpt lat="46.1277692" lon="13.6015704"><ele>502.0</ele><time>2026-05-02T09:46:45.265Z</time></trkpt><trkpt lat="46.1277697" lon="13.6016633"><ele>502.0</ele><time>2026-05-02T09:46:46.264Z</time></trkpt><trkpt lat="46.1277794" lon="13.6017575"><ele>502.0</ele><time>2026-05-02T09:46:47.265Z</time></trkpt><trkpt lat="46.1277854" lon="13.6019246"><ele>502.00000000000006</ele><time>2026-05-02T09:46:49.264Z</time></trkpt><trkpt lat="46.1277386" lon="13.6020647"><ele>502.0</ele><time>2026-05-02T09:46:51.265Z</time></trkpt><trkpt lat="46.1276969" lon="13.6021427"><ele>502.33333333333337</ele><time>2026-05-02T09:46:52.265Z</time></trkpt><trkpt lat="46.1276656" lon="13.6022608"><ele>502.6666666666667</ele><time>2026-05-02T09:46:54.265Z</time></trkpt><trkpt lat="46.1277289" lon="13.6022994"><ele>503.0</ele><time>2026-05-02T09:46:58.265Z</time></trkpt><trkpt lat="46.1278232" lon="13.6023191"><ele>503.33333333333337</ele><time>2026-05-02T09:47:00.265Z</time></trkpt><trkpt lat="46.127923" lon="13.6023483"><ele>503.6666666666667</ele><time>2026-05-02T09:47:02.264Z</time></trkpt><trkpt lat="46.1279928" lon="13.6023727"><ele>504.0</ele><time>2026-05-02T09:47:03.265Z</time></trkpt><trkpt lat="46.1280565" lon="13.6023975"><ele>504.0</ele><time>2026-05-02T09:47:04.264Z</time></trkpt><trkpt lat="46.1281256" lon="13.6024396"><ele>504.0</ele><time>2026-05-02T09:47:05.265Z</time></trkpt><trkpt lat="46.1282473" lon="13.6024874"><ele>504.0</ele><time>2026-05-02T09:47:07.264Z</time></trkpt><trkpt lat="46.1283123" lon="13.6025066"><ele>504.0</ele><time>2026-05-02T09:47:08.265Z</time></trkpt><trkpt lat="46.1284248" lon="13.6025405"><ele>504.0</ele><time>2026-05-02T09:47:10.265Z</time></trkpt><trkpt lat="46.1284899" lon="13.6025606"><ele>504.0</ele><time>2026-05-02T09:47:11.265Z</time></trkpt><trkpt lat="46.1285998" lon="13.6025779"><ele>500.2</ele><time>2026-05-02T09:47:13.264Z</time></trkpt><trkpt lat="46.1287147" lon="13.6025587"><ele>496.4</ele><time>2026-05-02T09:47:15.265Z</time></trkpt><trkpt lat="46.1288339" lon="13.6025283"><ele>492.6</ele><time>2026-05-02T09:47:17.264Z</time></trkpt><trkpt lat="46.1289509" lon="13.6025355"><ele>488.8</ele><time>2026-05-02T09:47:19.265Z</time></trkpt><trkpt lat="46.129023" lon="13.6025531"><ele>485.0</ele><time>2026-05-02T09:47:20.265Z</time></trkpt><trkpt lat="46.1290865" lon="13.6025614"><ele>483.66666666666663</ele><time>2026-05-02T09:47:21.264Z</time></trkpt><trkpt lat="46.1291886" lon="13.6025994"><ele>482.3333333333333</ele><time>2026-05-02T09:47:23.264Z</time></trkpt><trkpt lat="46.1292307" lon="13.6026693"><ele>481.0</ele><time>2026-05-02T09:47:24.264Z</time></trkpt><trkpt lat="46.1292928" lon="13.602798"><ele>479.66666666666663</ele><time>2026-05-02T09:47:26.265Z</time></trkpt><trkpt lat="46.1293784" lon="13.602859"><ele>478.3333333333333</ele><time>2026-05-02T09:47:28.265Z</time></trkpt><trkpt lat="46.1294374" lon="13.6029014"><ele>477.0</ele><time>2026-05-02T09:47:29.264Z</time></trkpt><trkpt lat="46.1295461" lon="13.6029656"><ele>478.40000000000003</ele><time>2026-05-02T09:47:31.265Z</time></trkpt><trkpt lat="46.1296405" lon="13.6030129"><ele>479.80000000000007</ele><time>2026-05-02T09:47:33.264Z</time></trkpt><trkpt lat="46.1297385" lon="13.6030584"><ele>481.2</ele><time>2026-05-02T09:47:35.265Z</time></trkpt><trkpt lat="46.1298081" lon="13.6030725"><ele>482.6</ele><time>2026-05-02T09:47:36.264Z</time></trkpt><trkpt lat="46.1298769" lon="13.6030893"><ele>484.0</ele><time>2026-05-02T09:47:37.264Z</time></trkpt><trkpt lat="46.1299864" lon="13.6031409"><ele>484.0</ele><time>2026-05-02T09:47:39.264Z</time></trkpt><trkpt lat="46.1300826" lon="13.603208"><ele>484.0</ele><time>2026-05-02T09:47:41.265Z</time></trkpt><trkpt lat="46.1301639" lon="13.6033296"><ele>484.0</ele><time>2026-05-02T09:47:43.265Z</time></trkpt><trkpt lat="46.1301983" lon="13.6034832"><ele>484.0</ele><time>2026-05-02T09:47:45.264Z</time></trkpt><trkpt lat="46.1301895" lon="13.6035834"><ele>484.0</ele><time>2026-05-02T09:47:46.264Z</time></trkpt><trkpt lat="46.1301636" lon="13.6037084"><ele>484.0</ele><time>2026-05-02T09:47:47.264Z</time></trkpt><trkpt lat="46.1301208" lon="13.603863"><ele>484.0</ele><time>2026-05-02T09:47:48.265Z</time></trkpt><trkpt lat="46.1300794" lon="13.604008"><ele>484.0</ele><time>2026-05-02T09:47:49.265Z</time></trkpt><trkpt lat="46.1300398" lon="13.6041381"><ele>484.0</ele><time>2026-05-02T09:47:50.264Z</time></trkpt><trkpt lat="46.1300033" lon="13.6042624"><ele>484.0</ele><time>2026-05-02T09:47:51.265Z</time></trkpt><trkpt lat="46.1299727" lon="13.6043703"><ele>484.00000000000006</ele><time>2026-05-02T09:47:52.265Z</time></trkpt><trkpt lat="46.1299526" lon="13.6044695"><ele>484.0</ele><time>2026-05-02T09:47:53.264Z</time></trkpt><trkpt lat="46.1299318" lon="13.60458"><ele>484.0</ele><time>2026-05-02T09:47:54.265Z</time></trkpt><trkpt lat="46.1298936" lon="13.6047394"><ele>484.0</ele><time>2026-05-02T09:47:56.265Z</time></trkpt><trkpt lat="46.12987" lon="13.6048239"><ele>484.00000000000006</ele><time>2026-05-02T09:47:57.265Z</time></trkpt><trkpt lat="46.1298443" lon="13.604908"><ele>484.0</ele><time>2026-05-02T09:47:58.264Z</time></trkpt><trkpt lat="46.1297993" lon="13.6050522"><ele>487.6666666666667</ele><time>2026-05-02T09:48:00.264Z</time></trkpt><trkpt lat="46.129743" lon="13.6051752"><ele>491.33333333333337</ele><time>2026-05-02T09:48:02.265Z</time></trkpt><trkpt lat="46.1297086" lon="13.605279"><ele>495.0</ele><time>2026-05-02T09:48:04.265Z</time></trkpt><trkpt lat="46.1296654" lon="13.6053889"><ele>498.66666666666663</ele><time>2026-05-02T09:48:05.264Z</time></trkpt><trkpt lat="46.129626" lon="13.6054721"><ele>502.3333333333333</ele><time>2026-05-02T09:48:06.264Z</time></trkpt><trkpt lat="46.1295977" lon="13.6055552"><ele>506.0</ele><time>2026-05-02T09:48:07.264Z</time></trkpt><trkpt lat="46.1295673" lon="13.6056544"><ele>506.0</ele><time>2026-05-02T09:48:08.264Z</time></trkpt><trkpt lat="46.1295307" lon="13.6057552"><ele>506.0</ele><time>2026-05-02T09:48:09.265Z</time></trkpt><trkpt lat="46.1294853" lon="13.605882"><ele>506.0</ele><time>2026-05-02T09:48:11.265Z</time></trkpt><trkpt lat="46.129442" lon="13.6060323"><ele>506.0</ele><time>2026-05-02T09:48:13.264Z</time></trkpt><trkpt lat="46.1294089" lon="13.6062294"><ele>506.0</ele><time>2026-05-02T09:48:15.265Z</time></trkpt><trkpt lat="46.1293937" lon="13.6064008"><ele>503.3333333333333</ele><time>2026-05-02T09:48:17.264Z</time></trkpt><trkpt lat="46.1293946" lon="13.6065004"><ele>500.66666666666663</ele><time>2026-05-02T09:48:18.265Z</time></trkpt><trkpt lat="46.1293865" lon="13.6065909"><ele>498.0</ele><time>2026-05-02T09:48:19.264Z</time></trkpt><trkpt lat="46.1293767" lon="13.6067411"><ele>495.33333333333337</ele><time>2026-05-02T09:48:21.264Z</time></trkpt><trkpt lat="46.1293606" lon="13.6069006"><ele>492.6666666666667</ele><time>2026-05-02T09:48:23.265Z</time></trkpt><trkpt lat="46.1293208" lon="13.6069986"><ele>490.0</ele><time>2026-05-02T09:48:24.265Z</time></trkpt><trkpt lat="46.129288" lon="13.6071045"><ele>490.00000000000006</ele><time>2026-05-02T09:48:25.264Z</time></trkpt><trkpt lat="46.129254" lon="13.6071829"><ele>490.0</ele><time>2026-05-02T09:48:26.264Z</time></trkpt><trkpt lat="46.1292307" lon="13.6072816"><ele>490.0</ele><time>2026-05-02T09:48:27.265Z</time></trkpt><trkpt lat="46.1291793" lon="13.607418"><ele>490.0</ele><time>2026-05-02T09:48:29.265Z</time></trkpt><trkpt lat="46.1291616" lon="13.607506"><ele>490.00000000000006</ele><time>2026-05-02T09:48:30.264Z</time></trkpt><trkpt lat="46.129164" lon="13.60766"><ele>490.0</ele><time>2026-05-02T09:48:32.265Z</time></trkpt><trkpt lat="46.1291863" lon="13.6077544"><ele>490.0</ele><time>2026-05-02T09:48:34.264Z</time></trkpt><trkpt lat="46.1292685" lon="13.607757"><ele>490.0</ele><time>2026-05-02T09:48:37.264Z</time></trkpt><trkpt lat="46.1293564" lon="13.6077234"><ele>490.0</ele><time>2026-05-02T09:48:39.264Z</time></trkpt><trkpt lat="46.1294262" lon="13.6076822"><ele>490.0</ele><time>2026-05-02T09:48:40.264Z</time></trkpt><trkpt lat="46.1294834" lon="13.6076389"><ele>490.0</ele><time>2026-05-02T09:48:41.264Z</time></trkpt><trkpt lat="46.1295525" lon="13.6076264"><ele>490.0</ele><time>2026-05-02T09:48:42.265Z</time></trkpt><trkpt lat="46.1296163" lon="13.6076051"><ele>490.0</ele><time>2026-05-02T09:48:43.264Z</time></trkpt><trkpt lat="46.1296897" lon="13.6075919"><ele>490.0</ele><time>2026-05-02T09:48:44.265Z</time></trkpt><trkpt lat="46.1297548" lon="13.6075879"><ele>490.0</ele><time>2026-05-02T09:48:45.264Z</time></trkpt><trkpt lat="46.1298648" lon="13.6076076"><ele>490.0</ele><time>2026-05-02T09:48:47.264Z</time></trkpt><trkpt lat="46.1299404" lon="13.6076378"><ele>490.0</ele><time>2026-05-02T09:48:49.265Z</time></trkpt><trkpt lat="46.1300597" lon="13.6076753"><ele>490.0</ele><time>2026-05-02T09:48:51.265Z</time></trkpt><trkpt lat="46.1301647" lon="13.607714"><ele>491.4</ele><time>2026-05-02T09:48:53.265Z</time></trkpt><trkpt lat="46.1302535" lon="13.6077741"><ele>492.8</ele><time>2026-05-02T09:48:55.265Z</time></trkpt><trkpt lat="46.1303118" lon="13.6079164"><ele>494.20000000000005</ele><time>2026-05-02T09:48:57.264Z</time></trkpt><trkpt lat="46.1303126" lon="13.6080431"><ele>495.6</ele><time>2026-05-02T09:48:58.264Z</time></trkpt><trkpt lat="46.1303214" lon="13.6081833"><ele>497.0</ele><time>2026-05-02T09:48:59.264Z</time></trkpt><trkpt lat="46.130323" lon="13.6083056"><ele>497.0</ele><time>2026-05-02T09:49:00.264Z</time></trkpt><trkpt lat="46.1303053" lon="13.6084228"><ele>497.0</ele><time>2026-05-02T09:49:01.264Z</time></trkpt><trkpt lat="46.1302822" lon="13.6085181"><ele>497.0</ele><time>2026-05-02T09:49:02.264Z</time></trkpt><trkpt lat="46.1302677" lon="13.6086264"><ele>497.0</ele><time>2026-05-02T09:49:03.264Z</time></trkpt><trkpt lat="46.1302468" lon="13.6087206"><ele>497.0</ele><time>2026-05-02T09:49:04.265Z</time></trkpt><trkpt lat="46.1302311" lon="13.6088143"><ele>497.0</ele><time>2026-05-02T09:49:05.264Z</time></trkpt><trkpt lat="46.1302154" lon="13.6089101"><ele>497.0</ele><time>2026-05-02T09:49:06.264Z</time></trkpt><trkpt lat="46.1301758" lon="13.6090613"><ele>498.6</ele><time>2026-05-02T09:49:08.265Z</time></trkpt><trkpt lat="46.1301186" lon="13.6091999"><ele>500.20000000000005</ele><time>2026-05-02T09:49:10.265Z</time></trkpt><trkpt lat="46.1301085" lon="13.6093127"><ele>501.8</ele><time>2026-05-02T09:49:12.265Z</time></trkpt><trkpt lat="46.1301508" lon="13.6094072"><ele>503.4</ele><time>2026-05-02T09:49:14.264Z</time></trkpt><trkpt lat="46.1302206" lon="13.6094089"><ele>505.0</ele><time>2026-05-02T09:49:16.265Z</time></trkpt><trkpt lat="46.1303374" lon="13.6093809"><ele>505.0</ele><time>2026-05-02T09:49:18.265Z</time></trkpt><trkpt lat="46.130429" lon="13.6093754"><ele>505.0</ele><time>2026-05-02T09:49:19.265Z</time></trkpt><trkpt lat="46.130496" lon="13.6093618"><ele>505.0</ele><time>2026-05-02T09:49:20.264Z</time></trkpt><trkpt lat="46.1306096" lon="13.6093234"><ele>505.0</ele><time>2026-05-02T09:49:22.264Z</time></trkpt><trkpt lat="46.1307243" lon="13.6093163"><ele>505.0</ele><time>2026-05-02T09:49:24.264Z</time></trkpt><trkpt lat="46.1307887" lon="13.6093039"><ele>507.1666666666667</ele><time>2026-05-02T09:49:25.265Z</time></trkpt><trkpt lat="46.1308874" lon="13.6093396"><ele>509.33333333333337</ele><time>2026-05-02T09:49:27.265Z</time></trkpt><trkpt lat="46.1309347" lon="13.6093998"><ele>511.5</ele><time>2026-05-02T09:49:28.264Z</time></trkpt><trkpt lat="46.1309836" lon="13.60946"><ele>513.6666666666666</ele><time>2026-05-02T09:49:29.264Z</time></trkpt><trkpt lat="46.1310718" lon="13.6095067"><ele>515.8333333333333</ele><time>2026-05-02T09:49:31.264Z</time></trkpt><trkpt lat="46.1311623" lon="13.6094916"><ele>518.0</ele><time>2026-05-02T09:49:33.265Z</time></trkpt><trkpt lat="46.131229" lon="13.6094158"><ele>511.0</ele><time>2026-05-02T09:49:35.265Z</time></trkpt><trkpt lat="46.1312819" lon="13.6092633"><ele>503.99999999999994</ele><time>2026-05-02T09:49:37.265Z</time></trkpt><trkpt lat="46.1312939" lon="13.6091712"><ele>496.99999999999994</ele><time>2026-05-02T09:49:38.265Z</time></trkpt><trkpt lat="46.1313037" lon="13.6090752"><ele>490.0</ele><time>2026-05-02T09:49:39.265Z</time></trkpt><trkpt lat="46.1313407" lon="13.6089083"><ele>483.0</ele><time>2026-05-02T09:49:41.265Z</time></trkpt><trkpt lat="46.1314226" lon="13.6087504"><ele>483.0</ele><time>2026-05-02T09:49:43.264Z</time></trkpt><trkpt lat="46.1314713" lon="13.6086816"><ele>482.99999999999994</ele><time>2026-05-02T09:49:44.264Z</time></trkpt><trkpt lat="46.1315438" lon="13.6085712"><ele>482.99999999999994</ele><time>2026-05-02T09:49:46.264Z</time></trkpt><trkpt lat="46.1315877" lon="13.6084995"><ele>483.0</ele><time>2026-05-02T09:49:47.265Z</time></trkpt><trkpt lat="46.1316691" lon="13.6084064"><ele>483.0</ele><time>2026-05-02T09:49:49.265Z</time></trkpt><trkpt lat="46.1317215" lon="13.6082537"><ele>483.4</ele><time>2026-05-02T09:49:50.265Z</time></trkpt><trkpt lat="46.1317705" lon="13.6081222"><ele>483.79999999999995</ele><time>2026-05-02T09:49:51.265Z</time></trkpt><trkpt lat="46.1318048" lon="13.6079857"><ele>484.2</ele><time>2026-05-02T09:49:52.265Z</time></trkpt><trkpt lat="46.1318418" lon="13.6078553"><ele>484.6</ele><time>2026-05-02T09:49:53.265Z</time></trkpt><trkpt lat="46.1318746" lon="13.6077528"><ele>485.0</ele><time>2026-05-02T09:49:54.264Z</time></trkpt><trkpt lat="46.1319045" lon="13.6076599"><ele>480.0</ele><time>2026-05-02T09:49:55.264Z</time></trkpt><trkpt lat="46.1319462" lon="13.6075578"><ele>475.0</ele><time>2026-05-02T09:49:56.264Z</time></trkpt><trkpt lat="46.1320357" lon="13.6074357"><ele>470.0</ele><time>2026-05-02T09:49:58.264Z</time></trkpt><trkpt lat="46.1321242" lon="13.607391"><ele>465.0</ele><time>2026-05-02T09:50:00.264Z</time></trkpt><trkpt lat="46.1322149" lon="13.607401"><ele>460.0</ele><time>2026-05-02T09:50:02.265Z</time></trkpt><trkpt lat="46.1323349" lon="13.6074798"><ele>467.4</ele><time>2026-05-02T09:50:04.264Z</time></trkpt><trkpt lat="46.1324031" lon="13.6075243"><ele>474.8</ele><time>2026-05-02T09:50:05.265Z</time></trkpt><trkpt lat="46.132503" lon="13.6075503"><ele>482.20000000000005</ele><time>2026-05-02T09:50:07.265Z</time></trkpt><trkpt lat="46.1325887" lon="13.6074932"><ele>489.6</ele><time>2026-05-02T09:50:09.264Z</time></trkpt><trkpt lat="46.1326675" lon="13.6073455"><ele>497.0</ele><time>2026-05-02T09:50:11.265Z</time></trkpt><trkpt lat="46.1327087" lon="13.6072166"><ele>497.0</ele><time>2026-05-02T09:50:12.265Z</time></trkpt><trkpt lat="46.1327645" lon="13.6070935"><ele>497.00000000000006</ele><time>2026-05-02T09:50:13.264Z</time></trkpt><trkpt lat="46.1328104" lon="13.6069729"><ele>497.00000000000006</ele><time>2026-05-02T09:50:14.265Z</time></trkpt><trkpt lat="46.1328535" lon="13.6068787"><ele>497.0</ele><time>2026-05-02T09:50:15.265Z</time></trkpt><trkpt lat="46.132929" lon="13.6067479"><ele>497.0</ele><time>2026-05-02T09:50:17.265Z</time></trkpt><trkpt lat="46.1330141" lon="13.6066955"><ele>494.8333333333333</ele><time>2026-05-02T09:50:19.265Z</time></trkpt><trkpt lat="46.1331151" lon="13.6067012"><ele>492.66666666666663</ele><time>2026-05-02T09:50:21.264Z</time></trkpt><trkpt lat="46.1331816" lon="13.6067283"><ele>490.5</ele><time>2026-05-02T09:50:22.265Z</time></trkpt><trkpt lat="46.133252" lon="13.6067524"><ele>488.33333333333337</ele><time>2026-05-02T09:50:23.264Z</time></trkpt><trkpt lat="46.1333271" lon="13.6067608"><ele>486.1666666666667</ele><time>2026-05-02T09:50:24.265Z</time></trkpt><trkpt lat="46.1334062" lon="13.6067694"><ele>484.0</ele><time>2026-05-02T09:50:25.265Z</time></trkpt><trkpt lat="46.1334776" lon="13.6067764"><ele>484.0</ele><time>2026-05-02T09:50:26.264Z</time></trkpt><trkpt lat="46.1336017" lon="13.6068171"><ele>484.0</ele><time>2026-05-02T09:50:28.264Z</time></trkpt><trkpt lat="46.1337131" lon="13.606856"><ele>484.0</ele><time>2026-05-02T09:50:30.265Z</time></trkpt><trkpt lat="46.1338059" lon="13.6068869"><ele>484.0</ele><time>2026-05-02T09:50:32.264Z</time></trkpt><trkpt lat="46.1339258" lon="13.6069066"><ele>484.00000000000006</ele><time>2026-05-02T09:50:34.264Z</time></trkpt><trkpt lat="46.1340077" lon="13.6069338"><ele>484.0</ele><time>2026-05-02T09:50:35.264Z</time></trkpt><trkpt lat="46.1340864" lon="13.6069597"><ele>484.0</ele><time>2026-05-02T09:50:36.265Z</time></trkpt><trkpt lat="46.1341685" lon="13.6069805"><ele>484.0</ele><time>2026-05-02T09:50:37.264Z</time></trkpt><trkpt lat="46.1342433" lon="13.6069835"><ele>484.00000000000006</ele><time>2026-05-02T09:50:38.265Z</time></trkpt><trkpt lat="46.134308" lon="13.6069869"><ele>484.0</ele><time>2026-05-02T09:50:39.264Z</time></trkpt><trkpt lat="46.1344197" lon="13.6070186"><ele>490.6</ele><time>2026-05-02T09:50:41.265Z</time></trkpt><trkpt lat="46.1345273" lon="13.6070907"><ele>497.2</ele><time>2026-05-02T09:50:43.265Z</time></trkpt><trkpt lat="46.1346264" lon="13.6071638"><ele>503.80000000000007</ele><time>2026-05-02T09:50:45.265Z</time></trkpt><trkpt lat="46.1346735" lon="13.6072253"><ele>510.40000000000003</ele><time>2026-05-02T09:50:46.264Z</time></trkpt><trkpt lat="46.13472" lon="13.6073596"><ele>517.0</ele><time>2026-05-02T09:50:48.264Z</time></trkpt><trkpt lat="46.1348055" lon="13.6074291"><ele>512.6</ele><time>2026-05-02T09:50:50.265Z</time></trkpt><trkpt lat="46.1349275" lon="13.6074511"><ele>508.20000000000005</ele><time>2026-05-02T09:50:52.265Z</time></trkpt><trkpt lat="46.1349957" lon="13.6074663"><ele>503.8</ele><time>2026-05-02T09:50:53.264Z</time></trkpt><trkpt lat="46.1350978" lon="13.6075531"><ele>499.4</ele><time>2026-05-02T09:50:55.264Z</time></trkpt><trkpt lat="46.1351649" lon="13.6076818"><ele>495.0</ele><time>2026-05-02T09:50:57.265Z</time></trkpt><trkpt lat="46.1352183" lon="13.6077682"><ele>500.6666666666667</ele><time>2026-05-02T09:50:58.264Z</time></trkpt><trkpt lat="46.1352776" lon="13.6078372"><ele>506.33333333333337</ele><time>2026-05-02T09:50:59.264Z</time></trkpt><trkpt lat="46.1353278" lon="13.6078971"><ele>512.0</ele><time>2026-05-02T09:51:00.265Z</time></trkpt><trkpt lat="46.1354139" lon="13.607999"><ele>517.6666666666667</ele><time>2026-05-02T09:51:02.264Z</time></trkpt><trkpt lat="46.1354976" lon="13.608123"><ele>523.3333333333334</ele><time>2026-05-02T09:51:04.264Z</time></trkpt><trkpt lat="46.135555" lon="13.6081817"><ele>529.0</ele><time>2026-05-02T09:51:05.264Z</time></trkpt><trkpt lat="46.1356198" lon="13.6082407"><ele>529.0</ele><time>2026-05-02T09:51:07.264Z</time></trkpt><trkpt lat="46.1356935" lon="13.6082553"><ele>529.0</ele><time>2026-05-02T09:51:09.265Z</time></trkpt><trkpt lat="46.1358129" lon="13.6083174"><ele>529.0</ele><time>2026-05-02T09:51:11.265Z</time></trkpt><trkpt lat="46.135866" lon="13.6084226"><ele>529.0</ele><time>2026-05-02T09:51:13.265Z</time></trkpt><trkpt lat="46.1359121" lon="13.6085651"><ele>529.0</ele><time>2026-05-02T09:51:15.265Z</time></trkpt><trkpt lat="46.1359022" lon="13.6087367"><ele>530.3333333333334</ele><time>2026-05-02T09:51:17.265Z</time></trkpt><trkpt lat="46.1358528" lon="13.6089057"><ele>531.6666666666667</ele><time>2026-05-02T09:51:19.264Z</time></trkpt><trkpt lat="46.1358191" lon="13.6090117"><ele>533.0</ele><time>2026-05-02T09:51:20.265Z</time></trkpt><trkpt lat="46.1357818" lon="13.6091162"><ele>534.3333333333334</ele><time>2026-05-02T09:51:21.264Z</time></trkpt><trkpt lat="46.1357466" lon="13.6092168"><ele>535.6666666666666</ele><time>2026-05-02T09:51:22.264Z</time></trkpt><trkpt lat="46.1357144" lon="13.6093104"><ele>537.0</ele><time>2026-05-02T09:51:23.264Z</time></trkpt><trkpt lat="46.1356823" lon="13.6094143"><ele>536.0</ele><time>2026-05-02T09:51:24.265Z</time></trkpt><trkpt lat="46.135633" lon="13.6095696"><ele>535.0</ele><time>2026-05-02T09:51:26.264Z</time></trkpt><trkpt lat="46.1355972" lon="13.6096464"><ele>534.0</ele><time>2026-05-02T09:51:27.264Z</time></trkpt><trkpt lat="46.135559" lon="13.6097312"><ele>533.0</ele><time>2026-05-02T09:51:28.264Z</time></trkpt><trkpt lat="46.1355369" lon="13.6098583"><ele>532.0</ele><time>2026-05-02T09:51:29.264Z</time></trkpt><trkpt lat="46.1355273" lon="13.6099578"><ele>531.0</ele><time>2026-05-02T09:51:30.265Z</time></trkpt><trkpt lat="46.1355185" lon="13.6100542"><ele>531.0</ele><time>2026-05-02T09:51:31.264Z</time></trkpt><trkpt lat="46.1355039" lon="13.6101993"><ele>531.0</ele><time>2026-05-02T09:51:33.265Z</time></trkpt><trkpt lat="46.1355349" lon="13.6102948"><ele>531.0</ele><time>2026-05-02T09:51:36.265Z</time></trkpt><trkpt lat="46.1356205" lon="13.6103481"><ele>531.0</ele><time>2026-05-02T09:51:40.264Z</time></trkpt><trkpt lat="46.1357452" lon="13.6104204"><ele>531.0</ele><time>2026-05-02T09:51:42.264Z</time></trkpt><trkpt lat="46.1358036" lon="13.6104597"><ele>526.8</ele><time>2026-05-02T09:51:43.264Z</time></trkpt><trkpt lat="46.1358573" lon="13.6105086"><ele>522.6</ele><time>2026-05-02T09:51:44.265Z</time></trkpt><trkpt lat="46.1359357" lon="13.6106157"><ele>518.4</ele><time>2026-05-02T09:51:46.265Z</time></trkpt><trkpt lat="46.1359829" lon="13.6107806"><ele>514.2</ele><time>2026-05-02T09:51:48.265Z</time></trkpt><trkpt lat="46.1359946" lon="13.6109436"><ele>510.0</ele><time>2026-05-02T09:51:50.264Z</time></trkpt><trkpt lat="46.1359896" lon="13.611094"><ele>511.2</ele><time>2026-05-02T09:51:52.264Z</time></trkpt><trkpt lat="46.1359848" lon="13.6112322"><ele>512.4</ele><time>2026-05-02T09:51:54.265Z</time></trkpt><trkpt lat="46.1360012" lon="13.6113819"><ele>513.6</ele><time>2026-05-02T09:51:56.265Z</time></trkpt><trkpt lat="46.1360779" lon="13.6114875"><ele>514.8</ele><time>2026-05-02T09:51:58.264Z</time></trkpt><trkpt lat="46.1361354" lon="13.6116116"><ele>516.0</ele><time>2026-05-02T09:52:00.264Z</time></trkpt><trkpt lat="46.1361257" lon="13.6117507"><ele>516.0</ele><time>2026-05-02T09:52:02.265Z</time></trkpt><trkpt lat="46.1360779" lon="13.6118191"><ele>516.0</ele><time>2026-05-02T09:52:03.264Z</time></trkpt><trkpt lat="46.1360194" lon="13.6119005"><ele>516.0</ele><time>2026-05-02T09:52:04.265Z</time></trkpt><trkpt lat="46.1359516" lon="13.6119654"><ele>516.0</ele><time>2026-05-02T09:52:05.264Z</time></trkpt><trkpt lat="46.1358942" lon="13.6120291"><ele>516.0</ele><time>2026-05-02T09:52:06.265Z</time></trkpt><trkpt lat="46.1358455" lon="13.612097"><ele>516.0</ele><time>2026-05-02T09:52:07.264Z</time></trkpt><trkpt lat="46.1357739" lon="13.6122172"><ele>516.8333333333334</ele><time>2026-05-02T09:52:09.265Z</time></trkpt><trkpt lat="46.1357363" lon="13.6123459"><ele>517.6666666666666</ele><time>2026-05-02T09:52:11.264Z</time></trkpt><trkpt lat="46.1357754" lon="13.6124444"><ele>518.5</ele><time>2026-05-02T09:52:14.264Z</time></trkpt><trkpt lat="46.1358887" lon="13.6124525"><ele>519.3333333333333</ele><time>2026-05-02T09:52:16.265Z</time></trkpt><trkpt lat="46.1359668" lon="13.6124895"><ele>520.1666666666666</ele><time>2026-05-02T09:52:17.265Z</time></trkpt><trkpt lat="46.1360373" lon="13.612527"><ele>521.0</ele><time>2026-05-02T09:52:18.264Z</time></trkpt><trkpt lat="46.1361088" lon="13.6125663"><ele>521.0</ele><time>2026-05-02T09:52:19.265Z</time></trkpt><trkpt lat="46.1362166" lon="13.6126417"><ele>521.0</ele><time>2026-05-02T09:52:21.265Z</time></trkpt><trkpt lat="46.1362679" lon="13.6127026"><ele>521.0</ele><time>2026-05-02T09:52:22.265Z</time></trkpt><trkpt lat="46.1363204" lon="13.6127681"><ele>521.0</ele><time>2026-05-02T09:52:23.265Z</time></trkpt><trkpt lat="46.1363706" lon="13.6129188"><ele>521.0</ele><time>2026-05-02T09:52:25.264Z</time></trkpt><trkpt lat="46.1363843" lon="13.6130994"><ele>520.5</ele><time>2026-05-02T09:52:27.265Z</time></trkpt><trkpt lat="46.1363771" lon="13.613199"><ele>520.0</ele><time>2026-05-02T09:52:28.264Z</time></trkpt><trkpt lat="46.1363694" lon="13.613296"><ele>519.5</ele><time>2026-05-02T09:52:29.265Z</time></trkpt><trkpt lat="46.1363703" lon="13.6134377"><ele>519.0</ele><time>2026-05-02T09:52:31.264Z</time></trkpt><trkpt lat="46.1364254" lon="13.6135041"><ele>518.5</ele><time>2026-05-02T09:52:34.265Z</time></trkpt><trkpt lat="46.1364989" lon="13.6134792"><ele>518.0</ele><time>2026-05-02T09:52:36.264Z</time></trkpt><trkpt lat="46.1365718" lon="13.613421"><ele>518.0</ele><time>2026-05-02T09:52:38.264Z</time></trkpt><trkpt lat="46.1366616" lon="13.6132986"><ele>518.0</ele><time>2026-05-02T09:52:40.264Z</time></trkpt><trkpt lat="46.1367069" lon="13.6132131"><ele>518.0</ele><time>2026-05-02T09:52:41.265Z</time></trkpt><trkpt lat="46.1367482" lon="13.6131294"><ele>518.0</ele><time>2026-05-02T09:52:42.265Z</time></trkpt><trkpt lat="46.1367919" lon="13.6130427"><ele>518.0</ele><time>2026-05-02T09:52:43.265Z</time></trkpt><trkpt lat="46.1368382" lon="13.6128893"><ele>515.0</ele><time>2026-05-02T09:52:45.265Z</time></trkpt><trkpt lat="46.1368811" lon="13.6127075"><ele>511.99999999999994</ele><time>2026-05-02T09:52:47.264Z</time></trkpt><trkpt lat="46.1369052" lon="13.6126121"><ele>508.99999999999994</ele><time>2026-05-02T09:52:48.265Z</time></trkpt><trkpt lat="46.1369583" lon="13.6124679"><ele>506.0</ele><time>2026-05-02T09:52:50.264Z</time></trkpt><trkpt lat="46.1370125" lon="13.6123936"><ele>503.0</ele><time>2026-05-02T09:52:51.264Z</time></trkpt><trkpt lat="46.1370679" lon="13.6123253"><ele>503.0</ele><time>2026-05-02T09:52:52.264Z</time></trkpt><trkpt lat="46.1371272" lon="13.6122786"><ele>502.99999999999994</ele><time>2026-05-02T09:52:53.265Z</time></trkpt><trkpt lat="46.1371812" lon="13.612204"><ele>502.99999999999994</ele><time>2026-05-02T09:52:54.264Z</time></trkpt><trkpt lat="46.1372904" lon="13.6121324"><ele>503.0</ele><time>2026-05-02T09:52:56.264Z</time></trkpt><trkpt lat="46.1373731" lon="13.6120628"><ele>503.0</ele><time>2026-05-02T09:52:58.265Z</time></trkpt><trkpt lat="46.1373895" lon="13.611903"><ele>500.8333333333333</ele><time>2026-05-02T09:53:00.265Z</time></trkpt><trkpt lat="46.1373652" lon="13.6117977"><ele>498.66666666666663</ele><time>2026-05-02T09:53:01.265Z</time></trkpt><trkpt lat="46.1373519" lon="13.6116984"><ele>496.5</ele><time>2026-05-02T09:53:02.265Z</time></trkpt><trkpt lat="46.1373354" lon="13.6116061"><ele>494.33333333333337</ele><time>2026-05-02T09:53:03.264Z</time></trkpt><trkpt lat="46.1373019" lon="13.6114182"><ele>492.1666666666667</ele><time>2026-05-02T09:53:05.264Z</time></trkpt><trkpt lat="46.1372941" lon="13.6113048"><ele>490.0</ele><time>2026-05-02T09:53:06.264Z</time></trkpt><trkpt lat="46.1372813" lon="13.6112069"><ele>487.33333333333337</ele><time>2026-05-02T09:53:07.265Z</time></trkpt><trkpt lat="46.1372653" lon="13.6111042"><ele>484.6666666666667</ele><time>2026-05-02T09:53:08.265Z</time></trkpt><trkpt lat="46.1372572" lon="13.6110002"><ele>482.0</ele><time>2026-05-02T09:53:09.265Z</time></trkpt><trkpt lat="46.1372527" lon="13.6108783"><ele>479.33333333333337</ele><time>2026-05-02T09:53:10.265Z</time></trkpt><trkpt lat="46.1372517" lon="13.6107795"><ele>476.6666666666667</ele><time>2026-05-02T09:53:11.264Z</time></trkpt><trkpt lat="46.1372573" lon="13.6106113"><ele>474.0</ele><time>2026-05-02T09:53:13.264Z</time></trkpt><trkpt lat="46.1372727" lon="13.610489"><ele>474.0</ele><time>2026-05-02T09:53:15.264Z</time></trkpt><trkpt lat="46.1372985" lon="13.6103465"><ele>474.0</ele><time>2026-05-02T09:53:18.265Z</time></trkpt><trkpt lat="46.1373302" lon="13.6102386"><ele>474.0</ele><time>2026-05-02T09:53:19.264Z</time></trkpt><trkpt lat="46.1373745" lon="13.6101331"><ele>474.0</ele><time>2026-05-02T09:53:20.265Z</time></trkpt><trkpt lat="46.137422" lon="13.6100394"><ele>474.0</ele><time>2026-05-02T09:53:21.265Z</time></trkpt><trkpt lat="46.1374669" lon="13.6099647"><ele>474.0</ele><time>2026-05-02T09:53:22.265Z</time></trkpt><trkpt lat="46.1375142" lon="13.6098771"><ele>476.0</ele><time>2026-05-02T09:53:23.264Z</time></trkpt><trkpt lat="46.1376087" lon="13.6097998"><ele>478.0</ele><time>2026-05-02T09:53:25.264Z</time></trkpt><trkpt lat="46.1376613" lon="13.6097406"><ele>480.0</ele><time>2026-05-02T09:53:26.265Z</time></trkpt><trkpt lat="46.1377245" lon="13.6096493"><ele>482.0</ele><time>2026-05-02T09:53:27.264Z</time></trkpt><trkpt lat="46.1378084" lon="13.6095399"><ele>484.0</ele><time>2026-05-02T09:53:29.264Z</time></trkpt><trkpt lat="46.1378826" lon="13.6094301"><ele>486.00000000000006</ele><time>2026-05-02T09:53:31.264Z</time></trkpt><trkpt lat="46.1379315" lon="13.6093338"><ele>488.0</ele><time>2026-05-02T09:53:32.265Z</time></trkpt><trkpt lat="46.1379692" lon="13.6092408"><ele>490.0</ele><time>2026-05-02T09:53:33.265Z</time></trkpt><trkpt lat="46.1380103" lon="13.6091568"><ele>492.0</ele><time>2026-05-02T09:53:34.265Z</time></trkpt><trkpt lat="46.138049" lon="13.6090636"><ele>494.00000000000006</ele><time>2026-05-02T09:53:35.264Z</time></trkpt><trkpt lat="46.1381339" lon="13.608957"><ele>496.0</ele><time>2026-05-02T09:53:37.264Z</time></trkpt><trkpt lat="46.1382213" lon="13.6089871"><ele>496.00000000000006</ele><time>2026-05-02T09:53:39.265Z</time></trkpt><trkpt lat="46.1383144" lon="13.6090519"><ele>496.0</ele><time>2026-05-02T09:53:41.264Z</time></trkpt><trkpt lat="46.138397" lon="13.6091376"><ele>496.0</ele><time>2026-05-02T09:53:43.265Z</time></trkpt><trkpt lat="46.1384489" lon="13.6092061"><ele>496.0</ele><time>2026-05-02T09:53:44.265Z</time></trkpt><trkpt lat="46.138513" lon="13.6092778"><ele>496.00000000000006</ele><time>2026-05-02T09:53:45.264Z</time></trkpt><trkpt lat="46.1385777" lon="13.6093456"><ele>496.0</ele><time>2026-05-02T09:53:46.264Z</time></trkpt><trkpt lat="46.1386534" lon="13.6094072"><ele>496.00000000000006</ele><time>2026-05-02T09:53:47.264Z</time></trkpt><trkpt lat="46.1387277" lon="13.6094625"><ele>496.0</ele><time>2026-05-02T09:53:48.265Z</time></trkpt><trkpt lat="46.1387918" lon="13.6095313"><ele>496.0</ele><time>2026-05-02T09:53:49.264Z</time></trkpt><trkpt lat="46.1388479" lon="13.6095927"><ele>496.0</ele><time>2026-05-02T09:53:50.265Z</time></trkpt><trkpt lat="46.1389186" lon="13.6096564"><ele>496.00000000000006</ele><time>2026-05-02T09:53:51.265Z</time></trkpt><trkpt lat="46.1389772" lon="13.6097149"><ele>496.0</ele><time>2026-05-02T09:53:52.265Z</time></trkpt><trkpt lat="46.139046" lon="13.6098385"><ele>496.83333333333337</ele><time>2026-05-02T09:53:54.264Z</time></trkpt><trkpt lat="46.139107" lon="13.6099307"><ele>497.6666666666667</ele><time>2026-05-02T09:53:56.265Z</time></trkpt><trkpt lat="46.1391166" lon="13.6100573"><ele>498.5</ele><time>2026-05-02T09:53:58.265Z</time></trkpt><trkpt lat="46.1391056" lon="13.6102217"><ele>499.33333333333337</ele><time>2026-05-02T09:54:00.264Z</time></trkpt><trkpt lat="46.1391035" lon="13.6103139"><ele>500.1666666666667</ele><time>2026-05-02T09:54:01.264Z</time></trkpt><trkpt lat="46.1390896" lon="13.6104063"><ele>501.0</ele><time>2026-05-02T09:54:02.264Z</time></trkpt><trkpt lat="46.1390841" lon="13.6105743"><ele>502.4</ele><time>2026-05-02T09:54:04.264Z</time></trkpt><trkpt lat="46.1390845" lon="13.6107244"><ele>503.8</ele><time>2026-05-02T09:54:06.265Z</time></trkpt><trkpt lat="46.1390683" lon="13.6108767"><ele>505.19999999999993</ele><time>2026-05-02T09:54:08.265Z</time></trkpt><trkpt lat="46.139048" lon="13.6110129"><ele>506.59999999999997</ele><time>2026-05-02T09:54:10.265Z</time></trkpt><trkpt lat="46.1390418" lon="13.6111435"><ele>508.0</ele><time>2026-05-02T09:54:12.265Z</time></trkpt><trkpt lat="46.1390568" lon="13.6112713"><ele>511.33333333333337</ele><time>2026-05-02T09:54:14.264Z</time></trkpt><trkpt lat="46.1391234" lon="13.6113802"><ele>514.6666666666667</ele><time>2026-05-02T09:54:16.265Z</time></trkpt><trkpt lat="46.1392007" lon="13.611425"><ele>518.0</ele><time>2026-05-02T09:54:18.264Z</time></trkpt><trkpt lat="46.1392736" lon="13.6114539"><ele>521.3333333333334</ele><time>2026-05-02T09:54:19.264Z</time></trkpt><trkpt lat="46.1393533" lon="13.6114939"><ele>524.6666666666666</ele><time>2026-05-02T09:54:20.264Z</time></trkpt><trkpt lat="46.1394189" lon="13.6115166"><ele>528.0</ele><time>2026-05-02T09:54:21.265Z</time></trkpt><trkpt lat="46.1394837" lon="13.6115078"><ele>528.0</ele><time>2026-05-02T09:54:22.265Z</time></trkpt><trkpt lat="46.1395937" lon="13.6114875"><ele>528.0</ele><time>2026-05-02T09:54:24.265Z</time></trkpt><trkpt lat="46.1396854" lon="13.6114915"><ele>528.0</ele><time>2026-05-02T09:54:25.264Z</time></trkpt><trkpt lat="46.1397513" lon="13.6115026"><ele>528.0</ele><time>2026-05-02T09:54:26.265Z</time></trkpt><trkpt lat="46.1398588" lon="13.6115381"><ele>528.0</ele><time>2026-05-02T09:54:28.265Z</time></trkpt><trkpt lat="46.1399443" lon="13.6116692"><ele>529.0</ele><time>2026-05-02T09:54:30.265Z</time></trkpt><trkpt lat="46.1399875" lon="13.6118554"><ele>530.0</ele><time>2026-05-02T09:54:32.264Z</time></trkpt><trkpt lat="46.1400097" lon="13.6119554"><ele>531.0</ele><time>2026-05-02T09:54:33.265Z</time></trkpt><trkpt lat="46.1400583" lon="13.6121024"><ele>532.0</ele><time>2026-05-02T09:54:35.264Z</time></trkpt><trkpt lat="46.1401024" lon="13.612246"><ele>533.0</ele><time>2026-05-02T09:54:37.264Z</time></trkpt><trkpt lat="46.1401458" lon="13.6123859"><ele>533.0</ele><time>2026-05-02T09:54:39.265Z</time></trkpt><trkpt lat="46.1401923" lon="13.6125085"><ele>533.0</ele><time>2026-05-02T09:54:41.265Z</time></trkpt><trkpt lat="46.1402375" lon="13.6126858"><ele>533.0</ele><time>2026-05-02T09:54:43.264Z</time></trkpt><trkpt lat="46.1402503" lon="13.6128127"><ele>533.0</ele><time>2026-05-02T09:54:45.264Z</time></trkpt><trkpt lat="46.140279" lon="13.6129089"><ele>533.0</ele><time>2026-05-02T09:54:47.264Z</time></trkpt><trkpt lat="46.1403624" lon="13.6130221"><ele>535.5</ele><time>2026-05-02T09:54:49.264Z</time></trkpt><trkpt lat="46.1404299" lon="13.6131178"><ele>538.0</ele><time>2026-05-02T09:54:50.265Z</time></trkpt><trkpt lat="46.1404599" lon="13.6132118"><ele>540.5</ele><time>2026-05-02T09:54:51.264Z</time></trkpt><trkpt lat="46.1404945" lon="13.6133173"><ele>543.0</ele><time>2026-05-02T09:54:52.264Z</time></trkpt><trkpt lat="46.1405264" lon="13.613432"><ele>545.5</ele><time>2026-05-02T09:54:53.265Z</time></trkpt><trkpt lat="46.1405509" lon="13.6135495"><ele>548.0</ele><time>2026-05-02T09:54:54.264Z</time></trkpt><trkpt lat="46.140569" lon="13.6136769"><ele>549.8571428571429</ele><time>2026-05-02T09:54:55.264Z</time></trkpt><trkpt lat="46.1405749" lon="13.6137832"><ele>551.7142857142858</ele><time>2026-05-02T09:54:56.265Z</time></trkpt><trkpt lat="46.1405599" lon="13.6139228"><ele>553.5714285714286</ele><time>2026-05-02T09:54:58.264Z</time></trkpt><trkpt lat="46.1404927" lon="13.6139207"><ele>555.4285714285714</ele><time>2026-05-02T09:55:00.264Z</time></trkpt><trkpt lat="46.1404455" lon="13.6138573"><ele>557.2857142857142</ele><time>2026-05-02T09:55:01.265Z</time></trkpt><trkpt lat="46.1403998" lon="13.6137837"><ele>559.1428571428571</ele><time>2026-05-02T09:55:02.265Z</time></trkpt><trkpt lat="46.1403542" lon="13.6137114"><ele>561.0</ele><time>2026-05-02T09:55:03.265Z</time></trkpt><trkpt lat="46.1402727" lon="13.6136848"><ele>561.0</ele><time>2026-05-02T09:55:05.265Z</time></trkpt><trkpt lat="46.1402392" lon="13.6138131"><ele>561.0</ele><time>2026-05-02T09:55:07.264Z</time></trkpt><trkpt lat="46.1402488" lon="13.6139202"><ele>561.0</ele><time>2026-05-02T09:55:09.264Z</time></trkpt><trkpt lat="46.1402881" lon="13.6140001"><ele>561.0</ele><time>2026-05-02T09:55:10.265Z</time></trkpt><trkpt lat="46.1403348" lon="13.6140949"><ele>561.0</ele><time>2026-05-02T09:55:11.264Z</time></trkpt><trkpt lat="46.1403865" lon="13.614206"><ele>561.0</ele><time>2026-05-02T09:55:12.265Z</time></trkpt><trkpt lat="46.1404152" lon="13.6143187"><ele>561.0</ele><time>2026-05-02T09:55:13.265Z</time></trkpt><trkpt lat="46.1404293" lon="13.6144413"><ele>561.0</ele><time>2026-05-02T09:55:14.264Z</time></trkpt><trkpt lat="46.1404347" lon="13.6145558"><ele>561.0</ele><time>2026-05-02T09:55:15.265Z</time></trkpt><trkpt lat="46.1404297" lon="13.6146495"><ele>561.0</ele><time>2026-05-02T09:55:16.265Z</time></trkpt><trkpt lat="46.1404237" lon="13.6147614"><ele>561.0</ele><time>2026-05-02T09:55:18.265Z</time></trkpt><trkpt lat="46.1403676" lon="13.6148077"><ele>561.0</ele><time>2026-05-02T09:55:20.265Z</time></trkpt><trkpt lat="46.1402875" lon="13.6147501"><ele>561.0</ele><time>2026-05-02T09:55:22.265Z</time></trkpt><trkpt lat="46.1401778" lon="13.6146511"><ele>561.0</ele><time>2026-05-02T09:55:24.264Z</time></trkpt><trkpt lat="46.1401255" lon="13.6145909"><ele>561.0</ele><time>2026-05-02T09:55:25.264Z</time></trkpt><trkpt lat="46.1400751" lon="13.6145219"><ele>561.0</ele><time>2026-05-02T09:55:26.264Z</time></trkpt><trkpt lat="46.1400271" lon="13.6144462"><ele>561.0</ele><time>2026-05-02T09:55:27.265Z</time></trkpt><trkpt lat="46.1399689" lon="13.6143608"><ele>561.0</ele><time>2026-05-02T09:55:28.265Z</time></trkpt><trkpt lat="46.1399207" lon="13.6142731"><ele>564.8333333333334</ele><time>2026-05-02T09:55:29.264Z</time></trkpt><trkpt lat="46.1398688" lon="13.6142027"><ele>568.6666666666666</ele><time>2026-05-02T09:55:30.264Z</time></trkpt><trkpt lat="46.1398255" lon="13.6141298"><ele>572.5</ele><time>2026-05-02T09:55:31.265Z</time></trkpt><trkpt lat="46.1397908" lon="13.6140455"><ele>576.3333333333333</ele><time>2026-05-02T09:55:32.264Z</time></trkpt><trkpt lat="46.1397312" lon="13.6139195"><ele>580.1666666666666</ele><time>2026-05-02T09:55:34.265Z</time></trkpt><trkpt lat="46.1396406" lon="13.6138228"><ele>584.0</ele><time>2026-05-02T09:55:36.264Z</time></trkpt><trkpt lat="46.139528" lon="13.6137918"><ele>584.0</ele><time>2026-05-02T09:55:38.265Z</time></trkpt><trkpt lat="46.1394264" lon="13.6137244"><ele>584.0</ele><time>2026-05-02T09:55:40.265Z</time></trkpt><trkpt lat="46.1393471" lon="13.6136203"><ele>584.0</ele><time>2026-05-02T09:55:42.265Z</time></trkpt><trkpt lat="46.1392725" lon="13.6135204"><ele>584.0</ele><time>2026-05-02T09:55:44.264Z</time></trkpt><trkpt lat="46.1392323" lon="13.6134466"><ele>584.0</ele><time>2026-05-02T09:55:46.264Z</time></trkpt><trkpt lat="46.1391525" lon="13.6134224"><ele>581.6</ele><time>2026-05-02T09:55:54.264Z</time></trkpt><trkpt lat="46.1390846" lon="13.6135115"><ele>579.2</ele><time>2026-05-02T09:55:56.264Z</time></trkpt><trkpt lat="46.1389926" lon="13.6135771"><ele>576.8000000000001</ele><time>2026-05-02T09:55:58.265Z</time></trkpt><trkpt lat="46.1389111" lon="13.6136857"><ele>574.4</ele><time>2026-05-02T09:56:00.265Z</time></trkpt><trkpt lat="46.1388453" lon="13.6138212"><ele>572.0</ele><time>2026-05-02T09:56:02.264Z</time></trkpt><trkpt lat="46.1387818" lon="13.6139655"><ele>572.0</ele><time>2026-05-02T09:56:04.265Z</time></trkpt><trkpt lat="46.1386969" lon="13.6141243"><ele>572.0</ele><time>2026-05-02T09:56:06.265Z</time></trkpt><trkpt lat="46.138626" lon="13.6142175"><ele>572.0</ele><time>2026-05-02T09:56:07.265Z</time></trkpt><trkpt lat="46.1385362" lon="13.6143141"><ele>572.0</ele><time>2026-05-02T09:56:08.264Z</time></trkpt><trkpt lat="46.1384413" lon="13.6143894"><ele>572.0</ele><time>2026-05-02T09:56:09.264Z</time></trkpt><trkpt lat="46.1383454" lon="13.6144373"><ele>572.0</ele><time>2026-05-02T09:56:10.265Z</time></trkpt><trkpt lat="46.1382489" lon="13.6144507"><ele>572.0</ele><time>2026-05-02T09:56:11.264Z</time></trkpt><trkpt lat="46.1381529" lon="13.6144554"><ele>572.0</ele><time>2026-05-02T09:56:12.264Z</time></trkpt><trkpt lat="46.1380605" lon="13.614465"><ele>572.0</ele><time>2026-05-02T09:56:13.264Z</time></trkpt><trkpt lat="46.1379762" lon="13.6144715"><ele>571.8000000000001</ele><time>2026-05-02T09:56:14.264Z</time></trkpt><trkpt lat="46.1379082" lon="13.614489"><ele>571.6</ele><time>2026-05-02T09:56:15.264Z</time></trkpt><trkpt lat="46.137811" lon="13.6145549"><ele>571.4000000000001</ele><time>2026-05-02T09:56:17.265Z</time></trkpt><trkpt lat="46.1377632" lon="13.6146345"><ele>571.2</ele><time>2026-05-02T09:56:18.265Z</time></trkpt><trkpt lat="46.1377082" lon="13.6147252"><ele>571.0</ele><time>2026-05-02T09:56:19.265Z</time></trkpt><trkpt lat="46.1376541" lon="13.6149032"><ele>571.0</ele><time>2026-05-02T09:56:20.265Z</time></trkpt><trkpt lat="46.1376022" lon="13.6150862"><ele>571.0</ele><time>2026-05-02T09:56:21.264Z</time></trkpt><trkpt lat="46.1375738" lon="13.6152686"><ele>571.0</ele><time>2026-05-02T09:56:22.264Z</time></trkpt><trkpt lat="46.1375686" lon="13.6154495"><ele>571.0</ele><time>2026-05-02T09:56:23.264Z</time></trkpt><trkpt lat="46.1375559" lon="13.6155905"><ele>574.8</ele><time>2026-05-02T09:56:24.265Z</time></trkpt><trkpt lat="46.1375217" lon="13.6157223"><ele>578.6</ele><time>2026-05-02T09:56:25.264Z</time></trkpt><trkpt lat="46.1374707" lon="13.6158367"><ele>582.4</ele><time>2026-05-02T09:56:26.264Z</time></trkpt><trkpt lat="46.137379" lon="13.6159216"><ele>586.2</ele><time>2026-05-02T09:56:27.265Z</time></trkpt><trkpt lat="46.1372681" lon="13.6160019"><ele>590.0</ele><time>2026-05-02T09:56:28.264Z</time></trkpt><trkpt lat="46.1371394" lon="13.6160661"><ele>590.0</ele><time>2026-05-02T09:56:29.264Z</time></trkpt><trkpt lat="46.1370151" lon="13.6161323"><ele>590.0</ele><time>2026-05-02T09:56:30.265Z</time></trkpt><trkpt lat="46.1368879" lon="13.6161775"><ele>590.0</ele><time>2026-05-02T09:56:31.265Z</time></trkpt><trkpt lat="46.1367641" lon="13.6161963"><ele>590.0</ele><time>2026-05-02T09:56:32.265Z</time></trkpt><trkpt lat="46.1366312" lon="13.6161817"><ele>592.5</ele><time>2026-05-02T09:56:33.264Z</time></trkpt><trkpt lat="46.1365033" lon="13.6161585"><ele>595.0</ele><time>2026-05-02T09:56:34.265Z</time></trkpt><trkpt lat="46.1363771" lon="13.6161202"><ele>597.5</ele><time>2026-05-02T09:56:35.265Z</time></trkpt><trkpt lat="46.1362701" lon="13.6160703"><ele>600.0</ele><time>2026-05-02T09:56:36.264Z</time></trkpt><trkpt lat="46.1361688" lon="13.6160133"><ele>600.0</ele><time>2026-05-02T09:56:37.265Z</time></trkpt><trkpt lat="46.1360858" lon="13.6159774"><ele>600.0</ele><time>2026-05-02T09:56:38.264Z</time></trkpt><trkpt lat="46.1360233" lon="13.6159553"><ele>600.0</ele><time>2026-05-02T09:56:39.264Z</time></trkpt><trkpt lat="46.1359537" lon="13.6159798"><ele>600.0</ele><time>2026-05-02T09:56:42.265Z</time></trkpt><trkpt lat="46.1360598" lon="13.616048"><ele>600.0</ele><time>2026-05-02T09:56:44.265Z</time></trkpt><trkpt lat="46.1361613" lon="13.6160992"><ele>600.0</ele><time>2026-05-02T09:56:45.264Z</time></trkpt><trkpt lat="46.1362766" lon="13.616164"><ele>605.5</ele><time>2026-05-02T09:56:46.265Z</time></trkpt><trkpt lat="46.1364029" lon="13.6162347"><ele>611.0</ele><time>2026-05-02T09:56:47.264Z</time></trkpt><trkpt lat="46.13653" lon="13.6163019"><ele>616.5</ele><time>2026-05-02T09:56:48.265Z</time></trkpt><trkpt lat="46.1366753" lon="13.6163502"><ele>622.0</ele><time>2026-05-02T09:56:49.265Z</time></trkpt><trkpt lat="46.13683" lon="13.6163596"><ele>622.0</ele><time>2026-05-02T09:56:50.264Z</time></trkpt><trkpt lat="46.1369949" lon="13.6163674"><ele>622.0</ele><time>2026-05-02T09:56:51.264Z</time></trkpt><trkpt lat="46.1371593" lon="13.6163443"><ele>622.0</ele><time>2026-05-02T09:56:52.265Z</time></trkpt><trkpt lat="46.1373141" lon="13.6162851"><ele>623.5</ele><time>2026-05-02T09:56:53.264Z</time></trkpt><trkpt lat="46.1374651" lon="13.6162124"><ele>625.0</ele><time>2026-05-02T09:56:54.264Z</time></trkpt><trkpt lat="46.1375945" lon="13.6161448"><ele>626.5</ele><time>2026-05-02T09:56:55.265Z</time></trkpt><trkpt lat="46.1376924" lon="13.6160559"><ele>628.0</ele><time>2026-05-02T09:56:56.264Z</time></trkpt><trkpt lat="46.1377737" lon="13.6159386"><ele>619.75</ele><time>2026-05-02T09:56:57.264Z</time></trkpt><trkpt lat="46.1378381" lon="13.6157903"><ele>611.5</ele><time>2026-05-02T09:56:58.265Z</time></trkpt><trkpt lat="46.1379125" lon="13.61563"><ele>603.25</ele><time>2026-05-02T09:56:59.265Z</time></trkpt><trkpt lat="46.137979" lon="13.6154721"><ele>595.0</ele><time>2026-05-02T09:57:00.265Z</time></trkpt><trkpt lat="46.1380329" lon="13.6153211"><ele>596.2</ele><time>2026-05-02T09:57:01.264Z</time></trkpt><trkpt lat="46.1380846" lon="13.6152002"><ele>597.4</ele><time>2026-05-02T09:57:02.265Z</time></trkpt><trkpt lat="46.1381478" lon="13.6151116"><ele>598.6</ele><time>2026-05-02T09:57:03.265Z</time></trkpt><trkpt lat="46.1382586" lon="13.6150767"><ele>599.8</ele><time>2026-05-02T09:57:04.264Z</time></trkpt><trkpt lat="46.1383779" lon="13.6150593"><ele>601.0</ele><time>2026-05-02T09:57:05.264Z</time></trkpt><trkpt lat="46.1385048" lon="13.6150645"><ele>601.0</ele><time>2026-05-02T09:57:06.265Z</time></trkpt><trkpt lat="46.1386399" lon="13.6150723"><ele>601.0</ele><time>2026-05-02T09:57:07.265Z</time></trkpt><trkpt lat="46.1387706" lon="13.6150622"><ele>601.0</ele><time>2026-05-02T09:57:08.265Z</time></trkpt><trkpt lat="46.1388934" lon="13.6150425"><ele>601.0</ele><time>2026-05-02T09:57:09.264Z</time></trkpt><trkpt lat="46.1389999" lon="13.6150039"><ele>601.0</ele><time>2026-05-02T09:57:10.265Z</time></trkpt><trkpt lat="46.139099" lon="13.614969"><ele>601.0</ele><time>2026-05-02T09:57:11.265Z</time></trkpt><trkpt lat="46.1391919" lon="13.6149707"><ele>601.0</ele><time>2026-05-02T09:57:12.265Z</time></trkpt><trkpt lat="46.1392612" lon="13.6150337"><ele>601.0</ele><time>2026-05-02T09:57:13.264Z</time></trkpt><trkpt lat="46.1393072" lon="13.6151528"><ele>601.0</ele><time>2026-05-02T09:57:14.265Z</time></trkpt><trkpt lat="46.1393311" lon="13.6153046"><ele>603.0</ele><time>2026-05-02T09:57:15.264Z</time></trkpt><trkpt lat="46.1393494" lon="13.615477"><ele>605.0</ele><time>2026-05-02T09:57:16.265Z</time></trkpt><trkpt lat="46.1393291" lon="13.6156806"><ele>607.0</ele><time>2026-05-02T09:57:17.264Z</time></trkpt><trkpt lat="46.1393134" lon="13.6158925"><ele>609.0</ele><time>2026-05-02T09:57:18.265Z</time></trkpt><trkpt lat="46.1393349" lon="13.6161059"><ele>610.8</ele><time>2026-05-02T09:57:19.264Z</time></trkpt><trkpt lat="46.1393807" lon="13.6163041"><ele>612.5999999999999</ele><time>2026-05-02T09:57:20.264Z</time></trkpt><trkpt lat="46.1394234" lon="13.6164717"><ele>614.4</ele><time>2026-05-02T09:57:21.265Z</time></trkpt><trkpt lat="46.1394673" lon="13.6165834"><ele>616.1999999999999</ele><time>2026-05-02T09:57:22.265Z</time></trkpt><trkpt lat="46.1395436" lon="13.6166474"><ele>618.0</ele><time>2026-05-02T09:57:23.265Z</time></trkpt><trkpt lat="46.1396435" lon="13.6166332"><ele>618.0</ele><time>2026-05-02T09:57:24.265Z</time></trkpt><trkpt lat="46.1397447" lon="13.6165941"><ele>618.0</ele><time>2026-05-02T09:57:25.264Z</time></trkpt><trkpt lat="46.1398675" lon="13.6165644"><ele>618.0</ele><time>2026-05-02T09:57:26.264Z</time></trkpt><trkpt lat="46.1399972" lon="13.6165514"><ele>618.0</ele><time>2026-05-02T09:57:27.264Z</time></trkpt><trkpt lat="46.1401196" lon="13.6165495"><ele>619.1999999999999</ele><time>2026-05-02T09:57:28.265Z</time></trkpt><trkpt lat="46.1402252" lon="13.6165709"><ele>620.4</ele><time>2026-05-02T09:57:29.264Z</time></trkpt><trkpt lat="46.1403174" lon="13.6166337"><ele>621.5999999999999</ele><time>2026-05-02T09:57:30.265Z</time></trkpt><trkpt lat="46.1403988" lon="13.6167231"><ele>622.8</ele><time>2026-05-02T09:57:31.264Z</time></trkpt><trkpt lat="46.1404672" lon="13.6168352"><ele>624.0</ele><time>2026-05-02T09:57:32.264Z</time></trkpt><trkpt lat="46.1405442" lon="13.6169935"><ele>624.0</ele><time>2026-05-02T09:57:33.264Z</time></trkpt><trkpt lat="46.1406063" lon="13.6171603"><ele>624.0</ele><time>2026-05-02T09:57:34.265Z</time></trkpt><trkpt lat="46.1406511" lon="13.6173085"><ele>624.0</ele><time>2026-05-02T09:57:35.264Z</time></trkpt><trkpt lat="46.1406841" lon="13.6174272"><ele>624.0</ele><time>2026-05-02T09:57:36.265Z</time></trkpt><trkpt lat="46.1407973" lon="13.6174616"><ele>624.0</ele><time>2026-05-02T09:57:38.265Z</time></trkpt><trkpt lat="46.1408691" lon="13.6173858"><ele>622.2</ele><time>2026-05-02T09:57:39.264Z</time></trkpt><trkpt lat="46.1409173" lon="13.6172626"><ele>620.4</ele><time>2026-05-02T09:57:40.264Z</time></trkpt><trkpt lat="46.140971" lon="13.617137"><ele>618.6</ele><time>2026-05-02T09:57:41.265Z</time></trkpt><trkpt lat="46.1410512" lon="13.617045"><ele>616.8</ele><time>2026-05-02T09:57:42.264Z</time></trkpt><trkpt lat="46.1411615" lon="13.6169947"><ele>615.0</ele><time>2026-05-02T09:57:43.264Z</time></trkpt><trkpt lat="46.1412704" lon="13.6169872"><ele>615.0</ele><time>2026-05-02T09:57:44.265Z</time></trkpt><trkpt lat="46.1413796" lon="13.6170182"><ele>615.0</ele><time>2026-05-02T09:57:45.265Z</time></trkpt><trkpt lat="46.1414767" lon="13.6170526"><ele>615.0</ele><time>2026-05-02T09:57:46.265Z</time></trkpt><trkpt lat="46.1415785" lon="13.6170359"><ele>615.0</ele><time>2026-05-02T09:57:47.265Z</time></trkpt><trkpt lat="46.1416507" lon="13.6169654"><ele>615.0</ele><time>2026-05-02T09:57:48.264Z</time></trkpt><trkpt lat="46.1416977" lon="13.6168552"><ele>612.5</ele><time>2026-05-02T09:57:49.264Z</time></trkpt><trkpt lat="46.1417359" lon="13.6167146"><ele>610.0</ele><time>2026-05-02T09:57:50.265Z</time></trkpt><trkpt lat="46.1417862" lon="13.616553"><ele>607.5</ele><time>2026-05-02T09:57:51.264Z</time></trkpt><trkpt lat="46.1418337" lon="13.6163826"><ele>605.0</ele><time>2026-05-02T09:57:52.264Z</time></trkpt><trkpt lat="46.1418858" lon="13.6162286"><ele>602.5</ele><time>2026-05-02T09:57:53.265Z</time></trkpt><trkpt lat="46.1419325" lon="13.6160927"><ele>600.0</ele><time>2026-05-02T09:57:54.265Z</time></trkpt><trkpt lat="46.142008" lon="13.6159804"><ele>597.5</ele><time>2026-05-02T09:57:55.264Z</time></trkpt><trkpt lat="46.1421006" lon="13.6158757"><ele>595.0</ele><time>2026-05-02T09:57:56.264Z</time></trkpt><trkpt lat="46.1422118" lon="13.61579"><ele>595.0</ele><time>2026-05-02T09:57:57.265Z</time></trkpt><trkpt lat="46.1423366" lon="13.6157061"><ele>595.0</ele><time>2026-05-02T09:57:58.264Z</time></trkpt><trkpt lat="46.1424715" lon="13.6156132"><ele>595.0</ele><time>2026-05-02T09:57:59.264Z</time></trkpt><trkpt lat="46.1426074" lon="13.6154973"><ele>595.0</ele><time>2026-05-02T09:58:00.265Z</time></trkpt><trkpt lat="46.1427394" lon="13.6153829"><ele>594.2</ele><time>2026-05-02T09:58:01.264Z</time></trkpt><trkpt lat="46.1428585" lon="13.6152931"><ele>593.4</ele><time>2026-05-02T09:58:02.264Z</time></trkpt><trkpt lat="46.1429605" lon="13.6152468"><ele>592.6</ele><time>2026-05-02T09:58:03.264Z</time></trkpt><trkpt lat="46.14304" lon="13.61526"><ele>591.8</ele><time>2026-05-02T09:58:04.264Z</time></trkpt><trkpt lat="46.1431041" lon="13.6153043"><ele>591.0</ele><time>2026-05-02T09:58:05.265Z</time></trkpt><trkpt lat="46.1431579" lon="13.6153685"><ele>594.4</ele><time>2026-05-02T09:58:06.264Z</time></trkpt><trkpt lat="46.1432068" lon="13.6154341"><ele>597.8</ele><time>2026-05-02T09:58:07.265Z</time></trkpt><trkpt lat="46.1432473" lon="13.6155363"><ele>601.1999999999999</ele><time>2026-05-02T09:58:08.265Z</time></trkpt><trkpt lat="46.1432584" lon="13.615669"><ele>604.6</ele><time>2026-05-02T09:58:09.264Z</time></trkpt><trkpt lat="46.1432375" lon="13.6158328"><ele>608.0</ele><time>2026-05-02T09:58:10.265Z</time></trkpt><trkpt lat="46.143217" lon="13.6159968"><ele>608.75</ele><time>2026-05-02T09:58:11.265Z</time></trkpt><trkpt lat="46.1432191" lon="13.616173"><ele>609.5</ele><time>2026-05-02T09:58:12.265Z</time></trkpt><trkpt lat="46.143265" lon="13.6163596"><ele>610.25</ele><time>2026-05-02T09:58:13.264Z</time></trkpt><trkpt lat="46.1433296" lon="13.6164969"><ele>611.0</ele><time>2026-05-02T09:58:14.264Z</time></trkpt><trkpt lat="46.1434031" lon="13.616621"><ele>611.0</ele><time>2026-05-02T09:58:15.265Z</time></trkpt><trkpt lat="46.1434425" lon="13.6167661"><ele>611.0</ele><time>2026-05-02T09:58:16.265Z</time></trkpt><trkpt lat="46.1434373" lon="13.6169236"><ele>611.0</ele><time>2026-05-02T09:58:17.264Z</time></trkpt><trkpt lat="46.1433939" lon="13.6170867"><ele>611.0</ele><time>2026-05-02T09:58:18.264Z</time></trkpt><trkpt lat="46.1433296" lon="13.6172713"><ele>611.6666666666666</ele><time>2026-05-02T09:58:19.265Z</time></trkpt><trkpt lat="46.1432591" lon="13.6174766"><ele>612.3333333333334</ele><time>2026-05-02T09:58:20.264Z</time></trkpt><trkpt lat="46.1431904" lon="13.6176734"><ele>613.0</ele><time>2026-05-02T09:58:21.264Z</time></trkpt><trkpt lat="46.1431268" lon="13.6178826"><ele>618.75</ele><time>2026-05-02T09:58:22.264Z</time></trkpt><trkpt lat="46.1430655" lon="13.6180832"><ele>624.5</ele><time>2026-05-02T09:58:23.264Z</time></trkpt><trkpt lat="46.1430126" lon="13.6182684"><ele>630.25</ele><time>2026-05-02T09:58:24.265Z</time></trkpt><trkpt lat="46.1429826" lon="13.6184372"><ele>636.0</ele><time>2026-05-02T09:58:25.265Z</time></trkpt><trkpt lat="46.1430057" lon="13.6185802"><ele>637.5</ele><time>2026-05-02T09:58:26.265Z</time></trkpt><trkpt lat="46.1430522" lon="13.6187183"><ele>639.0</ele><time>2026-05-02T09:58:27.265Z</time></trkpt><trkpt lat="46.1431102" lon="13.6188454"><ele>640.5</ele><time>2026-05-02T09:58:28.265Z</time></trkpt><trkpt lat="46.1431273" lon="13.6190031"><ele>642.0</ele><time>2026-05-02T09:58:29.264Z</time></trkpt><trkpt lat="46.1431335" lon="13.6192066"><ele>642.0</ele><time>2026-05-02T09:58:30.265Z</time></trkpt><trkpt lat="46.1431291" lon="13.6194269"><ele>642.0</ele><time>2026-05-02T09:58:31.265Z</time></trkpt><trkpt lat="46.1431218" lon="13.61964"><ele>642.0</ele><time>2026-05-02T09:58:32.264Z</time></trkpt><trkpt lat="46.1430967" lon="13.6198584"><ele>639.3333333333334</ele><time>2026-05-02T09:58:33.264Z</time></trkpt><trkpt lat="46.1430548" lon="13.6200761"><ele>636.6666666666667</ele><time>2026-05-02T09:58:34.265Z</time></trkpt><trkpt lat="46.1429945" lon="13.6203015"><ele>634.0</ele><time>2026-05-02T09:58:35.264Z</time></trkpt><trkpt lat="46.1429332" lon="13.620536"><ele>631.5</ele><time>2026-05-02T09:58:36.264Z</time></trkpt><trkpt lat="46.1428813" lon="13.6207639"><ele>629.0</ele><time>2026-05-02T09:58:37.265Z</time></trkpt><trkpt lat="46.1428431" lon="13.6209608"><ele>626.5</ele><time>2026-05-02T09:58:38.264Z</time></trkpt><trkpt lat="46.1428302" lon="13.6211288"><ele>624.0</ele><time>2026-05-02T09:58:39.265Z</time></trkpt><trkpt lat="46.1428419" lon="13.6212879"><ele>620.0</ele><time>2026-05-02T09:58:40.264Z</time></trkpt><trkpt lat="46.1428797" lon="13.6214396"><ele>616.0</ele><time>2026-05-02T09:58:41.264Z</time></trkpt><trkpt lat="46.1429477" lon="13.6215841"><ele>612.0</ele><time>2026-05-02T09:58:42.264Z</time></trkpt><trkpt lat="46.1430365" lon="13.6217212"><ele>608.0</ele><time>2026-05-02T09:58:43.265Z</time></trkpt><trkpt lat="46.1431297" lon="13.6218447"><ele>606.1999999999999</ele><time>2026-05-02T09:58:44.265Z</time></trkpt><trkpt lat="46.1432215" lon="13.6219497"><ele>604.4</ele><time>2026-05-02T09:58:45.265Z</time></trkpt><trkpt lat="46.1432922" lon="13.6220681"><ele>602.5999999999999</ele><time>2026-05-02T09:58:46.265Z</time></trkpt><trkpt lat="46.1433165" lon="13.6222032"><ele>600.8</ele><time>2026-05-02T09:58:47.264Z</time></trkpt><trkpt lat="46.1432991" lon="13.622371"><ele>599.0</ele><time>2026-05-02T09:58:48.264Z</time></trkpt><trkpt lat="46.1432719" lon="13.6225469"><ele>599.0</ele><time>2026-05-02T09:58:49.265Z</time></trkpt><trkpt lat="46.1432417" lon="13.6227336"><ele>599.0</ele><time>2026-05-02T09:58:50.264Z</time></trkpt><trkpt lat="46.1432546" lon="13.622928"><ele>599.0</ele><time>2026-05-02T09:58:51.264Z</time></trkpt><trkpt lat="46.1432978" lon="13.6231115"><ele>599.0</ele><time>2026-05-02T09:58:52.265Z</time></trkpt><trkpt lat="46.1433491" lon="13.623276"><ele>598.2</ele><time>2026-05-02T09:58:53.265Z</time></trkpt><trkpt lat="46.1434081" lon="13.6233918"><ele>597.4</ele><time>2026-05-02T09:58:54.264Z</time></trkpt><trkpt lat="46.1434733" lon="13.6234951"><ele>596.6</ele><time>2026-05-02T09:58:55.265Z</time></trkpt><trkpt lat="46.1435593" lon="13.6235583"><ele>595.8</ele><time>2026-05-02T09:58:56.265Z</time></trkpt><trkpt lat="46.143652" lon="13.6236039"><ele>595.0</ele><time>2026-05-02T09:58:57.265Z</time></trkpt><trkpt lat="46.1437262" lon="13.6236979"><ele>593.75</ele><time>2026-05-02T09:58:58.265Z</time></trkpt><trkpt lat="46.1437903" lon="13.6238312"><ele>592.5</ele><time>2026-05-02T09:58:59.264Z</time></trkpt><trkpt lat="46.143852" lon="13.6239738"><ele>591.25</ele><time>2026-05-02T09:59:00.264Z</time></trkpt><trkpt lat="46.1439088" lon="13.6241003"><ele>590.0</ele><time>2026-05-02T09:59:01.264Z</time></trkpt><trkpt lat="46.1439631" lon="13.6242512"><ele>590.0</ele><time>2026-05-02T09:59:02.265Z</time></trkpt><trkpt lat="46.1439863" lon="13.6244087"><ele>590.0</ele><time>2026-05-02T09:59:03.265Z</time></trkpt><trkpt lat="46.1439993" lon="13.6245387"><ele>590.0</ele><time>2026-05-02T09:59:04.264Z</time></trkpt><trkpt lat="46.144006" lon="13.6246779"><ele>590.0</ele><time>2026-05-02T09:59:06.265Z</time></trkpt><trkpt lat="46.1439451" lon="13.6246332"><ele>590.0</ele><time>2026-05-02T09:59:17.265Z</time></trkpt><trkpt lat="46.1438593" lon="13.6245576"><ele>588.1666666666666</ele><time>2026-05-02T09:59:20.264Z</time></trkpt><trkpt lat="46.1438555" lon="13.6246628"><ele>586.3333333333333</ele><time>2026-05-02T09:59:26.265Z</time></trkpt><trkpt lat="46.1439189" lon="13.6247561"><ele>584.5</ele><time>2026-05-02T09:59:28.264Z</time></trkpt><trkpt lat="46.1439999" lon="13.6249053"><ele>582.6666666666666</ele><time>2026-05-02T09:59:30.264Z</time></trkpt><trkpt lat="46.1440403" lon="13.6249903"><ele>580.8333333333334</ele><time>2026-05-02T09:59:31.264Z</time></trkpt><trkpt lat="46.144078" lon="13.6250721"><ele>579.0</ele><time>2026-05-02T09:59:32.264Z</time></trkpt><trkpt lat="46.1441423" lon="13.6252159"><ele>582.7142857142857</ele><time>2026-05-02T09:59:34.265Z</time></trkpt><trkpt lat="46.1441714" lon="13.6253146"><ele>586.4285714285714</ele><time>2026-05-02T09:59:35.264Z</time></trkpt><trkpt lat="46.1441934" lon="13.6254138"><ele>590.1428571428571</ele><time>2026-05-02T09:59:36.265Z</time></trkpt><trkpt lat="46.1442153" lon="13.6255063"><ele>593.8571428571429</ele><time>2026-05-02T09:59:37.264Z</time></trkpt><trkpt lat="46.144237" lon="13.6256196"><ele>597.5714285714286</ele><time>2026-05-02T09:59:38.265Z</time></trkpt><trkpt lat="46.1442508" lon="13.6257355"><ele>601.2857142857142</ele><time>2026-05-02T09:59:39.265Z</time></trkpt><trkpt lat="46.1442672" lon="13.6258353"><ele>605.0</ele><time>2026-05-02T09:59:40.264Z</time></trkpt><trkpt lat="46.1442948" lon="13.6259806"><ele>605.0</ele><time>2026-05-02T09:59:42.264Z</time></trkpt><trkpt lat="46.1443113" lon="13.6260833"><ele>605.0</ele><time>2026-05-02T09:59:45.265Z</time></trkpt><trkpt lat="46.1441889" lon="13.6260792"><ele>605.0</ele><time>2026-05-02T10:01:59.087Z</time></trkpt><trkpt lat="46.1442766" lon="13.626138"><ele>605.0</ele><time>2026-05-02T10:02:13.264Z</time></trkpt><trkpt lat="46.1443193" lon="13.6262612"><ele>605.0</ele><time>2026-05-02T10:02:37.265Z</time></trkpt><trkpt lat="46.1443414" lon="13.6264555"><ele>605.0</ele><time>2026-05-02T10:02:39.265Z</time></trkpt><trkpt lat="46.1443477" lon="13.6265793"><ele>605.0</ele><time>2026-05-02T10:02:40.264Z</time></trkpt><trkpt lat="46.1443592" lon="13.6267204"><ele>605.0</ele><time>2026-05-02T10:02:41.264Z</time></trkpt><trkpt lat="46.1443584" lon="13.6268669"><ele>605.0</ele><time>2026-05-02T10:02:42.264Z</time></trkpt><trkpt lat="46.1443656" lon="13.626974"><ele>605.0</ele><time>2026-05-02T10:02:43.265Z</time></trkpt><trkpt lat="46.1443705" lon="13.6270714"><ele>605.0</ele><time>2026-05-02T10:02:44.264Z</time></trkpt><trkpt lat="46.1443878" lon="13.6271626"><ele>604.2</ele><time>2026-05-02T10:02:45.265Z</time></trkpt><trkpt lat="46.1444439" lon="13.6273152"><ele>603.4</ele><time>2026-05-02T10:02:47.264Z</time></trkpt><trkpt lat="46.144526" lon="13.6274488"><ele>602.6</ele><time>2026-05-02T10:02:49.265Z</time></trkpt><trkpt lat="46.1445794" lon="13.6275309"><ele>601.8</ele><time>2026-05-02T10:02:50.265Z</time></trkpt><trkpt lat="46.1446228" lon="13.6276081"><ele>601.0</ele><time>2026-05-02T10:02:51.265Z</time></trkpt><trkpt lat="46.1447159" lon="13.6277195"><ele>601.6666666666667</ele><time>2026-05-02T10:02:53.264Z</time></trkpt><trkpt lat="46.1448394" lon="13.6278171"><ele>602.3333333333334</ele><time>2026-05-02T10:02:55.265Z</time></trkpt><trkpt lat="46.144917" lon="13.6278566"><ele>603.0</ele><time>2026-05-02T10:02:56.264Z</time></trkpt><trkpt lat="46.1449783" lon="13.6278953"><ele>603.6666666666666</ele><time>2026-05-02T10:02:57.264Z</time></trkpt><trkpt lat="46.1450439" lon="13.6279339"><ele>604.3333333333333</ele><time>2026-05-02T10:02:58.265Z</time></trkpt><trkpt lat="46.1451049" lon="13.6279935"><ele>605.0</ele><time>2026-05-02T10:02:59.265Z</time></trkpt><trkpt lat="46.1451582" lon="13.6280522"><ele>605.0</ele><time>2026-05-02T10:03:00.265Z</time></trkpt><trkpt lat="46.1452132" lon="13.6281345"><ele>605.0</ele><time>2026-05-02T10:03:01.264Z</time></trkpt><trkpt lat="46.1452565" lon="13.6282273"><ele>605.0</ele><time>2026-05-02T10:03:02.265Z</time></trkpt><trkpt lat="46.1452941" lon="13.6283289"><ele>605.0</ele><time>2026-05-02T10:03:03.264Z</time></trkpt><trkpt lat="46.1453405" lon="13.6284081"><ele>605.0</ele><time>2026-05-02T10:03:04.265Z</time></trkpt><trkpt lat="46.1453955" lon="13.6284734"><ele>605.0</ele><time>2026-05-02T10:03:05.264Z</time></trkpt><trkpt lat="46.1454584" lon="13.6285382"><ele>605.0</ele><time>2026-05-02T10:03:06.265Z</time></trkpt><trkpt lat="46.1455307" lon="13.6286058"><ele>605.0</ele><time>2026-05-02T10:03:07.265Z</time></trkpt><trkpt lat="46.145594" lon="13.6286674"><ele>605.0</ele><time>2026-05-02T10:03:08.264Z</time></trkpt><trkpt lat="46.1456541" lon="13.6287317"><ele>605.0</ele><time>2026-05-02T10:03:09.264Z</time></trkpt><trkpt lat="46.1457094" lon="13.6287886"><ele>605.0</ele><time>2026-05-02T10:03:10.265Z</time></trkpt><trkpt lat="46.1458017" lon="13.6288793"><ele>605.0</ele><time>2026-05-02T10:03:12.264Z</time></trkpt><trkpt lat="46.1458458" lon="13.6290038"><ele>601.6</ele><time>2026-05-02T10:03:14.264Z</time></trkpt><trkpt lat="46.145849" lon="13.6291792"><ele>598.2</ele><time>2026-05-02T10:03:16.264Z</time></trkpt><trkpt lat="46.1458195" lon="13.6292885"><ele>594.8</ele><time>2026-05-02T10:03:17.264Z</time></trkpt><trkpt lat="46.1457713" lon="13.6294221"><ele>591.4</ele><time>2026-05-02T10:03:18.265Z</time></trkpt><trkpt lat="46.1457291" lon="13.6295533"><ele>588.0</ele><time>2026-05-02T10:03:19.264Z</time></trkpt><trkpt lat="46.1456955" lon="13.6296793"><ele>588.0</ele><time>2026-05-02T10:03:20.265Z</time></trkpt><trkpt lat="46.1456711" lon="13.6297923"><ele>588.0</ele><time>2026-05-02T10:03:21.264Z</time></trkpt><trkpt lat="46.1456426" lon="13.6299094"><ele>588.0</ele><time>2026-05-02T10:03:22.265Z</time></trkpt><trkpt lat="46.1456168" lon="13.6300226"><ele>588.0</ele><time>2026-05-02T10:03:23.265Z</time></trkpt><trkpt lat="46.1455869" lon="13.6301317"><ele>588.0</ele><time>2026-05-02T10:03:24.265Z</time></trkpt><trkpt lat="46.1455469" lon="13.6302283"><ele>588.0</ele><time>2026-05-02T10:03:25.265Z</time></trkpt><trkpt lat="46.1455055" lon="13.6303095"><ele>590.5</ele><time>2026-05-02T10:03:26.264Z</time></trkpt><trkpt lat="46.1454595" lon="13.6303903"><ele>593.0</ele><time>2026-05-02T10:03:27.265Z</time></trkpt><trkpt lat="46.1454152" lon="13.6304701"><ele>595.5</ele><time>2026-05-02T10:03:28.265Z</time></trkpt><trkpt lat="46.1453644" lon="13.6305577"><ele>598.0</ele><time>2026-05-02T10:03:29.265Z</time></trkpt><trkpt lat="46.1453212" lon="13.6306403"><ele>600.5</ele><time>2026-05-02T10:03:30.264Z</time></trkpt><trkpt lat="46.1452882" lon="13.6307223"><ele>603.0</ele><time>2026-05-02T10:03:31.264Z</time></trkpt><trkpt lat="46.1452557" lon="13.6308434"><ele>603.0</ele><time>2026-05-02T10:03:33.264Z</time></trkpt><trkpt lat="46.1452879" lon="13.6309813"><ele>603.0</ele><time>2026-05-02T10:03:35.265Z</time></trkpt><trkpt lat="46.145321" lon="13.6310627"><ele>603.0</ele><time>2026-05-02T10:03:36.264Z</time></trkpt><trkpt lat="46.1453815" lon="13.631187"><ele>603.0</ele><time>2026-05-02T10:03:38.264Z</time></trkpt><trkpt lat="46.145471" lon="13.6313012"><ele>603.0</ele><time>2026-05-02T10:03:40.264Z</time></trkpt><trkpt lat="46.145524" lon="13.6313548"><ele>600.1666666666666</ele><time>2026-05-02T10:03:41.264Z</time></trkpt><trkpt lat="46.1455782" lon="13.6314203"><ele>597.3333333333334</ele><time>2026-05-02T10:03:42.265Z</time></trkpt><trkpt lat="46.1456347" lon="13.6314854"><ele>594.5</ele><time>2026-05-02T10:03:43.265Z</time></trkpt><trkpt lat="46.1457461" lon="13.6315526"><ele>591.6666666666667</ele><time>2026-05-02T10:03:45.264Z</time></trkpt><trkpt lat="46.1458093" lon="13.6315874"><ele>588.8333333333334</ele><time>2026-05-02T10:03:46.265Z</time></trkpt><trkpt lat="46.1458784" lon="13.631629"><ele>586.0</ele><time>2026-05-02T10:03:47.264Z</time></trkpt><trkpt lat="46.145943" lon="13.6316617"><ele>590.5</ele><time>2026-05-02T10:03:48.264Z</time></trkpt><trkpt lat="46.146003" lon="13.6316998"><ele>595.0</ele><time>2026-05-02T10:03:49.265Z</time></trkpt><trkpt lat="46.146112" lon="13.6317526"><ele>599.5</ele><time>2026-05-02T10:03:51.264Z</time></trkpt><trkpt lat="46.1462201" lon="13.6317817"><ele>604.0</ele><time>2026-05-02T10:03:53.265Z</time></trkpt><trkpt lat="46.1462805" lon="13.631819"><ele>608.5</ele><time>2026-05-02T10:03:55.264Z</time></trkpt><trkpt lat="46.1462625" lon="13.6319345"><ele>613.0</ele><time>2026-05-02T10:03:58.263Z</time></trkpt><trkpt lat="46.1462115" lon="13.6320972"><ele>613.0</ele><time>2026-05-02T10:04:00.263Z</time></trkpt><trkpt lat="46.1461496" lon="13.6322491"><ele>613.0</ele><time>2026-05-02T10:04:02.264Z</time></trkpt><trkpt lat="46.1461041" lon="13.6323423"><ele>613.0</ele><time>2026-05-02T10:04:03.263Z</time></trkpt><trkpt lat="46.1460661" lon="13.6324582"><ele>613.0</ele><time>2026-05-02T10:04:04.264Z</time></trkpt><trkpt lat="46.1460322" lon="13.6325553"><ele>613.0</ele><time>2026-05-02T10:04:05.264Z</time></trkpt><trkpt lat="46.1459947" lon="13.6326543"><ele>613.0</ele><time>2026-05-02T10:04:06.264Z</time></trkpt><trkpt lat="46.1459638" lon="13.6327466"><ele>615.4285714285714</ele><time>2026-05-02T10:04:07.263Z</time></trkpt><trkpt lat="46.1459304" lon="13.6328406"><ele>617.8571428571429</ele><time>2026-05-02T10:04:08.263Z</time></trkpt><trkpt lat="46.1459039" lon="13.6329366"><ele>620.2857142857142</ele><time>2026-05-02T10:04:09.263Z</time></trkpt><trkpt lat="46.1458747" lon="13.6330249"><ele>622.7142857142858</ele><time>2026-05-02T10:04:10.263Z</time></trkpt><trkpt lat="46.1458289" lon="13.6331143"><ele>625.1428571428571</ele><time>2026-05-02T10:04:11.264Z</time></trkpt><trkpt lat="46.1457799" lon="13.6331871"><ele>627.5714285714286</ele><time>2026-05-02T10:04:12.263Z</time></trkpt><trkpt lat="46.1457329" lon="13.633272"><ele>630.0</ele><time>2026-05-02T10:04:13.264Z</time></trkpt><trkpt lat="46.1456848" lon="13.6333482"><ele>624.3333333333334</ele><time>2026-05-02T10:04:14.263Z</time></trkpt><trkpt lat="46.1456362" lon="13.6334302"><ele>618.6666666666666</ele><time>2026-05-02T10:04:15.263Z</time></trkpt><trkpt lat="46.1455941" lon="13.633515"><ele>613.0</ele><time>2026-05-02T10:04:16.264Z</time></trkpt><trkpt lat="46.1455551" lon="13.6336056"><ele>607.3333333333333</ele><time>2026-05-02T10:04:17.263Z</time></trkpt><trkpt lat="46.1455251" lon="13.6336941"><ele>601.6666666666666</ele><time>2026-05-02T10:04:18.263Z</time></trkpt><trkpt lat="46.1454939" lon="13.6337782"><ele>596.0</ele><time>2026-05-02T10:04:19.263Z</time></trkpt><trkpt lat="46.1454256" lon="13.6339221"><ele>596.0</ele><time>2026-05-02T10:04:21.264Z</time></trkpt><trkpt lat="46.1453788" lon="13.6339888"><ele>596.0</ele><time>2026-05-02T10:04:22.264Z</time></trkpt><trkpt lat="46.1453244" lon="13.6340579"><ele>596.0</ele><time>2026-05-02T10:04:23.263Z</time></trkpt><trkpt lat="46.1452557" lon="13.6341348"><ele>596.0</ele><time>2026-05-02T10:04:24.263Z</time></trkpt><trkpt lat="46.145198" lon="13.6342143"><ele>596.0</ele><time>2026-05-02T10:04:25.264Z</time></trkpt><trkpt lat="46.1451539" lon="13.6342895"><ele>596.0</ele><time>2026-05-02T10:04:26.264Z</time></trkpt><trkpt lat="46.1451173" lon="13.6343664"><ele>596.0</ele><time>2026-05-02T10:04:27.264Z</time></trkpt><trkpt lat="46.1450865" lon="13.634502"><ele>595.0</ele><time>2026-05-02T10:04:29.263Z</time></trkpt><trkpt lat="46.1451209" lon="13.6346375"><ele>594.0</ele><time>2026-05-02T10:04:31.264Z</time></trkpt><trkpt lat="46.1451924" lon="13.6348015"><ele>593.0</ele><time>2026-05-02T10:04:33.263Z</time></trkpt><trkpt lat="46.1452972" lon="13.6349053"><ele>592.0</ele><time>2026-05-02T10:04:35.263Z</time></trkpt><trkpt lat="46.14536" lon="13.6349312"><ele>591.0</ele><time>2026-05-02T10:04:36.263Z</time></trkpt><trkpt lat="46.1454358" lon="13.6349679"><ele>591.0</ele><time>2026-05-02T10:04:37.263Z</time></trkpt><trkpt lat="46.1455129" lon="13.6350013"><ele>591.0</ele><time>2026-05-02T10:04:38.263Z</time></trkpt><trkpt lat="46.1455941" lon="13.6350339"><ele>591.0</ele><time>2026-05-02T10:04:39.263Z</time></trkpt><trkpt lat="46.1456587" lon="13.6350627"><ele>591.0</ele><time>2026-05-02T10:04:40.264Z</time></trkpt><trkpt lat="46.145723" lon="13.6350918"><ele>591.0</ele><time>2026-05-02T10:04:41.263Z</time></trkpt><trkpt lat="46.1457841" lon="13.6351237"><ele>591.0</ele><time>2026-05-02T10:04:42.263Z</time></trkpt><trkpt lat="46.1458464" lon="13.6351607"><ele>591.0</ele><time>2026-05-02T10:04:43.264Z</time></trkpt><trkpt lat="46.1459359" lon="13.635249"><ele>594.0</ele><time>2026-05-02T10:04:45.263Z</time></trkpt><trkpt lat="46.1460214" lon="13.6353567"><ele>597.0</ele><time>2026-05-02T10:04:47.264Z</time></trkpt><trkpt lat="46.1460667" lon="13.6354258"><ele>600.0</ele><time>2026-05-02T10:04:48.263Z</time></trkpt><trkpt lat="46.1461409" lon="13.635587"><ele>603.0</ele><time>2026-05-02T10:04:50.263Z</time></trkpt><trkpt lat="46.1461613" lon="13.6357369"><ele>606.0</ele><time>2026-05-02T10:04:52.263Z</time></trkpt><trkpt lat="46.1461531" lon="13.6358953"><ele>606.0</ele><time>2026-05-02T10:04:54.264Z</time></trkpt><trkpt lat="46.1461" lon="13.6360391"><ele>606.0</ele><time>2026-05-02T10:04:56.263Z</time></trkpt><trkpt lat="46.1460341" lon="13.6361508"><ele>606.0</ele><time>2026-05-02T10:04:58.264Z</time></trkpt><trkpt lat="46.1459539" lon="13.6362723"><ele>606.0</ele><time>2026-05-02T10:05:00.263Z</time></trkpt><trkpt lat="46.1458903" lon="13.6364251"><ele>607.8</ele><time>2026-05-02T10:05:02.264Z</time></trkpt><trkpt lat="46.1458368" lon="13.6365897"><ele>609.6</ele><time>2026-05-02T10:05:04.264Z</time></trkpt><trkpt lat="46.1458041" lon="13.6366955"><ele>611.4</ele><time>2026-05-02T10:05:05.263Z</time></trkpt><trkpt lat="46.145766" lon="13.6367978"><ele>613.2</ele><time>2026-05-02T10:05:06.263Z</time></trkpt><trkpt lat="46.1457117" lon="13.6369027"><ele>615.0</ele><time>2026-05-02T10:05:07.264Z</time></trkpt><trkpt lat="46.145646" lon="13.6369949"><ele>610.1666666666666</ele><time>2026-05-02T10:05:08.264Z</time></trkpt><trkpt lat="46.1455857" lon="13.6370856"><ele>605.3333333333334</ele><time>2026-05-02T10:05:09.264Z</time></trkpt><trkpt lat="46.1455446" lon="13.6371882"><ele>600.5</ele><time>2026-05-02T10:05:10.264Z</time></trkpt><trkpt lat="46.1455051" lon="13.6372822"><ele>595.6666666666667</ele><time>2026-05-02T10:05:11.263Z</time></trkpt><trkpt lat="46.1454694" lon="13.6373712"><ele>590.8333333333334</ele><time>2026-05-02T10:05:12.263Z</time></trkpt><trkpt lat="46.1454368" lon="13.6374756"><ele>586.0</ele><time>2026-05-02T10:05:13.264Z</time></trkpt><trkpt lat="46.1453978" lon="13.6375808"><ele>586.0</ele><time>2026-05-02T10:05:14.264Z</time></trkpt><trkpt lat="46.1453661" lon="13.6376832"><ele>586.0</ele><time>2026-05-02T10:05:15.264Z</time></trkpt><trkpt lat="46.1453369" lon="13.6377841"><ele>586.0</ele><time>2026-05-02T10:05:16.264Z</time></trkpt><trkpt lat="46.1453069" lon="13.6378814"><ele>586.0</ele><time>2026-05-02T10:05:17.264Z</time></trkpt><trkpt lat="46.1452823" lon="13.6379802"><ele>586.0</ele><time>2026-05-02T10:05:18.263Z</time></trkpt><trkpt lat="46.1452714" lon="13.6380817"><ele>586.0</ele><time>2026-05-02T10:05:19.263Z</time></trkpt><trkpt lat="46.1452355" lon="13.6382294"><ele>587.8</ele><time>2026-05-02T10:05:21.263Z</time></trkpt><trkpt lat="46.1451534" lon="13.6383055"><ele>589.6</ele><time>2026-05-02T10:05:23.264Z</time></trkpt><trkpt lat="46.145061" lon="13.6383198"><ele>591.4</ele><time>2026-05-02T10:05:25.263Z</time></trkpt><trkpt lat="46.1449633" lon="13.6383052"><ele>593.2</ele><time>2026-05-02T10:05:27.263Z</time></trkpt><trkpt lat="46.1448364" lon="13.6382696"><ele>595.0</ele><time>2026-05-02T10:05:29.264Z</time></trkpt><trkpt lat="46.1447071" lon="13.6382466"><ele>595.0</ele><time>2026-05-02T10:05:31.264Z</time></trkpt><trkpt lat="46.1446387" lon="13.6382396"><ele>595.0</ele><time>2026-05-02T10:05:32.263Z</time></trkpt><trkpt lat="46.1445002" lon="13.6381958"><ele>595.0</ele><time>2026-05-02T10:05:34.263Z</time></trkpt><trkpt lat="46.1444159" lon="13.6381964"><ele>595.0</ele><time>2026-05-02T10:05:35.263Z</time></trkpt><trkpt lat="46.1443513" lon="13.6381732"><ele>595.0</ele><time>2026-05-02T10:05:36.264Z</time></trkpt><trkpt lat="46.1442117" lon="13.638157"><ele>595.0</ele><time>2026-05-02T10:05:38.263Z</time></trkpt><trkpt lat="46.1441488" lon="13.6381725"><ele>595.0</ele><time>2026-05-02T10:05:39.264Z</time></trkpt><trkpt lat="46.1440745" lon="13.6382148"><ele>595.0</ele><time>2026-05-02T10:05:40.263Z</time></trkpt><trkpt lat="46.1440075" lon="13.6382646"><ele>595.0</ele><time>2026-05-02T10:05:41.264Z</time></trkpt><trkpt lat="46.1439314" lon="13.6383209"><ele>595.0</ele><time>2026-05-02T10:05:42.263Z</time></trkpt><trkpt lat="46.1438617" lon="13.6383636"><ele>595.0</ele><time>2026-05-02T10:05:43.264Z</time></trkpt><trkpt lat="46.1437834" lon="13.6384"><ele>593.6</ele><time>2026-05-02T10:05:44.263Z</time></trkpt><trkpt lat="46.1437187" lon="13.6384469"><ele>592.2</ele><time>2026-05-02T10:05:45.263Z</time></trkpt><trkpt lat="46.1436159" lon="13.6385029"><ele>590.8</ele><time>2026-05-02T10:05:47.263Z</time></trkpt><trkpt lat="46.1435034" lon="13.6385124"><ele>589.4</ele><time>2026-05-02T10:05:49.264Z</time></trkpt><trkpt lat="46.1433932" lon="13.638479"><ele>588.0</ele><time>2026-05-02T10:05:51.264Z</time></trkpt><trkpt lat="46.1432739" lon="13.6384566"><ele>588.0</ele><time>2026-05-02T10:05:53.263Z</time></trkpt><trkpt lat="46.1432044" lon="13.6384529"><ele>588.0</ele><time>2026-05-02T10:05:54.264Z</time></trkpt><trkpt lat="46.1431298" lon="13.6384533"><ele>588.0</ele><time>2026-05-02T10:05:55.264Z</time></trkpt><trkpt lat="46.1430124" lon="13.6384322"><ele>588.0</ele><time>2026-05-02T10:05:57.263Z</time></trkpt><trkpt lat="46.1429418" lon="13.63843"><ele>588.0</ele><time>2026-05-02T10:05:58.263Z</time></trkpt><trkpt lat="46.1428683" lon="13.6384447"><ele>588.0</ele><time>2026-05-02T10:05:59.263Z</time></trkpt><trkpt lat="46.142784" lon="13.6384491"><ele>588.0</ele><time>2026-05-02T10:06:00.263Z</time></trkpt><trkpt lat="46.1426588" lon="13.6384708"><ele>588.0</ele><time>2026-05-02T10:06:02.264Z</time></trkpt><trkpt lat="46.1425617" lon="13.6385559"><ele>588.0</ele><time>2026-05-02T10:06:04.263Z</time></trkpt><trkpt lat="46.1424727" lon="13.638626"><ele>588.0</ele><time>2026-05-02T10:06:06.264Z</time></trkpt><trkpt lat="46.1423579" lon="13.6386698"><ele>586.8333333333334</ele><time>2026-05-02T10:06:08.264Z</time></trkpt><trkpt lat="46.1422323" lon="13.6387052"><ele>585.6666666666666</ele><time>2026-05-02T10:06:10.264Z</time></trkpt><trkpt lat="46.142158" lon="13.6387278"><ele>584.5</ele><time>2026-05-02T10:06:11.263Z</time></trkpt><trkpt lat="46.1420755" lon="13.6387249"><ele>583.3333333333333</ele><time>2026-05-02T10:06:12.263Z</time></trkpt><trkpt lat="46.1420025" lon="13.6387334"><ele>582.1666666666666</ele><time>2026-05-02T10:06:13.264Z</time></trkpt><trkpt lat="46.1419256" lon="13.6387681"><ele>581.0</ele><time>2026-05-02T10:06:14.264Z</time></trkpt><trkpt lat="46.1418541" lon="13.6388126"><ele>581.0</ele><time>2026-05-02T10:06:15.263Z</time></trkpt><trkpt lat="46.1417944" lon="13.638851"><ele>581.0</ele><time>2026-05-02T10:06:16.264Z</time></trkpt><trkpt lat="46.1416797" lon="13.6389005"><ele>581.0</ele><time>2026-05-02T10:06:18.263Z</time></trkpt><trkpt lat="46.1415663" lon="13.6389339"><ele>581.0</ele><time>2026-05-02T10:06:20.264Z</time></trkpt><trkpt lat="46.1414595" lon="13.6389832"><ele>581.0</ele><time>2026-05-02T10:06:22.263Z</time></trkpt><trkpt lat="46.1414249" lon="13.6390921"><ele>577.75</ele><time>2026-05-02T10:06:24.263Z</time></trkpt><trkpt lat="46.1414459" lon="13.6392114"><ele>574.5</ele><time>2026-05-02T10:06:26.263Z</time></trkpt><trkpt lat="46.1415005" lon="13.6393648"><ele>571.25</ele><time>2026-05-02T10:06:28.263Z</time></trkpt><trkpt lat="46.1415583" lon="13.6395171"><ele>568.0</ele><time>2026-05-02T10:06:30.263Z</time></trkpt><trkpt lat="46.1415907" lon="13.6396955"><ele>568.0</ele><time>2026-05-02T10:06:32.264Z</time></trkpt><trkpt lat="46.1416127" lon="13.6398637"><ele>568.0</ele><time>2026-05-02T10:06:34.263Z</time></trkpt><trkpt lat="46.1416613" lon="13.6400185"><ele>568.0</ele><time>2026-05-02T10:06:36.263Z</time></trkpt><trkpt lat="46.1417073" lon="13.6400916"><ele>568.0</ele><time>2026-05-02T10:06:37.263Z</time></trkpt><trkpt lat="46.1417831" lon="13.6402299"><ele>568.0</ele><time>2026-05-02T10:06:39.264Z</time></trkpt><trkpt lat="46.1418445" lon="13.6403535"><ele>568.0</ele><time>2026-05-02T10:06:41.264Z</time></trkpt><trkpt lat="46.1418825" lon="13.6404639"><ele>568.0</ele><time>2026-05-02T10:06:43.264Z</time></trkpt><trkpt lat="46.1417969" lon="13.6404204"><ele>568.0</ele><time>2026-05-02T10:06:49.263Z</time></trkpt><trkpt lat="46.1417541" lon="13.6403441"><ele>568.0</ele><time>2026-05-02T10:06:50.263Z</time></trkpt><trkpt lat="46.1417039" lon="13.6402802"><ele>568.0</ele><time>2026-05-02T10:06:51.263Z</time></trkpt><trkpt lat="46.1416462" lon="13.6402378"><ele>568.0</ele><time>2026-05-02T10:06:52.264Z</time></trkpt><trkpt lat="46.1415785" lon="13.6401991"><ele>568.0</ele><time>2026-05-02T10:06:53.263Z</time></trkpt><trkpt lat="46.141463" lon="13.6401481"><ele>560.4</ele><time>2026-05-02T10:06:55.263Z</time></trkpt><trkpt lat="46.1413854" lon="13.6400606"><ele>552.8</ele><time>2026-05-02T10:06:57.263Z</time></trkpt><trkpt lat="46.1413486" lon="13.6399534"><ele>545.2</ele><time>2026-05-02T10:06:59.264Z</time></trkpt><trkpt lat="46.1412991" lon="13.6398038"><ele>537.6</ele><time>2026-05-02T10:07:01.264Z</time></trkpt><trkpt lat="46.1412223" lon="13.6397164"><ele>530.0</ele><time>2026-05-02T10:07:03.263Z</time></trkpt><trkpt lat="46.1411524" lon="13.6396828"><ele>529.9999999999999</ele><time>2026-05-02T10:07:04.263Z</time></trkpt><trkpt lat="46.1410802" lon="13.6396437"><ele>530.0</ele><time>2026-05-02T10:07:05.263Z</time></trkpt><trkpt lat="46.1410128" lon="13.639607"><ele>530.0</ele><time>2026-05-02T10:07:06.264Z</time></trkpt><trkpt lat="46.1409437" lon="13.6395587"><ele>530.0</ele><time>2026-05-02T10:07:07.263Z</time></trkpt><trkpt lat="46.1408795" lon="13.6395129"><ele>530.0</ele><time>2026-05-02T10:07:08.263Z</time></trkpt><trkpt lat="46.1408232" lon="13.6394705"><ele>529.9999999999999</ele><time>2026-05-02T10:07:09.263Z</time></trkpt><trkpt lat="46.1407636" lon="13.6394353"><ele>530.0</ele><time>2026-05-02T10:07:10.263Z</time></trkpt><trkpt lat="46.1406945" lon="13.6393934"><ele>531.3333333333333</ele><time>2026-05-02T10:07:11.263Z</time></trkpt><trkpt lat="46.1406327" lon="13.6393673"><ele>532.6666666666666</ele><time>2026-05-02T10:07:12.263Z</time></trkpt><trkpt lat="46.140568" lon="13.6393372"><ele>534.0</ele><time>2026-05-02T10:07:13.264Z</time></trkpt><trkpt lat="46.1404916" lon="13.6393127"><ele>535.3333333333334</ele><time>2026-05-02T10:07:14.264Z</time></trkpt><trkpt lat="46.1404155" lon="13.639298"><ele>536.6666666666667</ele><time>2026-05-02T10:07:15.263Z</time></trkpt><trkpt lat="46.1403039" lon="13.6392815"><ele>538.0</ele><time>2026-05-02T10:07:17.264Z</time></trkpt><trkpt lat="46.1402089" lon="13.6392575"><ele>538.0</ele><time>2026-05-02T10:07:19.263Z</time></trkpt><trkpt lat="46.1402068" lon="13.6393606"><ele>538.0</ele><time>2026-05-02T10:07:24.264Z</time></trkpt><trkpt lat="46.1402754" lon="13.6393914"><ele>538.0</ele><time>2026-05-02T10:07:26.264Z</time></trkpt><trkpt lat="46.1403773" lon="13.6394384"><ele>538.0</ele><time>2026-05-02T10:07:28.264Z</time></trkpt><trkpt lat="46.1404954" lon="13.6395281"><ele>538.0</ele><time>2026-05-02T10:07:30.263Z</time></trkpt><trkpt lat="46.1405879" lon="13.6396125"><ele>536.4</ele><time>2026-05-02T10:07:32.263Z</time></trkpt><trkpt lat="46.1406385" lon="13.6396694"><ele>534.8</ele><time>2026-05-02T10:07:33.263Z</time></trkpt><trkpt lat="46.140693" lon="13.6397258"><ele>533.2</ele><time>2026-05-02T10:07:34.263Z</time></trkpt><trkpt lat="46.140795" lon="13.639851"><ele>531.6</ele><time>2026-05-02T10:07:36.263Z</time></trkpt><trkpt lat="46.1408837" lon="13.6399517"><ele>530.0</ele><time>2026-05-02T10:07:38.263Z</time></trkpt><trkpt lat="46.1409432" lon="13.6400554"><ele>530.0</ele><time>2026-05-02T10:07:40.263Z</time></trkpt><trkpt lat="46.140976" lon="13.6401721"><ele>530.0</ele><time>2026-05-02T10:07:42.263Z</time></trkpt><trkpt lat="46.1409673" lon="13.6402632"><ele>530.0</ele><time>2026-05-02T10:07:44.263Z</time></trkpt><trkpt lat="46.1409227" lon="13.6403652"><ele>530.0</ele><time>2026-05-02T10:07:46.263Z</time></trkpt><trkpt lat="46.1409021" lon="13.6404791"><ele>530.0</ele><time>2026-05-02T10:07:48.263Z</time></trkpt><trkpt lat="46.1408982" lon="13.6406003"><ele>530.0</ele><time>2026-05-02T10:07:50.264Z</time></trkpt><trkpt lat="46.1409303" lon="13.640705"><ele>525.6</ele><time>2026-05-02T10:07:53.264Z</time></trkpt><trkpt lat="46.1410012" lon="13.6407438"><ele>521.2</ele><time>2026-05-02T10:07:55.264Z</time></trkpt><trkpt lat="46.1411035" lon="13.6408206"><ele>516.8</ele><time>2026-05-02T10:07:57.263Z</time></trkpt><trkpt lat="46.1411755" lon="13.6409228"><ele>512.4</ele><time>2026-05-02T10:07:59.263Z</time></trkpt><trkpt lat="46.1412045" lon="13.6410697"><ele>508.0</ele><time>2026-05-02T10:08:01.264Z</time></trkpt><trkpt lat="46.1411461" lon="13.6411958"><ele>504.79999999999995</ele><time>2026-05-02T10:08:03.264Z</time></trkpt><trkpt lat="46.1410858" lon="13.6413587"><ele>501.59999999999997</ele><time>2026-05-02T10:08:05.263Z</time></trkpt><trkpt lat="46.1410581" lon="13.6415442"><ele>498.40000000000003</ele><time>2026-05-02T10:08:07.264Z</time></trkpt><trkpt lat="46.141051" lon="13.6416357"><ele>495.20000000000005</ele><time>2026-05-02T10:08:08.263Z</time></trkpt><trkpt lat="46.1410403" lon="13.6417429"><ele>492.0</ele><time>2026-05-02T10:08:09.263Z</time></trkpt><trkpt lat="46.1410252" lon="13.6418531"><ele>492.1428571428572</ele><time>2026-05-02T10:08:10.263Z</time></trkpt><trkpt lat="46.1410144" lon="13.6419656"><ele>492.28571428571433</ele><time>2026-05-02T10:08:11.263Z</time></trkpt><trkpt lat="46.1409993" lon="13.6420613"><ele>492.42857142857144</ele><time>2026-05-02T10:08:12.264Z</time></trkpt><trkpt lat="46.1409872" lon="13.6421556"><ele>492.5714285714286</ele><time>2026-05-02T10:08:13.263Z</time></trkpt><trkpt lat="46.140967" lon="13.6422538"><ele>492.7142857142858</ele><time>2026-05-02T10:08:14.263Z</time></trkpt><trkpt lat="46.1409478" lon="13.642361"><ele>492.85714285714283</ele><time>2026-05-02T10:08:15.264Z</time></trkpt><trkpt lat="46.1409401" lon="13.6424732"><ele>493.0</ele><time>2026-05-02T10:08:16.263Z</time></trkpt><trkpt lat="46.140931" lon="13.6426283"><ele>493.00000000000006</ele><time>2026-05-02T10:08:18.263Z</time></trkpt><trkpt lat="46.1409518" lon="13.6427704"><ele>493.0</ele><time>2026-05-02T10:08:20.264Z</time></trkpt><trkpt lat="46.1410069" lon="13.6429052"><ele>493.0</ele><time>2026-05-02T10:08:22.264Z</time></trkpt><trkpt lat="46.141066" lon="13.6429541"><ele>493.0</ele><time>2026-05-02T10:08:23.264Z</time></trkpt><trkpt lat="46.1411288" lon="13.6429835"><ele>493.00000000000006</ele><time>2026-05-02T10:08:24.264Z</time></trkpt><trkpt lat="46.1411934" lon="13.6430044"><ele>493.0</ele><time>2026-05-02T10:08:25.263Z</time></trkpt><trkpt lat="46.1412651" lon="13.6430036"><ele>492.79999999999995</ele><time>2026-05-02T10:08:26.264Z</time></trkpt><trkpt lat="46.1413306" lon="13.6430113"><ele>492.59999999999997</ele><time>2026-05-02T10:08:27.263Z</time></trkpt><trkpt lat="46.1414469" lon="13.6430293"><ele>492.40000000000003</ele><time>2026-05-02T10:08:29.263Z</time></trkpt><trkpt lat="46.1415655" lon="13.6430463"><ele>492.20000000000005</ele><time>2026-05-02T10:08:31.264Z</time></trkpt><trkpt lat="46.1416815" lon="13.6430568"><ele>492.0</ele><time>2026-05-02T10:08:33.264Z</time></trkpt><trkpt lat="46.1417977" lon="13.6430686"><ele>492.0</ele><time>2026-05-02T10:08:35.263Z</time></trkpt><trkpt lat="46.1418958" lon="13.6430846"><ele>492.00000000000006</ele><time>2026-05-02T10:08:37.263Z</time></trkpt><trkpt lat="46.1419923" lon="13.6431097"><ele>492.00000000000006</ele><time>2026-05-02T10:08:39.264Z</time></trkpt><trkpt lat="46.1420703" lon="13.6431434"><ele>492.0</ele><time>2026-05-02T10:08:41.264Z</time></trkpt><trkpt lat="46.1421429" lon="13.6432264"><ele>492.0</ele><time>2026-05-02T10:08:44.263Z</time></trkpt><trkpt lat="46.1422106" lon="13.6432962"><ele>492.0</ele><time>2026-05-02T10:08:46.263Z</time></trkpt><trkpt lat="46.1422766" lon="13.643368"><ele>492.0</ele><time>2026-05-02T10:08:49.263Z</time></trkpt><trkpt lat="46.1423084" lon="13.6434598"><ele>492.0</ele><time>2026-05-02T10:08:52.264Z</time></trkpt><trkpt lat="46.1422959" lon="13.6435832"><ele>492.0</ele><time>2026-05-02T10:08:54.264Z</time></trkpt><trkpt lat="46.1422574" lon="13.643744"><ele>492.0</ele><time>2026-05-02T10:08:56.263Z</time></trkpt><trkpt lat="46.1422498" lon="13.643836"><ele>492.0</ele><time>2026-05-02T10:08:57.263Z</time></trkpt><trkpt lat="46.1422463" lon="13.6439425"><ele>486.8333333333333</ele><time>2026-05-02T10:08:58.264Z</time></trkpt><trkpt lat="46.1422471" lon="13.6440471"><ele>481.66666666666663</ele><time>2026-05-02T10:08:59.263Z</time></trkpt><trkpt lat="46.1422542" lon="13.644148"><ele>476.5</ele><time>2026-05-02T10:09:00.264Z</time></trkpt><trkpt lat="46.1422538" lon="13.6442487"><ele>471.3333333333333</ele><time>2026-05-02T10:09:01.264Z</time></trkpt><trkpt lat="46.1422406" lon="13.6444153"><ele>466.16666666666663</ele><time>2026-05-02T10:09:03.263Z</time></trkpt><trkpt lat="46.1422285" lon="13.644505"><ele>461.0</ele><time>2026-05-02T10:09:04.263Z</time></trkpt><trkpt lat="46.1422116" lon="13.6446107"><ele>456.25</ele><time>2026-05-02T10:09:05.264Z</time></trkpt><trkpt lat="46.1421798" lon="13.644786"><ele>451.5</ele><time>2026-05-02T10:09:07.264Z</time></trkpt><trkpt lat="46.1421439" lon="13.6449381"><ele>446.75</ele><time>2026-05-02T10:09:09.263Z</time></trkpt><trkpt lat="46.1421254" lon="13.6450658"><ele>442.0</ele><time>2026-05-02T10:09:11.263Z</time></trkpt><trkpt lat="46.1421755" lon="13.645227"><ele>443.8</ele><time>2026-05-02T10:09:13.263Z</time></trkpt><trkpt lat="46.1422603" lon="13.6453236"><ele>445.6</ele><time>2026-05-02T10:09:15.263Z</time></trkpt><trkpt lat="46.1423449" lon="13.6453862"><ele>447.40000000000003</ele><time>2026-05-02T10:09:17.263Z</time></trkpt><trkpt lat="46.1424217" lon="13.6454322"><ele>449.20000000000005</ele><time>2026-05-02T10:09:19.263Z</time></trkpt><trkpt lat="46.1425131" lon="13.6454645"><ele>451.0</ele><time>2026-05-02T10:09:21.264Z</time></trkpt><trkpt lat="46.1426213" lon="13.6454974"><ele>451.00000000000006</ele><time>2026-05-02T10:09:23.263Z</time></trkpt><trkpt lat="46.1427003" lon="13.6455652"><ele>451.0</ele><time>2026-05-02T10:09:25.264Z</time></trkpt><trkpt lat="46.1427508" lon="13.6456618"><ele>451.0</ele><time>2026-05-02T10:09:28.264Z</time></trkpt><trkpt lat="46.1427662" lon="13.6457758"><ele>451.0</ele><time>2026-05-02T10:09:30.263Z</time></trkpt><trkpt lat="46.1427932" lon="13.6458638"><ele>451.00000000000006</ele><time>2026-05-02T10:09:31.264Z</time></trkpt><trkpt lat="46.1428357" lon="13.6460098"><ele>451.0</ele><time>2026-05-02T10:09:33.264Z</time></trkpt><trkpt lat="46.1429016" lon="13.6461516"><ele>446.6666666666667</ele><time>2026-05-02T10:09:35.264Z</time></trkpt><trkpt lat="46.1429509" lon="13.6462116"><ele>442.33333333333337</ele><time>2026-05-02T10:09:36.264Z</time></trkpt><trkpt lat="46.1430553" lon="13.6462705"><ele>438.0</ele><time>2026-05-02T10:09:38.263Z</time></trkpt><trkpt lat="46.1431386" lon="13.6463006"><ele>433.66666666666663</ele><time>2026-05-02T10:09:40.264Z</time></trkpt><trkpt lat="46.1431145" lon="13.6463949"><ele>429.3333333333333</ele><time>2026-05-02T10:09:44.264Z</time></trkpt><trkpt lat="46.1430458" lon="13.6463989"><ele>425.0</ele><time>2026-05-02T10:09:46.263Z</time></trkpt><trkpt lat="46.1429486" lon="13.6463426"><ele>424.99999999999994</ele><time>2026-05-02T10:09:48.263Z</time></trkpt><trkpt lat="46.1428658" lon="13.6462934"><ele>425.0</ele><time>2026-05-02T10:09:50.264Z</time></trkpt><trkpt lat="46.1427699" lon="13.6462253"><ele>425.0</ele><time>2026-05-02T10:09:52.263Z</time></trkpt><trkpt lat="46.1427184" lon="13.6461665"><ele>425.0</ele><time>2026-05-02T10:09:53.263Z</time></trkpt><trkpt lat="46.1426489" lon="13.6460699"><ele>424.99999999999994</ele><time>2026-05-02T10:09:55.263Z</time></trkpt><trkpt lat="46.1425951" lon="13.6459665"><ele>425.0</ele><time>2026-05-02T10:09:57.263Z</time></trkpt><trkpt lat="46.1425146" lon="13.6459708"><ele>425.6</ele><time>2026-05-02T10:09:59.264Z</time></trkpt><trkpt lat="46.1424146" lon="13.6460183"><ele>426.2</ele><time>2026-05-02T10:10:01.263Z</time></trkpt><trkpt lat="46.142311" lon="13.6460693"><ele>426.79999999999995</ele><time>2026-05-02T10:10:03.264Z</time></trkpt><trkpt lat="46.1422312" lon="13.6460817"><ele>427.4</ele><time>2026-05-02T10:10:05.264Z</time></trkpt><trkpt lat="46.1421193" lon="13.6460995"><ele>428.0</ele><time>2026-05-02T10:10:07.263Z</time></trkpt><trkpt lat="46.1420429" lon="13.6460912"><ele>428.0</ele><time>2026-05-02T10:10:08.263Z</time></trkpt><trkpt lat="46.1419773" lon="13.6460843"><ele>427.99999999999994</ele><time>2026-05-02T10:10:09.263Z</time></trkpt><trkpt lat="46.1418631" lon="13.6460373"><ele>427.99999999999994</ele><time>2026-05-02T10:10:11.264Z</time></trkpt><trkpt lat="46.1417645" lon="13.645932"><ele>428.0</ele><time>2026-05-02T10:10:13.264Z</time></trkpt><trkpt lat="46.1416767" lon="13.6458255"><ele>428.0</ele><time>2026-05-02T10:10:15.263Z</time></trkpt><trkpt lat="46.1416098" lon="13.6457566"><ele>428.0</ele><time>2026-05-02T10:10:17.263Z</time></trkpt><trkpt lat="46.1416059" lon="13.6458755"><ele>427.99999999999994</ele><time>2026-05-02T10:10:23.263Z</time></trkpt><trkpt lat="46.1416628" lon="13.6459872"><ele>427.99999999999994</ele><time>2026-05-02T10:10:25.263Z</time></trkpt><trkpt lat="46.1417222" lon="13.6460998"><ele>428.0</ele><time>2026-05-02T10:10:27.263Z</time></trkpt><trkpt lat="46.1417925" lon="13.6462251"><ele>428.0</ele><time>2026-05-02T10:10:29.263Z</time></trkpt><trkpt lat="46.1418591" lon="13.6463003"><ele>422.59999999999997</ele><time>2026-05-02T10:10:30.263Z</time></trkpt><trkpt lat="46.1419204" lon="13.6463751"><ele>417.19999999999993</ele><time>2026-05-02T10:10:31.263Z</time></trkpt><trkpt lat="46.1420232" lon="13.646465"><ele>411.8</ele><time>2026-05-02T10:10:33.264Z</time></trkpt><trkpt lat="46.142115" lon="13.646537"><ele>406.4</ele><time>2026-05-02T10:10:35.264Z</time></trkpt><trkpt lat="46.1422305" lon="13.6465672"><ele>401.0</ele><time>2026-05-02T10:10:37.263Z</time></trkpt><trkpt lat="46.1422878" lon="13.6466149"><ele>400.99999999999994</ele><time>2026-05-02T10:10:38.263Z</time></trkpt><trkpt lat="46.1423602" lon="13.6466708"><ele>401.0</ele><time>2026-05-02T10:10:40.263Z</time></trkpt><trkpt lat="46.1423934" lon="13.6467633"><ele>401.0</ele><time>2026-05-02T10:10:42.264Z</time></trkpt><trkpt lat="46.14239" lon="13.6468776"><ele>401.0</ele><time>2026-05-02T10:10:44.264Z</time></trkpt><trkpt lat="46.1424085" lon="13.6469931"><ele>400.99999999999994</ele><time>2026-05-02T10:10:46.264Z</time></trkpt><trkpt lat="46.1424625" lon="13.6470881"><ele>401.0</ele><time>2026-05-02T10:10:48.263Z</time></trkpt><trkpt lat="46.1425579" lon="13.6471205"><ele>400.8333333333333</ele><time>2026-05-02T10:10:50.264Z</time></trkpt><trkpt lat="46.1426293" lon="13.6471548"><ele>400.66666666666663</ele><time>2026-05-02T10:10:52.264Z</time></trkpt><trkpt lat="46.1427221" lon="13.6472054"><ele>400.5</ele><time>2026-05-02T10:10:54.264Z</time></trkpt><trkpt lat="46.1428082" lon="13.6472647"><ele>400.33333333333337</ele><time>2026-05-02T10:10:56.263Z</time></trkpt><trkpt lat="46.1428917" lon="13.6473323"><ele>400.1666666666667</ele><time>2026-05-02T10:10:58.264Z</time></trkpt><trkpt lat="46.1429591" lon="13.6473792"><ele>400.0</ele><time>2026-05-02T10:11:00.263Z</time></trkpt><trkpt lat="46.1429873" lon="13.6475063"><ele>400.0</ele><time>2026-05-02T10:11:02.263Z</time></trkpt><trkpt lat="46.1430138" lon="13.6476452"><ele>400.0</ele><time>2026-05-02T10:11:04.263Z</time></trkpt><trkpt lat="46.1430764" lon="13.6477923"><ele>400.0</ele><time>2026-05-02T10:11:06.263Z</time></trkpt><trkpt lat="46.1431028" lon="13.647881"><ele>400.0</ele><time>2026-05-02T10:11:07.263Z</time></trkpt><trkpt lat="46.1431388" lon="13.6480135"><ele>400.0</ele><time>2026-05-02T10:11:09.263Z</time></trkpt><trkpt lat="46.1431815" lon="13.6481508"><ele>399.33333333333337</ele><time>2026-05-02T10:11:11.264Z</time></trkpt><trkpt lat="46.1432489" lon="13.6482394"><ele>398.6666666666667</ele><time>2026-05-02T10:11:13.264Z</time></trkpt><trkpt lat="46.1433224" lon="13.6482989"><ele>398.0</ele><time>2026-05-02T10:11:15.264Z</time></trkpt><trkpt lat="46.1433823" lon="13.6483511"><ele>397.33333333333337</ele><time>2026-05-02T10:11:17.263Z</time></trkpt><trkpt lat="46.1434072" lon="13.6484439"><ele>396.6666666666667</ele><time>2026-05-02T10:11:20.264Z</time></trkpt><trkpt lat="46.1434358" lon="13.6485585"><ele>396.0</ele><time>2026-05-02T10:11:22.264Z</time></trkpt><trkpt lat="46.1434126" lon="13.6486786"><ele>394.8333333333333</ele><time>2026-05-02T10:11:24.264Z</time></trkpt><trkpt lat="46.1434243" lon="13.6487902"><ele>393.66666666666663</ele><time>2026-05-02T10:11:26.263Z</time></trkpt><trkpt lat="46.1435048" lon="13.6488973"><ele>392.5</ele><time>2026-05-02T10:11:28.263Z</time></trkpt><trkpt lat="46.143558" lon="13.6489462"><ele>391.3333333333333</ele><time>2026-05-02T10:11:29.264Z</time></trkpt><trkpt lat="46.1436223" lon="13.6489808"><ele>390.16666666666663</ele><time>2026-05-02T10:11:30.264Z</time></trkpt><trkpt lat="46.143715" lon="13.6490257"><ele>389.0</ele><time>2026-05-02T10:11:31.263Z</time></trkpt><trkpt lat="46.1437774" lon="13.6490584"><ele>389.0</ele><time>2026-05-02T10:11:32.264Z</time></trkpt><trkpt lat="46.1438863" lon="13.649111"><ele>389.0</ele><time>2026-05-02T10:11:34.263Z</time></trkpt><trkpt lat="46.1439863" lon="13.6491475"><ele>389.0</ele><time>2026-05-02T10:11:36.264Z</time></trkpt><trkpt lat="46.144132" lon="13.6491447"><ele>389.0</ele><time>2026-05-02T10:11:38.263Z</time></trkpt><trkpt lat="46.1441974" lon="13.6491599"><ele>389.0</ele><time>2026-05-02T10:11:39.263Z</time></trkpt><trkpt lat="46.1442727" lon="13.6491641"><ele>390.2</ele><time>2026-05-02T10:11:40.264Z</time></trkpt><trkpt lat="46.1443391" lon="13.6491704"><ele>391.4</ele><time>2026-05-02T10:11:41.264Z</time></trkpt><trkpt lat="46.1444636" lon="13.6491753"><ele>392.6</ele><time>2026-05-02T10:11:43.264Z</time></trkpt><trkpt lat="46.1445809" lon="13.6491584"><ele>393.8</ele><time>2026-05-02T10:11:45.263Z</time></trkpt><trkpt lat="46.1446688" lon="13.649155"><ele>395.0</ele><time>2026-05-02T10:11:47.263Z</time></trkpt><trkpt lat="46.1447758" lon="13.6491749"><ele>397.6</ele><time>2026-05-02T10:11:49.264Z</time></trkpt><trkpt lat="46.1448826" lon="13.6492463"><ele>400.2</ele><time>2026-05-02T10:11:51.263Z</time></trkpt><trkpt lat="46.1449438" lon="13.649293"><ele>402.79999999999995</ele><time>2026-05-02T10:11:52.264Z</time></trkpt><trkpt lat="46.1450396" lon="13.6493389"><ele>405.4</ele><time>2026-05-02T10:11:53.264Z</time></trkpt><trkpt lat="46.1451038" lon="13.6493554"><ele>408.0</ele><time>2026-05-02T10:11:54.264Z</time></trkpt><trkpt lat="46.145204" lon="13.6494054"><ele>405.59999999999997</ele><time>2026-05-02T10:11:56.263Z</time></trkpt><trkpt lat="46.145295" lon="13.6495179"><ele>403.2</ele><time>2026-05-02T10:11:58.263Z</time></trkpt><trkpt lat="46.1453575" lon="13.6495842"><ele>400.8</ele><time>2026-05-02T10:11:59.263Z</time></trkpt><trkpt lat="46.1454182" lon="13.6496328"><ele>398.4</ele><time>2026-05-02T10:12:00.264Z</time></trkpt><trkpt lat="46.1454762" lon="13.6496991"><ele>396.0</ele><time>2026-05-02T10:12:01.264Z</time></trkpt><trkpt lat="46.1455783" lon="13.6498513"><ele>396.0</ele><time>2026-05-02T10:12:03.263Z</time></trkpt><trkpt lat="46.1456365" lon="13.6499083"><ele>396.0</ele><time>2026-05-02T10:12:04.263Z</time></trkpt><trkpt lat="46.1457293" lon="13.6500006"><ele>396.0</ele><time>2026-05-02T10:12:06.264Z</time></trkpt><trkpt lat="46.1457652" lon="13.6501204"><ele>396.0</ele><time>2026-05-02T10:12:08.264Z</time></trkpt><trkpt lat="46.1458208" lon="13.650214"><ele>396.0</ele><time>2026-05-02T10:12:09.264Z</time></trkpt><trkpt lat="46.1459379" lon="13.6503363"><ele>397.0</ele><time>2026-05-02T10:12:11.264Z</time></trkpt><trkpt lat="46.1460221" lon="13.6503739"><ele>398.0</ele><time>2026-05-02T10:12:12.263Z</time></trkpt><trkpt lat="46.1460812" lon="13.650413"><ele>399.0</ele><time>2026-05-02T10:12:13.263Z</time></trkpt><trkpt lat="46.1461401" lon="13.6504657"><ele>400.0</ele><time>2026-05-02T10:12:14.263Z</time></trkpt><trkpt lat="46.1462077" lon="13.6505355"><ele>401.0</ele><time>2026-05-02T10:12:15.263Z</time></trkpt><trkpt lat="46.1462629" lon="13.6505833"><ele>402.0</ele><time>2026-05-02T10:12:16.263Z</time></trkpt><trkpt lat="46.1463544" lon="13.6506537"><ele>402.0</ele><time>2026-05-02T10:12:18.263Z</time></trkpt><trkpt lat="46.1463971" lon="13.6507673"><ele>402.0</ele><time>2026-05-02T10:12:20.263Z</time></trkpt><trkpt lat="46.146438" lon="13.6508672"><ele>402.0</ele><time>2026-05-02T10:12:22.263Z</time></trkpt><trkpt lat="46.146522" lon="13.6509594"><ele>402.0</ele><time>2026-05-02T10:12:24.263Z</time></trkpt><trkpt lat="46.1466435" lon="13.6510467"><ele>402.0</ele><time>2026-05-02T10:12:26.264Z</time></trkpt><trkpt lat="46.146712" lon="13.6510766"><ele>404.40000000000003</ele><time>2026-05-02T10:12:27.263Z</time></trkpt><trkpt lat="46.1467901" lon="13.6511144"><ele>406.8</ele><time>2026-05-02T10:12:28.263Z</time></trkpt><trkpt lat="46.1468894" lon="13.6511863"><ele>409.2</ele><time>2026-05-02T10:12:29.263Z</time></trkpt><trkpt lat="46.1469704" lon="13.6512376"><ele>411.6</ele><time>2026-05-02T10:12:30.263Z</time></trkpt><trkpt lat="46.1470414" lon="13.6513038"><ele>414.0</ele><time>2026-05-02T10:12:31.264Z</time></trkpt><trkpt lat="46.1471003" lon="13.6514049"><ele>414.0</ele><time>2026-05-02T10:12:32.264Z</time></trkpt><trkpt lat="46.1471568" lon="13.6514941"><ele>414.0</ele><time>2026-05-02T10:12:33.264Z</time></trkpt><trkpt lat="46.1472128" lon="13.6515711"><ele>414.0</ele><time>2026-05-02T10:12:34.263Z</time></trkpt><trkpt lat="46.1472737" lon="13.6516548"><ele>414.0</ele><time>2026-05-02T10:12:35.263Z</time></trkpt><trkpt lat="46.1473325" lon="13.6517106"><ele>414.0</ele><time>2026-05-02T10:12:36.264Z</time></trkpt><trkpt lat="46.1473916" lon="13.6517648"><ele>414.0</ele><time>2026-05-02T10:12:37.264Z</time></trkpt><trkpt lat="46.1475026" lon="13.6518235"><ele>413.8571428571429</ele><time>2026-05-02T10:12:39.263Z</time></trkpt><trkpt lat="46.147576" lon="13.6518332"><ele>413.7142857142857</ele><time>2026-05-02T10:12:40.263Z</time></trkpt><trkpt lat="46.1476637" lon="13.6518697"><ele>413.57142857142856</ele><time>2026-05-02T10:12:41.264Z</time></trkpt><trkpt lat="46.1477225" lon="13.6519209"><ele>413.42857142857144</ele><time>2026-05-02T10:12:42.263Z</time></trkpt><trkpt lat="46.1477797" lon="13.6519753"><ele>413.2857142857143</ele><time>2026-05-02T10:12:43.264Z</time></trkpt><trkpt lat="46.1478401" lon="13.6520213"><ele>413.14285714285717</ele><time>2026-05-02T10:12:44.264Z</time></trkpt><trkpt lat="46.1479052" lon="13.6520546"><ele>413.0</ele><time>2026-05-02T10:12:45.263Z</time></trkpt><trkpt lat="46.1479793" lon="13.6521095"><ele>413.0</ele><time>2026-05-02T10:12:47.263Z</time></trkpt><trkpt lat="46.1480478" lon="13.6521134"><ele>413.0</ele><time>2026-05-02T10:12:56.263Z</time></trkpt><trkpt lat="46.1481365" lon="13.6521698"><ele>413.0</ele><time>2026-05-02T10:13:02.263Z</time></trkpt><trkpt lat="46.1482244" lon="13.652195"><ele>413.0</ele><time>2026-05-02T10:13:04.263Z</time></trkpt><trkpt lat="46.1483207" lon="13.6522113"><ele>413.0</ele><time>2026-05-02T10:13:06.263Z</time></trkpt><trkpt lat="46.148433" lon="13.6522118"><ele>412.79999999999995</ele><time>2026-05-02T10:13:08.263Z</time></trkpt><trkpt lat="46.1484956" lon="13.6521947"><ele>412.6</ele><time>2026-05-02T10:13:09.263Z</time></trkpt><trkpt lat="46.1486117" lon="13.6521646"><ele>412.4</ele><time>2026-05-02T10:13:11.264Z</time></trkpt><trkpt lat="46.1487117" lon="13.6521403"><ele>412.20000000000005</ele><time>2026-05-02T10:13:13.264Z</time></trkpt><trkpt lat="46.1487912" lon="13.6520693"><ele>412.0</ele><time>2026-05-02T10:13:15.263Z</time></trkpt><trkpt lat="46.148866" lon="13.6519528"><ele>414.00000000000006</ele><time>2026-05-02T10:13:17.263Z</time></trkpt><trkpt lat="46.1489404" lon="13.6517993"><ele>416.0</ele><time>2026-05-02T10:13:19.264Z</time></trkpt><trkpt lat="46.1489762" lon="13.651719"><ele>418.0</ele><time>2026-05-02T10:13:20.263Z</time></trkpt><trkpt lat="46.1490155" lon="13.6516329"><ele>420.0</ele><time>2026-05-02T10:13:21.264Z</time></trkpt><trkpt lat="46.1490614" lon="13.6515645"><ele>422.00000000000006</ele><time>2026-05-02T10:13:22.263Z</time></trkpt><trkpt lat="46.1491104" lon="13.6515002"><ele>424.0</ele><time>2026-05-02T10:13:23.263Z</time></trkpt><trkpt lat="46.1491548" lon="13.6514283"><ele>424.0</ele><time>2026-05-02T10:13:24.263Z</time></trkpt><trkpt lat="46.1492553" lon="13.6513168"><ele>424.0</ele><time>2026-05-02T10:13:26.263Z</time></trkpt><trkpt lat="46.1493184" lon="13.6512831"><ele>424.0</ele><time>2026-05-02T10:13:27.263Z</time></trkpt><trkpt lat="46.1494155" lon="13.6512549"><ele>424.0</ele><time>2026-05-02T10:13:29.264Z</time></trkpt><trkpt lat="46.1495319" lon="13.6512634"><ele>424.0</ele><time>2026-05-02T10:13:31.263Z</time></trkpt><trkpt lat="46.1495839" lon="13.6513511"><ele>424.00000000000006</ele><time>2026-05-02T10:13:33.264Z</time></trkpt><trkpt lat="46.149539" lon="13.6514751"><ele>424.0</ele><time>2026-05-02T10:13:35.263Z</time></trkpt><trkpt lat="46.149506" lon="13.6516219"><ele>424.0</ele><time>2026-05-02T10:13:37.263Z</time></trkpt><trkpt lat="46.1494761" lon="13.6517556"><ele>424.0</ele><time>2026-05-02T10:13:39.263Z</time></trkpt><trkpt lat="46.1494531" lon="13.651847"><ele>424.00000000000006</ele><time>2026-05-02T10:13:40.263Z</time></trkpt><trkpt lat="46.1494464" lon="13.6519504"><ele>424.0</ele><time>2026-05-02T10:13:41.263Z</time></trkpt><trkpt lat="46.149442" lon="13.6520533"><ele>421.2</ele><time>2026-05-02T10:13:42.264Z</time></trkpt><trkpt lat="46.1494266" lon="13.6522439"><ele>418.4</ele><time>2026-05-02T10:13:44.263Z</time></trkpt><trkpt lat="46.1494294" lon="13.6524055"><ele>415.6</ele><time>2026-05-02T10:13:46.26Z</time></trkpt><trkpt lat="46.1494705" lon="13.6525161"><ele>412.8</ele><time>2026-05-02T10:13:48.263Z</time></trkpt><trkpt lat="46.1495656" lon="13.6526128"><ele>410.0</ele><time>2026-05-02T10:13:50.263Z</time></trkpt><trkpt lat="46.1496494" lon="13.6526602"><ele>409.99999999999994</ele><time>2026-05-02T10:13:51.264Z</time></trkpt><trkpt lat="46.1497369" lon="13.6526993"><ele>410.0</ele><time>2026-05-02T10:13:52.264Z</time></trkpt><trkpt lat="46.1498155" lon="13.652742"><ele>410.0</ele><time>2026-05-02T10:13:53.264Z</time></trkpt><trkpt lat="46.1498925" lon="13.6528029"><ele>410.0</ele><time>2026-05-02T10:13:54.264Z</time></trkpt><trkpt lat="46.1499604" lon="13.6528563"><ele>409.99999999999994</ele><time>2026-05-02T10:13:55.263Z</time></trkpt><trkpt lat="46.1500233" lon="13.6528994"><ele>410.0</ele><time>2026-05-02T10:13:56.264Z</time></trkpt><trkpt lat="46.1500868" lon="13.6529297"><ele>412.99999999999994</ele><time>2026-05-02T10:13:57.263Z</time></trkpt><trkpt lat="46.1501493" lon="13.6529694"><ele>416.0</ele><time>2026-05-02T10:13:58.264Z</time></trkpt><trkpt lat="46.1502619" lon="13.6530524"><ele>419.0</ele><time>2026-05-02T10:14:00.263Z</time></trkpt><trkpt lat="46.150327" lon="13.6530966"><ele>422.0</ele><time>2026-05-02T10:14:01.263Z</time></trkpt><trkpt lat="46.1504018" lon="13.6531517"><ele>424.99999999999994</ele><time>2026-05-02T10:14:02.264Z</time></trkpt><trkpt lat="46.1504804" lon="13.6532032"><ele>428.0</ele><time>2026-05-02T10:14:03.263Z</time></trkpt><trkpt lat="46.1505551" lon="13.6532475"><ele>428.00000000000006</ele><time>2026-05-02T10:14:04.263Z</time></trkpt><trkpt lat="46.1506257" lon="13.6532783"><ele>428.0</ele><time>2026-05-02T10:14:05.263Z</time></trkpt><trkpt lat="46.15069" lon="13.6533115"><ele>428.0</ele><time>2026-05-02T10:14:06.263Z</time></trkpt><trkpt lat="46.1507501" lon="13.6533473"><ele>428.0</ele><time>2026-05-02T10:14:07.263Z</time></trkpt><trkpt lat="46.1508069" lon="13.6533986"><ele>428.0</ele><time>2026-05-02T10:14:08.263Z</time></trkpt><trkpt lat="46.1508715" lon="13.65345"><ele>428.00000000000006</ele><time>2026-05-02T10:14:09.263Z</time></trkpt><trkpt lat="46.1509483" lon="13.6535059"><ele>428.0</ele><time>2026-05-02T10:14:10.264Z</time></trkpt><trkpt lat="46.1510299" lon="13.6535536"><ele>427.0</ele><time>2026-05-02T10:14:11.263Z</time></trkpt><trkpt lat="46.1510949" lon="13.6535977"><ele>425.99999999999994</ele><time>2026-05-02T10:14:12.263Z</time></trkpt><trkpt lat="46.1511912" lon="13.6537052"><ele>425.0</ele><time>2026-05-02T10:14:14.263Z</time></trkpt><trkpt lat="46.1512898" lon="13.6537897"><ele>424.0</ele><time>2026-05-02T10:14:16.264Z</time></trkpt><trkpt lat="46.1513848" lon="13.6537842"><ele>423.0</ele><time>2026-05-02T10:14:18.264Z</time></trkpt><trkpt lat="46.1514875" lon="13.6537552"><ele>424.0</ele><time>2026-05-02T10:14:20.264Z</time></trkpt><trkpt lat="46.1516038" lon="13.6537534"><ele>425.0</ele><time>2026-05-02T10:14:22.264Z</time></trkpt><trkpt lat="46.1516616" lon="13.6538261"><ele>425.99999999999994</ele><time>2026-05-02T10:14:24.264Z</time></trkpt><trkpt lat="46.1516926" lon="13.6539678"><ele>427.0</ele><time>2026-05-02T10:14:26.263Z</time></trkpt><trkpt lat="46.1517663" lon="13.6540438"><ele>428.0</ele><time>2026-05-02T10:14:28.264Z</time></trkpt><trkpt lat="46.1518772" lon="13.6540821"><ele>427.99999999999994</ele><time>2026-05-02T10:14:30.264Z</time></trkpt><trkpt lat="46.1519808" lon="13.6540916"><ele>428.0</ele><time>2026-05-02T10:14:32.264Z</time></trkpt><trkpt lat="46.152054" lon="13.6540524"><ele>428.0</ele><time>2026-05-02T10:14:34.263Z</time></trkpt><trkpt lat="46.152121" lon="13.6540069"><ele>428.0</ele><time>2026-05-02T10:14:36.263Z</time></trkpt><trkpt lat="46.152231" lon="13.6539815"><ele>427.99999999999994</ele><time>2026-05-02T10:14:38.263Z</time></trkpt><trkpt lat="46.15231" lon="13.6539691"><ele>428.0</ele><time>2026-05-02T10:14:39.263Z</time></trkpt><trkpt lat="46.152384" lon="13.653952"><ele>429.79999999999995</ele><time>2026-05-02T10:14:40.264Z</time></trkpt><trkpt lat="46.1524771" lon="13.6538731"><ele>431.59999999999997</ele><time>2026-05-02T10:14:42.263Z</time></trkpt><trkpt lat="46.1525751" lon="13.6538493"><ele>433.40000000000003</ele><time>2026-05-02T10:14:44.264Z</time></trkpt><trkpt lat="46.1526629" lon="13.6538598"><ele>435.20000000000005</ele><time>2026-05-02T10:14:46.263Z</time></trkpt><trkpt lat="46.1527707" lon="13.653851"><ele>437.0</ele><time>2026-05-02T10:14:48.263Z</time></trkpt><trkpt lat="46.1528528" lon="13.6538256"><ele>437.0</ele><time>2026-05-02T10:14:50.264Z</time></trkpt><trkpt lat="46.1529328" lon="13.6537637"><ele>437.00000000000006</ele><time>2026-05-02T10:14:52.263Z</time></trkpt><trkpt lat="46.1530181" lon="13.653697"><ele>437.00000000000006</ele><time>2026-05-02T10:14:54.264Z</time></trkpt><trkpt lat="46.1531094" lon="13.653627"><ele>437.0</ele><time>2026-05-02T10:14:56.264Z</time></trkpt><trkpt lat="46.1532439" lon="13.6535842"><ele>437.0</ele><time>2026-05-02T10:14:58.264Z</time></trkpt><trkpt lat="46.1533171" lon="13.6535834"><ele>437.8</ele><time>2026-05-02T10:14:59.264Z</time></trkpt><trkpt lat="46.153417" lon="13.6536319"><ele>438.6</ele><time>2026-05-02T10:15:01.263Z</time></trkpt><trkpt lat="46.1534654" lon="13.6537786"><ele>439.40000000000003</ele><time>2026-05-02T10:15:03.263Z</time></trkpt><trkpt lat="46.1535492" lon="13.6539153"><ele>440.20000000000005</ele><time>2026-05-02T10:15:05.263Z</time></trkpt><trkpt lat="46.1536277" lon="13.6539915"><ele>441.0</ele><time>2026-05-02T10:15:06.264Z</time></trkpt><trkpt lat="46.1537091" lon="13.6540164"><ele>441.0</ele><time>2026-05-02T10:15:07.264Z</time></trkpt><trkpt lat="46.1537908" lon="13.6540332"><ele>441.0</ele><time>2026-05-02T10:15:08.264Z</time></trkpt><trkpt lat="46.1538711" lon="13.6540354"><ele>441.0</ele><time>2026-05-02T10:15:09.264Z</time></trkpt><trkpt lat="46.1539681" lon="13.6540529"><ele>441.0</ele><time>2026-05-02T10:15:10.264Z</time></trkpt><trkpt lat="46.1540707" lon="13.6540719"><ele>441.0</ele><time>2026-05-02T10:15:11.264Z</time></trkpt><trkpt lat="46.1541606" lon="13.6540905"><ele>442.6</ele><time>2026-05-02T10:15:12.264Z</time></trkpt><trkpt lat="46.1542324" lon="13.654106"><ele>444.20000000000005</ele><time>2026-05-02T10:15:13.264Z</time></trkpt><trkpt lat="46.1543435" lon="13.6541666"><ele>445.79999999999995</ele><time>2026-05-02T10:15:15.264Z</time></trkpt><trkpt lat="46.1544435" lon="13.6541956"><ele>447.4</ele><time>2026-05-02T10:15:17.264Z</time></trkpt><trkpt lat="46.1545548" lon="13.6542074"><ele>449.0</ele><time>2026-05-02T10:15:19.264Z</time></trkpt><trkpt lat="46.1546484" lon="13.654278"><ele>449.0</ele><time>2026-05-02T10:15:21.264Z</time></trkpt><trkpt lat="46.1547713" lon="13.6543495"><ele>449.0</ele><time>2026-05-02T10:15:23.264Z</time></trkpt><trkpt lat="46.1548311" lon="13.654403"><ele>449.0</ele><time>2026-05-02T10:15:24.263Z</time></trkpt><trkpt lat="46.1548855" lon="13.6544508"><ele>449.0</ele><time>2026-05-02T10:15:25.263Z</time></trkpt><trkpt lat="46.1549926" lon="13.6545482"><ele>449.0</ele><time>2026-05-02T10:15:27.264Z</time></trkpt><trkpt lat="46.1550978" lon="13.6546607"><ele>446.0</ele><time>2026-05-02T10:15:29.263Z</time></trkpt><trkpt lat="46.1551859" lon="13.6547566"><ele>443.0</ele><time>2026-05-02T10:15:31.264Z</time></trkpt><trkpt lat="46.1552806" lon="13.6548277"><ele>440.0</ele><time>2026-05-02T10:15:33.264Z</time></trkpt><trkpt lat="46.1553586" lon="13.6548492"><ele>437.0</ele><time>2026-05-02T10:15:35.264Z</time></trkpt><trkpt lat="46.1554255" lon="13.6548132"><ele>434.0</ele><time>2026-05-02T10:15:37.263Z</time></trkpt><trkpt lat="46.1554977" lon="13.6547322"><ele>433.99999999999994</ele><time>2026-05-02T10:15:39.264Z</time></trkpt><trkpt lat="46.1555488" lon="13.6546163"><ele>434.0</ele><time>2026-05-02T10:15:41.263Z</time></trkpt><trkpt lat="46.155614" lon="13.6545915"><ele>434.0</ele><time>2026-05-02T10:15:43.264Z</time></trkpt><trkpt lat="46.1556591" lon="13.6546591"><ele>434.0</ele><time>2026-05-02T10:15:45.264Z</time></trkpt><trkpt lat="46.1557078" lon="13.6547581"><ele>433.99999999999994</ele><time>2026-05-02T10:15:47.263Z</time></trkpt><trkpt lat="46.1557794" lon="13.6548295"><ele>434.0</ele><time>2026-05-02T10:15:49.264Z</time></trkpt><trkpt lat="46.1558528" lon="13.6548381"><ele>435.0</ele><time>2026-05-02T10:15:51.263Z</time></trkpt><trkpt lat="46.155953" lon="13.654783"><ele>436.0</ele><time>2026-05-02T10:15:53.263Z</time></trkpt><trkpt lat="46.1560137" lon="13.654741"><ele>437.0</ele><time>2026-05-02T10:15:54.264Z</time></trkpt><trkpt lat="46.1561303" lon="13.654681"><ele>438.0</ele><time>2026-05-02T10:15:56.264Z</time></trkpt><trkpt lat="46.1562192" lon="13.654567"><ele>439.0</ele><time>2026-05-02T10:15:58.263Z</time></trkpt><trkpt lat="46.1563204" lon="13.654478"><ele>443.00000000000006</ele><time>2026-05-02T10:16:00.264Z</time></trkpt><trkpt lat="46.1564089" lon="13.6543939"><ele>447.0</ele><time>2026-05-02T10:16:02.263Z</time></trkpt><trkpt lat="46.1564544" lon="13.6543241"><ele>451.0</ele><time>2026-05-02T10:16:03.264Z</time></trkpt><trkpt lat="46.1565016" lon="13.6542621"><ele>455.0</ele><time>2026-05-02T10:16:05.264Z</time></trkpt><trkpt lat="46.1565731" lon="13.6541894"><ele>459.00000000000006</ele><time>2026-05-02T10:16:07.263Z</time></trkpt><trkpt lat="46.1566431" lon="13.6541526"><ele>463.0</ele><time>2026-05-02T10:16:08.264Z</time></trkpt><trkpt lat="46.1567697" lon="13.6541323"><ele>463.0</ele><time>2026-05-02T10:16:10.264Z</time></trkpt><trkpt lat="46.1568843" lon="13.6540855"><ele>462.99999999999994</ele><time>2026-05-02T10:16:12.264Z</time></trkpt><trkpt lat="46.1569466" lon="13.6540686"><ele>462.99999999999994</ele><time>2026-05-02T10:16:13.263Z</time></trkpt><trkpt lat="46.1570411" lon="13.6540095"><ele>463.0</ele><time>2026-05-02T10:16:15.263Z</time></trkpt><trkpt lat="46.1571441" lon="13.6539169"><ele>463.0</ele><time>2026-05-02T10:16:17.263Z</time></trkpt><trkpt lat="46.1572138" lon="13.6538559"><ele>463.0</ele><time>2026-05-02T10:16:19.263Z</time></trkpt><trkpt lat="46.1573631" lon="13.6537531"><ele>463.0</ele><time>2026-05-02T10:16:21.264Z</time></trkpt><trkpt lat="46.157454" lon="13.6536823"><ele>463.0</ele><time>2026-05-02T10:16:22.264Z</time></trkpt><trkpt lat="46.1575651" lon="13.6536223"><ele>463.0</ele><time>2026-05-02T10:16:23.264Z</time></trkpt><trkpt lat="46.1576363" lon="13.6535703"><ele>466.6666666666667</ele><time>2026-05-02T10:16:24.263Z</time></trkpt><trkpt lat="46.1577208" lon="13.6535232"><ele>470.33333333333337</ele><time>2026-05-02T10:16:25.263Z</time></trkpt><trkpt lat="46.157788" lon="13.6534835"><ele>474.0</ele><time>2026-05-02T10:16:26.263Z</time></trkpt><trkpt lat="46.1578457" lon="13.6534283"><ele>477.66666666666663</ele><time>2026-05-02T10:16:27.264Z</time></trkpt><trkpt lat="46.1579255" lon="13.6533418"><ele>481.3333333333333</ele><time>2026-05-02T10:16:29.264Z</time></trkpt><trkpt lat="46.1580061" lon="13.653307"><ele>485.0</ele><time>2026-05-02T10:16:31.263Z</time></trkpt><trkpt lat="46.1580681" lon="13.6532501"><ele>484.99999999999994</ele><time>2026-05-02T10:16:33.264Z</time></trkpt><trkpt lat="46.1581303" lon="13.653157"><ele>485.0</ele><time>2026-05-02T10:16:35.264Z</time></trkpt><trkpt lat="46.1581906" lon="13.6531103"><ele>485.0</ele><time>2026-05-02T10:16:36.264Z</time></trkpt><trkpt lat="46.1582568" lon="13.6530582"><ele>485.0</ele><time>2026-05-02T10:16:37.263Z</time></trkpt><trkpt lat="46.158315" lon="13.6529517"><ele>484.99999999999994</ele><time>2026-05-02T10:16:39.263Z</time></trkpt><trkpt lat="46.1583345" lon="13.6528347"><ele>485.0</ele><time>2026-05-02T10:16:41.264Z</time></trkpt><trkpt lat="46.1583531" lon="13.652736"><ele>483.4</ele><time>2026-05-02T10:16:43.263Z</time></trkpt><trkpt lat="46.1583984" lon="13.6526622"><ele>481.8</ele><time>2026-05-02T10:16:45.263Z</time></trkpt><trkpt lat="46.1584847" lon="13.6526074"><ele>480.20000000000005</ele><time>2026-05-02T10:16:48.263Z</time></trkpt><trkpt lat="46.158582" lon="13.6526835"><ele>478.6</ele><time>2026-05-02T10:16:50.264Z</time></trkpt><trkpt lat="46.158657" lon="13.6528149"><ele>477.0</ele><time>2026-05-02T10:16:52.263Z</time></trkpt><trkpt lat="46.1586894" lon="13.6529197"><ele>473.6666666666667</ele><time>2026-05-02T10:16:54.263Z</time></trkpt><trkpt lat="46.1587309" lon="13.6530189"><ele>470.33333333333337</ele><time>2026-05-02T10:16:56.264Z</time></trkpt><trkpt lat="46.1588023" lon="13.653075"><ele>467.0</ele><time>2026-05-02T10:16:58.264Z</time></trkpt><trkpt lat="46.1588828" lon="13.6531168"><ele>463.6666666666667</ele><time>2026-05-02T10:17:00.263Z</time></trkpt><trkpt lat="46.1589458" lon="13.6531169"><ele>460.33333333333337</ele><time>2026-05-02T10:17:01.264Z</time></trkpt><trkpt lat="46.1590635" lon="13.6531605"><ele>457.0</ele><time>2026-05-02T10:17:03.263Z</time></trkpt><trkpt lat="46.1591633" lon="13.6532582"><ele>456.33333333333337</ele><time>2026-05-02T10:17:05.263Z</time></trkpt><trkpt lat="46.1592281" lon="13.6533684"><ele>455.6666666666667</ele><time>2026-05-02T10:17:07.264Z</time></trkpt><trkpt lat="46.1592907" lon="13.65344"><ele>455.0</ele><time>2026-05-02T10:17:09.263Z</time></trkpt><trkpt lat="46.1593781" lon="13.6534987"><ele>454.33333333333337</ele><time>2026-05-02T10:17:11.264Z</time></trkpt><trkpt lat="46.1594414" lon="13.6535231"><ele>453.6666666666667</ele><time>2026-05-02T10:17:12.263Z</time></trkpt><trkpt lat="46.1595377" lon="13.6535378"><ele>453.0</ele><time>2026-05-02T10:17:14.263Z</time></trkpt><trkpt lat="46.159625" lon="13.6535515"><ele>453.0</ele><time>2026-05-02T10:17:16.264Z</time></trkpt><trkpt lat="46.1597321" lon="13.6535387"><ele>453.0</ele><time>2026-05-02T10:17:18.263Z</time></trkpt><trkpt lat="46.1598052" lon="13.6535418"><ele>453.0</ele><time>2026-05-02T10:17:19.264Z</time></trkpt><trkpt lat="46.1598825" lon="13.6535265"><ele>453.0</ele><time>2026-05-02T10:17:20.263Z</time></trkpt><trkpt lat="46.1599516" lon="13.6535036"><ele>453.0</ele><time>2026-05-02T10:17:21.264Z</time></trkpt><trkpt lat="46.1600316" lon="13.6534903"><ele>453.0</ele><time>2026-05-02T10:17:22.264Z</time></trkpt><trkpt lat="46.1601115" lon="13.6534893"><ele>453.59999999999997</ele><time>2026-05-02T10:17:23.263Z</time></trkpt><trkpt lat="46.1602031" lon="13.6534688"><ele>454.19999999999993</ele><time>2026-05-02T10:17:24.264Z</time></trkpt><trkpt lat="46.1602879" lon="13.6534402"><ele>454.8</ele><time>2026-05-02T10:17:25.264Z</time></trkpt><trkpt lat="46.160358" lon="13.6534313"><ele>455.4</ele><time>2026-05-02T10:17:26.263Z</time></trkpt><trkpt lat="46.1604618" lon="13.6534024"><ele>456.0</ele><time>2026-05-02T10:17:28.263Z</time></trkpt><trkpt lat="46.1605798" lon="13.6533697"><ele>456.0</ele><time>2026-05-02T10:17:30.263Z</time></trkpt><trkpt lat="46.1606891" lon="13.653344"><ele>456.0</ele><time>2026-05-02T10:17:32.264Z</time></trkpt><trkpt lat="46.160766" lon="13.653337"><ele>456.0</ele><time>2026-05-02T10:17:34.264Z</time></trkpt><trkpt lat="46.1608765" lon="13.6533797"><ele>456.0</ele><time>2026-05-02T10:17:36.264Z</time></trkpt><trkpt lat="46.1609987" lon="13.6533998"><ele>456.0</ele><time>2026-05-02T10:17:38.263Z</time></trkpt><trkpt lat="46.1611031" lon="13.6534098"><ele>457.3333333333333</ele><time>2026-05-02T10:17:40.264Z</time></trkpt><trkpt lat="46.1612035" lon="13.6534231"><ele>458.66666666666663</ele><time>2026-05-02T10:17:42.263Z</time></trkpt><trkpt lat="46.1612749" lon="13.6534499"><ele>460.0</ele><time>2026-05-02T10:17:44.263Z</time></trkpt><trkpt lat="46.1613584" lon="13.6534331"><ele>461.3333333333333</ele><time>2026-05-02T10:17:46.263Z</time></trkpt><trkpt lat="46.1614275" lon="13.6533997"><ele>462.66666666666663</ele><time>2026-05-02T10:17:48.263Z</time></trkpt><trkpt lat="46.1615077" lon="13.6533586"><ele>464.0</ele><time>2026-05-02T10:17:50.264Z</time></trkpt><trkpt lat="46.1616109" lon="13.6533576"><ele>463.99999999999994</ele><time>2026-05-02T10:17:52.264Z</time></trkpt><trkpt lat="46.1616907" lon="13.653404"><ele>464.0</ele><time>2026-05-02T10:17:54.264Z</time></trkpt><trkpt lat="46.1617435" lon="13.653477"><ele>464.0</ele><time>2026-05-02T10:17:56.263Z</time></trkpt><trkpt lat="46.1617736" lon="13.6535707"><ele>464.0</ele><time>2026-05-02T10:18:08.263Z</time></trkpt><trkpt lat="46.1618252" lon="13.6537015"><ele>463.99999999999994</ele><time>2026-05-02T10:18:10.263Z</time></trkpt><trkpt lat="46.1618973" lon="13.6538259"><ele>464.0</ele><time>2026-05-02T10:18:12.264Z</time></trkpt><trkpt lat="46.1619778" lon="13.6539473"><ele>465.49999999999994</ele><time>2026-05-02T10:18:14.264Z</time></trkpt><trkpt lat="46.1620697" lon="13.6540225"><ele>467.0</ele><time>2026-05-02T10:18:16.263Z</time></trkpt><trkpt lat="46.1621672" lon="13.6540807"><ele>468.5</ele><time>2026-05-02T10:18:18.263Z</time></trkpt><trkpt lat="46.1622382" lon="13.6541322"><ele>470.0</ele><time>2026-05-02T10:18:20.263Z</time></trkpt><trkpt lat="46.162185" lon="13.6540808"><ele>471.49999999999994</ele><time>2026-05-02T10:18:35.264Z</time></trkpt><trkpt lat="46.1620988" lon="13.6540252"><ele>473.0</ele><time>2026-05-02T10:18:37.263Z</time></trkpt><trkpt lat="46.1620059" lon="13.6539471"><ele>472.99999999999994</ele><time>2026-05-02T10:18:39.264Z</time></trkpt><trkpt lat="46.1619491" lon="13.6539031"><ele>473.0</ele><time>2026-05-02T10:18:40.263Z</time></trkpt><trkpt lat="46.1618629" lon="13.6537777"><ele>473.0</ele><time>2026-05-02T10:18:42.264Z</time></trkpt><trkpt lat="46.1617868" lon="13.6536614"><ele>473.0</ele><time>2026-05-02T10:18:44.263Z</time></trkpt><trkpt lat="46.1617433" lon="13.6535788"><ele>472.99999999999994</ele><time>2026-05-02T10:18:46.264Z</time></trkpt><trkpt lat="46.1617521" lon="13.6534855"><ele>473.0</ele><time>2026-05-02T10:18:49.263Z</time></trkpt><trkpt lat="46.1618057" lon="13.6534215"><ele>471.2</ele><time>2026-05-02T10:18:51.264Z</time></trkpt><trkpt lat="46.1618642" lon="13.6533119"><ele>469.4</ele><time>2026-05-02T10:18:53.264Z</time></trkpt><trkpt lat="46.1619176" lon="13.6532284"><ele>467.59999999999997</ele><time>2026-05-02T10:18:55.263Z</time></trkpt><trkpt lat="46.162004" lon="13.6531764"><ele>465.79999999999995</ele><time>2026-05-02T10:18:57.264Z</time></trkpt><trkpt lat="46.1620904" lon="13.6531151"><ele>464.0</ele><time>2026-05-02T10:18:59.264Z</time></trkpt><trkpt lat="46.1621798" lon="13.6530169"><ele>463.99999999999994</ele><time>2026-05-02T10:19:01.264Z</time></trkpt><trkpt lat="46.1622402" lon="13.6529698"><ele>464.0</ele><time>2026-05-02T10:19:02.263Z</time></trkpt><trkpt lat="46.1622998" lon="13.6529243"><ele>464.0</ele><time>2026-05-02T10:19:03.264Z</time></trkpt><trkpt lat="46.1623501" lon="13.6528662"><ele>464.0</ele><time>2026-05-02T10:19:04.263Z</time></trkpt><trkpt lat="46.1624165" lon="13.6527278"><ele>463.99999999999994</ele><time>2026-05-02T10:19:06.264Z</time></trkpt><trkpt lat="46.1624608" lon="13.6525998"><ele>464.0</ele><time>2026-05-02T10:19:08.263Z</time></trkpt><trkpt lat="46.162507" lon="13.6524653"><ele>464.99999999999994</ele><time>2026-05-02T10:19:10.263Z</time></trkpt><trkpt lat="46.1625489" lon="13.6523721"><ele>466.0</ele><time>2026-05-02T10:19:14.264Z</time></trkpt><trkpt lat="46.1625939" lon="13.652239"><ele>467.0</ele><time>2026-05-02T10:19:17.263Z</time></trkpt><trkpt lat="46.1626386" lon="13.6521571"><ele>468.0</ele><time>2026-05-02T10:19:19.263Z</time></trkpt><trkpt lat="46.1626806" lon="13.6520422"><ele>468.99999999999994</ele><time>2026-05-02T10:19:21.263Z</time></trkpt><trkpt lat="46.1627547" lon="13.6519437"><ele>470.0</ele><time>2026-05-02T10:19:23.263Z</time></trkpt><trkpt lat="46.1628191" lon="13.6518699"><ele>474.8</ele><time>2026-05-02T10:19:24.264Z</time></trkpt><trkpt lat="46.1628722" lon="13.6517955"><ele>479.6</ele><time>2026-05-02T10:19:25.263Z</time></trkpt><trkpt lat="46.162945" lon="13.6516871"><ele>484.4</ele><time>2026-05-02T10:19:27.264Z</time></trkpt><trkpt lat="46.1630116" lon="13.6515473"><ele>489.2</ele><time>2026-05-02T10:19:29.263Z</time></trkpt><trkpt lat="46.1630608" lon="13.6513768"><ele>494.0</ele><time>2026-05-02T10:19:31.264Z</time></trkpt><trkpt lat="46.1631107" lon="13.6512528"><ele>493.99999999999994</ele><time>2026-05-02T10:19:33.263Z</time></trkpt><trkpt lat="46.1631444" lon="13.6511697"><ele>494.0</ele><time>2026-05-02T10:19:34.264Z</time></trkpt><trkpt lat="46.1631713" lon="13.6510271"><ele>494.0</ele><time>2026-05-02T10:19:36.264Z</time></trkpt><trkpt lat="46.1632607" lon="13.650928"><ele>494.0</ele><time>2026-05-02T10:19:38.264Z</time></trkpt><trkpt lat="46.1633315" lon="13.6508821"><ele>493.99999999999994</ele><time>2026-05-02T10:19:39.263Z</time></trkpt><trkpt lat="46.1633979" lon="13.6508413"><ele>494.0</ele><time>2026-05-02T10:19:40.264Z</time></trkpt><trkpt lat="46.1634604" lon="13.6507945"><ele>493.42857142857144</ele><time>2026-05-02T10:19:41.263Z</time></trkpt><trkpt lat="46.1635203" lon="13.6507601"><ele>492.85714285714283</ele><time>2026-05-02T10:19:42.263Z</time></trkpt><trkpt lat="46.1635858" lon="13.6507267"><ele>492.2857142857143</ele><time>2026-05-02T10:19:43.264Z</time></trkpt><trkpt lat="46.1636524" lon="13.6506869"><ele>491.7142857142857</ele><time>2026-05-02T10:19:44.264Z</time></trkpt><trkpt lat="46.1637129" lon="13.6506486"><ele>491.1428571428571</ele><time>2026-05-02T10:19:45.264Z</time></trkpt><trkpt lat="46.1637723" lon="13.6506092"><ele>490.57142857142856</ele><time>2026-05-02T10:19:46.263Z</time></trkpt><trkpt lat="46.1638332" lon="13.6505633"><ele>490.0</ele><time>2026-05-02T10:19:47.263Z</time></trkpt><trkpt lat="46.1638889" lon="13.6504829"><ele>490.0</ele><time>2026-05-02T10:19:50.263Z</time></trkpt><trkpt lat="46.1637854" lon="13.6504885"><ele>490.0</ele><time>2026-05-02T10:19:54.263Z</time></trkpt><trkpt lat="46.1637088" lon="13.6505127"><ele>490.0</ele><time>2026-05-02T10:19:56.263Z</time></trkpt><trkpt lat="46.1635977" lon="13.6505133"><ele>490.0</ele><time>2026-05-02T10:19:58.263Z</time></trkpt><trkpt lat="46.1634919" lon="13.6504853"><ele>490.0</ele><time>2026-05-02T10:20:00.263Z</time></trkpt><trkpt lat="46.1633906" lon="13.6504782"><ele>490.0</ele><time>2026-05-02T10:20:02.263Z</time></trkpt><trkpt lat="46.1632948" lon="13.6505411"><ele>490.0</ele><time>2026-05-02T10:20:04.264Z</time></trkpt><trkpt lat="46.1632067" lon="13.6505849"><ele>490.0</ele><time>2026-05-02T10:20:06.264Z</time></trkpt><trkpt lat="46.1631434" lon="13.650595"><ele>490.0</ele><time>2026-05-02T10:20:07.264Z</time></trkpt><trkpt lat="46.1630358" lon="13.6506473"><ele>490.0</ele><time>2026-05-02T10:20:09.263Z</time></trkpt><trkpt lat="46.162929" lon="13.6507223"><ele>498.5</ele><time>2026-05-02T10:20:11.264Z</time></trkpt><trkpt lat="46.1628208" lon="13.6507685"><ele>507.0</ele><time>2026-05-02T10:20:13.263Z</time></trkpt><trkpt lat="46.1627032" lon="13.6507759"><ele>515.5</ele><time>2026-05-02T10:20:15.263Z</time></trkpt><trkpt lat="46.1625916" lon="13.6507643"><ele>524.0</ele><time>2026-05-02T10:20:17.263Z</time></trkpt><trkpt lat="46.1624789" lon="13.6507335"><ele>524.0</ele><time>2026-05-02T10:20:19.264Z</time></trkpt><trkpt lat="46.1624116" lon="13.650715"><ele>524.0</ele><time>2026-05-02T10:20:20.263Z</time></trkpt><trkpt lat="46.1623247" lon="13.6507037"><ele>524.0</ele><time>2026-05-02T10:20:22.264Z</time></trkpt><trkpt lat="46.1622587" lon="13.6508268"><ele>524.0</ele><time>2026-05-02T10:20:25.263Z</time></trkpt><trkpt lat="46.1622049" lon="13.6509592"><ele>524.0</ele><time>2026-05-02T10:20:27.263Z</time></trkpt><trkpt lat="46.1621663" lon="13.651034"><ele>524.0</ele><time>2026-05-02T10:20:28.263Z</time></trkpt><trkpt lat="46.1620772" lon="13.6511255"><ele>525.1666666666666</ele><time>2026-05-02T10:20:30.264Z</time></trkpt><trkpt lat="46.161976" lon="13.6512194"><ele>526.3333333333333</ele><time>2026-05-02T10:20:32.263Z</time></trkpt><trkpt lat="46.1619163" lon="13.6512558"><ele>527.5</ele><time>2026-05-02T10:20:33.264Z</time></trkpt><trkpt lat="46.1618058" lon="13.6513293"><ele>528.6666666666666</ele><time>2026-05-02T10:20:35.264Z</time></trkpt><trkpt lat="46.1617449" lon="13.6513671"><ele>529.8333333333334</ele><time>2026-05-02T10:20:36.264Z</time></trkpt><trkpt lat="46.161677" lon="13.6514021"><ele>531.0</ele><time>2026-05-02T10:20:37.264Z</time></trkpt><trkpt lat="46.1616094" lon="13.6514396"><ele>531.0</ele><time>2026-05-02T10:20:38.263Z</time></trkpt><trkpt lat="46.1615443" lon="13.6514842"><ele>531.0</ele><time>2026-05-02T10:20:39.264Z</time></trkpt><trkpt lat="46.1614836" lon="13.6515331"><ele>531.0</ele><time>2026-05-02T10:20:40.264Z</time></trkpt><trkpt lat="46.1613714" lon="13.6515728"><ele>531.0</ele><time>2026-05-02T10:20:42.263Z</time></trkpt><trkpt lat="46.1612921" lon="13.6515532"><ele>531.0</ele><time>2026-05-02T10:20:44.263Z</time></trkpt><trkpt lat="46.1611963" lon="13.6514459"><ele>531.8</ele><time>2026-05-02T10:20:46.263Z</time></trkpt><trkpt lat="46.161142" lon="13.6513876"><ele>532.6</ele><time>2026-05-02T10:20:47.264Z</time></trkpt><trkpt lat="46.1610588" lon="13.6513108"><ele>533.4</ele><time>2026-05-02T10:20:49.264Z</time></trkpt><trkpt lat="46.1609848" lon="13.6512517"><ele>534.2</ele><time>2026-05-02T10:20:51.263Z</time></trkpt><trkpt lat="46.1609226" lon="13.6511391"><ele>535.0</ele><time>2026-05-02T10:20:53.263Z</time></trkpt><trkpt lat="46.1608663" lon="13.6510135"><ele>539.3333333333334</ele><time>2026-05-02T10:20:55.263Z</time></trkpt><trkpt lat="46.1607922" lon="13.6509368"><ele>543.6666666666667</ele><time>2026-05-02T10:20:57.264Z</time></trkpt><trkpt lat="46.1606811" lon="13.6509032"><ele>548.0</ele><time>2026-05-02T10:20:59.264Z</time></trkpt><trkpt lat="46.1605756" lon="13.6508463"><ele>552.3333333333334</ele><time>2026-05-02T10:21:01.264Z</time></trkpt><trkpt lat="46.1605244" lon="13.650789"><ele>556.6666666666666</ele><time>2026-05-02T10:21:02.263Z</time></trkpt><trkpt lat="46.1604732" lon="13.6507303"><ele>561.0</ele><time>2026-05-02T10:21:03.263Z</time></trkpt><trkpt lat="46.1603936" lon="13.65064"><ele>561.0</ele><time>2026-05-02T10:21:05.264Z</time></trkpt><trkpt lat="46.160323" lon="13.6505444"><ele>561.0</ele><time>2026-05-02T10:21:07.264Z</time></trkpt><trkpt lat="46.1602673" lon="13.6504166"><ele>561.0</ele><time>2026-05-02T10:21:09.263Z</time></trkpt><trkpt lat="46.1602191" lon="13.6503135"><ele>561.0</ele><time>2026-05-02T10:21:11.263Z</time></trkpt><trkpt lat="46.1601703" lon="13.6502491"><ele>561.0</ele><time>2026-05-02T10:21:14.263Z</time></trkpt><trkpt lat="46.1601015" lon="13.6502425"><ele>561.0</ele><time>2026-05-02T10:21:16.264Z</time></trkpt><trkpt lat="46.1600082" lon="13.6502898"><ele>561.0</ele><time>2026-05-02T10:21:18.264Z</time></trkpt><trkpt lat="46.1599074" lon="13.6503629"><ele>561.0</ele><time>2026-05-02T10:21:20.263Z</time></trkpt><trkpt lat="46.1597922" lon="13.650426"><ele>561.0</ele><time>2026-05-02T10:21:22.263Z</time></trkpt><trkpt lat="46.1596791" lon="13.6504798"><ele>561.0</ele><time>2026-05-02T10:21:24.263Z</time></trkpt><trkpt lat="46.1596193" lon="13.6505442"><ele>561.0</ele><time>2026-05-02T10:21:25.263Z</time></trkpt><trkpt lat="46.159567" lon="13.6505995"><ele>558.4</ele><time>2026-05-02T10:21:26.263Z</time></trkpt><trkpt lat="46.1594995" lon="13.6506466"><ele>555.8</ele><time>2026-05-02T10:21:27.263Z</time></trkpt><trkpt lat="46.1594382" lon="13.6506893"><ele>553.1999999999999</ele><time>2026-05-02T10:21:28.264Z</time></trkpt><trkpt lat="46.1593321" lon="13.6507466"><ele>550.6</ele><time>2026-05-02T10:21:30.263Z</time></trkpt><trkpt lat="46.1592362" lon="13.6506869"><ele>548.0</ele><time>2026-05-02T10:21:32.263Z</time></trkpt><trkpt lat="46.1591813" lon="13.6505675"><ele>548.0</ele><time>2026-05-02T10:21:34.263Z</time></trkpt><trkpt lat="46.1591697" lon="13.6503951"><ele>548.0</ele><time>2026-05-02T10:21:36.263Z</time></trkpt><trkpt lat="46.1591157" lon="13.6502359"><ele>548.0</ele><time>2026-05-02T10:21:38.263Z</time></trkpt><trkpt lat="46.1590631" lon="13.6501711"><ele>548.0</ele><time>2026-05-02T10:21:39.264Z</time></trkpt><trkpt lat="46.1590156" lon="13.6501056"><ele>548.0</ele><time>2026-05-02T10:21:40.263Z</time></trkpt><trkpt lat="46.1589674" lon="13.6500358"><ele>548.0</ele><time>2026-05-02T10:21:41.263Z</time></trkpt><trkpt lat="46.1589041" lon="13.649945"><ele>547.1999999999999</ele><time>2026-05-02T10:21:43.264Z</time></trkpt><trkpt lat="46.1588525" lon="13.6497917"><ele>546.4</ele><time>2026-05-02T10:21:45.264Z</time></trkpt><trkpt lat="46.1588091" lon="13.6496336"><ele>545.5999999999999</ele><time>2026-05-02T10:21:47.263Z</time></trkpt><trkpt lat="46.1587956" lon="13.6494676"><ele>544.8</ele><time>2026-05-02T10:21:49.263Z</time></trkpt><trkpt lat="46.1587751" lon="13.64933"><ele>544.0</ele><time>2026-05-02T10:21:51.263Z</time></trkpt><trkpt lat="46.1587985" lon="13.6491775"><ele>548.8</ele><time>2026-05-02T10:21:53.263Z</time></trkpt><trkpt lat="46.1588427" lon="13.6490751"><ele>553.5999999999999</ele><time>2026-05-02T10:21:55.264Z</time></trkpt><trkpt lat="46.1588559" lon="13.6489848"><ele>558.4</ele><time>2026-05-02T10:21:57.263Z</time></trkpt><trkpt lat="46.1587807" lon="13.6488362"><ele>563.1999999999999</ele><time>2026-05-02T10:21:59.263Z</time></trkpt><trkpt lat="46.1587323" lon="13.6487758"><ele>568.0</ele><time>2026-05-02T10:22:00.264Z</time></trkpt><trkpt lat="46.1586218" lon="13.6486258"><ele>572.1666666666667</ele><time>2026-05-02T10:22:02.264Z</time></trkpt><trkpt lat="46.1585565" lon="13.6485534"><ele>576.3333333333334</ele><time>2026-05-02T10:22:03.263Z</time></trkpt><trkpt lat="46.1584404" lon="13.6484799"><ele>580.5</ele><time>2026-05-02T10:22:05.264Z</time></trkpt><trkpt lat="46.1583754" lon="13.6484413"><ele>584.6666666666666</ele><time>2026-05-02T10:22:06.263Z</time></trkpt><trkpt lat="46.1583165" lon="13.6484038"><ele>588.8333333333333</ele><time>2026-05-02T10:22:07.264Z</time></trkpt><trkpt lat="46.1582548" lon="13.6483473"><ele>593.0</ele><time>2026-05-02T10:22:08.264Z</time></trkpt><trkpt lat="46.1582038" lon="13.6482906"><ele>592.3333333333333</ele><time>2026-05-02T10:22:09.264Z</time></trkpt><trkpt lat="46.1581518" lon="13.64823"><ele>591.6666666666666</ele><time>2026-05-02T10:22:10.263Z</time></trkpt><trkpt lat="46.1581209" lon="13.6481508"><ele>591.0</ele><time>2026-05-02T10:22:11.264Z</time></trkpt><trkpt lat="46.1581047" lon="13.6480163"><ele>590.3333333333334</ele><time>2026-05-02T10:22:13.264Z</time></trkpt><trkpt lat="46.1581406" lon="13.647877"><ele>589.6666666666667</ele><time>2026-05-02T10:22:15.263Z</time></trkpt><trkpt lat="46.1581704" lon="13.6477182"><ele>589.0</ele><time>2026-05-02T10:22:17.264Z</time></trkpt><trkpt lat="46.1582163" lon="13.6476337"><ele>592.4</ele><time>2026-05-02T10:22:18.264Z</time></trkpt><trkpt lat="46.1582886" lon="13.6474968"><ele>595.8</ele><time>2026-05-02T10:22:20.264Z</time></trkpt><trkpt lat="46.1583308" lon="13.6473985"><ele>599.2</ele><time>2026-05-02T10:22:22.263Z</time></trkpt><trkpt lat="46.1582627" lon="13.6472952"><ele>602.6</ele><time>2026-05-02T10:22:25.263Z</time></trkpt><trkpt lat="46.1581527" lon="13.6472416"><ele>606.0</ele><time>2026-05-02T10:22:27.263Z</time></trkpt><trkpt lat="46.1580623" lon="13.6471295"><ele>606.0</ele><time>2026-05-02T10:22:29.263Z</time></trkpt><trkpt lat="46.1580053" lon="13.6470595"><ele>606.0</ele><time>2026-05-02T10:22:31.263Z</time></trkpt><trkpt lat="46.1579275" lon="13.6471315"><ele>606.0</ele><time>2026-05-02T10:22:34.263Z</time></trkpt><trkpt lat="46.1578366" lon="13.6472578"><ele>606.0</ele><time>2026-05-02T10:22:36.263Z</time></trkpt><trkpt lat="46.157784" lon="13.6473224"><ele>606.0</ele><time>2026-05-02T10:22:37.263Z</time></trkpt><trkpt lat="46.1576953" lon="13.6473697"><ele>606.0</ele><time>2026-05-02T10:22:39.264Z</time></trkpt><trkpt lat="46.1575857" lon="13.6472932"><ele>606.0</ele><time>2026-05-02T10:22:41.264Z</time></trkpt><trkpt lat="46.1575244" lon="13.6471768"><ele>606.0</ele><time>2026-05-02T10:22:43.263Z</time></trkpt><trkpt lat="46.1574536" lon="13.6470233"><ele>606.0</ele><time>2026-05-02T10:22:45.264Z</time></trkpt><trkpt lat="46.1574127" lon="13.6469501"><ele>606.0</ele><time>2026-05-02T10:22:46.263Z</time></trkpt><trkpt lat="46.1573827" lon="13.6468656"><ele>611.6</ele><time>2026-05-02T10:22:47.263Z</time></trkpt><trkpt lat="46.157348" lon="13.6467779"><ele>617.2</ele><time>2026-05-02T10:22:48.264Z</time></trkpt><trkpt lat="46.1572996" lon="13.6467014"><ele>622.8</ele><time>2026-05-02T10:22:49.264Z</time></trkpt><trkpt lat="46.1571949" lon="13.6466555"><ele>628.4</ele><time>2026-05-02T10:22:51.263Z</time></trkpt><trkpt lat="46.1571148" lon="13.6467432"><ele>634.0</ele><time>2026-05-02T10:22:53.263Z</time></trkpt><trkpt lat="46.1570387" lon="13.6468357"><ele>634.0</ele><time>2026-05-02T10:22:55.263Z</time></trkpt><trkpt lat="46.1569993" lon="13.6469163"><ele>634.0</ele><time>2026-05-02T10:22:57.264Z</time></trkpt><trkpt lat="46.1569311" lon="13.6470159"><ele>634.0</ele><time>2026-05-02T10:23:00.264Z</time></trkpt><trkpt lat="46.1568847" lon="13.6471106"><ele>634.0</ele><time>2026-05-02T10:23:02.264Z</time></trkpt><trkpt lat="46.156846" lon="13.6471845"><ele>634.0</ele><time>2026-05-02T10:23:04.263Z</time></trkpt><trkpt lat="46.1567763" lon="13.6472635"><ele>634.0</ele><time>2026-05-02T10:23:07.263Z</time></trkpt><trkpt lat="46.156703" lon="13.6473398"><ele>633.0</ele><time>2026-05-02T10:23:09.264Z</time></trkpt><trkpt lat="46.1566408" lon="13.6473771"><ele>632.0</ele><time>2026-05-02T10:23:10.264Z</time></trkpt><trkpt lat="46.1565932" lon="13.6474962"><ele>631.0</ele><time>2026-05-02T10:23:12.264Z</time></trkpt><trkpt lat="46.1565765" lon="13.6476567"><ele>630.0</ele><time>2026-05-02T10:23:14.264Z</time></trkpt><trkpt lat="46.1565189" lon="13.6477093"><ele>629.0</ele><time>2026-05-02T10:23:16.263Z</time></trkpt><trkpt lat="46.1564642" lon="13.6476351"><ele>628.0</ele><time>2026-05-02T10:23:19.263Z</time></trkpt><trkpt lat="46.1564464" lon="13.6475122"><ele>629.0</ele><time>2026-05-02T10:23:22.264Z</time></trkpt><trkpt lat="46.1564554" lon="13.6473942"><ele>630.0</ele><time>2026-05-02T10:23:25.263Z</time></trkpt><trkpt lat="46.1564806" lon="13.6472609"><ele>631.0</ele><time>2026-05-02T10:23:28.263Z</time></trkpt><trkpt lat="46.1564949" lon="13.6471365"><ele>632.0</ele><time>2026-05-02T10:23:30.263Z</time></trkpt><trkpt lat="46.1565253" lon="13.6470098"><ele>633.0</ele><time>2026-05-02T10:23:32.264Z</time></trkpt><trkpt lat="46.1565691" lon="13.6469028"><ele>634.0</ele><time>2026-05-02T10:23:34.264Z</time></trkpt><trkpt lat="46.1566544" lon="13.6468143"><ele>634.0</ele><time>2026-05-02T10:23:43.263Z</time></trkpt><trkpt lat="46.1567372" lon="13.6466889"><ele>634.0</ele><time>2026-05-02T10:23:45.263Z</time></trkpt><trkpt lat="46.1567743" lon="13.6466119"><ele>634.0</ele><time>2026-05-02T10:23:46.264Z</time></trkpt><trkpt lat="46.1568094" lon="13.6465346"><ele>634.0</ele><time>2026-05-02T10:23:47.264Z</time></trkpt><trkpt lat="46.1568401" lon="13.6464504"><ele>634.0</ele><time>2026-05-02T10:23:48.263Z</time></trkpt><trkpt lat="46.1568896" lon="13.6462951"><ele>634.0</ele><time>2026-05-02T10:23:50.264Z</time></trkpt><trkpt lat="46.1569348" lon="13.64613"><ele>635.5</ele><time>2026-05-02T10:23:52.263Z</time></trkpt><trkpt lat="46.1569724" lon="13.6460437"><ele>637.0</ele><time>2026-05-02T10:23:53.264Z</time></trkpt><trkpt lat="46.1570079" lon="13.6459543"><ele>638.5</ele><time>2026-05-02T10:23:54.263Z</time></trkpt><trkpt lat="46.1570348" lon="13.6458677"><ele>640.0</ele><time>2026-05-02T10:23:55.264Z</time></trkpt><trkpt lat="46.1571066" lon="13.6457238"><ele>641.5</ele><time>2026-05-02T10:23:57.264Z</time></trkpt><trkpt lat="46.15718" lon="13.645665"><ele>643.0</ele><time>2026-05-02T10:23:59.263Z</time></trkpt><trkpt lat="46.1572563" lon="13.6456493"><ele>643.0</ele><time>2026-05-02T10:24:01.263Z</time></trkpt><trkpt lat="46.157348" lon="13.6456906"><ele>643.0</ele><time>2026-05-02T10:24:03.263Z</time></trkpt><trkpt lat="46.1574493" lon="13.6457244"><ele>643.0</ele><time>2026-05-02T10:24:04.264Z</time></trkpt><trkpt lat="46.1575331" lon="13.6457623"><ele>643.0</ele><time>2026-05-02T10:24:05.263Z</time></trkpt><trkpt lat="46.1576377" lon="13.6457805"><ele>643.0</ele><time>2026-05-02T10:24:07.264Z</time></trkpt><trkpt lat="46.157741" lon="13.6457192"><ele>644.75</ele><time>2026-05-02T10:24:09.263Z</time></trkpt><trkpt lat="46.1578463" lon="13.6456389"><ele>646.5</ele><time>2026-05-02T10:24:11.264Z</time></trkpt><trkpt lat="46.1579662" lon="13.6455887"><ele>648.25</ele><time>2026-05-02T10:24:13.263Z</time></trkpt><trkpt lat="46.1580836" lon="13.645576"><ele>650.0</ele><time>2026-05-02T10:24:15.263Z</time></trkpt><trkpt lat="46.158211" lon="13.6456106"><ele>650.0</ele><time>2026-05-02T10:24:17.264Z</time></trkpt><trkpt lat="46.1582763" lon="13.6456372"><ele>650.0</ele><time>2026-05-02T10:24:19.263Z</time></trkpt><trkpt lat="46.1582303" lon="13.6455261"><ele>650.0</ele><time>2026-05-02T10:24:31.3Z</time></trkpt><trkpt lat="46.1582564" lon="13.6454097"><ele>650.0</ele><time>2026-05-02T10:24:33.31Z</time></trkpt><trkpt lat="46.1583341" lon="13.6454461"><ele>650.0</ele><time>2026-05-02T10:24:34.264Z</time></trkpt><trkpt lat="46.1583987" lon="13.6454658"><ele>650.0</ele><time>2026-05-02T10:24:35.264Z</time></trkpt><trkpt lat="46.1585175" lon="13.6454677"><ele>650.0</ele><time>2026-05-02T10:24:37.263Z</time></trkpt><trkpt lat="46.1586452" lon="13.6454528"><ele>650.0</ele><time>2026-05-02T10:24:39.263Z</time></trkpt><trkpt lat="46.1587335" lon="13.6454162"><ele>650.0</ele><time>2026-05-02T10:24:40.264Z</time></trkpt><trkpt lat="46.1588256" lon="13.6453311"><ele>650.0</ele><time>2026-05-02T10:24:41.264Z</time></trkpt><trkpt lat="46.158914" lon="13.645218"><ele>650.0</ele><time>2026-05-02T10:24:42.264Z</time></trkpt><trkpt lat="46.1589903" lon="13.6450919"><ele>653.0</ele><time>2026-05-02T10:24:43.263Z</time></trkpt><trkpt lat="46.1590566" lon="13.6449961"><ele>656.0</ele><time>2026-05-02T10:24:44.264Z</time></trkpt><trkpt lat="46.1591282" lon="13.6449488"><ele>659.0</ele><time>2026-05-02T10:24:45.264Z</time></trkpt><trkpt lat="46.159214" lon="13.6449756"><ele>662.0</ele><time>2026-05-02T10:24:46.263Z</time></trkpt><trkpt lat="46.1593184" lon="13.6450391"><ele>665.0</ele><time>2026-05-02T10:24:47.263Z</time></trkpt><trkpt lat="46.1594449" lon="13.6450975"><ele>665.0</ele><time>2026-05-02T10:24:48.264Z</time></trkpt><trkpt lat="46.1595792" lon="13.64513"><ele>665.0</ele><time>2026-05-02T10:24:49.263Z</time></trkpt><trkpt lat="46.1597202" lon="13.6451625"><ele>665.0</ele><time>2026-05-02T10:24:50.264Z</time></trkpt><trkpt lat="46.1598727" lon="13.6452054"><ele>665.0</ele><time>2026-05-02T10:24:51.263Z</time></trkpt><trkpt lat="46.1600286" lon="13.6452578"><ele>676.3333333333333</ele><time>2026-05-02T10:24:52.264Z</time></trkpt><trkpt lat="46.160179" lon="13.6453057"><ele>687.6666666666666</ele><time>2026-05-02T10:24:53.263Z</time></trkpt><trkpt lat="46.1603323" lon="13.6453436"><ele>699.0</ele><time>2026-05-02T10:24:54.264Z</time></trkpt><trkpt lat="46.1604824" lon="13.6453567"><ele>699.0</ele><time>2026-05-02T10:24:55.264Z</time></trkpt><trkpt lat="46.1606168" lon="13.6453293"><ele>699.0</ele><time>2026-05-02T10:24:56.264Z</time></trkpt><trkpt lat="46.1607369" lon="13.645271"><ele>699.0</ele><time>2026-05-02T10:24:57.263Z</time></trkpt><trkpt lat="46.1608361" lon="13.6451617"><ele>699.0</ele><time>2026-05-02T10:24:58.264Z</time></trkpt><trkpt lat="46.1609153" lon="13.6450345"><ele>697.2</ele><time>2026-05-02T10:24:59.263Z</time></trkpt><trkpt lat="46.1609934" lon="13.6449171"><ele>695.4000000000001</ele><time>2026-05-02T10:25:00.264Z</time></trkpt><trkpt lat="46.1610796" lon="13.6448218"><ele>693.6</ele><time>2026-05-02T10:25:01.264Z</time></trkpt><trkpt lat="46.1611822" lon="13.6447721"><ele>691.8</ele><time>2026-05-02T10:25:02.264Z</time></trkpt><trkpt lat="46.1612782" lon="13.6447386"><ele>690.0</ele><time>2026-05-02T10:25:03.263Z</time></trkpt><trkpt lat="46.1613668" lon="13.644699"><ele>690.0</ele><time>2026-05-02T10:25:04.264Z</time></trkpt><trkpt lat="46.1614427" lon="13.6446505"><ele>690.0</ele><time>2026-05-02T10:25:05.264Z</time></trkpt><trkpt lat="46.1615188" lon="13.6445859"><ele>690.0</ele><time>2026-05-02T10:25:06.264Z</time></trkpt><trkpt lat="46.1615943" lon="13.644512"><ele>690.0</ele><time>2026-05-02T10:25:07.264Z</time></trkpt><trkpt lat="46.1616778" lon="13.6444451"><ele>690.0</ele><time>2026-05-02T10:25:08.263Z</time></trkpt><trkpt lat="46.1617705" lon="13.6443823"><ele>689.8</ele><time>2026-05-02T10:25:09.263Z</time></trkpt><trkpt lat="46.1618687" lon="13.6443267"><ele>689.6</ele><time>2026-05-02T10:25:10.263Z</time></trkpt><trkpt lat="46.1619537" lon="13.6442433"><ele>689.4000000000001</ele><time>2026-05-02T10:25:11.264Z</time></trkpt><trkpt lat="46.1620201" lon="13.6441123"><ele>689.2</ele><time>2026-05-02T10:25:12.264Z</time></trkpt><trkpt lat="46.162079" lon="13.6439588"><ele>689.0</ele><time>2026-05-02T10:25:13.264Z</time></trkpt><trkpt lat="46.162127" lon="13.6438023"><ele>689.0</ele><time>2026-05-02T10:25:14.264Z</time></trkpt><trkpt lat="46.1621635" lon="13.6436409"><ele>689.0</ele><time>2026-05-02T10:25:15.263Z</time></trkpt><trkpt lat="46.1621989" lon="13.6434865"><ele>689.0</ele><time>2026-05-02T10:25:16.263Z</time></trkpt><trkpt lat="46.1622353" lon="13.6433483"><ele>689.0</ele><time>2026-05-02T10:25:17.264Z</time></trkpt><trkpt lat="46.1622808" lon="13.6432376"><ele>689.0</ele><time>2026-05-02T10:25:18.263Z</time></trkpt><trkpt lat="46.1623508" lon="13.6431319"><ele>690.0</ele><time>2026-05-02T10:25:19.264Z</time></trkpt><trkpt lat="46.1624358" lon="13.6430552"><ele>691.0</ele><time>2026-05-02T10:25:20.264Z</time></trkpt><trkpt lat="46.1625343" lon="13.6429949"><ele>692.0</ele><time>2026-05-02T10:25:21.264Z</time></trkpt><trkpt lat="46.162629" lon="13.6429137"><ele>693.0</ele><time>2026-05-02T10:25:22.263Z</time></trkpt><trkpt lat="46.1627294" lon="13.6428086"><ele>694.0</ele><time>2026-05-02T10:25:23.264Z</time></trkpt><trkpt lat="46.1628185" lon="13.6426638"><ele>694.0</ele><time>2026-05-02T10:25:24.263Z</time></trkpt><trkpt lat="46.1628996" lon="13.6425221"><ele>694.0</ele><time>2026-05-02T10:25:25.264Z</time></trkpt><trkpt lat="46.1629799" lon="13.6423864"><ele>694.0</ele><time>2026-05-02T10:25:26.263Z</time></trkpt><trkpt lat="46.1630521" lon="13.6422618"><ele>694.0</ele><time>2026-05-02T10:25:27.263Z</time></trkpt><trkpt lat="46.1631089" lon="13.6421546"><ele>694.0</ele><time>2026-05-02T10:25:28.264Z</time></trkpt><trkpt lat="46.1631807" lon="13.6420998"><ele>694.0</ele><time>2026-05-02T10:25:29.264Z</time></trkpt><trkpt lat="46.1632611" lon="13.6421286"><ele>694.0</ele><time>2026-05-02T10:25:30.263Z</time></trkpt><trkpt lat="46.1633333" lon="13.6421734"><ele>694.0</ele><time>2026-05-02T10:25:31.264Z</time></trkpt><trkpt lat="46.1634058" lon="13.6422434"><ele>694.0</ele><time>2026-05-02T10:25:32.264Z</time></trkpt><trkpt lat="46.1634723" lon="13.642344"><ele>694.0</ele><time>2026-05-02T10:25:33.264Z</time></trkpt><trkpt lat="46.1635245" lon="13.6424789"><ele>700.0</ele><time>2026-05-02T10:25:34.264Z</time></trkpt><trkpt lat="46.1635729" lon="13.6426036"><ele>706.0</ele><time>2026-05-02T10:25:35.263Z</time></trkpt><trkpt lat="46.1636237" lon="13.6427254"><ele>712.0</ele><time>2026-05-02T10:25:36.263Z</time></trkpt><trkpt lat="46.1636975" lon="13.6428277"><ele>718.0</ele><time>2026-05-02T10:25:37.264Z</time></trkpt><trkpt lat="46.1637937" lon="13.6429287"><ele>724.0</ele><time>2026-05-02T10:25:38.263Z</time></trkpt><trkpt lat="46.1639024" lon="13.6430069"><ele>725.0</ele><time>2026-05-02T10:25:39.264Z</time></trkpt><trkpt lat="46.1640148" lon="13.6430787"><ele>726.0</ele><time>2026-05-02T10:25:40.264Z</time></trkpt><trkpt lat="46.1641403" lon="13.6431126"><ele>727.0</ele><time>2026-05-02T10:25:41.264Z</time></trkpt><trkpt lat="46.1642773" lon="13.6430795"><ele>728.0</ele><time>2026-05-02T10:25:42.263Z</time></trkpt><trkpt lat="46.1644123" lon="13.6430262"><ele>728.0</ele><time>2026-05-02T10:25:43.264Z</time></trkpt><trkpt lat="46.1645399" lon="13.6429545"><ele>728.0</ele><time>2026-05-02T10:25:44.263Z</time></trkpt><trkpt lat="46.1646594" lon="13.642862"><ele>728.0</ele><time>2026-05-02T10:25:45.263Z</time></trkpt><trkpt lat="46.1647765" lon="13.6427448"><ele>728.0</ele><time>2026-05-02T10:25:46.264Z</time></trkpt><trkpt lat="46.1648839" lon="13.6426225"><ele>727.75</ele><time>2026-05-02T10:25:47.264Z</time></trkpt><trkpt lat="46.1649806" lon="13.642515"><ele>727.5</ele><time>2026-05-02T10:25:48.264Z</time></trkpt><trkpt lat="46.1650684" lon="13.6424042"><ele>727.25</ele><time>2026-05-02T10:25:49.264Z</time></trkpt><trkpt lat="46.1651483" lon="13.6422854"><ele>727.0</ele><time>2026-05-02T10:25:50.264Z</time></trkpt><trkpt lat="46.1652242" lon="13.6421653"><ele>727.0</ele><time>2026-05-02T10:25:51.263Z</time></trkpt><trkpt lat="46.1652927" lon="13.6420597"><ele>727.0</ele><time>2026-05-02T10:25:52.264Z</time></trkpt><trkpt lat="46.1653642" lon="13.6419791"><ele>727.0</ele><time>2026-05-02T10:25:53.263Z</time></trkpt><trkpt lat="46.1654613" lon="13.641957"><ele>727.0</ele><time>2026-05-02T10:25:54.264Z</time></trkpt><trkpt lat="46.1655782" lon="13.6419958"><ele>727.0</ele><time>2026-05-02T10:25:55.264Z</time></trkpt><trkpt lat="46.1656899" lon="13.6420328"><ele>726.75</ele><time>2026-05-02T10:25:56.263Z</time></trkpt><trkpt lat="46.1658085" lon="13.642072"><ele>726.5</ele><time>2026-05-02T10:25:57.263Z</time></trkpt><trkpt lat="46.1659336" lon="13.6420663"><ele>726.25</ele><time>2026-05-02T10:25:58.264Z</time></trkpt><trkpt lat="46.1660646" lon="13.6420152"><ele>726.0</ele><time>2026-05-02T10:25:59.264Z</time></trkpt><trkpt lat="46.1661925" lon="13.6419637"><ele>726.5999999999999</ele><time>2026-05-02T10:26:00.264Z</time></trkpt><trkpt lat="46.166314" lon="13.6419124"><ele>727.2</ele><time>2026-05-02T10:26:01.264Z</time></trkpt><trkpt lat="46.1664204" lon="13.6418374"><ele>727.8</ele><time>2026-05-02T10:26:02.264Z</time></trkpt><trkpt lat="46.1665129" lon="13.6417673"><ele>728.4000000000001</ele><time>2026-05-02T10:26:03.264Z</time></trkpt><trkpt lat="46.1665862" lon="13.6416967"><ele>729.0</ele><time>2026-05-02T10:26:04.264Z</time></trkpt><trkpt lat="46.1666577" lon="13.6416072"><ele>729.0</ele><time>2026-05-02T10:26:05.263Z</time></trkpt><trkpt lat="46.1667174" lon="13.6415008"><ele>729.0</ele><time>2026-05-02T10:26:06.264Z</time></trkpt><trkpt lat="46.1667632" lon="13.6413792"><ele>729.0</ele><time>2026-05-02T10:26:07.263Z</time></trkpt><trkpt lat="46.1668035" lon="13.6412597"><ele>729.0</ele><time>2026-05-02T10:26:08.264Z</time></trkpt><trkpt lat="46.1668373" lon="13.6411525"><ele>729.0</ele><time>2026-05-02T10:26:09.262Z</time></trkpt><trkpt lat="46.1668625" lon="13.6410454"><ele>729.0</ele><time>2026-05-02T10:26:10.263Z</time></trkpt><trkpt lat="46.1668769" lon="13.6409168"><ele>729.0</ele><time>2026-05-02T10:26:11.262Z</time></trkpt><trkpt lat="46.1668936" lon="13.6407805"><ele>729.0</ele><time>2026-05-02T10:26:12.263Z</time></trkpt><trkpt lat="46.1669098" lon="13.6406376"><ele>729.0</ele><time>2026-05-02T10:26:13.263Z</time></trkpt><trkpt lat="46.1669299" lon="13.6404936"><ele>729.0</ele><time>2026-05-02T10:26:14.262Z</time></trkpt><trkpt lat="46.1669551" lon="13.640335"><ele>729.0</ele><time>2026-05-02T10:26:15.262Z</time></trkpt><trkpt lat="46.1669771" lon="13.6401878"><ele>727.5</ele><time>2026-05-02T10:26:16.263Z</time></trkpt><trkpt lat="46.1670009" lon="13.6400682"><ele>726.0</ele><time>2026-05-02T10:26:17.263Z</time></trkpt><trkpt lat="46.1670472" lon="13.6399833"><ele>724.5</ele><time>2026-05-02T10:26:18.263Z</time></trkpt><trkpt lat="46.1671071" lon="13.6399336"><ele>723.0</ele><time>2026-05-02T10:26:19.262Z</time></trkpt><trkpt lat="46.167176" lon="13.6399425"><ele>721.5</ele><time>2026-05-02T10:26:20.262Z</time></trkpt><trkpt lat="46.1672585" lon="13.6400061"><ele>720.0</ele><time>2026-05-02T10:26:21.262Z</time></trkpt><trkpt lat="46.1673578" lon="13.6400847"><ele>722.0</ele><time>2026-05-02T10:26:22.262Z</time></trkpt><trkpt lat="46.1674592" lon="13.640145"><ele>724.0</ele><time>2026-05-02T10:26:23.262Z</time></trkpt><trkpt lat="46.1675589" lon="13.6401959"><ele>726.0</ele><time>2026-05-02T10:26:24.263Z</time></trkpt><trkpt lat="46.1676546" lon="13.6402402"><ele>728.0</ele><time>2026-05-02T10:26:25.262Z</time></trkpt><trkpt lat="46.1677459" lon="13.6402939"><ele>730.0</ele><time>2026-05-02T10:26:26.262Z</time></trkpt><trkpt lat="46.1678302" lon="13.6403747"><ele>727.0</ele><time>2026-05-02T10:26:27.262Z</time></trkpt><trkpt lat="46.1679089" lon="13.6404822"><ele>724.0</ele><time>2026-05-02T10:26:28.263Z</time></trkpt><trkpt lat="46.1679907" lon="13.6405976"><ele>721.0</ele><time>2026-05-02T10:26:29.262Z</time></trkpt><trkpt lat="46.1680861" lon="13.6406827"><ele>718.0</ele><time>2026-05-02T10:26:30.262Z</time></trkpt><trkpt lat="46.1681945" lon="13.6407755"><ele>718.0</ele><time>2026-05-02T10:26:31.263Z</time></trkpt><trkpt lat="46.1682966" lon="13.6408683"><ele>718.0</ele><time>2026-05-02T10:26:32.263Z</time></trkpt><trkpt lat="46.1683898" lon="13.6409697"><ele>718.0</ele><time>2026-05-02T10:26:33.262Z</time></trkpt><trkpt lat="46.1684651" lon="13.6410748"><ele>718.0</ele><time>2026-05-02T10:26:34.263Z</time></trkpt><trkpt lat="46.1685574" lon="13.6411978"><ele>719.25</ele><time>2026-05-02T10:26:35.262Z</time></trkpt><trkpt lat="46.1686618" lon="13.6413172"><ele>720.5</ele><time>2026-05-02T10:26:36.263Z</time></trkpt><trkpt lat="46.1687543" lon="13.6414572"><ele>721.75</ele><time>2026-05-02T10:26:37.263Z</time></trkpt><trkpt lat="46.1688246" lon="13.6416092"><ele>723.0</ele><time>2026-05-02T10:26:38.263Z</time></trkpt><trkpt lat="46.1688833" lon="13.6417797"><ele>723.0</ele><time>2026-05-02T10:26:39.263Z</time></trkpt><trkpt lat="46.1689428" lon="13.6419387"><ele>723.0</ele><time>2026-05-02T10:26:40.263Z</time></trkpt><trkpt lat="46.1690234" lon="13.6420562"><ele>723.0</ele><time>2026-05-02T10:26:41.263Z</time></trkpt><trkpt lat="46.1691211" lon="13.6421639"><ele>723.0</ele><time>2026-05-02T10:26:42.262Z</time></trkpt><trkpt lat="46.1692387" lon="13.6422097"><ele>717.25</ele><time>2026-05-02T10:26:43.262Z</time></trkpt><trkpt lat="46.1693738" lon="13.6422163"><ele>711.5</ele><time>2026-05-02T10:26:44.262Z</time></trkpt><trkpt lat="46.1695031" lon="13.6422192"><ele>705.75</ele><time>2026-05-02T10:26:45.262Z</time></trkpt><trkpt lat="46.1696338" lon="13.6422211"><ele>700.0</ele><time>2026-05-02T10:26:46.262Z</time></trkpt><trkpt lat="46.169762" lon="13.6422089"><ele>705.5</ele><time>2026-05-02T10:26:47.262Z</time></trkpt><trkpt lat="46.1698919" lon="13.642202"><ele>711.0</ele><time>2026-05-02T10:26:48.262Z</time></trkpt><trkpt lat="46.170015" lon="13.6421916"><ele>716.5</ele><time>2026-05-02T10:26:49.262Z</time></trkpt><trkpt lat="46.1701318" lon="13.6421623"><ele>722.0</ele><time>2026-05-02T10:26:50.263Z</time></trkpt><trkpt lat="46.1702607" lon="13.6421099"><ele>722.0</ele><time>2026-05-02T10:26:51.263Z</time></trkpt><trkpt lat="46.1703712" lon="13.6420398"><ele>722.0</ele><time>2026-05-02T10:26:52.263Z</time></trkpt><trkpt lat="46.1704718" lon="13.6419888"><ele>722.0</ele><time>2026-05-02T10:26:53.263Z</time></trkpt><trkpt lat="46.1705724" lon="13.641955"><ele>722.0</ele><time>2026-05-02T10:26:54.263Z</time></trkpt><trkpt lat="46.1706792" lon="13.6419359"><ele>722.0</ele><time>2026-05-02T10:26:55.262Z</time></trkpt><trkpt lat="46.1707853" lon="13.6419377"><ele>721.5</ele><time>2026-05-02T10:26:56.262Z</time></trkpt><trkpt lat="46.170904" lon="13.6419528"><ele>721.0</ele><time>2026-05-02T10:26:57.262Z</time></trkpt><trkpt lat="46.1710122" lon="13.6419621"><ele>720.5</ele><time>2026-05-02T10:26:58.262Z</time></trkpt><trkpt lat="46.1711265" lon="13.641959"><ele>720.0</ele><time>2026-05-02T10:26:59.262Z</time></trkpt><trkpt lat="46.171246" lon="13.641946"><ele>720.0</ele><time>2026-05-02T10:27:00.262Z</time></trkpt><trkpt lat="46.1713622" lon="13.6418983"><ele>720.0</ele><time>2026-05-02T10:27:01.262Z</time></trkpt><trkpt lat="46.1714938" lon="13.6418439"><ele>720.0</ele><time>2026-05-02T10:27:02.263Z</time></trkpt><trkpt lat="46.1716061" lon="13.6417814"><ele>720.0</ele><time>2026-05-02T10:27:03.263Z</time></trkpt><trkpt lat="46.1717057" lon="13.6417186"><ele>723.0</ele><time>2026-05-02T10:27:04.262Z</time></trkpt><trkpt lat="46.1718045" lon="13.6416991"><ele>726.0</ele><time>2026-05-02T10:27:05.263Z</time></trkpt><trkpt lat="46.1718961" lon="13.6417137"><ele>729.0</ele><time>2026-05-02T10:27:06.262Z</time></trkpt><trkpt lat="46.1719937" lon="13.6417591"><ele>732.0</ele><time>2026-05-02T10:27:07.263Z</time></trkpt><trkpt lat="46.1720804" lon="13.6418181"><ele>735.0</ele><time>2026-05-02T10:27:08.263Z</time></trkpt><trkpt lat="46.1721598" lon="13.6418627"><ele>735.0</ele><time>2026-05-02T10:27:09.262Z</time></trkpt><trkpt lat="46.1722595" lon="13.6418741"><ele>735.0</ele><time>2026-05-02T10:27:10.262Z</time></trkpt><trkpt lat="46.1723621" lon="13.6418511"><ele>735.0</ele><time>2026-05-02T10:27:11.262Z</time></trkpt><trkpt lat="46.1724654" lon="13.641815"><ele>735.0</ele><time>2026-05-02T10:27:12.263Z</time></trkpt><trkpt lat="46.1725738" lon="13.6417857"><ele>735.0</ele><time>2026-05-02T10:27:13.262Z</time></trkpt><trkpt lat="46.1726774" lon="13.6417549"><ele>737.2</ele><time>2026-05-02T10:27:14.262Z</time></trkpt><trkpt lat="46.1727782" lon="13.6417182"><ele>739.4</ele><time>2026-05-02T10:27:15.262Z</time></trkpt><trkpt lat="46.1728722" lon="13.641698"><ele>741.5999999999999</ele><time>2026-05-02T10:27:16.263Z</time></trkpt><trkpt lat="46.1729682" lon="13.6416933"><ele>743.8</ele><time>2026-05-02T10:27:17.262Z</time></trkpt><trkpt lat="46.1730716" lon="13.6416958"><ele>746.0</ele><time>2026-05-02T10:27:18.262Z</time></trkpt><trkpt lat="46.1731736" lon="13.6417086"><ele>748.0</ele><time>2026-05-02T10:27:19.263Z</time></trkpt><trkpt lat="46.1732675" lon="13.6417062"><ele>750.0</ele><time>2026-05-02T10:27:20.263Z</time></trkpt><trkpt lat="46.173384" lon="13.6416945"><ele>752.0</ele><time>2026-05-02T10:27:21.262Z</time></trkpt><trkpt lat="46.173502" lon="13.6416668"><ele>754.0</ele><time>2026-05-02T10:27:22.263Z</time></trkpt><trkpt lat="46.1736168" lon="13.6416363"><ele>756.0</ele><time>2026-05-02T10:27:23.262Z</time></trkpt><trkpt lat="46.1737345" lon="13.6416019"><ele>756.0</ele><time>2026-05-02T10:27:24.262Z</time></trkpt><trkpt lat="46.1738428" lon="13.641538"><ele>756.0</ele><time>2026-05-02T10:27:25.263Z</time></trkpt><trkpt lat="46.1739501" lon="13.6414882"><ele>756.0</ele><time>2026-05-02T10:27:26.263Z</time></trkpt><trkpt lat="46.1740521" lon="13.6414418"><ele>756.0</ele><time>2026-05-02T10:27:27.263Z</time></trkpt><trkpt lat="46.1741507" lon="13.6414153"><ele>756.0</ele><time>2026-05-02T10:27:28.262Z</time></trkpt><trkpt lat="46.1742421" lon="13.6414052"><ele>757.0</ele><time>2026-05-02T10:27:29.262Z</time></trkpt><trkpt lat="46.1743256" lon="13.6414403"><ele>758.0</ele><time>2026-05-02T10:27:30.262Z</time></trkpt><trkpt lat="46.1743915" lon="13.6415056"><ele>759.0</ele><time>2026-05-02T10:27:31.263Z</time></trkpt><trkpt lat="46.1744299" lon="13.6415948"><ele>760.0</ele><time>2026-05-02T10:27:32.263Z</time></trkpt><trkpt lat="46.1744294" lon="13.6417196"><ele>761.0</ele><time>2026-05-02T10:27:33.263Z</time></trkpt><trkpt lat="46.1744086" lon="13.6418511"><ele>762.0</ele><time>2026-05-02T10:27:34.263Z</time></trkpt><trkpt lat="46.1743811" lon="13.6419953"><ele>764.75</ele><time>2026-05-02T10:27:35.263Z</time></trkpt><trkpt lat="46.1743402" lon="13.6421597"><ele>767.5</ele><time>2026-05-02T10:27:36.263Z</time></trkpt><trkpt lat="46.174298" lon="13.6423227"><ele>770.25</ele><time>2026-05-02T10:27:37.262Z</time></trkpt><trkpt lat="46.1742434" lon="13.6425044"><ele>773.0</ele><time>2026-05-02T10:27:38.263Z</time></trkpt><trkpt lat="46.1741903" lon="13.6426863"><ele>773.0</ele><time>2026-05-02T10:27:39.263Z</time></trkpt><trkpt lat="46.1741432" lon="13.6428601"><ele>773.0</ele><time>2026-05-02T10:27:40.263Z</time></trkpt><trkpt lat="46.1740946" lon="13.6430393"><ele>773.0</ele><time>2026-05-02T10:27:41.262Z</time></trkpt><trkpt lat="46.1740553" lon="13.643235"><ele>773.0</ele><time>2026-05-02T10:27:42.262Z</time></trkpt><trkpt lat="46.1740222" lon="13.643426"><ele>779.75</ele><time>2026-05-02T10:27:43.262Z</time></trkpt><trkpt lat="46.1739975" lon="13.6436232"><ele>786.5</ele><time>2026-05-02T10:27:44.262Z</time></trkpt><trkpt lat="46.1739769" lon="13.6438288"><ele>793.25</ele><time>2026-05-02T10:27:45.263Z</time></trkpt><trkpt lat="46.1739523" lon="13.6440529"><ele>800.0</ele><time>2026-05-02T10:27:46.262Z</time></trkpt><trkpt lat="46.1739378" lon="13.6442744"><ele>791.3333333333334</ele><time>2026-05-02T10:27:47.262Z</time></trkpt><trkpt lat="46.1739256" lon="13.6444969"><ele>782.6666666666667</ele><time>2026-05-02T10:27:48.262Z</time></trkpt><trkpt lat="46.1739107" lon="13.6447292"><ele>774.0</ele><time>2026-05-02T10:27:49.263Z</time></trkpt><trkpt lat="46.1738936" lon="13.6449448"><ele>774.0</ele><time>2026-05-02T10:27:50.263Z</time></trkpt><trkpt lat="46.1738923" lon="13.6451532"><ele>774.0</ele><time>2026-05-02T10:27:51.263Z</time></trkpt><trkpt lat="46.1738923" lon="13.6453655"><ele>774.0</ele><time>2026-05-02T10:27:52.263Z</time></trkpt><trkpt lat="46.1738947" lon="13.6455582"><ele>774.0</ele><time>2026-05-02T10:27:53.262Z</time></trkpt><trkpt lat="46.1738964" lon="13.6457485"><ele>769.75</ele><time>2026-05-02T10:27:54.262Z</time></trkpt><trkpt lat="46.1739057" lon="13.6459321"><ele>765.5</ele><time>2026-05-02T10:27:55.262Z</time></trkpt><trkpt lat="46.1739318" lon="13.6461036"><ele>761.25</ele><time>2026-05-02T10:27:56.262Z</time></trkpt><trkpt lat="46.1739914" lon="13.6462695"><ele>757.0</ele><time>2026-05-02T10:27:57.262Z</time></trkpt><trkpt lat="46.1740705" lon="13.6464333"><ele>757.0</ele><time>2026-05-02T10:27:58.262Z</time></trkpt><trkpt lat="46.1741725" lon="13.6465777"><ele>757.0</ele><time>2026-05-02T10:27:59.263Z</time></trkpt><trkpt lat="46.1742539" lon="13.6467383"><ele>757.0</ele><time>2026-05-02T10:28:00.263Z</time></trkpt><trkpt lat="46.1743294" lon="13.6468889"><ele>757.0</ele><time>2026-05-02T10:28:01.263Z</time></trkpt><trkpt lat="46.1743882" lon="13.6470394"><ele>755.4000000000001</ele><time>2026-05-02T10:28:02.263Z</time></trkpt><trkpt lat="46.1744389" lon="13.6471794"><ele>753.8000000000001</ele><time>2026-05-02T10:28:03.262Z</time></trkpt><trkpt lat="46.1744921" lon="13.6473187"><ele>752.2</ele><time>2026-05-02T10:28:04.263Z</time></trkpt><trkpt lat="46.1745406" lon="13.6474455"><ele>750.6</ele><time>2026-05-02T10:28:05.263Z</time></trkpt><trkpt lat="46.1746087" lon="13.6475655"><ele>749.0</ele><time>2026-05-02T10:28:06.262Z</time></trkpt><trkpt lat="46.1746871" lon="13.6476703"><ele>749.0</ele><time>2026-05-02T10:28:07.262Z</time></trkpt><trkpt lat="46.1747769" lon="13.6477669"><ele>749.0</ele><time>2026-05-02T10:28:08.262Z</time></trkpt><trkpt lat="46.1748707" lon="13.6478216"><ele>749.0</ele><time>2026-05-02T10:28:09.263Z</time></trkpt><trkpt lat="46.1749705" lon="13.6478345"><ele>749.0</ele><time>2026-05-02T10:28:10.263Z</time></trkpt><trkpt lat="46.1750809" lon="13.6478348"><ele>749.0</ele><time>2026-05-02T10:28:11.262Z</time></trkpt><trkpt lat="46.175202" lon="13.6478276"><ele>750.0</ele><time>2026-05-02T10:28:12.262Z</time></trkpt><trkpt lat="46.1753374" lon="13.6478189"><ele>751.0</ele><time>2026-05-02T10:28:13.263Z</time></trkpt><trkpt lat="46.1754798" lon="13.6478003"><ele>752.0</ele><time>2026-05-02T10:28:14.262Z</time></trkpt><trkpt lat="46.1756261" lon="13.6477619"><ele>753.0</ele><time>2026-05-02T10:28:15.262Z</time></trkpt><trkpt lat="46.1757672" lon="13.6476945"><ele>754.75</ele><time>2026-05-02T10:28:16.262Z</time></trkpt><trkpt lat="46.1759005" lon="13.6476099"><ele>756.5</ele><time>2026-05-02T10:28:17.262Z</time></trkpt><trkpt lat="46.1760275" lon="13.6475339"><ele>758.25</ele><time>2026-05-02T10:28:18.263Z</time></trkpt><trkpt lat="46.1761515" lon="13.6474613"><ele>760.0</ele><time>2026-05-02T10:28:19.262Z</time></trkpt><trkpt lat="46.1762702" lon="13.6474261"><ele>760.0</ele><time>2026-05-02T10:28:20.263Z</time></trkpt><trkpt lat="46.1763848" lon="13.6474139"><ele>760.0</ele><time>2026-05-02T10:28:21.262Z</time></trkpt><trkpt lat="46.1764865" lon="13.6473971"><ele>760.0</ele><time>2026-05-02T10:28:22.263Z</time></trkpt><trkpt lat="46.1765852" lon="13.6474059"><ele>760.0</ele><time>2026-05-02T10:28:23.262Z</time></trkpt><trkpt lat="46.1766799" lon="13.6474408"><ele>760.0</ele><time>2026-05-02T10:28:24.262Z</time></trkpt><trkpt lat="46.1767806" lon="13.6474805"><ele>763.25</ele><time>2026-05-02T10:28:25.262Z</time></trkpt><trkpt lat="46.1768911" lon="13.6475266"><ele>766.5</ele><time>2026-05-02T10:28:26.262Z</time></trkpt><trkpt lat="46.1770144" lon="13.6475653"><ele>769.75</ele><time>2026-05-02T10:28:27.263Z</time></trkpt><trkpt lat="46.1771497" lon="13.6475991"><ele>773.0</ele><time>2026-05-02T10:28:28.262Z</time></trkpt><trkpt lat="46.1772873" lon="13.6476261"><ele>774.5</ele><time>2026-05-02T10:28:29.263Z</time></trkpt><trkpt lat="46.1774318" lon="13.6476239"><ele>776.0</ele><time>2026-05-02T10:28:30.262Z</time></trkpt><trkpt lat="46.1775727" lon="13.6476066"><ele>777.5</ele><time>2026-05-02T10:28:31.263Z</time></trkpt><trkpt lat="46.1777063" lon="13.6475695"><ele>779.0</ele><time>2026-05-02T10:28:32.263Z</time></trkpt><trkpt lat="46.1778175" lon="13.6475373"><ele>779.0</ele><time>2026-05-02T10:28:33.262Z</time></trkpt><trkpt lat="46.1779057" lon="13.6474834"><ele>779.0</ele><time>2026-05-02T10:28:34.263Z</time></trkpt><trkpt lat="46.1779952" lon="13.6474211"><ele>779.0</ele><time>2026-05-02T10:28:35.263Z</time></trkpt><trkpt lat="46.1780814" lon="13.6473559"><ele>779.0</ele><time>2026-05-02T10:28:36.262Z</time></trkpt><trkpt lat="46.1781632" lon="13.6473124"><ele>779.0</ele><time>2026-05-02T10:28:37.263Z</time></trkpt><trkpt lat="46.1782491" lon="13.6473138"><ele>781.4000000000001</ele><time>2026-05-02T10:28:38.262Z</time></trkpt><trkpt lat="46.178342" lon="13.6473514"><ele>783.8</ele><time>2026-05-02T10:28:39.262Z</time></trkpt><trkpt lat="46.1784369" lon="13.6473942"><ele>786.2</ele><time>2026-05-02T10:28:40.262Z</time></trkpt><trkpt lat="46.1785324" lon="13.6474224"><ele>788.5999999999999</ele><time>2026-05-02T10:28:41.262Z</time></trkpt><trkpt lat="46.178628" lon="13.6474358"><ele>791.0</ele><time>2026-05-02T10:28:42.263Z</time></trkpt><trkpt lat="46.1787116" lon="13.6474596"><ele>791.0000000000001</ele><time>2026-05-02T10:28:43.262Z</time></trkpt><trkpt lat="46.1787917" lon="13.6475082"><ele>791.0</ele><time>2026-05-02T10:28:44.262Z</time></trkpt><trkpt lat="46.1788561" lon="13.6475682"><ele>791.0</ele><time>2026-05-02T10:28:45.262Z</time></trkpt><trkpt lat="46.1788814" lon="13.6476836"><ele>791.0</ele><time>2026-05-02T10:28:46.262Z</time></trkpt><trkpt lat="46.178894" lon="13.6478054"><ele>791.0000000000001</ele><time>2026-05-02T10:28:47.263Z</time></trkpt><trkpt lat="46.178906" lon="13.6479436"><ele>791.0</ele><time>2026-05-02T10:28:48.262Z</time></trkpt><trkpt lat="46.1789289" lon="13.6480784"><ele>793.5999999999999</ele><time>2026-05-02T10:28:49.262Z</time></trkpt><trkpt lat="46.1789574" lon="13.6482239"><ele>796.2</ele><time>2026-05-02T10:28:50.263Z</time></trkpt><trkpt lat="46.1789877" lon="13.6483618"><ele>798.8</ele><time>2026-05-02T10:28:51.262Z</time></trkpt><trkpt lat="46.1790168" lon="13.6485108"><ele>801.4000000000001</ele><time>2026-05-02T10:28:52.262Z</time></trkpt><trkpt lat="46.1790594" lon="13.6486559"><ele>804.0</ele><time>2026-05-02T10:28:53.262Z</time></trkpt><trkpt lat="46.1791151" lon="13.6488252"><ele>804.0</ele><time>2026-05-02T10:28:54.262Z</time></trkpt><trkpt lat="46.1791663" lon="13.6490168"><ele>804.0</ele><time>2026-05-02T10:28:55.263Z</time></trkpt><trkpt lat="46.1792021" lon="13.6492164"><ele>804.0</ele><time>2026-05-02T10:28:56.262Z</time></trkpt><trkpt lat="46.17923" lon="13.649406"><ele>804.0</ele><time>2026-05-02T10:28:57.262Z</time></trkpt><trkpt lat="46.1792503" lon="13.6495916"><ele>807.75</ele><time>2026-05-02T10:28:58.262Z</time></trkpt><trkpt lat="46.1792721" lon="13.6497759"><ele>811.5</ele><time>2026-05-02T10:28:59.263Z</time></trkpt><trkpt lat="46.1793082" lon="13.6499612"><ele>815.25</ele><time>2026-05-02T10:29:00.262Z</time></trkpt><trkpt lat="46.1793307" lon="13.6501546"><ele>819.0</ele><time>2026-05-02T10:29:01.263Z</time></trkpt><trkpt lat="46.1793479" lon="13.6503317"><ele>820.2</ele><time>2026-05-02T10:29:02.263Z</time></trkpt><trkpt lat="46.1793511" lon="13.6504938"><ele>821.4000000000001</ele><time>2026-05-02T10:29:03.263Z</time></trkpt><trkpt lat="46.1793555" lon="13.6506414"><ele>822.6</ele><time>2026-05-02T10:29:04.263Z</time></trkpt><trkpt lat="46.1793686" lon="13.6507781"><ele>823.8</ele><time>2026-05-02T10:29:05.263Z</time></trkpt><trkpt lat="46.1793697" lon="13.6509061"><ele>825.0</ele><time>2026-05-02T10:29:06.262Z</time></trkpt><trkpt lat="46.1793598" lon="13.6510434"><ele>825.6</ele><time>2026-05-02T10:29:07.262Z</time></trkpt><trkpt lat="46.179335" lon="13.6511955"><ele>826.2</ele><time>2026-05-02T10:29:08.262Z</time></trkpt><trkpt lat="46.1793042" lon="13.6513568"><ele>826.8</ele><time>2026-05-02T10:29:09.262Z</time></trkpt><trkpt lat="46.1792778" lon="13.6515123"><ele>827.4</ele><time>2026-05-02T10:29:10.263Z</time></trkpt><trkpt lat="46.1792512" lon="13.6516485"><ele>828.0</ele><time>2026-05-02T10:29:11.263Z</time></trkpt><trkpt lat="46.1792343" lon="13.6517862"><ele>828.0</ele><time>2026-05-02T10:29:12.262Z</time></trkpt><trkpt lat="46.179244" lon="13.6519095"><ele>828.0</ele><time>2026-05-02T10:29:13.262Z</time></trkpt><trkpt lat="46.1792611" lon="13.6520389"><ele>828.0</ele><time>2026-05-02T10:29:14.262Z</time></trkpt><trkpt lat="46.1792891" lon="13.6521752"><ele>828.0</ele><time>2026-05-02T10:29:15.263Z</time></trkpt><trkpt lat="46.1793238" lon="13.6523042"><ele>828.0</ele><time>2026-05-02T10:29:16.263Z</time></trkpt><trkpt lat="46.1793929" lon="13.6524397"><ele>830.0</ele><time>2026-05-02T10:29:17.262Z</time></trkpt><trkpt lat="46.1794752" lon="13.6525539"><ele>832.0</ele><time>2026-05-02T10:29:18.263Z</time></trkpt><trkpt lat="46.1795497" lon="13.6526551"><ele>834.0</ele><time>2026-05-02T10:29:19.263Z</time></trkpt><trkpt lat="46.1796088" lon="13.6527688"><ele>836.0</ele><time>2026-05-02T10:29:20.263Z</time></trkpt><trkpt lat="46.1796546" lon="13.6528987"><ele>838.0</ele><time>2026-05-02T10:29:21.263Z</time></trkpt><trkpt lat="46.1796799" lon="13.6530251"><ele>840.3333333333333</ele><time>2026-05-02T10:29:22.263Z</time></trkpt><trkpt lat="46.1797023" lon="13.6531165"><ele>842.6666666666666</ele><time>2026-05-02T10:29:23.262Z</time></trkpt><trkpt lat="46.1797277" lon="13.6532009"><ele>845.0</ele><time>2026-05-02T10:29:24.263Z</time></trkpt><trkpt lat="46.1798015" lon="13.6532983"><ele>847.3333333333333</ele><time>2026-05-02T10:29:26.262Z</time></trkpt><trkpt lat="46.1799042" lon="13.6533087"><ele>849.6666666666666</ele><time>2026-05-02T10:29:28.263Z</time></trkpt><trkpt lat="46.1799905" lon="13.6533066"><ele>852.0</ele><time>2026-05-02T10:29:30.263Z</time></trkpt><trkpt lat="46.1800692" lon="13.6532788"><ele>846.3333333333334</ele><time>2026-05-02T10:29:32.262Z</time></trkpt><trkpt lat="46.1801489" lon="13.6532534"><ele>840.6666666666667</ele><time>2026-05-02T10:29:34.263Z</time></trkpt><trkpt lat="46.1802361" lon="13.6532829"><ele>835.0</ele><time>2026-05-02T10:29:36.263Z</time></trkpt><trkpt lat="46.1803113" lon="13.6533005"><ele>829.3333333333334</ele><time>2026-05-02T10:29:38.263Z</time></trkpt><trkpt lat="46.1803843" lon="13.6533202"><ele>823.6666666666667</ele><time>2026-05-02T10:29:40.262Z</time></trkpt><trkpt lat="46.1804681" lon="13.653325"><ele>818.0</ele><time>2026-05-02T10:29:42.262Z</time></trkpt><trkpt lat="46.1805389" lon="13.6533237"><ele>818.0</ele><time>2026-05-02T10:29:44.263Z</time></trkpt><trkpt lat="46.1806048" lon="13.6532511"><ele>818.0</ele><time>2026-05-02T10:29:47.263Z</time></trkpt><trkpt lat="46.1806681" lon="13.653136"><ele>818.0</ele><time>2026-05-02T10:29:50.263Z</time></trkpt><trkpt lat="46.1807232" lon="13.6530182"><ele>818.0</ele><time>2026-05-02T10:29:52.262Z</time></trkpt><trkpt lat="46.1807665" lon="13.6528524"><ele>818.0</ele><time>2026-05-02T10:29:54.262Z</time></trkpt><trkpt lat="46.18079" lon="13.6527662"><ele>817.8</ele><time>2026-05-02T10:29:55.262Z</time></trkpt><trkpt lat="46.1808145" lon="13.6526627"><ele>817.5999999999999</ele><time>2026-05-02T10:29:56.263Z</time></trkpt><trkpt lat="46.1808384" lon="13.6525491"><ele>817.4000000000001</ele><time>2026-05-02T10:29:57.263Z</time></trkpt><trkpt lat="46.1808563" lon="13.6524059"><ele>817.2</ele><time>2026-05-02T10:29:58.263Z</time></trkpt><trkpt lat="46.1808721" lon="13.6522529"><ele>817.0</ele><time>2026-05-02T10:29:59.263Z</time></trkpt><trkpt lat="46.1809012" lon="13.6520758"><ele>813.0</ele><time>2026-05-02T10:30:00.262Z</time></trkpt><trkpt lat="46.1809296" lon="13.6518967"><ele>809.0</ele><time>2026-05-02T10:30:01.262Z</time></trkpt><trkpt lat="46.1809595" lon="13.6517204"><ele>805.0</ele><time>2026-05-02T10:30:02.262Z</time></trkpt><trkpt lat="46.1809967" lon="13.6515442"><ele>801.0</ele><time>2026-05-02T10:30:03.263Z</time></trkpt><trkpt lat="46.1810535" lon="13.6513626"><ele>801.0</ele><time>2026-05-02T10:30:04.263Z</time></trkpt><trkpt lat="46.1811142" lon="13.6511722"><ele>801.0</ele><time>2026-05-02T10:30:05.262Z</time></trkpt><trkpt lat="46.1811644" lon="13.6509683"><ele>801.0</ele><time>2026-05-02T10:30:06.263Z</time></trkpt><trkpt lat="46.1812177" lon="13.6507532"><ele>794.3333333333333</ele><time>2026-05-02T10:30:07.263Z</time></trkpt><trkpt lat="46.1812694" lon="13.6505243"><ele>787.6666666666666</ele><time>2026-05-02T10:30:08.263Z</time></trkpt><trkpt lat="46.1813274" lon="13.6502989"><ele>781.0</ele><time>2026-05-02T10:30:09.262Z</time></trkpt><trkpt lat="46.1813731" lon="13.6500679"><ele>776.6666666666666</ele><time>2026-05-02T10:30:10.263Z</time></trkpt><trkpt lat="46.1814076" lon="13.6498295"><ele>772.3333333333333</ele><time>2026-05-02T10:30:11.262Z</time></trkpt><trkpt lat="46.181441" lon="13.6495886"><ele>768.0</ele><time>2026-05-02T10:30:12.262Z</time></trkpt><trkpt lat="46.1814849" lon="13.6493512"><ele>781.0</ele><time>2026-05-02T10:30:13.262Z</time></trkpt><trkpt lat="46.181541" lon="13.6491191"><ele>794.0</ele><time>2026-05-02T10:30:14.263Z</time></trkpt><trkpt lat="46.1815935" lon="13.6488947"><ele>807.0</ele><time>2026-05-02T10:30:15.263Z</time></trkpt><trkpt lat="46.181637" lon="13.6486804"><ele>802.0</ele><time>2026-05-02T10:30:16.262Z</time></trkpt><trkpt lat="46.1816742" lon="13.6484756"><ele>797.0</ele><time>2026-05-02T10:30:17.262Z</time></trkpt><trkpt lat="46.181705" lon="13.6482685"><ele>792.0</ele><time>2026-05-02T10:30:18.262Z</time></trkpt><trkpt lat="46.1817192" lon="13.6480671"><ele>787.0</ele><time>2026-05-02T10:30:19.262Z</time></trkpt><trkpt lat="46.1817321" lon="13.6478702"><ele>783.25</ele><time>2026-05-02T10:30:20.262Z</time></trkpt><trkpt lat="46.1817536" lon="13.6476752"><ele>779.5</ele><time>2026-05-02T10:30:21.263Z</time></trkpt><trkpt lat="46.1817894" lon="13.6474956"><ele>775.75</ele><time>2026-05-02T10:30:22.263Z</time></trkpt><trkpt lat="46.1818311" lon="13.6473161"><ele>772.0</ele><time>2026-05-02T10:30:23.263Z</time></trkpt><trkpt lat="46.18185" lon="13.6471298"><ele>768.75</ele><time>2026-05-02T10:30:24.263Z</time></trkpt><trkpt lat="46.1818535" lon="13.6469509"><ele>765.5</ele><time>2026-05-02T10:30:25.262Z</time></trkpt><trkpt lat="46.1818673" lon="13.6467776"><ele>762.25</ele><time>2026-05-02T10:30:26.263Z</time></trkpt><trkpt lat="46.181884" lon="13.6465961"><ele>759.0</ele><time>2026-05-02T10:30:27.262Z</time></trkpt><trkpt lat="46.181924" lon="13.6464336"><ele>759.0</ele><time>2026-05-02T10:30:28.263Z</time></trkpt><trkpt lat="46.1819823" lon="13.6462792"><ele>759.0</ele><time>2026-05-02T10:30:29.263Z</time></trkpt><trkpt lat="46.182061" lon="13.6461368"><ele>759.0</ele><time>2026-05-02T10:30:30.263Z</time></trkpt><trkpt lat="46.1821423" lon="13.645988"><ele>759.0</ele><time>2026-05-02T10:30:31.262Z</time></trkpt><trkpt lat="46.182226" lon="13.6458306"><ele>760.25</ele><time>2026-05-02T10:30:32.263Z</time></trkpt><trkpt lat="46.1823014" lon="13.6456622"><ele>761.5</ele><time>2026-05-02T10:30:33.262Z</time></trkpt><trkpt lat="46.1823586" lon="13.6454714"><ele>762.75</ele><time>2026-05-02T10:30:34.263Z</time></trkpt><trkpt lat="46.1824109" lon="13.6452582"><ele>764.0</ele><time>2026-05-02T10:30:35.263Z</time></trkpt><trkpt lat="46.1824792" lon="13.6450749"><ele>764.0</ele><time>2026-05-02T10:30:36.263Z</time></trkpt><trkpt lat="46.1825712" lon="13.6449142"><ele>764.0</ele><time>2026-05-02T10:30:37.263Z</time></trkpt><trkpt lat="46.1826615" lon="13.6447647"><ele>764.0</ele><time>2026-05-02T10:30:38.262Z</time></trkpt><trkpt lat="46.1827509" lon="13.6446263"><ele>764.0</ele><time>2026-05-02T10:30:39.263Z</time></trkpt><trkpt lat="46.1828198" lon="13.6444841"><ele>758.25</ele><time>2026-05-02T10:30:40.263Z</time></trkpt><trkpt lat="46.1828597" lon="13.6443411"><ele>752.5</ele><time>2026-05-02T10:30:41.262Z</time></trkpt><trkpt lat="46.1828528" lon="13.6441784"><ele>746.75</ele><time>2026-05-02T10:30:42.263Z</time></trkpt><trkpt lat="46.1828293" lon="13.6440166"><ele>741.0</ele><time>2026-05-02T10:30:43.263Z</time></trkpt><trkpt lat="46.1828004" lon="13.6438467"><ele>741.0</ele><time>2026-05-02T10:30:44.263Z</time></trkpt><trkpt lat="46.1827778" lon="13.6436968"><ele>741.0</ele><time>2026-05-02T10:30:45.262Z</time></trkpt><trkpt lat="46.1827526" lon="13.643546"><ele>741.0</ele><time>2026-05-02T10:30:46.263Z</time></trkpt><trkpt lat="46.1827307" lon="13.6434116"><ele>741.0</ele><time>2026-05-02T10:30:47.262Z</time></trkpt><trkpt lat="46.1827183" lon="13.6432807"><ele>741.0</ele><time>2026-05-02T10:30:48.263Z</time></trkpt><trkpt lat="46.1827176" lon="13.6431567"><ele>740.2857142857142</ele><time>2026-05-02T10:30:49.262Z</time></trkpt><trkpt lat="46.1827252" lon="13.6430364"><ele>739.5714285714287</ele><time>2026-05-02T10:30:50.263Z</time></trkpt><trkpt lat="46.1827375" lon="13.6429334"><ele>738.8571428571429</ele><time>2026-05-02T10:30:51.262Z</time></trkpt><trkpt lat="46.1827492" lon="13.6428251"><ele>738.1428571428571</ele><time>2026-05-02T10:30:52.263Z</time></trkpt><trkpt lat="46.1827617" lon="13.6427222"><ele>737.4285714285713</ele><time>2026-05-02T10:30:53.263Z</time></trkpt><trkpt lat="46.1827808" lon="13.6426246"><ele>736.7142857142858</ele><time>2026-05-02T10:30:54.263Z</time></trkpt><trkpt lat="46.1828065" lon="13.6425308"><ele>736.0</ele><time>2026-05-02T10:30:55.263Z</time></trkpt><trkpt lat="46.1828325" lon="13.642444"><ele>736.0</ele><time>2026-05-02T10:30:56.262Z</time></trkpt><trkpt lat="46.1828762" lon="13.6423624"><ele>736.0</ele><time>2026-05-02T10:30:57.262Z</time></trkpt><trkpt lat="46.1829415" lon="13.6422946"><ele>736.0</ele><time>2026-05-02T10:30:58.263Z</time></trkpt><trkpt lat="46.183025" lon="13.6422393"><ele>736.0</ele><time>2026-05-02T10:30:59.262Z</time></trkpt><trkpt lat="46.1831103" lon="13.6421802"><ele>736.0</ele><time>2026-05-02T10:31:00.262Z</time></trkpt><trkpt lat="46.1831962" lon="13.6421191"><ele>736.0</ele><time>2026-05-02T10:31:01.263Z</time></trkpt><trkpt lat="46.1832915" lon="13.64207"><ele>737.6666666666667</ele><time>2026-05-02T10:31:02.263Z</time></trkpt><trkpt lat="46.1833782" lon="13.6420259"><ele>739.3333333333334</ele><time>2026-05-02T10:31:03.263Z</time></trkpt><trkpt lat="46.1834651" lon="13.6419971"><ele>741.0</ele><time>2026-05-02T10:31:04.263Z</time></trkpt><trkpt lat="46.1835374" lon="13.6419592"><ele>742.6666666666666</ele><time>2026-05-02T10:31:05.262Z</time></trkpt><trkpt lat="46.1835883" lon="13.6418789"><ele>744.3333333333333</ele><time>2026-05-02T10:31:06.263Z</time></trkpt><trkpt lat="46.1836125" lon="13.6417463"><ele>746.0</ele><time>2026-05-02T10:31:07.263Z</time></trkpt><trkpt lat="46.1836127" lon="13.6416011"><ele>746.0</ele><time>2026-05-02T10:31:08.262Z</time></trkpt><trkpt lat="46.1835998" lon="13.6414512"><ele>746.0</ele><time>2026-05-02T10:31:09.262Z</time></trkpt><trkpt lat="46.183585" lon="13.6413032"><ele>746.0</ele><time>2026-05-02T10:31:10.263Z</time></trkpt><trkpt lat="46.1835845" lon="13.641167"><ele>746.0</ele><time>2026-05-02T10:31:11.262Z</time></trkpt><trkpt lat="46.1836056" lon="13.6410229"><ele>746.0</ele><time>2026-05-02T10:31:12.262Z</time></trkpt><trkpt lat="46.1836305" lon="13.6408641"><ele>742.8</ele><time>2026-05-02T10:31:13.263Z</time></trkpt><trkpt lat="46.1836631" lon="13.6406957"><ele>739.5999999999999</ele><time>2026-05-02T10:31:14.262Z</time></trkpt><trkpt lat="46.1836773" lon="13.6405412"><ele>736.4</ele><time>2026-05-02T10:31:15.262Z</time></trkpt><trkpt lat="46.1836697" lon="13.640393"><ele>733.2</ele><time>2026-05-02T10:31:16.262Z</time></trkpt><trkpt lat="46.183636" lon="13.6402383"><ele>730.0</ele><time>2026-05-02T10:31:17.262Z</time></trkpt><trkpt lat="46.1835925" lon="13.6400736"><ele>728.75</ele><time>2026-05-02T10:31:18.262Z</time></trkpt><trkpt lat="46.1835554" lon="13.6398984"><ele>727.5</ele><time>2026-05-02T10:31:19.262Z</time></trkpt><trkpt lat="46.1835194" lon="13.6397192"><ele>726.25</ele><time>2026-05-02T10:31:20.263Z</time></trkpt><trkpt lat="46.1834788" lon="13.6395353"><ele>725.0</ele><time>2026-05-02T10:31:21.262Z</time></trkpt><trkpt lat="46.1834367" lon="13.639354"><ele>724.2</ele><time>2026-05-02T10:31:22.262Z</time></trkpt><trkpt lat="46.1834062" lon="13.6392035"><ele>723.4</ele><time>2026-05-02T10:31:23.262Z</time></trkpt><trkpt lat="46.1833852" lon="13.6390692"><ele>722.5999999999999</ele><time>2026-05-02T10:31:24.263Z</time></trkpt><trkpt lat="46.1833894" lon="13.6389416"><ele>721.8</ele><time>2026-05-02T10:31:25.262Z</time></trkpt><trkpt lat="46.1834205" lon="13.6388255"><ele>721.0</ele><time>2026-05-02T10:31:26.262Z</time></trkpt><trkpt lat="46.1834868" lon="13.6387353"><ele>721.0</ele><time>2026-05-02T10:31:27.263Z</time></trkpt><trkpt lat="46.1835653" lon="13.6386784"><ele>721.0</ele><time>2026-05-02T10:31:28.263Z</time></trkpt><trkpt lat="46.183637" lon="13.6386455"><ele>721.0</ele><time>2026-05-02T10:31:29.262Z</time></trkpt><trkpt lat="46.1837336" lon="13.6385877"><ele>721.0</ele><time>2026-05-02T10:31:31.263Z</time></trkpt><trkpt lat="46.1838076" lon="13.638491"><ele>721.0</ele><time>2026-05-02T10:31:33.262Z</time></trkpt><trkpt lat="46.1838354" lon="13.6384043"><ele>721.0</ele><time>2026-05-02T10:31:34.262Z</time></trkpt><trkpt lat="46.1838481" lon="13.6383045"><ele>719.4</ele><time>2026-05-02T10:31:35.262Z</time></trkpt><trkpt lat="46.1838585" lon="13.6381932"><ele>717.8</ele><time>2026-05-02T10:31:36.263Z</time></trkpt><trkpt lat="46.1838566" lon="13.6380662"><ele>716.1999999999999</ele><time>2026-05-02T10:31:37.262Z</time></trkpt><trkpt lat="46.1838478" lon="13.637913"><ele>714.5999999999999</ele><time>2026-05-02T10:31:38.262Z</time></trkpt><trkpt lat="46.1838432" lon="13.6377597"><ele>713.0</ele><time>2026-05-02T10:31:39.263Z</time></trkpt><trkpt lat="46.1838269" lon="13.637604"><ele>712.8</ele><time>2026-05-02T10:31:40.263Z</time></trkpt><trkpt lat="46.1837868" lon="13.6374611"><ele>712.5999999999999</ele><time>2026-05-02T10:31:41.262Z</time></trkpt><trkpt lat="46.1837458" lon="13.6373111"><ele>712.4000000000001</ele><time>2026-05-02T10:31:42.263Z</time></trkpt><trkpt lat="46.1837354" lon="13.6371608"><ele>712.2</ele><time>2026-05-02T10:31:43.262Z</time></trkpt><trkpt lat="46.1837419" lon="13.6369932"><ele>712.0</ele><time>2026-05-02T10:31:44.262Z</time></trkpt><trkpt lat="46.1837276" lon="13.6368129"><ele>712.0</ele><time>2026-05-02T10:31:45.263Z</time></trkpt><trkpt lat="46.1837023" lon="13.6366364"><ele>712.0</ele><time>2026-05-02T10:31:46.262Z</time></trkpt><trkpt lat="46.1836489" lon="13.6364661"><ele>712.0</ele><time>2026-05-02T10:31:47.263Z</time></trkpt><trkpt lat="46.1835975" lon="13.6363106"><ele>712.0</ele><time>2026-05-02T10:31:48.263Z</time></trkpt><trkpt lat="46.1835615" lon="13.6361719"><ele>713.3333333333334</ele><time>2026-05-02T10:31:49.262Z</time></trkpt><trkpt lat="46.1835439" lon="13.6360451"><ele>714.6666666666667</ele><time>2026-05-02T10:31:50.262Z</time></trkpt><trkpt lat="46.1835712" lon="13.63592"><ele>716.0</ele><time>2026-05-02T10:31:51.262Z</time></trkpt><trkpt lat="46.183615" lon="13.6358131"><ele>717.3333333333334</ele><time>2026-05-02T10:31:52.263Z</time></trkpt><trkpt lat="46.1836755" lon="13.6357397"><ele>718.6666666666666</ele><time>2026-05-02T10:31:53.262Z</time></trkpt><trkpt lat="46.1837477" lon="13.6356846"><ele>720.0</ele><time>2026-05-02T10:31:54.263Z</time></trkpt><trkpt lat="46.1838235" lon="13.6356499"><ele>720.0</ele><time>2026-05-02T10:31:55.262Z</time></trkpt><trkpt lat="46.1839099" lon="13.6355927"><ele>720.0</ele><time>2026-05-02T10:31:56.263Z</time></trkpt><trkpt lat="46.1840064" lon="13.635538"><ele>720.0</ele><time>2026-05-02T10:31:57.262Z</time></trkpt><trkpt lat="46.1841066" lon="13.6354783"><ele>720.0</ele><time>2026-05-02T10:31:58.263Z</time></trkpt><trkpt lat="46.1842074" lon="13.6353996"><ele>720.0</ele><time>2026-05-02T10:31:59.263Z</time></trkpt><trkpt lat="46.1842869" lon="13.6352846"><ele>722.2</ele><time>2026-05-02T10:32:00.263Z</time></trkpt><trkpt lat="46.184357" lon="13.6351773"><ele>724.4</ele><time>2026-05-02T10:32:01.263Z</time></trkpt><trkpt lat="46.184423" lon="13.635086"><ele>726.5999999999999</ele><time>2026-05-02T10:32:02.262Z</time></trkpt><trkpt lat="46.1844775" lon="13.6349833"><ele>728.8</ele><time>2026-05-02T10:32:03.262Z</time></trkpt><trkpt lat="46.1845086" lon="13.6348494"><ele>731.0</ele><time>2026-05-02T10:32:04.263Z</time></trkpt><trkpt lat="46.1845067" lon="13.6346935"><ele>731.0</ele><time>2026-05-02T10:32:05.262Z</time></trkpt><trkpt lat="46.1844859" lon="13.6345396"><ele>731.0</ele><time>2026-05-02T10:32:06.263Z</time></trkpt><trkpt lat="46.1844378" lon="13.63439"><ele>731.0</ele><time>2026-05-02T10:32:07.262Z</time></trkpt><trkpt lat="46.1843721" lon="13.6342513"><ele>731.0</ele><time>2026-05-02T10:32:08.262Z</time></trkpt><trkpt lat="46.1842953" lon="13.6341318"><ele>729.5999999999999</ele><time>2026-05-02T10:32:09.262Z</time></trkpt><trkpt lat="46.1842321" lon="13.6340117"><ele>728.2</ele><time>2026-05-02T10:32:10.263Z</time></trkpt><trkpt lat="46.1841897" lon="13.6338864"><ele>726.8</ele><time>2026-05-02T10:32:11.263Z</time></trkpt><trkpt lat="46.1841803" lon="13.6337487"><ele>725.4000000000001</ele><time>2026-05-02T10:32:12.263Z</time></trkpt><trkpt lat="46.1841834" lon="13.6336006"><ele>724.0</ele><time>2026-05-02T10:32:13.262Z</time></trkpt><trkpt lat="46.1841853" lon="13.6334415"><ele>724.0</ele><time>2026-05-02T10:32:14.262Z</time></trkpt><trkpt lat="46.1841691" lon="13.6332872"><ele>724.0</ele><time>2026-05-02T10:32:15.262Z</time></trkpt><trkpt lat="46.1841415" lon="13.6331301"><ele>724.0</ele><time>2026-05-02T10:32:16.262Z</time></trkpt><trkpt lat="46.1841353" lon="13.6329909"><ele>724.0</ele><time>2026-05-02T10:32:17.263Z</time></trkpt><trkpt lat="46.1841544" lon="13.6328408"><ele>724.0</ele><time>2026-05-02T10:32:18.263Z</time></trkpt><trkpt lat="46.1841898" lon="13.6327017"><ele>722.6</ele><time>2026-05-02T10:32:19.262Z</time></trkpt><trkpt lat="46.1842347" lon="13.6325534"><ele>721.2</ele><time>2026-05-02T10:32:20.262Z</time></trkpt><trkpt lat="46.1842818" lon="13.6323988"><ele>719.8000000000001</ele><time>2026-05-02T10:32:21.263Z</time></trkpt><trkpt lat="46.1843193" lon="13.63225"><ele>718.4000000000001</ele><time>2026-05-02T10:32:22.263Z</time></trkpt><trkpt lat="46.1843253" lon="13.6321306"><ele>717.0</ele><time>2026-05-02T10:32:23.263Z</time></trkpt><trkpt lat="46.1843032" lon="13.6320177"><ele>719.0</ele><time>2026-05-02T10:32:24.262Z</time></trkpt><trkpt lat="46.1842657" lon="13.631912"><ele>721.0</ele><time>2026-05-02T10:32:25.262Z</time></trkpt><trkpt lat="46.1842084" lon="13.6318166"><ele>723.0</ele><time>2026-05-02T10:32:26.262Z</time></trkpt><trkpt lat="46.1841392" lon="13.6317327"><ele>725.0</ele><time>2026-05-02T10:32:27.262Z</time></trkpt><trkpt lat="46.1840537" lon="13.6316416"><ele>727.0</ele><time>2026-05-02T10:32:28.262Z</time></trkpt><trkpt lat="46.1839615" lon="13.6315543"><ele>719.0</ele><time>2026-05-02T10:32:29.262Z</time></trkpt><trkpt lat="46.1838584" lon="13.6314743"><ele>711.0</ele><time>2026-05-02T10:32:30.262Z</time></trkpt><trkpt lat="46.1837368" lon="13.6314121"><ele>703.0</ele><time>2026-05-02T10:32:31.262Z</time></trkpt><trkpt lat="46.1836274" lon="13.6313619"><ele>695.0</ele><time>2026-05-02T10:32:32.262Z</time></trkpt><trkpt lat="46.1835382" lon="13.6313041"><ele>695.0</ele><time>2026-05-02T10:32:33.263Z</time></trkpt><trkpt lat="46.1834581" lon="13.63123"><ele>695.0</ele><time>2026-05-02T10:32:34.262Z</time></trkpt><trkpt lat="46.1833846" lon="13.6311389"><ele>695.0</ele><time>2026-05-02T10:32:35.263Z</time></trkpt><trkpt lat="46.1833303" lon="13.6310103"><ele>695.0</ele><time>2026-05-02T10:32:36.263Z</time></trkpt><trkpt lat="46.1832801" lon="13.6308607"><ele>695.0</ele><time>2026-05-02T10:32:37.263Z</time></trkpt><trkpt lat="46.1832291" lon="13.6307166"><ele>693.8</ele><time>2026-05-02T10:32:38.263Z</time></trkpt><trkpt lat="46.1831948" lon="13.6305727"><ele>692.6</ele><time>2026-05-02T10:32:39.263Z</time></trkpt><trkpt lat="46.1831597" lon="13.6304316"><ele>691.4000000000001</ele><time>2026-05-02T10:32:40.263Z</time></trkpt><trkpt lat="46.1831457" lon="13.6302819"><ele>690.2</ele><time>2026-05-02T10:32:41.263Z</time></trkpt><trkpt lat="46.1831654" lon="13.6301116"><ele>689.0</ele><time>2026-05-02T10:32:42.263Z</time></trkpt><trkpt lat="46.1832041" lon="13.6299458"><ele>699.0</ele><time>2026-05-02T10:32:43.263Z</time></trkpt><trkpt lat="46.1832579" lon="13.6297793"><ele>709.0</ele><time>2026-05-02T10:32:44.262Z</time></trkpt><trkpt lat="46.183298" lon="13.6296351"><ele>719.0</ele><time>2026-05-02T10:32:45.263Z</time></trkpt><trkpt lat="46.1833295" lon="13.629515"><ele>729.0</ele><time>2026-05-02T10:32:46.262Z</time></trkpt><trkpt lat="46.1833461" lon="13.6294124"><ele>739.0</ele><time>2026-05-02T10:32:47.262Z</time></trkpt><trkpt lat="46.1833482" lon="13.6293118"><ele>739.1666666666667</ele><time>2026-05-02T10:32:48.262Z</time></trkpt><trkpt lat="46.1833538" lon="13.6292129"><ele>739.3333333333334</ele><time>2026-05-02T10:32:49.263Z</time></trkpt><trkpt lat="46.1833477" lon="13.629102"><ele>739.5</ele><time>2026-05-02T10:32:50.263Z</time></trkpt><trkpt lat="46.1833377" lon="13.6289762"><ele>739.6666666666666</ele><time>2026-05-02T10:32:51.262Z</time></trkpt><trkpt lat="46.1833067" lon="13.6288408"><ele>739.8333333333333</ele><time>2026-05-02T10:32:52.262Z</time></trkpt><trkpt lat="46.1832615" lon="13.6286896"><ele>740.0</ele><time>2026-05-02T10:32:53.262Z</time></trkpt><trkpt lat="46.1832175" lon="13.6285313"><ele>734.75</ele><time>2026-05-02T10:32:54.262Z</time></trkpt><trkpt lat="46.1831773" lon="13.6283618"><ele>729.5</ele><time>2026-05-02T10:32:55.263Z</time></trkpt><trkpt lat="46.1831287" lon="13.6281822"><ele>724.25</ele><time>2026-05-02T10:32:56.262Z</time></trkpt><trkpt lat="46.1830621" lon="13.6280212"><ele>719.0</ele><time>2026-05-02T10:32:57.263Z</time></trkpt><trkpt lat="46.1829954" lon="13.6278736"><ele>724.0</ele><time>2026-05-02T10:32:58.263Z</time></trkpt><trkpt lat="46.1829321" lon="13.6277321"><ele>729.0</ele><time>2026-05-02T10:32:59.263Z</time></trkpt><trkpt lat="46.1828713" lon="13.6276165"><ele>734.0</ele><time>2026-05-02T10:33:00.262Z</time></trkpt><trkpt lat="46.1828123" lon="13.6275194"><ele>739.0</ele><time>2026-05-02T10:33:01.262Z</time></trkpt><trkpt lat="46.1827464" lon="13.6274511"><ele>744.0</ele><time>2026-05-02T10:33:02.263Z</time></trkpt><trkpt lat="46.1826702" lon="13.627437"><ele>744.0</ele><time>2026-05-02T10:33:03.263Z</time></trkpt><trkpt lat="46.182579" lon="13.6274669"><ele>744.0</ele><time>2026-05-02T10:33:04.262Z</time></trkpt><trkpt lat="46.1824852" lon="13.6275229"><ele>744.0</ele><time>2026-05-02T10:33:05.263Z</time></trkpt><trkpt lat="46.1823937" lon="13.6275982"><ele>744.0</ele><time>2026-05-02T10:33:06.262Z</time></trkpt><trkpt lat="46.1823087" lon="13.627677"><ele>744.0</ele><time>2026-05-02T10:33:07.263Z</time></trkpt><trkpt lat="46.1822297" lon="13.6277588"><ele>742.0</ele><time>2026-05-02T10:33:08.263Z</time></trkpt><trkpt lat="46.1821388" lon="13.6278508"><ele>740.0</ele><time>2026-05-02T10:33:09.262Z</time></trkpt><trkpt lat="46.1820519" lon="13.6279448"><ele>738.0</ele><time>2026-05-02T10:33:10.263Z</time></trkpt><trkpt lat="46.1819661" lon="13.6280311"><ele>736.0</ele><time>2026-05-02T10:33:11.263Z</time></trkpt><trkpt lat="46.1818814" lon="13.6281293"><ele>734.0</ele><time>2026-05-02T10:33:12.262Z</time></trkpt><trkpt lat="46.1817903" lon="13.6282255"><ele>734.0</ele><time>2026-05-02T10:33:13.262Z</time></trkpt><trkpt lat="46.1817028" lon="13.6283095"><ele>734.0</ele><time>2026-05-02T10:33:14.263Z</time></trkpt><trkpt lat="46.1816114" lon="13.6283978"><ele>734.0</ele><time>2026-05-02T10:33:15.263Z</time></trkpt><trkpt lat="46.1815233" lon="13.6285003"><ele>734.0</ele><time>2026-05-02T10:33:16.263Z</time></trkpt><trkpt lat="46.1814409" lon="13.6286081"><ele>734.0</ele><time>2026-05-02T10:33:17.262Z</time></trkpt><trkpt lat="46.1813613" lon="13.6287171"><ele>728.8333333333333</ele><time>2026-05-02T10:33:18.262Z</time></trkpt><trkpt lat="46.1812902" lon="13.6288114"><ele>723.6666666666666</ele><time>2026-05-02T10:33:19.262Z</time></trkpt><trkpt lat="46.1812205" lon="13.6288672"><ele>718.5</ele><time>2026-05-02T10:33:20.262Z</time></trkpt><trkpt lat="46.1811574" lon="13.6289075"><ele>713.3333333333334</ele><time>2026-05-02T10:33:21.262Z</time></trkpt><trkpt lat="46.1810912" lon="13.628906"><ele>708.1666666666667</ele><time>2026-05-02T10:33:22.263Z</time></trkpt><trkpt lat="46.1810421" lon="13.6288267"><ele>703.0</ele><time>2026-05-02T10:33:23.262Z</time></trkpt><trkpt lat="46.1810175" lon="13.6287135"><ele>703.0</ele><time>2026-05-02T10:33:24.262Z</time></trkpt><trkpt lat="46.1809927" lon="13.6285895"><ele>703.0</ele><time>2026-05-02T10:33:25.262Z</time></trkpt><trkpt lat="46.1809644" lon="13.6284857"><ele>703.0</ele><time>2026-05-02T10:33:26.263Z</time></trkpt><trkpt lat="46.1809056" lon="13.6283895"><ele>703.0</ele><time>2026-05-02T10:33:27.263Z</time></trkpt><trkpt lat="46.1808193" lon="13.6283292"><ele>703.0</ele><time>2026-05-02T10:33:28.262Z</time></trkpt><trkpt lat="46.1807308" lon="13.6282896"><ele>703.0</ele><time>2026-05-02T10:33:29.263Z</time></trkpt><trkpt lat="46.1806357" lon="13.6282447"><ele>703.0</ele><time>2026-05-02T10:33:30.262Z</time></trkpt><trkpt lat="46.1805526" lon="13.6281992"><ele>703.0</ele><time>2026-05-02T10:33:31.262Z</time></trkpt><trkpt lat="46.1804818" lon="13.6281305"><ele>703.0</ele><time>2026-05-02T10:33:32.262Z</time></trkpt><trkpt lat="46.1804094" lon="13.6280678"><ele>703.0</ele><time>2026-05-02T10:33:33.263Z</time></trkpt><trkpt lat="46.1803231" lon="13.6280442"><ele>703.0</ele><time>2026-05-02T10:33:34.262Z</time></trkpt><trkpt lat="46.1802297" lon="13.6280541"><ele>703.0</ele><time>2026-05-02T10:33:35.262Z</time></trkpt><trkpt lat="46.1801448" lon="13.6280331"><ele>703.0</ele><time>2026-05-02T10:33:36.263Z</time></trkpt><trkpt lat="46.1800687" lon="13.6279944"><ele>703.0</ele><time>2026-05-02T10:33:37.262Z</time></trkpt><trkpt lat="46.1799937" lon="13.6279321"><ele>703.0</ele><time>2026-05-02T10:33:38.263Z</time></trkpt><trkpt lat="46.1799299" lon="13.6278444"><ele>703.0</ele><time>2026-05-02T10:33:39.262Z</time></trkpt><trkpt lat="46.1798851" lon="13.627704"><ele>703.0</ele><time>2026-05-02T10:33:40.263Z</time></trkpt><trkpt lat="46.1798441" lon="13.6275392"><ele>704.4</ele><time>2026-05-02T10:33:41.263Z</time></trkpt><trkpt lat="46.1797907" lon="13.6273912"><ele>705.8</ele><time>2026-05-02T10:33:42.262Z</time></trkpt><trkpt lat="46.1797318" lon="13.6272694"><ele>707.2</ele><time>2026-05-02T10:33:43.263Z</time></trkpt><trkpt lat="46.1796603" lon="13.6271692"><ele>708.6</ele><time>2026-05-02T10:33:44.262Z</time></trkpt><trkpt lat="46.1795636" lon="13.6271024"><ele>710.0</ele><time>2026-05-02T10:33:45.262Z</time></trkpt><trkpt lat="46.1794464" lon="13.6270588"><ele>710.0</ele><time>2026-05-02T10:33:46.263Z</time></trkpt><trkpt lat="46.179326" lon="13.6270206"><ele>710.0</ele><time>2026-05-02T10:33:47.263Z</time></trkpt><trkpt lat="46.1792198" lon="13.6270129"><ele>710.0</ele><time>2026-05-02T10:33:48.263Z</time></trkpt><trkpt lat="46.1791174" lon="13.6270631"><ele>710.0</ele><time>2026-05-02T10:33:49.263Z</time></trkpt><trkpt lat="46.179027" lon="13.6271042"><ele>710.0</ele><time>2026-05-02T10:33:50.263Z</time></trkpt><trkpt lat="46.1789267" lon="13.6271042"><ele>710.0</ele><time>2026-05-02T10:33:51.263Z</time></trkpt><trkpt lat="46.1788622" lon="13.6270671"><ele>710.0</ele><time>2026-05-02T10:33:52.263Z</time></trkpt><trkpt lat="46.1788235" lon="13.6269906"><ele>710.0</ele><time>2026-05-02T10:33:53.262Z</time></trkpt><trkpt lat="46.1788156" lon="13.6268525"><ele>710.0</ele><time>2026-05-02T10:33:54.262Z</time></trkpt><trkpt lat="46.178832" lon="13.6267262"><ele>710.0</ele><time>2026-05-02T10:33:55.262Z</time></trkpt><trkpt lat="46.1788585" lon="13.6265859"><ele>710.0</ele><time>2026-05-02T10:33:56.262Z</time></trkpt><trkpt lat="46.178884" lon="13.6264212"><ele>703.75</ele><time>2026-05-02T10:33:57.262Z</time></trkpt><trkpt lat="46.1788957" lon="13.6262267"><ele>697.5</ele><time>2026-05-02T10:33:58.263Z</time></trkpt><trkpt lat="46.178899" lon="13.6260426"><ele>691.25</ele><time>2026-05-02T10:33:59.262Z</time></trkpt><trkpt lat="46.1789043" lon="13.6258627"><ele>685.0</ele><time>2026-05-02T10:34:00.263Z</time></trkpt><trkpt lat="46.1789223" lon="13.6257117"><ele>685.0</ele><time>2026-05-02T10:34:01.262Z</time></trkpt><trkpt lat="46.1789419" lon="13.6255906"><ele>685.0</ele><time>2026-05-02T10:34:02.263Z</time></trkpt><trkpt lat="46.1789289" lon="13.6254729"><ele>685.0</ele><time>2026-05-02T10:34:03.263Z</time></trkpt><trkpt lat="46.1788768" lon="13.6253713"><ele>685.0</ele><time>2026-05-02T10:34:04.263Z</time></trkpt><trkpt lat="46.1788078" lon="13.62528"><ele>685.0</ele><time>2026-05-02T10:34:05.263Z</time></trkpt><trkpt lat="46.1787256" lon="13.625201"><ele>685.0</ele><time>2026-05-02T10:34:06.263Z</time></trkpt><trkpt lat="46.178633" lon="13.6251528"><ele>690.0</ele><time>2026-05-02T10:34:07.262Z</time></trkpt><trkpt lat="46.1785289" lon="13.6251574"><ele>695.0</ele><time>2026-05-02T10:34:08.263Z</time></trkpt><trkpt lat="46.1784321" lon="13.625177"><ele>700.0</ele><time>2026-05-02T10:34:09.262Z</time></trkpt><trkpt lat="46.1783445" lon="13.6251644"><ele>705.0</ele><time>2026-05-02T10:34:10.263Z</time></trkpt><trkpt lat="46.1782678" lon="13.625114"><ele>710.0</ele><time>2026-05-02T10:34:11.263Z</time></trkpt><trkpt lat="46.1781992" lon="13.6250658"><ele>709.1666666666666</ele><time>2026-05-02T10:34:12.262Z</time></trkpt><trkpt lat="46.1781462" lon="13.6249955"><ele>708.3333333333333</ele><time>2026-05-02T10:34:13.262Z</time></trkpt><trkpt lat="46.178093" lon="13.6249352"><ele>707.5</ele><time>2026-05-02T10:34:14.262Z</time></trkpt><trkpt lat="46.1780491" lon="13.6248363"><ele>706.6666666666666</ele><time>2026-05-02T10:34:15.262Z</time></trkpt><trkpt lat="46.1780237" lon="13.6247188"><ele>705.8333333333334</ele><time>2026-05-02T10:34:16.263Z</time></trkpt><trkpt lat="46.1779829" lon="13.624583"><ele>705.0</ele><time>2026-05-02T10:34:17.262Z</time></trkpt><trkpt lat="46.1779227" lon="13.6244617"><ele>705.0</ele><time>2026-05-02T10:34:18.262Z</time></trkpt><trkpt lat="46.1778552" lon="13.6243667"><ele>705.0</ele><time>2026-05-02T10:34:19.262Z</time></trkpt><trkpt lat="46.177778" lon="13.6243063"><ele>705.0</ele><time>2026-05-02T10:34:20.262Z</time></trkpt><trkpt lat="46.1776855" lon="13.624289"><ele>705.0</ele><time>2026-05-02T10:34:21.263Z</time></trkpt><trkpt lat="46.1775879" lon="13.6243099"><ele>705.0</ele><time>2026-05-02T10:34:22.262Z</time></trkpt><trkpt lat="46.1774948" lon="13.6243218"><ele>705.0</ele><time>2026-05-02T10:34:23.263Z</time></trkpt><trkpt lat="46.1774056" lon="13.624295"><ele>705.0</ele><time>2026-05-02T10:34:24.262Z</time></trkpt><trkpt lat="46.1773104" lon="13.6242129"><ele>705.0</ele><time>2026-05-02T10:34:25.263Z</time></trkpt><trkpt lat="46.1772178" lon="13.6241209"><ele>705.0</ele><time>2026-05-02T10:34:26.263Z</time></trkpt><trkpt lat="46.1771269" lon="13.624039"><ele>705.0</ele><time>2026-05-02T10:34:27.262Z</time></trkpt><trkpt lat="46.1770575" lon="13.6239154"><ele>700.4</ele><time>2026-05-02T10:34:28.262Z</time></trkpt><trkpt lat="46.1770036" lon="13.6237862"><ele>695.8</ele><time>2026-05-02T10:34:29.262Z</time></trkpt><trkpt lat="46.1769311" lon="13.6237152"><ele>691.2</ele><time>2026-05-02T10:34:30.262Z</time></trkpt><trkpt lat="46.1768433" lon="13.6237215"><ele>686.6</ele><time>2026-05-02T10:34:31.262Z</time></trkpt><trkpt lat="46.1767427" lon="13.6237568"><ele>682.0</ele><time>2026-05-02T10:34:32.262Z</time></trkpt><trkpt lat="46.1766522" lon="13.6237422"><ele>682.0</ele><time>2026-05-02T10:34:33.262Z</time></trkpt><trkpt lat="46.1765704" lon="13.6237171"><ele>682.0</ele><time>2026-05-02T10:34:34.263Z</time></trkpt><trkpt lat="46.1764983" lon="13.6236197"><ele>682.0</ele><time>2026-05-02T10:34:35.262Z</time></trkpt><trkpt lat="46.1764508" lon="13.6235141"><ele>682.0</ele><time>2026-05-02T10:34:36.262Z</time></trkpt><trkpt lat="46.1763953" lon="13.6233928"><ele>682.0</ele><time>2026-05-02T10:34:37.262Z</time></trkpt><trkpt lat="46.1763253" lon="13.6232756"><ele>680.8</ele><time>2026-05-02T10:34:38.262Z</time></trkpt><trkpt lat="46.176249" lon="13.6231491"><ele>679.6</ele><time>2026-05-02T10:34:39.262Z</time></trkpt><trkpt lat="46.1761865" lon="13.6230353"><ele>678.4</ele><time>2026-05-02T10:34:40.262Z</time></trkpt><trkpt lat="46.1761235" lon="13.6229333"><ele>677.1999999999999</ele><time>2026-05-02T10:34:41.263Z</time></trkpt><trkpt lat="46.1760519" lon="13.622851"><ele>676.0</ele><time>2026-05-02T10:34:42.263Z</time></trkpt><trkpt lat="46.1759751" lon="13.6227986"><ele>677.5999999999999</ele><time>2026-05-02T10:34:43.263Z</time></trkpt><trkpt lat="46.1758863" lon="13.6227499"><ele>679.2</ele><time>2026-05-02T10:34:44.262Z</time></trkpt><trkpt lat="46.1757867" lon="13.6227099"><ele>680.8</ele><time>2026-05-02T10:34:45.263Z</time></trkpt><trkpt lat="46.1756935" lon="13.6227124"><ele>682.4000000000001</ele><time>2026-05-02T10:34:46.262Z</time></trkpt><trkpt lat="46.1755877" lon="13.6227228"><ele>684.0</ele><time>2026-05-02T10:34:47.262Z</time></trkpt><trkpt lat="46.1754601" lon="13.6227175"><ele>684.0</ele><time>2026-05-02T10:34:48.263Z</time></trkpt><trkpt lat="46.1753257" lon="13.6227088"><ele>684.0</ele><time>2026-05-02T10:34:49.263Z</time></trkpt><trkpt lat="46.1752056" lon="13.622717"><ele>684.0</ele><time>2026-05-02T10:34:50.262Z</time></trkpt><trkpt lat="46.1751032" lon="13.6227312"><ele>684.0</ele><time>2026-05-02T10:34:51.262Z</time></trkpt><trkpt lat="46.175015" lon="13.6227332"><ele>684.0</ele><time>2026-05-02T10:34:52.262Z</time></trkpt><trkpt lat="46.1749598" lon="13.6226809"><ele>684.0</ele><time>2026-05-02T10:34:53.263Z</time></trkpt><trkpt lat="46.1749439" lon="13.6225859"><ele>684.0</ele><time>2026-05-02T10:34:54.262Z</time></trkpt><trkpt lat="46.1749656" lon="13.6224813"><ele>684.0</ele><time>2026-05-02T10:34:55.263Z</time></trkpt><trkpt lat="46.1750052" lon="13.6223808"><ele>684.0</ele><time>2026-05-02T10:34:56.262Z</time></trkpt><trkpt lat="46.1750616" lon="13.6222892"><ele>684.0</ele><time>2026-05-02T10:34:57.263Z</time></trkpt><trkpt lat="46.1751055" lon="13.622182"><ele>684.0</ele><time>2026-05-02T10:34:58.263Z</time></trkpt><trkpt lat="46.1751372" lon="13.6220419"><ele>682.0</ele><time>2026-05-02T10:34:59.262Z</time></trkpt><trkpt lat="46.1751685" lon="13.6218771"><ele>680.0</ele><time>2026-05-02T10:35:00.262Z</time></trkpt><trkpt lat="46.1752184" lon="13.6217643"><ele>678.0</ele><time>2026-05-02T10:35:01.263Z</time></trkpt><trkpt lat="46.1752869" lon="13.6216588"><ele>676.0</ele><time>2026-05-02T10:35:02.263Z</time></trkpt><trkpt lat="46.1753625" lon="13.621572"><ele>674.0</ele><time>2026-05-02T10:35:03.263Z</time></trkpt><trkpt lat="46.1754217" lon="13.6214806"><ele>674.0</ele><time>2026-05-02T10:35:04.263Z</time></trkpt><trkpt lat="46.1754379" lon="13.6213622"><ele>674.0</ele><time>2026-05-02T10:35:05.262Z</time></trkpt><trkpt lat="46.1754058" lon="13.6212545"><ele>674.0</ele><time>2026-05-02T10:35:06.263Z</time></trkpt><trkpt lat="46.1753374" lon="13.621126"><ele>674.0</ele><time>2026-05-02T10:35:07.263Z</time></trkpt><trkpt lat="46.1752664" lon="13.6210149"><ele>674.0</ele><time>2026-05-02T10:35:08.262Z</time></trkpt><trkpt lat="46.1751861" lon="13.6208978"><ele>673.75</ele><time>2026-05-02T10:35:09.263Z</time></trkpt><trkpt lat="46.1750923" lon="13.6207851"><ele>673.5</ele><time>2026-05-02T10:35:10.263Z</time></trkpt><trkpt lat="46.1749965" lon="13.6206626"><ele>673.25</ele><time>2026-05-02T10:35:11.262Z</time></trkpt><trkpt lat="46.1749277" lon="13.6205447"><ele>673.0</ele><time>2026-05-02T10:35:12.262Z</time></trkpt><trkpt lat="46.1748795" lon="13.6204017"><ele>660.75</ele><time>2026-05-02T10:35:13.262Z</time></trkpt><trkpt lat="46.1748413" lon="13.6202384"><ele>648.5</ele><time>2026-05-02T10:35:14.262Z</time></trkpt><trkpt lat="46.1748231" lon="13.6200751"><ele>636.25</ele><time>2026-05-02T10:35:15.262Z</time></trkpt><trkpt lat="46.1748195" lon="13.6199144"><ele>624.0</ele><time>2026-05-02T10:35:16.263Z</time></trkpt><trkpt lat="46.1748367" lon="13.6197593"><ele>637.5</ele><time>2026-05-02T10:35:17.262Z</time></trkpt><trkpt lat="46.1748619" lon="13.6195973"><ele>651.0</ele><time>2026-05-02T10:35:18.263Z</time></trkpt><trkpt lat="46.1748736" lon="13.6194187"><ele>664.5</ele><time>2026-05-02T10:35:19.262Z</time></trkpt><trkpt lat="46.1748676" lon="13.6192373"><ele>678.0</ele><time>2026-05-02T10:35:20.262Z</time></trkpt><trkpt lat="46.1748705" lon="13.6190568"><ele>678.0</ele><time>2026-05-02T10:35:21.263Z</time></trkpt><trkpt lat="46.1748985" lon="13.6189035"><ele>678.0</ele><time>2026-05-02T10:35:22.263Z</time></trkpt><trkpt lat="46.1749276" lon="13.6187361"><ele>678.0</ele><time>2026-05-02T10:35:23.262Z</time></trkpt><trkpt lat="46.1749373" lon="13.6185804"><ele>678.0</ele><time>2026-05-02T10:35:24.263Z</time></trkpt><trkpt lat="46.1749171" lon="13.6184115"><ele>675.4</ele><time>2026-05-02T10:35:25.263Z</time></trkpt><trkpt lat="46.1748919" lon="13.6182443"><ele>672.8</ele><time>2026-05-02T10:35:26.263Z</time></trkpt><trkpt lat="46.1748542" lon="13.6181042"><ele>670.2</ele><time>2026-05-02T10:35:27.263Z</time></trkpt><trkpt lat="46.174783" lon="13.6179687"><ele>667.6</ele><time>2026-05-02T10:35:28.262Z</time></trkpt><trkpt lat="46.1747399" lon="13.6178345"><ele>665.0</ele><time>2026-05-02T10:35:29.263Z</time></trkpt><trkpt lat="46.1747097" lon="13.6176575"><ele>659.0</ele><time>2026-05-02T10:35:30.262Z</time></trkpt><trkpt lat="46.1746783" lon="13.6174591"><ele>653.0</ele><time>2026-05-02T10:35:31.262Z</time></trkpt><trkpt lat="46.1746428" lon="13.6172596"><ele>647.0</ele><time>2026-05-02T10:35:32.262Z</time></trkpt><trkpt lat="46.1746068" lon="13.6170871"><ele>641.0</ele><time>2026-05-02T10:35:33.263Z</time></trkpt><trkpt lat="46.1745666" lon="13.6169523"><ele>641.0</ele><time>2026-05-02T10:35:34.262Z</time></trkpt><trkpt lat="46.1745134" lon="13.6168384"><ele>641.0</ele><time>2026-05-02T10:35:35.263Z</time></trkpt><trkpt lat="46.1744562" lon="13.6167505"><ele>641.0</ele><time>2026-05-02T10:35:36.263Z</time></trkpt><trkpt lat="46.1743923" lon="13.6166736"><ele>641.0</ele><time>2026-05-02T10:35:37.263Z</time></trkpt><trkpt lat="46.1743265" lon="13.6166041"><ele>641.0</ele><time>2026-05-02T10:35:38.263Z</time></trkpt><trkpt lat="46.1742646" lon="13.6165393"><ele>641.0</ele><time>2026-05-02T10:35:39.263Z</time></trkpt><trkpt lat="46.1742072" lon="13.6164724"><ele>641.0</ele><time>2026-05-02T10:35:40.263Z</time></trkpt><trkpt lat="46.1741496" lon="13.6164037"><ele>641.0</ele><time>2026-05-02T10:35:41.263Z</time></trkpt><trkpt lat="46.1740872" lon="13.6163312"><ele>641.0</ele><time>2026-05-02T10:35:42.263Z</time></trkpt><trkpt lat="46.1740214" lon="13.6162586"><ele>641.0</ele><time>2026-05-02T10:35:43.262Z</time></trkpt><trkpt lat="46.1739517" lon="13.6161866"><ele>641.0</ele><time>2026-05-02T10:35:44.262Z</time></trkpt><trkpt lat="46.1738984" lon="13.6160849"><ele>641.0</ele><time>2026-05-02T10:35:45.263Z</time></trkpt><trkpt lat="46.1738366" lon="13.6159655"><ele>640.25</ele><time>2026-05-02T10:35:46.263Z</time></trkpt><trkpt lat="46.1737572" lon="13.6158593"><ele>639.5</ele><time>2026-05-02T10:35:47.262Z</time></trkpt><trkpt lat="46.1736636" lon="13.615757"><ele>638.75</ele><time>2026-05-02T10:35:48.263Z</time></trkpt><trkpt lat="46.1735792" lon="13.6156623"><ele>638.0</ele><time>2026-05-02T10:35:49.262Z</time></trkpt><trkpt lat="46.1734943" lon="13.6155447"><ele>638.0</ele><time>2026-05-02T10:35:50.263Z</time></trkpt><trkpt lat="46.1734237" lon="13.6154097"><ele>638.0</ele><time>2026-05-02T10:35:51.263Z</time></trkpt><trkpt lat="46.1733607" lon="13.615251"><ele>638.0</ele><time>2026-05-02T10:35:52.263Z</time></trkpt><trkpt lat="46.1733044" lon="13.6150647"><ele>638.0</ele><time>2026-05-02T10:35:53.262Z</time></trkpt><trkpt lat="46.173245" lon="13.6148769"><ele>635.6666666666666</ele><time>2026-05-02T10:35:54.263Z</time></trkpt><trkpt lat="46.1731958" lon="13.6146588"><ele>633.3333333333334</ele><time>2026-05-02T10:35:55.263Z</time></trkpt><trkpt lat="46.1731332" lon="13.6144342"><ele>631.0</ele><time>2026-05-02T10:35:56.262Z</time></trkpt><trkpt lat="46.1730659" lon="13.6142009"><ele>620.6666666666667</ele><time>2026-05-02T10:35:57.262Z</time></trkpt><trkpt lat="46.1730094" lon="13.6139504"><ele>610.3333333333334</ele><time>2026-05-02T10:35:58.263Z</time></trkpt><trkpt lat="46.1729471" lon="13.6137171"><ele>600.0</ele><time>2026-05-02T10:35:59.262Z</time></trkpt><trkpt lat="46.1728664" lon="13.6134985"><ele>600.0</ele><time>2026-05-02T10:36:00.262Z</time></trkpt><trkpt lat="46.1727787" lon="13.613287"><ele>600.0</ele><time>2026-05-02T10:36:01.263Z</time></trkpt><trkpt lat="46.1726816" lon="13.6130699"><ele>600.0</ele><time>2026-05-02T10:36:02.263Z</time></trkpt><trkpt lat="46.172595" lon="13.6128717"><ele>603.3333333333334</ele><time>2026-05-02T10:36:03.263Z</time></trkpt><trkpt lat="46.172506" lon="13.6126923"><ele>606.6666666666667</ele><time>2026-05-02T10:36:04.262Z</time></trkpt><trkpt lat="46.1724131" lon="13.6125066"><ele>610.0</ele><time>2026-05-02T10:36:05.262Z</time></trkpt><trkpt lat="46.1722984" lon="13.6123758"><ele>610.0</ele><time>2026-05-02T10:36:06.262Z</time></trkpt><trkpt lat="46.1721685" lon="13.6122833"><ele>610.0</ele><time>2026-05-02T10:36:07.263Z</time></trkpt><trkpt lat="46.1720419" lon="13.6122118"><ele>610.0</ele><time>2026-05-02T10:36:08.262Z</time></trkpt><trkpt lat="46.1719126" lon="13.6121682"><ele>610.0</ele><time>2026-05-02T10:36:09.263Z</time></trkpt><trkpt lat="46.1717829" lon="13.6121561"><ele>610.0</ele><time>2026-05-02T10:36:10.263Z</time></trkpt><trkpt lat="46.1716505" lon="13.6121543"><ele>610.0</ele><time>2026-05-02T10:36:11.262Z</time></trkpt><trkpt lat="46.1715224" lon="13.6121465"><ele>610.0</ele><time>2026-05-02T10:36:12.262Z</time></trkpt><trkpt lat="46.1714017" lon="13.6121394"><ele>610.0</ele><time>2026-05-02T10:36:13.263Z</time></trkpt><trkpt lat="46.1712769" lon="13.6121225"><ele>610.4</ele><time>2026-05-02T10:36:14.262Z</time></trkpt><trkpt lat="46.1711515" lon="13.612089"><ele>610.8</ele><time>2026-05-02T10:36:15.262Z</time></trkpt><trkpt lat="46.1710395" lon="13.6120445"><ele>611.2</ele><time>2026-05-02T10:36:16.263Z</time></trkpt><trkpt lat="46.1709533" lon="13.6120011"><ele>611.6</ele><time>2026-05-02T10:36:17.262Z</time></trkpt><trkpt lat="46.1708771" lon="13.6119769"><ele>612.0</ele><time>2026-05-02T10:36:19.263Z</time></trkpt><trkpt lat="46.1709327" lon="13.6120322"><ele>612.0</ele><time>2026-05-02T10:36:31.262Z</time></trkpt><trkpt lat="46.1710008" lon="13.612058"><ele>612.0</ele><time>2026-05-02T10:36:32.262Z</time></trkpt><trkpt lat="46.1710948" lon="13.6120963"><ele>612.0</ele><time>2026-05-02T10:36:33.262Z</time></trkpt><trkpt lat="46.1711989" lon="13.6121424"><ele>612.0</ele><time>2026-05-02T10:36:34.262Z</time></trkpt><trkpt lat="46.1713125" lon="13.6121662"><ele>612.0</ele><time>2026-05-02T10:36:35.263Z</time></trkpt><trkpt lat="46.1714444" lon="13.6121678"><ele>611.5</ele><time>2026-05-02T10:36:36.263Z</time></trkpt><trkpt lat="46.1715769" lon="13.6121595"><ele>611.0</ele><time>2026-05-02T10:36:37.263Z</time></trkpt><trkpt lat="46.1717195" lon="13.6121634"><ele>610.5</ele><time>2026-05-02T10:36:38.262Z</time></trkpt><trkpt lat="46.1718537" lon="13.612173"><ele>610.0</ele><time>2026-05-02T10:36:39.263Z</time></trkpt><trkpt lat="46.1719842" lon="13.6122071"><ele>610.0</ele><time>2026-05-02T10:36:40.263Z</time></trkpt><trkpt lat="46.1721028" lon="13.6122571"><ele>610.0</ele><time>2026-05-02T10:36:41.262Z</time></trkpt><trkpt lat="46.1721973" lon="13.6123164"><ele>610.0</ele><time>2026-05-02T10:36:42.263Z</time></trkpt><trkpt lat="46.1722667" lon="13.6123806"><ele>610.0</ele><time>2026-05-02T10:36:43.262Z</time></trkpt><trkpt lat="46.1723278" lon="13.6124351"><ele>610.0</ele><time>2026-05-02T10:36:44.262Z</time></trkpt><trkpt lat="46.1723658" lon="13.6125303"><ele>610.0</ele><time>2026-05-02T10:36:46.263Z</time></trkpt><trkpt lat="46.1722923" lon="13.612593"><ele>610.0</ele><time>2026-05-02T10:36:49.262Z</time></trkpt><trkpt lat="46.1722133" lon="13.6125575"><ele>610.0</ele><time>2026-05-02T10:36:51.263Z</time></trkpt><trkpt lat="46.1721132" lon="13.612488"><ele>610.0</ele><time>2026-05-02T10:36:53.263Z</time></trkpt><trkpt lat="46.172011" lon="13.6124437"><ele>610.0</ele><time>2026-05-02T10:36:55.262Z</time></trkpt><trkpt lat="46.1719025" lon="13.612396"><ele>610.0</ele><time>2026-05-02T10:36:57.262Z</time></trkpt><trkpt lat="46.1718081" lon="13.6124147"><ele>610.0</ele><time>2026-05-02T10:36:59.262Z</time></trkpt><trkpt lat="46.1716989" lon="13.612494"><ele>610.0</ele><time>2026-05-02T10:37:01.263Z</time></trkpt><trkpt lat="46.1716239" lon="13.6125285"><ele>610.0</ele><time>2026-05-02T10:37:02.263Z</time></trkpt><trkpt lat="46.1715086" lon="13.6125968"><ele>610.0</ele><time>2026-05-02T10:37:04.262Z</time></trkpt><trkpt lat="46.17145" lon="13.6126406"><ele>610.4</ele><time>2026-05-02T10:37:05.262Z</time></trkpt><trkpt lat="46.1713579" lon="13.6127085"><ele>610.8</ele><time>2026-05-02T10:37:07.263Z</time></trkpt><trkpt lat="46.1712904" lon="13.6127355"><ele>611.2</ele><time>2026-05-02T10:37:09.262Z</time></trkpt><trkpt lat="46.1712267" lon="13.6127179"><ele>611.6</ele><time>2026-05-02T10:37:11.263Z</time></trkpt><trkpt lat="46.1711325" lon="13.6127166"><ele>612.0</ele><time>2026-05-02T10:37:13.263Z</time></trkpt><trkpt lat="46.171009" lon="13.612789"><ele>612.0</ele><time>2026-05-02T10:37:15.262Z</time></trkpt><trkpt lat="46.1708836" lon="13.6127993"><ele>612.0</ele><time>2026-05-02T10:37:17.263Z</time></trkpt><trkpt lat="46.1707649" lon="13.6127798"><ele>612.0</ele><time>2026-05-02T10:37:19.263Z</time></trkpt><trkpt lat="46.1706682" lon="13.6128067"><ele>612.0</ele><time>2026-05-02T10:37:21.263Z</time></trkpt><trkpt lat="46.1705568" lon="13.6128219"><ele>610.8000000000001</ele><time>2026-05-02T10:37:23.262Z</time></trkpt><trkpt lat="46.1704897" lon="13.6128358"><ele>609.6</ele><time>2026-05-02T10:37:24.262Z</time></trkpt><trkpt lat="46.17038" lon="13.6128558"><ele>608.4000000000001</ele><time>2026-05-02T10:37:26.262Z</time></trkpt><trkpt lat="46.1702744" lon="13.6128566"><ele>607.2</ele><time>2026-05-02T10:37:28.263Z</time></trkpt><trkpt lat="46.1701616" lon="13.6128159"><ele>606.0</ele><time>2026-05-02T10:37:30.263Z</time></trkpt><trkpt lat="46.1700447" lon="13.6127724"><ele>606.0</ele><time>2026-05-02T10:37:32.262Z</time></trkpt><trkpt lat="46.1699399" lon="13.6127424"><ele>606.0</ele><time>2026-05-02T10:37:34.263Z</time></trkpt><trkpt lat="46.1698505" lon="13.6127327"><ele>606.0</ele><time>2026-05-02T10:37:36.262Z</time></trkpt><trkpt lat="46.1697393" lon="13.6127714"><ele>606.0</ele><time>2026-05-02T10:37:38.262Z</time></trkpt><trkpt lat="46.1696652" lon="13.6128005"><ele>606.0</ele><time>2026-05-02T10:37:40.263Z</time></trkpt><trkpt lat="46.1695764" lon="13.6128556"><ele>601.75</ele><time>2026-05-02T10:37:42.262Z</time></trkpt><trkpt lat="46.1694567" lon="13.6128739"><ele>597.5</ele><time>2026-05-02T10:37:44.262Z</time></trkpt><trkpt lat="46.1693415" lon="13.6128448"><ele>593.25</ele><time>2026-05-02T10:37:46.262Z</time></trkpt><trkpt lat="46.1692349" lon="13.6127915"><ele>589.0</ele><time>2026-05-02T10:37:48.263Z</time></trkpt><trkpt lat="46.1691384" lon="13.6127254"><ele>589.0</ele><time>2026-05-02T10:37:50.262Z</time></trkpt><trkpt lat="46.1690812" lon="13.6126733"><ele>589.0</ele><time>2026-05-02T10:37:51.263Z</time></trkpt><trkpt lat="46.1690259" lon="13.6126176"><ele>589.0</ele><time>2026-05-02T10:37:52.263Z</time></trkpt><trkpt lat="46.1689238" lon="13.6125604"><ele>589.0</ele><time>2026-05-02T10:37:54.262Z</time></trkpt><trkpt lat="46.1688312" lon="13.6125224"><ele>589.0</ele><time>2026-05-02T10:37:56.262Z</time></trkpt><trkpt lat="46.168749" lon="13.6124975"><ele>589.0</ele><time>2026-05-02T10:37:58.263Z</time></trkpt><trkpt lat="46.1686521" lon="13.6125323"><ele>589.8</ele><time>2026-05-02T10:38:00.263Z</time></trkpt><trkpt lat="46.1685615" lon="13.6126019"><ele>590.5999999999999</ele><time>2026-05-02T10:38:02.262Z</time></trkpt><trkpt lat="46.1684819" lon="13.6126992"><ele>591.4</ele><time>2026-05-02T10:38:04.263Z</time></trkpt><trkpt lat="46.1683987" lon="13.6128167"><ele>592.1999999999999</ele><time>2026-05-02T10:38:06.263Z</time></trkpt><trkpt lat="46.1683262" lon="13.6129554"><ele>593.0</ele><time>2026-05-02T10:38:08.262Z</time></trkpt><trkpt lat="46.1682951" lon="13.6130442"><ele>588.6</ele><time>2026-05-02T10:38:09.262Z</time></trkpt><trkpt lat="46.1682436" lon="13.6131983"><ele>584.1999999999999</ele><time>2026-05-02T10:38:11.263Z</time></trkpt><trkpt lat="46.1681719" lon="13.6133098"><ele>579.8</ele><time>2026-05-02T10:38:13.262Z</time></trkpt><trkpt lat="46.1681068" lon="13.6133825"><ele>575.4</ele><time>2026-05-02T10:38:15.263Z</time></trkpt><trkpt lat="46.1680255" lon="13.6134322"><ele>571.0</ele><time>2026-05-02T10:38:17.262Z</time></trkpt><trkpt lat="46.1679354" lon="13.6135592"><ele>565.0</ele><time>2026-05-02T10:38:19.262Z</time></trkpt><trkpt lat="46.1678669" lon="13.6137121"><ele>559.0</ele><time>2026-05-02T10:38:21.262Z</time></trkpt><trkpt lat="46.1678196" lon="13.6137759"><ele>553.0</ele><time>2026-05-02T10:38:22.263Z</time></trkpt><trkpt lat="46.1677272" lon="13.6138316"><ele>547.0</ele><time>2026-05-02T10:38:24.262Z</time></trkpt><trkpt lat="46.1676466" lon="13.6138408"><ele>541.0</ele><time>2026-05-02T10:38:26.263Z</time></trkpt><trkpt lat="46.1675448" lon="13.6138109"><ele>541.0</ele><time>2026-05-02T10:38:28.263Z</time></trkpt><trkpt lat="46.1674764" lon="13.6137994"><ele>541.0</ele><time>2026-05-02T10:38:29.263Z</time></trkpt><trkpt lat="46.1673759" lon="13.6137798"><ele>541.0</ele><time>2026-05-02T10:38:31.262Z</time></trkpt><trkpt lat="46.1673154" lon="13.6138383"><ele>541.0</ele><time>2026-05-02T10:38:33.263Z</time></trkpt><trkpt lat="46.1672386" lon="13.6139305"><ele>541.0</ele><time>2026-05-02T10:38:35.263Z</time></trkpt><trkpt lat="46.1672159" lon="13.6140489"><ele>541.0</ele><time>2026-05-02T10:38:37.263Z</time></trkpt><trkpt lat="46.1672098" lon="13.6141806"><ele>544.2</ele><time>2026-05-02T10:38:39.263Z</time></trkpt><trkpt lat="46.1672053" lon="13.6143196"><ele>547.4000000000001</ele><time>2026-05-02T10:38:41.262Z</time></trkpt><trkpt lat="46.1672086" lon="13.6144809"><ele>550.6</ele><time>2026-05-02T10:38:43.263Z</time></trkpt><trkpt lat="46.1672013" lon="13.6146307"><ele>553.8000000000001</ele><time>2026-05-02T10:38:45.262Z</time></trkpt><trkpt lat="46.1671941" lon="13.6147708"><ele>557.0</ele><time>2026-05-02T10:38:47.262Z</time></trkpt><trkpt lat="46.16717" lon="13.6149024"><ele>557.0</ele><time>2026-05-02T10:38:49.263Z</time></trkpt><trkpt lat="46.1671362" lon="13.615009"><ele>557.0</ele><time>2026-05-02T10:38:51.262Z</time></trkpt><trkpt lat="46.167095" lon="13.6151204"><ele>557.0</ele><time>2026-05-02T10:38:53.262Z</time></trkpt><trkpt lat="46.1670428" lon="13.6152496"><ele>557.0</ele><time>2026-05-02T10:38:55.262Z</time></trkpt><trkpt lat="46.1670084" lon="13.6153413"><ele>557.0</ele><time>2026-05-02T10:38:57.263Z</time></trkpt><trkpt lat="46.166927" lon="13.615418"><ele>557.0</ele><time>2026-05-02T10:39:00.262Z</time></trkpt><trkpt lat="46.1668541" lon="13.6154613"><ele>556.5</ele><time>2026-05-02T10:39:01.262Z</time></trkpt><trkpt lat="46.1667814" lon="13.6154866"><ele>556.0</ele><time>2026-05-02T10:39:02.262Z</time></trkpt><trkpt lat="46.1667075" lon="13.6155196"><ele>555.5</ele><time>2026-05-02T10:39:03.262Z</time></trkpt><trkpt lat="46.1666437" lon="13.6155384"><ele>555.0</ele><time>2026-05-02T10:39:04.263Z</time></trkpt><trkpt lat="46.1665805" lon="13.6155618"><ele>554.5</ele><time>2026-05-02T10:39:05.262Z</time></trkpt><trkpt lat="46.1665262" lon="13.6156078"><ele>554.0</ele><time>2026-05-02T10:39:06.262Z</time></trkpt><trkpt lat="46.1664482" lon="13.6157292"><ele>554.0</ele><time>2026-05-02T10:39:08.263Z</time></trkpt><trkpt lat="46.1664108" lon="13.6158099"><ele>554.0</ele><time>2026-05-02T10:39:09.262Z</time></trkpt><trkpt lat="46.1663702" lon="13.615904"><ele>554.0</ele><time>2026-05-02T10:39:10.262Z</time></trkpt><trkpt lat="46.1663274" lon="13.6159915"><ele>554.0</ele><time>2026-05-02T10:39:11.262Z</time></trkpt><trkpt lat="46.1662896" lon="13.616071"><ele>554.0</ele><time>2026-05-02T10:39:12.263Z</time></trkpt><trkpt lat="46.1662555" lon="13.6161528"><ele>554.0</ele><time>2026-05-02T10:39:13.262Z</time></trkpt><trkpt lat="46.1662221" lon="13.6162367"><ele>554.0</ele><time>2026-05-02T10:39:14.263Z</time></trkpt><trkpt lat="46.1661341" lon="13.6163494"><ele>547.0</ele><time>2026-05-02T10:39:16.263Z</time></trkpt><trkpt lat="46.166084" lon="13.6164689"><ele>540.0</ele><time>2026-05-02T10:39:18.262Z</time></trkpt><trkpt lat="46.1660073" lon="13.6165402"><ele>533.0</ele><time>2026-05-02T10:39:20.262Z</time></trkpt><trkpt lat="46.1659413" lon="13.6166431"><ele>526.0</ele><time>2026-05-02T10:39:22.262Z</time></trkpt><trkpt lat="46.1658939" lon="13.6167672"><ele>519.0</ele><time>2026-05-02T10:39:24.263Z</time></trkpt><trkpt lat="46.1658597" lon="13.6168653"><ele>519.0</ele><time>2026-05-02T10:39:25.263Z</time></trkpt><trkpt lat="46.165796" lon="13.616974"><ele>519.0</ele><time>2026-05-02T10:39:26.262Z</time></trkpt><trkpt lat="46.1657356" lon="13.6170835"><ele>519.0</ele><time>2026-05-02T10:39:27.263Z</time></trkpt><trkpt lat="46.1656756" lon="13.6171503"><ele>519.0</ele><time>2026-05-02T10:39:28.262Z</time></trkpt><trkpt lat="46.1656284" lon="13.6172221"><ele>519.0</ele><time>2026-05-02T10:39:29.263Z</time></trkpt><trkpt lat="46.1655821" lon="13.6173064"><ele>519.0</ele><time>2026-05-02T10:39:30.262Z</time></trkpt><trkpt lat="46.1655173" lon="13.6174431"><ele>516.6</ele><time>2026-05-02T10:39:32.262Z</time></trkpt><trkpt lat="46.1654132" lon="13.6175595"><ele>514.2</ele><time>2026-05-02T10:39:34.262Z</time></trkpt><trkpt lat="46.1653587" lon="13.6176341"><ele>511.80000000000007</ele><time>2026-05-02T10:39:35.262Z</time></trkpt><trkpt lat="46.1653075" lon="13.6177014"><ele>509.40000000000003</ele><time>2026-05-02T10:39:36.263Z</time></trkpt><trkpt lat="46.1652572" lon="13.6177704"><ele>507.0</ele><time>2026-05-02T10:39:37.263Z</time></trkpt><trkpt lat="46.1651559" lon="13.6178953"><ele>502.0</ele><time>2026-05-02T10:39:39.263Z</time></trkpt><trkpt lat="46.1650615" lon="13.6179994"><ele>497.00000000000006</ele><time>2026-05-02T10:39:41.262Z</time></trkpt><trkpt lat="46.1649639" lon="13.6180957"><ele>492.00000000000006</ele><time>2026-05-02T10:39:43.263Z</time></trkpt><trkpt lat="46.1648595" lon="13.6181332"><ele>487.0</ele><time>2026-05-02T10:39:45.262Z</time></trkpt><trkpt lat="46.1647948" lon="13.6181056"><ele>482.0</ele><time>2026-05-02T10:39:46.263Z</time></trkpt><trkpt lat="46.1646901" lon="13.6180171"><ele>480.16666666666663</ele><time>2026-05-02T10:39:48.262Z</time></trkpt><trkpt lat="46.1646245" lon="13.6179565"><ele>478.3333333333333</ele><time>2026-05-02T10:39:49.263Z</time></trkpt><trkpt lat="46.1645627" lon="13.617928"><ele>476.5</ele><time>2026-05-02T10:39:50.262Z</time></trkpt><trkpt lat="46.1644531" lon="13.6178816"><ele>474.66666666666663</ele><time>2026-05-02T10:39:52.263Z</time></trkpt><trkpt lat="46.164379" lon="13.6178611"><ele>472.8333333333333</ele><time>2026-05-02T10:39:54.262Z</time></trkpt><trkpt lat="46.1643326" lon="13.6177752"><ele>471.0</ele><time>2026-05-02T10:39:56.263Z</time></trkpt><trkpt lat="46.1642948" lon="13.6176341"><ele>471.0</ele><time>2026-05-02T10:39:58.262Z</time></trkpt><trkpt lat="46.1642693" lon="13.6174958"><ele>471.0</ele><time>2026-05-02T10:40:00.263Z</time></trkpt><trkpt lat="46.1641894" lon="13.6173739"><ele>471.0</ele><time>2026-05-02T10:40:02.262Z</time></trkpt><trkpt lat="46.1640992" lon="13.6172836"><ele>471.0</ele><time>2026-05-02T10:40:04.262Z</time></trkpt><trkpt lat="46.1639912" lon="13.6172059"><ele>471.0</ele><time>2026-05-02T10:40:06.263Z</time></trkpt><trkpt lat="46.1639099" lon="13.6170982"><ele>469.0</ele><time>2026-05-02T10:40:08.263Z</time></trkpt><trkpt lat="46.1638627" lon="13.616975"><ele>467.0</ele><time>2026-05-02T10:40:10.263Z</time></trkpt><trkpt lat="46.1637934" lon="13.6168497"><ele>465.0</ele><time>2026-05-02T10:40:12.262Z</time></trkpt><trkpt lat="46.1636952" lon="13.616754"><ele>463.0</ele><time>2026-05-02T10:40:14.263Z</time></trkpt><trkpt lat="46.1636019" lon="13.61669"><ele>461.0</ele><time>2026-05-02T10:40:16.263Z</time></trkpt><trkpt lat="46.1635058" lon="13.6166449"><ele>461.0</ele><time>2026-05-02T10:40:18.262Z</time></trkpt><trkpt lat="46.1633844" lon="13.616632"><ele>461.0</ele><time>2026-05-02T10:40:20.263Z</time></trkpt><trkpt lat="46.1632885" lon="13.6166039"><ele>461.0</ele><time>2026-05-02T10:40:22.262Z</time></trkpt><trkpt lat="46.1631748" lon="13.6165747"><ele>461.0</ele><time>2026-05-02T10:40:24.263Z</time></trkpt><trkpt lat="46.1630624" lon="13.6165462"><ele>461.0</ele><time>2026-05-02T10:40:26.263Z</time></trkpt><trkpt lat="46.1629574" lon="13.6165219"><ele>454.8</ele><time>2026-05-02T10:40:28.262Z</time></trkpt><trkpt lat="46.1628369" lon="13.6164973"><ele>448.6</ele><time>2026-05-02T10:40:30.263Z</time></trkpt><trkpt lat="46.1627684" lon="13.6165021"><ele>442.4</ele><time>2026-05-02T10:40:31.263Z</time></trkpt><trkpt lat="46.1627049" lon="13.6164944"><ele>436.2</ele><time>2026-05-02T10:40:32.262Z</time></trkpt><trkpt lat="46.1625921" lon="13.6164453"><ele>430.0</ele><time>2026-05-02T10:40:34.262Z</time></trkpt><trkpt lat="46.162483" lon="13.6163925"><ele>430.0</ele><time>2026-05-02T10:40:36.263Z</time></trkpt><trkpt lat="46.1624018" lon="13.6162827"><ele>430.0</ele><time>2026-05-02T10:40:38.262Z</time></trkpt><trkpt lat="46.1623096" lon="13.6162082"><ele>430.0</ele><time>2026-05-02T10:40:40.263Z</time></trkpt><trkpt lat="46.1622147" lon="13.6161742"><ele>430.0</ele><time>2026-05-02T10:40:42.263Z</time></trkpt><trkpt lat="46.1621338" lon="13.6161647"><ele>430.0</ele><time>2026-05-02T10:40:44.262Z</time></trkpt><trkpt lat="46.1620173" lon="13.6160891"><ele>429.83333333333337</ele><time>2026-05-02T10:40:46.263Z</time></trkpt><trkpt lat="46.161954" lon="13.6160223"><ele>429.6666666666667</ele><time>2026-05-02T10:40:47.263Z</time></trkpt><trkpt lat="46.1618869" lon="13.6159786"><ele>429.5</ele><time>2026-05-02T10:40:48.263Z</time></trkpt><trkpt lat="46.1618301" lon="13.6159243"><ele>429.33333333333337</ele><time>2026-05-02T10:40:49.262Z</time></trkpt><trkpt lat="46.1617332" lon="13.615839"><ele>429.1666666666667</ele><time>2026-05-02T10:40:51.263Z</time></trkpt><trkpt lat="46.1616752" lon="13.6157983"><ele>429.0</ele><time>2026-05-02T10:40:52.262Z</time></trkpt><trkpt lat="46.1615733" lon="13.6157369"><ele>419.2</ele><time>2026-05-02T10:40:54.262Z</time></trkpt><trkpt lat="46.1614782" lon="13.6156545"><ele>409.4</ele><time>2026-05-02T10:40:56.263Z</time></trkpt><trkpt lat="46.1614169" lon="13.6155975"><ele>399.6</ele><time>2026-05-02T10:40:57.263Z</time></trkpt><trkpt lat="46.1613417" lon="13.6154656"><ele>389.8</ele><time>2026-05-02T10:40:59.262Z</time></trkpt><trkpt lat="46.1612521" lon="13.615346"><ele>380.0</ele><time>2026-05-02T10:41:01.262Z</time></trkpt><trkpt lat="46.1611585" lon="13.6152243"><ele>380.0</ele><time>2026-05-02T10:41:03.262Z</time></trkpt><trkpt lat="46.1611137" lon="13.6151352"><ele>380.0</ele><time>2026-05-02T10:41:04.263Z</time></trkpt><trkpt lat="46.1610887" lon="13.6150393"><ele>380.0</ele><time>2026-05-02T10:41:05.262Z</time></trkpt><trkpt lat="46.1610581" lon="13.6149589"><ele>380.0</ele><time>2026-05-02T10:41:06.263Z</time></trkpt><trkpt lat="46.1610235" lon="13.6148605"><ele>380.0</ele><time>2026-05-02T10:41:07.263Z</time></trkpt><trkpt lat="46.1609888" lon="13.6147594"><ele>380.0</ele><time>2026-05-02T10:41:08.262Z</time></trkpt><trkpt lat="46.1609539" lon="13.6146542"><ele>380.0</ele><time>2026-05-02T10:41:09.263Z</time></trkpt><trkpt lat="46.1609188" lon="13.6145589"><ele>375.0</ele><time>2026-05-02T10:41:10.262Z</time></trkpt><trkpt lat="46.1608771" lon="13.6144807"><ele>370.0</ele><time>2026-05-02T10:41:11.262Z</time></trkpt><trkpt lat="46.1608518" lon="13.6143952"><ele>365.0</ele><time>2026-05-02T10:41:12.262Z</time></trkpt><trkpt lat="46.1608141" lon="13.6142464"><ele>360.0</ele><time>2026-05-02T10:41:14.262Z</time></trkpt><trkpt lat="46.1607598" lon="13.6140852"><ele>355.0</ele><time>2026-05-02T10:41:16.262Z</time></trkpt><trkpt lat="46.160693" lon="13.613949"><ele>355.0</ele><time>2026-05-02T10:41:18.262Z</time></trkpt><trkpt lat="46.160606" lon="13.6138287"><ele>355.0</ele><time>2026-05-02T10:41:20.263Z</time></trkpt><trkpt lat="46.1605168" lon="13.6137275"><ele>355.0</ele><time>2026-05-02T10:41:22.262Z</time></trkpt><trkpt lat="46.1604635" lon="13.6135968"><ele>355.0</ele><time>2026-05-02T10:41:24.262Z</time></trkpt><trkpt lat="46.160396" lon="13.6134745"><ele>355.0</ele><time>2026-05-02T10:41:26.262Z</time></trkpt><trkpt lat="46.1603514" lon="13.6134073"><ele>358.0</ele><time>2026-05-02T10:41:27.262Z</time></trkpt><trkpt lat="46.1602854" lon="13.6132764"><ele>361.0</ele><time>2026-05-02T10:41:29.262Z</time></trkpt><trkpt lat="46.1602237" lon="13.6131266"><ele>364.0</ele><time>2026-05-02T10:41:31.262Z</time></trkpt><trkpt lat="46.1601958" lon="13.6130332"><ele>367.0</ele><time>2026-05-02T10:41:32.263Z</time></trkpt><trkpt lat="46.1601732" lon="13.61294"><ele>370.0</ele><time>2026-05-02T10:41:33.262Z</time></trkpt><trkpt lat="46.1601612" lon="13.6128489"><ele>373.0</ele><time>2026-05-02T10:41:34.263Z</time></trkpt><trkpt lat="46.1601638" lon="13.6127518"><ele>375.66666666666663</ele><time>2026-05-02T10:41:35.262Z</time></trkpt><trkpt lat="46.1601555" lon="13.6126504"><ele>378.3333333333333</ele><time>2026-05-02T10:41:36.262Z</time></trkpt><trkpt lat="46.1601266" lon="13.6125031"><ele>381.0</ele><time>2026-05-02T10:41:38.263Z</time></trkpt><trkpt lat="46.1601517" lon="13.6123776"><ele>383.66666666666663</ele><time>2026-05-02T10:41:40.263Z</time></trkpt><trkpt lat="46.1602056" lon="13.6122432"><ele>386.3333333333333</ele><time>2026-05-02T10:41:42.263Z</time></trkpt><trkpt lat="46.1602215" lon="13.612141"><ele>389.0</ele><time>2026-05-02T10:41:44.262Z</time></trkpt><trkpt lat="46.160173" lon="13.6120105"><ele>390.79999999999995</ele><time>2026-05-02T10:41:46.262Z</time></trkpt><trkpt lat="46.1600959" lon="13.6119192"><ele>392.59999999999997</ele><time>2026-05-02T10:41:48.263Z</time></trkpt><trkpt lat="46.1600543" lon="13.611744"><ele>394.4</ele><time>2026-05-02T10:41:50.263Z</time></trkpt><trkpt lat="46.160015" lon="13.6116444"><ele>396.2</ele><time>2026-05-02T10:41:51.262Z</time></trkpt><trkpt lat="46.1599684" lon="13.6115559"><ele>398.0</ele><time>2026-05-02T10:41:52.262Z</time></trkpt><trkpt lat="46.1599191" lon="13.6114695"><ele>397.99999999999994</ele><time>2026-05-02T10:41:53.262Z</time></trkpt><trkpt lat="46.1598821" lon="13.6113788"><ele>398.0</ele><time>2026-05-02T10:41:54.262Z</time></trkpt><trkpt lat="46.1598456" lon="13.611291"><ele>398.0</ele><time>2026-05-02T10:41:55.263Z</time></trkpt><trkpt lat="46.1598164" lon="13.6111946"><ele>398.0</ele><time>2026-05-02T10:41:56.263Z</time></trkpt><trkpt lat="46.1597845" lon="13.6111054"><ele>398.0</ele><time>2026-05-02T10:41:57.262Z</time></trkpt><trkpt lat="46.1597611" lon="13.6110016"><ele>397.99999999999994</ele><time>2026-05-02T10:41:58.263Z</time></trkpt><trkpt lat="46.1597415" lon="13.6108852"><ele>398.0</ele><time>2026-05-02T10:41:59.263Z</time></trkpt><trkpt lat="46.1597251" lon="13.6107661"><ele>391.3333333333333</ele><time>2026-05-02T10:42:00.262Z</time></trkpt><trkpt lat="46.1596978" lon="13.6106429"><ele>384.66666666666663</ele><time>2026-05-02T10:42:01.262Z</time></trkpt><trkpt lat="46.1596743" lon="13.6105371"><ele>378.0</ele><time>2026-05-02T10:42:02.263Z</time></trkpt><trkpt lat="46.1596559" lon="13.6104232"><ele>371.3333333333333</ele><time>2026-05-02T10:42:03.263Z</time></trkpt><trkpt lat="46.1596354" lon="13.6103179"><ele>364.66666666666663</ele><time>2026-05-02T10:42:04.262Z</time></trkpt><trkpt lat="46.1596183" lon="13.610204"><ele>358.0</ele><time>2026-05-02T10:42:05.262Z</time></trkpt><trkpt lat="46.1596104" lon="13.6100804"><ele>358.3333333333333</ele><time>2026-05-02T10:42:06.263Z</time></trkpt><trkpt lat="46.1596005" lon="13.6099614"><ele>358.66666666666663</ele><time>2026-05-02T10:42:07.263Z</time></trkpt><trkpt lat="46.1595807" lon="13.6098327"><ele>359.0</ele><time>2026-05-02T10:42:08.262Z</time></trkpt><trkpt lat="46.1595631" lon="13.6097137"><ele>359.3333333333333</ele><time>2026-05-02T10:42:09.263Z</time></trkpt><trkpt lat="46.1595467" lon="13.6096078"><ele>359.6666666666667</ele><time>2026-05-02T10:42:10.262Z</time></trkpt><trkpt lat="46.1595276" lon="13.6094857"><ele>360.0</ele><time>2026-05-02T10:42:11.263Z</time></trkpt><trkpt lat="46.1595105" lon="13.6093744"><ele>360.0</ele><time>2026-05-02T10:42:12.262Z</time></trkpt><trkpt lat="46.1594867" lon="13.6092765"><ele>360.0</ele><time>2026-05-02T10:42:13.262Z</time></trkpt><trkpt lat="46.159464" lon="13.6091819"><ele>360.0</ele><time>2026-05-02T10:42:14.263Z</time></trkpt><trkpt lat="46.1594348" lon="13.6090991"><ele>360.0</ele><time>2026-05-02T10:42:15.263Z</time></trkpt><trkpt lat="46.1593843" lon="13.6089432"><ele>360.0</ele><time>2026-05-02T10:42:17.263Z</time></trkpt><trkpt lat="46.1593383" lon="13.6087976"><ele>360.0</ele><time>2026-05-02T10:42:19.262Z</time></trkpt><trkpt lat="46.1593139" lon="13.608711"><ele>363.5</ele><time>2026-05-02T10:42:20.263Z</time></trkpt><trkpt lat="46.1592585" lon="13.6085356"><ele>367.0</ele><time>2026-05-02T10:42:22.262Z</time></trkpt><trkpt lat="46.1592045" lon="13.6083859"><ele>370.5</ele><time>2026-05-02T10:42:24.262Z</time></trkpt><trkpt lat="46.1591256" lon="13.6082304"><ele>374.0</ele><time>2026-05-02T10:42:26.262Z</time></trkpt><trkpt lat="46.1590861" lon="13.6081408"><ele>374.0</ele><time>2026-05-02T10:42:27.262Z</time></trkpt><trkpt lat="46.1590445" lon="13.6080625"><ele>374.0</ele><time>2026-05-02T10:42:28.263Z</time></trkpt><trkpt lat="46.1590067" lon="13.6079843"><ele>374.0</ele><time>2026-05-02T10:42:29.262Z</time></trkpt><trkpt lat="46.1589678" lon="13.6079073"><ele>374.0</ele><time>2026-05-02T10:42:30.263Z</time></trkpt><trkpt lat="46.1589277" lon="13.6078269"><ele>374.0</ele><time>2026-05-02T10:42:31.262Z</time></trkpt><trkpt lat="46.158891" lon="13.6077393"><ele>374.0</ele><time>2026-05-02T10:42:32.263Z</time></trkpt><trkpt lat="46.1588643" lon="13.6076428"><ele>374.0</ele><time>2026-05-02T10:42:33.263Z</time></trkpt><trkpt lat="46.1588368" lon="13.6075574"><ele>368.1666666666667</ele><time>2026-05-02T10:42:34.263Z</time></trkpt><trkpt lat="46.1588145" lon="13.6074666"><ele>362.33333333333337</ele><time>2026-05-02T10:42:35.263Z</time></trkpt><trkpt lat="46.1588201" lon="13.6073695"><ele>356.5</ele><time>2026-05-02T10:42:36.263Z</time></trkpt><trkpt lat="46.1588225" lon="13.607274"><ele>350.6666666666667</ele><time>2026-05-02T10:42:37.263Z</time></trkpt><trkpt lat="46.1588411" lon="13.6071866"><ele>344.8333333333333</ele><time>2026-05-02T10:42:38.263Z</time></trkpt><trkpt lat="46.1588966" lon="13.6070462"><ele>339.0</ele><time>2026-05-02T10:42:40.262Z</time></trkpt><trkpt lat="46.1589437" lon="13.6069333"><ele>339.0</ele><time>2026-05-02T10:42:42.263Z</time></trkpt><trkpt lat="46.1589238" lon="13.6068466"><ele>339.0</ele><time>2026-05-02T10:42:44.263Z</time></trkpt><trkpt lat="46.1588755" lon="13.6067688"><ele>339.0</ele><time>2026-05-02T10:42:46.263Z</time></trkpt><trkpt lat="46.1588052" lon="13.6066729"><ele>339.0</ele><time>2026-05-02T10:42:48.262Z</time></trkpt><trkpt lat="46.1587486" lon="13.6066302"><ele>339.0</ele><time>2026-05-02T10:42:50.263Z</time></trkpt><trkpt lat="46.1586871" lon="13.6066586"><ele>339.0</ele><time>2026-05-02T10:42:54.263Z</time></trkpt><trkpt lat="46.1587489" lon="13.6067395"><ele>339.0</ele><time>2026-05-02T10:42:57.263Z</time></trkpt><trkpt lat="46.1588058" lon="13.606825"><ele>339.0</ele><time>2026-05-02T10:42:59.262Z</time></trkpt><trkpt lat="46.1587788" lon="13.606954"><ele>339.0</ele><time>2026-05-02T10:43:01.262Z</time></trkpt><trkpt lat="46.1587183" lon="13.6070916"><ele>339.0</ele><time>2026-05-02T10:43:03.262Z</time></trkpt><trkpt lat="46.1586337" lon="13.6072081"><ele>339.0</ele><time>2026-05-02T10:43:05.261Z</time></trkpt><trkpt lat="46.1585798" lon="13.6073537"><ele>339.0</ele><time>2026-05-02T10:43:07.261Z</time></trkpt><trkpt lat="46.1585434" lon="13.6075149"><ele>337.79999999999995</ele><time>2026-05-02T10:43:09.261Z</time></trkpt><trkpt lat="46.1585334" lon="13.6076093"><ele>336.59999999999997</ele><time>2026-05-02T10:43:10.261Z</time></trkpt><trkpt lat="46.1585426" lon="13.607771"><ele>335.4</ele><time>2026-05-02T10:43:12.261Z</time></trkpt><trkpt lat="46.1585696" lon="13.6079239"><ele>334.2</ele><time>2026-05-02T10:43:14.261Z</time></trkpt><trkpt lat="46.1586026" lon="13.6080129"><ele>333.0</ele><time>2026-05-02T10:43:15.262Z</time></trkpt><trkpt lat="46.1586428" lon="13.6081842"><ele>332.5</ele><time>2026-05-02T10:43:17.263Z</time></trkpt><trkpt lat="46.1586694" lon="13.6082851"><ele>332.0</ele><time>2026-05-02T10:43:18.263Z</time></trkpt><trkpt lat="46.1587018" lon="13.6083776"><ele>331.5</ele><time>2026-05-02T10:43:19.263Z</time></trkpt><trkpt lat="46.1587329" lon="13.6084909"><ele>331.0</ele><time>2026-05-02T10:43:20.262Z</time></trkpt><trkpt lat="46.1587487" lon="13.6086006"><ele>330.5</ele><time>2026-05-02T10:43:21.263Z</time></trkpt><trkpt lat="46.1587537" lon="13.6087277"><ele>330.0</ele><time>2026-05-02T10:43:22.262Z</time></trkpt><trkpt lat="46.1587669" lon="13.6088623"><ele>327.8333333333333</ele><time>2026-05-02T10:43:23.262Z</time></trkpt><trkpt lat="46.1587888" lon="13.6089924"><ele>325.6666666666667</ele><time>2026-05-02T10:43:24.262Z</time></trkpt><trkpt lat="46.1587998" lon="13.6091051"><ele>323.5</ele><time>2026-05-02T10:43:25.263Z</time></trkpt><trkpt lat="46.1588158" lon="13.6092131"><ele>321.33333333333337</ele><time>2026-05-02T10:43:26.263Z</time></trkpt><trkpt lat="46.1588321" lon="13.6093238"><ele>319.1666666666667</ele><time>2026-05-02T10:43:27.262Z</time></trkpt><trkpt lat="46.1588391" lon="13.6094206"><ele>317.0</ele><time>2026-05-02T10:43:28.262Z</time></trkpt><trkpt lat="46.1588381" lon="13.6095129"><ele>315.6</ele><time>2026-05-02T10:43:29.262Z</time></trkpt><trkpt lat="46.15884" lon="13.6096906"><ele>314.2</ele><time>2026-05-02T10:43:31.263Z</time></trkpt><trkpt lat="46.1588402" lon="13.6097878"><ele>312.8</ele><time>2026-05-02T10:43:32.263Z</time></trkpt><trkpt lat="46.1588339" lon="13.6099884"><ele>311.4</ele><time>2026-05-02T10:43:34.262Z</time></trkpt><trkpt lat="46.1588304" lon="13.6100934"><ele>310.0</ele><time>2026-05-02T10:43:35.262Z</time></trkpt><trkpt lat="46.1588301" lon="13.6102107"><ele>310.0</ele><time>2026-05-02T10:43:36.263Z</time></trkpt><trkpt lat="46.1588224" lon="13.6103148"><ele>310.0</ele><time>2026-05-02T10:43:37.263Z</time></trkpt><trkpt lat="46.1588152" lon="13.6104279"><ele>310.0</ele><time>2026-05-02T10:43:38.262Z</time></trkpt><trkpt lat="46.1588062" lon="13.6105419"><ele>310.0</ele><time>2026-05-02T10:43:39.263Z</time></trkpt><trkpt lat="46.1587981" lon="13.6106615"><ele>310.0</ele><time>2026-05-02T10:43:40.262Z</time></trkpt><trkpt lat="46.1587924" lon="13.6107594"><ele>310.0</ele><time>2026-05-02T10:43:41.263Z</time></trkpt><trkpt lat="46.1587863" lon="13.6108534"><ele>310.0</ele><time>2026-05-02T10:43:42.262Z</time></trkpt><trkpt lat="46.1587634" lon="13.6110398"><ele>310.5</ele><time>2026-05-02T10:43:44.262Z</time></trkpt><trkpt lat="46.158749" lon="13.6111456"><ele>311.0</ele><time>2026-05-02T10:43:45.262Z</time></trkpt><trkpt lat="46.1587325" lon="13.611252"><ele>311.5</ele><time>2026-05-02T10:43:46.263Z</time></trkpt><trkpt lat="46.1587218" lon="13.6113582"><ele>312.0</ele><time>2026-05-02T10:43:47.263Z</time></trkpt><trkpt lat="46.1587011" lon="13.611456"><ele>312.5</ele><time>2026-05-02T10:43:48.263Z</time></trkpt><trkpt lat="46.1586582" lon="13.6116394"><ele>313.0</ele><time>2026-05-02T10:43:50.263Z</time></trkpt><trkpt lat="46.1586584" lon="13.6117461"><ele>313.1428571428571</ele><time>2026-05-02T10:43:51.263Z</time></trkpt><trkpt lat="46.1586548" lon="13.611845"><ele>313.2857142857143</ele><time>2026-05-02T10:43:52.262Z</time></trkpt><trkpt lat="46.1586691" lon="13.6119482"><ele>313.42857142857144</ele><time>2026-05-02T10:43:53.262Z</time></trkpt><trkpt lat="46.1586788" lon="13.6120493"><ele>313.57142857142856</ele><time>2026-05-02T10:43:54.262Z</time></trkpt><trkpt lat="46.1586804" lon="13.6121421"><ele>313.7142857142857</ele><time>2026-05-02T10:43:55.263Z</time></trkpt><trkpt lat="46.1586909" lon="13.6122465"><ele>313.85714285714283</ele><time>2026-05-02T10:43:56.262Z</time></trkpt><trkpt lat="46.1587105" lon="13.6123351"><ele>314.0</ele><time>2026-05-02T10:43:57.263Z</time></trkpt><trkpt lat="46.1587498" lon="13.6124144"><ele>314.0</ele><time>2026-05-02T10:43:58.263Z</time></trkpt><trkpt lat="46.1588455" lon="13.6125055"><ele>314.0</ele><time>2026-05-02T10:44:00.263Z</time></trkpt><trkpt lat="46.1589372" lon="13.6125491"><ele>314.0</ele><time>2026-05-02T10:44:02.263Z</time></trkpt><trkpt lat="46.1589821" lon="13.6126276"><ele>314.0</ele><time>2026-05-02T10:44:06.263Z</time></trkpt><trkpt lat="46.1589511" lon="13.6127513"><ele>314.0</ele><time>2026-05-02T10:44:22.263Z</time></trkpt><trkpt lat="46.1589331" lon="13.6129034"><ele>313.6666666666667</ele><time>2026-05-02T10:44:24.263Z</time></trkpt><trkpt lat="46.1589622" lon="13.6130644"><ele>313.33333333333337</ele><time>2026-05-02T10:44:26.263Z</time></trkpt><trkpt lat="46.159006" lon="13.6131462"><ele>313.0</ele><time>2026-05-02T10:44:27.262Z</time></trkpt><trkpt lat="46.1590481" lon="13.6132183"><ele>312.6666666666667</ele><time>2026-05-02T10:44:28.263Z</time></trkpt><trkpt lat="46.1590938" lon="13.6132987"><ele>312.3333333333333</ele><time>2026-05-02T10:44:29.262Z</time></trkpt><trkpt lat="46.1591225" lon="13.6133954"><ele>312.0</ele><time>2026-05-02T10:44:30.263Z</time></trkpt><trkpt lat="46.1591486" lon="13.6134854"><ele>313.7142857142857</ele><time>2026-05-02T10:44:31.263Z</time></trkpt><trkpt lat="46.1591861" lon="13.61359"><ele>315.4285714285714</ele><time>2026-05-02T10:44:32.263Z</time></trkpt><trkpt lat="46.1592222" lon="13.6137006"><ele>317.1428571428571</ele><time>2026-05-02T10:44:33.263Z</time></trkpt><trkpt lat="46.1592517" lon="13.6137969"><ele>318.8571428571429</ele><time>2026-05-02T10:44:34.263Z</time></trkpt><trkpt lat="46.1592848" lon="13.6138764"><ele>320.57142857142856</ele><time>2026-05-02T10:44:35.262Z</time></trkpt><trkpt lat="46.1593192" lon="13.6139601"><ele>322.2857142857143</ele><time>2026-05-02T10:44:36.262Z</time></trkpt><trkpt lat="46.1593469" lon="13.6140456"><ele>324.0</ele><time>2026-05-02T10:44:37.263Z</time></trkpt><trkpt lat="46.1593737" lon="13.6141305"><ele>324.0</ele><time>2026-05-02T10:44:38.263Z</time></trkpt><trkpt lat="46.1593995" lon="13.614218"><ele>324.0</ele><time>2026-05-02T10:44:39.262Z</time></trkpt><trkpt lat="46.1594158" lon="13.6143077"><ele>324.0</ele><time>2026-05-02T10:44:40.263Z</time></trkpt><trkpt lat="46.1594231" lon="13.6144097"><ele>324.0</ele><time>2026-05-02T10:44:41.263Z</time></trkpt><trkpt lat="46.1594399" lon="13.6145095"><ele>324.0</ele><time>2026-05-02T10:44:42.262Z</time></trkpt><trkpt lat="46.1594524" lon="13.614599"><ele>324.0</ele><time>2026-05-02T10:44:43.263Z</time></trkpt><trkpt lat="46.1594694" lon="13.6146928"><ele>324.0</ele><time>2026-05-02T10:44:44.262Z</time></trkpt><trkpt lat="46.159487" lon="13.6148834"><ele>322.0</ele><time>2026-05-02T10:44:46.262Z</time></trkpt><trkpt lat="46.1594978" lon="13.6149894"><ele>320.0</ele><time>2026-05-02T10:44:47.262Z</time></trkpt><trkpt lat="46.1595105" lon="13.6151007"><ele>318.0</ele><time>2026-05-02T10:44:48.263Z</time></trkpt><trkpt lat="46.1595261" lon="13.6152825"><ele>316.0</ele><time>2026-05-02T10:44:50.262Z</time></trkpt><trkpt lat="46.1595267" lon="13.6153801"><ele>314.0</ele><time>2026-05-02T10:44:51.263Z</time></trkpt><trkpt lat="46.1595153" lon="13.6155384"><ele>313.0</ele><time>2026-05-02T10:44:53.262Z</time></trkpt><trkpt lat="46.1595426" lon="13.6156307"><ele>312.0</ele><time>2026-05-02T10:44:55.263Z</time></trkpt><trkpt lat="46.1595853" lon="13.6157105"><ele>311.0</ele><time>2026-05-02T10:44:58.261Z</time></trkpt><trkpt lat="46.1595129" lon="13.615728"><ele>310.0</ele><time>2026-05-02T10:45:02.261Z</time></trkpt><trkpt lat="46.1594192" lon="13.615669"><ele>309.0</ele><time>2026-05-02T10:45:04.261Z</time></trkpt><trkpt lat="46.1593313" lon="13.6155627"><ele>308.0</ele><time>2026-05-02T10:45:06.262Z</time></trkpt><trkpt lat="46.1593085" lon="13.6154526"><ele>308.0</ele><time>2026-05-02T10:45:07.261Z</time></trkpt><trkpt lat="46.1592889" lon="13.6153231"><ele>308.0</ele><time>2026-05-02T10:45:08.261Z</time></trkpt><trkpt lat="46.1592747" lon="13.6151989"><ele>308.0</ele><time>2026-05-02T10:45:09.261Z</time></trkpt><trkpt lat="46.1592561" lon="13.6150692"><ele>308.0</ele><time>2026-05-02T10:45:10.262Z</time></trkpt><trkpt lat="46.159231" lon="13.6149049"><ele>308.0</ele><time>2026-05-02T10:45:11.262Z</time></trkpt><trkpt lat="46.1592011" lon="13.6147045"><ele>309.6666666666667</ele><time>2026-05-02T10:45:12.261Z</time></trkpt><trkpt lat="46.1591537" lon="13.6144896"><ele>311.3333333333333</ele><time>2026-05-02T10:45:13.261Z</time></trkpt><trkpt lat="46.159088" lon="13.6142589"><ele>313.0</ele><time>2026-05-02T10:45:14.261Z</time></trkpt><trkpt lat="46.1590159" lon="13.6140388"><ele>313.0</ele><time>2026-05-02T10:45:15.261Z</time></trkpt><trkpt lat="46.1589082" lon="13.6138024"><ele>313.0</ele><time>2026-05-02T10:45:16.261Z</time></trkpt><trkpt lat="46.158777" lon="13.6135747"><ele>313.0</ele><time>2026-05-02T10:45:17.261Z</time></trkpt><trkpt lat="46.1586534" lon="13.6133183"><ele>312.66666666666663</ele><time>2026-05-02T10:45:18.262Z</time></trkpt><trkpt lat="46.1585386" lon="13.6130887"><ele>312.3333333333333</ele><time>2026-05-02T10:45:19.261Z</time></trkpt><trkpt lat="46.158437" lon="13.6128636"><ele>312.0</ele><time>2026-05-02T10:45:20.261Z</time></trkpt><trkpt lat="46.1583471" lon="13.6126509"><ele>312.6666666666667</ele><time>2026-05-02T10:45:21.262Z</time></trkpt><trkpt lat="46.1582775" lon="13.6124432"><ele>313.33333333333337</ele><time>2026-05-02T10:45:22.261Z</time></trkpt><trkpt lat="46.1582377" lon="13.6122333"><ele>314.0</ele><time>2026-05-02T10:45:23.262Z</time></trkpt><trkpt lat="46.1582002" lon="13.6120217"><ele>319.5</ele><time>2026-05-02T10:45:24.261Z</time></trkpt><trkpt lat="46.1581666" lon="13.6118062"><ele>325.0</ele><time>2026-05-02T10:45:25.261Z</time></trkpt><trkpt lat="46.1581359" lon="13.611611"><ele>330.5</ele><time>2026-05-02T10:45:26.261Z</time></trkpt><trkpt lat="46.1581498" lon="13.6114353"><ele>336.0</ele><time>2026-05-02T10:45:27.262Z</time></trkpt><trkpt lat="46.1581979" lon="13.6112342"><ele>328.3333333333333</ele><time>2026-05-02T10:45:28.261Z</time></trkpt><trkpt lat="46.1582567" lon="13.6110019"><ele>320.66666666666663</ele><time>2026-05-02T10:45:29.262Z</time></trkpt><trkpt lat="46.1582971" lon="13.6107678"><ele>313.0</ele><time>2026-05-02T10:45:30.262Z</time></trkpt><trkpt lat="46.1583347" lon="13.6105644"><ele>313.0</ele><time>2026-05-02T10:45:31.262Z</time></trkpt><trkpt lat="46.1583496" lon="13.6103797"><ele>313.0</ele><time>2026-05-02T10:45:32.261Z</time></trkpt><trkpt lat="46.1583396" lon="13.6102062"><ele>313.0</ele><time>2026-05-02T10:45:33.262Z</time></trkpt><trkpt lat="46.1582772" lon="13.6100461"><ele>313.0</ele><time>2026-05-02T10:45:34.262Z</time></trkpt><trkpt lat="46.1581784" lon="13.6098919"><ele>316.75</ele><time>2026-05-02T10:45:35.261Z</time></trkpt><trkpt lat="46.1580752" lon="13.6097714"><ele>320.5</ele><time>2026-05-02T10:45:36.262Z</time></trkpt><trkpt lat="46.1579684" lon="13.6096869"><ele>324.25</ele><time>2026-05-02T10:45:37.262Z</time></trkpt><trkpt lat="46.1578723" lon="13.6096311"><ele>328.0</ele><time>2026-05-02T10:45:38.261Z</time></trkpt><trkpt lat="46.1577907" lon="13.609559"><ele>324.75</ele><time>2026-05-02T10:45:39.262Z</time></trkpt><trkpt lat="46.1577405" lon="13.6094333"><ele>321.5</ele><time>2026-05-02T10:45:40.261Z</time></trkpt><trkpt lat="46.1577127" lon="13.6092772"><ele>318.25</ele><time>2026-05-02T10:45:41.262Z</time></trkpt><trkpt lat="46.1576946" lon="13.6090874"><ele>315.0</ele><time>2026-05-02T10:45:42.261Z</time></trkpt><trkpt lat="46.1576759" lon="13.6088882"><ele>315.0</ele><time>2026-05-02T10:45:43.262Z</time></trkpt><trkpt lat="46.1576623" lon="13.6086794"><ele>315.0</ele><time>2026-05-02T10:45:44.262Z</time></trkpt><trkpt lat="46.1576637" lon="13.608472"><ele>315.0</ele><time>2026-05-02T10:45:45.262Z</time></trkpt><trkpt lat="46.1577083" lon="13.6082803"><ele>315.0</ele><time>2026-05-02T10:45:46.261Z</time></trkpt><trkpt lat="46.1577664" lon="13.6080858"><ele>311.75</ele><time>2026-05-02T10:45:47.261Z</time></trkpt><trkpt lat="46.157819" lon="13.6079246"><ele>308.5</ele><time>2026-05-02T10:45:48.262Z</time></trkpt><trkpt lat="46.1578015" lon="13.6077577"><ele>305.25</ele><time>2026-05-02T10:45:49.261Z</time></trkpt><trkpt lat="46.1577516" lon="13.6076012"><ele>302.0</ele><time>2026-05-02T10:45:50.262Z</time></trkpt><trkpt lat="46.1576917" lon="13.6074547"><ele>301.0</ele><time>2026-05-02T10:45:51.261Z</time></trkpt><trkpt lat="46.157588" lon="13.607309"><ele>300.0</ele><time>2026-05-02T10:45:52.261Z</time></trkpt><trkpt lat="46.1574699" lon="13.6071855"><ele>299.0</ele><time>2026-05-02T10:45:53.261Z</time></trkpt><trkpt lat="46.1573553" lon="13.6070871"><ele>298.0</ele><time>2026-05-02T10:45:54.262Z</time></trkpt><trkpt lat="46.1572547" lon="13.6069842"><ele>298.0</ele><time>2026-05-02T10:45:55.262Z</time></trkpt><trkpt lat="46.1571745" lon="13.606865"><ele>298.0</ele><time>2026-05-02T10:45:56.261Z</time></trkpt><trkpt lat="46.1571154" lon="13.606728"><ele>298.0</ele><time>2026-05-02T10:45:57.261Z</time></trkpt><trkpt lat="46.1570982" lon="13.6065487"><ele>298.0</ele><time>2026-05-02T10:45:58.261Z</time></trkpt><trkpt lat="46.1570785" lon="13.6063676"><ele>298.0</ele><time>2026-05-02T10:45:59.261Z</time></trkpt><trkpt lat="46.1570559" lon="13.606165"><ele>298.0</ele><time>2026-05-02T10:46:00.261Z</time></trkpt><trkpt lat="46.1570307" lon="13.6059527"><ele>298.0</ele><time>2026-05-02T10:46:01.262Z</time></trkpt><trkpt lat="46.1570092" lon="13.6057429"><ele>298.0</ele><time>2026-05-02T10:46:02.261Z</time></trkpt><trkpt lat="46.1570178" lon="13.6055418"><ele>295.0</ele><time>2026-05-02T10:46:03.262Z</time></trkpt><trkpt lat="46.1570272" lon="13.6053408"><ele>292.0</ele><time>2026-05-02T10:46:04.262Z</time></trkpt><trkpt lat="46.1570216" lon="13.6051425"><ele>289.0</ele><time>2026-05-02T10:46:05.262Z</time></trkpt><trkpt lat="46.1569758" lon="13.6049664"><ele>286.0</ele><time>2026-05-02T10:46:06.262Z</time></trkpt><trkpt lat="46.1569" lon="13.60479"><ele>286.0</ele><time>2026-05-02T10:46:07.262Z</time></trkpt><trkpt lat="46.1568211" lon="13.6046291"><ele>286.0</ele><time>2026-05-02T10:46:08.261Z</time></trkpt><trkpt lat="46.1567582" lon="13.6044562"><ele>286.0</ele><time>2026-05-02T10:46:09.261Z</time></trkpt><trkpt lat="46.1567056" lon="13.6042811"><ele>286.0</ele><time>2026-05-02T10:46:10.262Z</time></trkpt><trkpt lat="46.1566582" lon="13.6040803"><ele>286.0</ele><time>2026-05-02T10:46:11.261Z</time></trkpt><trkpt lat="46.1566207" lon="13.6038698"><ele>286.0</ele><time>2026-05-02T10:46:12.262Z</time></trkpt><trkpt lat="46.1566038" lon="13.6036372"><ele>286.0</ele><time>2026-05-02T10:46:13.261Z</time></trkpt><trkpt lat="46.1565963" lon="13.6034"><ele>286.3333333333333</ele><time>2026-05-02T10:46:14.262Z</time></trkpt><trkpt lat="46.1565915" lon="13.6031642"><ele>286.6666666666667</ele><time>2026-05-02T10:46:15.262Z</time></trkpt><trkpt lat="46.1565855" lon="13.6029332"><ele>287.0</ele><time>2026-05-02T10:46:16.262Z</time></trkpt><trkpt lat="46.1565809" lon="13.6027222"><ele>287.0</ele><time>2026-05-02T10:46:17.261Z</time></trkpt><trkpt lat="46.1565759" lon="13.6025151"><ele>287.0</ele><time>2026-05-02T10:46:18.262Z</time></trkpt><trkpt lat="46.1565835" lon="13.6023069"><ele>287.0</ele><time>2026-05-02T10:46:19.261Z</time></trkpt><trkpt lat="46.1566077" lon="13.6020966"><ele>287.0</ele><time>2026-05-02T10:46:20.262Z</time></trkpt><trkpt lat="46.1566667" lon="13.6018867"><ele>285.5</ele><time>2026-05-02T10:46:21.262Z</time></trkpt><trkpt lat="46.1567261" lon="13.6016779"><ele>284.0</ele><time>2026-05-02T10:46:22.262Z</time></trkpt><trkpt lat="46.1567961" lon="13.6014901"><ele>282.5</ele><time>2026-05-02T10:46:23.262Z</time></trkpt><trkpt lat="46.1568655" lon="13.6013245"><ele>281.0</ele><time>2026-05-02T10:46:24.262Z</time></trkpt><trkpt lat="46.1569155" lon="13.6011528"><ele>281.0</ele><time>2026-05-02T10:46:25.262Z</time></trkpt><trkpt lat="46.1569331" lon="13.6009575"><ele>281.0</ele><time>2026-05-02T10:46:26.262Z</time></trkpt><trkpt lat="46.1569295" lon="13.6007684"><ele>281.0</ele><time>2026-05-02T10:46:27.261Z</time></trkpt><trkpt lat="46.1569113" lon="13.6005577"><ele>281.0</ele><time>2026-05-02T10:46:28.262Z</time></trkpt><trkpt lat="46.1568963" lon="13.6003528"><ele>280.75</ele><time>2026-05-02T10:46:29.262Z</time></trkpt><trkpt lat="46.1568618" lon="13.6001804"><ele>280.5</ele><time>2026-05-02T10:46:30.261Z</time></trkpt><trkpt lat="46.1568013" lon="13.6000116"><ele>280.25</ele><time>2026-05-02T10:46:31.261Z</time></trkpt><trkpt lat="46.156722" lon="13.5998685"><ele>280.0</ele><time>2026-05-02T10:46:32.262Z</time></trkpt><trkpt lat="46.1566149" lon="13.5997483"><ele>285.25</ele><time>2026-05-02T10:46:33.262Z</time></trkpt><trkpt lat="46.156517" lon="13.599629"><ele>290.5</ele><time>2026-05-02T10:46:34.262Z</time></trkpt><trkpt lat="46.1564402" lon="13.5994764"><ele>295.75</ele><time>2026-05-02T10:46:35.262Z</time></trkpt><trkpt lat="46.156389" lon="13.5992909"><ele>301.0</ele><time>2026-05-02T10:46:36.261Z</time></trkpt><trkpt lat="46.1563408" lon="13.5990961"><ele>300.0</ele><time>2026-05-02T10:46:37.261Z</time></trkpt><trkpt lat="46.1562965" lon="13.5988955"><ele>299.0</ele><time>2026-05-02T10:46:38.262Z</time></trkpt><trkpt lat="46.1562441" lon="13.5986794"><ele>298.0</ele><time>2026-05-02T10:46:39.261Z</time></trkpt><trkpt lat="46.1561966" lon="13.5984652"><ele>298.0</ele><time>2026-05-02T10:46:40.261Z</time></trkpt><trkpt lat="46.1561622" lon="13.5982478"><ele>298.0</ele><time>2026-05-02T10:46:41.261Z</time></trkpt><trkpt lat="46.1561457" lon="13.5980334"><ele>298.0</ele><time>2026-05-02T10:46:42.261Z</time></trkpt><trkpt lat="46.156134" lon="13.5978111"><ele>294.3333333333333</ele><time>2026-05-02T10:46:43.262Z</time></trkpt><trkpt lat="46.1561186" lon="13.5976023"><ele>290.6666666666667</ele><time>2026-05-02T10:46:44.262Z</time></trkpt><trkpt lat="46.1561055" lon="13.5973806"><ele>287.0</ele><time>2026-05-02T10:46:45.262Z</time></trkpt><trkpt lat="46.1561115" lon="13.5971557"><ele>286.5</ele><time>2026-05-02T10:46:46.262Z</time></trkpt><trkpt lat="46.1561166" lon="13.5969365"><ele>286.0</ele><time>2026-05-02T10:46:47.262Z</time></trkpt><trkpt lat="46.1561027" lon="13.5967327"><ele>285.5</ele><time>2026-05-02T10:46:48.261Z</time></trkpt><trkpt lat="46.1560676" lon="13.5965227"><ele>285.0</ele><time>2026-05-02T10:46:49.262Z</time></trkpt><trkpt lat="46.1560143" lon="13.596347"><ele>285.0</ele><time>2026-05-02T10:46:50.262Z</time></trkpt><trkpt lat="46.1559772" lon="13.596178"><ele>285.0</ele><time>2026-05-02T10:46:51.262Z</time></trkpt><trkpt lat="46.1559422" lon="13.5960133"><ele>285.0</ele><time>2026-05-02T10:46:52.261Z</time></trkpt><trkpt lat="46.1559115" lon="13.595858"><ele>285.0</ele><time>2026-05-02T10:46:53.261Z</time></trkpt><trkpt lat="46.1558924" lon="13.5957321"><ele>285.0</ele><time>2026-05-02T10:46:54.261Z</time></trkpt><trkpt lat="46.1558785" lon="13.5956401"><ele>284.1428571428571</ele><time>2026-05-02T10:46:55.262Z</time></trkpt><trkpt lat="46.155874" lon="13.5955481"><ele>283.2857142857143</ele><time>2026-05-02T10:46:56.262Z</time></trkpt><trkpt lat="46.1558835" lon="13.595448"><ele>282.42857142857144</ele><time>2026-05-02T10:46:57.261Z</time></trkpt><trkpt lat="46.1558967" lon="13.5953473"><ele>281.57142857142856</ele><time>2026-05-02T10:46:58.262Z</time></trkpt><trkpt lat="46.1559084" lon="13.5952562"><ele>280.7142857142857</ele><time>2026-05-02T10:46:59.262Z</time></trkpt><trkpt lat="46.1559289" lon="13.5951533"><ele>279.85714285714283</ele><time>2026-05-02T10:47:00.262Z</time></trkpt><trkpt lat="46.1559542" lon="13.5950411"><ele>279.0</ele><time>2026-05-02T10:47:01.262Z</time></trkpt><trkpt lat="46.1559856" lon="13.5949322"><ele>278.0</ele><time>2026-05-02T10:47:02.261Z</time></trkpt><trkpt lat="46.1560234" lon="13.5948203"><ele>277.0</ele><time>2026-05-02T10:47:03.262Z</time></trkpt><trkpt lat="46.1560707" lon="13.5947229"><ele>276.0</ele><time>2026-05-02T10:47:04.261Z</time></trkpt><trkpt lat="46.1561136" lon="13.5946314"><ele>275.0</ele><time>2026-05-02T10:47:05.262Z</time></trkpt><trkpt lat="46.1561524" lon="13.5945286"><ele>274.0</ele><time>2026-05-02T10:47:06.262Z</time></trkpt><trkpt lat="46.1561718" lon="13.5944198"><ele>273.0</ele><time>2026-05-02T10:47:07.262Z</time></trkpt><trkpt lat="46.1561779" lon="13.594325"><ele>272.0</ele><time>2026-05-02T10:47:08.262Z</time></trkpt><trkpt lat="46.1561739" lon="13.5942153"><ele>271.0</ele><time>2026-05-02T10:47:09.261Z</time></trkpt><trkpt lat="46.1561553" lon="13.5941039"><ele>270.0</ele><time>2026-05-02T10:47:10.262Z</time></trkpt><trkpt lat="46.1561272" lon="13.5939797"><ele>269.0</ele><time>2026-05-02T10:47:11.261Z</time></trkpt><trkpt lat="46.156094" lon="13.5938513"><ele>268.0</ele><time>2026-05-02T10:47:12.262Z</time></trkpt><trkpt lat="46.1560668" lon="13.593736"><ele>267.0</ele><time>2026-05-02T10:47:13.262Z</time></trkpt><trkpt lat="46.1560462" lon="13.5936148"><ele>266.0</ele><time>2026-05-02T10:47:14.262Z</time></trkpt><trkpt lat="46.1560165" lon="13.5934937"><ele>265.0</ele><time>2026-05-02T10:47:15.261Z</time></trkpt><trkpt lat="46.1559847" lon="13.5933675"><ele>264.0</ele><time>2026-05-02T10:47:16.261Z</time></trkpt><trkpt lat="46.1559577" lon="13.5932376"><ele>263.0</ele><time>2026-05-02T10:47:17.262Z</time></trkpt><trkpt lat="46.1559451" lon="13.593108"><ele>262.0</ele><time>2026-05-02T10:47:18.262Z</time></trkpt><trkpt lat="46.1559443" lon="13.5929675"><ele>262.5</ele><time>2026-05-02T10:47:19.261Z</time></trkpt><trkpt lat="46.1559422" lon="13.5928282"><ele>263.0</ele><time>2026-05-02T10:47:20.262Z</time></trkpt><trkpt lat="46.1559274" lon="13.5926751"><ele>263.5</ele><time>2026-05-02T10:47:21.261Z</time></trkpt><trkpt lat="46.155894" lon="13.5924998"><ele>264.0</ele><time>2026-05-02T10:47:22.261Z</time></trkpt><trkpt lat="46.1558504" lon="13.5922971"><ele>264.0</ele><time>2026-05-02T10:47:23.262Z</time></trkpt><trkpt lat="46.1557987" lon="13.592089"><ele>264.0</ele><time>2026-05-02T10:47:24.261Z</time></trkpt><trkpt lat="46.155743" lon="13.5918882"><ele>264.0</ele><time>2026-05-02T10:47:25.262Z</time></trkpt><trkpt lat="46.1556989" lon="13.5916945"><ele>264.0</ele><time>2026-05-02T10:47:26.262Z</time></trkpt><trkpt lat="46.155669" lon="13.5915032"><ele>262.25</ele><time>2026-05-02T10:47:27.261Z</time></trkpt><trkpt lat="46.1556425" lon="13.5913076"><ele>260.5</ele><time>2026-05-02T10:47:28.261Z</time></trkpt><trkpt lat="46.1556291" lon="13.5911108"><ele>258.75</ele><time>2026-05-02T10:47:29.262Z</time></trkpt><trkpt lat="46.1556312" lon="13.590937"><ele>257.0</ele><time>2026-05-02T10:47:30.261Z</time></trkpt><trkpt lat="46.1556318" lon="13.5907543"><ele>256.75</ele><time>2026-05-02T10:47:31.262Z</time></trkpt><trkpt lat="46.1556238" lon="13.5905647"><ele>256.5</ele><time>2026-05-02T10:47:32.261Z</time></trkpt><trkpt lat="46.1556145" lon="13.5903648"><ele>256.25</ele><time>2026-05-02T10:47:33.262Z</time></trkpt><trkpt lat="46.1556022" lon="13.5901564"><ele>256.0</ele><time>2026-05-02T10:47:34.261Z</time></trkpt><trkpt lat="46.1555793" lon="13.589951"><ele>255.5</ele><time>2026-05-02T10:47:35.262Z</time></trkpt><trkpt lat="46.1555484" lon="13.5897395"><ele>255.0</ele><time>2026-05-02T10:47:36.262Z</time></trkpt><trkpt lat="46.1555069" lon="13.5895356"><ele>254.5</ele><time>2026-05-02T10:47:37.262Z</time></trkpt><trkpt lat="46.1554616" lon="13.5893396"><ele>254.0</ele><time>2026-05-02T10:47:38.261Z</time></trkpt><trkpt lat="46.1554164" lon="13.5891502"><ele>253.75</ele><time>2026-05-02T10:47:39.261Z</time></trkpt><trkpt lat="46.1553639" lon="13.588954"><ele>253.5</ele><time>2026-05-02T10:47:40.261Z</time></trkpt><trkpt lat="46.1553055" lon="13.5887622"><ele>253.25</ele><time>2026-05-02T10:47:41.262Z</time></trkpt><trkpt lat="46.1552557" lon="13.5885698"><ele>253.0</ele><time>2026-05-02T10:47:42.261Z</time></trkpt><trkpt lat="46.1552273" lon="13.5883689"><ele>253.0</ele><time>2026-05-02T10:47:43.262Z</time></trkpt><trkpt lat="46.155227" lon="13.5881611"><ele>253.0</ele><time>2026-05-02T10:47:44.261Z</time></trkpt><trkpt lat="46.1552518" lon="13.5879512"><ele>253.0</ele><time>2026-05-02T10:47:45.262Z</time></trkpt><trkpt lat="46.1552897" lon="13.5877505"><ele>253.0</ele><time>2026-05-02T10:47:46.262Z</time></trkpt><trkpt lat="46.1553238" lon="13.587558"><ele>255.75</ele><time>2026-05-02T10:47:47.262Z</time></trkpt><trkpt lat="46.1553683" lon="13.5873679"><ele>258.5</ele><time>2026-05-02T10:47:48.261Z</time></trkpt><trkpt lat="46.1554275" lon="13.5871784"><ele>261.25</ele><time>2026-05-02T10:47:49.262Z</time></trkpt><trkpt lat="46.1555061" lon="13.5870057"><ele>264.0</ele><time>2026-05-02T10:47:50.261Z</time></trkpt><trkpt lat="46.1555947" lon="13.5868381"><ele>261.25</ele><time>2026-05-02T10:47:51.261Z</time></trkpt><trkpt lat="46.1556893" lon="13.5866783"><ele>258.5</ele><time>2026-05-02T10:47:52.261Z</time></trkpt><trkpt lat="46.1557721" lon="13.5865264"><ele>255.75</ele><time>2026-05-02T10:47:53.262Z</time></trkpt><trkpt lat="46.1558459" lon="13.5863833"><ele>253.0</ele><time>2026-05-02T10:47:54.261Z</time></trkpt><trkpt lat="46.1559207" lon="13.586236"><ele>252.0</ele><time>2026-05-02T10:47:55.262Z</time></trkpt><trkpt lat="46.1559981" lon="13.5860896"><ele>251.0</ele><time>2026-05-02T10:47:56.261Z</time></trkpt><trkpt lat="46.1560744" lon="13.5859479"><ele>250.0</ele><time>2026-05-02T10:47:57.262Z</time></trkpt><trkpt lat="46.1561399" lon="13.5858119"><ele>249.0</ele><time>2026-05-02T10:47:58.262Z</time></trkpt><trkpt lat="46.1561986" lon="13.5856784"><ele>249.0</ele><time>2026-05-02T10:47:59.262Z</time></trkpt><trkpt lat="46.1562609" lon="13.5855557"><ele>248.99999999999997</ele><time>2026-05-02T10:48:00.261Z</time></trkpt><trkpt lat="46.156332" lon="13.5854319"><ele>248.99999999999997</ele><time>2026-05-02T10:48:01.261Z</time></trkpt><trkpt lat="46.156399" lon="13.5853193"><ele>249.0</ele><time>2026-05-02T10:48:02.261Z</time></trkpt><trkpt lat="46.1564556" lon="13.5852007"><ele>249.0</ele><time>2026-05-02T10:48:03.262Z</time></trkpt><trkpt lat="46.1564919" lon="13.5850784"><ele>249.16666666666666</ele><time>2026-05-02T10:48:04.262Z</time></trkpt><trkpt lat="46.1565246" lon="13.5849579"><ele>249.33333333333331</ele><time>2026-05-02T10:48:05.261Z</time></trkpt><trkpt lat="46.1565571" lon="13.5848442"><ele>249.5</ele><time>2026-05-02T10:48:06.262Z</time></trkpt><trkpt lat="46.1565911" lon="13.5847308"><ele>249.66666666666666</ele><time>2026-05-02T10:48:07.262Z</time></trkpt><trkpt lat="46.1566326" lon="13.5846148"><ele>249.83333333333331</ele><time>2026-05-02T10:48:08.262Z</time></trkpt><trkpt lat="46.1566815" lon="13.5845107"><ele>250.0</ele><time>2026-05-02T10:48:09.262Z</time></trkpt><trkpt lat="46.1567415" lon="13.5844234"><ele>251.66666666666666</ele><time>2026-05-02T10:48:10.262Z</time></trkpt><trkpt lat="46.156784" lon="13.5843414"><ele>253.33333333333331</ele><time>2026-05-02T10:48:11.261Z</time></trkpt><trkpt lat="46.1568036" lon="13.5842473"><ele>255.0</ele><time>2026-05-02T10:48:12.261Z</time></trkpt><trkpt lat="46.1567962" lon="13.5841262"><ele>256.6666666666667</ele><time>2026-05-02T10:48:13.262Z</time></trkpt><trkpt lat="46.1567867" lon="13.5840001"><ele>258.33333333333337</ele><time>2026-05-02T10:48:14.261Z</time></trkpt><trkpt lat="46.1567803" lon="13.5838628"><ele>260.0</ele><time>2026-05-02T10:48:15.261Z</time></trkpt><trkpt lat="46.156781" lon="13.5837275"><ele>260.4</ele><time>2026-05-02T10:48:16.262Z</time></trkpt><trkpt lat="46.1567924" lon="13.5835918"><ele>260.8</ele><time>2026-05-02T10:48:17.261Z</time></trkpt><trkpt lat="46.1568" lon="13.5834598"><ele>261.2</ele><time>2026-05-02T10:48:18.261Z</time></trkpt><trkpt lat="46.1567918" lon="13.5833254"><ele>261.6</ele><time>2026-05-02T10:48:19.262Z</time></trkpt><trkpt lat="46.1567636" lon="13.5831884"><ele>262.0</ele><time>2026-05-02T10:48:20.261Z</time></trkpt><trkpt lat="46.1567267" lon="13.5830302"><ele>262.0</ele><time>2026-05-02T10:48:21.261Z</time></trkpt><trkpt lat="46.1566973" lon="13.5828624"><ele>262.0</ele><time>2026-05-02T10:48:22.261Z</time></trkpt><trkpt lat="46.1566668" lon="13.5826882"><ele>262.0</ele><time>2026-05-02T10:48:23.262Z</time></trkpt><trkpt lat="46.156618" lon="13.5825174"><ele>262.0</ele><time>2026-05-02T10:48:24.262Z</time></trkpt><trkpt lat="46.1565689" lon="13.5823413"><ele>261.0</ele><time>2026-05-02T10:48:25.262Z</time></trkpt><trkpt lat="46.1565278" lon="13.5821491"><ele>260.0</ele><time>2026-05-02T10:48:26.262Z</time></trkpt><trkpt lat="46.1564869" lon="13.581959"><ele>259.0</ele><time>2026-05-02T10:48:27.261Z</time></trkpt><trkpt lat="46.1564314" lon="13.5817771"><ele>258.0</ele><time>2026-05-02T10:48:28.261Z</time></trkpt><trkpt lat="46.1563822" lon="13.5816098"><ele>258.0</ele><time>2026-05-02T10:48:29.261Z</time></trkpt><trkpt lat="46.1563445" lon="13.5814678"><ele>258.0</ele><time>2026-05-02T10:48:30.261Z</time></trkpt><trkpt lat="46.1563233" lon="13.5813493"><ele>258.0</ele><time>2026-05-02T10:48:31.262Z</time></trkpt><trkpt lat="46.1563453" lon="13.5812593"><ele>258.0</ele><time>2026-05-02T10:48:32.261Z</time></trkpt><trkpt lat="46.1564013" lon="13.5811766"><ele>258.0</ele><time>2026-05-02T10:48:33.262Z</time></trkpt><trkpt lat="46.1564928" lon="13.5811172"><ele>258.0</ele><time>2026-05-02T10:48:34.261Z</time></trkpt><trkpt lat="46.1565988" lon="13.5810441"><ele>267.0</ele><time>2026-05-02T10:48:35.261Z</time></trkpt><trkpt lat="46.1567079" lon="13.5809811"><ele>276.0</ele><time>2026-05-02T10:48:36.262Z</time></trkpt><trkpt lat="46.1568331" lon="13.5809167"><ele>285.0</ele><time>2026-05-02T10:48:37.261Z</time></trkpt><trkpt lat="46.1569424" lon="13.5808502"><ele>294.0</ele><time>2026-05-02T10:48:38.262Z</time></trkpt><trkpt lat="46.1570397" lon="13.5807861"><ele>294.0</ele><time>2026-05-02T10:48:39.262Z</time></trkpt><trkpt lat="46.1571246" lon="13.5807043"><ele>294.0</ele><time>2026-05-02T10:48:40.261Z</time></trkpt><trkpt lat="46.1571941" lon="13.580603"><ele>294.0</ele><time>2026-05-02T10:48:41.262Z</time></trkpt><trkpt lat="46.157238" lon="13.5805064"><ele>294.0</ele><time>2026-05-02T10:48:42.262Z</time></trkpt><trkpt lat="46.1572271" lon="13.5803816"><ele>294.0</ele><time>2026-05-02T10:48:44.262Z</time></trkpt><trkpt lat="46.1570923" lon="13.5803315"><ele>294.0</ele><time>2026-05-02T10:48:46.261Z</time></trkpt><trkpt lat="46.156986" lon="13.5803322"><ele>294.0</ele><time>2026-05-02T10:48:47.262Z</time></trkpt><trkpt lat="46.1568646" lon="13.5803479"><ele>294.0</ele><time>2026-05-02T10:48:48.261Z</time></trkpt><trkpt lat="46.1567405" lon="13.5803651"><ele>294.0</ele><time>2026-05-02T10:48:49.262Z</time></trkpt><trkpt lat="46.1566086" lon="13.5803546"><ele>292.75</ele><time>2026-05-02T10:48:50.262Z</time></trkpt><trkpt lat="46.1564807" lon="13.5803299"><ele>291.5</ele><time>2026-05-02T10:48:51.262Z</time></trkpt><trkpt lat="46.1563585" lon="13.580282"><ele>290.25</ele><time>2026-05-02T10:48:52.262Z</time></trkpt><trkpt lat="46.1562455" lon="13.5802214"><ele>289.0</ele><time>2026-05-02T10:48:53.261Z</time></trkpt><trkpt lat="46.1561611" lon="13.5801524"><ele>289.0</ele><time>2026-05-02T10:48:54.261Z</time></trkpt><trkpt lat="46.1561026" lon="13.5800835"><ele>289.0</ele><time>2026-05-02T10:48:55.261Z</time></trkpt><trkpt lat="46.1560783" lon="13.5799717"><ele>289.0</ele><time>2026-05-02T10:48:56.261Z</time></trkpt><trkpt lat="46.1560732" lon="13.5798278"><ele>289.0</ele><time>2026-05-02T10:48:57.262Z</time></trkpt><trkpt lat="46.1560772" lon="13.5796637"><ele>289.0</ele><time>2026-05-02T10:48:58.261Z</time></trkpt><trkpt lat="46.1560795" lon="13.5794661"><ele>290.0</ele><time>2026-05-02T10:48:59.262Z</time></trkpt><trkpt lat="46.1560756" lon="13.5792673"><ele>291.0</ele><time>2026-05-02T10:49:00.262Z</time></trkpt><trkpt lat="46.1560511" lon="13.5790693"><ele>292.0</ele><time>2026-05-02T10:49:01.262Z</time></trkpt><trkpt lat="46.1560162" lon="13.5789063"><ele>293.0</ele><time>2026-05-02T10:49:02.262Z</time></trkpt><trkpt lat="46.1559912" lon="13.5787718"><ele>292.5</ele><time>2026-05-02T10:49:03.261Z</time></trkpt><trkpt lat="46.1560098" lon="13.5786713"><ele>292.0</ele><time>2026-05-02T10:49:04.262Z</time></trkpt><trkpt lat="46.1560456" lon="13.5785904"><ele>291.5</ele><time>2026-05-02T10:49:05.262Z</time></trkpt><trkpt lat="46.1561008" lon="13.5784946"><ele>291.0</ele><time>2026-05-02T10:49:06.261Z</time></trkpt><trkpt lat="46.1561908" lon="13.5784036"><ele>290.5</ele><time>2026-05-02T10:49:07.262Z</time></trkpt><trkpt lat="46.1562831" lon="13.5783105"><ele>290.0</ele><time>2026-05-02T10:49:08.261Z</time></trkpt><trkpt lat="46.1563807" lon="13.5782137"><ele>290.0</ele><time>2026-05-02T10:49:09.262Z</time></trkpt><trkpt lat="46.1564886" lon="13.5781096"><ele>290.0</ele><time>2026-05-02T10:49:10.261Z</time></trkpt><trkpt lat="46.1566071" lon="13.5779834"><ele>290.0</ele><time>2026-05-02T10:49:11.262Z</time></trkpt><trkpt lat="46.1567215" lon="13.5778434"><ele>290.0</ele><time>2026-05-02T10:49:12.261Z</time></trkpt><trkpt lat="46.1568427" lon="13.5777065"><ele>298.25</ele><time>2026-05-02T10:49:13.261Z</time></trkpt><trkpt lat="46.1569643" lon="13.5775763"><ele>306.5</ele><time>2026-05-02T10:49:14.262Z</time></trkpt><trkpt lat="46.1570663" lon="13.5774305"><ele>314.75</ele><time>2026-05-02T10:49:15.261Z</time></trkpt><trkpt lat="46.1571527" lon="13.5773042"><ele>323.0</ele><time>2026-05-02T10:49:16.262Z</time></trkpt><trkpt lat="46.1572188" lon="13.5771879"><ele>323.0</ele><time>2026-05-02T10:49:17.261Z</time></trkpt><trkpt lat="46.1572439" lon="13.5770856"><ele>323.0</ele><time>2026-05-02T10:49:18.262Z</time></trkpt><trkpt lat="46.1572283" lon="13.5769707"><ele>323.0</ele><time>2026-05-02T10:49:19.261Z</time></trkpt><trkpt lat="46.1571913" lon="13.5768448"><ele>323.0</ele><time>2026-05-02T10:49:20.261Z</time></trkpt><trkpt lat="46.1571396" lon="13.5767118"><ele>323.0</ele><time>2026-05-02T10:49:21.262Z</time></trkpt><trkpt lat="46.1570609" lon="13.5766202"><ele>327.0</ele><time>2026-05-02T10:49:22.262Z</time></trkpt><trkpt lat="46.1569509" lon="13.5765576"><ele>331.0</ele><time>2026-05-02T10:49:23.262Z</time></trkpt><trkpt lat="46.1568187" lon="13.5764882"><ele>335.0</ele><time>2026-05-02T10:49:24.262Z</time></trkpt><trkpt lat="46.1566907" lon="13.5764431"><ele>339.0</ele><time>2026-05-02T10:49:25.262Z</time></trkpt><trkpt lat="46.1565595" lon="13.5764146"><ele>338.5</ele><time>2026-05-02T10:49:26.261Z</time></trkpt><trkpt lat="46.1564245" lon="13.5763754"><ele>338.0</ele><time>2026-05-02T10:49:27.262Z</time></trkpt><trkpt lat="46.1563104" lon="13.5763178"><ele>337.5</ele><time>2026-05-02T10:49:28.261Z</time></trkpt><trkpt lat="46.15621" lon="13.5762488"><ele>337.0</ele><time>2026-05-02T10:49:29.262Z</time></trkpt><trkpt lat="46.1561536" lon="13.5761637"><ele>337.0</ele><time>2026-05-02T10:49:30.261Z</time></trkpt><trkpt lat="46.1561303" lon="13.5760713"><ele>337.0</ele><time>2026-05-02T10:49:31.261Z</time></trkpt><trkpt lat="46.1561341" lon="13.575942"><ele>337.0</ele><time>2026-05-02T10:49:32.262Z</time></trkpt><trkpt lat="46.1561607" lon="13.5757948"><ele>337.0</ele><time>2026-05-02T10:49:33.262Z</time></trkpt><trkpt lat="46.1561784" lon="13.5756435"><ele>337.0</ele><time>2026-05-02T10:49:34.261Z</time></trkpt><trkpt lat="46.1561834" lon="13.5755054"><ele>337.0</ele><time>2026-05-02T10:49:35.262Z</time></trkpt><trkpt lat="46.1561565" lon="13.5754025"><ele>337.0</ele><time>2026-05-02T10:49:36.262Z</time></trkpt><trkpt lat="46.1561143" lon="13.5753201"><ele>337.0</ele><time>2026-05-02T10:49:37.262Z</time></trkpt><trkpt lat="46.1560444" lon="13.5752314"><ele>337.0</ele><time>2026-05-02T10:49:38.262Z</time></trkpt><trkpt lat="46.155945" lon="13.5751725"><ele>337.0</ele><time>2026-05-02T10:49:39.262Z</time></trkpt><trkpt lat="46.1558382" lon="13.5751303"><ele>335.40000000000003</ele><time>2026-05-02T10:49:40.261Z</time></trkpt><trkpt lat="46.1557512" lon="13.5750814"><ele>333.8</ele><time>2026-05-02T10:49:41.262Z</time></trkpt><trkpt lat="46.1556647" lon="13.5750059"><ele>332.2</ele><time>2026-05-02T10:49:42.262Z</time></trkpt><trkpt lat="46.1555898" lon="13.5748791"><ele>330.6</ele><time>2026-05-02T10:49:43.261Z</time></trkpt><trkpt lat="46.1555245" lon="13.574748"><ele>329.0</ele><time>2026-05-02T10:49:44.262Z</time></trkpt><trkpt lat="46.1555002" lon="13.5746281"><ele>330.0</ele><time>2026-05-02T10:49:45.261Z</time></trkpt><trkpt lat="46.1555" lon="13.574513"><ele>331.0</ele><time>2026-05-02T10:49:46.262Z</time></trkpt><trkpt lat="46.1555132" lon="13.5743814"><ele>332.0</ele><time>2026-05-02T10:49:47.262Z</time></trkpt><trkpt lat="46.1555534" lon="13.5742373"><ele>333.0</ele><time>2026-05-02T10:49:48.262Z</time></trkpt><trkpt lat="46.1556077" lon="13.5740707"><ele>334.0</ele><time>2026-05-02T10:49:49.261Z</time></trkpt><trkpt lat="46.1556563" lon="13.5738942"><ele>344.25</ele><time>2026-05-02T10:49:50.262Z</time></trkpt><trkpt lat="46.1557106" lon="13.5737075"><ele>354.5</ele><time>2026-05-02T10:49:51.261Z</time></trkpt><trkpt lat="46.1557715" lon="13.5735315"><ele>364.75</ele><time>2026-05-02T10:49:52.262Z</time></trkpt><trkpt lat="46.1558289" lon="13.5733672"><ele>375.0</ele><time>2026-05-02T10:49:53.261Z</time></trkpt><trkpt lat="46.1558827" lon="13.5732"><ele>374.75</ele><time>2026-05-02T10:49:54.261Z</time></trkpt><trkpt lat="46.1559318" lon="13.5730241"><ele>374.5</ele><time>2026-05-02T10:49:55.262Z</time></trkpt><trkpt lat="46.1559764" lon="13.5728345"><ele>374.25</ele><time>2026-05-02T10:49:56.261Z</time></trkpt><trkpt lat="46.1560199" lon="13.57265"><ele>374.0</ele><time>2026-05-02T10:49:57.262Z</time></trkpt><trkpt lat="46.1560615" lon="13.5724825"><ele>374.0</ele><time>2026-05-02T10:49:58.262Z</time></trkpt><trkpt lat="46.1560873" lon="13.5723334"><ele>374.0</ele><time>2026-05-02T10:49:59.261Z</time></trkpt><trkpt lat="46.1561029" lon="13.5721945"><ele>374.0</ele><time>2026-05-02T10:50:00.261Z</time></trkpt><trkpt lat="46.156111" lon="13.5720631"><ele>374.0</ele><time>2026-05-02T10:50:01.262Z</time></trkpt><trkpt lat="46.1561018" lon="13.5719426"><ele>374.0</ele><time>2026-05-02T10:50:02.261Z</time></trkpt><trkpt lat="46.1560709" lon="13.571835"><ele>375.4</ele><time>2026-05-02T10:50:03.262Z</time></trkpt><trkpt lat="46.1560127" lon="13.5717667"><ele>376.79999999999995</ele><time>2026-05-02T10:50:04.261Z</time></trkpt><trkpt lat="46.1559212" lon="13.5717412"><ele>378.20000000000005</ele><time>2026-05-02T10:50:05.261Z</time></trkpt><trkpt lat="46.1558091" lon="13.5717184"><ele>379.6</ele><time>2026-05-02T10:50:06.261Z</time></trkpt><trkpt lat="46.1557127" lon="13.5717257"><ele>381.0</ele><time>2026-05-02T10:50:07.262Z</time></trkpt><trkpt lat="46.155636" lon="13.5717404"><ele>381.0</ele><time>2026-05-02T10:50:08.261Z</time></trkpt><trkpt lat="46.1555854" lon="13.5716601"><ele>381.0</ele><time>2026-05-02T10:50:10.262Z</time></trkpt><trkpt lat="46.155678" lon="13.5715883"><ele>381.0</ele><time>2026-05-02T10:50:12.262Z</time></trkpt><trkpt lat="46.1557639" lon="13.5715952"><ele>381.0</ele><time>2026-05-02T10:50:13.261Z</time></trkpt><trkpt lat="46.1558701" lon="13.5715836"><ele>381.0</ele><time>2026-05-02T10:50:14.262Z</time></trkpt><trkpt lat="46.1559579" lon="13.5715709"><ele>384.8</ele><time>2026-05-02T10:50:15.262Z</time></trkpt><trkpt lat="46.1560437" lon="13.5715696"><ele>388.6</ele><time>2026-05-02T10:50:16.262Z</time></trkpt><trkpt lat="46.1561128" lon="13.5716045"><ele>392.4</ele><time>2026-05-02T10:50:17.262Z</time></trkpt><trkpt lat="46.1561802" lon="13.5717014"><ele>396.2</ele><time>2026-05-02T10:50:18.261Z</time></trkpt><trkpt lat="46.1562273" lon="13.5718359"><ele>400.0</ele><time>2026-05-02T10:50:19.262Z</time></trkpt><trkpt lat="46.1562658" lon="13.571962"><ele>395.6666666666667</ele><time>2026-05-02T10:50:20.262Z</time></trkpt><trkpt lat="46.1563019" lon="13.5720777"><ele>391.33333333333337</ele><time>2026-05-02T10:50:21.262Z</time></trkpt><trkpt lat="46.1563205" lon="13.5721777"><ele>387.0</ele><time>2026-05-02T10:50:22.262Z</time></trkpt><trkpt lat="46.1563211" lon="13.5722758"><ele>382.6666666666667</ele><time>2026-05-02T10:50:23.261Z</time></trkpt><trkpt lat="46.1563455" lon="13.5724014"><ele>378.33333333333337</ele><time>2026-05-02T10:50:25.262Z</time></trkpt><trkpt lat="46.1564209" lon="13.5723718"><ele>374.0</ele><time>2026-05-02T10:50:29.262Z</time></trkpt><trkpt lat="46.1564112" lon="13.5721888"><ele>374.0</ele><time>2026-05-02T10:50:31.261Z</time></trkpt><trkpt lat="46.156406" lon="13.5720603"><ele>374.0</ele><time>2026-05-02T10:50:32.261Z</time></trkpt><trkpt lat="46.1564038" lon="13.5719408"><ele>374.0</ele><time>2026-05-02T10:50:33.262Z</time></trkpt><trkpt lat="46.1563949" lon="13.5718153"><ele>374.0</ele><time>2026-05-02T10:50:34.261Z</time></trkpt><trkpt lat="46.1563789" lon="13.5716773"><ele>374.0</ele><time>2026-05-02T10:50:35.261Z</time></trkpt><trkpt lat="46.1563527" lon="13.5715409"><ele>379.2</ele><time>2026-05-02T10:50:36.262Z</time></trkpt><trkpt lat="46.15633" lon="13.5714092"><ele>384.4</ele><time>2026-05-02T10:50:37.262Z</time></trkpt><trkpt lat="46.1563113" lon="13.57131"><ele>389.6</ele><time>2026-05-02T10:50:38.262Z</time></trkpt><trkpt lat="46.1561952" lon="13.5712116"><ele>394.8</ele><time>2026-05-02T10:50:40.262Z</time></trkpt><trkpt lat="46.1560999" lon="13.5711885"><ele>400.0</ele><time>2026-05-02T10:50:41.261Z</time></trkpt><trkpt lat="46.1559975" lon="13.5711597"><ele>404.0</ele><time>2026-05-02T10:50:42.262Z</time></trkpt><trkpt lat="46.1558964" lon="13.5711398"><ele>408.0</ele><time>2026-05-02T10:50:43.261Z</time></trkpt><trkpt lat="46.155817" lon="13.5711228"><ele>412.0</ele><time>2026-05-02T10:50:44.262Z</time></trkpt><trkpt lat="46.1557424" lon="13.5710808"><ele>416.0</ele><time>2026-05-02T10:50:45.261Z</time></trkpt><trkpt lat="46.1556624" lon="13.5710181"><ele>420.0</ele><time>2026-05-02T10:50:46.261Z</time></trkpt><trkpt lat="46.1555689" lon="13.5709339"><ele>420.0</ele><time>2026-05-02T10:50:47.262Z</time></trkpt><trkpt lat="46.1554602" lon="13.5708598"><ele>420.0</ele><time>2026-05-02T10:50:48.262Z</time></trkpt><trkpt lat="46.1553501" lon="13.5708352"><ele>420.0</ele><time>2026-05-02T10:50:49.262Z</time></trkpt><trkpt lat="46.1552281" lon="13.5708209"><ele>420.0</ele><time>2026-05-02T10:50:50.262Z</time></trkpt><trkpt lat="46.1551208" lon="13.5707845"><ele>420.0</ele><time>2026-05-02T10:50:51.262Z</time></trkpt><trkpt lat="46.1550131" lon="13.5707168"><ele>420.0</ele><time>2026-05-02T10:50:52.261Z</time></trkpt><trkpt lat="46.154914" lon="13.5706435"><ele>420.0</ele><time>2026-05-02T10:50:53.261Z</time></trkpt><trkpt lat="46.154824" lon="13.5705861"><ele>420.0</ele><time>2026-05-02T10:50:54.262Z</time></trkpt><trkpt lat="46.1547609" lon="13.5705125"><ele>420.0</ele><time>2026-05-02T10:50:55.262Z</time></trkpt><trkpt lat="46.1547448" lon="13.5703972"><ele>420.0</ele><time>2026-05-02T10:50:57.261Z</time></trkpt><trkpt lat="46.1548447" lon="13.57041"><ele>420.0</ele><time>2026-05-02T10:50:59.261Z</time></trkpt><trkpt lat="46.154893" lon="13.5704693"><ele>420.0</ele><time>2026-05-02T10:51:00.261Z</time></trkpt><trkpt lat="46.1549557" lon="13.5705359"><ele>420.0</ele><time>2026-05-02T10:51:01.261Z</time></trkpt><trkpt lat="46.1550467" lon="13.5705881"><ele>420.0</ele><time>2026-05-02T10:51:02.261Z</time></trkpt><trkpt lat="46.1551484" lon="13.5706178"><ele>420.0</ele><time>2026-05-02T10:51:03.261Z</time></trkpt><trkpt lat="46.1552576" lon="13.570608"><ele>420.0</ele><time>2026-05-02T10:51:04.262Z</time></trkpt><trkpt lat="46.1553708" lon="13.5705752"><ele>420.0</ele><time>2026-05-02T10:51:05.261Z</time></trkpt><trkpt lat="46.1554932" lon="13.5705265"><ele>420.0</ele><time>2026-05-02T10:51:06.262Z</time></trkpt><trkpt lat="46.1556255" lon="13.5704918"><ele>420.0</ele><time>2026-05-02T10:51:07.261Z</time></trkpt><trkpt lat="46.155752" lon="13.5704937"><ele>423.25</ele><time>2026-05-02T10:51:08.262Z</time></trkpt><trkpt lat="46.1558851" lon="13.5705021"><ele>426.5</ele><time>2026-05-02T10:51:09.262Z</time></trkpt><trkpt lat="46.1560103" lon="13.5705031"><ele>429.75</ele><time>2026-05-02T10:51:10.261Z</time></trkpt><trkpt lat="46.1561246" lon="13.5705255"><ele>433.0</ele><time>2026-05-02T10:51:11.262Z</time></trkpt><trkpt lat="46.156215" lon="13.5705479"><ele>433.00000000000006</ele><time>2026-05-02T10:51:12.262Z</time></trkpt><trkpt lat="46.1562878" lon="13.5705638"><ele>433.0</ele><time>2026-05-02T10:51:13.262Z</time></trkpt><trkpt lat="46.1563581" lon="13.5704941"><ele>433.0</ele><time>2026-05-02T10:51:15.261Z</time></trkpt><trkpt lat="46.1562686" lon="13.5703967"><ele>433.0</ele><time>2026-05-02T10:51:17.261Z</time></trkpt><trkpt lat="46.1561945" lon="13.570398"><ele>433.00000000000006</ele><time>2026-05-02T10:51:18.261Z</time></trkpt><trkpt lat="46.1561052" lon="13.5703977"><ele>433.0</ele><time>2026-05-02T10:51:19.262Z</time></trkpt><trkpt lat="46.1559952" lon="13.5703591"><ele>435.0</ele><time>2026-05-02T10:51:20.261Z</time></trkpt><trkpt lat="46.1558758" lon="13.5703072"><ele>437.0</ele><time>2026-05-02T10:51:21.262Z</time></trkpt><trkpt lat="46.1557573" lon="13.570263"><ele>439.0</ele><time>2026-05-02T10:51:22.261Z</time></trkpt><trkpt lat="46.1556403" lon="13.5702164"><ele>441.0</ele><time>2026-05-02T10:51:23.261Z</time></trkpt><trkpt lat="46.1555383" lon="13.5701763"><ele>441.0</ele><time>2026-05-02T10:51:24.261Z</time></trkpt><trkpt lat="46.1554574" lon="13.5701302"><ele>441.0</ele><time>2026-05-02T10:51:25.261Z</time></trkpt><trkpt lat="46.1553876" lon="13.5700787"><ele>441.0</ele><time>2026-05-02T10:51:26.261Z</time></trkpt><trkpt lat="46.1553422" lon="13.5699722"><ele>441.0</ele><time>2026-05-02T10:51:28.261Z</time></trkpt><trkpt lat="46.1553983" lon="13.5698425"><ele>441.0</ele><time>2026-05-02T10:51:30.262Z</time></trkpt><trkpt lat="46.1554642" lon="13.5696902"><ele>441.0</ele><time>2026-05-02T10:51:32.261Z</time></trkpt><trkpt lat="46.1555085" lon="13.5696092"><ele>441.0</ele><time>2026-05-02T10:51:33.261Z</time></trkpt><trkpt lat="46.1555552" lon="13.5695273"><ele>441.0</ele><time>2026-05-02T10:51:34.261Z</time></trkpt><trkpt lat="46.1556095" lon="13.569452"><ele>441.0</ele><time>2026-05-02T10:51:35.261Z</time></trkpt><trkpt lat="46.1556792" lon="13.5693526"><ele>441.0</ele><time>2026-05-02T10:51:36.261Z</time></trkpt><trkpt lat="46.1557504" lon="13.5692341"><ele>441.0</ele><time>2026-05-02T10:51:37.262Z</time></trkpt><trkpt lat="46.1558325" lon="13.5691014"><ele>440.8</ele><time>2026-05-02T10:51:38.262Z</time></trkpt><trkpt lat="46.1559066" lon="13.5689814"><ele>440.6</ele><time>2026-05-02T10:51:39.261Z</time></trkpt><trkpt lat="46.1559758" lon="13.5688813"><ele>440.4</ele><time>2026-05-02T10:51:40.262Z</time></trkpt><trkpt lat="46.156042" lon="13.5688036"><ele>440.2</ele><time>2026-05-02T10:51:41.261Z</time></trkpt><trkpt lat="46.1560989" lon="13.5687256"><ele>440.0</ele><time>2026-05-02T10:51:42.261Z</time></trkpt><trkpt lat="46.1561561" lon="13.568641"><ele>439.99999999999994</ele><time>2026-05-02T10:51:43.262Z</time></trkpt><trkpt lat="46.1562049" lon="13.5685669"><ele>440.0</ele><time>2026-05-02T10:51:44.262Z</time></trkpt><trkpt lat="46.1562535" lon="13.568493"><ele>440.0</ele><time>2026-05-02T10:51:45.262Z</time></trkpt><trkpt lat="46.1563077" lon="13.5684308"><ele>440.0</ele><time>2026-05-02T10:51:46.262Z</time></trkpt><trkpt lat="46.1563594" lon="13.5683671"><ele>440.0</ele><time>2026-05-02T10:51:47.262Z</time></trkpt><trkpt lat="46.1563985" lon="13.5682843"><ele>439.99999999999994</ele><time>2026-05-02T10:51:48.262Z</time></trkpt><trkpt lat="46.1564417" lon="13.568201"><ele>440.0</ele><time>2026-05-02T10:51:49.262Z</time></trkpt><trkpt lat="46.156485" lon="13.5681119"><ele>439.99999999999994</ele><time>2026-05-02T10:51:50.261Z</time></trkpt><trkpt lat="46.1565286" lon="13.5680209"><ele>440.0</ele><time>2026-05-02T10:51:51.262Z</time></trkpt><trkpt lat="46.1565733" lon="13.5679404"><ele>440.0</ele><time>2026-05-02T10:51:52.261Z</time></trkpt><trkpt lat="46.1566267" lon="13.5678767"><ele>440.0</ele><time>2026-05-02T10:51:53.262Z</time></trkpt><trkpt lat="46.1566826" lon="13.5678075"><ele>439.99999999999994</ele><time>2026-05-02T10:51:54.262Z</time></trkpt><trkpt lat="46.1567341" lon="13.567719"><ele>440.0</ele><time>2026-05-02T10:51:55.261Z</time></trkpt><trkpt lat="46.1567901" lon="13.5676229"><ele>443.85714285714283</ele><time>2026-05-02T10:51:56.262Z</time></trkpt><trkpt lat="46.1568387" lon="13.5675361"><ele>447.71428571428567</ele><time>2026-05-02T10:51:57.261Z</time></trkpt><trkpt lat="46.1568806" lon="13.5674499"><ele>451.57142857142856</ele><time>2026-05-02T10:51:58.262Z</time></trkpt><trkpt lat="46.1569167" lon="13.5673673"><ele>455.4285714285714</ele><time>2026-05-02T10:51:59.261Z</time></trkpt><trkpt lat="46.1569588" lon="13.5672946"><ele>459.2857142857143</ele><time>2026-05-02T10:52:00.261Z</time></trkpt><trkpt lat="46.1570035" lon="13.567212"><ele>463.14285714285705</ele><time>2026-05-02T10:52:01.261Z</time></trkpt><trkpt lat="46.157048" lon="13.5671347"><ele>466.99999999999994</ele><time>2026-05-02T10:52:02.261Z</time></trkpt><trkpt lat="46.1570965" lon="13.5670719"><ele>464.40000000000003</ele><time>2026-05-02T10:52:03.262Z</time></trkpt><trkpt lat="46.1571927" lon="13.5669525"><ele>461.80000000000007</ele><time>2026-05-02T10:52:05.262Z</time></trkpt><trkpt lat="46.1572544" lon="13.5668163"><ele>459.2</ele><time>2026-05-02T10:52:07.261Z</time></trkpt><trkpt lat="46.1572725" lon="13.5667238"><ele>456.6</ele><time>2026-05-02T10:52:08.261Z</time></trkpt><trkpt lat="46.1572924" lon="13.5666109"><ele>454.0</ele><time>2026-05-02T10:52:09.262Z</time></trkpt><trkpt lat="46.1573189" lon="13.5665026"><ele>454.0</ele><time>2026-05-02T10:52:10.261Z</time></trkpt><trkpt lat="46.1573377" lon="13.5664036"><ele>454.00000000000006</ele><time>2026-05-02T10:52:11.262Z</time></trkpt><trkpt lat="46.1573501" lon="13.5663083"><ele>454.0</ele><time>2026-05-02T10:52:12.261Z</time></trkpt><trkpt lat="46.1573684" lon="13.5661996"><ele>454.0</ele><time>2026-05-02T10:52:13.262Z</time></trkpt><trkpt lat="46.1573985" lon="13.5660921"><ele>454.00000000000006</ele><time>2026-05-02T10:52:14.262Z</time></trkpt><trkpt lat="46.1574449" lon="13.5660266"><ele>454.0</ele><time>2026-05-02T10:52:15.262Z</time></trkpt><trkpt lat="46.157495" lon="13.5659267"><ele>454.0</ele><time>2026-05-02T10:52:17.261Z</time></trkpt><trkpt lat="46.1574163" lon="13.5658847"><ele>457.1666666666667</ele><time>2026-05-02T10:52:26.261Z</time></trkpt><trkpt lat="46.1573315" lon="13.5658608"><ele>460.33333333333337</ele><time>2026-05-02T10:52:29.262Z</time></trkpt><trkpt lat="46.1572712" lon="13.5658084"><ele>463.5</ele><time>2026-05-02T10:52:31.261Z</time></trkpt><trkpt lat="46.1572518" lon="13.5657049"><ele>466.66666666666663</ele><time>2026-05-02T10:52:33.262Z</time></trkpt><trkpt lat="46.1572309" lon="13.5656125"><ele>469.8333333333333</ele><time>2026-05-02T10:52:34.261Z</time></trkpt><trkpt lat="46.1571782" lon="13.5654812"><ele>473.0</ele><time>2026-05-02T10:52:36.261Z</time></trkpt><trkpt lat="46.1570754" lon="13.5653567"><ele>473.0</ele><time>2026-05-02T10:52:38.261Z</time></trkpt><trkpt lat="46.1570086" lon="13.5652979"><ele>472.99999999999994</ele><time>2026-05-02T10:52:39.261Z</time></trkpt><trkpt lat="46.156952" lon="13.5652485"><ele>472.99999999999994</ele><time>2026-05-02T10:52:40.261Z</time></trkpt><trkpt lat="46.1568474" lon="13.5651568"><ele>473.0</ele><time>2026-05-02T10:52:42.261Z</time></trkpt><trkpt lat="46.1567347" lon="13.5651479"><ele>473.0</ele><time>2026-05-02T10:52:44.262Z</time></trkpt><trkpt lat="46.15661" lon="13.5651615"><ele>473.0</ele><time>2026-05-02T10:52:46.261Z</time></trkpt><trkpt lat="46.156496" lon="13.5651749"><ele>472.99999999999994</ele><time>2026-05-02T10:52:48.261Z</time></trkpt><trkpt lat="46.1563957" lon="13.5651742"><ele>472.99999999999994</ele><time>2026-05-02T10:52:50.261Z</time></trkpt><trkpt lat="46.1563023" lon="13.5650814"><ele>473.0</ele><time>2026-05-02T10:52:52.262Z</time></trkpt><trkpt lat="46.1562491" lon="13.5650243"><ele>473.0</ele><time>2026-05-02T10:52:53.261Z</time></trkpt><trkpt lat="46.1561948" lon="13.5649645"><ele>473.0</ele><time>2026-05-02T10:52:54.261Z</time></trkpt><trkpt lat="46.1560816" lon="13.5648941"><ele>472.99999999999994</ele><time>2026-05-02T10:52:56.262Z</time></trkpt><trkpt lat="46.1560217" lon="13.5648512"><ele>472.99999999999994</ele><time>2026-05-02T10:52:57.261Z</time></trkpt><trkpt lat="46.15597" lon="13.5647907"><ele>473.0</ele><time>2026-05-02T10:52:58.262Z</time></trkpt><trkpt lat="46.1558738" lon="13.5646626"><ele>473.0</ele><time>2026-05-02T10:53:00.262Z</time></trkpt><trkpt lat="46.1558209" lon="13.5646082"><ele>472.99999999999994</ele><time>2026-05-02T10:53:01.262Z</time></trkpt><trkpt lat="46.1557703" lon="13.5645445"><ele>473.0</ele><time>2026-05-02T10:53:02.262Z</time></trkpt><trkpt lat="46.1557252" lon="13.5643764"><ele>473.0</ele><time>2026-05-02T10:53:04.261Z</time></trkpt><trkpt lat="46.1557165" lon="13.5642645"><ele>473.0</ele><time>2026-05-02T10:53:05.262Z</time></trkpt><trkpt lat="46.1557147" lon="13.5641409"><ele>472.99999999999994</ele><time>2026-05-02T10:53:06.261Z</time></trkpt><trkpt lat="46.1557296" lon="13.564027"><ele>473.0</ele><time>2026-05-02T10:53:07.261Z</time></trkpt><trkpt lat="46.155754" lon="13.5639275"><ele>473.0</ele><time>2026-05-02T10:53:08.262Z</time></trkpt><trkpt lat="46.1557677" lon="13.5638254"><ele>473.0</ele><time>2026-05-02T10:53:09.261Z</time></trkpt><trkpt lat="46.155773" lon="13.5637145"><ele>473.0</ele><time>2026-05-02T10:53:10.262Z</time></trkpt><trkpt lat="46.1557742" lon="13.5636037"><ele>473.0</ele><time>2026-05-02T10:53:11.262Z</time></trkpt><trkpt lat="46.155766" lon="13.5634888"><ele>473.0</ele><time>2026-05-02T10:53:12.261Z</time></trkpt><trkpt lat="46.1557527" lon="13.5633886"><ele>473.0</ele><time>2026-05-02T10:53:13.261Z</time></trkpt><trkpt lat="46.1557398" lon="13.5632966"><ele>473.0</ele><time>2026-05-02T10:53:14.262Z</time></trkpt><trkpt lat="46.1557344" lon="13.563205"><ele>473.0</ele><time>2026-05-02T10:53:15.261Z</time></trkpt><trkpt lat="46.1557316" lon="13.5630143"><ele>473.0</ele><time>2026-05-02T10:53:17.262Z</time></trkpt><trkpt lat="46.1557432" lon="13.5628453"><ele>473.0</ele><time>2026-05-02T10:53:19.262Z</time></trkpt><trkpt lat="46.1557485" lon="13.5626964"><ele>473.0</ele><time>2026-05-02T10:53:21.262Z</time></trkpt><trkpt lat="46.1557324" lon="13.5625404"><ele>478.99999999999994</ele><time>2026-05-02T10:53:23.262Z</time></trkpt><trkpt lat="46.1557082" lon="13.562439"><ele>485.0</ele><time>2026-05-02T10:53:24.262Z</time></trkpt><trkpt lat="46.1556741" lon="13.5623446"><ele>491.0</ele><time>2026-05-02T10:53:25.261Z</time></trkpt><trkpt lat="46.1556322" lon="13.5622481"><ele>497.0</ele><time>2026-05-02T10:53:26.262Z</time></trkpt><trkpt lat="46.1555986" lon="13.562084"><ele>502.99999999999994</ele><time>2026-05-02T10:53:28.261Z</time></trkpt><trkpt lat="46.1555931" lon="13.5619861"><ele>509.0</ele><time>2026-05-02T10:53:29.262Z</time></trkpt><trkpt lat="46.1555929" lon="13.5618889"><ele>508.99999999999994</ele><time>2026-05-02T10:53:30.261Z</time></trkpt><trkpt lat="46.1555733" lon="13.5617807"><ele>509.0</ele><time>2026-05-02T10:53:31.261Z</time></trkpt><trkpt lat="46.1555496" lon="13.5616773"><ele>508.99999999999994</ele><time>2026-05-02T10:53:32.262Z</time></trkpt><trkpt lat="46.1555186" lon="13.561583"><ele>508.99999999999994</ele><time>2026-05-02T10:53:33.261Z</time></trkpt><trkpt lat="46.1554878" lon="13.5614878"><ele>509.0</ele><time>2026-05-02T10:53:34.261Z</time></trkpt><trkpt lat="46.1554628" lon="13.5613889"><ele>508.99999999999994</ele><time>2026-05-02T10:53:35.261Z</time></trkpt><trkpt lat="46.155451" lon="13.5612907"><ele>508.99999999999994</ele><time>2026-05-02T10:53:36.262Z</time></trkpt><trkpt lat="46.1554551" lon="13.561163"><ele>508.99999999999994</ele><time>2026-05-02T10:53:38.262Z</time></trkpt><trkpt lat="46.1554073" lon="13.5610888"><ele>509.0</ele><time>2026-05-02T10:53:40.262Z</time></trkpt><trkpt lat="46.1553415" lon="13.5610569"><ele>509.0</ele><time>2026-05-02T10:53:43.261Z</time></trkpt><trkpt lat="46.1552876" lon="13.5611365"><ele>509.0</ele><time>2026-05-02T10:53:45.261Z</time></trkpt><trkpt lat="46.1552153" lon="13.5612469"><ele>508.99999999999994</ele><time>2026-05-02T10:53:47.261Z</time></trkpt><trkpt lat="46.1551331" lon="13.5613629"><ele>509.0</ele><time>2026-05-02T10:53:49.261Z</time></trkpt><trkpt lat="46.1550437" lon="13.561476"><ele>508.99999999999994</ele><time>2026-05-02T10:53:51.261Z</time></trkpt><trkpt lat="46.1549433" lon="13.5615577"><ele>509.0</ele><time>2026-05-02T10:53:53.261Z</time></trkpt><trkpt lat="46.1548317" lon="13.5616395"><ele>509.0</ele><time>2026-05-02T10:53:55.261Z</time></trkpt><trkpt lat="46.1547727" lon="13.5616724"><ele>509.0</ele><time>2026-05-02T10:53:56.261Z</time></trkpt><trkpt lat="46.1547064" lon="13.5617066"><ele>508.99999999999994</ele><time>2026-05-02T10:53:57.262Z</time></trkpt><trkpt lat="46.1546458" lon="13.5617487"><ele>509.0</ele><time>2026-05-02T10:53:58.261Z</time></trkpt><trkpt lat="46.1545801" lon="13.5618113"><ele>510.0</ele><time>2026-05-02T10:53:59.262Z</time></trkpt><trkpt lat="46.1545123" lon="13.5618804"><ele>511.0</ele><time>2026-05-02T10:54:00.262Z</time></trkpt><trkpt lat="46.1544409" lon="13.5619355"><ele>512.0</ele><time>2026-05-02T10:54:01.262Z</time></trkpt><trkpt lat="46.1543782" lon="13.5619802"><ele>513.0</ele><time>2026-05-02T10:54:02.261Z</time></trkpt><trkpt lat="46.1542757" lon="13.562075"><ele>514.0</ele><time>2026-05-02T10:54:04.262Z</time></trkpt><trkpt lat="46.1541662" lon="13.5621678"><ele>508.50000000000006</ele><time>2026-05-02T10:54:06.262Z</time></trkpt><trkpt lat="46.1540609" lon="13.5622608"><ele>503.0</ele><time>2026-05-02T10:54:08.261Z</time></trkpt><trkpt lat="46.1540126" lon="13.5623202"><ele>497.5</ele><time>2026-05-02T10:54:09.261Z</time></trkpt><trkpt lat="46.1539636" lon="13.5623823"><ele>492.0</ele><time>2026-05-02T10:54:10.262Z</time></trkpt><trkpt lat="46.1539077" lon="13.5624415"><ele>486.50000000000006</ele><time>2026-05-02T10:54:11.261Z</time></trkpt><trkpt lat="46.1538041" lon="13.5625303"><ele>481.0</ele><time>2026-05-02T10:54:13.262Z</time></trkpt><trkpt lat="46.1537067" lon="13.562602"><ele>481.0</ele><time>2026-05-02T10:54:15.262Z</time></trkpt><trkpt lat="46.1536091" lon="13.5626843"><ele>481.0</ele><time>2026-05-02T10:54:17.262Z</time></trkpt><trkpt lat="46.1535137" lon="13.5627443"><ele>481.0</ele><time>2026-05-02T10:54:19.261Z</time></trkpt><trkpt lat="46.1534308" lon="13.5627556"><ele>481.0</ele><time>2026-05-02T10:54:21.262Z</time></trkpt><trkpt lat="46.1533688" lon="13.5627369"><ele>481.0</ele><time>2026-05-02T10:54:22.261Z</time></trkpt><trkpt lat="46.1532401" lon="13.5627249"><ele>481.00000000000006</ele><time>2026-05-02T10:54:24.261Z</time></trkpt><trkpt lat="46.1531743" lon="13.5627272"><ele>481.0</ele><time>2026-05-02T10:54:25.261Z</time></trkpt><trkpt lat="46.153108" lon="13.5627133"><ele>481.0</ele><time>2026-05-02T10:54:26.262Z</time></trkpt><trkpt lat="46.1530447" lon="13.5627023"><ele>481.0</ele><time>2026-05-02T10:54:27.261Z</time></trkpt><trkpt lat="46.1529807" lon="13.5626981"><ele>481.00000000000006</ele><time>2026-05-02T10:54:28.261Z</time></trkpt><trkpt lat="46.1528637" lon="13.5626491"><ele>481.0</ele><time>2026-05-02T10:54:30.262Z</time></trkpt><trkpt lat="46.152752" lon="13.5625744"><ele>481.00000000000006</ele><time>2026-05-02T10:54:32.262Z</time></trkpt><trkpt lat="46.1526842" lon="13.5625235"><ele>481.0</ele><time>2026-05-02T10:54:33.262Z</time></trkpt><trkpt lat="46.1526175" lon="13.5624717"><ele>481.0</ele><time>2026-05-02T10:54:34.261Z</time></trkpt><trkpt lat="46.1525556" lon="13.5624093"><ele>481.0</ele><time>2026-05-02T10:54:35.261Z</time></trkpt><trkpt lat="46.1524972" lon="13.5623322"><ele>481.00000000000006</ele><time>2026-05-02T10:54:36.261Z</time></trkpt><trkpt lat="46.1524412" lon="13.5622368"><ele>481.0</ele><time>2026-05-02T10:54:37.262Z</time></trkpt><trkpt lat="46.1523901" lon="13.562159"><ele>447.1666666666667</ele><time>2026-05-02T10:54:38.261Z</time></trkpt><trkpt lat="46.1523551" lon="13.5620664"><ele>413.33333333333337</ele><time>2026-05-02T10:54:39.261Z</time></trkpt><trkpt lat="46.1523069" lon="13.5619098"><ele>379.5</ele><time>2026-05-02T10:54:41.261Z</time></trkpt><trkpt lat="46.1522859" lon="13.5617957"><ele>345.6666666666667</ele><time>2026-05-02T10:54:42.262Z</time></trkpt><trkpt lat="46.1522578" lon="13.5616881"><ele>311.83333333333337</ele><time>2026-05-02T10:54:43.261Z</time></trkpt><trkpt lat="46.1522363" lon="13.5615775"><ele>278.0</ele><time>2026-05-02T10:54:44.262Z</time></trkpt><trkpt lat="46.1522152" lon="13.5614794"><ele>278.0</ele><time>2026-05-02T10:54:45.261Z</time></trkpt><trkpt lat="46.152188" lon="13.5613835"><ele>278.0</ele><time>2026-05-02T10:54:46.262Z</time></trkpt><trkpt lat="46.1521614" lon="13.5612961"><ele>278.0</ele><time>2026-05-02T10:54:47.262Z</time></trkpt><trkpt lat="46.1521492" lon="13.5611946"><ele>278.0</ele><time>2026-05-02T10:54:48.261Z</time></trkpt><trkpt lat="46.1521425" lon="13.5611028"><ele>278.0</ele><time>2026-05-02T10:54:49.262Z</time></trkpt><trkpt lat="46.1521296" lon="13.5609283"><ele>278.0</ele><time>2026-05-02T10:54:51.261Z</time></trkpt><trkpt lat="46.1521223" lon="13.5608242"><ele>286.5</ele><time>2026-05-02T10:54:52.262Z</time></trkpt><trkpt lat="46.1521264" lon="13.5607303"><ele>295.0</ele><time>2026-05-02T10:54:53.262Z</time></trkpt><trkpt lat="46.1521245" lon="13.560636"><ele>303.5</ele><time>2026-05-02T10:54:54.262Z</time></trkpt><trkpt lat="46.1521204" lon="13.5605303"><ele>312.0</ele><time>2026-05-02T10:54:55.262Z</time></trkpt><trkpt lat="46.1521086" lon="13.5603358"><ele>320.5</ele><time>2026-05-02T10:54:57.262Z</time></trkpt><trkpt lat="46.152094" lon="13.5602119"><ele>329.0</ele><time>2026-05-02T10:54:58.261Z</time></trkpt><trkpt lat="46.152084" lon="13.5600956"><ele>335.0</ele><time>2026-05-02T10:54:59.262Z</time></trkpt><trkpt lat="46.1520775" lon="13.559982"><ele>341.0</ele><time>2026-05-02T10:55:00.261Z</time></trkpt><trkpt lat="46.1520582" lon="13.5598726"><ele>347.0</ele><time>2026-05-02T10:55:01.262Z</time></trkpt><trkpt lat="46.1520366" lon="13.5597804"><ele>353.0</ele><time>2026-05-02T10:55:02.262Z</time></trkpt><trkpt lat="46.152018" lon="13.5596845"><ele>359.0</ele><time>2026-05-02T10:55:03.262Z</time></trkpt><trkpt lat="46.1520064" lon="13.5595845"><ele>365.0</ele><time>2026-05-02T10:55:04.262Z</time></trkpt><trkpt lat="46.1519988" lon="13.5594909"><ele>371.0</ele><time>2026-05-02T10:55:05.261Z</time></trkpt><trkpt lat="46.152002" lon="13.5593901"><ele>380.0</ele><time>2026-05-02T10:55:06.261Z</time></trkpt><trkpt lat="46.1520162" lon="13.5592888"><ele>389.0</ele><time>2026-05-02T10:55:07.262Z</time></trkpt><trkpt lat="46.1520245" lon="13.5591849"><ele>398.0</ele><time>2026-05-02T10:55:08.261Z</time></trkpt><trkpt lat="46.1520318" lon="13.5590932"><ele>407.0</ele><time>2026-05-02T10:55:09.262Z</time></trkpt><trkpt lat="46.1520649" lon="13.5589156"><ele>415.99999999999994</ele><time>2026-05-02T10:55:11.262Z</time></trkpt><trkpt lat="46.152089" lon="13.5588283"><ele>425.0</ele><time>2026-05-02T10:55:12.261Z</time></trkpt><trkpt lat="46.1521186" lon="13.5587196"><ele>423.16666666666663</ele><time>2026-05-02T10:55:13.261Z</time></trkpt><trkpt lat="46.1521479" lon="13.5585921"><ele>421.3333333333333</ele><time>2026-05-02T10:55:14.262Z</time></trkpt><trkpt lat="46.1521805" lon="13.5584613"><ele>419.5</ele><time>2026-05-02T10:55:15.262Z</time></trkpt><trkpt lat="46.1522125" lon="13.558358"><ele>417.66666666666663</ele><time>2026-05-02T10:55:16.261Z</time></trkpt><trkpt lat="46.1522416" lon="13.5582571"><ele>415.8333333333333</ele><time>2026-05-02T10:55:17.262Z</time></trkpt><trkpt lat="46.1522666" lon="13.5581565"><ele>414.0</ele><time>2026-05-02T10:55:18.262Z</time></trkpt><trkpt lat="46.1523003" lon="13.5580559"><ele>414.0</ele><time>2026-05-02T10:55:19.261Z</time></trkpt><trkpt lat="46.1523276" lon="13.5579103"><ele>414.0</ele><time>2026-05-02T10:55:21.261Z</time></trkpt><trkpt lat="46.1523009" lon="13.5577752"><ele>414.0</ele><time>2026-05-02T10:55:23.261Z</time></trkpt><trkpt lat="46.1522177" lon="13.5576192"><ele>414.0</ele><time>2026-05-02T10:55:25.261Z</time></trkpt><trkpt lat="46.1521706" lon="13.5575367"><ele>414.0</ele><time>2026-05-02T10:55:26.261Z</time></trkpt><trkpt lat="46.1521311" lon="13.55746"><ele>419.6666666666667</ele><time>2026-05-02T10:55:27.262Z</time></trkpt><trkpt lat="46.1520867" lon="13.557379"><ele>425.33333333333337</ele><time>2026-05-02T10:55:28.262Z</time></trkpt><trkpt lat="46.1520393" lon="13.5573048"><ele>431.0</ele><time>2026-05-02T10:55:29.262Z</time></trkpt><trkpt lat="46.1519922" lon="13.5572346"><ele>436.6666666666667</ele><time>2026-05-02T10:55:30.261Z</time></trkpt><trkpt lat="46.1519442" lon="13.5571571"><ele>442.33333333333337</ele><time>2026-05-02T10:55:31.262Z</time></trkpt><trkpt lat="46.1518843" lon="13.5570014"><ele>448.0</ele><time>2026-05-02T10:55:33.261Z</time></trkpt><trkpt lat="46.1518405" lon="13.5568279"><ele>448.0</ele><time>2026-05-02T10:55:35.262Z</time></trkpt><trkpt lat="46.1518201" lon="13.5567324"><ele>448.0</ele><time>2026-05-02T10:55:36.261Z</time></trkpt><trkpt lat="46.1517969" lon="13.5566366"><ele>448.0</ele><time>2026-05-02T10:55:37.262Z</time></trkpt><trkpt lat="46.1517789" lon="13.5565257"><ele>448.0</ele><time>2026-05-02T10:55:38.262Z</time></trkpt><trkpt lat="46.1517597" lon="13.5564159"><ele>448.0</ele><time>2026-05-02T10:55:39.261Z</time></trkpt><trkpt lat="46.1517518" lon="13.5563051"><ele>448.0</ele><time>2026-05-02T10:55:40.262Z</time></trkpt><trkpt lat="46.151754" lon="13.5562008"><ele>448.0</ele><time>2026-05-02T10:55:41.262Z</time></trkpt><trkpt lat="46.1517431" lon="13.5560915"><ele>446.14285714285717</ele><time>2026-05-02T10:55:42.262Z</time></trkpt><trkpt lat="46.1517247" lon="13.5559729"><ele>444.2857142857143</ele><time>2026-05-02T10:55:43.261Z</time></trkpt><trkpt lat="46.1517102" lon="13.5558653"><ele>442.42857142857144</ele><time>2026-05-02T10:55:44.262Z</time></trkpt><trkpt lat="46.1516944" lon="13.555751"><ele>440.57142857142856</ele><time>2026-05-02T10:55:45.262Z</time></trkpt><trkpt lat="46.1516863" lon="13.5556433"><ele>438.7142857142857</ele><time>2026-05-02T10:55:46.261Z</time></trkpt><trkpt lat="46.151693" lon="13.555549"><ele>436.8571428571429</ele><time>2026-05-02T10:55:47.262Z</time></trkpt><trkpt lat="46.1517173" lon="13.5554587"><ele>435.0</ele><time>2026-05-02T10:55:48.262Z</time></trkpt><trkpt lat="46.1517514" lon="13.5553722"><ele>434.0</ele><time>2026-05-02T10:55:49.261Z</time></trkpt><trkpt lat="46.151802" lon="13.5552869"><ele>433.0</ele><time>2026-05-02T10:55:50.262Z</time></trkpt><trkpt lat="46.1518606" lon="13.5552128"><ele>432.0</ele><time>2026-05-02T10:55:51.262Z</time></trkpt><trkpt lat="46.151917" lon="13.5551316"><ele>431.0</ele><time>2026-05-02T10:55:52.262Z</time></trkpt><trkpt lat="46.1519601" lon="13.5550343"><ele>430.0</ele><time>2026-05-02T10:55:53.262Z</time></trkpt><trkpt lat="46.1519925" lon="13.554912"><ele>429.0</ele><time>2026-05-02T10:55:54.262Z</time></trkpt><trkpt lat="46.1520196" lon="13.5547894"><ele>429.0</ele><time>2026-05-02T10:55:55.262Z</time></trkpt><trkpt lat="46.1520533" lon="13.5546712"><ele>429.0</ele><time>2026-05-02T10:55:56.262Z</time></trkpt><trkpt lat="46.1520788" lon="13.5545545"><ele>429.0</ele><time>2026-05-02T10:55:57.262Z</time></trkpt><trkpt lat="46.1521006" lon="13.5544157"><ele>429.0</ele><time>2026-05-02T10:55:58.262Z</time></trkpt><trkpt lat="46.1521213" lon="13.5542926"><ele>429.0</ele><time>2026-05-02T10:55:59.261Z</time></trkpt><trkpt lat="46.1521414" lon="13.554167"><ele>429.0</ele><time>2026-05-02T10:56:00.261Z</time></trkpt><trkpt lat="46.1521715" lon="13.5540617"><ele>429.6666666666667</ele><time>2026-05-02T10:56:01.261Z</time></trkpt><trkpt lat="46.1522081" lon="13.5539709"><ele>430.33333333333337</ele><time>2026-05-02T10:56:02.261Z</time></trkpt><trkpt lat="46.1522361" lon="13.5538756"><ele>431.0</ele><time>2026-05-02T10:56:03.261Z</time></trkpt><trkpt lat="46.1522737" lon="13.5537703"><ele>431.6666666666667</ele><time>2026-05-02T10:56:04.261Z</time></trkpt><trkpt lat="46.1523233" lon="13.5536568"><ele>432.33333333333337</ele><time>2026-05-02T10:56:05.261Z</time></trkpt><trkpt lat="46.1523749" lon="13.5535535"><ele>433.0</ele><time>2026-05-02T10:56:06.262Z</time></trkpt><trkpt lat="46.1524284" lon="13.553459"><ele>433.0</ele><time>2026-05-02T10:56:07.261Z</time></trkpt><trkpt lat="46.15248" lon="13.5533797"><ele>432.99999999999994</ele><time>2026-05-02T10:56:08.262Z</time></trkpt><trkpt lat="46.1525389" lon="13.5533037"><ele>432.99999999999994</ele><time>2026-05-02T10:56:09.262Z</time></trkpt><trkpt lat="46.1526313" lon="13.5532162"><ele>433.0</ele><time>2026-05-02T10:56:11.261Z</time></trkpt><trkpt lat="46.152675" lon="13.553126"><ele>433.0</ele><time>2026-05-02T10:56:13.262Z</time></trkpt><trkpt lat="46.1526455" lon="13.5529712"><ele>433.00000000000006</ele><time>2026-05-02T10:56:15.261Z</time></trkpt><trkpt lat="46.152624" lon="13.5528771"><ele>433.0</ele><time>2026-05-02T10:56:16.262Z</time></trkpt><trkpt lat="46.1525955" lon="13.5527672"><ele>433.0</ele><time>2026-05-02T10:56:17.262Z</time></trkpt><trkpt lat="46.1525803" lon="13.5526646"><ele>433.0</ele><time>2026-05-02T10:56:18.261Z</time></trkpt><trkpt lat="46.1526189" lon="13.5525082"><ele>433.00000000000006</ele><time>2026-05-02T10:56:20.261Z</time></trkpt><trkpt lat="46.152661" lon="13.5524235"><ele>433.0</ele><time>2026-05-02T10:56:21.262Z</time></trkpt><trkpt lat="46.1526973" lon="13.5523339"><ele>431.1666666666667</ele><time>2026-05-02T10:56:22.261Z</time></trkpt><trkpt lat="46.1527149" lon="13.5522253"><ele>429.33333333333337</ele><time>2026-05-02T10:56:23.261Z</time></trkpt><trkpt lat="46.1527031" lon="13.5520754"><ele>427.5</ele><time>2026-05-02T10:56:25.261Z</time></trkpt><trkpt lat="46.1526393" lon="13.5519596"><ele>425.66666666666663</ele><time>2026-05-02T10:56:27.262Z</time></trkpt><trkpt lat="46.1526" lon="13.5518879"><ele>423.8333333333333</ele><time>2026-05-02T10:56:28.262Z</time></trkpt><trkpt lat="46.1525646" lon="13.5518123"><ele>422.0</ele><time>2026-05-02T10:56:29.261Z</time></trkpt><trkpt lat="46.1525134" lon="13.5516937"><ele>420.20000000000005</ele><time>2026-05-02T10:56:31.261Z</time></trkpt><trkpt lat="46.1524654" lon="13.5515735"><ele>418.4</ele><time>2026-05-02T10:56:33.262Z</time></trkpt><trkpt lat="46.1523562" lon="13.5515145"><ele>416.6</ele><time>2026-05-02T10:56:35.261Z</time></trkpt><trkpt lat="46.1522562" lon="13.5514574"><ele>414.79999999999995</ele><time>2026-05-02T10:56:37.261Z</time></trkpt><trkpt lat="46.1522067" lon="13.5513958"><ele>413.0</ele><time>2026-05-02T10:56:38.262Z</time></trkpt><trkpt lat="46.1521368" lon="13.5513275"><ele>413.8333333333333</ele><time>2026-05-02T10:56:39.261Z</time></trkpt><trkpt lat="46.1520751" lon="13.5512595"><ele>414.66666666666663</ele><time>2026-05-02T10:56:40.261Z</time></trkpt><trkpt lat="46.1520211" lon="13.5512004"><ele>415.5</ele><time>2026-05-02T10:56:41.261Z</time></trkpt><trkpt lat="46.1519723" lon="13.5511361"><ele>416.33333333333337</ele><time>2026-05-02T10:56:42.261Z</time></trkpt><trkpt lat="46.1519385" lon="13.5510524"><ele>417.1666666666667</ele><time>2026-05-02T10:56:43.262Z</time></trkpt><trkpt lat="46.1518783" lon="13.550929"><ele>418.0</ele><time>2026-05-02T10:56:45.262Z</time></trkpt><trkpt lat="46.1517861" lon="13.5509154"><ele>418.0</ele><time>2026-05-02T10:56:47.262Z</time></trkpt><trkpt lat="46.1516658" lon="13.5509509"><ele>418.0</ele><time>2026-05-02T10:56:49.261Z</time></trkpt><trkpt lat="46.1515546" lon="13.5509757"><ele>418.0</ele><time>2026-05-02T10:56:51.262Z</time></trkpt><trkpt lat="46.1514312" lon="13.5508921"><ele>418.0</ele><time>2026-05-02T10:56:53.261Z</time></trkpt><trkpt lat="46.1513653" lon="13.5508587"><ele>418.0</ele><time>2026-05-02T10:56:54.262Z</time></trkpt><trkpt lat="46.1513033" lon="13.5508191"><ele>414.50000000000006</ele><time>2026-05-02T10:56:55.262Z</time></trkpt><trkpt lat="46.1512347" lon="13.5507851"><ele>411.0</ele><time>2026-05-02T10:56:56.262Z</time></trkpt><trkpt lat="46.1511697" lon="13.5507777"><ele>407.5</ele><time>2026-05-02T10:56:57.262Z</time></trkpt><trkpt lat="46.1510458" lon="13.5507491"><ele>404.0</ele><time>2026-05-02T10:56:59.262Z</time></trkpt><trkpt lat="46.150982" lon="13.5507496"><ele>400.50000000000006</ele><time>2026-05-02T10:57:00.261Z</time></trkpt><trkpt lat="46.150919" lon="13.5507499"><ele>397.0</ele><time>2026-05-02T10:57:01.261Z</time></trkpt><trkpt lat="46.1507993" lon="13.5507306"><ele>389.75</ele><time>2026-05-02T10:57:03.262Z</time></trkpt><trkpt lat="46.1507014" lon="13.5506578"><ele>382.5</ele><time>2026-05-02T10:57:05.262Z</time></trkpt><trkpt lat="46.1506286" lon="13.5505468"><ele>375.25</ele><time>2026-05-02T10:57:07.261Z</time></trkpt><trkpt lat="46.1506054" lon="13.5503802"><ele>368.0</ele><time>2026-05-02T10:57:09.262Z</time></trkpt><trkpt lat="46.1506238" lon="13.5501674"><ele>368.0</ele><time>2026-05-02T10:57:11.262Z</time></trkpt><trkpt lat="46.1506415" lon="13.5500504"><ele>368.0</ele><time>2026-05-02T10:57:12.261Z</time></trkpt><trkpt lat="46.1506701" lon="13.5499367"><ele>368.0</ele><time>2026-05-02T10:57:13.262Z</time></trkpt><trkpt lat="46.1506912" lon="13.5498279"><ele>368.0</ele><time>2026-05-02T10:57:14.261Z</time></trkpt><trkpt lat="46.1507016" lon="13.5497367"><ele>368.0</ele><time>2026-05-02T10:57:15.262Z</time></trkpt><trkpt lat="46.1507206" lon="13.5496383"><ele>368.0</ele><time>2026-05-02T10:57:16.261Z</time></trkpt><trkpt lat="46.1507383" lon="13.5495488"><ele>368.0</ele><time>2026-05-02T10:57:17.262Z</time></trkpt><trkpt lat="46.1508112" lon="13.5493689"><ele>373.5</ele><time>2026-05-02T10:57:19.262Z</time></trkpt><trkpt lat="46.1508589" lon="13.5492629"><ele>379.0</ele><time>2026-05-02T10:57:20.261Z</time></trkpt><trkpt lat="46.150905" lon="13.5491799"><ele>384.5</ele><time>2026-05-02T10:57:21.261Z</time></trkpt><trkpt lat="46.1509471" lon="13.5490933"><ele>390.0</ele><time>2026-05-02T10:57:22.261Z</time></trkpt><trkpt lat="46.1509783" lon="13.5490121"><ele>395.49999999999994</ele><time>2026-05-02T10:57:23.262Z</time></trkpt><trkpt lat="46.1509796" lon="13.5489127"><ele>401.0</ele><time>2026-05-02T10:57:24.262Z</time></trkpt><trkpt lat="46.1509101" lon="13.5487404"><ele>400.3333333333333</ele><time>2026-05-02T10:57:26.261Z</time></trkpt><trkpt lat="46.1508518" lon="13.5486317"><ele>399.66666666666663</ele><time>2026-05-02T10:57:27.262Z</time></trkpt><trkpt lat="46.1508113" lon="13.5485151"><ele>399.0</ele><time>2026-05-02T10:57:28.262Z</time></trkpt><trkpt lat="46.1507837" lon="13.5483981"><ele>398.33333333333337</ele><time>2026-05-02T10:57:29.262Z</time></trkpt><trkpt lat="46.1507745" lon="13.5482922"><ele>397.6666666666667</ele><time>2026-05-02T10:57:30.261Z</time></trkpt><trkpt lat="46.1507768" lon="13.5481657"><ele>397.0</ele><time>2026-05-02T10:57:31.262Z</time></trkpt><trkpt lat="46.1507882" lon="13.5480605"><ele>397.00000000000006</ele><time>2026-05-02T10:57:32.261Z</time></trkpt><trkpt lat="46.1508004" lon="13.5479423"><ele>397.0</ele><time>2026-05-02T10:57:33.261Z</time></trkpt><trkpt lat="46.1508049" lon="13.5478221"><ele>397.0</ele><time>2026-05-02T10:57:34.261Z</time></trkpt><trkpt lat="46.1508107" lon="13.547696"><ele>397.0</ele><time>2026-05-02T10:57:35.262Z</time></trkpt><trkpt lat="46.1508284" lon="13.5475916"><ele>397.00000000000006</ele><time>2026-05-02T10:57:36.261Z</time></trkpt><trkpt lat="46.1508541" lon="13.5474843"><ele>397.0</ele><time>2026-05-02T10:57:37.262Z</time></trkpt><trkpt lat="46.1508941" lon="13.547368"><ele>397.33333333333337</ele><time>2026-05-02T10:57:38.262Z</time></trkpt><trkpt lat="46.1509239" lon="13.5472603"><ele>397.6666666666667</ele><time>2026-05-02T10:57:39.261Z</time></trkpt><trkpt lat="46.1509621" lon="13.5471609"><ele>398.0</ele><time>2026-05-02T10:57:40.261Z</time></trkpt><trkpt lat="46.1509831" lon="13.5470322"><ele>398.33333333333337</ele><time>2026-05-02T10:57:41.261Z</time></trkpt><trkpt lat="46.151034" lon="13.5469449"><ele>398.6666666666667</ele><time>2026-05-02T10:57:42.262Z</time></trkpt><trkpt lat="46.1510703" lon="13.5468469"><ele>399.0</ele><time>2026-05-02T10:57:43.262Z</time></trkpt><trkpt lat="46.151098" lon="13.5467629"><ele>399.6</ele><time>2026-05-02T10:57:44.261Z</time></trkpt><trkpt lat="46.1510793" lon="13.5466345"><ele>400.2</ele><time>2026-05-02T10:57:46.261Z</time></trkpt><trkpt lat="46.1509935" lon="13.5466092"><ele>400.8</ele><time>2026-05-02T10:57:48.262Z</time></trkpt><trkpt lat="46.1509221" lon="13.5466245"><ele>401.40000000000003</ele><time>2026-05-02T10:57:49.262Z</time></trkpt><trkpt lat="46.1508133" lon="13.546668"><ele>402.0</ele><time>2026-05-02T10:57:50.262Z</time></trkpt><trkpt lat="46.1507057" lon="13.5467033"><ele>400.6</ele><time>2026-05-02T10:57:51.261Z</time></trkpt><trkpt lat="46.1506087" lon="13.5467243"><ele>399.20000000000005</ele><time>2026-05-02T10:57:52.262Z</time></trkpt><trkpt lat="46.1505017" lon="13.5467395"><ele>397.8</ele><time>2026-05-02T10:57:53.262Z</time></trkpt><trkpt lat="46.1503983" lon="13.5467599"><ele>396.4</ele><time>2026-05-02T10:57:54.261Z</time></trkpt><trkpt lat="46.150305" lon="13.5467706"><ele>395.0</ele><time>2026-05-02T10:57:55.262Z</time></trkpt><trkpt lat="46.1502294" lon="13.5467676"><ele>395.0</ele><time>2026-05-02T10:57:56.262Z</time></trkpt><trkpt lat="46.1501502" lon="13.5466908"><ele>395.0</ele><time>2026-05-02T10:57:58.261Z</time></trkpt><trkpt lat="46.1501434" lon="13.5465669"><ele>395.0</ele><time>2026-05-02T10:58:00.261Z</time></trkpt><trkpt lat="46.1501405" lon="13.5463668"><ele>395.0</ele><time>2026-05-02T10:58:02.261Z</time></trkpt><trkpt lat="46.150139" lon="13.5462331"><ele>395.0</ele><time>2026-05-02T10:58:03.262Z</time></trkpt><trkpt lat="46.1501436" lon="13.5461272"><ele>398.99999999999994</ele><time>2026-05-02T10:58:04.261Z</time></trkpt><trkpt lat="46.1501356" lon="13.5460143"><ele>403.0</ele><time>2026-05-02T10:58:06.262Z</time></trkpt><trkpt lat="46.1500623" lon="13.5459674"><ele>407.0</ele><time>2026-05-02T10:58:08.261Z</time></trkpt><trkpt lat="46.1499431" lon="13.5460008"><ele>411.0</ele><time>2026-05-02T10:58:10.262Z</time></trkpt><trkpt lat="46.1498937" lon="13.5460734"><ele>414.99999999999994</ele><time>2026-05-02T10:58:11.261Z</time></trkpt><trkpt lat="46.1498463" lon="13.5461498"><ele>419.0</ele><time>2026-05-02T10:58:12.261Z</time></trkpt><trkpt lat="46.1498094" lon="13.54623"><ele>419.79999999999995</ele><time>2026-05-02T10:58:13.261Z</time></trkpt><trkpt lat="46.1496984" lon="13.5463505"><ele>420.59999999999997</ele><time>2026-05-02T10:58:15.261Z</time></trkpt><trkpt lat="46.1496312" lon="13.5463926"><ele>421.4</ele><time>2026-05-02T10:58:16.261Z</time></trkpt><trkpt lat="46.1495634" lon="13.5464406"><ele>422.2</ele><time>2026-05-02T10:58:17.262Z</time></trkpt><trkpt lat="46.1495033" lon="13.5465529"><ele>423.0</ele><time>2026-05-02T10:58:19.261Z</time></trkpt><trkpt lat="46.1494816" lon="13.5466781"><ele>423.0</ele><time>2026-05-02T10:58:21.262Z</time></trkpt><trkpt lat="46.149463" lon="13.5468563"><ele>423.0</ele><time>2026-05-02T10:58:23.262Z</time></trkpt><trkpt lat="46.1494486" lon="13.546956"><ele>423.0</ele><time>2026-05-02T10:58:24.261Z</time></trkpt><trkpt lat="46.1493993" lon="13.547127"><ele>423.0</ele><time>2026-05-02T10:58:26.262Z</time></trkpt><trkpt lat="46.1493564" lon="13.5472171"><ele>423.0</ele><time>2026-05-02T10:58:27.261Z</time></trkpt><trkpt lat="46.1493004" lon="13.5473245"><ele>421.2857142857143</ele><time>2026-05-02T10:58:28.262Z</time></trkpt><trkpt lat="46.1492497" lon="13.547414"><ele>419.5714285714286</ele><time>2026-05-02T10:58:29.262Z</time></trkpt><trkpt lat="46.149187" lon="13.547495"><ele>417.8571428571429</ele><time>2026-05-02T10:58:30.262Z</time></trkpt><trkpt lat="46.1491335" lon="13.5475584"><ele>416.1428571428571</ele><time>2026-05-02T10:58:31.262Z</time></trkpt><trkpt lat="46.1490785" lon="13.5476161"><ele>414.42857142857144</ele><time>2026-05-02T10:58:32.262Z</time></trkpt><trkpt lat="46.1490084" lon="13.5476727"><ele>412.7142857142857</ele><time>2026-05-02T10:58:33.262Z</time></trkpt><trkpt lat="46.148946" lon="13.5476862"><ele>411.0</ele><time>2026-05-02T10:58:34.262Z</time></trkpt><trkpt lat="46.1488822" lon="13.5476681"><ele>411.0</ele><time>2026-05-02T10:58:35.262Z</time></trkpt><trkpt lat="46.148792" lon="13.5476367"><ele>411.0</ele><time>2026-05-02T10:58:36.262Z</time></trkpt><trkpt lat="46.1487011" lon="13.5475963"><ele>411.0</ele><time>2026-05-02T10:58:37.261Z</time></trkpt><trkpt lat="46.1486048" lon="13.5475624"><ele>411.0</ele><time>2026-05-02T10:58:38.262Z</time></trkpt><trkpt lat="46.1485254" lon="13.5475376"><ele>411.0</ele><time>2026-05-02T10:58:39.261Z</time></trkpt><trkpt lat="46.1484479" lon="13.5475284"><ele>411.0</ele><time>2026-05-02T10:58:40.262Z</time></trkpt><trkpt lat="46.1483714" lon="13.5475499"><ele>411.0</ele><time>2026-05-02T10:58:41.261Z</time></trkpt><trkpt lat="46.1482965" lon="13.5475909"><ele>411.0</ele><time>2026-05-02T10:58:42.262Z</time></trkpt><trkpt lat="46.148222" lon="13.5476324"><ele>411.0</ele><time>2026-05-02T10:58:43.262Z</time></trkpt><trkpt lat="46.148151" lon="13.5476683"><ele>411.0</ele><time>2026-05-02T10:58:44.262Z</time></trkpt><trkpt lat="46.1480718" lon="13.5477051"><ele>411.0</ele><time>2026-05-02T10:58:45.262Z</time></trkpt><trkpt lat="46.1479894" lon="13.5477335"><ele>411.0</ele><time>2026-05-02T10:58:46.261Z</time></trkpt><trkpt lat="46.1479072" lon="13.5477568"><ele>407.8333333333333</ele><time>2026-05-02T10:58:47.262Z</time></trkpt><trkpt lat="46.14783" lon="13.5477615"><ele>404.66666666666663</ele><time>2026-05-02T10:58:48.261Z</time></trkpt><trkpt lat="46.1477594" lon="13.5477623"><ele>401.5</ele><time>2026-05-02T10:58:49.262Z</time></trkpt><trkpt lat="46.1476913" lon="13.5477464"><ele>398.3333333333333</ele><time>2026-05-02T10:58:50.262Z</time></trkpt><trkpt lat="46.1476232" lon="13.547714"><ele>395.16666666666663</ele><time>2026-05-02T10:58:51.261Z</time></trkpt><trkpt lat="46.1475634" lon="13.5476492"><ele>392.0</ele><time>2026-05-02T10:58:52.261Z</time></trkpt><trkpt lat="46.1474846" lon="13.547505"><ele>392.0</ele><time>2026-05-02T10:58:54.262Z</time></trkpt><trkpt lat="46.1474248" lon="13.547351"><ele>392.0</ele><time>2026-05-02T10:58:56.261Z</time></trkpt><trkpt lat="46.1473025" lon="13.5472611"><ele>392.0</ele><time>2026-05-02T10:58:58.262Z</time></trkpt><trkpt lat="46.1472331" lon="13.5472414"><ele>392.0</ele><time>2026-05-02T10:58:59.261Z</time></trkpt><trkpt lat="46.147164" lon="13.5472125"><ele>392.0</ele><time>2026-05-02T10:59:00.262Z</time></trkpt><trkpt lat="46.1470541" lon="13.5471389"><ele>384.40000000000003</ele><time>2026-05-02T10:59:02.262Z</time></trkpt><trkpt lat="46.1469884" lon="13.5470004"><ele>376.8</ele><time>2026-05-02T10:59:04.262Z</time></trkpt><trkpt lat="46.146976" lon="13.5468227"><ele>369.2</ele><time>2026-05-02T10:59:06.262Z</time></trkpt><trkpt lat="46.1469818" lon="13.546712"><ele>361.6</ele><time>2026-05-02T10:59:07.262Z</time></trkpt><trkpt lat="46.1469988" lon="13.5465962"><ele>354.0</ele><time>2026-05-02T10:59:08.262Z</time></trkpt><trkpt lat="46.1470181" lon="13.54649"><ele>354.0</ele><time>2026-05-02T10:59:09.261Z</time></trkpt><trkpt lat="46.1470346" lon="13.5463965"><ele>354.0</ele><time>2026-05-02T10:59:10.261Z</time></trkpt><trkpt lat="46.1470481" lon="13.5463055"><ele>354.0</ele><time>2026-05-02T10:59:11.261Z</time></trkpt><trkpt lat="46.1470179" lon="13.5461726"><ele>354.0</ele><time>2026-05-02T10:59:13.261Z</time></trkpt><trkpt lat="46.1469339" lon="13.5460772"><ele>354.0</ele><time>2026-05-02T10:59:15.262Z</time></trkpt><trkpt lat="46.1468819" lon="13.5460246"><ele>354.0</ele><time>2026-05-02T10:59:16.261Z</time></trkpt><trkpt lat="46.1468021" lon="13.5459524"><ele>354.0</ele><time>2026-05-02T10:59:17.262Z</time></trkpt><trkpt lat="46.1467209" lon="13.5458696"><ele>354.0</ele><time>2026-05-02T10:59:18.262Z</time></trkpt><trkpt lat="46.146643" lon="13.5457985"><ele>354.0</ele><time>2026-05-02T10:59:19.262Z</time></trkpt><trkpt lat="46.1465714" lon="13.5457404"><ele>354.0</ele><time>2026-05-02T10:59:20.262Z</time></trkpt><trkpt lat="46.1465004" lon="13.54569"><ele>354.0</ele><time>2026-05-02T10:59:21.261Z</time></trkpt><trkpt lat="46.1464403" lon="13.5456441"><ele>354.0</ele><time>2026-05-02T10:59:22.261Z</time></trkpt><trkpt lat="46.1463639" lon="13.5455101"><ele>354.0</ele><time>2026-05-02T10:59:24.261Z</time></trkpt><trkpt lat="46.1463427" lon="13.545422"><ele>354.0</ele><time>2026-05-02T10:59:25.262Z</time></trkpt><trkpt lat="46.1463419" lon="13.5452352"><ele>354.0</ele><time>2026-05-02T10:59:27.262Z</time></trkpt><trkpt lat="46.1463387" lon="13.5451404"><ele>354.0</ele><time>2026-05-02T10:59:28.261Z</time></trkpt><trkpt lat="46.1463194" lon="13.5449668"><ele>354.0</ele><time>2026-05-02T10:59:30.262Z</time></trkpt><trkpt lat="46.1462923" lon="13.5448805"><ele>354.0</ele><time>2026-05-02T10:59:31.262Z</time></trkpt><trkpt lat="46.1462072" lon="13.5447575"><ele>359.4</ele><time>2026-05-02T10:59:33.261Z</time></trkpt><trkpt lat="46.1461038" lon="13.5446351"><ele>364.79999999999995</ele><time>2026-05-02T10:59:35.261Z</time></trkpt><trkpt lat="46.1460602" lon="13.5445523"><ele>370.20000000000005</ele><time>2026-05-02T10:59:36.261Z</time></trkpt><trkpt lat="46.1460283" lon="13.5444519"><ele>375.6</ele><time>2026-05-02T10:59:37.261Z</time></trkpt><trkpt lat="46.1460116" lon="13.5443606"><ele>381.0</ele><time>2026-05-02T10:59:38.262Z</time></trkpt><trkpt lat="46.145967" lon="13.5442062"><ele>381.0</ele><time>2026-05-02T10:59:40.262Z</time></trkpt><trkpt lat="46.1459232" lon="13.5441226"><ele>381.0</ele><time>2026-05-02T10:59:41.262Z</time></trkpt><trkpt lat="46.1458702" lon="13.5439975"><ele>381.0</ele><time>2026-05-02T10:59:42.261Z</time></trkpt><trkpt lat="46.1458088" lon="13.5438939"><ele>381.0</ele><time>2026-05-02T10:59:43.262Z</time></trkpt><trkpt lat="46.1457344" lon="13.5437891"><ele>381.0</ele><time>2026-05-02T10:59:44.262Z</time></trkpt><trkpt lat="46.145663" lon="13.5437059"><ele>372.8333333333333</ele><time>2026-05-02T10:59:45.262Z</time></trkpt><trkpt lat="46.1456157" lon="13.5436029"><ele>364.6666666666667</ele><time>2026-05-02T10:59:46.261Z</time></trkpt><trkpt lat="46.145585" lon="13.5435017"><ele>356.5</ele><time>2026-05-02T10:59:47.262Z</time></trkpt><trkpt lat="46.1455571" lon="13.5434034"><ele>348.33333333333337</ele><time>2026-05-02T10:59:48.262Z</time></trkpt><trkpt lat="46.1455351" lon="13.5433171"><ele>340.1666666666667</ele><time>2026-05-02T10:59:49.262Z</time></trkpt><trkpt lat="46.1455405" lon="13.543156"><ele>332.0</ele><time>2026-05-02T10:59:51.262Z</time></trkpt><trkpt lat="46.1455474" lon="13.54306"><ele>331.83333333333337</ele><time>2026-05-02T10:59:52.261Z</time></trkpt><trkpt lat="46.1455602" lon="13.5428632"><ele>331.6666666666667</ele><time>2026-05-02T10:59:54.262Z</time></trkpt><trkpt lat="46.1455947" lon="13.5427637"><ele>331.5</ele><time>2026-05-02T10:59:55.261Z</time></trkpt><trkpt lat="46.1456432" lon="13.5426763"><ele>331.3333333333333</ele><time>2026-05-02T10:59:56.262Z</time></trkpt><trkpt lat="46.1457035" lon="13.5425991"><ele>331.16666666666663</ele><time>2026-05-02T10:59:57.262Z</time></trkpt><trkpt lat="46.1457518" lon="13.5425385"><ele>331.0</ele><time>2026-05-02T10:59:58.261Z</time></trkpt><trkpt lat="46.1458053" lon="13.5424273"><ele>331.0</ele><time>2026-05-02T11:00:00.262Z</time></trkpt><trkpt lat="46.1457687" lon="13.5423296"><ele>331.0</ele><time>2026-05-02T11:00:02.261Z</time></trkpt><trkpt lat="46.1456905" lon="13.5422071"><ele>331.0</ele><time>2026-05-02T11:00:04.262Z</time></trkpt><trkpt lat="46.1456782" lon="13.5420649"><ele>331.0</ele><time>2026-05-02T11:00:06.261Z</time></trkpt><trkpt lat="46.1456789" lon="13.5419645"><ele>331.0</ele><time>2026-05-02T11:00:07.262Z</time></trkpt><trkpt lat="46.1456783" lon="13.5418707"><ele>331.0</ele><time>2026-05-02T11:00:08.261Z</time></trkpt><trkpt lat="46.1456537" lon="13.5417764"><ele>332.3333333333333</ele><time>2026-05-02T11:00:09.261Z</time></trkpt><trkpt lat="46.145617" lon="13.541686"><ele>333.66666666666663</ele><time>2026-05-02T11:00:10.262Z</time></trkpt><trkpt lat="46.1455838" lon="13.541608"><ele>335.0</ele><time>2026-05-02T11:00:11.261Z</time></trkpt><trkpt lat="46.1455453" lon="13.5415216"><ele>336.3333333333333</ele><time>2026-05-02T11:00:12.261Z</time></trkpt><trkpt lat="46.1455116" lon="13.5414394"><ele>337.6666666666667</ele><time>2026-05-02T11:00:13.261Z</time></trkpt><trkpt lat="46.1454854" lon="13.5413359"><ele>339.0</ele><time>2026-05-02T11:00:14.261Z</time></trkpt><trkpt lat="46.1454234" lon="13.5411973"><ele>339.0</ele><time>2026-05-02T11:00:16.261Z</time></trkpt><trkpt lat="46.1453095" lon="13.5411367"><ele>339.0</ele><time>2026-05-02T11:00:18.262Z</time></trkpt><trkpt lat="46.1452261" lon="13.5410682"><ele>339.0</ele><time>2026-05-02T11:00:20.262Z</time></trkpt><trkpt lat="46.1452069" lon="13.5409653"><ele>339.0</ele><time>2026-05-02T11:00:24.262Z</time></trkpt><trkpt lat="46.1451616" lon="13.5408362"><ele>339.0</ele><time>2026-05-02T11:00:26.261Z</time></trkpt><trkpt lat="46.1451184" lon="13.5407427"><ele>339.0</ele><time>2026-05-02T11:00:27.261Z</time></trkpt><trkpt lat="46.1450841" lon="13.5406219"><ele>339.0</ele><time>2026-05-02T11:00:28.262Z</time></trkpt><trkpt lat="46.1450561" lon="13.5404782"><ele>339.0</ele><time>2026-05-02T11:00:29.261Z</time></trkpt><trkpt lat="46.1450396" lon="13.5402876"><ele>339.0</ele><time>2026-05-02T11:00:30.261Z</time></trkpt><trkpt lat="46.1450166" lon="13.5400649"><ele>339.0</ele><time>2026-05-02T11:00:31.262Z</time></trkpt><trkpt lat="46.1449803" lon="13.5398287"><ele>339.0</ele><time>2026-05-02T11:00:32.261Z</time></trkpt><trkpt lat="46.1449331" lon="13.5395936"><ele>339.0</ele><time>2026-05-02T11:00:33.261Z</time></trkpt><trkpt lat="46.1448618" lon="13.5393858"><ele>339.0</ele><time>2026-05-02T11:00:34.261Z</time></trkpt><trkpt lat="46.1447922" lon="13.5391742"><ele>339.0</ele><time>2026-05-02T11:00:35.261Z</time></trkpt><trkpt lat="46.1447287" lon="13.5389685"><ele>339.0</ele><time>2026-05-02T11:00:36.261Z</time></trkpt><trkpt lat="46.1446608" lon="13.5387967"><ele>339.0</ele><time>2026-05-02T11:00:37.261Z</time></trkpt><trkpt lat="46.1445905" lon="13.5386696"><ele>339.0</ele><time>2026-05-02T11:00:38.261Z</time></trkpt><trkpt lat="46.1445069" lon="13.53858"><ele>339.0</ele><time>2026-05-02T11:00:39.262Z</time></trkpt><trkpt lat="46.1443941" lon="13.5385199"><ele>339.0</ele><time>2026-05-02T11:00:40.262Z</time></trkpt><trkpt lat="46.1442587" lon="13.538467"><ele>351.3333333333333</ele><time>2026-05-02T11:00:41.262Z</time></trkpt><trkpt lat="46.1441139" lon="13.53841"><ele>363.66666666666663</ele><time>2026-05-02T11:00:42.261Z</time></trkpt><trkpt lat="46.143964" lon="13.5383247"><ele>376.0</ele><time>2026-05-02T11:00:43.262Z</time></trkpt><trkpt lat="46.1438154" lon="13.5382351"><ele>376.0</ele><time>2026-05-02T11:00:44.262Z</time></trkpt><trkpt lat="46.1436617" lon="13.5381457"><ele>376.0</ele><time>2026-05-02T11:00:45.261Z</time></trkpt><trkpt lat="46.1435046" lon="13.538082"><ele>376.0</ele><time>2026-05-02T11:00:46.262Z</time></trkpt><trkpt lat="46.1433738" lon="13.5380157"><ele>376.0</ele><time>2026-05-02T11:00:47.262Z</time></trkpt><trkpt lat="46.1432716" lon="13.5379459"><ele>376.0</ele><time>2026-05-02T11:00:48.261Z</time></trkpt><trkpt lat="46.1431881" lon="13.5378763"><ele>376.0</ele><time>2026-05-02T11:00:49.262Z</time></trkpt><trkpt lat="46.14313" lon="13.537798"><ele>376.0</ele><time>2026-05-02T11:00:50.261Z</time></trkpt><trkpt lat="46.1431091" lon="13.5376849"><ele>376.0</ele><time>2026-05-02T11:00:51.261Z</time></trkpt><trkpt lat="46.1431052" lon="13.5375577"><ele>376.0</ele><time>2026-05-02T11:00:52.261Z</time></trkpt><trkpt lat="46.1431144" lon="13.5374525"><ele>376.0</ele><time>2026-05-02T11:00:53.262Z</time></trkpt><trkpt lat="46.1431425" lon="13.5373305"><ele>376.0</ele><time>2026-05-02T11:00:55.261Z</time></trkpt><trkpt lat="46.1432302" lon="13.5374144"><ele>376.0</ele><time>2026-05-02T11:00:57.262Z</time></trkpt><trkpt lat="46.1432857" lon="13.5375738"><ele>376.0</ele><time>2026-05-02T11:00:59.262Z</time></trkpt><trkpt lat="46.1433429" lon="13.5376598"><ele>387.5</ele><time>2026-05-02T11:01:01.261Z</time></trkpt><trkpt lat="46.1433742" lon="13.5375456"><ele>399.0</ele><time>2026-05-02T11:01:03.261Z</time></trkpt><trkpt lat="46.1433573" lon="13.5374557"><ele>410.5</ele><time>2026-05-02T11:01:04.261Z</time></trkpt><trkpt lat="46.1433388" lon="13.5373684"><ele>422.0</ele><time>2026-05-02T11:01:05.262Z</time></trkpt><trkpt lat="46.1433215" lon="13.537258"><ele>433.50000000000006</ele><time>2026-05-02T11:01:06.261Z</time></trkpt><trkpt lat="46.143301" lon="13.5371409"><ele>445.0</ele><time>2026-05-02T11:01:07.262Z</time></trkpt><trkpt lat="46.1432693" lon="13.5370378"><ele>439.25</ele><time>2026-05-02T11:01:08.261Z</time></trkpt><trkpt lat="46.1432024" lon="13.5369471"><ele>433.5</ele><time>2026-05-02T11:01:09.261Z</time></trkpt><trkpt lat="46.1430928" lon="13.5368543"><ele>427.75</ele><time>2026-05-02T11:01:10.262Z</time></trkpt><trkpt lat="46.1429681" lon="13.5367573"><ele>422.0</ele><time>2026-05-02T11:01:11.261Z</time></trkpt><trkpt lat="46.1428465" lon="13.5366586"><ele>422.0</ele><time>2026-05-02T11:01:12.26Z</time></trkpt><trkpt lat="46.1427329" lon="13.5365752"><ele>422.0</ele><time>2026-05-02T11:01:13.261Z</time></trkpt><trkpt lat="46.1426259" lon="13.5364803"><ele>422.0</ele><time>2026-05-02T11:01:14.261Z</time></trkpt><trkpt lat="46.1425422" lon="13.5363865"><ele>422.0</ele><time>2026-05-02T11:01:15.26Z</time></trkpt><trkpt lat="46.1424751" lon="13.5362823"><ele>420.8</ele><time>2026-05-02T11:01:16.26Z</time></trkpt><trkpt lat="46.1424206" lon="13.5361516"><ele>419.6</ele><time>2026-05-02T11:01:17.261Z</time></trkpt><trkpt lat="46.1423716" lon="13.5360123"><ele>418.40000000000003</ele><time>2026-05-02T11:01:18.26Z</time></trkpt><trkpt lat="46.1423192" lon="13.5358648"><ele>417.20000000000005</ele><time>2026-05-02T11:01:19.26Z</time></trkpt><trkpt lat="46.1422676" lon="13.5357256"><ele>416.0</ele><time>2026-05-02T11:01:20.261Z</time></trkpt><trkpt lat="46.1422231" lon="13.5355793"><ele>416.0</ele><time>2026-05-02T11:01:21.26Z</time></trkpt><trkpt lat="46.1422086" lon="13.5354355"><ele>416.0</ele><time>2026-05-02T11:01:22.261Z</time></trkpt><trkpt lat="46.1421976" lon="13.535299"><ele>416.0</ele><time>2026-05-02T11:01:23.26Z</time></trkpt><trkpt lat="46.1421869" lon="13.5351594"><ele>416.0</ele><time>2026-05-02T11:01:24.26Z</time></trkpt><trkpt lat="46.142175" lon="13.5350111"><ele>416.0</ele><time>2026-05-02T11:01:25.26Z</time></trkpt><trkpt lat="46.1421671" lon="13.5348624"><ele>418.20000000000005</ele><time>2026-05-02T11:01:26.26Z</time></trkpt><trkpt lat="46.1421573" lon="13.5347165"><ele>420.40000000000003</ele><time>2026-05-02T11:01:27.261Z</time></trkpt><trkpt lat="46.1421484" lon="13.5345754"><ele>422.6</ele><time>2026-05-02T11:01:28.26Z</time></trkpt><trkpt lat="46.1421385" lon="13.5344305"><ele>424.8</ele><time>2026-05-02T11:01:29.261Z</time></trkpt><trkpt lat="46.1421152" lon="13.5343004"><ele>427.0</ele><time>2026-05-02T11:01:30.26Z</time></trkpt><trkpt lat="46.1420659" lon="13.5341956"><ele>429.33333333333337</ele><time>2026-05-02T11:01:31.261Z</time></trkpt><trkpt lat="46.1419853" lon="13.5341205"><ele>431.6666666666667</ele><time>2026-05-02T11:01:32.261Z</time></trkpt><trkpt lat="46.1418945" lon="13.5340683"><ele>434.0</ele><time>2026-05-02T11:01:33.261Z</time></trkpt><trkpt lat="46.1418131" lon="13.5340206"><ele>436.33333333333337</ele><time>2026-05-02T11:01:34.261Z</time></trkpt><trkpt lat="46.1417515" lon="13.5339769"><ele>438.6666666666667</ele><time>2026-05-02T11:01:35.26Z</time></trkpt><trkpt lat="46.141696" lon="13.5339291"><ele>441.0</ele><time>2026-05-02T11:01:36.261Z</time></trkpt><trkpt lat="46.1416449" lon="13.5338704"><ele>441.0</ele><time>2026-05-02T11:01:37.26Z</time></trkpt><trkpt lat="46.1415888" lon="13.5338102"><ele>441.0</ele><time>2026-05-02T11:01:38.26Z</time></trkpt><trkpt lat="46.1415387" lon="13.533747"><ele>441.0</ele><time>2026-05-02T11:01:39.261Z</time></trkpt><trkpt lat="46.1414961" lon="13.5336791"><ele>441.0</ele><time>2026-05-02T11:01:40.261Z</time></trkpt><trkpt lat="46.1414571" lon="13.533607"><ele>441.0</ele><time>2026-05-02T11:01:41.26Z</time></trkpt><trkpt lat="46.1414206" lon="13.5335264"><ele>441.0</ele><time>2026-05-02T11:01:42.26Z</time></trkpt><trkpt lat="46.1413863" lon="13.5334381"><ele>441.0</ele><time>2026-05-02T11:01:43.26Z</time></trkpt><trkpt lat="46.1413526" lon="13.5333602"><ele>441.0</ele><time>2026-05-02T11:01:44.26Z</time></trkpt><trkpt lat="46.1412992" lon="13.5332238"><ele>441.0</ele><time>2026-05-02T11:01:46.26Z</time></trkpt><trkpt lat="46.1412177" lon="13.533097"><ele>441.0</ele><time>2026-05-02T11:01:48.261Z</time></trkpt><trkpt lat="46.1411593" lon="13.5330401"><ele>441.0</ele><time>2026-05-02T11:01:49.261Z</time></trkpt><trkpt lat="46.1411" lon="13.5329604"><ele>441.0</ele><time>2026-05-02T11:01:50.261Z</time></trkpt><trkpt lat="46.1410392" lon="13.5328911"><ele>441.0</ele><time>2026-05-02T11:01:51.26Z</time></trkpt><trkpt lat="46.1409815" lon="13.5328133"><ele>441.0</ele><time>2026-05-02T11:01:52.26Z</time></trkpt><trkpt lat="46.1409274" lon="13.5327315"><ele>441.0</ele><time>2026-05-02T11:01:53.26Z</time></trkpt><trkpt lat="46.1408818" lon="13.5326525"><ele>441.0</ele><time>2026-05-02T11:01:54.261Z</time></trkpt><trkpt lat="46.1408372" lon="13.5325467"><ele>441.0</ele><time>2026-05-02T11:01:55.26Z</time></trkpt><trkpt lat="46.1407968" lon="13.5324285"><ele>441.0</ele><time>2026-05-02T11:01:56.26Z</time></trkpt><trkpt lat="46.1407564" lon="13.5322872"><ele>441.0</ele><time>2026-05-02T11:01:57.261Z</time></trkpt><trkpt lat="46.1407134" lon="13.5321362"><ele>441.0</ele><time>2026-05-02T11:01:58.26Z</time></trkpt><trkpt lat="46.1406696" lon="13.5319989"><ele>441.0</ele><time>2026-05-02T11:01:59.261Z</time></trkpt><trkpt lat="46.1406361" lon="13.5318814"><ele>441.0</ele><time>2026-05-02T11:02:00.26Z</time></trkpt><trkpt lat="46.1406032" lon="13.53177"><ele>441.0</ele><time>2026-05-02T11:02:01.261Z</time></trkpt><trkpt lat="46.1405803" lon="13.5316605"><ele>441.0</ele><time>2026-05-02T11:02:02.26Z</time></trkpt><trkpt lat="46.14057" lon="13.5315686"><ele>441.0</ele><time>2026-05-02T11:02:03.26Z</time></trkpt><trkpt lat="46.1405177" lon="13.5314282"><ele>441.0</ele><time>2026-05-02T11:02:05.261Z</time></trkpt><trkpt lat="46.140436" lon="13.5313223"><ele>441.0</ele><time>2026-05-02T11:02:07.261Z</time></trkpt><trkpt lat="46.1403862" lon="13.5312407"><ele>441.0</ele><time>2026-05-02T11:02:08.261Z</time></trkpt><trkpt lat="46.1403312" lon="13.5311505"><ele>441.0</ele><time>2026-05-02T11:02:09.26Z</time></trkpt><trkpt lat="46.14027" lon="13.5310743"><ele>441.0</ele><time>2026-05-02T11:02:10.26Z</time></trkpt><trkpt lat="46.1401914" lon="13.5309858"><ele>441.0</ele><time>2026-05-02T11:02:11.261Z</time></trkpt><trkpt lat="46.1401231" lon="13.5309032"><ele>441.0</ele><time>2026-05-02T11:02:12.26Z</time></trkpt><trkpt lat="46.1400638" lon="13.5308195"><ele>441.0</ele><time>2026-05-02T11:02:13.261Z</time></trkpt><trkpt lat="46.1400081" lon="13.5307246"><ele>441.0</ele><time>2026-05-02T11:02:14.26Z</time></trkpt><trkpt lat="46.1399627" lon="13.5306206"><ele>441.0</ele><time>2026-05-02T11:02:15.261Z</time></trkpt><trkpt lat="46.1399279" lon="13.5305104"><ele>446.6666666666667</ele><time>2026-05-02T11:02:16.26Z</time></trkpt><trkpt lat="46.1398919" lon="13.5303845"><ele>452.33333333333337</ele><time>2026-05-02T11:02:17.261Z</time></trkpt><trkpt lat="46.1398717" lon="13.5302725"><ele>458.0</ele><time>2026-05-02T11:02:18.26Z</time></trkpt><trkpt lat="46.1398447" lon="13.5301695"><ele>463.6666666666667</ele><time>2026-05-02T11:02:19.261Z</time></trkpt><trkpt lat="46.1398188" lon="13.5300784"><ele>469.33333333333337</ele><time>2026-05-02T11:02:20.26Z</time></trkpt><trkpt lat="46.1397402" lon="13.5299593"><ele>475.0</ele><time>2026-05-02T11:02:22.26Z</time></trkpt><trkpt lat="46.1396318" lon="13.5299151"><ele>475.00000000000006</ele><time>2026-05-02T11:02:24.261Z</time></trkpt><trkpt lat="46.1395609" lon="13.5299168"><ele>475.0</ele><time>2026-05-02T11:02:25.261Z</time></trkpt><trkpt lat="46.1394766" lon="13.5299212"><ele>475.0</ele><time>2026-05-02T11:02:26.261Z</time></trkpt><trkpt lat="46.1393844" lon="13.5299259"><ele>475.0</ele><time>2026-05-02T11:02:27.261Z</time></trkpt><trkpt lat="46.1393001" lon="13.529936"><ele>475.00000000000006</ele><time>2026-05-02T11:02:28.261Z</time></trkpt><trkpt lat="46.1392322" lon="13.5299332"><ele>475.0</ele><time>2026-05-02T11:02:29.26Z</time></trkpt><trkpt lat="46.1391674" lon="13.5299297"><ele>475.00000000000006</ele><time>2026-05-02T11:02:30.26Z</time></trkpt><trkpt lat="46.1390524" lon="13.5299452"><ele>475.0</ele><time>2026-05-02T11:02:32.261Z</time></trkpt><trkpt lat="46.1389911" lon="13.5299731"><ele>475.0</ele><time>2026-05-02T11:02:33.261Z</time></trkpt><trkpt lat="46.1389261" lon="13.5299956"><ele>475.0</ele><time>2026-05-02T11:02:34.26Z</time></trkpt><trkpt lat="46.1388408" lon="13.5300263"><ele>475.00000000000006</ele><time>2026-05-02T11:02:35.26Z</time></trkpt><trkpt lat="46.1387562" lon="13.5300642"><ele>475.0</ele><time>2026-05-02T11:02:36.26Z</time></trkpt><trkpt lat="46.1386719" lon="13.5301012"><ele>476.1666666666667</ele><time>2026-05-02T11:02:37.26Z</time></trkpt><trkpt lat="46.1385945" lon="13.5301326"><ele>477.33333333333337</ele><time>2026-05-02T11:02:38.261Z</time></trkpt><trkpt lat="46.1385098" lon="13.5301644"><ele>478.5</ele><time>2026-05-02T11:02:39.261Z</time></trkpt><trkpt lat="46.1384299" lon="13.5302017"><ele>479.66666666666663</ele><time>2026-05-02T11:02:40.261Z</time></trkpt><trkpt lat="46.1383464" lon="13.5302342"><ele>480.8333333333333</ele><time>2026-05-02T11:02:41.26Z</time></trkpt><trkpt lat="46.1382593" lon="13.5302675"><ele>482.0</ele><time>2026-05-02T11:02:42.261Z</time></trkpt><trkpt lat="46.1381714" lon="13.5302888"><ele>483.8571428571429</ele><time>2026-05-02T11:02:43.261Z</time></trkpt><trkpt lat="46.1380931" lon="13.5303163"><ele>485.7142857142858</ele><time>2026-05-02T11:02:44.26Z</time></trkpt><trkpt lat="46.1380203" lon="13.5303465"><ele>487.57142857142856</ele><time>2026-05-02T11:02:45.261Z</time></trkpt><trkpt lat="46.1379476" lon="13.5303746"><ele>489.42857142857144</ele><time>2026-05-02T11:02:46.26Z</time></trkpt><trkpt lat="46.1378785" lon="13.5303993"><ele>491.2857142857143</ele><time>2026-05-02T11:02:47.26Z</time></trkpt><trkpt lat="46.1378142" lon="13.5304246"><ele>493.1428571428571</ele><time>2026-05-02T11:02:48.26Z</time></trkpt><trkpt lat="46.1377515" lon="13.5304376"><ele>494.99999999999994</ele><time>2026-05-02T11:02:49.26Z</time></trkpt><trkpt lat="46.1376294" lon="13.5304385"><ele>495.0</ele><time>2026-05-02T11:02:51.261Z</time></trkpt><trkpt lat="46.1375588" lon="13.5304118"><ele>495.0</ele><time>2026-05-02T11:02:52.261Z</time></trkpt><trkpt lat="46.1374707" lon="13.5303648"><ele>495.0</ele><time>2026-05-02T11:02:53.261Z</time></trkpt><trkpt lat="46.1373912" lon="13.5303138"><ele>495.0</ele><time>2026-05-02T11:02:54.261Z</time></trkpt><trkpt lat="46.1373093" lon="13.5302694"><ele>495.0</ele><time>2026-05-02T11:02:55.261Z</time></trkpt><trkpt lat="46.1372316" lon="13.5302216"><ele>495.0</ele><time>2026-05-02T11:02:56.261Z</time></trkpt><trkpt lat="46.1371609" lon="13.5301771"><ele>494.99999999999994</ele><time>2026-05-02T11:02:57.261Z</time></trkpt><trkpt lat="46.1370891" lon="13.5301548"><ele>495.0</ele><time>2026-05-02T11:02:58.261Z</time></trkpt><trkpt lat="46.1370172" lon="13.5301297"><ele>494.99999999999994</ele><time>2026-05-02T11:02:59.261Z</time></trkpt><trkpt lat="46.1369464" lon="13.5301221"><ele>494.99999999999994</ele><time>2026-05-02T11:03:00.261Z</time></trkpt><trkpt lat="46.1368825" lon="13.5301151"><ele>495.0</ele><time>2026-05-02T11:03:01.261Z</time></trkpt><trkpt lat="46.136817" lon="13.5301039"><ele>494.99999999999994</ele><time>2026-05-02T11:03:02.261Z</time></trkpt><trkpt lat="46.1367453" lon="13.5300828"><ele>494.99999999999994</ele><time>2026-05-02T11:03:03.261Z</time></trkpt><trkpt lat="46.1366683" lon="13.530046"><ele>495.0</ele><time>2026-05-02T11:03:04.261Z</time></trkpt><trkpt lat="46.1366027" lon="13.5300096"><ele>495.0</ele><time>2026-05-02T11:03:05.26Z</time></trkpt><trkpt lat="46.136545" lon="13.5299647"><ele>495.0</ele><time>2026-05-02T11:03:06.261Z</time></trkpt><trkpt lat="46.1364422" lon="13.5298534"><ele>495.0</ele><time>2026-05-02T11:03:08.261Z</time></trkpt><trkpt lat="46.1363867" lon="13.5297832"><ele>495.0</ele><time>2026-05-02T11:03:09.26Z</time></trkpt><trkpt lat="46.1363388" lon="13.5297014"><ele>495.0</ele><time>2026-05-02T11:03:10.26Z</time></trkpt><trkpt lat="46.1362941" lon="13.529622"><ele>495.0</ele><time>2026-05-02T11:03:11.261Z</time></trkpt><trkpt lat="46.1362021" lon="13.5294944"><ele>495.0</ele><time>2026-05-02T11:03:13.26Z</time></trkpt><trkpt lat="46.1361593" lon="13.5294231"><ele>495.0</ele><time>2026-05-02T11:03:14.261Z</time></trkpt><trkpt lat="46.1361142" lon="13.5292834"><ele>495.0</ele><time>2026-05-02T11:03:16.26Z</time></trkpt><trkpt lat="46.1360895" lon="13.5291245"><ele>495.0</ele><time>2026-05-02T11:03:18.261Z</time></trkpt><trkpt lat="46.1360842" lon="13.5289566"><ele>485.75</ele><time>2026-05-02T11:03:20.26Z</time></trkpt><trkpt lat="46.1360459" lon="13.5288051"><ele>476.5</ele><time>2026-05-02T11:03:22.26Z</time></trkpt><trkpt lat="46.1359997" lon="13.5286439"><ele>467.25</ele><time>2026-05-02T11:03:24.261Z</time></trkpt><trkpt lat="46.1359585" lon="13.5284733"><ele>458.0</ele><time>2026-05-02T11:03:26.26Z</time></trkpt><trkpt lat="46.1359126" lon="13.5283417"><ele>457.99999999999994</ele><time>2026-05-02T11:03:28.26Z</time></trkpt><trkpt lat="46.1358919" lon="13.5282419"><ele>458.0</ele><time>2026-05-02T11:03:30.26Z</time></trkpt><trkpt lat="46.1358508" lon="13.5281639"><ele>458.0</ele><time>2026-05-02T11:03:31.26Z</time></trkpt><trkpt lat="46.1358086" lon="13.5280919"><ele>458.0</ele><time>2026-05-02T11:03:32.261Z</time></trkpt><trkpt lat="46.1357625" lon="13.5280258"><ele>457.99999999999994</ele><time>2026-05-02T11:03:33.261Z</time></trkpt><trkpt lat="46.1356898" lon="13.5279513"><ele>458.0</ele><time>2026-05-02T11:03:34.26Z</time></trkpt><trkpt lat="46.135585" lon="13.5278356"><ele>451.79999999999995</ele><time>2026-05-02T11:03:36.26Z</time></trkpt><trkpt lat="46.1355316" lon="13.5277653"><ele>445.59999999999997</ele><time>2026-05-02T11:03:37.26Z</time></trkpt><trkpt lat="46.1354456" lon="13.5276285"><ele>439.40000000000003</ele><time>2026-05-02T11:03:39.261Z</time></trkpt><trkpt lat="46.1353346" lon="13.5274953"><ele>433.20000000000005</ele><time>2026-05-02T11:03:41.261Z</time></trkpt><trkpt lat="46.135292" lon="13.5274231"><ele>427.0</ele><time>2026-05-02T11:03:42.26Z</time></trkpt><trkpt lat="46.1352434" lon="13.52734"><ele>427.00000000000006</ele><time>2026-05-02T11:03:43.261Z</time></trkpt><trkpt lat="46.1351957" lon="13.5272646"><ele>427.0</ele><time>2026-05-02T11:03:44.261Z</time></trkpt><trkpt lat="46.1351446" lon="13.527191"><ele>427.0</ele><time>2026-05-02T11:03:45.261Z</time></trkpt><trkpt lat="46.1350702" lon="13.5270718"><ele>427.0</ele><time>2026-05-02T11:03:47.26Z</time></trkpt><trkpt lat="46.1350303" lon="13.5269837"><ele>427.00000000000006</ele><time>2026-05-02T11:03:48.26Z</time></trkpt><trkpt lat="46.13498" lon="13.5269007"><ele>427.0</ele><time>2026-05-02T11:03:49.26Z</time></trkpt><trkpt lat="46.1349275" lon="13.5268326"><ele>428.20000000000005</ele><time>2026-05-02T11:03:50.26Z</time></trkpt><trkpt lat="46.1348653" lon="13.5267828"><ele>429.40000000000003</ele><time>2026-05-02T11:03:51.26Z</time></trkpt><trkpt lat="46.134804" lon="13.5267609"><ele>430.59999999999997</ele><time>2026-05-02T11:03:52.26Z</time></trkpt><trkpt lat="46.1346783" lon="13.5268116"><ele>431.79999999999995</ele><time>2026-05-02T11:03:54.261Z</time></trkpt><trkpt lat="46.1345611" lon="13.5268765"><ele>433.0</ele><time>2026-05-02T11:03:56.261Z</time></trkpt><trkpt lat="46.1344918" lon="13.5269005"><ele>433.00000000000006</ele><time>2026-05-02T11:03:57.261Z</time></trkpt><trkpt lat="46.1344112" lon="13.5269336"><ele>433.0</ele><time>2026-05-02T11:03:58.261Z</time></trkpt><trkpt lat="46.1343314" lon="13.5269613"><ele>433.0</ele><time>2026-05-02T11:03:59.261Z</time></trkpt><trkpt lat="46.1342606" lon="13.5269867"><ele>433.0</ele><time>2026-05-02T11:04:00.26Z</time></trkpt><trkpt lat="46.1341973" lon="13.5270268"><ele>433.00000000000006</ele><time>2026-05-02T11:04:01.26Z</time></trkpt><trkpt lat="46.1341438" lon="13.5270799"><ele>433.0</ele><time>2026-05-02T11:04:02.26Z</time></trkpt><trkpt lat="46.1340513" lon="13.5271307"><ele>431.83333333333337</ele><time>2026-05-02T11:04:04.26Z</time></trkpt><trkpt lat="46.133979" lon="13.5271227"><ele>430.6666666666667</ele><time>2026-05-02T11:04:06.26Z</time></trkpt><trkpt lat="46.1339106" lon="13.5270603"><ele>429.5</ele><time>2026-05-02T11:04:08.26Z</time></trkpt><trkpt lat="46.1338487" lon="13.5269638"><ele>428.33333333333337</ele><time>2026-05-02T11:04:10.261Z</time></trkpt><trkpt lat="46.1337808" lon="13.526825"><ele>427.1666666666667</ele><time>2026-05-02T11:04:12.26Z</time></trkpt><trkpt lat="46.1337337" lon="13.526734"><ele>426.0</ele><time>2026-05-02T11:04:13.261Z</time></trkpt><trkpt lat="46.1336897" lon="13.5266537"><ele>426.0</ele><time>2026-05-02T11:04:14.26Z</time></trkpt><trkpt lat="46.1336474" lon="13.5265553"><ele>426.0</ele><time>2026-05-02T11:04:15.261Z</time></trkpt><trkpt lat="46.1336076" lon="13.5264723"><ele>426.0</ele><time>2026-05-02T11:04:16.261Z</time></trkpt><trkpt lat="46.1335668" lon="13.5263855"><ele>426.0</ele><time>2026-05-02T11:04:17.26Z</time></trkpt><trkpt lat="46.1335187" lon="13.526289"><ele>426.0</ele><time>2026-05-02T11:04:18.261Z</time></trkpt><trkpt lat="46.1334719" lon="13.5261916"><ele>426.0</ele><time>2026-05-02T11:04:19.26Z</time></trkpt><trkpt lat="46.1334224" lon="13.5260943"><ele>425.6</ele><time>2026-05-02T11:04:20.261Z</time></trkpt><trkpt lat="46.1333649" lon="13.5259975"><ele>425.20000000000005</ele><time>2026-05-02T11:04:21.261Z</time></trkpt><trkpt lat="46.1333032" lon="13.5258954"><ele>424.79999999999995</ele><time>2026-05-02T11:04:22.26Z</time></trkpt><trkpt lat="46.1332342" lon="13.5257791"><ele>424.4</ele><time>2026-05-02T11:04:23.26Z</time></trkpt><trkpt lat="46.1331692" lon="13.5256692"><ele>424.0</ele><time>2026-05-02T11:04:24.26Z</time></trkpt><trkpt lat="46.1331097" lon="13.5255766"><ele>421.33333333333337</ele><time>2026-05-02T11:04:25.26Z</time></trkpt><trkpt lat="46.1330479" lon="13.5254889"><ele>418.6666666666667</ele><time>2026-05-02T11:04:26.261Z</time></trkpt><trkpt lat="46.1329813" lon="13.5254056"><ele>416.0</ele><time>2026-05-02T11:04:27.26Z</time></trkpt><trkpt lat="46.1329219" lon="13.5253329"><ele>413.33333333333337</ele><time>2026-05-02T11:04:28.261Z</time></trkpt><trkpt lat="46.1328704" lon="13.5252711"><ele>410.6666666666667</ele><time>2026-05-02T11:04:29.261Z</time></trkpt><trkpt lat="46.1328222" lon="13.5252054"><ele>408.0</ele><time>2026-05-02T11:04:30.26Z</time></trkpt><trkpt lat="46.1327628" lon="13.5250741"><ele>408.0</ele><time>2026-05-02T11:04:32.26Z</time></trkpt><trkpt lat="46.1327306" lon="13.5249005"><ele>408.0</ele><time>2026-05-02T11:04:34.261Z</time></trkpt><trkpt lat="46.1327132" lon="13.5247983"><ele>408.0</ele><time>2026-05-02T11:04:35.26Z</time></trkpt><trkpt lat="46.1326878" lon="13.5246214"><ele>408.0</ele><time>2026-05-02T11:04:37.261Z</time></trkpt><trkpt lat="46.1326845" lon="13.5245198"><ele>408.0</ele><time>2026-05-02T11:04:38.261Z</time></trkpt><trkpt lat="46.1326758" lon="13.5244239"><ele>410.2</ele><time>2026-05-02T11:04:39.26Z</time></trkpt><trkpt lat="46.1326702" lon="13.5243241"><ele>412.4</ele><time>2026-05-02T11:04:40.26Z</time></trkpt><trkpt lat="46.1326576" lon="13.5241761"><ele>414.59999999999997</ele><time>2026-05-02T11:04:42.26Z</time></trkpt><trkpt lat="46.1326526" lon="13.5240689"><ele>416.79999999999995</ele><time>2026-05-02T11:04:43.26Z</time></trkpt><trkpt lat="46.1327008" lon="13.5239241"><ele>419.0</ele><time>2026-05-02T11:04:45.261Z</time></trkpt><trkpt lat="46.1327778" lon="13.5238067"><ele>419.0</ele><time>2026-05-02T11:04:47.261Z</time></trkpt><trkpt lat="46.1328184" lon="13.5237306"><ele>419.0</ele><time>2026-05-02T11:04:50.26Z</time></trkpt><trkpt lat="46.1327646" lon="13.5236531"><ele>419.0</ele><time>2026-05-02T11:05:00.261Z</time></trkpt><trkpt lat="46.1326921" lon="13.5235679"><ele>419.0</ele><time>2026-05-02T11:05:02.261Z</time></trkpt><trkpt lat="46.1326045" lon="13.5233965"><ele>419.0</ele><time>2026-05-02T11:05:04.26Z</time></trkpt><trkpt lat="46.1325567" lon="13.523284"><ele>418.0</ele><time>2026-05-02T11:05:05.26Z</time></trkpt><trkpt lat="46.1325115" lon="13.523155"><ele>417.0</ele><time>2026-05-02T11:05:06.261Z</time></trkpt><trkpt lat="46.1324693" lon="13.5230284"><ele>416.0</ele><time>2026-05-02T11:05:07.261Z</time></trkpt><trkpt lat="46.132419" lon="13.5229052"><ele>415.0</ele><time>2026-05-02T11:05:08.26Z</time></trkpt><trkpt lat="46.1323619" lon="13.5228018"><ele>414.0</ele><time>2026-05-02T11:05:09.261Z</time></trkpt><trkpt lat="46.1323036" lon="13.5226968"><ele>410.8333333333333</ele><time>2026-05-02T11:05:10.261Z</time></trkpt><trkpt lat="46.1322468" lon="13.5225997"><ele>407.66666666666663</ele><time>2026-05-02T11:05:11.261Z</time></trkpt><trkpt lat="46.1321927" lon="13.5224958"><ele>404.5</ele><time>2026-05-02T11:05:12.261Z</time></trkpt><trkpt lat="46.13214" lon="13.5223952"><ele>401.3333333333333</ele><time>2026-05-02T11:05:13.261Z</time></trkpt><trkpt lat="46.1320827" lon="13.5222951"><ele>398.16666666666663</ele><time>2026-05-02T11:05:14.26Z</time></trkpt><trkpt lat="46.1320229" lon="13.5221911"><ele>395.0</ele><time>2026-05-02T11:05:15.26Z</time></trkpt><trkpt lat="46.13197" lon="13.5220806"><ele>393.4</ele><time>2026-05-02T11:05:16.26Z</time></trkpt><trkpt lat="46.1319212" lon="13.521962"><ele>391.8</ele><time>2026-05-02T11:05:17.261Z</time></trkpt><trkpt lat="46.1318817" lon="13.5218353"><ele>390.20000000000005</ele><time>2026-05-02T11:05:18.26Z</time></trkpt><trkpt lat="46.1318471" lon="13.5217113"><ele>388.6</ele><time>2026-05-02T11:05:19.261Z</time></trkpt><trkpt lat="46.1318161" lon="13.5216129"><ele>387.0</ele><time>2026-05-02T11:05:20.261Z</time></trkpt><trkpt lat="46.1317366" lon="13.5215196"><ele>387.0</ele><time>2026-05-02T11:05:22.261Z</time></trkpt><trkpt lat="46.1316661" lon="13.5214831"><ele>387.0</ele><time>2026-05-02T11:05:23.261Z</time></trkpt><trkpt lat="46.1315762" lon="13.5214466"><ele>387.0</ele><time>2026-05-02T11:05:24.261Z</time></trkpt><trkpt lat="46.1314768" lon="13.521408"><ele>387.0</ele><time>2026-05-02T11:05:25.26Z</time></trkpt><trkpt lat="46.131367" lon="13.5213783"><ele>387.0</ele><time>2026-05-02T11:05:26.26Z</time></trkpt><trkpt lat="46.1312428" lon="13.5213648"><ele>386.33333333333337</ele><time>2026-05-02T11:05:27.26Z</time></trkpt><trkpt lat="46.1311009" lon="13.5213813"><ele>385.6666666666667</ele><time>2026-05-02T11:05:28.261Z</time></trkpt><trkpt lat="46.1309489" lon="13.5214133"><ele>385.0</ele><time>2026-05-02T11:05:29.261Z</time></trkpt><trkpt lat="46.1307815" lon="13.5214361"><ele>380.0</ele><time>2026-05-02T11:05:30.261Z</time></trkpt><trkpt lat="46.1306124" lon="13.5214286"><ele>375.0</ele><time>2026-05-02T11:05:31.26Z</time></trkpt><trkpt lat="46.130459" lon="13.5213715"><ele>370.0</ele><time>2026-05-02T11:05:32.261Z</time></trkpt><trkpt lat="46.130326" lon="13.5212997"><ele>370.66666666666663</ele><time>2026-05-02T11:05:33.26Z</time></trkpt><trkpt lat="46.1302083" lon="13.5212285"><ele>371.3333333333333</ele><time>2026-05-02T11:05:34.261Z</time></trkpt><trkpt lat="46.1301188" lon="13.5211719"><ele>372.0</ele><time>2026-05-02T11:05:35.261Z</time></trkpt><trkpt lat="46.1300573" lon="13.5211105"><ele>372.6666666666667</ele><time>2026-05-02T11:05:36.26Z</time></trkpt><trkpt lat="46.1300012" lon="13.5210543"><ele>373.33333333333337</ele><time>2026-05-02T11:05:37.261Z</time></trkpt><trkpt lat="46.1299476" lon="13.5210044"><ele>374.0</ele><time>2026-05-02T11:05:38.26Z</time></trkpt><trkpt lat="46.1298736" lon="13.5209167"><ele>374.0</ele><time>2026-05-02T11:05:40.26Z</time></trkpt><trkpt lat="46.1298844" lon="13.5208035"><ele>374.0</ele><time>2026-05-02T11:05:43.26Z</time></trkpt><trkpt lat="46.1299665" lon="13.520711"><ele>374.0</ele><time>2026-05-02T11:05:46.261Z</time></trkpt><trkpt lat="46.1300433" lon="13.5206265"><ele>374.0</ele><time>2026-05-02T11:05:48.261Z</time></trkpt><trkpt lat="46.1301191" lon="13.520575"><ele>374.0</ele><time>2026-05-02T11:05:50.261Z</time></trkpt><trkpt lat="46.1301855" lon="13.5205442"><ele>374.0</ele><time>2026-05-02T11:05:53.26Z</time></trkpt><trkpt lat="46.1302535" lon="13.5205254"><ele>374.0</ele><time>2026-05-02T11:05:58.26Z</time></trkpt><trkpt lat="46.1303361" lon="13.5205649"><ele>374.0</ele><time>2026-05-02T11:06:08.261Z</time></trkpt><trkpt lat="46.1304103" lon="13.5206114"><ele>374.0</ele><time>2026-05-02T11:06:11.26Z</time></trkpt><trkpt lat="46.1304564" lon="13.5206798"><ele>374.0</ele><time>2026-05-02T11:06:19.26Z</time></trkpt><trkpt lat="46.1305202" lon="13.5206858"><ele>374.0</ele><time>2026-05-02T11:06:25.261Z</time></trkpt><trkpt lat="46.1305782" lon="13.520638"><ele>374.0</ele><time>2026-05-02T11:06:27.261Z</time></trkpt><trkpt lat="46.1306737" lon="13.520548"><ele>373.83333333333337</ele><time>2026-05-02T11:06:29.26Z</time></trkpt><trkpt lat="46.1307543" lon="13.5204551"><ele>373.6666666666667</ele><time>2026-05-02T11:06:31.26Z</time></trkpt><trkpt lat="46.1308371" lon="13.5203977"><ele>373.5</ele><time>2026-05-02T11:06:33.261Z</time></trkpt><trkpt lat="46.1309328" lon="13.5203546"><ele>373.3333333333333</ele><time>2026-05-02T11:06:35.26Z</time></trkpt><trkpt lat="46.1310124" lon="13.5203453"><ele>373.16666666666663</ele><time>2026-05-02T11:06:37.26Z</time></trkpt><trkpt lat="46.1309465" lon="13.5203645"><ele>373.0</ele><time>2026-05-02T11:07:45.26Z</time></trkpt><trkpt lat="46.1308804" lon="13.5203874"><ele>373.2</ele><time>2026-05-02T11:07:51.26Z</time></trkpt><trkpt lat="46.1308135" lon="13.520401"><ele>373.4</ele><time>2026-05-02T11:07:56.26Z</time></trkpt><trkpt lat="46.1307605" lon="13.520461"><ele>373.59999999999997</ele><time>2026-05-02T11:08:01.261Z</time></trkpt><trkpt lat="46.1306941" lon="13.5204324"><ele>373.79999999999995</ele><time>2026-05-02T11:08:08.261Z</time></trkpt><trkpt lat="46.1305966" lon="13.5203304"><ele>374.0</ele><time>2026-05-02T11:08:12.061Z</time></trkpt><trkpt lat="46.13199" lon="13.5215582"><ele>374.0</ele><time>2026-05-02T11:10:20.368Z</time></trkpt><trkpt lat="46.130558" lon="13.5205814"><ele>374.0</ele><time>2026-05-02T11:11:04.257Z</time></trkpt><trkpt lat="46.1304326" lon="13.5204515"><ele>374.0</ele><time>2026-05-02T11:12:59.261Z</time></trkpt><trkpt lat="46.13199" lon="13.5215582"><ele>374.0</ele><time>2026-05-02T11:13:10.668Z</time></trkpt><trkpt lat="46.1304438" lon="13.5205864"><ele>374.0</ele><time>2026-05-02T11:14:54.26Z</time></trkpt></trkseg><trkseg><trkpt lat="46.1377613" lon="13.4585679"><ele>561.0</ele><time>2026-05-02T13:10:22.307Z</time></trkpt><trkpt lat="46.1376987" lon="13.4585581"><ele>561.0</ele><time>2026-05-02T13:10:23.308Z</time></trkpt><trkpt lat="46.1376276" lon="13.4585774"><ele>561.0</ele><time>2026-05-02T13:10:25.308Z</time></trkpt><trkpt lat="46.1375453" lon="13.4585872"><ele>561.0</ele><time>2026-05-02T13:10:27.307Z</time></trkpt><trkpt lat="46.1374425" lon="13.4586017"><ele>561.0</ele><time>2026-05-02T13:10:29.307Z</time></trkpt><trkpt lat="46.1373635" lon="13.4586177"><ele>561.0</ele><time>2026-05-02T13:10:31.307Z</time></trkpt><trkpt lat="46.1372811" lon="13.4586635"><ele>558.0</ele><time>2026-05-02T13:10:33.307Z</time></trkpt><trkpt lat="46.1371682" lon="13.4586849"><ele>555.0</ele><time>2026-05-02T13:10:35.308Z</time></trkpt><trkpt lat="46.1370673" lon="13.4587176"><ele>552.0</ele><time>2026-05-02T13:10:37.307Z</time></trkpt><trkpt lat="46.1369529" lon="13.458733"><ele>549.0</ele><time>2026-05-02T13:10:39.307Z</time></trkpt><trkpt lat="46.1368363" lon="13.4587848"><ele>551.4</ele><time>2026-05-02T13:10:41.307Z</time></trkpt><trkpt lat="46.1367328" lon="13.4588305"><ele>553.8</ele><time>2026-05-02T13:10:43.308Z</time></trkpt><trkpt lat="46.1366355" lon="13.4588689"><ele>556.2</ele><time>2026-05-02T13:10:45.307Z</time></trkpt><trkpt lat="46.136546" lon="13.4589332"><ele>558.6</ele><time>2026-05-02T13:10:47.307Z</time></trkpt><trkpt lat="46.1364244" lon="13.4589969"><ele>561.0</ele><time>2026-05-02T13:10:49.307Z</time></trkpt><trkpt lat="46.1363536" lon="13.4590234"><ele>561.0</ele><time>2026-05-02T13:10:50.307Z</time></trkpt><trkpt lat="46.1362856" lon="13.4590541"><ele>561.0</ele><time>2026-05-02T13:10:51.308Z</time></trkpt><trkpt lat="46.1361787" lon="13.4590679"><ele>561.0</ele><time>2026-05-02T13:10:53.307Z</time></trkpt><trkpt lat="46.136077" lon="13.459031"><ele>561.0</ele><time>2026-05-02T13:10:55.308Z</time></trkpt><trkpt lat="46.1360171" lon="13.4589955"><ele>561.0</ele><time>2026-05-02T13:10:57.307Z</time></trkpt><trkpt lat="46.1359534" lon="13.458943"><ele>561.0</ele><time>2026-05-02T13:11:00.307Z</time></trkpt><trkpt lat="46.1358816" lon="13.4588927"><ele>561.0</ele><time>2026-05-02T13:11:21.308Z</time></trkpt><trkpt lat="46.1358255" lon="13.4587914"><ele>561.0</ele><time>2026-05-02T13:14:47.308Z</time></trkpt><trkpt lat="46.1357998" lon="13.4586956"><ele>561.0</ele><time>2026-05-02T13:14:49.308Z</time></trkpt><trkpt lat="46.1358259" lon="13.4585922"><ele>561.0</ele><time>2026-05-02T13:14:51.307Z</time></trkpt><trkpt lat="46.1358766" lon="13.4584281"><ele>561.0</ele><time>2026-05-02T13:14:53.308Z</time></trkpt><trkpt lat="46.135897" lon="13.4583237"><ele>561.0</ele><time>2026-05-02T13:14:54.307Z</time></trkpt><trkpt lat="46.1359152" lon="13.4582234"><ele>561.0</ele><time>2026-05-02T13:14:55.307Z</time></trkpt><trkpt lat="46.1359243" lon="13.458126"><ele>561.0</ele><time>2026-05-02T13:14:56.308Z</time></trkpt><trkpt lat="46.1359301" lon="13.4579421"><ele>561.0</ele><time>2026-05-02T13:14:58.307Z</time></trkpt><trkpt lat="46.1359396" lon="13.4577537"><ele>561.0</ele><time>2026-05-02T13:15:00.307Z</time></trkpt><trkpt lat="46.1359419" lon="13.4576614"><ele>561.0</ele><time>2026-05-02T13:15:01.308Z</time></trkpt><trkpt lat="46.1359473" lon="13.4575692"><ele>561.0</ele><time>2026-05-02T13:15:02.307Z</time></trkpt><trkpt lat="46.1359571" lon="13.457403"><ele>561.0</ele><time>2026-05-02T13:15:04.308Z</time></trkpt><trkpt lat="46.1359575" lon="13.457309"><ele>561.0</ele><time>2026-05-02T13:15:05.307Z</time></trkpt><trkpt lat="46.1359629" lon="13.4572134"><ele>561.0</ele><time>2026-05-02T13:15:06.308Z</time></trkpt><trkpt lat="46.1359796" lon="13.4570514"><ele>561.0</ele><time>2026-05-02T13:15:08.308Z</time></trkpt><trkpt lat="46.135992" lon="13.4568986"><ele>560.0</ele><time>2026-05-02T13:15:10.307Z</time></trkpt><trkpt lat="46.136002" lon="13.4567644"><ele>559.0</ele><time>2026-05-02T13:15:12.307Z</time></trkpt><trkpt lat="46.1360091" lon="13.4565973"><ele>558.0</ele><time>2026-05-02T13:15:14.307Z</time></trkpt><trkpt lat="46.1360267" lon="13.4564243"><ele>557.0</ele><time>2026-05-02T13:15:16.307Z</time></trkpt><trkpt lat="46.1360637" lon="13.4562709"><ele>556.0</ele><time>2026-05-02T13:15:18.308Z</time></trkpt><trkpt lat="46.1360873" lon="13.4560888"><ele>554.8</ele><time>2026-05-02T13:15:20.308Z</time></trkpt><trkpt lat="46.1361106" lon="13.4559455"><ele>553.6</ele><time>2026-05-02T13:15:22.307Z</time></trkpt><trkpt lat="46.1361276" lon="13.4558005"><ele>552.4</ele><time>2026-05-02T13:15:24.308Z</time></trkpt><trkpt lat="46.1361241" lon="13.4556638"><ele>551.2</ele><time>2026-05-02T13:15:26.307Z</time></trkpt><trkpt lat="46.1360911" lon="13.4555268"><ele>550.0</ele><time>2026-05-02T13:15:28.308Z</time></trkpt><trkpt lat="46.1360601" lon="13.4554427"><ele>548.4</ele><time>2026-05-02T13:15:29.307Z</time></trkpt><trkpt lat="46.1360094" lon="13.4553673"><ele>546.8</ele><time>2026-05-02T13:15:30.308Z</time></trkpt><trkpt lat="46.1359135" lon="13.4552596"><ele>545.2</ele><time>2026-05-02T13:15:32.307Z</time></trkpt><trkpt lat="46.1358344" lon="13.4551268"><ele>543.6</ele><time>2026-05-02T13:15:34.308Z</time></trkpt><trkpt lat="46.1357927" lon="13.4550529"><ele>542.0</ele><time>2026-05-02T13:15:35.308Z</time></trkpt><trkpt lat="46.1357146" lon="13.4549269"><ele>542.0</ele><time>2026-05-02T13:15:37.307Z</time></trkpt><trkpt lat="46.135637" lon="13.4548077"><ele>542.0</ele><time>2026-05-02T13:15:39.308Z</time></trkpt><trkpt lat="46.1355624" lon="13.4546827"><ele>542.0</ele><time>2026-05-02T13:15:41.307Z</time></trkpt><trkpt lat="46.1355018" lon="13.4545497"><ele>542.0</ele><time>2026-05-02T13:15:43.308Z</time></trkpt><trkpt lat="46.1354466" lon="13.454432"><ele>542.0</ele><time>2026-05-02T13:15:45.307Z</time></trkpt><trkpt lat="46.1353886" lon="13.4543348"><ele>538.8333333333333</ele><time>2026-05-02T13:15:47.307Z</time></trkpt><trkpt lat="46.1353048" lon="13.4542727"><ele>535.6666666666666</ele><time>2026-05-02T13:15:49.307Z</time></trkpt><trkpt lat="46.1352394" lon="13.4542448"><ele>532.5</ele><time>2026-05-02T13:15:50.307Z</time></trkpt><trkpt lat="46.1351762" lon="13.454241"><ele>529.3333333333334</ele><time>2026-05-02T13:15:51.307Z</time></trkpt><trkpt lat="46.1351111" lon="13.4542386"><ele>526.1666666666667</ele><time>2026-05-02T13:15:52.307Z</time></trkpt><trkpt lat="46.1350413" lon="13.454245"><ele>523.0</ele><time>2026-05-02T13:15:53.307Z</time></trkpt><trkpt lat="46.1349379" lon="13.4542604"><ele>522.9999999999999</ele><time>2026-05-02T13:15:55.307Z</time></trkpt><trkpt lat="46.1348767" lon="13.454238"><ele>523.0</ele><time>2026-05-02T13:15:57.307Z</time></trkpt><trkpt lat="46.1348379" lon="13.4541457"><ele>523.0</ele><time>2026-05-02T13:16:07.307Z</time></trkpt><trkpt lat="46.1348312" lon="13.4540516"><ele>523.0</ele><time>2026-05-02T13:16:09.307Z</time></trkpt><trkpt lat="46.1348591" lon="13.4539359"><ele>523.0</ele><time>2026-05-02T13:16:10.307Z</time></trkpt><trkpt lat="46.1348944" lon="13.4538525"><ele>522.9999999999999</ele><time>2026-05-02T13:16:11.307Z</time></trkpt><trkpt lat="46.1349319" lon="13.4537774"><ele>523.0</ele><time>2026-05-02T13:16:12.307Z</time></trkpt><trkpt lat="46.1350043" lon="13.4536425"><ele>520.6</ele><time>2026-05-02T13:16:14.307Z</time></trkpt><trkpt lat="46.1350688" lon="13.4534993"><ele>518.1999999999999</ele><time>2026-05-02T13:16:16.307Z</time></trkpt><trkpt lat="46.1351347" lon="13.4533516"><ele>515.8</ele><time>2026-05-02T13:16:18.308Z</time></trkpt><trkpt lat="46.1351987" lon="13.4532107"><ele>513.4</ele><time>2026-05-02T13:16:20.307Z</time></trkpt><trkpt lat="46.135236" lon="13.4531173"><ele>511.0</ele><time>2026-05-02T13:16:21.308Z</time></trkpt><trkpt lat="46.1352623" lon="13.4530337"><ele>509.75</ele><time>2026-05-02T13:16:22.307Z</time></trkpt><trkpt lat="46.1352907" lon="13.4528502"><ele>508.5</ele><time>2026-05-02T13:16:24.308Z</time></trkpt><trkpt lat="46.135299" lon="13.4526704"><ele>507.25</ele><time>2026-05-02T13:16:26.307Z</time></trkpt><trkpt lat="46.1352777" lon="13.4525014"><ele>506.0</ele><time>2026-05-02T13:16:28.308Z</time></trkpt><trkpt lat="46.1352351" lon="13.4523606"><ele>506.0</ele><time>2026-05-02T13:16:30.308Z</time></trkpt><trkpt lat="46.1351559" lon="13.4522811"><ele>506.0</ele><time>2026-05-02T13:16:32.307Z</time></trkpt><trkpt lat="46.1350582" lon="13.4522421"><ele>506.0</ele><time>2026-05-02T13:16:34.308Z</time></trkpt><trkpt lat="46.1349956" lon="13.4522523"><ele>506.0</ele><time>2026-05-02T13:16:36.307Z</time></trkpt><trkpt lat="46.1350549" lon="13.4521427"><ele>506.0</ele><time>2026-05-02T13:16:42.308Z</time></trkpt><trkpt lat="46.1351424" lon="13.4520597"><ele>506.0</ele><time>2026-05-02T13:16:44.307Z</time></trkpt><trkpt lat="46.1352214" lon="13.452007"><ele>506.0</ele><time>2026-05-02T13:16:46.308Z</time></trkpt><trkpt lat="46.1353044" lon="13.4519952"><ele>506.0</ele><time>2026-05-02T13:16:48.307Z</time></trkpt><trkpt lat="46.1353622" lon="13.4520405"><ele>506.0</ele><time>2026-05-02T13:16:50.307Z</time></trkpt><trkpt lat="46.1354436" lon="13.4521788"><ele>506.0</ele><time>2026-05-02T13:16:52.308Z</time></trkpt><trkpt lat="46.1354873" lon="13.4522884"><ele>506.00000000000006</ele><time>2026-05-02T13:16:53.307Z</time></trkpt><trkpt lat="46.1355217" lon="13.4523964"><ele>506.0</ele><time>2026-05-02T13:16:54.308Z</time></trkpt><trkpt lat="46.1355563" lon="13.4524957"><ele>506.00000000000006</ele><time>2026-05-02T13:16:55.307Z</time></trkpt><trkpt lat="46.1355839" lon="13.452594"><ele>506.00000000000006</ele><time>2026-05-02T13:16:56.308Z</time></trkpt><trkpt lat="46.13561" lon="13.4526795"><ele>506.0</ele><time>2026-05-02T13:16:57.308Z</time></trkpt><trkpt lat="46.1356356" lon="13.4527705"><ele>506.00000000000006</ele><time>2026-05-02T13:16:58.308Z</time></trkpt><trkpt lat="46.1356525" lon="13.4528596"><ele>506.00000000000006</ele><time>2026-05-02T13:16:59.307Z</time></trkpt><trkpt lat="46.1356628" lon="13.4529573"><ele>507.0</ele><time>2026-05-02T13:17:00.308Z</time></trkpt><trkpt lat="46.1356504" lon="13.4531284"><ele>508.0</ele><time>2026-05-02T13:17:02.307Z</time></trkpt><trkpt lat="46.1356204" lon="13.4532821"><ele>509.0</ele><time>2026-05-02T13:17:04.307Z</time></trkpt><trkpt lat="46.1355883" lon="13.4533857"><ele>510.0</ele><time>2026-05-02T13:17:06.307Z</time></trkpt><trkpt lat="46.1356558" lon="13.4534758"><ele>511.0</ele><time>2026-05-02T13:17:09.308Z</time></trkpt><trkpt lat="46.1357291" lon="13.453525"><ele>509.8</ele><time>2026-05-02T13:17:11.307Z</time></trkpt><trkpt lat="46.1358037" lon="13.4535606"><ele>508.6</ele><time>2026-05-02T13:17:13.308Z</time></trkpt><trkpt lat="46.1358832" lon="13.4536152"><ele>507.4</ele><time>2026-05-02T13:17:15.307Z</time></trkpt><trkpt lat="46.1359571" lon="13.4536785"><ele>506.2</ele><time>2026-05-02T13:17:17.307Z</time></trkpt><trkpt lat="46.1360619" lon="13.4537808"><ele>505.0</ele><time>2026-05-02T13:17:19.308Z</time></trkpt><trkpt lat="46.1361353" lon="13.4538414"><ele>505.0</ele><time>2026-05-02T13:17:20.308Z</time></trkpt><trkpt lat="46.1361902" lon="13.4538986"><ele>505.0</ele><time>2026-05-02T13:17:21.308Z</time></trkpt><trkpt lat="46.136284" lon="13.4539613"><ele>505.0</ele><time>2026-05-02T13:17:23.308Z</time></trkpt><trkpt lat="46.1363501" lon="13.4539506"><ele>505.0</ele><time>2026-05-02T13:17:24.307Z</time></trkpt><trkpt lat="46.1364767" lon="13.4538896"><ele>505.0</ele><time>2026-05-02T13:17:26.308Z</time></trkpt><trkpt lat="46.136552" lon="13.4538522"><ele>502.00000000000006</ele><time>2026-05-02T13:17:27.307Z</time></trkpt><trkpt lat="46.1366657" lon="13.4538428"><ele>499.0</ele><time>2026-05-02T13:17:29.308Z</time></trkpt><trkpt lat="46.1367237" lon="13.4538814"><ele>496.0</ele><time>2026-05-02T13:17:30.307Z</time></trkpt><trkpt lat="46.136787" lon="13.4539401"><ele>493.0</ele><time>2026-05-02T13:17:31.307Z</time></trkpt><trkpt lat="46.1368363" lon="13.4540284"><ele>490.00000000000006</ele><time>2026-05-02T13:17:32.308Z</time></trkpt><trkpt lat="46.1368956" lon="13.4541098"><ele>487.0</ele><time>2026-05-02T13:17:33.308Z</time></trkpt><trkpt lat="46.1369544" lon="13.4541913"><ele>487.00000000000006</ele><time>2026-05-02T13:17:34.307Z</time></trkpt><trkpt lat="46.1370056" lon="13.454268"><ele>487.0</ele><time>2026-05-02T13:17:35.307Z</time></trkpt><trkpt lat="46.1370646" lon="13.4543422"><ele>487.0</ele><time>2026-05-02T13:17:36.308Z</time></trkpt><trkpt lat="46.1371152" lon="13.454415"><ele>487.0</ele><time>2026-05-02T13:17:37.308Z</time></trkpt><trkpt lat="46.137164" lon="13.4544789"><ele>487.00000000000006</ele><time>2026-05-02T13:17:38.308Z</time></trkpt><trkpt lat="46.1372544" lon="13.4545952"><ele>487.0</ele><time>2026-05-02T13:17:40.307Z</time></trkpt><trkpt lat="46.1373476" lon="13.454715"><ele>482.6</ele><time>2026-05-02T13:17:42.307Z</time></trkpt><trkpt lat="46.1374129" lon="13.4548726"><ele>478.20000000000005</ele><time>2026-05-02T13:17:44.307Z</time></trkpt><trkpt lat="46.1374317" lon="13.4549695"><ele>473.8</ele><time>2026-05-02T13:17:45.307Z</time></trkpt><trkpt lat="46.1374441" lon="13.4550688"><ele>469.4</ele><time>2026-05-02T13:17:46.308Z</time></trkpt><trkpt lat="46.1374461" lon="13.4551806"><ele>465.0</ele><time>2026-05-02T13:17:47.308Z</time></trkpt><trkpt lat="46.1374485" lon="13.4553459"><ele>465.0</ele><time>2026-05-02T13:17:49.308Z</time></trkpt><trkpt lat="46.1374583" lon="13.4554658"><ele>465.0</ele><time>2026-05-02T13:17:51.307Z</time></trkpt><trkpt lat="46.1374829" lon="13.4555878"><ele>465.0</ele><time>2026-05-02T13:17:53.307Z</time></trkpt><trkpt lat="46.1375554" lon="13.4556521"><ele>465.0</ele><time>2026-05-02T13:17:56.308Z</time></trkpt><trkpt lat="46.1376522" lon="13.4555521"><ele>465.0</ele><time>2026-05-02T13:17:58.308Z</time></trkpt><trkpt lat="46.137731" lon="13.4554083"><ele>465.0</ele><time>2026-05-02T13:18:00.308Z</time></trkpt><trkpt lat="46.1377834" lon="13.455332"><ele>465.0</ele><time>2026-05-02T13:18:01.307Z</time></trkpt><trkpt lat="46.1378263" lon="13.4552514"><ele>465.0</ele><time>2026-05-02T13:18:02.307Z</time></trkpt><trkpt lat="46.1378757" lon="13.4551724"><ele>465.0</ele><time>2026-05-02T13:18:03.307Z</time></trkpt><trkpt lat="46.137922" lon="13.4550875"><ele>465.0</ele><time>2026-05-02T13:18:04.308Z</time></trkpt><trkpt lat="46.1379612" lon="13.4550056"><ele>465.0</ele><time>2026-05-02T13:18:05.307Z</time></trkpt><trkpt lat="46.1380025" lon="13.4549315"><ele>465.0</ele><time>2026-05-02T13:18:06.307Z</time></trkpt><trkpt lat="46.1380921" lon="13.4547977"><ele>465.0</ele><time>2026-05-02T13:18:08.307Z</time></trkpt><trkpt lat="46.1381504" lon="13.4547347"><ele>465.0</ele><time>2026-05-02T13:18:09.308Z</time></trkpt><trkpt lat="46.1382179" lon="13.4546727"><ele>465.0</ele><time>2026-05-02T13:18:10.308Z</time></trkpt><trkpt lat="46.1382842" lon="13.4546268"><ele>465.0</ele><time>2026-05-02T13:18:11.308Z</time></trkpt><trkpt lat="46.1383448" lon="13.4545828"><ele>465.0</ele><time>2026-05-02T13:18:12.307Z</time></trkpt><trkpt lat="46.1384547" lon="13.45452"><ele>465.0</ele><time>2026-05-02T13:18:14.308Z</time></trkpt><trkpt lat="46.1385264" lon="13.4545024"><ele>461.4285714285714</ele><time>2026-05-02T13:18:15.307Z</time></trkpt><trkpt lat="46.1386085" lon="13.4544888"><ele>457.8571428571429</ele><time>2026-05-02T13:18:16.308Z</time></trkpt><trkpt lat="46.1386852" lon="13.4544544"><ele>454.2857142857143</ele><time>2026-05-02T13:18:17.307Z</time></trkpt><trkpt lat="46.1387515" lon="13.4544219"><ele>450.71428571428567</ele><time>2026-05-02T13:18:18.308Z</time></trkpt><trkpt lat="46.1388143" lon="13.4543893"><ele>447.1428571428571</ele><time>2026-05-02T13:18:19.307Z</time></trkpt><trkpt lat="46.1388774" lon="13.4543542"><ele>443.57142857142856</ele><time>2026-05-02T13:18:20.307Z</time></trkpt><trkpt lat="46.1389364" lon="13.4542938"><ele>440.0</ele><time>2026-05-02T13:18:21.307Z</time></trkpt><trkpt lat="46.1390319" lon="13.4541887"><ele>441.16666666666663</ele><time>2026-05-02T13:18:23.308Z</time></trkpt><trkpt lat="46.1391294" lon="13.4540763"><ele>442.3333333333333</ele><time>2026-05-02T13:18:25.308Z</time></trkpt><trkpt lat="46.1391874" lon="13.4540281"><ele>443.5</ele><time>2026-05-02T13:18:26.307Z</time></trkpt><trkpt lat="46.1392508" lon="13.453954"><ele>444.66666666666663</ele><time>2026-05-02T13:18:27.307Z</time></trkpt><trkpt lat="46.1393165" lon="13.4538952"><ele>445.8333333333333</ele><time>2026-05-02T13:18:28.307Z</time></trkpt><trkpt lat="46.1393828" lon="13.4538396"><ele>447.0</ele><time>2026-05-02T13:18:29.307Z</time></trkpt><trkpt lat="46.1394589" lon="13.4537887"><ele>444.57142857142856</ele><time>2026-05-02T13:18:30.307Z</time></trkpt><trkpt lat="46.1395204" lon="13.4537567"><ele>442.1428571428571</ele><time>2026-05-02T13:18:31.307Z</time></trkpt><trkpt lat="46.1395855" lon="13.4537234"><ele>439.71428571428567</ele><time>2026-05-02T13:18:32.308Z</time></trkpt><trkpt lat="46.1396525" lon="13.4537071"><ele>437.2857142857143</ele><time>2026-05-02T13:18:33.307Z</time></trkpt><trkpt lat="46.1397154" lon="13.4536971"><ele>434.8571428571429</ele><time>2026-05-02T13:18:34.307Z</time></trkpt><trkpt lat="46.1397818" lon="13.45368"><ele>432.4285714285714</ele><time>2026-05-02T13:18:35.308Z</time></trkpt><trkpt lat="46.1398506" lon="13.4536666"><ele>430.0</ele><time>2026-05-02T13:18:36.307Z</time></trkpt><trkpt lat="46.139918" lon="13.4536572"><ele>430.00000000000006</ele><time>2026-05-02T13:18:37.308Z</time></trkpt><trkpt lat="46.1399849" lon="13.4536479"><ele>430.0</ele><time>2026-05-02T13:18:38.307Z</time></trkpt><trkpt lat="46.140057" lon="13.4536484"><ele>430.0</ele><time>2026-05-02T13:18:39.308Z</time></trkpt><trkpt lat="46.1401217" lon="13.4536453"><ele>430.0</ele><time>2026-05-02T13:18:40.308Z</time></trkpt><trkpt lat="46.1401856" lon="13.45366"><ele>430.00000000000006</ele><time>2026-05-02T13:18:41.308Z</time></trkpt><trkpt lat="46.140299" lon="13.4536688"><ele>430.0</ele><time>2026-05-02T13:18:43.308Z</time></trkpt><trkpt lat="46.1403879" lon="13.4536333"><ele>430.0</ele><time>2026-05-02T13:18:45.308Z</time></trkpt><trkpt lat="46.1404547" lon="13.4535862"><ele>430.0</ele><time>2026-05-02T13:18:47.308Z</time></trkpt><trkpt lat="46.1405464" lon="13.4535177"><ele>430.0</ele><time>2026-05-02T13:18:49.307Z</time></trkpt><trkpt lat="46.1406522" lon="13.4534237"><ele>430.0</ele><time>2026-05-02T13:18:51.308Z</time></trkpt><trkpt lat="46.1407197" lon="13.4533762"><ele>430.0</ele><time>2026-05-02T13:18:52.307Z</time></trkpt><trkpt lat="46.1407915" lon="13.4533129"><ele>429.6666666666667</ele><time>2026-05-02T13:18:53.308Z</time></trkpt><trkpt lat="46.1408637" lon="13.4532294"><ele>429.33333333333337</ele><time>2026-05-02T13:18:54.307Z</time></trkpt><trkpt lat="46.1409079" lon="13.4531441"><ele>429.0</ele><time>2026-05-02T13:18:55.307Z</time></trkpt><trkpt lat="46.1409484" lon="13.453044"><ele>428.66666666666663</ele><time>2026-05-02T13:18:56.308Z</time></trkpt><trkpt lat="46.1409868" lon="13.4529317"><ele>428.3333333333333</ele><time>2026-05-02T13:18:57.307Z</time></trkpt><trkpt lat="46.1410332" lon="13.4528367"><ele>428.0</ele><time>2026-05-02T13:18:58.308Z</time></trkpt><trkpt lat="46.1410811" lon="13.4527436"><ele>427.99999999999994</ele><time>2026-05-02T13:18:59.307Z</time></trkpt><trkpt lat="46.1411199" lon="13.4526563"><ele>428.0</ele><time>2026-05-02T13:19:00.307Z</time></trkpt><trkpt lat="46.1411533" lon="13.4525722"><ele>428.0</ele><time>2026-05-02T13:19:01.307Z</time></trkpt><trkpt lat="46.1411896" lon="13.4524936"><ele>428.0</ele><time>2026-05-02T13:19:02.307Z</time></trkpt><trkpt lat="46.1412583" lon="13.4523603"><ele>427.99999999999994</ele><time>2026-05-02T13:19:04.308Z</time></trkpt><trkpt lat="46.1413301" lon="13.4522496"><ele>428.0</ele><time>2026-05-02T13:19:06.307Z</time></trkpt><trkpt lat="46.1413714" lon="13.4521742"><ele>428.0</ele><time>2026-05-02T13:19:07.307Z</time></trkpt><trkpt lat="46.1414526" lon="13.4520513"><ele>427.99999999999994</ele><time>2026-05-02T13:19:09.308Z</time></trkpt><trkpt lat="46.1415423" lon="13.4519348"><ele>427.99999999999994</ele><time>2026-05-02T13:19:11.307Z</time></trkpt><trkpt lat="46.1416468" lon="13.4518778"><ele>428.0</ele><time>2026-05-02T13:19:13.308Z</time></trkpt><trkpt lat="46.1417451" lon="13.4518726"><ele>428.0</ele><time>2026-05-02T13:19:15.308Z</time></trkpt><trkpt lat="46.141867" lon="13.4518085"><ele>427.99999999999994</ele><time>2026-05-02T13:19:17.308Z</time></trkpt><trkpt lat="46.1419209" lon="13.4517612"><ele>428.0</ele><time>2026-05-02T13:19:18.307Z</time></trkpt><trkpt lat="46.1419683" lon="13.4516894"><ele>428.0</ele><time>2026-05-02T13:19:19.307Z</time></trkpt><trkpt lat="46.1420466" lon="13.451559"><ele>428.0</ele><time>2026-05-02T13:19:21.308Z</time></trkpt><trkpt lat="46.1421628" lon="13.4514972"><ele>427.99999999999994</ele><time>2026-05-02T13:19:23.308Z</time></trkpt><trkpt lat="46.1422296" lon="13.4515045"><ele>428.0</ele><time>2026-05-02T13:19:24.308Z</time></trkpt><trkpt lat="46.1423415" lon="13.4514597"><ele>426.4</ele><time>2026-05-02T13:19:26.307Z</time></trkpt><trkpt lat="46.1424381" lon="13.4513299"><ele>424.79999999999995</ele><time>2026-05-02T13:19:28.308Z</time></trkpt><trkpt lat="46.1424906" lon="13.4512521"><ele>423.2</ele><time>2026-05-02T13:19:29.308Z</time></trkpt><trkpt lat="46.1425392" lon="13.4511629"><ele>421.6</ele><time>2026-05-02T13:19:30.308Z</time></trkpt><trkpt lat="46.14259" lon="13.4510633"><ele>420.0</ele><time>2026-05-02T13:19:31.308Z</time></trkpt><trkpt lat="46.1426353" lon="13.4509691"><ele>420.0</ele><time>2026-05-02T13:19:32.307Z</time></trkpt><trkpt lat="46.1426653" lon="13.4508737"><ele>420.0</ele><time>2026-05-02T13:19:33.307Z</time></trkpt><trkpt lat="46.1426993" lon="13.4507722"><ele>420.0</ele><time>2026-05-02T13:19:34.307Z</time></trkpt><trkpt lat="46.1427271" lon="13.4506821"><ele>420.0</ele><time>2026-05-02T13:19:35.308Z</time></trkpt><trkpt lat="46.1427544" lon="13.4505637"><ele>420.0</ele><time>2026-05-02T13:19:36.307Z</time></trkpt><trkpt lat="46.1427849" lon="13.4504758"><ele>420.0</ele><time>2026-05-02T13:19:37.308Z</time></trkpt><trkpt lat="46.1428392" lon="13.4503093"><ele>417.1666666666667</ele><time>2026-05-02T13:19:39.307Z</time></trkpt><trkpt lat="46.1428641" lon="13.4502135"><ele>414.33333333333337</ele><time>2026-05-02T13:19:40.308Z</time></trkpt><trkpt lat="46.1428995" lon="13.4500394"><ele>411.5</ele><time>2026-05-02T13:19:42.307Z</time></trkpt><trkpt lat="46.1429398" lon="13.4499426"><ele>408.6666666666667</ele><time>2026-05-02T13:19:43.307Z</time></trkpt><trkpt lat="46.1429844" lon="13.4498628"><ele>405.83333333333337</ele><time>2026-05-02T13:19:44.308Z</time></trkpt><trkpt lat="46.1430318" lon="13.4498015"><ele>403.0</ele><time>2026-05-02T13:19:45.307Z</time></trkpt><trkpt lat="46.1430658" lon="13.4497016"><ele>403.0</ele><time>2026-05-02T13:19:47.308Z</time></trkpt><trkpt lat="46.1429942" lon="13.4496458"><ele>403.0</ele><time>2026-05-02T13:19:49.307Z</time></trkpt><trkpt lat="46.1429134" lon="13.4496724"><ele>403.0</ele><time>2026-05-02T13:19:51.308Z</time></trkpt><trkpt lat="46.1428619" lon="13.4497292"><ele>403.0</ele><time>2026-05-02T13:19:52.308Z</time></trkpt><trkpt lat="46.1427768" lon="13.4498553"><ele>403.0</ele><time>2026-05-02T13:19:54.308Z</time></trkpt><trkpt lat="46.1426951" lon="13.449983"><ele>403.00000000000006</ele><time>2026-05-02T13:19:56.308Z</time></trkpt><trkpt lat="46.1426448" lon="13.4500531"><ele>403.0</ele><time>2026-05-02T13:19:57.307Z</time></trkpt><trkpt lat="46.1425964" lon="13.4501219"><ele>403.0</ele><time>2026-05-02T13:19:58.308Z</time></trkpt><trkpt lat="46.142555" lon="13.4502074"><ele>403.0</ele><time>2026-05-02T13:19:59.308Z</time></trkpt><trkpt lat="46.1425181" lon="13.4502953"><ele>403.00000000000006</ele><time>2026-05-02T13:20:00.308Z</time></trkpt><trkpt lat="46.1424599" lon="13.4504235"><ele>403.0</ele><time>2026-05-02T13:20:02.308Z</time></trkpt><trkpt lat="46.1423724" lon="13.4504846"><ele>403.0</ele><time>2026-05-02T13:20:04.308Z</time></trkpt><trkpt lat="46.1423626" lon="13.4503334"><ele>403.0</ele><time>2026-05-02T13:20:06.307Z</time></trkpt><trkpt lat="46.1423793" lon="13.4502435"><ele>403.0</ele><time>2026-05-02T13:20:07.307Z</time></trkpt><trkpt lat="46.1424442" lon="13.45009"><ele>403.0</ele><time>2026-05-02T13:20:09.307Z</time></trkpt><trkpt lat="46.1424781" lon="13.4499893"><ele>403.0</ele><time>2026-05-02T13:20:10.308Z</time></trkpt><trkpt lat="46.1425081" lon="13.4498746"><ele>403.00000000000006</ele><time>2026-05-02T13:20:11.308Z</time></trkpt><trkpt lat="46.1425342" lon="13.4497746"><ele>403.0</ele><time>2026-05-02T13:20:12.307Z</time></trkpt><trkpt lat="46.1425575" lon="13.4496685"><ele>403.0</ele><time>2026-05-02T13:20:13.307Z</time></trkpt><trkpt lat="46.1425778" lon="13.4495615"><ele>403.0</ele><time>2026-05-02T13:20:14.308Z</time></trkpt><trkpt lat="46.1425909" lon="13.4494554"><ele>403.00000000000006</ele><time>2026-05-02T13:20:15.307Z</time></trkpt><trkpt lat="46.1426104" lon="13.4493575"><ele>403.0</ele><time>2026-05-02T13:20:16.308Z</time></trkpt><trkpt lat="46.1426521" lon="13.4491909"><ele>399.79999999999995</ele><time>2026-05-02T13:20:18.308Z</time></trkpt><trkpt lat="46.1427076" lon="13.4490186"><ele>396.6</ele><time>2026-05-02T13:20:20.308Z</time></trkpt><trkpt lat="46.1427421" lon="13.448937"><ele>393.4</ele><time>2026-05-02T13:20:21.307Z</time></trkpt><trkpt lat="46.1428097" lon="13.4488084"><ele>390.20000000000005</ele><time>2026-05-02T13:20:23.308Z</time></trkpt><trkpt lat="46.1428663" lon="13.4487545"><ele>387.0</ele><time>2026-05-02T13:20:24.308Z</time></trkpt><trkpt lat="46.142939" lon="13.4487056"><ele>387.6666666666667</ele><time>2026-05-02T13:20:25.308Z</time></trkpt><trkpt lat="46.1430129" lon="13.4486688"><ele>388.33333333333337</ele><time>2026-05-02T13:20:26.308Z</time></trkpt><trkpt lat="46.1430805" lon="13.448632"><ele>389.0</ele><time>2026-05-02T13:20:27.308Z</time></trkpt><trkpt lat="46.1431451" lon="13.4485873"><ele>389.6666666666667</ele><time>2026-05-02T13:20:28.308Z</time></trkpt><trkpt lat="46.1431924" lon="13.4485258"><ele>390.33333333333337</ele><time>2026-05-02T13:20:29.307Z</time></trkpt><trkpt lat="46.143242" lon="13.4483818"><ele>391.0</ele><time>2026-05-02T13:20:31.308Z</time></trkpt><trkpt lat="46.1432607" lon="13.4482926"><ele>391.00000000000006</ele><time>2026-05-02T13:20:32.307Z</time></trkpt><trkpt lat="46.1432681" lon="13.4481964"><ele>391.0</ele><time>2026-05-02T13:20:33.307Z</time></trkpt><trkpt lat="46.1432674" lon="13.4480895"><ele>391.0</ele><time>2026-05-02T13:20:34.307Z</time></trkpt><trkpt lat="46.1432674" lon="13.4479897"><ele>391.0</ele><time>2026-05-02T13:20:35.307Z</time></trkpt><trkpt lat="46.1432675" lon="13.4478298"><ele>391.00000000000006</ele><time>2026-05-02T13:20:37.308Z</time></trkpt><trkpt lat="46.1432821" lon="13.4477296"><ele>391.0</ele><time>2026-05-02T13:20:38.307Z</time></trkpt><trkpt lat="46.1433413" lon="13.4475875"><ele>388.00000000000006</ele><time>2026-05-02T13:20:40.308Z</time></trkpt><trkpt lat="46.143441" lon="13.4474993"><ele>385.0</ele><time>2026-05-02T13:20:42.307Z</time></trkpt><trkpt lat="46.1435076" lon="13.4474814"><ele>382.0</ele><time>2026-05-02T13:20:43.307Z</time></trkpt><trkpt lat="46.1435753" lon="13.4474716"><ele>379.0</ele><time>2026-05-02T13:20:44.307Z</time></trkpt><trkpt lat="46.1436408" lon="13.4474546"><ele>376.0</ele><time>2026-05-02T13:20:45.307Z</time></trkpt><trkpt lat="46.1437071" lon="13.447424"><ele>373.0</ele><time>2026-05-02T13:20:46.308Z</time></trkpt><trkpt lat="46.1437851" lon="13.4474037"><ele>373.0</ele><time>2026-05-02T13:20:47.308Z</time></trkpt><trkpt lat="46.1438526" lon="13.4473593"><ele>373.0</ele><time>2026-05-02T13:20:48.308Z</time></trkpt><trkpt lat="46.1439107" lon="13.4472999"><ele>373.0</ele><time>2026-05-02T13:20:49.307Z</time></trkpt><trkpt lat="46.1439794" lon="13.4472359"><ele>373.0</ele><time>2026-05-02T13:20:50.307Z</time></trkpt><trkpt lat="46.1440475" lon="13.4471666"><ele>373.0</ele><time>2026-05-02T13:20:51.308Z</time></trkpt><trkpt lat="46.1441085" lon="13.447092"><ele>373.0</ele><time>2026-05-02T13:20:52.308Z</time></trkpt><trkpt lat="46.1441651" lon="13.4470207"><ele>370.59999999999997</ele><time>2026-05-02T13:20:53.308Z</time></trkpt><trkpt lat="46.1442183" lon="13.4469526"><ele>368.2</ele><time>2026-05-02T13:20:54.308Z</time></trkpt><trkpt lat="46.1443159" lon="13.4468495"><ele>365.8</ele><time>2026-05-02T13:20:56.308Z</time></trkpt><trkpt lat="46.1444206" lon="13.446819"><ele>363.4</ele><time>2026-05-02T13:20:58.307Z</time></trkpt><trkpt lat="46.1445201" lon="13.446898"><ele>361.0</ele><time>2026-05-02T13:21:00.307Z</time></trkpt><trkpt lat="46.1445802" lon="13.4469643"><ele>361.0</ele><time>2026-05-02T13:21:01.307Z</time></trkpt><trkpt lat="46.1446465" lon="13.4470252"><ele>361.0</ele><time>2026-05-02T13:21:02.307Z</time></trkpt><trkpt lat="46.1447154" lon="13.4470733"><ele>361.0</ele><time>2026-05-02T13:21:03.307Z</time></trkpt><trkpt lat="46.1447894" lon="13.4471049"><ele>361.0</ele><time>2026-05-02T13:21:04.308Z</time></trkpt><trkpt lat="46.1448618" lon="13.4470921"><ele>361.0</ele><time>2026-05-02T13:21:05.308Z</time></trkpt><trkpt lat="46.1449332" lon="13.4470857"><ele>361.0</ele><time>2026-05-02T13:21:06.308Z</time></trkpt><trkpt lat="46.145021" lon="13.447078"><ele>359.8</ele><time>2026-05-02T13:21:07.307Z</time></trkpt><trkpt lat="46.1451243" lon="13.4470714"><ele>358.6</ele><time>2026-05-02T13:21:08.307Z</time></trkpt><trkpt lat="46.1452314" lon="13.4470558"><ele>357.4</ele><time>2026-05-02T13:21:09.308Z</time></trkpt><trkpt lat="46.145329" lon="13.4470493"><ele>356.2</ele><time>2026-05-02T13:21:10.308Z</time></trkpt><trkpt lat="46.1454249" lon="13.44703"><ele>355.0</ele><time>2026-05-02T13:21:11.307Z</time></trkpt><trkpt lat="46.1455274" lon="13.4470081"><ele>355.0</ele><time>2026-05-02T13:21:12.307Z</time></trkpt><trkpt lat="46.1456153" lon="13.4469848"><ele>355.0</ele><time>2026-05-02T13:21:13.308Z</time></trkpt><trkpt lat="46.1457093" lon="13.4469664"><ele>355.0</ele><time>2026-05-02T13:21:14.308Z</time></trkpt><trkpt lat="46.1457901" lon="13.4469149"><ele>355.0</ele><time>2026-05-02T13:21:15.308Z</time></trkpt><trkpt lat="46.1458829" lon="13.4468511"><ele>355.0</ele><time>2026-05-02T13:21:16.307Z</time></trkpt><trkpt lat="46.1459669" lon="13.4467722"><ele>352.0</ele><time>2026-05-02T13:21:17.308Z</time></trkpt><trkpt lat="46.1460374" lon="13.4466625"><ele>349.0</ele><time>2026-05-02T13:21:18.307Z</time></trkpt><trkpt lat="46.1460911" lon="13.4465317"><ele>346.0</ele><time>2026-05-02T13:21:19.308Z</time></trkpt><trkpt lat="46.1461433" lon="13.4464073"><ele>343.0</ele><time>2026-05-02T13:21:20.308Z</time></trkpt><trkpt lat="46.146198" lon="13.446274"><ele>340.0</ele><time>2026-05-02T13:21:21.308Z</time></trkpt><trkpt lat="46.1462422" lon="13.4461285"><ele>336.0</ele><time>2026-05-02T13:21:22.307Z</time></trkpt><trkpt lat="46.1462804" lon="13.4459758"><ele>332.0</ele><time>2026-05-02T13:21:23.308Z</time></trkpt><trkpt lat="46.1463217" lon="13.4458166"><ele>328.0</ele><time>2026-05-02T13:21:24.308Z</time></trkpt><trkpt lat="46.1463651" lon="13.4456529"><ele>324.0</ele><time>2026-05-02T13:21:25.307Z</time></trkpt><trkpt lat="46.1463982" lon="13.4454917"><ele>322.8</ele><time>2026-05-02T13:21:26.307Z</time></trkpt><trkpt lat="46.1464214" lon="13.4453358"><ele>321.59999999999997</ele><time>2026-05-02T13:21:27.308Z</time></trkpt><trkpt lat="46.1464516" lon="13.4451841"><ele>320.4</ele><time>2026-05-02T13:21:28.308Z</time></trkpt><trkpt lat="46.1464789" lon="13.4450491"><ele>319.2</ele><time>2026-05-02T13:21:29.307Z</time></trkpt><trkpt lat="46.146534" lon="13.4449494"><ele>318.0</ele><time>2026-05-02T13:21:30.307Z</time></trkpt><trkpt lat="46.1465793" lon="13.4448698"><ele>318.0</ele><time>2026-05-02T13:21:31.307Z</time></trkpt><trkpt lat="46.1466146" lon="13.4447297"><ele>318.0</ele><time>2026-05-02T13:21:33.307Z</time></trkpt><trkpt lat="46.1465336" lon="13.4446359"><ele>318.0</ele><time>2026-05-02T13:21:35.308Z</time></trkpt><trkpt lat="46.1464546" lon="13.4446552"><ele>318.0</ele><time>2026-05-02T13:21:36.307Z</time></trkpt><trkpt lat="46.1463852" lon="13.444744"><ele>318.0</ele><time>2026-05-02T13:21:37.308Z</time></trkpt><trkpt lat="46.1463176" lon="13.4448646"><ele>315.4</ele><time>2026-05-02T13:21:38.307Z</time></trkpt><trkpt lat="46.146245" lon="13.4449808"><ele>312.8</ele><time>2026-05-02T13:21:39.307Z</time></trkpt><trkpt lat="46.1461631" lon="13.445106"><ele>310.2</ele><time>2026-05-02T13:21:40.307Z</time></trkpt><trkpt lat="46.1460821" lon="13.4452261"><ele>307.6</ele><time>2026-05-02T13:21:41.308Z</time></trkpt><trkpt lat="46.1460275" lon="13.4453542"><ele>305.0</ele><time>2026-05-02T13:21:42.307Z</time></trkpt><trkpt lat="46.1459784" lon="13.4454452"><ele>305.0</ele><time>2026-05-02T13:21:43.308Z</time></trkpt><trkpt lat="46.1458873" lon="13.4454454"><ele>305.0</ele><time>2026-05-02T13:21:45.307Z</time></trkpt><trkpt lat="46.1458863" lon="13.4452401"><ele>305.0</ele><time>2026-05-02T13:21:47.307Z</time></trkpt><trkpt lat="46.1459268" lon="13.4450785"><ele>305.0</ele><time>2026-05-02T13:21:48.307Z</time></trkpt><trkpt lat="46.1459686" lon="13.4449045"><ele>305.0</ele><time>2026-05-02T13:21:49.307Z</time></trkpt><trkpt lat="46.1460231" lon="13.4447177"><ele>305.0</ele><time>2026-05-02T13:21:50.308Z</time></trkpt><trkpt lat="46.1460754" lon="13.4445053"><ele>305.0</ele><time>2026-05-02T13:21:51.307Z</time></trkpt><trkpt lat="46.1461256" lon="13.4443065"><ele>305.0</ele><time>2026-05-02T13:21:52.308Z</time></trkpt><trkpt lat="46.1461694" lon="13.4440992"><ele>299.25</ele><time>2026-05-02T13:21:53.308Z</time></trkpt><trkpt lat="46.1462162" lon="13.443906"><ele>293.5</ele><time>2026-05-02T13:21:54.307Z</time></trkpt><trkpt lat="46.1462705" lon="13.4437503"><ele>287.75</ele><time>2026-05-02T13:21:55.307Z</time></trkpt><trkpt lat="46.1463254" lon="13.4436172"><ele>282.0</ele><time>2026-05-02T13:21:56.308Z</time></trkpt><trkpt lat="46.1463846" lon="13.4435264"><ele>280.6666666666667</ele><time>2026-05-02T13:21:57.307Z</time></trkpt><trkpt lat="46.1464588" lon="13.4434806"><ele>279.3333333333333</ele><time>2026-05-02T13:21:58.307Z</time></trkpt><trkpt lat="46.1465364" lon="13.443483"><ele>278.0</ele><time>2026-05-02T13:21:59.308Z</time></trkpt><trkpt lat="46.1466071" lon="13.4435264"><ele>276.66666666666663</ele><time>2026-05-02T13:22:00.308Z</time></trkpt><trkpt lat="46.1466717" lon="13.443613"><ele>275.3333333333333</ele><time>2026-05-02T13:22:01.308Z</time></trkpt><trkpt lat="46.1467327" lon="13.4436998"><ele>274.0</ele><time>2026-05-02T13:22:02.308Z</time></trkpt><trkpt lat="46.1467914" lon="13.4437874"><ele>278.4</ele><time>2026-05-02T13:22:03.308Z</time></trkpt><trkpt lat="46.1468434" lon="13.4438767"><ele>282.79999999999995</ele><time>2026-05-02T13:22:04.308Z</time></trkpt><trkpt lat="46.1468892" lon="13.4439447"><ele>287.20000000000005</ele><time>2026-05-02T13:22:05.307Z</time></trkpt><trkpt lat="46.1469606" lon="13.4440611"><ele>291.6</ele><time>2026-05-02T13:22:07.307Z</time></trkpt><trkpt lat="46.1470155" lon="13.4439803"><ele>296.0</ele><time>2026-05-02T13:22:10.308Z</time></trkpt><trkpt lat="46.1469339" lon="13.4438293"><ele>291.6</ele><time>2026-05-02T13:22:12.307Z</time></trkpt><trkpt lat="46.1468689" lon="13.4437361"><ele>287.20000000000005</ele><time>2026-05-02T13:22:13.308Z</time></trkpt><trkpt lat="46.1467929" lon="13.4436237"><ele>282.79999999999995</ele><time>2026-05-02T13:22:14.307Z</time></trkpt><trkpt lat="46.1467351" lon="13.4434998"><ele>278.4</ele><time>2026-05-02T13:22:15.307Z</time></trkpt><trkpt lat="46.1466957" lon="13.4433668"><ele>274.0</ele><time>2026-05-02T13:22:16.308Z</time></trkpt><trkpt lat="46.1466722" lon="13.4432339"><ele>274.0</ele><time>2026-05-02T13:22:17.307Z</time></trkpt><trkpt lat="46.1466945" lon="13.4431142"><ele>274.0</ele><time>2026-05-02T13:22:18.307Z</time></trkpt><trkpt lat="46.1467158" lon="13.4429861"><ele>274.0</ele><time>2026-05-02T13:22:19.308Z</time></trkpt><trkpt lat="46.1467332" lon="13.4428355"><ele>274.0</ele><time>2026-05-02T13:22:20.307Z</time></trkpt><trkpt lat="46.1467292" lon="13.4427051"><ele>274.0</ele><time>2026-05-02T13:22:21.308Z</time></trkpt><trkpt lat="46.1466702" lon="13.4425936"><ele>272.0</ele><time>2026-05-02T13:22:22.308Z</time></trkpt><trkpt lat="46.1466035" lon="13.4424841"><ele>270.0</ele><time>2026-05-02T13:22:23.308Z</time></trkpt><trkpt lat="46.1465578" lon="13.4423673"><ele>268.0</ele><time>2026-05-02T13:22:24.308Z</time></trkpt><trkpt lat="46.1465245" lon="13.442247"><ele>266.0</ele><time>2026-05-02T13:22:25.307Z</time></trkpt><trkpt lat="46.14647" lon="13.4421512"><ele>264.0</ele><time>2026-05-02T13:22:26.307Z</time></trkpt><trkpt lat="46.1463919" lon="13.442101"><ele>261.59999999999997</ele><time>2026-05-02T13:22:27.307Z</time></trkpt><trkpt lat="46.1463053" lon="13.4421302"><ele>259.2</ele><time>2026-05-02T13:22:28.307Z</time></trkpt><trkpt lat="46.1462379" lon="13.4422168"><ele>256.79999999999995</ele><time>2026-05-02T13:22:29.308Z</time></trkpt><trkpt lat="46.1461909" lon="13.4423375"><ele>254.39999999999998</ele><time>2026-05-02T13:22:30.307Z</time></trkpt><trkpt lat="46.1461537" lon="13.4424891"><ele>252.0</ele><time>2026-05-02T13:22:31.308Z</time></trkpt><trkpt lat="46.1461075" lon="13.44267"><ele>252.0</ele><time>2026-05-02T13:22:32.308Z</time></trkpt><trkpt lat="46.1460594" lon="13.4428201"><ele>252.0</ele><time>2026-05-02T13:22:33.307Z</time></trkpt><trkpt lat="46.1460026" lon="13.4429594"><ele>252.0</ele><time>2026-05-02T13:22:34.308Z</time></trkpt><trkpt lat="46.145914" lon="13.4430541"><ele>252.0</ele><time>2026-05-02T13:22:35.308Z</time></trkpt><trkpt lat="46.145788" lon="13.4431275"><ele>253.0</ele><time>2026-05-02T13:22:36.308Z</time></trkpt><trkpt lat="46.1456709" lon="13.4432077"><ele>254.0</ele><time>2026-05-02T13:22:37.307Z</time></trkpt><trkpt lat="46.1455621" lon="13.4432747"><ele>255.0</ele><time>2026-05-02T13:22:38.307Z</time></trkpt><trkpt lat="46.1454645" lon="13.4433043"><ele>256.0</ele><time>2026-05-02T13:22:39.307Z</time></trkpt><trkpt lat="46.1453741" lon="13.4432705"><ele>257.0</ele><time>2026-05-02T13:22:40.307Z</time></trkpt><trkpt lat="46.1453045" lon="13.4431696"><ele>257.0</ele><time>2026-05-02T13:22:41.307Z</time></trkpt><trkpt lat="46.1452459" lon="13.4430581"><ele>257.0</ele><time>2026-05-02T13:22:42.308Z</time></trkpt><trkpt lat="46.1451879" lon="13.4429491"><ele>257.0</ele><time>2026-05-02T13:22:43.308Z</time></trkpt><trkpt lat="46.1451077" lon="13.4428438"><ele>257.0</ele><time>2026-05-02T13:22:44.308Z</time></trkpt><trkpt lat="46.1449985" lon="13.4427628"><ele>257.0</ele><time>2026-05-02T13:22:45.307Z</time></trkpt><trkpt lat="46.1448847" lon="13.4426977"><ele>250.5</ele><time>2026-05-02T13:22:46.308Z</time></trkpt><trkpt lat="46.1447646" lon="13.4426534"><ele>244.0</ele><time>2026-05-02T13:22:47.307Z</time></trkpt><trkpt lat="46.1446493" lon="13.4426097"><ele>237.5</ele><time>2026-05-02T13:22:48.308Z</time></trkpt><trkpt lat="46.1445398" lon="13.4425392"><ele>231.0</ele><time>2026-05-02T13:22:49.308Z</time></trkpt><trkpt lat="46.1444292" lon="13.4424447"><ele>231.0</ele><time>2026-05-02T13:22:50.308Z</time></trkpt><trkpt lat="46.1443177" lon="13.4423503"><ele>231.0</ele><time>2026-05-02T13:22:51.307Z</time></trkpt><trkpt lat="46.144209" lon="13.4422649"><ele>231.0</ele><time>2026-05-02T13:22:52.307Z</time></trkpt><trkpt lat="46.1440965" lon="13.4421906"><ele>231.0</ele><time>2026-05-02T13:22:53.308Z</time></trkpt><trkpt lat="46.1439856" lon="13.4421613"><ele>230.75</ele><time>2026-05-02T13:22:54.307Z</time></trkpt><trkpt lat="46.1438694" lon="13.442145"><ele>230.5</ele><time>2026-05-02T13:22:55.308Z</time></trkpt><trkpt lat="46.1437443" lon="13.442129"><ele>230.25</ele><time>2026-05-02T13:22:56.308Z</time></trkpt><trkpt lat="46.1436164" lon="13.4420969"><ele>230.0</ele><time>2026-05-02T13:22:57.307Z</time></trkpt><trkpt lat="46.1434978" lon="13.4420579"><ele>230.0</ele><time>2026-05-02T13:22:58.307Z</time></trkpt><trkpt lat="46.1433883" lon="13.4419659"><ele>230.0</ele><time>2026-05-02T13:22:59.307Z</time></trkpt><trkpt lat="46.1432985" lon="13.4418235"><ele>230.0</ele><time>2026-05-02T13:23:00.307Z</time></trkpt><trkpt lat="46.1432172" lon="13.4416927"><ele>230.0</ele><time>2026-05-02T13:23:01.307Z</time></trkpt><trkpt lat="46.1431382" lon="13.4415708"><ele>229.4</ele><time>2026-05-02T13:23:02.308Z</time></trkpt><trkpt lat="46.143071" lon="13.4414624"><ele>228.8</ele><time>2026-05-02T13:23:03.308Z</time></trkpt><trkpt lat="46.1430017" lon="13.4413576"><ele>228.2</ele><time>2026-05-02T13:23:04.308Z</time></trkpt><trkpt lat="46.1429093" lon="13.4412821"><ele>227.6</ele><time>2026-05-02T13:23:05.308Z</time></trkpt><trkpt lat="46.1428058" lon="13.4412301"><ele>227.0</ele><time>2026-05-02T13:23:06.308Z</time></trkpt><trkpt lat="46.1426841" lon="13.441211"><ele>226.75</ele><time>2026-05-02T13:23:07.307Z</time></trkpt><trkpt lat="46.1425562" lon="13.4412017"><ele>226.5</ele><time>2026-05-02T13:23:08.308Z</time></trkpt><trkpt lat="46.1424198" lon="13.4411689"><ele>226.25</ele><time>2026-05-02T13:23:09.307Z</time></trkpt><trkpt lat="46.1422743" lon="13.4411545"><ele>226.0</ele><time>2026-05-02T13:23:10.308Z</time></trkpt><trkpt lat="46.1421276" lon="13.4411426"><ele>225.25</ele><time>2026-05-02T13:23:11.307Z</time></trkpt><trkpt lat="46.1419851" lon="13.4411414"><ele>224.5</ele><time>2026-05-02T13:23:12.307Z</time></trkpt><trkpt lat="46.1418518" lon="13.441142"><ele>223.75</ele><time>2026-05-02T13:23:13.307Z</time></trkpt><trkpt lat="46.1417242" lon="13.4411453"><ele>223.0</ele><time>2026-05-02T13:23:14.307Z</time></trkpt><trkpt lat="46.1416085" lon="13.4411365"><ele>222.60000000000002</ele><time>2026-05-02T13:23:15.308Z</time></trkpt><trkpt lat="46.141499" lon="13.4411305"><ele>222.20000000000002</ele><time>2026-05-02T13:23:16.307Z</time></trkpt><trkpt lat="46.1413898" lon="13.4411402"><ele>221.8</ele><time>2026-05-02T13:23:17.307Z</time></trkpt><trkpt lat="46.1412817" lon="13.4411704"><ele>221.4</ele><time>2026-05-02T13:23:18.308Z</time></trkpt><trkpt lat="46.141174" lon="13.4412346"><ele>221.0</ele><time>2026-05-02T13:23:19.307Z</time></trkpt><trkpt lat="46.1410719" lon="13.4412956"><ele>220.60000000000002</ele><time>2026-05-02T13:23:20.308Z</time></trkpt><trkpt lat="46.140976" lon="13.4413355"><ele>220.20000000000002</ele><time>2026-05-02T13:23:21.307Z</time></trkpt><trkpt lat="46.1408765" lon="13.4413659"><ele>219.79999999999998</ele><time>2026-05-02T13:23:22.307Z</time></trkpt><trkpt lat="46.1407631" lon="13.4413869"><ele>219.39999999999998</ele><time>2026-05-02T13:23:23.308Z</time></trkpt><trkpt lat="46.1406533" lon="13.4414021"><ele>219.0</ele><time>2026-05-02T13:23:24.307Z</time></trkpt><trkpt lat="46.1405544" lon="13.4414139"><ele>218.75</ele><time>2026-05-02T13:23:25.307Z</time></trkpt><trkpt lat="46.1404552" lon="13.4414073"><ele>218.5</ele><time>2026-05-02T13:23:26.308Z</time></trkpt><trkpt lat="46.1403427" lon="13.4413821"><ele>218.25</ele><time>2026-05-02T13:23:27.307Z</time></trkpt><trkpt lat="46.1402255" lon="13.4413511"><ele>218.0</ele><time>2026-05-02T13:23:28.308Z</time></trkpt><trkpt lat="46.1400992" lon="13.441322"><ele>218.25</ele><time>2026-05-02T13:23:29.308Z</time></trkpt><trkpt lat="46.1399662" lon="13.4412922"><ele>218.5</ele><time>2026-05-02T13:23:30.307Z</time></trkpt><trkpt lat="46.1398301" lon="13.4412735"><ele>218.75</ele><time>2026-05-02T13:23:31.308Z</time></trkpt><trkpt lat="46.139705" lon="13.4412561"><ele>219.0</ele><time>2026-05-02T13:23:32.308Z</time></trkpt><trkpt lat="46.1395834" lon="13.4412329"><ele>217.25</ele><time>2026-05-02T13:23:33.308Z</time></trkpt><trkpt lat="46.1394617" lon="13.4412105"><ele>215.5</ele><time>2026-05-02T13:23:34.307Z</time></trkpt><trkpt lat="46.1393437" lon="13.4411821"><ele>213.75</ele><time>2026-05-02T13:23:35.308Z</time></trkpt><trkpt lat="46.1392238" lon="13.4411605"><ele>212.0</ele><time>2026-05-02T13:23:36.308Z</time></trkpt><trkpt lat="46.1391042" lon="13.4411377"><ele>211.0</ele><time>2026-05-02T13:23:37.307Z</time></trkpt><trkpt lat="46.1389827" lon="13.441104"><ele>210.0</ele><time>2026-05-02T13:23:38.307Z</time></trkpt><trkpt lat="46.1388583" lon="13.4410633"><ele>209.0</ele><time>2026-05-02T13:23:39.307Z</time></trkpt><trkpt lat="46.1387333" lon="13.4410266"><ele>208.0</ele><time>2026-05-02T13:23:40.308Z</time></trkpt><trkpt lat="46.1386083" lon="13.4409894"><ele>208.0</ele><time>2026-05-02T13:23:41.307Z</time></trkpt><trkpt lat="46.1384899" lon="13.4409469"><ele>208.0</ele><time>2026-05-02T13:23:42.308Z</time></trkpt><trkpt lat="46.1383822" lon="13.4408894"><ele>208.0</ele><time>2026-05-02T13:23:43.307Z</time></trkpt><trkpt lat="46.1382912" lon="13.4408027"><ele>208.0</ele><time>2026-05-02T13:23:44.308Z</time></trkpt><trkpt lat="46.1382145" lon="13.4406803"><ele>208.5</ele><time>2026-05-02T13:23:45.308Z</time></trkpt><trkpt lat="46.1381751" lon="13.4405376"><ele>209.0</ele><time>2026-05-02T13:23:46.308Z</time></trkpt><trkpt lat="46.1381556" lon="13.4403763"><ele>209.5</ele><time>2026-05-02T13:23:47.307Z</time></trkpt><trkpt lat="46.1381622" lon="13.4401884"><ele>210.0</ele><time>2026-05-02T13:23:48.307Z</time></trkpt><trkpt lat="46.1381808" lon="13.4399687"><ele>208.66666666666669</ele><time>2026-05-02T13:23:49.307Z</time></trkpt><trkpt lat="46.1381815" lon="13.4397257"><ele>207.33333333333334</ele><time>2026-05-02T13:23:50.307Z</time></trkpt><trkpt lat="46.1381992" lon="13.4394875"><ele>206.0</ele><time>2026-05-02T13:23:51.307Z</time></trkpt><trkpt lat="46.1382151" lon="13.4392863"><ele>206.60000000000002</ele><time>2026-05-02T13:23:52.308Z</time></trkpt><trkpt lat="46.1382208" lon="13.4391306"><ele>207.2</ele><time>2026-05-02T13:23:53.307Z</time></trkpt><trkpt lat="46.1382241" lon="13.4390147"><ele>207.8</ele><time>2026-05-02T13:23:54.308Z</time></trkpt><trkpt lat="46.1382467" lon="13.4388491"><ele>208.39999999999998</ele><time>2026-05-02T13:23:56.307Z</time></trkpt><trkpt lat="46.1383649" lon="13.4387443"><ele>209.0</ele><time>2026-05-02T13:23:58.307Z</time></trkpt><trkpt lat="46.1384516" lon="13.4386759"><ele>209.00000000000003</ele><time>2026-05-02T13:23:59.308Z</time></trkpt><trkpt lat="46.1385364" lon="13.4386032"><ele>209.0</ele><time>2026-05-02T13:24:00.308Z</time></trkpt><trkpt lat="46.1386098" lon="13.4385412"><ele>209.0</ele><time>2026-05-02T13:24:01.307Z</time></trkpt><trkpt lat="46.138676" lon="13.4384855"><ele>209.0</ele><time>2026-05-02T13:24:02.308Z</time></trkpt><trkpt lat="46.1387393" lon="13.4384385"><ele>209.00000000000003</ele><time>2026-05-02T13:24:03.308Z</time></trkpt><trkpt lat="46.1387973" lon="13.4384009"><ele>209.0</ele><time>2026-05-02T13:24:04.307Z</time></trkpt><trkpt lat="46.1388871" lon="13.4383383"><ele>209.0</ele><time>2026-05-02T13:24:06.307Z</time></trkpt><trkpt lat="46.1389514" lon="13.4382958"><ele>209.0</ele><time>2026-05-02T13:24:08.308Z</time></trkpt><trkpt lat="46.1389995" lon="13.4382169"><ele>209.0</ele><time>2026-05-02T13:24:11.308Z</time></trkpt><trkpt lat="46.138971" lon="13.438095"><ele>209.0</ele><time>2026-05-02T13:24:14.307Z</time></trkpt><trkpt lat="46.1389605" lon="13.4380013"><ele>209.0</ele><time>2026-05-02T13:24:16.307Z</time></trkpt><trkpt lat="46.1389576" lon="13.4379068"><ele>209.0</ele><time>2026-05-02T13:24:18.307Z</time></trkpt><trkpt lat="46.1389505" lon="13.4378077"><ele>209.0</ele><time>2026-05-02T13:24:20.308Z</time></trkpt><trkpt lat="46.1389459" lon="13.4377103"><ele>209.83333333333334</ele><time>2026-05-02T13:24:22.308Z</time></trkpt><trkpt lat="46.1389319" lon="13.4376139"><ele>210.66666666666669</ele><time>2026-05-02T13:24:24.307Z</time></trkpt><trkpt lat="46.1388975" lon="13.4375274"><ele>211.5</ele><time>2026-05-02T13:24:26.307Z</time></trkpt><trkpt lat="46.1388477" lon="13.4374459"><ele>212.33333333333331</ele><time>2026-05-02T13:24:29.308Z</time></trkpt><trkpt lat="46.138855" lon="13.4373512"><ele>213.16666666666666</ele><time>2026-05-02T13:30:33.307Z</time></trkpt><trkpt lat="46.138849" lon="13.4372048"><ele>214.0</ele><time>2026-05-02T13:30:36.307Z</time></trkpt><trkpt lat="46.1388302" lon="13.4371021"><ele>215.66666666666666</ele><time>2026-05-02T13:30:38.307Z</time></trkpt><trkpt lat="46.1389234" lon="13.4370164"><ele>217.33333333333331</ele><time>2026-05-02T13:30:41.306Z</time></trkpt><trkpt lat="46.1389887" lon="13.4369993"><ele>219.0</ele><time>2026-05-02T13:30:42.307Z</time></trkpt><trkpt lat="46.1390555" lon="13.4369859"><ele>220.66666666666669</ele><time>2026-05-02T13:30:43.306Z</time></trkpt><trkpt lat="46.1391374" lon="13.4369899"><ele>222.33333333333334</ele><time>2026-05-02T13:30:44.307Z</time></trkpt><trkpt lat="46.1392211" lon="13.4369996"><ele>224.0</ele><time>2026-05-02T13:30:45.307Z</time></trkpt><trkpt lat="46.1392953" lon="13.4370233"><ele>224.2</ele><time>2026-05-02T13:30:46.306Z</time></trkpt><trkpt lat="46.1393655" lon="13.4370669"><ele>224.39999999999998</ele><time>2026-05-02T13:30:47.306Z</time></trkpt><trkpt lat="46.1394341" lon="13.4371071"><ele>224.6</ele><time>2026-05-02T13:30:48.307Z</time></trkpt><trkpt lat="46.1395035" lon="13.4371469"><ele>224.8</ele><time>2026-05-02T13:30:49.307Z</time></trkpt><trkpt lat="46.1395932" lon="13.4372454"><ele>225.0</ele><time>2026-05-02T13:30:51.307Z</time></trkpt><trkpt lat="46.1396503" lon="13.4373888"><ele>225.0</ele><time>2026-05-02T13:30:53.306Z</time></trkpt><trkpt lat="46.1396771" lon="13.4375058"><ele>225.0</ele><time>2026-05-02T13:30:55.306Z</time></trkpt><trkpt lat="46.1397163" lon="13.4376344"><ele>225.0</ele><time>2026-05-02T13:30:57.307Z</time></trkpt><trkpt lat="46.1397831" lon="13.4377157"><ele>225.0</ele><time>2026-05-02T13:30:59.306Z</time></trkpt><trkpt lat="46.1398736" lon="13.4377357"><ele>225.0</ele><time>2026-05-02T13:31:01.307Z</time></trkpt><trkpt lat="46.1399815" lon="13.4377247"><ele>229.2</ele><time>2026-05-02T13:31:03.307Z</time></trkpt><trkpt lat="46.1400968" lon="13.4376936"><ele>233.4</ele><time>2026-05-02T13:31:05.307Z</time></trkpt><trkpt lat="46.1401567" lon="13.437665"><ele>237.60000000000002</ele><time>2026-05-02T13:31:06.306Z</time></trkpt><trkpt lat="46.1402837" lon="13.4376253"><ele>241.8</ele><time>2026-05-02T13:31:08.306Z</time></trkpt><trkpt lat="46.140355" lon="13.4376091"><ele>246.0</ele><time>2026-05-02T13:31:09.307Z</time></trkpt><trkpt lat="46.1404286" lon="13.4376"><ele>246.00000000000003</ele><time>2026-05-02T13:31:10.306Z</time></trkpt><trkpt lat="46.1405037" lon="13.4375833"><ele>246.0</ele><time>2026-05-02T13:31:11.306Z</time></trkpt><trkpt lat="46.1405786" lon="13.4375578"><ele>246.00000000000003</ele><time>2026-05-02T13:31:12.306Z</time></trkpt><trkpt lat="46.1406558" lon="13.4375463"><ele>246.00000000000003</ele><time>2026-05-02T13:31:13.307Z</time></trkpt><trkpt lat="46.1407235" lon="13.4375317"><ele>246.0</ele><time>2026-05-02T13:31:14.307Z</time></trkpt><trkpt lat="46.140788" lon="13.4375205"><ele>246.00000000000003</ele><time>2026-05-02T13:31:15.307Z</time></trkpt><trkpt lat="46.1408562" lon="13.4375158"><ele>246.00000000000003</ele><time>2026-05-02T13:31:16.306Z</time></trkpt><trkpt lat="46.1409198" lon="13.4374992"><ele>249.16666666666666</ele><time>2026-05-02T13:31:17.306Z</time></trkpt><trkpt lat="46.1410009" lon="13.4374845"><ele>252.33333333333331</ele><time>2026-05-02T13:31:18.307Z</time></trkpt><trkpt lat="46.1410731" lon="13.4374657"><ele>255.5</ele><time>2026-05-02T13:31:19.307Z</time></trkpt><trkpt lat="46.1411486" lon="13.4374504"><ele>258.66666666666663</ele><time>2026-05-02T13:31:20.306Z</time></trkpt><trkpt lat="46.1412212" lon="13.4374462"><ele>261.8333333333333</ele><time>2026-05-02T13:31:21.307Z</time></trkpt><trkpt lat="46.1412954" lon="13.4374398"><ele>265.0</ele><time>2026-05-02T13:31:22.307Z</time></trkpt><trkpt lat="46.1413713" lon="13.4374471"><ele>264.99999999999994</ele><time>2026-05-02T13:31:23.306Z</time></trkpt><trkpt lat="46.1414531" lon="13.4374625"><ele>265.0</ele><time>2026-05-02T13:31:24.306Z</time></trkpt><trkpt lat="46.1415227" lon="13.4374694"><ele>265.0</ele><time>2026-05-02T13:31:25.307Z</time></trkpt><trkpt lat="46.1415889" lon="13.4374758"><ele>265.0</ele><time>2026-05-02T13:31:26.307Z</time></trkpt><trkpt lat="46.1416577" lon="13.4374881"><ele>265.0</ele><time>2026-05-02T13:31:27.307Z</time></trkpt><trkpt lat="46.141727" lon="13.4375042"><ele>264.99999999999994</ele><time>2026-05-02T13:31:28.307Z</time></trkpt><trkpt lat="46.1417963" lon="13.4375162"><ele>265.0</ele><time>2026-05-02T13:31:29.306Z</time></trkpt><trkpt lat="46.1418601" lon="13.4375264"><ele>266.0</ele><time>2026-05-02T13:31:30.306Z</time></trkpt><trkpt lat="46.1419795" lon="13.4375259"><ele>267.0</ele><time>2026-05-02T13:31:32.306Z</time></trkpt><trkpt lat="46.1420693" lon="13.4375451"><ele>268.0</ele><time>2026-05-02T13:31:34.306Z</time></trkpt><trkpt lat="46.1421864" lon="13.4375202"><ele>269.0</ele><time>2026-05-02T13:31:36.307Z</time></trkpt><trkpt lat="46.1423067" lon="13.4375645"><ele>271.8</ele><time>2026-05-02T13:31:38.306Z</time></trkpt><trkpt lat="46.1424283" lon="13.4376361"><ele>274.59999999999997</ele><time>2026-05-02T13:31:40.306Z</time></trkpt><trkpt lat="46.1424904" lon="13.4376559"><ele>277.4</ele><time>2026-05-02T13:31:41.307Z</time></trkpt><trkpt lat="46.1426089" lon="13.4376754"><ele>280.2</ele><time>2026-05-02T13:31:43.307Z</time></trkpt><trkpt lat="46.1427139" lon="13.4376783"><ele>283.0</ele><time>2026-05-02T13:31:45.306Z</time></trkpt><trkpt lat="46.142836" lon="13.4376601"><ele>283.0</ele><time>2026-05-02T13:31:47.307Z</time></trkpt><trkpt lat="46.1428997" lon="13.4376419"><ele>283.0</ele><time>2026-05-02T13:31:48.307Z</time></trkpt><trkpt lat="46.143014" lon="13.4376186"><ele>283.0</ele><time>2026-05-02T13:31:50.306Z</time></trkpt><trkpt lat="46.1431152" lon="13.4376493"><ele>283.0</ele><time>2026-05-02T13:31:52.307Z</time></trkpt><trkpt lat="46.1432403" lon="13.4376968"><ele>283.0</ele><time>2026-05-02T13:31:54.306Z</time></trkpt><trkpt lat="46.1433638" lon="13.4377193"><ele>285.0</ele><time>2026-05-02T13:31:56.306Z</time></trkpt><trkpt lat="46.1434308" lon="13.437711"><ele>287.0</ele><time>2026-05-02T13:31:57.307Z</time></trkpt><trkpt lat="46.1435383" lon="13.4377405"><ele>289.0</ele><time>2026-05-02T13:31:59.306Z</time></trkpt><trkpt lat="46.1436318" lon="13.4377594"><ele>291.0</ele><time>2026-05-02T13:32:01.306Z</time></trkpt><trkpt lat="46.1437308" lon="13.4377191"><ele>293.0</ele><time>2026-05-02T13:32:03.307Z</time></trkpt><trkpt lat="46.1438198" lon="13.4376377"><ele>293.0</ele><time>2026-05-02T13:32:05.306Z</time></trkpt><trkpt lat="46.1438725" lon="13.4375715"><ele>293.0</ele><time>2026-05-02T13:32:06.307Z</time></trkpt><trkpt lat="46.1439406" lon="13.4374881"><ele>293.0</ele><time>2026-05-02T13:32:07.307Z</time></trkpt><trkpt lat="46.144021" lon="13.437415"><ele>293.0</ele><time>2026-05-02T13:32:08.307Z</time></trkpt><trkpt lat="46.1440974" lon="13.4373532"><ele>293.0</ele><time>2026-05-02T13:32:09.306Z</time></trkpt><trkpt lat="46.1441666" lon="13.4373176"><ele>293.0</ele><time>2026-05-02T13:32:10.307Z</time></trkpt><trkpt lat="46.1442285" lon="13.4372819"><ele>292.6666666666667</ele><time>2026-05-02T13:32:11.307Z</time></trkpt><trkpt lat="46.1442916" lon="13.437241"><ele>292.33333333333337</ele><time>2026-05-02T13:32:12.307Z</time></trkpt><trkpt lat="46.1443982" lon="13.4371496"><ele>292.0</ele><time>2026-05-02T13:32:14.307Z</time></trkpt><trkpt lat="46.1444658" lon="13.4371125"><ele>291.6666666666667</ele><time>2026-05-02T13:32:15.306Z</time></trkpt><trkpt lat="46.1445331" lon="13.4370848"><ele>291.3333333333333</ele><time>2026-05-02T13:32:16.307Z</time></trkpt><trkpt lat="46.1445961" lon="13.4370586"><ele>291.0</ele><time>2026-05-02T13:32:17.307Z</time></trkpt><trkpt lat="46.1446574" lon="13.4370282"><ele>291.0</ele><time>2026-05-02T13:32:18.306Z</time></trkpt><trkpt lat="46.1447192" lon="13.4369848"><ele>291.0</ele><time>2026-05-02T13:32:19.307Z</time></trkpt><trkpt lat="46.1448496" lon="13.4369533"><ele>291.0</ele><time>2026-05-02T13:32:21.307Z</time></trkpt><trkpt lat="46.1449246" lon="13.4369811"><ele>291.0</ele><time>2026-05-02T13:32:22.307Z</time></trkpt><trkpt lat="46.1449878" lon="13.4370287"><ele>291.0</ele><time>2026-05-02T13:32:23.306Z</time></trkpt><trkpt lat="46.1450525" lon="13.4370929"><ele>291.0</ele><time>2026-05-02T13:32:24.306Z</time></trkpt><trkpt lat="46.145126" lon="13.4371664"><ele>291.0</ele><time>2026-05-02T13:32:25.307Z</time></trkpt><trkpt lat="46.1451899" lon="13.4372294"><ele>291.0</ele><time>2026-05-02T13:32:26.306Z</time></trkpt><trkpt lat="46.145246" lon="13.4372885"><ele>291.0</ele><time>2026-05-02T13:32:27.306Z</time></trkpt><trkpt lat="46.1453375" lon="13.4373531"><ele>291.0</ele><time>2026-05-02T13:32:29.306Z</time></trkpt><trkpt lat="46.1454252" lon="13.4373424"><ele>291.0</ele><time>2026-05-02T13:32:31.306Z</time></trkpt><trkpt lat="46.1455138" lon="13.4372945"><ele>291.0</ele><time>2026-05-02T13:32:33.306Z</time></trkpt><trkpt lat="46.1455728" lon="13.4372565"><ele>291.0</ele><time>2026-05-02T13:32:34.307Z</time></trkpt><trkpt lat="46.1456334" lon="13.4372247"><ele>291.0</ele><time>2026-05-02T13:32:35.307Z</time></trkpt><trkpt lat="46.1456931" lon="13.437187"><ele>291.0</ele><time>2026-05-02T13:32:36.306Z</time></trkpt><trkpt lat="46.1457557" lon="13.4371494"><ele>291.0</ele><time>2026-05-02T13:32:37.307Z</time></trkpt><trkpt lat="46.1458167" lon="13.4371042"><ele>291.0</ele><time>2026-05-02T13:32:38.307Z</time></trkpt><trkpt lat="46.1458775" lon="13.4370592"><ele>291.0</ele><time>2026-05-02T13:32:39.306Z</time></trkpt><trkpt lat="46.1459315" lon="13.437012"><ele>291.0</ele><time>2026-05-02T13:32:40.307Z</time></trkpt><trkpt lat="46.1460108" lon="13.4368984"><ele>297.4</ele><time>2026-05-02T13:32:42.306Z</time></trkpt><trkpt lat="46.1460834" lon="13.4367697"><ele>303.8</ele><time>2026-05-02T13:32:44.307Z</time></trkpt><trkpt lat="46.1461566" lon="13.4366089"><ele>310.2</ele><time>2026-05-02T13:32:46.306Z</time></trkpt><trkpt lat="46.1461938" lon="13.4365266"><ele>316.59999999999997</ele><time>2026-05-02T13:32:47.307Z</time></trkpt><trkpt lat="46.1462174" lon="13.4364356"><ele>323.0</ele><time>2026-05-02T13:32:48.307Z</time></trkpt><trkpt lat="46.1462341" lon="13.4363368"><ele>325.0</ele><time>2026-05-02T13:32:49.307Z</time></trkpt><trkpt lat="46.1462903" lon="13.4361819"><ele>327.0</ele><time>2026-05-02T13:32:51.307Z</time></trkpt><trkpt lat="46.1463446" lon="13.4361282"><ele>329.0</ele><time>2026-05-02T13:32:52.306Z</time></trkpt><trkpt lat="46.1464555" lon="13.4360701"><ele>331.0</ele><time>2026-05-02T13:32:54.307Z</time></trkpt><trkpt lat="46.1465265" lon="13.4360252"><ele>333.0</ele><time>2026-05-02T13:32:55.307Z</time></trkpt><trkpt lat="46.1466226" lon="13.4359908"><ele>333.0</ele><time>2026-05-02T13:32:56.306Z</time></trkpt><trkpt lat="46.146718" lon="13.4359548"><ele>333.0</ele><time>2026-05-02T13:32:57.307Z</time></trkpt><trkpt lat="46.1467988" lon="13.4359102"><ele>333.0</ele><time>2026-05-02T13:32:58.306Z</time></trkpt><trkpt lat="46.1468815" lon="13.435878"><ele>333.0</ele><time>2026-05-02T13:32:59.307Z</time></trkpt><trkpt lat="46.1469723" lon="13.4358354"><ele>333.0</ele><time>2026-05-02T13:33:00.306Z</time></trkpt><trkpt lat="46.1470571" lon="13.435797"><ele>333.0</ele><time>2026-05-02T13:33:01.307Z</time></trkpt><trkpt lat="46.1471626" lon="13.4357527"><ele>333.0</ele><time>2026-05-02T13:33:02.306Z</time></trkpt><trkpt lat="46.147251" lon="13.4357006"><ele>333.0</ele><time>2026-05-02T13:33:03.307Z</time></trkpt><trkpt lat="46.1473492" lon="13.4356481"><ele>333.0</ele><time>2026-05-02T13:33:04.307Z</time></trkpt><trkpt lat="46.1474386" lon="13.4355962"><ele>333.0</ele><time>2026-05-02T13:33:05.307Z</time></trkpt><trkpt lat="46.1475145" lon="13.4355414"><ele>330.8333333333333</ele><time>2026-05-02T13:33:06.307Z</time></trkpt><trkpt lat="46.1475881" lon="13.4354918"><ele>328.6666666666667</ele><time>2026-05-02T13:33:07.306Z</time></trkpt><trkpt lat="46.147669" lon="13.4354526"><ele>326.5</ele><time>2026-05-02T13:33:08.307Z</time></trkpt><trkpt lat="46.1477444" lon="13.4354177"><ele>324.33333333333337</ele><time>2026-05-02T13:33:09.306Z</time></trkpt><trkpt lat="46.1478299" lon="13.435385"><ele>322.1666666666667</ele><time>2026-05-02T13:33:10.307Z</time></trkpt><trkpt lat="46.1479114" lon="13.4353631"><ele>320.0</ele><time>2026-05-02T13:33:11.306Z</time></trkpt><trkpt lat="46.1479932" lon="13.4353495"><ele>326.5</ele><time>2026-05-02T13:33:12.307Z</time></trkpt><trkpt lat="46.148063" lon="13.435345"><ele>333.0</ele><time>2026-05-02T13:33:13.307Z</time></trkpt><trkpt lat="46.148146" lon="13.435351"><ele>339.5</ele><time>2026-05-02T13:33:14.307Z</time></trkpt><trkpt lat="46.1482233" lon="13.4353453"><ele>346.0</ele><time>2026-05-02T13:33:15.306Z</time></trkpt><trkpt lat="46.1482984" lon="13.4353376"><ele>352.5</ele><time>2026-05-02T13:33:16.307Z</time></trkpt><trkpt lat="46.1483775" lon="13.4353245"><ele>359.0</ele><time>2026-05-02T13:33:17.306Z</time></trkpt><trkpt lat="46.1484454" lon="13.4353"><ele>359.0</ele><time>2026-05-02T13:33:18.306Z</time></trkpt><trkpt lat="46.1485268" lon="13.435251"><ele>359.0</ele><time>2026-05-02T13:33:19.306Z</time></trkpt><trkpt lat="46.148614" lon="13.4352036"><ele>359.0</ele><time>2026-05-02T13:33:20.306Z</time></trkpt><trkpt lat="46.1486961" lon="13.4351486"><ele>359.0</ele><time>2026-05-02T13:33:21.307Z</time></trkpt><trkpt lat="46.1487739" lon="13.4351024"><ele>359.0</ele><time>2026-05-02T13:33:22.307Z</time></trkpt><trkpt lat="46.148888" lon="13.435021"><ele>359.0</ele><time>2026-05-02T13:33:24.307Z</time></trkpt><trkpt lat="46.1489609" lon="13.4348973"><ele>359.0</ele><time>2026-05-02T13:33:26.307Z</time></trkpt><trkpt lat="46.1490004" lon="13.4348195"><ele>359.0</ele><time>2026-05-02T13:33:27.307Z</time></trkpt><trkpt lat="46.1490524" lon="13.4346895"><ele>359.0</ele><time>2026-05-02T13:33:28.307Z</time></trkpt><trkpt lat="46.1491014" lon="13.4345751"><ele>359.0</ele><time>2026-05-02T13:33:29.307Z</time></trkpt><trkpt lat="46.1491351" lon="13.4344789"><ele>359.4</ele><time>2026-05-02T13:33:30.307Z</time></trkpt><trkpt lat="46.1491637" lon="13.4343908"><ele>359.79999999999995</ele><time>2026-05-02T13:33:31.307Z</time></trkpt><trkpt lat="46.1491958" lon="13.4342229"><ele>360.20000000000005</ele><time>2026-05-02T13:33:33.307Z</time></trkpt><trkpt lat="46.1491905" lon="13.4340586"><ele>360.6</ele><time>2026-05-02T13:33:35.307Z</time></trkpt><trkpt lat="46.1491969" lon="13.4339402"><ele>361.0</ele><time>2026-05-02T13:33:37.306Z</time></trkpt><trkpt lat="46.149271" lon="13.4338697"><ele>361.0</ele><time>2026-05-02T13:33:40.306Z</time></trkpt><trkpt lat="46.1493383" lon="13.4338862"><ele>361.0</ele><time>2026-05-02T13:33:41.307Z</time></trkpt><trkpt lat="46.1494133" lon="13.4339251"><ele>361.0</ele><time>2026-05-02T13:33:42.306Z</time></trkpt><trkpt lat="46.1494925" lon="13.4339673"><ele>361.0</ele><time>2026-05-02T13:33:43.307Z</time></trkpt><trkpt lat="46.1495751" lon="13.4340075"><ele>361.0</ele><time>2026-05-02T13:33:44.306Z</time></trkpt><trkpt lat="46.1496415" lon="13.4340382"><ele>361.0</ele><time>2026-05-02T13:33:45.306Z</time></trkpt><trkpt lat="46.1497158" lon="13.4340556"><ele>361.0</ele><time>2026-05-02T13:33:46.306Z</time></trkpt><trkpt lat="46.1497891" lon="13.4340592"><ele>361.0</ele><time>2026-05-02T13:33:47.307Z</time></trkpt><trkpt lat="46.1499026" lon="13.4340235"><ele>361.0</ele><time>2026-05-02T13:33:49.307Z</time></trkpt><trkpt lat="46.149962" lon="13.4339808"><ele>361.0</ele><time>2026-05-02T13:33:50.306Z</time></trkpt><trkpt lat="46.1500336" lon="13.4339106"><ele>361.0</ele><time>2026-05-02T13:33:51.307Z</time></trkpt><trkpt lat="46.1501103" lon="13.4338324"><ele>361.0</ele><time>2026-05-02T13:33:52.306Z</time></trkpt><trkpt lat="46.1501763" lon="13.4337715"><ele>364.5</ele><time>2026-05-02T13:33:53.307Z</time></trkpt><trkpt lat="46.1502284" lon="13.4337202"><ele>368.0</ele><time>2026-05-02T13:33:54.306Z</time></trkpt><trkpt lat="46.1502948" lon="13.4336797"><ele>371.5</ele><time>2026-05-02T13:33:55.307Z</time></trkpt><trkpt lat="46.150351" lon="13.4336348"><ele>375.0</ele><time>2026-05-02T13:33:56.307Z</time></trkpt><trkpt lat="46.1504529" lon="13.433531"><ele>378.5</ele><time>2026-05-02T13:33:58.307Z</time></trkpt><trkpt lat="46.1505011" lon="13.4334711"><ele>382.0</ele><time>2026-05-02T13:33:59.306Z</time></trkpt><trkpt lat="46.1505792" lon="13.4333502"><ele>382.0</ele><time>2026-05-02T13:34:01.307Z</time></trkpt><trkpt lat="46.1506682" lon="13.4332176"><ele>382.0</ele><time>2026-05-02T13:34:03.306Z</time></trkpt><trkpt lat="46.1507019" lon="13.4331069"><ele>382.0</ele><time>2026-05-02T13:34:04.307Z</time></trkpt><trkpt lat="46.1507258" lon="13.4329723"><ele>382.0</ele><time>2026-05-02T13:34:05.307Z</time></trkpt><trkpt lat="46.1507478" lon="13.4328245"><ele>382.0</ele><time>2026-05-02T13:34:06.306Z</time></trkpt><trkpt lat="46.1507778" lon="13.4326599"><ele>381.16666666666663</ele><time>2026-05-02T13:34:07.307Z</time></trkpt><trkpt lat="46.1507976" lon="13.4325075"><ele>380.3333333333333</ele><time>2026-05-02T13:34:08.307Z</time></trkpt><trkpt lat="46.1508101" lon="13.4323812"><ele>379.5</ele><time>2026-05-02T13:34:09.306Z</time></trkpt><trkpt lat="46.1508053" lon="13.4322411"><ele>378.6666666666667</ele><time>2026-05-02T13:34:10.306Z</time></trkpt><trkpt lat="46.1508042" lon="13.4321395"><ele>377.83333333333337</ele><time>2026-05-02T13:34:11.307Z</time></trkpt><trkpt lat="46.1508162" lon="13.4320347"><ele>377.0</ele><time>2026-05-02T13:34:12.307Z</time></trkpt><trkpt lat="46.15083" lon="13.4319425"><ele>378.83333333333337</ele><time>2026-05-02T13:34:13.306Z</time></trkpt><trkpt lat="46.1508589" lon="13.4318199"><ele>380.6666666666667</ele><time>2026-05-02T13:34:15.307Z</time></trkpt><trkpt lat="46.1508558" lon="13.431686"><ele>382.5</ele><time>2026-05-02T13:34:17.306Z</time></trkpt><trkpt lat="46.1508097" lon="13.4315759"><ele>384.33333333333337</ele><time>2026-05-02T13:34:19.307Z</time></trkpt><trkpt lat="46.1507667" lon="13.4314717"><ele>386.1666666666667</ele><time>2026-05-02T13:34:20.307Z</time></trkpt><trkpt lat="46.1507344" lon="13.4313647"><ele>388.0</ele><time>2026-05-02T13:34:21.306Z</time></trkpt><trkpt lat="46.15071" lon="13.4312683"><ele>389.33333333333337</ele><time>2026-05-02T13:34:22.306Z</time></trkpt><trkpt lat="46.150699" lon="13.4311783"><ele>390.6666666666667</ele><time>2026-05-02T13:34:23.306Z</time></trkpt><trkpt lat="46.1507145" lon="13.4310738"><ele>392.0</ele><time>2026-05-02T13:34:24.306Z</time></trkpt><trkpt lat="46.1507208" lon="13.4309824"><ele>393.33333333333337</ele><time>2026-05-02T13:34:25.307Z</time></trkpt><trkpt lat="46.1507602" lon="13.4308253"><ele>394.6666666666667</ele><time>2026-05-02T13:34:27.307Z</time></trkpt><trkpt lat="46.1508422" lon="13.4306927"><ele>396.0</ele><time>2026-05-02T13:34:29.306Z</time></trkpt><trkpt lat="46.1508885" lon="13.4306199"><ele>396.0</ele><time>2026-05-02T13:34:30.306Z</time></trkpt><trkpt lat="46.1509264" lon="13.4305422"><ele>396.0</ele><time>2026-05-02T13:34:31.306Z</time></trkpt><trkpt lat="46.1509581" lon="13.430463"><ele>396.0</ele><time>2026-05-02T13:34:32.307Z</time></trkpt><trkpt lat="46.1509992" lon="13.430368"><ele>396.0</ele><time>2026-05-02T13:34:33.306Z</time></trkpt><trkpt lat="46.1510414" lon="13.430276"><ele>396.0</ele><time>2026-05-02T13:34:34.306Z</time></trkpt><trkpt lat="46.1510845" lon="13.4301788"><ele>396.0</ele><time>2026-05-02T13:34:35.307Z</time></trkpt><trkpt lat="46.1511252" lon="13.4300931"><ele>396.0</ele><time>2026-05-02T13:34:36.306Z</time></trkpt><trkpt lat="46.1511607" lon="13.4299966"><ele>399.3333333333333</ele><time>2026-05-02T13:34:37.306Z</time></trkpt><trkpt lat="46.1511995" lon="13.4298837"><ele>402.66666666666663</ele><time>2026-05-02T13:34:38.306Z</time></trkpt><trkpt lat="46.1512508" lon="13.4297626"><ele>406.0</ele><time>2026-05-02T13:34:39.306Z</time></trkpt><trkpt lat="46.1512902" lon="13.4296576"><ele>409.3333333333333</ele><time>2026-05-02T13:34:40.307Z</time></trkpt><trkpt lat="46.1513359" lon="13.4295655"><ele>412.66666666666663</ele><time>2026-05-02T13:34:41.306Z</time></trkpt><trkpt lat="46.1513855" lon="13.4294781"><ele>416.0</ele><time>2026-05-02T13:34:42.307Z</time></trkpt><trkpt lat="46.1514245" lon="13.4294063"><ele>413.8</ele><time>2026-05-02T13:34:43.306Z</time></trkpt><trkpt lat="46.1514948" lon="13.4292859"><ele>411.6</ele><time>2026-05-02T13:34:45.306Z</time></trkpt><trkpt lat="46.1515659" lon="13.4292772"><ele>409.4</ele><time>2026-05-02T13:34:47.307Z</time></trkpt><trkpt lat="46.1516356" lon="13.4293482"><ele>407.2</ele><time>2026-05-02T13:34:50.307Z</time></trkpt><trkpt lat="46.1516424" lon="13.4294943"><ele>405.0</ele><time>2026-05-02T13:34:53.306Z</time></trkpt><trkpt lat="46.1516748" lon="13.4296621"><ele>402.0</ele><time>2026-05-02T13:34:55.307Z</time></trkpt><trkpt lat="46.15172" lon="13.4297713"><ele>399.0</ele><time>2026-05-02T13:34:56.306Z</time></trkpt><trkpt lat="46.1517806" lon="13.429874"><ele>396.0</ele><time>2026-05-02T13:34:57.307Z</time></trkpt><trkpt lat="46.1518395" lon="13.4299779"><ele>393.0</ele><time>2026-05-02T13:34:58.306Z</time></trkpt><trkpt lat="46.1518923" lon="13.4300743"><ele>390.0</ele><time>2026-05-02T13:34:59.306Z</time></trkpt><trkpt lat="46.1519566" lon="13.4301681"><ele>390.0</ele><time>2026-05-02T13:35:00.306Z</time></trkpt><trkpt lat="46.1520225" lon="13.4302551"><ele>390.0</ele><time>2026-05-02T13:35:01.306Z</time></trkpt><trkpt lat="46.1520858" lon="13.4303452"><ele>390.0</ele><time>2026-05-02T13:35:02.306Z</time></trkpt><trkpt lat="46.15215" lon="13.4304408"><ele>390.0</ele><time>2026-05-02T13:35:03.307Z</time></trkpt><trkpt lat="46.1522165" lon="13.4305069"><ele>390.0</ele><time>2026-05-02T13:35:04.306Z</time></trkpt><trkpt lat="46.1523225" lon="13.4305794"><ele>389.0</ele><time>2026-05-02T13:35:06.307Z</time></trkpt><trkpt lat="46.15243" lon="13.4305416"><ele>388.0</ele><time>2026-05-02T13:35:08.306Z</time></trkpt><trkpt lat="46.152502" lon="13.4304939"><ele>387.0</ele><time>2026-05-02T13:35:09.306Z</time></trkpt><trkpt lat="46.1525668" lon="13.4304458"><ele>386.0</ele><time>2026-05-02T13:35:10.306Z</time></trkpt><trkpt lat="46.1526487" lon="13.4304075"><ele>385.0</ele><time>2026-05-02T13:35:11.307Z</time></trkpt><trkpt lat="46.1527309" lon="13.4303934"><ele>384.0</ele><time>2026-05-02T13:35:12.306Z</time></trkpt><trkpt lat="46.1528083" lon="13.4303925"><ele>388.1666666666667</ele><time>2026-05-02T13:35:13.306Z</time></trkpt><trkpt lat="46.1528908" lon="13.4303954"><ele>392.33333333333337</ele><time>2026-05-02T13:35:14.307Z</time></trkpt><trkpt lat="46.1529866" lon="13.4303882"><ele>396.5</ele><time>2026-05-02T13:35:15.307Z</time></trkpt><trkpt lat="46.1530734" lon="13.4303774"><ele>400.6666666666667</ele><time>2026-05-02T13:35:16.306Z</time></trkpt><trkpt lat="46.1531631" lon="13.4303588"><ele>404.83333333333337</ele><time>2026-05-02T13:35:17.307Z</time></trkpt><trkpt lat="46.1532396" lon="13.4303299"><ele>409.0</ele><time>2026-05-02T13:35:18.306Z</time></trkpt><trkpt lat="46.1533146" lon="13.4302978"><ele>410.00000000000006</ele><time>2026-05-02T13:35:19.306Z</time></trkpt><trkpt lat="46.1534266" lon="13.4302581"><ele>411.0</ele><time>2026-05-02T13:35:21.306Z</time></trkpt><trkpt lat="46.1535116" lon="13.4303189"><ele>412.0</ele><time>2026-05-02T13:35:23.306Z</time></trkpt><trkpt lat="46.1535369" lon="13.4304062"><ele>413.0</ele><time>2026-05-02T13:35:24.307Z</time></trkpt><trkpt lat="46.153564" lon="13.4305004"><ele>414.00000000000006</ele><time>2026-05-02T13:35:25.307Z</time></trkpt><trkpt lat="46.1536059" lon="13.4306146"><ele>415.0</ele><time>2026-05-02T13:35:27.306Z</time></trkpt><trkpt lat="46.1536907" lon="13.4306167"><ele>411.6</ele><time>2026-05-02T13:35:39.306Z</time></trkpt><trkpt lat="46.1538006" lon="13.4306275"><ele>408.2</ele><time>2026-05-02T13:35:41.306Z</time></trkpt><trkpt lat="46.1539286" lon="13.4306194"><ele>404.79999999999995</ele><time>2026-05-02T13:35:43.307Z</time></trkpt><trkpt lat="46.1539908" lon="13.4305892"><ele>401.4</ele><time>2026-05-02T13:35:44.307Z</time></trkpt><trkpt lat="46.1541094" lon="13.4305274"><ele>398.0</ele><time>2026-05-02T13:35:46.307Z</time></trkpt><trkpt lat="46.1541734" lon="13.4304861"><ele>402.3333333333333</ele><time>2026-05-02T13:35:47.307Z</time></trkpt><trkpt lat="46.1542207" lon="13.4304235"><ele>406.66666666666663</ele><time>2026-05-02T13:35:48.306Z</time></trkpt><trkpt lat="46.1542702" lon="13.4303521"><ele>411.0</ele><time>2026-05-02T13:35:49.307Z</time></trkpt><trkpt lat="46.1543351" lon="13.4302733"><ele>415.33333333333337</ele><time>2026-05-02T13:35:50.307Z</time></trkpt><trkpt lat="46.1543973" lon="13.4301913"><ele>419.6666666666667</ele><time>2026-05-02T13:35:51.307Z</time></trkpt><trkpt lat="46.1544735" lon="13.4301304"><ele>424.0</ele><time>2026-05-02T13:35:52.306Z</time></trkpt><trkpt lat="46.1545623" lon="13.4300699"><ele>424.00000000000006</ele><time>2026-05-02T13:35:53.307Z</time></trkpt><trkpt lat="46.1546624" lon="13.4300037"><ele>424.0</ele><time>2026-05-02T13:35:54.307Z</time></trkpt><trkpt lat="46.1547379" lon="13.4299365"><ele>424.0</ele><time>2026-05-02T13:35:55.306Z</time></trkpt><trkpt lat="46.1548183" lon="13.4298696"><ele>424.0</ele><time>2026-05-02T13:35:56.307Z</time></trkpt><trkpt lat="46.1548803" lon="13.4298054"><ele>424.00000000000006</ele><time>2026-05-02T13:35:57.307Z</time></trkpt><trkpt lat="46.1549402" lon="13.4297561"><ele>424.0</ele><time>2026-05-02T13:35:58.307Z</time></trkpt><trkpt lat="46.1550071" lon="13.4297109"><ele>422.6666666666667</ele><time>2026-05-02T13:35:59.307Z</time></trkpt><trkpt lat="46.1550781" lon="13.4296751"><ele>421.33333333333337</ele><time>2026-05-02T13:36:00.306Z</time></trkpt><trkpt lat="46.1551428" lon="13.4296461"><ele>420.0</ele><time>2026-05-02T13:36:01.307Z</time></trkpt><trkpt lat="46.1552055" lon="13.4296061"><ele>418.66666666666663</ele><time>2026-05-02T13:36:02.307Z</time></trkpt><trkpt lat="46.1553059" lon="13.4294733"><ele>417.3333333333333</ele><time>2026-05-02T13:36:04.307Z</time></trkpt><trkpt lat="46.1553552" lon="13.4293905"><ele>416.0</ele><time>2026-05-02T13:36:05.307Z</time></trkpt><trkpt lat="46.1553957" lon="13.4292944"><ele>421.1428571428571</ele><time>2026-05-02T13:36:06.307Z</time></trkpt><trkpt lat="46.155435" lon="13.4291994"><ele>426.28571428571433</ele><time>2026-05-02T13:36:07.306Z</time></trkpt><trkpt lat="46.1554583" lon="13.4291053"><ele>431.42857142857144</ele><time>2026-05-02T13:36:08.306Z</time></trkpt><trkpt lat="46.1554988" lon="13.4290167"><ele>436.57142857142856</ele><time>2026-05-02T13:36:09.307Z</time></trkpt><trkpt lat="46.1555481" lon="13.428943"><ele>441.71428571428567</ele><time>2026-05-02T13:36:10.306Z</time></trkpt><trkpt lat="46.1555946" lon="13.4288665"><ele>446.8571428571429</ele><time>2026-05-02T13:36:11.306Z</time></trkpt><trkpt lat="46.1556378" lon="13.4287765"><ele>452.0</ele><time>2026-05-02T13:36:12.307Z</time></trkpt><trkpt lat="46.1556741" lon="13.4286746"><ele>450.99999999999994</ele><time>2026-05-02T13:36:13.306Z</time></trkpt><trkpt lat="46.1557081" lon="13.4285835"><ele>450.0</ele><time>2026-05-02T13:36:14.306Z</time></trkpt><trkpt lat="46.1557261" lon="13.4284933"><ele>449.0</ele><time>2026-05-02T13:36:15.306Z</time></trkpt><trkpt lat="46.1557485" lon="13.4283991"><ele>448.0</ele><time>2026-05-02T13:36:16.306Z</time></trkpt><trkpt lat="46.1557789" lon="13.4283151"><ele>446.99999999999994</ele><time>2026-05-02T13:36:17.306Z</time></trkpt><trkpt lat="46.1558406" lon="13.4281778"><ele>446.0</ele><time>2026-05-02T13:36:19.306Z</time></trkpt><trkpt lat="46.1559157" lon="13.4280897"><ele>445.99999999999994</ele><time>2026-05-02T13:36:21.306Z</time></trkpt><trkpt lat="46.1559947" lon="13.4280651"><ele>446.0</ele><time>2026-05-02T13:36:22.307Z</time></trkpt><trkpt lat="46.15609" lon="13.4280678"><ele>446.0</ele><time>2026-05-02T13:36:23.307Z</time></trkpt><trkpt lat="46.1561733" lon="13.428051"><ele>446.0</ele><time>2026-05-02T13:36:24.306Z</time></trkpt><trkpt lat="46.1562649" lon="13.4280242"><ele>445.99999999999994</ele><time>2026-05-02T13:36:25.306Z</time></trkpt><trkpt lat="46.1563496" lon="13.4279922"><ele>446.0</ele><time>2026-05-02T13:36:26.306Z</time></trkpt><trkpt lat="46.1564384" lon="13.4279588"><ele>447.99999999999994</ele><time>2026-05-02T13:36:27.306Z</time></trkpt><trkpt lat="46.1565005" lon="13.4279265"><ele>450.0</ele><time>2026-05-02T13:36:28.307Z</time></trkpt><trkpt lat="46.1565687" lon="13.4278888"><ele>452.0</ele><time>2026-05-02T13:36:29.307Z</time></trkpt><trkpt lat="46.1566324" lon="13.427865"><ele>454.0</ele><time>2026-05-02T13:36:30.306Z</time></trkpt><trkpt lat="46.1567214" lon="13.4277698"><ele>455.99999999999994</ele><time>2026-05-02T13:36:32.307Z</time></trkpt><trkpt lat="46.1567665" lon="13.4277044"><ele>458.0</ele><time>2026-05-02T13:36:33.307Z</time></trkpt><trkpt lat="46.1568339" lon="13.4275462"><ele>458.0</ele><time>2026-05-02T13:36:35.306Z</time></trkpt><trkpt lat="46.1568748" lon="13.4274655"><ele>458.0</ele><time>2026-05-02T13:36:36.306Z</time></trkpt><trkpt lat="46.1569076" lon="13.4273826"><ele>458.0</ele><time>2026-05-02T13:36:37.307Z</time></trkpt><trkpt lat="46.1569446" lon="13.4272917"><ele>458.0</ele><time>2026-05-02T13:36:38.306Z</time></trkpt><trkpt lat="46.156982" lon="13.4271965"><ele>458.0</ele><time>2026-05-02T13:36:39.307Z</time></trkpt><trkpt lat="46.1570256" lon="13.4271163"><ele>458.0</ele><time>2026-05-02T13:36:40.307Z</time></trkpt><trkpt lat="46.1570719" lon="13.4270502"><ele>458.0</ele><time>2026-05-02T13:36:41.306Z</time></trkpt><trkpt lat="46.1571619" lon="13.4269604"><ele>461.49999999999994</ele><time>2026-05-02T13:36:43.307Z</time></trkpt><trkpt lat="46.1572805" lon="13.4269182"><ele>465.0</ele><time>2026-05-02T13:36:45.306Z</time></trkpt><trkpt lat="46.1573436" lon="13.4268844"><ele>468.5</ele><time>2026-05-02T13:36:46.307Z</time></trkpt><trkpt lat="46.1574064" lon="13.4268533"><ele>472.0</ele><time>2026-05-02T13:36:47.307Z</time></trkpt><trkpt lat="46.1574701" lon="13.4268254"><ele>475.49999999999994</ele><time>2026-05-02T13:36:48.307Z</time></trkpt><trkpt lat="46.1575837" lon="13.4267701"><ele>479.0</ele><time>2026-05-02T13:36:50.307Z</time></trkpt><trkpt lat="46.1576846" lon="13.4267053"><ele>479.0</ele><time>2026-05-02T13:36:52.306Z</time></trkpt><trkpt lat="46.1577935" lon="13.4266886"><ele>479.0</ele><time>2026-05-02T13:36:54.307Z</time></trkpt><trkpt lat="46.1578804" lon="13.4267099"><ele>479.0</ele><time>2026-05-02T13:36:55.306Z</time></trkpt><trkpt lat="46.1579946" lon="13.4267476"><ele>479.0</ele><time>2026-05-02T13:36:56.306Z</time></trkpt><trkpt lat="46.1580774" lon="13.4267847"><ele>479.0</ele><time>2026-05-02T13:36:57.306Z</time></trkpt><trkpt lat="46.158158" lon="13.4268229"><ele>478.2857142857143</ele><time>2026-05-02T13:36:58.307Z</time></trkpt><trkpt lat="46.1582276" lon="13.4268642"><ele>477.57142857142856</ele><time>2026-05-02T13:36:59.307Z</time></trkpt><trkpt lat="46.1582938" lon="13.4268912"><ele>476.85714285714283</ele><time>2026-05-02T13:37:00.307Z</time></trkpt><trkpt lat="46.1583565" lon="13.4269098"><ele>476.1428571428571</ele><time>2026-05-02T13:37:01.307Z</time></trkpt><trkpt lat="46.1584323" lon="13.4269362"><ele>475.42857142857144</ele><time>2026-05-02T13:37:02.307Z</time></trkpt><trkpt lat="46.1585071" lon="13.4269548"><ele>474.71428571428567</ele><time>2026-05-02T13:37:03.307Z</time></trkpt><trkpt lat="46.1585744" lon="13.4269738"><ele>473.99999999999994</ele><time>2026-05-02T13:37:04.307Z</time></trkpt><trkpt lat="46.1586899" lon="13.4269735"><ele>474.0</ele><time>2026-05-02T13:37:06.306Z</time></trkpt><trkpt lat="46.1587829" lon="13.4269229"><ele>474.0</ele><time>2026-05-02T13:37:08.306Z</time></trkpt><trkpt lat="46.1588482" lon="13.4268117"><ele>474.0</ele><time>2026-05-02T13:37:10.307Z</time></trkpt><trkpt lat="46.1588846" lon="13.4267323"><ele>474.0</ele><time>2026-05-02T13:37:11.306Z</time></trkpt><trkpt lat="46.1589435" lon="13.4266245"><ele>474.0</ele><time>2026-05-02T13:37:12.306Z</time></trkpt><trkpt lat="46.1589961" lon="13.426516"><ele>474.3333333333333</ele><time>2026-05-02T13:37:13.306Z</time></trkpt><trkpt lat="46.159049" lon="13.4264067"><ele>474.66666666666663</ele><time>2026-05-02T13:37:14.307Z</time></trkpt><trkpt lat="46.1590692" lon="13.4263094"><ele>475.0</ele><time>2026-05-02T13:37:15.306Z</time></trkpt><trkpt lat="46.1590833" lon="13.426212"><ele>475.3333333333333</ele><time>2026-05-02T13:37:16.307Z</time></trkpt><trkpt lat="46.1591099" lon="13.4260934"><ele>475.66666666666663</ele><time>2026-05-02T13:37:17.306Z</time></trkpt><trkpt lat="46.1591252" lon="13.4259926"><ele>476.0</ele><time>2026-05-02T13:37:18.306Z</time></trkpt><trkpt lat="46.159141" lon="13.425869"><ele>475.99999999999994</ele><time>2026-05-02T13:37:19.306Z</time></trkpt><trkpt lat="46.1591382" lon="13.4257451"><ele>476.0</ele><time>2026-05-02T13:37:20.307Z</time></trkpt><trkpt lat="46.1591355" lon="13.4256079"><ele>476.0</ele><time>2026-05-02T13:37:21.306Z</time></trkpt><trkpt lat="46.1591409" lon="13.4254811"><ele>476.0</ele><time>2026-05-02T13:37:22.306Z</time></trkpt><trkpt lat="46.159151" lon="13.4253637"><ele>475.99999999999994</ele><time>2026-05-02T13:37:23.307Z</time></trkpt><trkpt lat="46.1591603" lon="13.4252443"><ele>476.0</ele><time>2026-05-02T13:37:24.307Z</time></trkpt><trkpt lat="46.1591627" lon="13.4251387"><ele>478.0</ele><time>2026-05-02T13:37:25.306Z</time></trkpt><trkpt lat="46.1591553" lon="13.4249602"><ele>480.0</ele><time>2026-05-02T13:37:27.306Z</time></trkpt><trkpt lat="46.1591403" lon="13.4247998"><ele>482.0</ele><time>2026-05-02T13:37:29.307Z</time></trkpt><trkpt lat="46.1591269" lon="13.4246453"><ele>484.0</ele><time>2026-05-02T13:37:31.306Z</time></trkpt><trkpt lat="46.1591719" lon="13.424514"><ele>486.0</ele><time>2026-05-02T13:37:33.306Z</time></trkpt><trkpt lat="46.1592255" lon="13.4244303"><ele>488.3333333333333</ele><time>2026-05-02T13:37:35.306Z</time></trkpt><trkpt lat="46.159303" lon="13.42431"><ele>490.66666666666663</ele><time>2026-05-02T13:37:37.307Z</time></trkpt><trkpt lat="46.1593364" lon="13.42422"><ele>493.0</ele><time>2026-05-02T13:37:38.306Z</time></trkpt><trkpt lat="46.1593604" lon="13.4241192"><ele>495.3333333333333</ele><time>2026-05-02T13:37:39.306Z</time></trkpt><trkpt lat="46.1593752" lon="13.4240306"><ele>497.66666666666663</ele><time>2026-05-02T13:37:40.307Z</time></trkpt><trkpt lat="46.1593988" lon="13.4238662"><ele>500.0</ele><time>2026-05-02T13:37:42.307Z</time></trkpt><trkpt lat="46.1593771" lon="13.4236912"><ele>500.4</ele><time>2026-05-02T13:37:44.306Z</time></trkpt><trkpt lat="46.1593625" lon="13.423545"><ele>500.8</ele><time>2026-05-02T13:37:46.306Z</time></trkpt><trkpt lat="46.1593422" lon="13.4233988"><ele>501.20000000000005</ele><time>2026-05-02T13:37:49.307Z</time></trkpt><trkpt lat="46.1592865" lon="13.423248"><ele>501.6</ele><time>2026-05-02T13:37:51.306Z</time></trkpt><trkpt lat="46.1592466" lon="13.4230979"><ele>502.0</ele><time>2026-05-02T13:37:53.306Z</time></trkpt><trkpt lat="46.1591459" lon="13.4229662"><ele>499.6</ele><time>2026-05-02T13:37:55.307Z</time></trkpt><trkpt lat="46.1591067" lon="13.4228658"><ele>497.20000000000005</ele><time>2026-05-02T13:37:56.306Z</time></trkpt><trkpt lat="46.1590922" lon="13.4227025"><ele>494.8</ele><time>2026-05-02T13:37:58.306Z</time></trkpt><trkpt lat="46.1590948" lon="13.4225865"><ele>492.4</ele><time>2026-05-02T13:37:59.306Z</time></trkpt><trkpt lat="46.1590732" lon="13.4224865"><ele>490.0</ele><time>2026-05-02T13:38:00.306Z</time></trkpt><trkpt lat="46.1590411" lon="13.4223106"><ele>490.00000000000006</ele><time>2026-05-02T13:38:02.306Z</time></trkpt><trkpt lat="46.1590377" lon="13.42221"><ele>490.0</ele><time>2026-05-02T13:38:03.306Z</time></trkpt><trkpt lat="46.1590593" lon="13.4221175"><ele>490.0</ele><time>2026-05-02T13:38:04.306Z</time></trkpt><trkpt lat="46.1591009" lon="13.4219392"><ele>490.0</ele><time>2026-05-02T13:38:06.306Z</time></trkpt><trkpt lat="46.1591018" lon="13.4218415"><ele>490.00000000000006</ele><time>2026-05-02T13:38:07.307Z</time></trkpt><trkpt lat="46.1591042" lon="13.4217401"><ele>490.0</ele><time>2026-05-02T13:38:08.307Z</time></trkpt><trkpt lat="46.1591192" lon="13.4216069"><ele>490.50000000000006</ele><time>2026-05-02T13:38:10.306Z</time></trkpt><trkpt lat="46.1590752" lon="13.4214777"><ele>491.0</ele><time>2026-05-02T13:38:12.306Z</time></trkpt><trkpt lat="46.1590483" lon="13.4213854"><ele>491.5</ele><time>2026-05-02T13:38:13.307Z</time></trkpt><trkpt lat="46.1589878" lon="13.421323"><ele>492.0</ele><time>2026-05-02T13:38:14.306Z</time></trkpt><trkpt lat="46.1589322" lon="13.421243"><ele>492.50000000000006</ele><time>2026-05-02T13:38:15.306Z</time></trkpt><trkpt lat="46.158909" lon="13.4211448"><ele>493.0</ele><time>2026-05-02T13:38:17.306Z</time></trkpt><trkpt lat="46.1589681" lon="13.4210405"><ele>495.50000000000006</ele><time>2026-05-02T13:38:19.306Z</time></trkpt><trkpt lat="46.1590119" lon="13.420975"><ele>498.0</ele><time>2026-05-02T13:38:20.306Z</time></trkpt><trkpt lat="46.1590723" lon="13.4208909"><ele>500.5</ele><time>2026-05-02T13:38:21.307Z</time></trkpt><trkpt lat="46.1591322" lon="13.4208144"><ele>503.0</ele><time>2026-05-02T13:38:22.306Z</time></trkpt><trkpt lat="46.1591954" lon="13.4207417"><ele>505.50000000000006</ele><time>2026-05-02T13:38:23.306Z</time></trkpt><trkpt lat="46.1592575" lon="13.4206765"><ele>508.0</ele><time>2026-05-02T13:38:24.307Z</time></trkpt><trkpt lat="46.1593225" lon="13.4205916"><ele>508.00000000000006</ele><time>2026-05-02T13:38:25.307Z</time></trkpt><trkpt lat="46.1593822" lon="13.4205106"><ele>508.0</ele><time>2026-05-02T13:38:26.307Z</time></trkpt><trkpt lat="46.1594274" lon="13.4204357"><ele>508.0</ele><time>2026-05-02T13:38:27.307Z</time></trkpt><trkpt lat="46.1594726" lon="13.4203383"><ele>508.0</ele><time>2026-05-02T13:38:28.306Z</time></trkpt><trkpt lat="46.1595283" lon="13.4202628"><ele>508.00000000000006</ele><time>2026-05-02T13:38:29.306Z</time></trkpt><trkpt lat="46.1595919" lon="13.4201678"><ele>508.0</ele><time>2026-05-02T13:38:30.307Z</time></trkpt><trkpt lat="46.1596391" lon="13.4200813"><ele>511.50000000000006</ele><time>2026-05-02T13:38:31.306Z</time></trkpt><trkpt lat="46.1596873" lon="13.4199964"><ele>515.0</ele><time>2026-05-02T13:38:32.307Z</time></trkpt><trkpt lat="46.1597305" lon="13.4199089"><ele>518.5</ele><time>2026-05-02T13:38:33.307Z</time></trkpt><trkpt lat="46.1597652" lon="13.4198113"><ele>522.0</ele><time>2026-05-02T13:38:34.306Z</time></trkpt><trkpt lat="46.1598031" lon="13.4196934"><ele>525.5</ele><time>2026-05-02T13:38:35.307Z</time></trkpt><trkpt lat="46.1598267" lon="13.4195894"><ele>529.0</ele><time>2026-05-02T13:38:36.307Z</time></trkpt><trkpt lat="46.1598413" lon="13.4194841"><ele>533.1666666666667</ele><time>2026-05-02T13:38:37.307Z</time></trkpt><trkpt lat="46.1598596" lon="13.4193732"><ele>537.3333333333334</ele><time>2026-05-02T13:38:38.307Z</time></trkpt><trkpt lat="46.1598793" lon="13.4192691"><ele>541.5</ele><time>2026-05-02T13:38:39.307Z</time></trkpt><trkpt lat="46.1599045" lon="13.4191653"><ele>545.6666666666666</ele><time>2026-05-02T13:38:40.307Z</time></trkpt><trkpt lat="46.1599183" lon="13.4190527"><ele>549.8333333333333</ele><time>2026-05-02T13:38:41.307Z</time></trkpt><trkpt lat="46.1599415" lon="13.4189459"><ele>554.0</ele><time>2026-05-02T13:38:42.307Z</time></trkpt><trkpt lat="46.1599721" lon="13.4188347"><ele>543.0</ele><time>2026-05-02T13:38:43.307Z</time></trkpt><trkpt lat="46.1600064" lon="13.4187073"><ele>532.0</ele><time>2026-05-02T13:38:44.306Z</time></trkpt><trkpt lat="46.1600355" lon="13.4185843"><ele>521.0</ele><time>2026-05-02T13:38:45.307Z</time></trkpt><trkpt lat="46.1600593" lon="13.4184772"><ele>510.0</ele><time>2026-05-02T13:38:46.307Z</time></trkpt><trkpt lat="46.1590752" lon="13.4214777"><ele>507.1666666666667</ele><time>2026-05-02T13:38:12.306Z</time></trkpt><trkpt lat="46.1590483" lon="13.4213854"><ele>504.33333333333337</ele><time>2026-05-02T13:38:13.307Z</time></trkpt><trkpt lat="46.1589878" lon="13.421323"><ele>501.5</ele><time>2026-05-02T13:38:14.306Z</time></trkpt><trkpt lat="46.1589322" lon="13.421243"><ele>498.6666666666667</ele><time>2026-05-02T13:38:15.306Z</time></trkpt><trkpt lat="46.158909" lon="13.4211448"><ele>495.83333333333337</ele><time>2026-05-02T13:38:17.306Z</time></trkpt><trkpt lat="46.1589681" lon="13.4210405"><ele>493.0</ele><time>2026-05-02T13:38:19.306Z</time></trkpt><trkpt lat="46.1590119" lon="13.420975"><ele>495.50000000000006</ele><time>2026-05-02T13:38:20.306Z</time></trkpt><trkpt lat="46.1590723" lon="13.4208909"><ele>498.0</ele><time>2026-05-02T13:38:21.307Z</time></trkpt><trkpt lat="46.1591322" lon="13.4208144"><ele>500.5</ele><time>2026-05-02T13:38:22.306Z</time></trkpt><trkpt lat="46.1591954" lon="13.4207417"><ele>503.0</ele><time>2026-05-02T13:38:23.306Z</time></trkpt><trkpt lat="46.1592575" lon="13.4206765"><ele>505.50000000000006</ele><time>2026-05-02T13:38:24.307Z</time></trkpt><trkpt lat="46.1593225" lon="13.4205916"><ele>508.0</ele><time>2026-05-02T13:38:25.307Z</time></trkpt><trkpt lat="46.1593822" lon="13.4205106"><ele>511.50000000000006</ele><time>2026-05-02T13:38:26.307Z</time></trkpt><trkpt lat="46.1594274" lon="13.4204357"><ele>515.0</ele><time>2026-05-02T13:38:27.307Z</time></trkpt><trkpt lat="46.1594726" lon="13.4203383"><ele>518.5</ele><time>2026-05-02T13:38:28.306Z</time></trkpt><trkpt lat="46.1595283" lon="13.4202628"><ele>522.0</ele><time>2026-05-02T13:38:29.306Z</time></trkpt><trkpt lat="46.1595919" lon="13.4201678"><ele>525.5</ele><time>2026-05-02T13:38:30.307Z</time></trkpt><trkpt lat="46.1596391" lon="13.4200813"><ele>529.0</ele><time>2026-05-02T13:38:31.306Z</time></trkpt><trkpt lat="46.1596873" lon="13.4199964"><ele>529.0</ele><time>2026-05-02T13:38:32.307Z</time></trkpt><trkpt lat="46.1597305" lon="13.4199089"><ele>529.0</ele><time>2026-05-02T13:38:33.307Z</time></trkpt><trkpt lat="46.1597652" lon="13.4198113"><ele>529.0</ele><time>2026-05-02T13:38:34.306Z</time></trkpt><trkpt lat="46.1598031" lon="13.4196934"><ele>529.0</ele><time>2026-05-02T13:38:35.307Z</time></trkpt><trkpt lat="46.1598267" lon="13.4195894"><ele>529.0</ele><time>2026-05-02T13:38:36.307Z</time></trkpt><trkpt lat="46.1598413" lon="13.4194841"><ele>529.0</ele><time>2026-05-02T13:38:37.307Z</time></trkpt><trkpt lat="46.1598596" lon="13.4193732"><ele>525.8333333333334</ele><time>2026-05-02T13:38:38.307Z</time></trkpt><trkpt lat="46.1598793" lon="13.4192691"><ele>522.6666666666667</ele><time>2026-05-02T13:38:39.307Z</time></trkpt><trkpt lat="46.1599045" lon="13.4191653"><ele>519.5</ele><time>2026-05-02T13:38:40.307Z</time></trkpt><trkpt lat="46.1599183" lon="13.4190527"><ele>516.3333333333334</ele><time>2026-05-02T13:38:41.307Z</time></trkpt><trkpt lat="46.1599415" lon="13.4189459"><ele>513.1666666666666</ele><time>2026-05-02T13:38:42.307Z</time></trkpt><trkpt lat="46.1599721" lon="13.4188347"><ele>510.0</ele><time>2026-05-02T13:38:43.307Z</time></trkpt><trkpt lat="46.1600064" lon="13.4187073"><ele>510.0</ele><time>2026-05-02T13:38:44.306Z</time></trkpt><trkpt lat="46.1600355" lon="13.4185843"><ele>510.0</ele><time>2026-05-02T13:38:45.307Z</time></trkpt><trkpt lat="46.1600593" lon="13.4184772"><ele>510.0</ele><time>2026-05-02T13:38:46.307Z</time></trkpt><trkpt lat="46.1600847" lon="13.4183847"><ele>510.0</ele><time>2026-05-02T13:38:47.306Z</time></trkpt><trkpt lat="46.160127" lon="13.4182087"><ele>510.0</ele><time>2026-05-02T13:38:49.307Z</time></trkpt><trkpt lat="46.1601585" lon="13.418115"><ele>510.0</ele><time>2026-05-02T13:38:51.306Z</time></trkpt><trkpt lat="46.1602295" lon="13.4181554"><ele>510.0</ele><time>2026-05-02T13:38:54.307Z</time></trkpt><trkpt lat="46.1602562" lon="13.4183143"><ele>510.0</ele><time>2026-05-02T13:38:56.307Z</time></trkpt><trkpt lat="46.1602563" lon="13.4184129"><ele>510.0</ele><time>2026-05-02T13:38:57.306Z</time></trkpt><trkpt lat="46.160265" lon="13.4185258"><ele>510.0</ele><time>2026-05-02T13:38:58.306Z</time></trkpt><trkpt lat="46.1602756" lon="13.4186499"><ele>510.0</ele><time>2026-05-02T13:38:59.306Z</time></trkpt><trkpt lat="46.1602996" lon="13.4187815"><ele>510.0</ele><time>2026-05-02T13:39:00.306Z</time></trkpt><trkpt lat="46.1603343" lon="13.4189185"><ele>508.1666666666667</ele><time>2026-05-02T13:39:01.306Z</time></trkpt><trkpt lat="46.1603698" lon="13.4190609"><ele>506.33333333333337</ele><time>2026-05-02T13:39:02.306Z</time></trkpt><trkpt lat="46.1603965" lon="13.4191775"><ele>504.5</ele><time>2026-05-02T13:39:03.306Z</time></trkpt><trkpt lat="46.1604343" lon="13.4192869"><ele>502.6666666666667</ele><time>2026-05-02T13:39:04.306Z</time></trkpt><trkpt lat="46.1604634" lon="13.4193788"><ele>500.83333333333337</ele><time>2026-05-02T13:39:05.309Z</time></trkpt><trkpt lat="46.1604918" lon="13.4194957"><ele>499.0</ele><time>2026-05-02T13:39:06.309Z</time></trkpt><trkpt lat="46.160519" lon="13.4196076"><ele>497.79999999999995</ele><time>2026-05-02T13:39:07.309Z</time></trkpt><trkpt lat="46.1605358" lon="13.4197083"><ele>496.59999999999997</ele><time>2026-05-02T13:39:08.309Z</time></trkpt><trkpt lat="46.1605513" lon="13.4198851"><ele>495.4</ele><time>2026-05-02T13:39:10.31Z</time></trkpt><trkpt lat="46.1605863" lon="13.4200544"><ele>494.2</ele><time>2026-05-02T13:39:12.309Z</time></trkpt><trkpt lat="46.1606464" lon="13.4201896"><ele>493.0</ele><time>2026-05-02T13:39:14.309Z</time></trkpt><trkpt lat="46.1607079" lon="13.4202946"><ele>493.00000000000006</ele><time>2026-05-02T13:39:16.31Z</time></trkpt><trkpt lat="46.1607559" lon="13.4204386"><ele>493.0</ele><time>2026-05-02T13:39:18.309Z</time></trkpt><trkpt lat="46.1607732" lon="13.4205518"><ele>493.0</ele><time>2026-05-02T13:39:20.309Z</time></trkpt><trkpt lat="46.16084" lon="13.4206403"><ele>493.0</ele><time>2026-05-02T13:39:22.309Z</time></trkpt><trkpt lat="46.1609064" lon="13.4206924"><ele>493.00000000000006</ele><time>2026-05-02T13:39:23.309Z</time></trkpt><trkpt lat="46.1609713" lon="13.4207573"><ele>493.0</ele><time>2026-05-02T13:39:24.308Z</time></trkpt><trkpt lat="46.1610448" lon="13.4208408"><ele>492.79999999999995</ele><time>2026-05-02T13:39:25.308Z</time></trkpt><trkpt lat="46.1611274" lon="13.4209203"><ele>492.59999999999997</ele><time>2026-05-02T13:39:26.308Z</time></trkpt><trkpt lat="46.161229" lon="13.4209902"><ele>492.40000000000003</ele><time>2026-05-02T13:39:27.309Z</time></trkpt><trkpt lat="46.1613247" lon="13.4210457"><ele>492.20000000000005</ele><time>2026-05-02T13:39:28.309Z</time></trkpt><trkpt lat="46.1613953" lon="13.4211004"><ele>492.0</ele><time>2026-05-02T13:39:29.309Z</time></trkpt><trkpt lat="46.161455" lon="13.4211816"><ele>492.0</ele><time>2026-05-02T13:39:30.308Z</time></trkpt><trkpt lat="46.1615178" lon="13.4212591"><ele>492.00000000000006</ele><time>2026-05-02T13:39:31.308Z</time></trkpt><trkpt lat="46.1615822" lon="13.4213548"><ele>492.00000000000006</ele><time>2026-05-02T13:39:32.309Z</time></trkpt><trkpt lat="46.1616313" lon="13.4214767"><ele>492.0</ele><time>2026-05-02T13:39:33.309Z</time></trkpt><trkpt lat="46.1616648" lon="13.4216156"><ele>492.0</ele><time>2026-05-02T13:39:34.309Z</time></trkpt><trkpt lat="46.1616958" lon="13.4217765"><ele>490.25</ele><time>2026-05-02T13:39:35.308Z</time></trkpt><trkpt lat="46.1617443" lon="13.4219421"><ele>488.5</ele><time>2026-05-02T13:39:36.308Z</time></trkpt><trkpt lat="46.1618022" lon="13.4221063"><ele>486.75</ele><time>2026-05-02T13:39:37.308Z</time></trkpt><trkpt lat="46.1618537" lon="13.422248"><ele>485.0</ele><time>2026-05-02T13:39:38.308Z</time></trkpt><trkpt lat="46.1618935" lon="13.4223793"><ele>484.99999999999994</ele><time>2026-05-02T13:39:39.308Z</time></trkpt><trkpt lat="46.1619297" lon="13.4224687"><ele>485.0</ele><time>2026-05-02T13:39:40.309Z</time></trkpt><trkpt lat="46.1619757" lon="13.4225616"><ele>485.0</ele><time>2026-05-02T13:39:41.308Z</time></trkpt><trkpt lat="46.1620292" lon="13.4226667"><ele>485.0</ele><time>2026-05-02T13:39:42.309Z</time></trkpt><trkpt lat="46.162092" lon="13.4227829"><ele>484.99999999999994</ele><time>2026-05-02T13:39:43.309Z</time></trkpt><trkpt lat="46.1621595" lon="13.422892"><ele>485.0</ele><time>2026-05-02T13:39:44.308Z</time></trkpt><trkpt lat="46.162235" lon="13.4230121"><ele>481.8333333333333</ele><time>2026-05-02T13:39:45.308Z</time></trkpt><trkpt lat="46.1623093" lon="13.4231424"><ele>478.66666666666663</ele><time>2026-05-02T13:39:46.308Z</time></trkpt><trkpt lat="46.1623832" lon="13.4232329"><ele>475.5</ele><time>2026-05-02T13:39:47.309Z</time></trkpt><trkpt lat="46.1624548" lon="13.4232879"><ele>472.33333333333337</ele><time>2026-05-02T13:39:48.308Z</time></trkpt><trkpt lat="46.1625207" lon="13.4233345"><ele>469.1666666666667</ele><time>2026-05-02T13:39:49.309Z</time></trkpt><trkpt lat="46.1625522" lon="13.4234132"><ele>466.0</ele><time>2026-05-02T13:39:50.308Z</time></trkpt><trkpt lat="46.162537" lon="13.4235328"><ele>478.5</ele><time>2026-05-02T13:39:51.308Z</time></trkpt><trkpt lat="46.1624786" lon="13.4236721"><ele>491.0</ele><time>2026-05-02T13:39:52.308Z</time></trkpt><trkpt lat="46.1624308" lon="13.4238234"><ele>503.5</ele><time>2026-05-02T13:39:53.309Z</time></trkpt><trkpt lat="46.1623987" lon="13.4240101"><ele>516.0</ele><time>2026-05-02T13:39:54.308Z</time></trkpt><trkpt lat="46.1623778" lon="13.4241932"><ele>504.75</ele><time>2026-05-02T13:39:55.309Z</time></trkpt><trkpt lat="46.1623625" lon="13.4243835"><ele>493.5</ele><time>2026-05-02T13:39:56.309Z</time></trkpt><trkpt lat="46.1623562" lon="13.4245633"><ele>482.25</ele><time>2026-05-02T13:39:57.309Z</time></trkpt><trkpt lat="46.1623456" lon="13.42475"><ele>471.0</ele><time>2026-05-02T13:39:58.309Z</time></trkpt><trkpt lat="46.1623315" lon="13.4249472"><ele>471.0</ele><time>2026-05-02T13:39:59.309Z</time></trkpt><trkpt lat="46.1623218" lon="13.4251316"><ele>471.0</ele><time>2026-05-02T13:40:00.308Z</time></trkpt><trkpt lat="46.1623061" lon="13.4252741"><ele>471.0</ele><time>2026-05-02T13:40:01.308Z</time></trkpt><trkpt lat="46.1623043" lon="13.4254064"><ele>471.0</ele><time>2026-05-02T13:40:02.309Z</time></trkpt><trkpt lat="46.1623114" lon="13.4255171"><ele>471.0</ele><time>2026-05-02T13:40:03.308Z</time></trkpt><trkpt lat="46.1623214" lon="13.4256705"><ele>471.8</ele><time>2026-05-02T13:40:05.308Z</time></trkpt><trkpt lat="46.1623447" lon="13.4257927"><ele>472.6</ele><time>2026-05-02T13:40:07.308Z</time></trkpt><trkpt lat="46.1624107" lon="13.4256851"><ele>473.4</ele><time>2026-05-02T13:40:09.308Z</time></trkpt><trkpt lat="46.1624047" lon="13.425556"><ele>474.2</ele><time>2026-05-02T13:40:10.308Z</time></trkpt><trkpt lat="46.1624063" lon="13.4254092"><ele>475.0</ele><time>2026-05-02T13:40:11.309Z</time></trkpt><trkpt lat="46.1624361" lon="13.4252359"><ele>488.0</ele><time>2026-05-02T13:40:12.308Z</time></trkpt><trkpt lat="46.1624725" lon="13.4250501"><ele>501.0</ele><time>2026-05-02T13:40:13.309Z</time></trkpt><trkpt lat="46.1625097" lon="13.4248467"><ele>514.0</ele><time>2026-05-02T13:40:14.309Z</time></trkpt><trkpt lat="46.1625467" lon="13.424645"><ele>527.0</ele><time>2026-05-02T13:40:15.309Z</time></trkpt><trkpt lat="46.1625896" lon="13.424449"><ele>527.0</ele><time>2026-05-02T13:40:16.308Z</time></trkpt><trkpt lat="46.1626461" lon="13.4242665"><ele>527.0</ele><time>2026-05-02T13:40:17.309Z</time></trkpt><trkpt lat="46.1627119" lon="13.4240965"><ele>527.0</ele><time>2026-05-02T13:40:18.309Z</time></trkpt><trkpt lat="46.1627752" lon="13.4239426"><ele>527.0</ele><time>2026-05-02T13:40:19.308Z</time></trkpt><trkpt lat="46.162849" lon="13.4237928"><ele>524.8000000000001</ele><time>2026-05-02T13:40:20.308Z</time></trkpt><trkpt lat="46.1629181" lon="13.4236512"><ele>522.6</ele><time>2026-05-02T13:40:21.308Z</time></trkpt><trkpt lat="46.1629764" lon="13.4235316"><ele>520.4000000000001</ele><time>2026-05-02T13:40:22.308Z</time></trkpt><trkpt lat="46.1630238" lon="13.4234391"><ele>518.2</ele><time>2026-05-02T13:40:23.309Z</time></trkpt><trkpt lat="46.1630679" lon="13.4233532"><ele>516.0</ele><time>2026-05-02T13:40:24.308Z</time></trkpt><trkpt lat="46.1630942" lon="13.423246"><ele>516.0</ele><time>2026-05-02T13:40:25.308Z</time></trkpt><trkpt lat="46.1630834" lon="13.4231163"><ele>516.0</ele><time>2026-05-02T13:40:26.308Z</time></trkpt><trkpt lat="46.1630262" lon="13.4229944"><ele>516.0</ele><time>2026-05-02T13:40:27.308Z</time></trkpt><trkpt lat="46.1629428" lon="13.4228956"><ele>516.0</ele><time>2026-05-02T13:40:28.308Z</time></trkpt><trkpt lat="46.1628441" lon="13.42276"><ele>516.0</ele><time>2026-05-02T13:40:29.308Z</time></trkpt><trkpt lat="46.1627576" lon="13.4226172"><ele>516.0</ele><time>2026-05-02T13:40:30.309Z</time></trkpt><trkpt lat="46.1626985" lon="13.4224817"><ele>516.0</ele><time>2026-05-02T13:40:31.309Z</time></trkpt><trkpt lat="46.162662" lon="13.422343"><ele>516.0</ele><time>2026-05-02T13:40:32.309Z</time></trkpt><trkpt lat="46.1626362" lon="13.422187"><ele>516.0</ele><time>2026-05-02T13:40:33.308Z</time></trkpt><trkpt lat="46.1626239" lon="13.4220141"><ele>516.0</ele><time>2026-05-02T13:40:34.309Z</time></trkpt><trkpt lat="46.1626209" lon="13.4218356"><ele>524.0</ele><time>2026-05-02T13:40:35.309Z</time></trkpt><trkpt lat="46.1626312" lon="13.4216452"><ele>532.0</ele><time>2026-05-02T13:40:36.309Z</time></trkpt><trkpt lat="46.16264" lon="13.4214494"><ele>540.0</ele><time>2026-05-02T13:40:37.309Z</time></trkpt><trkpt lat="46.1626564" lon="13.4212568"><ele>548.0</ele><time>2026-05-02T13:40:38.309Z</time></trkpt><trkpt lat="46.162682" lon="13.4210706"><ele>548.0</ele><time>2026-05-02T13:40:39.308Z</time></trkpt><trkpt lat="46.1627065" lon="13.4208868"><ele>548.0</ele><time>2026-05-02T13:40:40.308Z</time></trkpt><trkpt lat="46.1627344" lon="13.4207109"><ele>548.0</ele><time>2026-05-02T13:40:41.309Z</time></trkpt><trkpt lat="46.1627687" lon="13.4205391"><ele>548.0</ele><time>2026-05-02T13:40:42.308Z</time></trkpt><trkpt lat="46.162792" lon="13.4203724"><ele>548.6</ele><time>2026-05-02T13:40:43.309Z</time></trkpt><trkpt lat="46.1628172" lon="13.4202109"><ele>549.1999999999999</ele><time>2026-05-02T13:40:44.309Z</time></trkpt><trkpt lat="46.1628412" lon="13.4200478"><ele>549.8</ele><time>2026-05-02T13:40:45.308Z</time></trkpt><trkpt lat="46.1628588" lon="13.419898"><ele>550.4</ele><time>2026-05-02T13:40:46.309Z</time></trkpt><trkpt lat="46.1628694" lon="13.4197529"><ele>551.0</ele><time>2026-05-02T13:40:47.308Z</time></trkpt><trkpt lat="46.1628634" lon="13.4195987"><ele>556.5</ele><time>2026-05-02T13:40:48.308Z</time></trkpt><trkpt lat="46.1628412" lon="13.4194333"><ele>562.0</ele><time>2026-05-02T13:40:49.309Z</time></trkpt><trkpt lat="46.1628121" lon="13.4192631"><ele>567.5</ele><time>2026-05-02T13:40:50.309Z</time></trkpt><trkpt lat="46.1627884" lon="13.4190872"><ele>573.0</ele><time>2026-05-02T13:40:51.309Z</time></trkpt><trkpt lat="46.1627726" lon="13.4189174"><ele>576.25</ele><time>2026-05-02T13:40:52.308Z</time></trkpt><trkpt lat="46.1627821" lon="13.4187591"><ele>579.5</ele><time>2026-05-02T13:40:53.309Z</time></trkpt><trkpt lat="46.1628016" lon="13.4185921"><ele>582.75</ele><time>2026-05-02T13:40:54.308Z</time></trkpt><trkpt lat="46.1628285" lon="13.4184268"><ele>586.0</ele><time>2026-05-02T13:40:55.308Z</time></trkpt><trkpt lat="46.1628534" lon="13.4182495"><ele>586.0</ele><time>2026-05-02T13:40:56.309Z</time></trkpt><trkpt lat="46.1628873" lon="13.4180616"><ele>586.0</ele><time>2026-05-02T13:40:57.308Z</time></trkpt><trkpt lat="46.1629329" lon="13.4178855"><ele>586.0</ele><time>2026-05-02T13:40:58.308Z</time></trkpt><trkpt lat="46.1629861" lon="13.4177183"><ele>586.0</ele><time>2026-05-02T13:40:59.309Z</time></trkpt><trkpt lat="46.1630373" lon="13.4175573"><ele>584.8</ele><time>2026-05-02T13:41:00.309Z</time></trkpt><trkpt lat="46.1630937" lon="13.4174152"><ele>583.6</ele><time>2026-05-02T13:41:01.309Z</time></trkpt><trkpt lat="46.1631647" lon="13.4172903"><ele>582.4</ele><time>2026-05-02T13:41:02.308Z</time></trkpt><trkpt lat="46.1632404" lon="13.41719"><ele>581.2</ele><time>2026-05-02T13:41:03.309Z</time></trkpt><trkpt lat="46.1633292" lon="13.4171162"><ele>580.0</ele><time>2026-05-02T13:41:04.309Z</time></trkpt><trkpt lat="46.1634366" lon="13.4170615"><ele>586.25</ele><time>2026-05-02T13:41:05.309Z</time></trkpt><trkpt lat="46.163556" lon="13.4170155"><ele>592.5</ele><time>2026-05-02T13:41:06.309Z</time></trkpt><trkpt lat="46.1636748" lon="13.4169653"><ele>598.75</ele><time>2026-05-02T13:41:07.309Z</time></trkpt><trkpt lat="46.163795" lon="13.4169134"><ele>605.0</ele><time>2026-05-02T13:41:08.309Z</time></trkpt><trkpt lat="46.1639109" lon="13.416849"><ele>605.0</ele><time>2026-05-02T13:41:09.309Z</time></trkpt><trkpt lat="46.164008" lon="13.4167775"><ele>605.0</ele><time>2026-05-02T13:41:10.308Z</time></trkpt><trkpt lat="46.1640809" lon="13.4166803"><ele>605.0</ele><time>2026-05-02T13:41:11.308Z</time></trkpt><trkpt lat="46.1641464" lon="13.4165889"><ele>605.0</ele><time>2026-05-02T13:41:12.308Z</time></trkpt><trkpt lat="46.1641959" lon="13.4165197"><ele>605.0</ele><time>2026-05-02T13:41:13.309Z</time></trkpt><trkpt lat="46.164201" lon="13.4163214"><ele>604.6</ele><time>2026-05-02T13:41:15.309Z</time></trkpt><trkpt lat="46.1641516" lon="13.4162055"><ele>604.2</ele><time>2026-05-02T13:41:16.309Z</time></trkpt><trkpt lat="46.1640751" lon="13.4161124"><ele>603.8</ele><time>2026-05-02T13:41:17.308Z</time></trkpt><trkpt lat="46.163973" lon="13.4160006"><ele>603.4</ele><time>2026-05-02T13:41:18.308Z</time></trkpt><trkpt lat="46.1638779" lon="13.4158881"><ele>603.0</ele><time>2026-05-02T13:41:19.308Z</time></trkpt><trkpt lat="46.1638014" lon="13.4157362"><ele>603.0</ele><time>2026-05-02T13:41:20.308Z</time></trkpt><trkpt lat="46.163732" lon="13.4155895"><ele>603.0</ele><time>2026-05-02T13:41:21.309Z</time></trkpt><trkpt lat="46.1636493" lon="13.415482"><ele>603.0</ele><time>2026-05-02T13:41:22.308Z</time></trkpt><trkpt lat="46.1635732" lon="13.4153965"><ele>603.0</ele><time>2026-05-02T13:41:23.308Z</time></trkpt><trkpt lat="46.163517" lon="13.415298"><ele>603.0</ele><time>2026-05-02T13:41:24.308Z</time></trkpt><trkpt lat="46.1634843" lon="13.415181"><ele>602.8</ele><time>2026-05-02T13:41:25.308Z</time></trkpt><trkpt lat="46.1634451" lon="13.4150491"><ele>602.5999999999999</ele><time>2026-05-02T13:41:26.308Z</time></trkpt><trkpt lat="46.1633727" lon="13.4149389"><ele>602.4000000000001</ele><time>2026-05-02T13:41:27.308Z</time></trkpt><trkpt lat="46.1632918" lon="13.4148528"><ele>602.2</ele><time>2026-05-02T13:41:28.309Z</time></trkpt><trkpt lat="46.1632326" lon="13.4147647"><ele>602.0</ele><time>2026-05-02T13:41:29.308Z</time></trkpt><trkpt lat="46.1631955" lon="13.4146694"><ele>608.0</ele><time>2026-05-02T13:41:30.308Z</time></trkpt><trkpt lat="46.1632109" lon="13.4145603"><ele>614.0</ele><time>2026-05-02T13:41:31.308Z</time></trkpt><trkpt lat="46.1632259" lon="13.414446"><ele>620.0</ele><time>2026-05-02T13:41:32.309Z</time></trkpt><trkpt lat="46.163216" lon="13.4143231"><ele>626.0</ele><time>2026-05-02T13:41:33.309Z</time></trkpt><trkpt lat="46.1631616" lon="13.4141988"><ele>632.0</ele><time>2026-05-02T13:41:34.308Z</time></trkpt><trkpt lat="46.1630804" lon="13.4141023"><ele>632.0</ele><time>2026-05-02T13:41:35.308Z</time></trkpt><trkpt lat="46.1629804" lon="13.4140283"><ele>632.0</ele><time>2026-05-02T13:41:36.309Z</time></trkpt><trkpt lat="46.1628676" lon="13.4139507"><ele>632.0</ele><time>2026-05-02T13:41:37.309Z</time></trkpt><trkpt lat="46.1627521" lon="13.4138648"><ele>632.0</ele><time>2026-05-02T13:41:38.308Z</time></trkpt><trkpt lat="46.1626466" lon="13.4137766"><ele>632.0</ele><time>2026-05-02T13:41:39.308Z</time></trkpt><trkpt lat="46.1625492" lon="13.4136829"><ele>632.0</ele><time>2026-05-02T13:41:40.308Z</time></trkpt><trkpt lat="46.1624534" lon="13.4135958"><ele>632.0</ele><time>2026-05-02T13:41:41.308Z</time></trkpt><trkpt lat="46.1623722" lon="13.4135102"><ele>632.0</ele><time>2026-05-02T13:41:42.308Z</time></trkpt><trkpt lat="46.1622997" lon="13.4134327"><ele>632.0</ele><time>2026-05-02T13:41:43.308Z</time></trkpt><trkpt lat="46.1622269" lon="13.4133523"><ele>632.0</ele><time>2026-05-02T13:41:44.309Z</time></trkpt><trkpt lat="46.1621556" lon="13.413282"><ele>632.0</ele><time>2026-05-02T13:41:45.309Z</time></trkpt><trkpt lat="46.1620782" lon="13.413218"><ele>632.0</ele><time>2026-05-02T13:41:46.308Z</time></trkpt><trkpt lat="46.1620045" lon="13.4131332"><ele>632.0</ele><time>2026-05-02T13:41:47.308Z</time></trkpt><trkpt lat="46.1619439" lon="13.41303"><ele>632.0</ele><time>2026-05-02T13:41:48.308Z</time></trkpt><trkpt lat="46.1618935" lon="13.4129098"><ele>634.0</ele><time>2026-05-02T13:41:49.309Z</time></trkpt><trkpt lat="46.1618555" lon="13.4127802"><ele>636.0</ele><time>2026-05-02T13:41:50.309Z</time></trkpt><trkpt lat="46.1618394" lon="13.4126407"><ele>638.0</ele><time>2026-05-02T13:41:51.309Z</time></trkpt><trkpt lat="46.1618395" lon="13.4124967"><ele>640.0</ele><time>2026-05-02T13:41:52.309Z</time></trkpt><trkpt lat="46.161832" lon="13.4123582"><ele>642.0</ele><time>2026-05-02T13:41:53.308Z</time></trkpt><trkpt lat="46.1618221" lon="13.4122346"><ele>641.6666666666666</ele><time>2026-05-02T13:41:54.308Z</time></trkpt><trkpt lat="46.1618151" lon="13.4121304"><ele>641.3333333333334</ele><time>2026-05-02T13:41:55.308Z</time></trkpt><trkpt lat="46.1618195" lon="13.4120216"><ele>641.0</ele><time>2026-05-02T13:41:56.309Z</time></trkpt><trkpt lat="46.1618359" lon="13.4119033"><ele>640.6666666666667</ele><time>2026-05-02T13:41:57.309Z</time></trkpt><trkpt lat="46.1618682" lon="13.4117735"><ele>640.3333333333334</ele><time>2026-05-02T13:41:58.308Z</time></trkpt><trkpt lat="46.1619107" lon="13.4116278"><ele>640.0</ele><time>2026-05-02T13:41:59.308Z</time></trkpt><trkpt lat="46.1619516" lon="13.4114614"><ele>641.0</ele><time>2026-05-02T13:42:00.309Z</time></trkpt><trkpt lat="46.1619996" lon="13.41129"><ele>642.0</ele><time>2026-05-02T13:42:01.309Z</time></trkpt><trkpt lat="46.1620497" lon="13.4111152"><ele>643.0</ele><time>2026-05-02T13:42:02.308Z</time></trkpt><trkpt lat="46.16209" lon="13.410949"><ele>644.0</ele><time>2026-05-02T13:42:03.309Z</time></trkpt><trkpt lat="46.1621158" lon="13.4107966"><ele>644.0</ele><time>2026-05-02T13:42:04.309Z</time></trkpt><trkpt lat="46.1621147" lon="13.4106578"><ele>644.0</ele><time>2026-05-02T13:42:05.308Z</time></trkpt><trkpt lat="46.1620817" lon="13.4105309"><ele>644.0</ele><time>2026-05-02T13:42:06.308Z</time></trkpt><trkpt lat="46.1620407" lon="13.4104086"><ele>644.0</ele><time>2026-05-02T13:42:07.308Z</time></trkpt><trkpt lat="46.1620137" lon="13.4102742"><ele>644.0</ele><time>2026-05-02T13:42:08.309Z</time></trkpt><trkpt lat="46.1620133" lon="13.4101227"><ele>645.0</ele><time>2026-05-02T13:42:09.309Z</time></trkpt><trkpt lat="46.1620373" lon="13.4099646"><ele>646.0</ele><time>2026-05-02T13:42:10.309Z</time></trkpt><trkpt lat="46.1620669" lon="13.4097989"><ele>647.0</ele><time>2026-05-02T13:42:11.309Z</time></trkpt><trkpt lat="46.1621112" lon="13.4096246"><ele>648.0</ele><time>2026-05-02T13:42:12.309Z</time></trkpt><trkpt lat="46.1621623" lon="13.4094606"><ele>650.25</ele><time>2026-05-02T13:42:13.308Z</time></trkpt><trkpt lat="46.1622212" lon="13.4092879"><ele>652.5</ele><time>2026-05-02T13:42:14.309Z</time></trkpt><trkpt lat="46.1622846" lon="13.4091187"><ele>654.75</ele><time>2026-05-02T13:42:15.309Z</time></trkpt><trkpt lat="46.1623597" lon="13.4089689"><ele>657.0</ele><time>2026-05-02T13:42:16.309Z</time></trkpt><trkpt lat="46.1624337" lon="13.4088335"><ele>663.2</ele><time>2026-05-02T13:42:17.308Z</time></trkpt><trkpt lat="46.1624855" lon="13.4087147"><ele>669.4000000000001</ele><time>2026-05-02T13:42:18.308Z</time></trkpt><trkpt lat="46.1625368" lon="13.4086134"><ele>675.5999999999999</ele><time>2026-05-02T13:42:19.308Z</time></trkpt><trkpt lat="46.1625892" lon="13.4085194"><ele>681.8</ele><time>2026-05-02T13:42:20.308Z</time></trkpt><trkpt lat="46.1626388" lon="13.4084339"><ele>688.0</ele><time>2026-05-02T13:42:21.308Z</time></trkpt><trkpt lat="46.1626949" lon="13.4082778"><ele>688.0</ele><time>2026-05-02T13:42:23.308Z</time></trkpt><trkpt lat="46.1626598" lon="13.4081687"><ele>688.0</ele><time>2026-05-02T13:42:25.309Z</time></trkpt><trkpt lat="46.1625671" lon="13.4080764"><ele>688.0</ele><time>2026-05-02T13:42:27.309Z</time></trkpt><trkpt lat="46.1624772" lon="13.4080082"><ele>688.0</ele><time>2026-05-02T13:42:29.309Z</time></trkpt><trkpt lat="46.1624298" lon="13.4079195"><ele>688.0</ele><time>2026-05-02T13:42:31.308Z</time></trkpt><trkpt lat="46.1623735" lon="13.4078124"><ele>687.3333333333334</ele><time>2026-05-02T13:42:33.309Z</time></trkpt><trkpt lat="46.1623137" lon="13.4077807"><ele>686.6666666666667</ele><time>2026-05-02T13:42:35.309Z</time></trkpt><trkpt lat="46.1622372" lon="13.4077985"><ele>686.0</ele><time>2026-05-02T13:42:37.309Z</time></trkpt><trkpt lat="46.1621249" lon="13.4078657"><ele>685.3333333333334</ele><time>2026-05-02T13:42:39.308Z</time></trkpt><trkpt lat="46.1620537" lon="13.4079365"><ele>684.6666666666666</ele><time>2026-05-02T13:42:40.309Z</time></trkpt><trkpt lat="46.161992" lon="13.4080143"><ele>684.0</ele><time>2026-05-02T13:42:41.308Z</time></trkpt><trkpt lat="46.1619327" lon="13.4080515"><ele>684.0</ele><time>2026-05-02T13:42:42.308Z</time></trkpt><trkpt lat="46.161817" lon="13.40812"><ele>684.0</ele><time>2026-05-02T13:42:44.309Z</time></trkpt><trkpt lat="46.1617081" lon="13.4081205"><ele>684.0</ele><time>2026-05-02T13:42:46.308Z</time></trkpt><trkpt lat="46.1615777" lon="13.4080818"><ele>684.0</ele><time>2026-05-02T13:42:48.309Z</time></trkpt><trkpt lat="46.1615105" lon="13.408066"><ele>684.0</ele><time>2026-05-02T13:42:49.309Z</time></trkpt><trkpt lat="46.161396" lon="13.4080522"><ele>685.5</ele><time>2026-05-02T13:42:51.309Z</time></trkpt><trkpt lat="46.161328" lon="13.4080809"><ele>687.0</ele><time>2026-05-02T13:42:52.309Z</time></trkpt><trkpt lat="46.1612632" lon="13.4081124"><ele>688.5</ele><time>2026-05-02T13:42:53.308Z</time></trkpt><trkpt lat="46.1611904" lon="13.4081454"><ele>690.0</ele><time>2026-05-02T13:42:54.309Z</time></trkpt><trkpt lat="46.1611237" lon="13.4081861"><ele>691.5</ele><time>2026-05-02T13:42:55.309Z</time></trkpt><trkpt lat="46.1610588" lon="13.4082257"><ele>693.0</ele><time>2026-05-02T13:42:56.308Z</time></trkpt><trkpt lat="46.1609688" lon="13.4082992"><ele>693.0</ele><time>2026-05-02T13:42:58.309Z</time></trkpt><trkpt lat="46.1609129" lon="13.4083642"><ele>693.0</ele><time>2026-05-02T13:42:59.309Z</time></trkpt><trkpt lat="46.1608204" lon="13.4084972"><ele>693.0</ele><time>2026-05-02T13:43:01.308Z</time></trkpt><trkpt lat="46.1607438" lon="13.4086183"><ele>693.0</ele><time>2026-05-02T13:43:03.308Z</time></trkpt><trkpt lat="46.1607043" lon="13.4087674"><ele>693.0</ele><time>2026-05-02T13:43:05.309Z</time></trkpt><trkpt lat="46.1607153" lon="13.4089335"><ele>695.3333333333334</ele><time>2026-05-02T13:43:07.308Z</time></trkpt><trkpt lat="46.1607303" lon="13.4090941"><ele>697.6666666666666</ele><time>2026-05-02T13:43:09.309Z</time></trkpt><trkpt lat="46.1607374" lon="13.4091854"><ele>700.0</ele><time>2026-05-02T13:43:10.308Z</time></trkpt><trkpt lat="46.1607274" lon="13.4093481"><ele>702.3333333333333</ele><time>2026-05-02T13:43:12.308Z</time></trkpt><trkpt lat="46.1607063" lon="13.4094497"><ele>704.6666666666666</ele><time>2026-05-02T13:43:13.309Z</time></trkpt><trkpt lat="46.1606694" lon="13.4095545"><ele>707.0</ele><time>2026-05-02T13:43:14.309Z</time></trkpt><trkpt lat="46.160637" lon="13.4096559"><ele>702.8</ele><time>2026-05-02T13:43:15.309Z</time></trkpt><trkpt lat="46.1606072" lon="13.4097375"><ele>698.6</ele><time>2026-05-02T13:43:16.308Z</time></trkpt><trkpt lat="46.1605307" lon="13.4098549"><ele>694.4</ele><time>2026-05-02T13:43:18.309Z</time></trkpt><trkpt lat="46.1604164" lon="13.4099361"><ele>690.1999999999999</ele><time>2026-05-02T13:43:20.309Z</time></trkpt><trkpt lat="46.1603508" lon="13.40996"><ele>686.0</ele><time>2026-05-02T13:43:21.308Z</time></trkpt><trkpt lat="46.160248" lon="13.4100137"><ele>686.0</ele><time>2026-05-02T13:43:23.308Z</time></trkpt><trkpt lat="46.1601475" lon="13.4100886"><ele>686.0</ele><time>2026-05-02T13:43:25.309Z</time></trkpt><trkpt lat="46.1600706" lon="13.4102174"><ele>686.0</ele><time>2026-05-02T13:43:27.309Z</time></trkpt><trkpt lat="46.1600151" lon="13.4102722"><ele>686.0</ele><time>2026-05-02T13:43:29.309Z</time></trkpt><trkpt lat="46.1599463" lon="13.4103188"><ele>686.0</ele><time>2026-05-02T13:43:31.308Z</time></trkpt><trkpt lat="46.159863" lon="13.4104302"><ele>689.6666666666666</ele><time>2026-05-02T13:43:33.309Z</time></trkpt><trkpt lat="46.1598412" lon="13.4105826"><ele>693.3333333333333</ele><time>2026-05-02T13:43:35.308Z</time></trkpt><trkpt lat="46.1598348" lon="13.4106769"><ele>697.0</ele><time>2026-05-02T13:43:36.309Z</time></trkpt><trkpt lat="46.1598164" lon="13.4107886"><ele>700.6666666666666</ele><time>2026-05-02T13:43:37.309Z</time></trkpt><trkpt lat="46.1598083" lon="13.4109095"><ele>704.3333333333334</ele><time>2026-05-02T13:43:38.309Z</time></trkpt><trkpt lat="46.1598044" lon="13.4110384"><ele>708.0</ele><time>2026-05-02T13:43:39.308Z</time></trkpt><trkpt lat="46.1598057" lon="13.4111544"><ele>708.0</ele><time>2026-05-02T13:43:40.309Z</time></trkpt><trkpt lat="46.1597884" lon="13.4112556"><ele>708.0</ele><time>2026-05-02T13:43:41.309Z</time></trkpt><trkpt lat="46.1597669" lon="13.4113783"><ele>708.0</ele><time>2026-05-02T13:43:42.309Z</time></trkpt><trkpt lat="46.1597394" lon="13.4114771"><ele>708.0</ele><time>2026-05-02T13:43:43.308Z</time></trkpt><trkpt lat="46.1597077" lon="13.4115753"><ele>708.0</ele><time>2026-05-02T13:43:44.309Z</time></trkpt><trkpt lat="46.1596749" lon="13.4116804"><ele>708.0</ele><time>2026-05-02T13:43:45.309Z</time></trkpt><trkpt lat="46.1596262" lon="13.4118025"><ele>706.5</ele><time>2026-05-02T13:43:46.308Z</time></trkpt><trkpt lat="46.1596046" lon="13.41192"><ele>705.0</ele><time>2026-05-02T13:43:47.308Z</time></trkpt><trkpt lat="46.1595844" lon="13.4120085"><ele>703.5</ele><time>2026-05-02T13:43:48.308Z</time></trkpt><trkpt lat="46.1595648" lon="13.412117"><ele>702.0</ele><time>2026-05-02T13:43:49.308Z</time></trkpt><trkpt lat="46.159542" lon="13.4122319"><ele>700.5</ele><time>2026-05-02T13:43:50.309Z</time></trkpt><trkpt lat="46.1595141" lon="13.4123376"><ele>699.0</ele><time>2026-05-02T13:43:51.309Z</time></trkpt><trkpt lat="46.1594764" lon="13.4124345"><ele>694.6666666666666</ele><time>2026-05-02T13:43:52.309Z</time></trkpt><trkpt lat="46.1594273" lon="13.4125407"><ele>690.3333333333334</ele><time>2026-05-02T13:43:53.309Z</time></trkpt><trkpt lat="46.1593848" lon="13.4126139"><ele>686.0</ele><time>2026-05-02T13:43:54.308Z</time></trkpt><trkpt lat="46.1593294" lon="13.4126831"><ele>681.6666666666667</ele><time>2026-05-02T13:43:55.309Z</time></trkpt><trkpt lat="46.1592198" lon="13.4127696"><ele>677.3333333333334</ele><time>2026-05-02T13:43:57.308Z</time></trkpt><trkpt lat="46.1591476" lon="13.412813"><ele>673.0</ele><time>2026-05-02T13:43:58.309Z</time></trkpt><trkpt lat="46.1590806" lon="13.4128655"><ele>671.8333333333334</ele><time>2026-05-02T13:43:59.309Z</time></trkpt><trkpt lat="46.1590149" lon="13.4129142"><ele>670.6666666666667</ele><time>2026-05-02T13:44:00.309Z</time></trkpt><trkpt lat="46.1589587" lon="13.4129642"><ele>669.5</ele><time>2026-05-02T13:44:01.309Z</time></trkpt><trkpt lat="46.1588893" lon="13.4130206"><ele>668.3333333333334</ele><time>2026-05-02T13:44:02.309Z</time></trkpt><trkpt lat="46.1588051" lon="13.4130631"><ele>667.1666666666666</ele><time>2026-05-02T13:44:03.308Z</time></trkpt><trkpt lat="46.1587194" lon="13.4130855"><ele>666.0</ele><time>2026-05-02T13:44:04.309Z</time></trkpt><trkpt lat="46.1586358" lon="13.4131017"><ele>666.0</ele><time>2026-05-02T13:44:05.308Z</time></trkpt><trkpt lat="46.1585521" lon="13.4131137"><ele>666.0</ele><time>2026-05-02T13:44:06.308Z</time></trkpt><trkpt lat="46.1584825" lon="13.4131208"><ele>666.0</ele><time>2026-05-02T13:44:07.309Z</time></trkpt><trkpt lat="46.1584154" lon="13.4131271"><ele>666.0</ele><time>2026-05-02T13:44:08.309Z</time></trkpt><trkpt lat="46.1583087" lon="13.413182"><ele>666.0</ele><time>2026-05-02T13:44:10.308Z</time></trkpt><trkpt lat="46.1582334" lon="13.4133005"><ele>666.0</ele><time>2026-05-02T13:44:12.308Z</time></trkpt><trkpt lat="46.1581761" lon="13.4134447"><ele>668.1666666666666</ele><time>2026-05-02T13:44:14.308Z</time></trkpt><trkpt lat="46.1581261" lon="13.4135948"><ele>670.3333333333334</ele><time>2026-05-02T13:44:16.309Z</time></trkpt><trkpt lat="46.1580629" lon="13.413728"><ele>672.5</ele><time>2026-05-02T13:44:18.308Z</time></trkpt><trkpt lat="46.1580294" lon="13.4138248"><ele>674.6666666666667</ele><time>2026-05-02T13:44:19.308Z</time></trkpt><trkpt lat="46.1579902" lon="13.4139208"><ele>676.8333333333334</ele><time>2026-05-02T13:44:20.308Z</time></trkpt><trkpt lat="46.157977" lon="13.4140174"><ele>679.0</ele><time>2026-05-02T13:44:21.309Z</time></trkpt><trkpt lat="46.1579559" lon="13.4141207"><ele>679.0</ele><time>2026-05-02T13:44:22.308Z</time></trkpt><trkpt lat="46.1579536" lon="13.4142209"><ele>679.0</ele><time>2026-05-02T13:44:23.308Z</time></trkpt><trkpt lat="46.157955" lon="13.4143224"><ele>679.0</ele><time>2026-05-02T13:44:24.308Z</time></trkpt><trkpt lat="46.1579564" lon="13.4144319"><ele>679.0</ele><time>2026-05-02T13:44:25.308Z</time></trkpt><trkpt lat="46.1579545" lon="13.4145274"><ele>679.0</ele><time>2026-05-02T13:44:26.309Z</time></trkpt><trkpt lat="46.1579309" lon="13.414663"><ele>679.0</ele><time>2026-05-02T13:44:28.308Z</time></trkpt><trkpt lat="46.1578381" lon="13.4147932"><ele>675.8000000000001</ele><time>2026-05-02T13:44:30.308Z</time></trkpt><trkpt lat="46.1577692" lon="13.414861"><ele>672.6</ele><time>2026-05-02T13:44:31.309Z</time></trkpt><trkpt lat="46.1577073" lon="13.4149406"><ele>669.4</ele><time>2026-05-02T13:44:32.309Z</time></trkpt><trkpt lat="46.1576463" lon="13.415033"><ele>666.2</ele><time>2026-05-02T13:44:33.308Z</time></trkpt><trkpt lat="46.1575975" lon="13.415111"><ele>663.0</ele><time>2026-05-02T13:44:34.309Z</time></trkpt><trkpt lat="46.1575225" lon="13.415275"><ele>662.9999999999999</ele><time>2026-05-02T13:44:36.308Z</time></trkpt><trkpt lat="46.1574836" lon="13.4153532"><ele>663.0</ele><time>2026-05-02T13:44:37.309Z</time></trkpt><trkpt lat="46.1574369" lon="13.4154359"><ele>663.0</ele><time>2026-05-02T13:44:38.309Z</time></trkpt><trkpt lat="46.1574048" lon="13.4155356"><ele>663.0</ele><time>2026-05-02T13:44:39.308Z</time></trkpt><trkpt lat="46.1573823" lon="13.4156299"><ele>663.0</ele><time>2026-05-02T13:44:40.309Z</time></trkpt><trkpt lat="46.1573737" lon="13.4157313"><ele>662.9999999999999</ele><time>2026-05-02T13:44:41.309Z</time></trkpt><trkpt lat="46.1573727" lon="13.4158234"><ele>663.0</ele><time>2026-05-02T13:44:42.308Z</time></trkpt><trkpt lat="46.1573862" lon="13.4159261"><ele>662.8333333333334</ele><time>2026-05-02T13:44:43.309Z</time></trkpt><trkpt lat="46.1573962" lon="13.4160354"><ele>662.6666666666666</ele><time>2026-05-02T13:44:44.309Z</time></trkpt><trkpt lat="46.1574125" lon="13.4162186"><ele>662.5</ele><time>2026-05-02T13:44:46.309Z</time></trkpt><trkpt lat="46.1574546" lon="13.4163061"><ele>662.3333333333333</ele><time>2026-05-02T13:44:47.308Z</time></trkpt><trkpt lat="46.1574721" lon="13.4164025"><ele>662.1666666666666</ele><time>2026-05-02T13:44:48.309Z</time></trkpt><trkpt lat="46.1574882" lon="13.4165253"><ele>662.0</ele><time>2026-05-02T13:44:49.308Z</time></trkpt><trkpt lat="46.1574978" lon="13.4166366"><ele>663.4285714285714</ele><time>2026-05-02T13:44:50.308Z</time></trkpt><trkpt lat="46.1575119" lon="13.4167314"><ele>664.8571428571429</ele><time>2026-05-02T13:44:51.308Z</time></trkpt><trkpt lat="46.1575337" lon="13.4168182"><ele>666.2857142857142</ele><time>2026-05-02T13:44:52.309Z</time></trkpt><trkpt lat="46.1575803" lon="13.4168996"><ele>667.7142857142858</ele><time>2026-05-02T13:44:53.309Z</time></trkpt><trkpt lat="46.1576336" lon="13.416978"><ele>669.1428571428571</ele><time>2026-05-02T13:44:54.309Z</time></trkpt><trkpt lat="46.1576827" lon="13.4170365"><ele>670.5714285714286</ele><time>2026-05-02T13:44:55.309Z</time></trkpt><trkpt lat="46.1577388" lon="13.4170836"><ele>672.0</ele><time>2026-05-02T13:44:56.308Z</time></trkpt><trkpt lat="46.1577907" lon="13.4171357"><ele>673.3333333333334</ele><time>2026-05-02T13:44:57.309Z</time></trkpt><trkpt lat="46.1578531" lon="13.4171809"><ele>674.6666666666666</ele><time>2026-05-02T13:44:58.308Z</time></trkpt><trkpt lat="46.1579221" lon="13.4172145"><ele>676.0</ele><time>2026-05-02T13:44:59.308Z</time></trkpt><trkpt lat="46.1580174" lon="13.4172755"><ele>677.3333333333333</ele><time>2026-05-02T13:45:01.308Z</time></trkpt><trkpt lat="46.1581022" lon="13.4173193"><ele>678.6666666666666</ele><time>2026-05-02T13:45:03.308Z</time></trkpt><trkpt lat="46.1581727" lon="13.4173702"><ele>680.0</ele><time>2026-05-02T13:45:05.308Z</time></trkpt><trkpt lat="46.1582443" lon="13.4174458"><ele>673.2</ele><time>2026-05-02T13:45:07.308Z</time></trkpt><trkpt lat="46.1582891" lon="13.417553"><ele>666.4</ele><time>2026-05-02T13:45:09.308Z</time></trkpt><trkpt lat="46.1582781" lon="13.4176999"><ele>659.5999999999999</ele><time>2026-05-02T13:45:11.309Z</time></trkpt><trkpt lat="46.1582672" lon="13.4178626"><ele>652.8</ele><time>2026-05-02T13:45:13.309Z</time></trkpt><trkpt lat="46.1582467" lon="13.4180385"><ele>646.0</ele><time>2026-05-02T13:45:15.309Z</time></trkpt><trkpt lat="46.1582302" lon="13.4181367"><ele>643.5999999999999</ele><time>2026-05-02T13:45:16.308Z</time></trkpt><trkpt lat="46.1582075" lon="13.4182343"><ele>641.1999999999999</ele><time>2026-05-02T13:45:17.309Z</time></trkpt><trkpt lat="46.1581903" lon="13.4183341"><ele>638.8</ele><time>2026-05-02T13:45:18.309Z</time></trkpt><trkpt lat="46.1581722" lon="13.4184243"><ele>636.4</ele><time>2026-05-02T13:45:19.309Z</time></trkpt><trkpt lat="46.1581382" lon="13.4185943"><ele>634.0</ele><time>2026-05-02T13:45:21.308Z</time></trkpt><trkpt lat="46.1580663" lon="13.4187597"><ele>635.4</ele><time>2026-05-02T13:45:23.308Z</time></trkpt><trkpt lat="46.157981" lon="13.418887"><ele>636.8</ele><time>2026-05-02T13:45:25.308Z</time></trkpt><trkpt lat="46.1578862" lon="13.4189775"><ele>638.1999999999999</ele><time>2026-05-02T13:45:27.309Z</time></trkpt><trkpt lat="46.1577714" lon="13.4190588"><ele>639.5999999999999</ele><time>2026-05-02T13:45:29.309Z</time></trkpt><trkpt lat="46.1577035" lon="13.419106"><ele>641.0</ele><time>2026-05-02T13:45:30.309Z</time></trkpt><trkpt lat="46.1576391" lon="13.4191346"><ele>641.0</ele><time>2026-05-02T13:45:31.308Z</time></trkpt><trkpt lat="46.1575687" lon="13.4191755"><ele>641.0</ele><time>2026-05-02T13:45:32.309Z</time></trkpt><trkpt lat="46.1575031" lon="13.4192103"><ele>641.0</ele><time>2026-05-02T13:45:33.308Z</time></trkpt><trkpt lat="46.1573687" lon="13.4192458"><ele>641.0</ele><time>2026-05-02T13:45:35.308Z</time></trkpt><trkpt lat="46.1572903" lon="13.4192886"><ele>641.0</ele><time>2026-05-02T13:45:36.309Z</time></trkpt><trkpt lat="46.1572065" lon="13.4193547"><ele>640.1999999999999</ele><time>2026-05-02T13:45:37.309Z</time></trkpt><trkpt lat="46.1571476" lon="13.4194228"><ele>639.4</ele><time>2026-05-02T13:45:38.309Z</time></trkpt><trkpt lat="46.1570897" lon="13.4194846"><ele>638.6</ele><time>2026-05-02T13:45:39.309Z</time></trkpt><trkpt lat="46.1569631" lon="13.4195786"><ele>637.8</ele><time>2026-05-02T13:45:41.308Z</time></trkpt><trkpt lat="46.156845" lon="13.419659"><ele>637.0</ele><time>2026-05-02T13:45:43.308Z</time></trkpt><trkpt lat="46.1567727" lon="13.4197184"><ele>637.0</ele><time>2026-05-02T13:45:44.309Z</time></trkpt><trkpt lat="46.1567096" lon="13.4197945"><ele>637.0</ele><time>2026-05-02T13:45:45.309Z</time></trkpt><trkpt lat="46.1566402" lon="13.4199146"><ele>637.0</ele><time>2026-05-02T13:45:46.309Z</time></trkpt><trkpt lat="46.1565951" lon="13.4200019"><ele>637.0</ele><time>2026-05-02T13:45:47.308Z</time></trkpt><trkpt lat="46.1565552" lon="13.4200828"><ele>637.0</ele><time>2026-05-02T13:45:48.309Z</time></trkpt><trkpt lat="46.1565016" lon="13.4202544"><ele>637.0</ele><time>2026-05-02T13:45:50.309Z</time></trkpt><trkpt lat="46.1564706" lon="13.4203691"><ele>637.0</ele><time>2026-05-02T13:45:51.308Z</time></trkpt><trkpt lat="46.1564763" lon="13.420529"><ele>637.0</ele><time>2026-05-02T13:45:53.309Z</time></trkpt><trkpt lat="46.1565174" lon="13.4206074"><ele>637.0</ele><time>2026-05-02T13:45:54.308Z</time></trkpt><trkpt lat="46.1565628" lon="13.4206803"><ele>637.0</ele><time>2026-05-02T13:45:55.309Z</time></trkpt><trkpt lat="46.1566074" lon="13.420762"><ele>637.0</ele><time>2026-05-02T13:45:56.308Z</time></trkpt><trkpt lat="46.1566438" lon="13.4208511"><ele>637.0</ele><time>2026-05-02T13:45:57.309Z</time></trkpt><trkpt lat="46.1566933" lon="13.4209991"><ele>637.0</ele><time>2026-05-02T13:45:59.309Z</time></trkpt><trkpt lat="46.1567355" lon="13.4211375"><ele>637.0</ele><time>2026-05-02T13:46:01.308Z</time></trkpt><trkpt lat="46.1568059" lon="13.4211897"><ele>637.0</ele><time>2026-05-02T13:46:03.308Z</time></trkpt><trkpt lat="46.1568727" lon="13.4212417"><ele>637.0</ele><time>2026-05-02T13:46:05.308Z</time></trkpt><trkpt lat="46.1569498" lon="13.421344"><ele>639.6</ele><time>2026-05-02T13:46:07.309Z</time></trkpt><trkpt lat="46.1570047" lon="13.4214872"><ele>642.2</ele><time>2026-05-02T13:46:09.309Z</time></trkpt><trkpt lat="46.1570522" lon="13.4216475"><ele>644.8</ele><time>2026-05-02T13:46:11.308Z</time></trkpt><trkpt lat="46.1571021" lon="13.4217743"><ele>647.4</ele><time>2026-05-02T13:46:13.308Z</time></trkpt><trkpt lat="46.1572074" lon="13.4218134"><ele>650.0</ele><time>2026-05-02T13:46:15.308Z</time></trkpt><trkpt lat="46.157269" lon="13.4218333"><ele>650.0</ele><time>2026-05-02T13:46:16.308Z</time></trkpt><trkpt lat="46.1573472" lon="13.4218473"><ele>650.0</ele><time>2026-05-02T13:46:17.308Z</time></trkpt><trkpt lat="46.1574149" lon="13.4218666"><ele>650.0</ele><time>2026-05-02T13:46:18.308Z</time></trkpt><trkpt lat="46.1575617" lon="13.4219003"><ele>650.0</ele><time>2026-05-02T13:46:20.308Z</time></trkpt><trkpt lat="46.1576244" lon="13.421929"><ele>650.0</ele><time>2026-05-02T13:46:21.309Z</time></trkpt><trkpt lat="46.1576723" lon="13.4219949"><ele>650.0</ele><time>2026-05-02T13:46:22.308Z</time></trkpt><trkpt lat="46.1577001" lon="13.4221104"><ele>646.0</ele><time>2026-05-02T13:46:23.308Z</time></trkpt><trkpt lat="46.1577136" lon="13.4222265"><ele>642.0</ele><time>2026-05-02T13:46:24.309Z</time></trkpt><trkpt lat="46.1577057" lon="13.422345"><ele>638.0</ele><time>2026-05-02T13:46:25.309Z</time></trkpt><trkpt lat="46.1577011" lon="13.4224597"><ele>634.0</ele><time>2026-05-02T13:46:26.309Z</time></trkpt><trkpt lat="46.157685" lon="13.4225725"><ele>630.0</ele><time>2026-05-02T13:46:27.309Z</time></trkpt><trkpt lat="46.1576537" lon="13.422672"><ele>626.0</ele><time>2026-05-02T13:46:28.309Z</time></trkpt><trkpt lat="46.1576559" lon="13.4227671"><ele>626.0</ele><time>2026-05-02T13:46:29.309Z</time></trkpt><trkpt lat="46.1576574" lon="13.4228724"><ele>626.0</ele><time>2026-05-02T13:46:30.308Z</time></trkpt><trkpt lat="46.1576508" lon="13.4229859"><ele>626.0</ele><time>2026-05-02T13:46:31.308Z</time></trkpt><trkpt lat="46.15763" lon="13.4231014"><ele>626.0</ele><time>2026-05-02T13:46:32.309Z</time></trkpt><trkpt lat="46.157596" lon="13.4232196"><ele>626.0</ele><time>2026-05-02T13:46:33.309Z</time></trkpt><trkpt lat="46.1575599" lon="13.4233342"><ele>626.0</ele><time>2026-05-02T13:46:34.309Z</time></trkpt><trkpt lat="46.1575217" lon="13.4234514"><ele>623.5</ele><time>2026-05-02T13:46:35.309Z</time></trkpt><trkpt lat="46.1574837" lon="13.4235565"><ele>621.0</ele><time>2026-05-02T13:46:36.308Z</time></trkpt><trkpt lat="46.1574447" lon="13.4236589"><ele>618.5</ele><time>2026-05-02T13:46:37.309Z</time></trkpt><trkpt lat="46.1574011" lon="13.423752"><ele>616.0</ele><time>2026-05-02T13:46:38.308Z</time></trkpt><trkpt lat="46.1573521" lon="13.4238355"><ele>613.5</ele><time>2026-05-02T13:46:39.309Z</time></trkpt><trkpt lat="46.1573018" lon="13.4239029"><ele>611.0</ele><time>2026-05-02T13:46:40.309Z</time></trkpt><trkpt lat="46.1571784" lon="13.4239937"><ele>612.8333333333333</ele><time>2026-05-02T13:46:42.309Z</time></trkpt><trkpt lat="46.1570959" lon="13.4239991"><ele>614.6666666666666</ele><time>2026-05-02T13:46:43.308Z</time></trkpt><trkpt lat="46.1570215" lon="13.4239711"><ele>616.5</ele><time>2026-05-02T13:46:44.308Z</time></trkpt><trkpt lat="46.1569464" lon="13.4239251"><ele>618.3333333333334</ele><time>2026-05-02T13:46:45.309Z</time></trkpt><trkpt lat="46.156879" lon="13.4238662"><ele>620.1666666666667</ele><time>2026-05-02T13:46:46.309Z</time></trkpt><trkpt lat="46.1568196" lon="13.4238105"><ele>622.0</ele><time>2026-05-02T13:46:47.308Z</time></trkpt><trkpt lat="46.1567623" lon="13.4237638"><ele>622.0</ele><time>2026-05-02T13:46:48.309Z</time></trkpt><trkpt lat="46.156656" lon="13.4236778"><ele>622.0</ele><time>2026-05-02T13:46:50.309Z</time></trkpt><trkpt lat="46.1565418" lon="13.4236804"><ele>622.0</ele><time>2026-05-02T13:46:52.308Z</time></trkpt><trkpt lat="46.156469" lon="13.4236977"><ele>622.0</ele><time>2026-05-02T13:46:53.308Z</time></trkpt><trkpt lat="46.1563541" lon="13.4237245"><ele>622.0</ele><time>2026-05-02T13:46:55.309Z</time></trkpt><trkpt lat="46.1562923" lon="13.423746"><ele>624.0</ele><time>2026-05-02T13:46:56.308Z</time></trkpt><trkpt lat="46.1562312" lon="13.4237841"><ele>626.0</ele><time>2026-05-02T13:46:57.308Z</time></trkpt><trkpt lat="46.1561656" lon="13.423838"><ele>628.0</ele><time>2026-05-02T13:46:58.308Z</time></trkpt><trkpt lat="46.1561058" lon="13.4238938"><ele>630.0</ele><time>2026-05-02T13:46:59.309Z</time></trkpt><trkpt lat="46.156046" lon="13.4239428"><ele>632.0</ele><time>2026-05-02T13:47:00.309Z</time></trkpt><trkpt lat="46.1559766" lon="13.4240028"><ele>634.0</ele><time>2026-05-02T13:47:01.308Z</time></trkpt><trkpt lat="46.1559128" lon="13.4240695"><ele>636.0</ele><time>2026-05-02T13:47:02.309Z</time></trkpt><trkpt lat="46.1558453" lon="13.4241244"><ele>628.6</ele><time>2026-05-02T13:47:03.308Z</time></trkpt><trkpt lat="46.1557826" lon="13.4241928"><ele>621.2</ele><time>2026-05-02T13:47:04.309Z</time></trkpt><trkpt lat="46.1557295" lon="13.4242677"><ele>613.8</ele><time>2026-05-02T13:47:05.308Z</time></trkpt><trkpt lat="46.1556351" lon="13.4243599"><ele>606.4</ele><time>2026-05-02T13:47:07.309Z</time></trkpt><trkpt lat="46.1555435" lon="13.4244495"><ele>599.0</ele><time>2026-05-02T13:47:09.308Z</time></trkpt><trkpt lat="46.1554852" lon="13.4245268"><ele>599.0</ele><time>2026-05-02T13:47:11.309Z</time></trkpt><trkpt lat="46.1555091" lon="13.424615"><ele>599.0</ele><time>2026-05-02T13:47:14.308Z</time></trkpt><trkpt lat="46.1555899" lon="13.4245628"><ele>599.0</ele><time>2026-05-02T13:47:16.308Z</time></trkpt><trkpt lat="46.1556519" lon="13.4245347"><ele>599.0</ele><time>2026-05-02T13:47:17.309Z</time></trkpt><trkpt lat="46.1557148" lon="13.4245082"><ele>599.0</ele><time>2026-05-02T13:47:18.308Z</time></trkpt><trkpt lat="46.1557886" lon="13.4244849"><ele>599.0</ele><time>2026-05-02T13:47:19.308Z</time></trkpt><trkpt lat="46.1558589" lon="13.4244648"><ele>599.0</ele><time>2026-05-02T13:47:20.308Z</time></trkpt><trkpt lat="46.1559296" lon="13.424442"><ele>599.0</ele><time>2026-05-02T13:47:21.308Z</time></trkpt><trkpt lat="46.1560483" lon="13.4243903"><ele>599.0</ele><time>2026-05-02T13:47:23.309Z</time></trkpt><trkpt lat="46.156123" lon="13.4243685"><ele>599.0</ele><time>2026-05-02T13:47:24.309Z</time></trkpt><trkpt lat="46.1561961" lon="13.424363"><ele>599.0</ele><time>2026-05-02T13:47:25.308Z</time></trkpt><trkpt lat="46.1562803" lon="13.4243728"><ele>599.0</ele><time>2026-05-02T13:47:26.309Z</time></trkpt><trkpt lat="46.1563627" lon="13.4244221"><ele>599.0</ele><time>2026-05-02T13:47:27.308Z</time></trkpt><trkpt lat="46.1564242" lon="13.4244746"><ele>599.0</ele><time>2026-05-02T13:47:28.309Z</time></trkpt><trkpt lat="46.1564753" lon="13.4245453"><ele>599.0</ele><time>2026-05-02T13:47:29.309Z</time></trkpt><trkpt lat="46.1565132" lon="13.4246188"><ele>599.0</ele><time>2026-05-02T13:47:30.308Z</time></trkpt><trkpt lat="46.1565727" lon="13.424734"><ele>599.0</ele><time>2026-05-02T13:47:32.309Z</time></trkpt><trkpt lat="46.1565319" lon="13.4248201"><ele>599.0</ele><time>2026-05-02T13:47:34.308Z</time></trkpt><trkpt lat="46.1564466" lon="13.4248253"><ele>599.0</ele><time>2026-05-02T13:47:36.309Z</time></trkpt><trkpt lat="46.1563938" lon="13.4247678"><ele>593.0</ele><time>2026-05-02T13:47:38.309Z</time></trkpt><trkpt lat="46.1563035" lon="13.4246906"><ele>587.0</ele><time>2026-05-02T13:47:40.308Z</time></trkpt><trkpt lat="46.1561759" lon="13.4246884"><ele>581.0</ele><time>2026-05-02T13:47:42.308Z</time></trkpt><trkpt lat="46.1560969" lon="13.4247088"><ele>575.0</ele><time>2026-05-02T13:47:43.309Z</time></trkpt><trkpt lat="46.1560111" lon="13.4247485"><ele>569.0</ele><time>2026-05-02T13:47:44.309Z</time></trkpt><trkpt lat="46.1559265" lon="13.4247924"><ele>569.0</ele><time>2026-05-02T13:47:45.308Z</time></trkpt><trkpt lat="46.1558421" lon="13.4248447"><ele>569.0</ele><time>2026-05-02T13:47:46.308Z</time></trkpt><trkpt lat="46.1557676" lon="13.4249029"><ele>569.0</ele><time>2026-05-02T13:47:47.308Z</time></trkpt><trkpt lat="46.1556892" lon="13.4249597"><ele>569.0</ele><time>2026-05-02T13:47:48.309Z</time></trkpt><trkpt lat="46.1555995" lon="13.4250077"><ele>569.0</ele><time>2026-05-02T13:47:49.308Z</time></trkpt><trkpt lat="46.1555106" lon="13.4250543"><ele>568.0</ele><time>2026-05-02T13:47:50.308Z</time></trkpt><trkpt lat="46.155423" lon="13.4250843"><ele>567.0</ele><time>2026-05-02T13:47:51.309Z</time></trkpt><trkpt lat="46.1553481" lon="13.4251149"><ele>566.0</ele><time>2026-05-02T13:47:52.308Z</time></trkpt><trkpt lat="46.1552744" lon="13.4251415"><ele>565.0</ele><time>2026-05-02T13:47:53.309Z</time></trkpt><trkpt lat="46.1551991" lon="13.4251639"><ele>564.0</ele><time>2026-05-02T13:47:54.308Z</time></trkpt><trkpt lat="46.1551267" lon="13.4251729"><ele>563.0</ele><time>2026-05-02T13:47:55.309Z</time></trkpt><trkpt lat="46.1550512" lon="13.4251677"><ele>563.0</ele><time>2026-05-02T13:47:56.308Z</time></trkpt><trkpt lat="46.1549833" lon="13.4251527"><ele>563.0</ele><time>2026-05-02T13:47:57.309Z</time></trkpt><trkpt lat="46.1549225" lon="13.4251267"><ele>563.0</ele><time>2026-05-02T13:47:58.309Z</time></trkpt><trkpt lat="46.1548123" lon="13.4250657"><ele>563.0</ele><time>2026-05-02T13:48:00.308Z</time></trkpt><trkpt lat="46.1547006" lon="13.4249594"><ele>563.0</ele><time>2026-05-02T13:48:02.309Z</time></trkpt><trkpt lat="46.154638" lon="13.4249226"><ele>561.1999999999999</ele><time>2026-05-02T13:48:03.309Z</time></trkpt><trkpt lat="46.1545673" lon="13.4249092"><ele>559.4</ele><time>2026-05-02T13:48:04.308Z</time></trkpt><trkpt lat="46.1545043" lon="13.4248898"><ele>557.5999999999999</ele><time>2026-05-02T13:48:05.308Z</time></trkpt><trkpt lat="46.1543996" lon="13.42483"><ele>555.8</ele><time>2026-05-02T13:48:07.309Z</time></trkpt><trkpt lat="46.1542936" lon="13.4247487"><ele>554.0</ele><time>2026-05-02T13:48:09.308Z</time></trkpt><trkpt lat="46.1542134" lon="13.4246456"><ele>554.0</ele><time>2026-05-02T13:48:11.309Z</time></trkpt><trkpt lat="46.1541321" lon="13.4246373"><ele>554.0</ele><time>2026-05-02T13:48:14.309Z</time></trkpt><trkpt lat="46.1540734" lon="13.4247867"><ele>554.0</ele><time>2026-05-02T13:48:16.309Z</time></trkpt><trkpt lat="46.1540496" lon="13.424888"><ele>554.0</ele><time>2026-05-02T13:48:17.309Z</time></trkpt><trkpt lat="46.1540271" lon="13.4249817"><ele>554.0</ele><time>2026-05-02T13:48:18.309Z</time></trkpt><trkpt lat="46.1539973" lon="13.4250646"><ele>554.0</ele><time>2026-05-02T13:48:19.309Z</time></trkpt><trkpt lat="46.1539457" lon="13.4251314"><ele>554.2</ele><time>2026-05-02T13:48:20.309Z</time></trkpt><trkpt lat="46.1538952" lon="13.4252037"><ele>554.4</ele><time>2026-05-02T13:48:21.308Z</time></trkpt><trkpt lat="46.1538277" lon="13.4252854"><ele>554.6</ele><time>2026-05-02T13:48:22.308Z</time></trkpt><trkpt lat="46.1537523" lon="13.4253967"><ele>554.8</ele><time>2026-05-02T13:48:23.309Z</time></trkpt><trkpt lat="46.1536915" lon="13.4255196"><ele>555.0</ele><time>2026-05-02T13:48:24.309Z</time></trkpt><trkpt lat="46.1536349" lon="13.425609"><ele>550.8333333333334</ele><time>2026-05-02T13:48:25.308Z</time></trkpt><trkpt lat="46.1535922" lon="13.4256936"><ele>546.6666666666666</ele><time>2026-05-02T13:48:26.308Z</time></trkpt><trkpt lat="46.153545" lon="13.4257667"><ele>542.5</ele><time>2026-05-02T13:48:27.309Z</time></trkpt><trkpt lat="46.1534732" lon="13.4258546"><ele>538.3333333333333</ele><time>2026-05-02T13:48:29.309Z</time></trkpt><trkpt lat="46.1533721" lon="13.4258545"><ele>534.1666666666666</ele><time>2026-05-02T13:48:31.308Z</time></trkpt><trkpt lat="46.1533212" lon="13.4257463"><ele>530.0</ele><time>2026-05-02T13:48:33.309Z</time></trkpt><trkpt lat="46.1532886" lon="13.4255766"><ele>528.2</ele><time>2026-05-02T13:48:35.309Z</time></trkpt><trkpt lat="46.1532746" lon="13.4254173"><ele>526.4</ele><time>2026-05-02T13:48:37.308Z</time></trkpt><trkpt lat="46.1532301" lon="13.4252454"><ele>524.6</ele><time>2026-05-02T13:48:39.308Z</time></trkpt><trkpt lat="46.1531937" lon="13.4251504"><ele>522.8</ele><time>2026-05-02T13:48:40.309Z</time></trkpt><trkpt lat="46.1531534" lon="13.4250537"><ele>521.0</ele><time>2026-05-02T13:48:41.308Z</time></trkpt><trkpt lat="46.1531066" lon="13.4249721"><ele>521.0</ele><time>2026-05-02T13:48:42.309Z</time></trkpt><trkpt lat="46.1530502" lon="13.4249128"><ele>521.0</ele><time>2026-05-02T13:48:43.308Z</time></trkpt><trkpt lat="46.1529319" lon="13.4248521"><ele>521.0</ele><time>2026-05-02T13:48:45.309Z</time></trkpt><trkpt lat="46.1528664" lon="13.4248471"><ele>521.0</ele><time>2026-05-02T13:48:46.308Z</time></trkpt><trkpt lat="46.1528028" lon="13.4248597"><ele>521.0</ele><time>2026-05-02T13:48:47.308Z</time></trkpt><trkpt lat="46.1527141" lon="13.4248691"><ele>521.0</ele><time>2026-05-02T13:48:48.308Z</time></trkpt><trkpt lat="46.1526316" lon="13.4248709"><ele>521.0</ele><time>2026-05-02T13:48:49.308Z</time></trkpt><trkpt lat="46.1525484" lon="13.4248896"><ele>521.0</ele><time>2026-05-02T13:48:50.308Z</time></trkpt><trkpt lat="46.1524717" lon="13.424917"><ele>521.0</ele><time>2026-05-02T13:48:51.308Z</time></trkpt><trkpt lat="46.152406" lon="13.424947"><ele>521.0</ele><time>2026-05-02T13:48:52.309Z</time></trkpt><trkpt lat="46.1523346" lon="13.4249728"><ele>521.0</ele><time>2026-05-02T13:48:53.308Z</time></trkpt><trkpt lat="46.1522305" lon="13.4249656"><ele>521.0</ele><time>2026-05-02T13:48:55.309Z</time></trkpt><trkpt lat="46.1521746" lon="13.4248872"><ele>521.0</ele><time>2026-05-02T13:48:57.308Z</time></trkpt><trkpt lat="46.152105" lon="13.4247544"><ele>521.0</ele><time>2026-05-02T13:48:59.308Z</time></trkpt><trkpt lat="46.152004" lon="13.4246373"><ele>521.0</ele><time>2026-05-02T13:49:01.308Z</time></trkpt><trkpt lat="46.1519437" lon="13.4246022"><ele>521.0</ele><time>2026-05-02T13:49:02.309Z</time></trkpt><trkpt lat="46.1518229" lon="13.4246214"><ele>521.0</ele><time>2026-05-02T13:49:04.309Z</time></trkpt><trkpt lat="46.1517576" lon="13.4246765"><ele>521.0</ele><time>2026-05-02T13:49:05.309Z</time></trkpt><trkpt lat="46.1516794" lon="13.4247574"><ele>521.0</ele><time>2026-05-02T13:49:06.309Z</time></trkpt><trkpt lat="46.1516149" lon="13.424822"><ele>521.0</ele><time>2026-05-02T13:49:07.309Z</time></trkpt><trkpt lat="46.1515553" lon="13.4248674"><ele>521.0</ele><time>2026-05-02T13:49:08.309Z</time></trkpt><trkpt lat="46.1514846" lon="13.4249121"><ele>521.0</ele><time>2026-05-02T13:49:09.309Z</time></trkpt><trkpt lat="46.1514031" lon="13.424961"><ele>521.0</ele><time>2026-05-02T13:49:10.308Z</time></trkpt><trkpt lat="46.1513197" lon="13.4250191"><ele>529.1666666666666</ele><time>2026-05-02T13:49:11.308Z</time></trkpt><trkpt lat="46.1512319" lon="13.425088"><ele>537.3333333333333</ele><time>2026-05-02T13:49:12.308Z</time></trkpt><trkpt lat="46.1511552" lon="13.425135"><ele>545.5</ele><time>2026-05-02T13:49:13.308Z</time></trkpt><trkpt lat="46.1510753" lon="13.4251624"><ele>553.6666666666666</ele><time>2026-05-02T13:49:14.309Z</time></trkpt><trkpt lat="46.1510012" lon="13.4251977"><ele>561.8333333333334</ele><time>2026-05-02T13:49:15.308Z</time></trkpt><trkpt lat="46.1509272" lon="13.4252104"><ele>570.0</ele><time>2026-05-02T13:49:16.309Z</time></trkpt><trkpt lat="46.1508579" lon="13.4252145"><ele>570.0</ele><time>2026-05-02T13:49:17.309Z</time></trkpt><trkpt lat="46.1507862" lon="13.4251953"><ele>570.0</ele><time>2026-05-02T13:49:18.308Z</time></trkpt><trkpt lat="46.1506862" lon="13.4251859"><ele>570.0</ele><time>2026-05-02T13:49:20.309Z</time></trkpt><trkpt lat="46.1506349" lon="13.4253051"><ele>570.0</ele><time>2026-05-02T13:49:23.308Z</time></trkpt><trkpt lat="46.1506312" lon="13.4254011"><ele>570.0</ele><time>2026-05-02T13:49:24.309Z</time></trkpt><trkpt lat="46.1506602" lon="13.4255071"><ele>570.0</ele><time>2026-05-02T13:49:25.308Z</time></trkpt><trkpt lat="46.1506824" lon="13.4256295"><ele>572.3333333333334</ele><time>2026-05-02T13:49:26.309Z</time></trkpt><trkpt lat="46.1506905" lon="13.4257699"><ele>574.6666666666666</ele><time>2026-05-02T13:49:27.309Z</time></trkpt><trkpt lat="46.1506792" lon="13.4258988"><ele>577.0</ele><time>2026-05-02T13:49:28.309Z</time></trkpt><trkpt lat="46.1506715" lon="13.4260136"><ele>579.3333333333333</ele><time>2026-05-02T13:49:29.309Z</time></trkpt><trkpt lat="46.1506518" lon="13.4261197"><ele>581.6666666666666</ele><time>2026-05-02T13:49:30.308Z</time></trkpt><trkpt lat="46.1506392" lon="13.4262405"><ele>584.0</ele><time>2026-05-02T13:49:31.308Z</time></trkpt><trkpt lat="46.1506236" lon="13.4263612"><ele>584.0</ele><time>2026-05-02T13:49:32.309Z</time></trkpt><trkpt lat="46.1506146" lon="13.4264758"><ele>584.0</ele><time>2026-05-02T13:49:33.309Z</time></trkpt><trkpt lat="46.1506043" lon="13.4265816"><ele>584.0</ele><time>2026-05-02T13:49:34.309Z</time></trkpt><trkpt lat="46.1505904" lon="13.4266869"><ele>584.0</ele><time>2026-05-02T13:49:35.308Z</time></trkpt><trkpt lat="46.1505807" lon="13.4268085"><ele>584.0</ele><time>2026-05-02T13:49:36.308Z</time></trkpt><trkpt lat="46.1505722" lon="13.4269225"><ele>584.0</ele><time>2026-05-02T13:49:37.309Z</time></trkpt><trkpt lat="46.1505542" lon="13.4270553"><ele>580.6666666666666</ele><time>2026-05-02T13:49:38.309Z</time></trkpt><trkpt lat="46.1505502" lon="13.4271858"><ele>577.3333333333333</ele><time>2026-05-02T13:49:39.309Z</time></trkpt><trkpt lat="46.150546" lon="13.42731"><ele>574.0</ele><time>2026-05-02T13:49:40.308Z</time></trkpt><trkpt lat="46.1505457" lon="13.4274304"><ele>570.6666666666666</ele><time>2026-05-02T13:49:41.309Z</time></trkpt><trkpt lat="46.1505471" lon="13.4275433"><ele>567.3333333333334</ele><time>2026-05-02T13:49:42.308Z</time></trkpt><trkpt lat="46.1505477" lon="13.4276511"><ele>564.0</ele><time>2026-05-02T13:49:43.308Z</time></trkpt><trkpt lat="46.1505489" lon="13.427765"><ele>564.0</ele><time>2026-05-02T13:49:44.309Z</time></trkpt><trkpt lat="46.1505423" lon="13.4278832"><ele>564.0</ele><time>2026-05-02T13:49:45.308Z</time></trkpt><trkpt lat="46.1505358" lon="13.4279946"><ele>564.0</ele><time>2026-05-02T13:49:46.309Z</time></trkpt><trkpt lat="46.1505127" lon="13.4281198"><ele>564.0</ele><time>2026-05-02T13:49:47.308Z</time></trkpt><trkpt lat="46.1504784" lon="13.4282334"><ele>564.0</ele><time>2026-05-02T13:49:48.309Z</time></trkpt><trkpt lat="46.1504477" lon="13.4283517"><ele>564.0</ele><time>2026-05-02T13:49:49.308Z</time></trkpt><trkpt lat="46.1504264" lon="13.4284612"><ele>559.6666666666666</ele><time>2026-05-02T13:49:50.309Z</time></trkpt><trkpt lat="46.1504006" lon="13.4285681"><ele>555.3333333333334</ele><time>2026-05-02T13:49:51.308Z</time></trkpt><trkpt lat="46.1503638" lon="13.4286684"><ele>551.0</ele><time>2026-05-02T13:49:52.308Z</time></trkpt><trkpt lat="46.1503256" lon="13.4287666"><ele>546.6666666666667</ele><time>2026-05-02T13:49:53.308Z</time></trkpt><trkpt lat="46.1502908" lon="13.4288622"><ele>542.3333333333334</ele><time>2026-05-02T13:49:54.309Z</time></trkpt><trkpt lat="46.150243" lon="13.428954"><ele>538.0</ele><time>2026-05-02T13:49:55.309Z</time></trkpt><trkpt lat="46.1502075" lon="13.4290414"><ele>539.1666666666667</ele><time>2026-05-02T13:49:56.309Z</time></trkpt><trkpt lat="46.1501645" lon="13.4291225"><ele>540.3333333333334</ele><time>2026-05-02T13:49:57.308Z</time></trkpt><trkpt lat="46.1501142" lon="13.4292124"><ele>541.5</ele><time>2026-05-02T13:49:58.308Z</time></trkpt><trkpt lat="46.150056" lon="13.4292953"><ele>542.6666666666666</ele><time>2026-05-02T13:49:59.308Z</time></trkpt><trkpt lat="46.1499959" lon="13.4293856"><ele>543.8333333333333</ele><time>2026-05-02T13:50:00.308Z</time></trkpt><trkpt lat="46.1499347" lon="13.4294625"><ele>545.0</ele><time>2026-05-02T13:50:01.309Z</time></trkpt><trkpt lat="46.1498589" lon="13.4295276"><ele>545.0</ele><time>2026-05-02T13:50:02.309Z</time></trkpt><trkpt lat="46.1497755" lon="13.4295819"><ele>545.0</ele><time>2026-05-02T13:50:03.309Z</time></trkpt><trkpt lat="46.1496937" lon="13.429628"><ele>545.0</ele><time>2026-05-02T13:50:04.308Z</time></trkpt><trkpt lat="46.1496173" lon="13.4296583"><ele>545.0</ele><time>2026-05-02T13:50:05.309Z</time></trkpt><trkpt lat="46.1495567" lon="13.4296997"><ele>545.0</ele><time>2026-05-02T13:50:06.308Z</time></trkpt><trkpt lat="46.1494751" lon="13.4298416"><ele>538.3333333333333</ele><time>2026-05-02T13:50:08.308Z</time></trkpt><trkpt lat="46.1494389" lon="13.4299179"><ele>531.6666666666666</ele><time>2026-05-02T13:50:09.309Z</time></trkpt><trkpt lat="46.1493986" lon="13.4300138"><ele>525.0</ele><time>2026-05-02T13:50:10.308Z</time></trkpt><trkpt lat="46.1493452" lon="13.4300789"><ele>518.3333333333334</ele><time>2026-05-02T13:50:11.308Z</time></trkpt><trkpt lat="46.1492943" lon="13.4301404"><ele>511.6666666666667</ele><time>2026-05-02T13:50:12.308Z</time></trkpt><trkpt lat="46.1492052" lon="13.4302432"><ele>505.0</ele><time>2026-05-02T13:50:14.308Z</time></trkpt><trkpt lat="46.1490947" lon="13.4303047"><ele>508.50000000000006</ele><time>2026-05-02T13:50:16.308Z</time></trkpt><trkpt lat="46.1490296" lon="13.4303188"><ele>512.0</ele><time>2026-05-02T13:50:17.308Z</time></trkpt><trkpt lat="46.1489575" lon="13.4303157"><ele>515.5</ele><time>2026-05-02T13:50:18.309Z</time></trkpt><trkpt lat="46.1488823" lon="13.4303162"><ele>519.0</ele><time>2026-05-02T13:50:19.308Z</time></trkpt><trkpt lat="46.1488064" lon="13.4303197"><ele>522.5</ele><time>2026-05-02T13:50:20.308Z</time></trkpt><trkpt lat="46.1486912" lon="13.4303719"><ele>526.0</ele><time>2026-05-02T13:50:22.308Z</time></trkpt><trkpt lat="46.1486371" lon="13.4304265"><ele>519.6666666666667</ele><time>2026-05-02T13:50:23.309Z</time></trkpt><trkpt lat="46.1485885" lon="13.430497"><ele>513.3333333333334</ele><time>2026-05-02T13:50:24.308Z</time></trkpt><trkpt lat="46.1485504" lon="13.4305796"><ele>507.0</ele><time>2026-05-02T13:50:25.309Z</time></trkpt><trkpt lat="46.1485141" lon="13.4306592"><ele>500.66666666666663</ele><time>2026-05-02T13:50:26.309Z</time></trkpt><trkpt lat="46.1484727" lon="13.4307329"><ele>494.3333333333333</ele><time>2026-05-02T13:50:27.308Z</time></trkpt><trkpt lat="46.148415" lon="13.4308135"><ele>488.0</ele><time>2026-05-02T13:50:28.308Z</time></trkpt><trkpt lat="46.1482888" lon="13.4309236"><ele>488.0</ele><time>2026-05-02T13:50:30.308Z</time></trkpt><trkpt lat="46.148221" lon="13.4309877"><ele>487.99999999999994</ele><time>2026-05-02T13:50:31.308Z</time></trkpt><trkpt lat="46.1481494" lon="13.4310606"><ele>487.99999999999994</ele><time>2026-05-02T13:50:32.309Z</time></trkpt><trkpt lat="46.148055" lon="13.4311658"><ele>488.0</ele><time>2026-05-02T13:50:33.309Z</time></trkpt><trkpt lat="46.1479617" lon="13.4312695"><ele>488.0</ele><time>2026-05-02T13:50:34.309Z</time></trkpt><trkpt lat="46.1478794" lon="13.4313555"><ele>487.79999999999995</ele><time>2026-05-02T13:50:35.309Z</time></trkpt><trkpt lat="46.1477924" lon="13.431452"><ele>487.59999999999997</ele><time>2026-05-02T13:50:36.309Z</time></trkpt><trkpt lat="46.147707" lon="13.431561"><ele>487.40000000000003</ele><time>2026-05-02T13:50:37.308Z</time></trkpt><trkpt lat="46.1476422" lon="13.4316486"><ele>487.20000000000005</ele><time>2026-05-02T13:50:38.309Z</time></trkpt><trkpt lat="46.1475654" lon="13.4317246"><ele>487.0</ele><time>2026-05-02T13:50:39.308Z</time></trkpt><trkpt lat="46.147489" lon="13.4317923"><ele>487.00000000000006</ele><time>2026-05-02T13:50:40.309Z</time></trkpt><trkpt lat="46.1474157" lon="13.4318594"><ele>487.0</ele><time>2026-05-02T13:50:41.308Z</time></trkpt><trkpt lat="46.1473367" lon="13.4318917"><ele>487.0</ele><time>2026-05-02T13:50:42.309Z</time></trkpt><trkpt lat="46.1472551" lon="13.431935"><ele>487.0</ele><time>2026-05-02T13:50:43.309Z</time></trkpt><trkpt lat="46.1471696" lon="13.4319532"><ele>487.00000000000006</ele><time>2026-05-02T13:50:44.309Z</time></trkpt><trkpt lat="46.1470879" lon="13.4319491"><ele>487.0</ele><time>2026-05-02T13:50:45.309Z</time></trkpt><trkpt lat="46.147006" lon="13.4319562"><ele>488.33333333333337</ele><time>2026-05-02T13:50:46.309Z</time></trkpt><trkpt lat="46.1469252" lon="13.4319841"><ele>489.6666666666667</ele><time>2026-05-02T13:50:47.308Z</time></trkpt><trkpt lat="46.1468532" lon="13.4320193"><ele>491.0</ele><time>2026-05-02T13:50:48.308Z</time></trkpt><trkpt lat="46.1467882" lon="13.4320642"><ele>492.33333333333337</ele><time>2026-05-02T13:50:49.309Z</time></trkpt><trkpt lat="46.1467326" lon="13.4321107"><ele>493.6666666666667</ele><time>2026-05-02T13:50:50.308Z</time></trkpt><trkpt lat="46.1466718" lon="13.4321633"><ele>495.0</ele><time>2026-05-02T13:50:51.308Z</time></trkpt><trkpt lat="46.1466076" lon="13.4322484"><ele>492.2</ele><time>2026-05-02T13:50:52.309Z</time></trkpt><trkpt lat="46.146526" lon="13.4323304"><ele>489.4</ele><time>2026-05-02T13:50:53.309Z</time></trkpt><trkpt lat="46.1464449" lon="13.4324217"><ele>486.6</ele><time>2026-05-02T13:50:54.308Z</time></trkpt><trkpt lat="46.1463709" lon="13.4324919"><ele>483.8</ele><time>2026-05-02T13:50:55.308Z</time></trkpt><trkpt lat="46.1462751" lon="13.4325468"><ele>481.0</ele><time>2026-05-02T13:50:56.309Z</time></trkpt><trkpt lat="46.1461949" lon="13.4325947"><ele>481.0</ele><time>2026-05-02T13:50:57.309Z</time></trkpt><trkpt lat="46.1461062" lon="13.4326446"><ele>481.0</ele><time>2026-05-02T13:50:58.308Z</time></trkpt><trkpt lat="46.1459945" lon="13.4326915"><ele>481.0</ele><time>2026-05-02T13:50:59.308Z</time></trkpt><trkpt lat="46.1458932" lon="13.4327352"><ele>481.0</ele><time>2026-05-02T13:51:00.308Z</time></trkpt><trkpt lat="46.1457915" lon="13.4327742"><ele>481.0</ele><time>2026-05-02T13:51:01.309Z</time></trkpt><trkpt lat="46.1457099" lon="13.4328125"><ele>481.1666666666667</ele><time>2026-05-02T13:51:02.309Z</time></trkpt><trkpt lat="46.1456267" lon="13.4328448"><ele>481.33333333333337</ele><time>2026-05-02T13:51:03.309Z</time></trkpt><trkpt lat="46.145547" lon="13.4328768"><ele>481.5</ele><time>2026-05-02T13:51:04.308Z</time></trkpt><trkpt lat="46.1454662" lon="13.4328928"><ele>481.66666666666663</ele><time>2026-05-02T13:51:05.308Z</time></trkpt><trkpt lat="46.1453835" lon="13.4329037"><ele>481.8333333333333</ele><time>2026-05-02T13:51:06.308Z</time></trkpt><trkpt lat="46.1452938" lon="13.4329197"><ele>482.0</ele><time>2026-05-02T13:51:07.309Z</time></trkpt><trkpt lat="46.1451995" lon="13.4329442"><ele>476.8</ele><time>2026-05-02T13:51:08.308Z</time></trkpt><trkpt lat="46.145096" lon="13.4329782"><ele>471.6</ele><time>2026-05-02T13:51:09.309Z</time></trkpt><trkpt lat="46.1449942" lon="13.4330114"><ele>466.40000000000003</ele><time>2026-05-02T13:51:10.308Z</time></trkpt><trkpt lat="46.1448975" lon="13.4330408"><ele>461.20000000000005</ele><time>2026-05-02T13:51:11.309Z</time></trkpt><trkpt lat="46.1448065" lon="13.4330681"><ele>456.0</ele><time>2026-05-02T13:51:12.308Z</time></trkpt><trkpt lat="46.1447262" lon="13.433092"><ele>456.0</ele><time>2026-05-02T13:51:13.308Z</time></trkpt><trkpt lat="46.1446555" lon="13.4331088"><ele>456.0</ele><time>2026-05-02T13:51:14.308Z</time></trkpt><trkpt lat="46.1445852" lon="13.4331018"><ele>456.0</ele><time>2026-05-02T13:51:15.308Z</time></trkpt><trkpt lat="46.1445159" lon="13.4330662"><ele>456.0</ele><time>2026-05-02T13:51:16.309Z</time></trkpt><trkpt lat="46.1444576" lon="13.4330028"><ele>456.0</ele><time>2026-05-02T13:51:17.309Z</time></trkpt><trkpt lat="46.1444119" lon="13.432938"><ele>456.0</ele><time>2026-05-02T13:51:18.308Z</time></trkpt><trkpt lat="46.1443475" lon="13.4328054"><ele>458.8</ele><time>2026-05-02T13:51:20.309Z</time></trkpt><trkpt lat="46.1443002" lon="13.4326473"><ele>461.6</ele><time>2026-05-02T13:51:22.309Z</time></trkpt><trkpt lat="46.1442718" lon="13.4324796"><ele>464.4</ele><time>2026-05-02T13:51:24.308Z</time></trkpt><trkpt lat="46.1442548" lon="13.4323833"><ele>467.2</ele><time>2026-05-02T13:51:25.309Z</time></trkpt><trkpt lat="46.1441812" lon="13.4322345"><ele>470.0</ele><time>2026-05-02T13:51:27.308Z</time></trkpt><trkpt lat="46.1441037" lon="13.4321845"><ele>468.49999999999994</ele><time>2026-05-02T13:51:28.309Z</time></trkpt><trkpt lat="46.1440323" lon="13.4321406"><ele>467.0</ele><time>2026-05-02T13:51:29.308Z</time></trkpt><trkpt lat="46.1439624" lon="13.4320923"><ele>465.5</ele><time>2026-05-02T13:51:30.308Z</time></trkpt><trkpt lat="46.1438878" lon="13.4320462"><ele>464.0</ele><time>2026-05-02T13:51:31.308Z</time></trkpt><trkpt lat="46.1438134" lon="13.431994"><ele>462.49999999999994</ele><time>2026-05-02T13:51:32.309Z</time></trkpt><trkpt lat="46.1437488" lon="13.4319392"><ele>461.0</ele><time>2026-05-02T13:51:33.308Z</time></trkpt><trkpt lat="46.1436845" lon="13.4318886"><ele>461.0</ele><time>2026-05-02T13:51:34.308Z</time></trkpt><trkpt lat="46.1436207" lon="13.4318334"><ele>461.0</ele><time>2026-05-02T13:51:35.308Z</time></trkpt><trkpt lat="46.1435662" lon="13.431782"><ele>461.0</ele><time>2026-05-02T13:51:36.309Z</time></trkpt><trkpt lat="46.143497" lon="13.4316602"><ele>461.0</ele><time>2026-05-02T13:51:38.309Z</time></trkpt><trkpt lat="46.1435073" lon="13.4314943"><ele>461.0</ele><time>2026-05-02T13:51:40.308Z</time></trkpt><trkpt lat="46.1435906" lon="13.4313964"><ele>462.6</ele><time>2026-05-02T13:51:42.308Z</time></trkpt><trkpt lat="46.1436098" lon="13.4312604"><ele>464.20000000000005</ele><time>2026-05-02T13:51:44.309Z</time></trkpt><trkpt lat="46.1435422" lon="13.431186"><ele>465.79999999999995</ele><time>2026-05-02T13:51:46.308Z</time></trkpt><trkpt lat="46.1434751" lon="13.4311026"><ele>467.4</ele><time>2026-05-02T13:51:48.309Z</time></trkpt><trkpt lat="46.1434039" lon="13.4309903"><ele>469.0</ele><time>2026-05-02T13:51:50.309Z</time></trkpt><trkpt lat="46.1432922" lon="13.4309684"><ele>467.2</ele><time>2026-05-02T13:51:52.309Z</time></trkpt><trkpt lat="46.1431576" lon="13.4309536"><ele>465.4</ele><time>2026-05-02T13:51:54.309Z</time></trkpt><trkpt lat="46.1430673" lon="13.4309378"><ele>463.6</ele><time>2026-05-02T13:51:55.308Z</time></trkpt><trkpt lat="46.1429868" lon="13.430904"><ele>461.8</ele><time>2026-05-02T13:51:56.308Z</time></trkpt><trkpt lat="46.1429227" lon="13.4308758"><ele>460.0</ele><time>2026-05-02T13:51:57.309Z</time></trkpt><trkpt lat="46.1428421" lon="13.4307402"><ele>460.00000000000006</ele><time>2026-05-02T13:51:59.308Z</time></trkpt><trkpt lat="46.1428071" lon="13.4305782"><ele>460.0</ele><time>2026-05-02T13:52:01.309Z</time></trkpt><trkpt lat="46.1427976" lon="13.4304695"><ele>460.0</ele><time>2026-05-02T13:52:03.309Z</time></trkpt><trkpt lat="46.1427764" lon="13.4303788"><ele>460.0</ele><time>2026-05-02T13:52:05.308Z</time></trkpt><trkpt lat="46.142697" lon="13.430335"><ele>460.00000000000006</ele><time>2026-05-02T13:52:07.308Z</time></trkpt><trkpt lat="46.1426283" lon="13.4303502"><ele>460.0</ele><time>2026-05-02T13:52:08.309Z</time></trkpt><trkpt lat="46.1425639" lon="13.4303649"><ele>460.8</ele><time>2026-05-02T13:52:09.308Z</time></trkpt><trkpt lat="46.1424532" lon="13.4303026"><ele>461.6</ele><time>2026-05-02T13:52:11.309Z</time></trkpt><trkpt lat="46.1424011" lon="13.4302511"><ele>462.4</ele><time>2026-05-02T13:52:12.309Z</time></trkpt><trkpt lat="46.142352" lon="13.430184"><ele>463.2</ele><time>2026-05-02T13:52:13.309Z</time></trkpt><trkpt lat="46.1422693" lon="13.4300313"><ele>464.0</ele><time>2026-05-02T13:52:15.309Z</time></trkpt><trkpt lat="46.1422228" lon="13.4299485"><ele>463.99999999999994</ele><time>2026-05-02T13:52:16.308Z</time></trkpt><trkpt lat="46.142179" lon="13.4298579"><ele>464.0</ele><time>2026-05-02T13:52:17.308Z</time></trkpt><trkpt lat="46.1421454" lon="13.4297639"><ele>464.0</ele><time>2026-05-02T13:52:18.309Z</time></trkpt><trkpt lat="46.1421114" lon="13.4296528"><ele>464.0</ele><time>2026-05-02T13:52:19.308Z</time></trkpt><trkpt lat="46.1420799" lon="13.4295152"><ele>463.99999999999994</ele><time>2026-05-02T13:52:20.309Z</time></trkpt><trkpt lat="46.1420529" lon="13.429407"><ele>464.0</ele><time>2026-05-02T13:52:21.309Z</time></trkpt><trkpt lat="46.1420381" lon="13.4293045"><ele>465.3333333333333</ele><time>2026-05-02T13:52:22.309Z</time></trkpt><trkpt lat="46.1420537" lon="13.4292103"><ele>466.66666666666663</ele><time>2026-05-02T13:52:23.309Z</time></trkpt><trkpt lat="46.1420843" lon="13.4291273"><ele>468.0</ele><time>2026-05-02T13:52:24.308Z</time></trkpt><trkpt lat="46.1421149" lon="13.4290111"><ele>469.33333333333337</ele><time>2026-05-02T13:52:25.309Z</time></trkpt><trkpt lat="46.1421328" lon="13.4288984"><ele>470.6666666666667</ele><time>2026-05-02T13:52:26.308Z</time></trkpt><trkpt lat="46.1421434" lon="13.4287982"><ele>472.0</ele><time>2026-05-02T13:52:27.309Z</time></trkpt><trkpt lat="46.142119" lon="13.4286865"><ele>473.00000000000006</ele><time>2026-05-02T13:52:28.308Z</time></trkpt><trkpt lat="46.1421028" lon="13.428591"><ele>474.0</ele><time>2026-05-02T13:52:29.309Z</time></trkpt><trkpt lat="46.1420679" lon="13.4284866"><ele>475.0</ele><time>2026-05-02T13:52:30.308Z</time></trkpt><trkpt lat="46.1420297" lon="13.4284103"><ele>476.0</ele><time>2026-05-02T13:52:31.308Z</time></trkpt><trkpt lat="46.1419717" lon="13.4283249"><ele>477.00000000000006</ele><time>2026-05-02T13:52:32.309Z</time></trkpt><trkpt lat="46.1419045" lon="13.4282552"><ele>478.0</ele><time>2026-05-02T13:52:33.308Z</time></trkpt><trkpt lat="46.1417974" lon="13.4281383"><ele>478.00000000000006</ele><time>2026-05-02T13:52:35.308Z</time></trkpt><trkpt lat="46.1417524" lon="13.4280585"><ele>478.0</ele><time>2026-05-02T13:52:36.308Z</time></trkpt><trkpt lat="46.1417154" lon="13.4279587"><ele>478.0</ele><time>2026-05-02T13:52:37.308Z</time></trkpt><trkpt lat="46.1416884" lon="13.4278675"><ele>478.0</ele><time>2026-05-02T13:52:38.308Z</time></trkpt><trkpt lat="46.1416774" lon="13.4277498"><ele>478.00000000000006</ele><time>2026-05-02T13:52:39.309Z</time></trkpt><trkpt lat="46.1416653" lon="13.4276432"><ele>478.0</ele><time>2026-05-02T13:52:40.308Z</time></trkpt><trkpt lat="46.1416329" lon="13.4274908"><ele>479.50000000000006</ele><time>2026-05-02T13:52:42.309Z</time></trkpt><trkpt lat="46.141528" lon="13.4274159"><ele>481.0</ele><time>2026-05-02T13:52:44.309Z</time></trkpt><trkpt lat="46.1414621" lon="13.4274"><ele>482.5</ele><time>2026-05-02T13:52:45.308Z</time></trkpt><trkpt lat="46.1413872" lon="13.4274024"><ele>484.0</ele><time>2026-05-02T13:52:46.309Z</time></trkpt><trkpt lat="46.141291" lon="13.4274116"><ele>485.50000000000006</ele><time>2026-05-02T13:52:47.308Z</time></trkpt><trkpt lat="46.1412083" lon="13.4274366"><ele>487.0</ele><time>2026-05-02T13:52:48.309Z</time></trkpt><trkpt lat="46.141142" lon="13.4274641"><ele>487.00000000000006</ele><time>2026-05-02T13:52:49.309Z</time></trkpt><trkpt lat="46.1410211" lon="13.4275315"><ele>487.0</ele><time>2026-05-02T13:52:51.308Z</time></trkpt><trkpt lat="46.1409608" lon="13.4275636"><ele>487.0</ele><time>2026-05-02T13:52:52.309Z</time></trkpt><trkpt lat="46.140896" lon="13.4275821"><ele>487.0</ele><time>2026-05-02T13:52:53.308Z</time></trkpt><trkpt lat="46.1408239" lon="13.4275789"><ele>487.00000000000006</ele><time>2026-05-02T13:52:54.308Z</time></trkpt><trkpt lat="46.1407492" lon="13.4275747"><ele>487.0</ele><time>2026-05-02T13:52:55.308Z</time></trkpt><trkpt lat="46.1406745" lon="13.4275444"><ele>485.50000000000006</ele><time>2026-05-02T13:52:56.308Z</time></trkpt><trkpt lat="46.1405984" lon="13.4275123"><ele>484.0</ele><time>2026-05-02T13:52:57.309Z</time></trkpt><trkpt lat="46.1405355" lon="13.4274644"><ele>482.5</ele><time>2026-05-02T13:52:58.309Z</time></trkpt><trkpt lat="46.1404731" lon="13.4273936"><ele>481.0</ele><time>2026-05-02T13:52:59.309Z</time></trkpt><trkpt lat="46.1404255" lon="13.4273108"><ele>479.50000000000006</ele><time>2026-05-02T13:53:00.308Z</time></trkpt><trkpt lat="46.1403892" lon="13.4272339"><ele>478.0</ele><time>2026-05-02T13:53:01.309Z</time></trkpt><trkpt lat="46.1403689" lon="13.427045"><ele>478.00000000000006</ele><time>2026-05-02T13:53:03.309Z</time></trkpt><trkpt lat="46.1403517" lon="13.4269403"><ele>478.0</ele><time>2026-05-02T13:53:04.308Z</time></trkpt><trkpt lat="46.1403368" lon="13.426829"><ele>478.0</ele><time>2026-05-02T13:53:05.308Z</time></trkpt><trkpt lat="46.140315" lon="13.426729"><ele>478.0</ele><time>2026-05-02T13:53:06.309Z</time></trkpt><trkpt lat="46.1402895" lon="13.4266329"><ele>478.00000000000006</ele><time>2026-05-02T13:53:07.309Z</time></trkpt><trkpt lat="46.1402962" lon="13.426454"><ele>478.0</ele><time>2026-05-02T13:53:09.308Z</time></trkpt><trkpt lat="46.1403238" lon="13.426357"><ele>479.59999999999997</ele><time>2026-05-02T13:53:10.308Z</time></trkpt><trkpt lat="46.1403669" lon="13.4262647"><ele>481.19999999999993</ele><time>2026-05-02T13:53:11.308Z</time></trkpt><trkpt lat="46.1404584" lon="13.4261747"><ele>482.8</ele><time>2026-05-02T13:53:13.308Z</time></trkpt><trkpt lat="46.1405144" lon="13.426081"><ele>484.4</ele><time>2026-05-02T13:53:15.309Z</time></trkpt><trkpt lat="46.1405036" lon="13.4259895"><ele>486.0</ele><time>2026-05-02T13:53:17.308Z</time></trkpt><trkpt lat="46.1403963" lon="13.425921"><ele>486.0</ele><time>2026-05-02T13:53:19.308Z</time></trkpt><trkpt lat="46.1403295" lon="13.4258879"><ele>486.0</ele><time>2026-05-02T13:53:20.309Z</time></trkpt><trkpt lat="46.1402434" lon="13.4258373"><ele>486.0</ele><time>2026-05-02T13:53:21.309Z</time></trkpt><trkpt lat="46.1401311" lon="13.4257727"><ele>486.0</ele><time>2026-05-02T13:53:22.309Z</time></trkpt><trkpt lat="46.1400568" lon="13.4257217"><ele>486.0</ele><time>2026-05-02T13:53:23.309Z</time></trkpt><trkpt lat="46.1399819" lon="13.4256714"><ele>486.0</ele><time>2026-05-02T13:53:24.309Z</time></trkpt><trkpt lat="46.139918" lon="13.4256134"><ele>483.8333333333333</ele><time>2026-05-02T13:53:25.308Z</time></trkpt><trkpt lat="46.1398551" lon="13.4255338"><ele>481.66666666666663</ele><time>2026-05-02T13:53:26.308Z</time></trkpt><trkpt lat="46.1397997" lon="13.4254485"><ele>479.5</ele><time>2026-05-02T13:53:27.309Z</time></trkpt><trkpt lat="46.1397348" lon="13.4253668"><ele>477.3333333333333</ele><time>2026-05-02T13:53:28.308Z</time></trkpt><trkpt lat="46.1396783" lon="13.4252949"><ele>475.16666666666663</ele><time>2026-05-02T13:53:29.309Z</time></trkpt><trkpt lat="46.1396352" lon="13.4252166"><ele>473.0</ele><time>2026-05-02T13:53:30.308Z</time></trkpt><trkpt lat="46.1395953" lon="13.4251193"><ele>472.99999999999994</ele><time>2026-05-02T13:53:31.308Z</time></trkpt><trkpt lat="46.1395704" lon="13.4250146"><ele>473.0</ele><time>2026-05-02T13:53:32.308Z</time></trkpt><trkpt lat="46.1395365" lon="13.4248812"><ele>473.0</ele><time>2026-05-02T13:53:33.308Z</time></trkpt><trkpt lat="46.1395351" lon="13.4247813"><ele>473.0</ele><time>2026-05-02T13:53:34.308Z</time></trkpt><trkpt lat="46.1395585" lon="13.4246917"><ele>472.99999999999994</ele><time>2026-05-02T13:53:35.308Z</time></trkpt><trkpt lat="46.1395957" lon="13.4246164"><ele>473.0</ele><time>2026-05-02T13:53:36.309Z</time></trkpt><trkpt lat="46.1396641" lon="13.4244729"><ele>473.8333333333333</ele><time>2026-05-02T13:53:38.309Z</time></trkpt><trkpt lat="46.1396577" lon="13.424323"><ele>474.66666666666663</ele><time>2026-05-02T13:53:40.308Z</time></trkpt><trkpt lat="46.1396212" lon="13.4242377"><ele>475.5</ele><time>2026-05-02T13:53:41.309Z</time></trkpt><trkpt lat="46.1395914" lon="13.4241554"><ele>476.33333333333337</ele><time>2026-05-02T13:53:42.308Z</time></trkpt><trkpt lat="46.1395582" lon="13.4240535"><ele>477.1666666666667</ele><time>2026-05-02T13:53:43.309Z</time></trkpt><trkpt lat="46.1395269" lon="13.4239416"><ele>478.0</ele><time>2026-05-02T13:53:44.309Z</time></trkpt><trkpt lat="46.1395174" lon="13.4238345"><ele>479.0</ele><time>2026-05-02T13:53:45.309Z</time></trkpt><trkpt lat="46.1395142" lon="13.423697"><ele>479.99999999999994</ele><time>2026-05-02T13:53:46.308Z</time></trkpt><trkpt lat="46.1395074" lon="13.4235723"><ele>480.99999999999994</ele><time>2026-05-02T13:53:47.308Z</time></trkpt><trkpt lat="46.1394751" lon="13.4234407"><ele>482.0</ele><time>2026-05-02T13:53:48.308Z</time></trkpt><trkpt lat="46.1394381" lon="13.4233242"><ele>483.0</ele><time>2026-05-02T13:53:49.308Z</time></trkpt><trkpt lat="46.1393976" lon="13.4232095"><ele>483.0</ele><time>2026-05-02T13:53:50.308Z</time></trkpt><trkpt lat="46.1393736" lon="13.423112"><ele>483.0</ele><time>2026-05-02T13:53:51.308Z</time></trkpt><trkpt lat="46.1393577" lon="13.4230126"><ele>483.0</ele><time>2026-05-02T13:53:52.309Z</time></trkpt><trkpt lat="46.1393544" lon="13.4228918"><ele>483.0</ele><time>2026-05-02T13:53:53.308Z</time></trkpt><trkpt lat="46.1393396" lon="13.4227761"><ele>483.0</ele><time>2026-05-02T13:53:54.308Z</time></trkpt><trkpt lat="46.1393197" lon="13.4226823"><ele>483.0</ele><time>2026-05-02T13:53:55.309Z</time></trkpt><trkpt lat="46.1392636" lon="13.422534"><ele>484.8333333333333</ele><time>2026-05-02T13:53:57.309Z</time></trkpt><trkpt lat="46.1392171" lon="13.4224658"><ele>486.66666666666663</ele><time>2026-05-02T13:53:58.309Z</time></trkpt><trkpt lat="46.1391643" lon="13.4224005"><ele>488.5</ele><time>2026-05-02T13:53:59.308Z</time></trkpt><trkpt lat="46.1391044" lon="13.4223378"><ele>490.3333333333333</ele><time>2026-05-02T13:54:00.308Z</time></trkpt><trkpt lat="46.1390518" lon="13.4222853"><ele>492.16666666666663</ele><time>2026-05-02T13:54:01.308Z</time></trkpt><trkpt lat="46.1389774" lon="13.4221821"><ele>494.0</ele><time>2026-05-02T13:54:03.308Z</time></trkpt><trkpt lat="46.1389395" lon="13.4220456"><ele>495.6</ele><time>2026-05-02T13:54:05.309Z</time></trkpt><trkpt lat="46.1388777" lon="13.4219395"><ele>497.2</ele><time>2026-05-02T13:54:07.308Z</time></trkpt><trkpt lat="46.1388017" lon="13.4219163"><ele>498.80000000000007</ele><time>2026-05-02T13:54:09.308Z</time></trkpt><trkpt lat="46.1386821" lon="13.4219493"><ele>500.40000000000003</ele><time>2026-05-02T13:54:11.309Z</time></trkpt><trkpt lat="46.1386065" lon="13.4219669"><ele>502.0</ele><time>2026-05-02T13:54:12.309Z</time></trkpt><trkpt lat="46.1385306" lon="13.4220052"><ele>502.00000000000006</ele><time>2026-05-02T13:54:13.308Z</time></trkpt><trkpt lat="46.1384523" lon="13.4220302"><ele>502.0</ele><time>2026-05-02T13:54:14.308Z</time></trkpt><trkpt lat="46.1383789" lon="13.4220604"><ele>502.0</ele><time>2026-05-02T13:54:15.308Z</time></trkpt><trkpt lat="46.1383062" lon="13.4220767"><ele>502.0</ele><time>2026-05-02T13:54:16.308Z</time></trkpt><trkpt lat="46.1382368" lon="13.4220798"><ele>502.00000000000006</ele><time>2026-05-02T13:54:17.309Z</time></trkpt><trkpt lat="46.1381694" lon="13.4220574"><ele>502.0</ele><time>2026-05-02T13:54:18.308Z</time></trkpt><trkpt lat="46.1380883" lon="13.4220488"><ele>499.6666666666667</ele><time>2026-05-02T13:54:19.308Z</time></trkpt><trkpt lat="46.1380028" lon="13.4220352"><ele>497.33333333333337</ele><time>2026-05-02T13:54:20.308Z</time></trkpt><trkpt lat="46.1379168" lon="13.4220326"><ele>495.0</ele><time>2026-05-02T13:54:21.309Z</time></trkpt><trkpt lat="46.1378245" lon="13.4220427"><ele>492.66666666666663</ele><time>2026-05-02T13:54:22.309Z</time></trkpt><trkpt lat="46.1377435" lon="13.4220613"><ele>490.3333333333333</ele><time>2026-05-02T13:54:23.308Z</time></trkpt><trkpt lat="46.1376636" lon="13.4220733"><ele>488.0</ele><time>2026-05-02T13:54:24.308Z</time></trkpt><trkpt lat="46.1375921" lon="13.4220712"><ele>488.0</ele><time>2026-05-02T13:54:25.308Z</time></trkpt><trkpt lat="46.1375295" lon="13.4220613"><ele>487.99999999999994</ele><time>2026-05-02T13:54:26.309Z</time></trkpt><trkpt lat="46.1374279" lon="13.4220008"><ele>487.99999999999994</ele><time>2026-05-02T13:54:28.309Z</time></trkpt><trkpt lat="46.137418" lon="13.4218663"><ele>488.0</ele><time>2026-05-02T13:54:30.309Z</time></trkpt><trkpt lat="46.1374169" lon="13.4217182"><ele>488.0</ele><time>2026-05-02T13:54:32.309Z</time></trkpt><trkpt lat="46.1373932" lon="13.4215654"><ele>483.79999999999995</ele><time>2026-05-02T13:54:34.308Z</time></trkpt><trkpt lat="46.1373237" lon="13.4214341"><ele>479.59999999999997</ele><time>2026-05-02T13:54:36.309Z</time></trkpt><trkpt lat="46.1372441" lon="13.4213098"><ele>475.40000000000003</ele><time>2026-05-02T13:54:38.309Z</time></trkpt><trkpt lat="46.1372068" lon="13.42122"><ele>471.20000000000005</ele><time>2026-05-02T13:54:39.309Z</time></trkpt><trkpt lat="46.1371915" lon="13.4211107"><ele>467.0</ele><time>2026-05-02T13:54:40.308Z</time></trkpt><trkpt lat="46.1371986" lon="13.4210056"><ele>466.99999999999994</ele><time>2026-05-02T13:54:41.309Z</time></trkpt><trkpt lat="46.1372201" lon="13.4208742"><ele>467.0</ele><time>2026-05-02T13:54:42.308Z</time></trkpt><trkpt lat="46.1372411" lon="13.4207566"><ele>466.99999999999994</ele><time>2026-05-02T13:54:43.308Z</time></trkpt><trkpt lat="46.137252" lon="13.4206574"><ele>466.99999999999994</ele><time>2026-05-02T13:54:44.309Z</time></trkpt><trkpt lat="46.137252" lon="13.4205657"><ele>467.0</ele><time>2026-05-02T13:54:45.309Z</time></trkpt><trkpt lat="46.137258" lon="13.4204724"><ele>466.99999999999994</ele><time>2026-05-02T13:54:46.308Z</time></trkpt><trkpt lat="46.137242" lon="13.4203839"><ele>466.99999999999994</ele><time>2026-05-02T13:54:47.308Z</time></trkpt><trkpt lat="46.1371824" lon="13.4202491"><ele>469.99999999999994</ele><time>2026-05-02T13:54:49.309Z</time></trkpt><trkpt lat="46.1371268" lon="13.4202037"><ele>473.0</ele><time>2026-05-02T13:54:50.309Z</time></trkpt><trkpt lat="46.1370622" lon="13.4201721"><ele>476.0</ele><time>2026-05-02T13:54:51.308Z</time></trkpt><trkpt lat="46.136989" lon="13.4201455"><ele>479.0</ele><time>2026-05-02T13:54:52.309Z</time></trkpt><trkpt lat="46.1369125" lon="13.4200966"><ele>481.99999999999994</ele><time>2026-05-02T13:54:53.308Z</time></trkpt><trkpt lat="46.1368268" lon="13.4200244"><ele>485.0</ele><time>2026-05-02T13:54:54.309Z</time></trkpt><trkpt lat="46.1367473" lon="13.4199626"><ele>485.0</ele><time>2026-05-02T13:54:55.309Z</time></trkpt><trkpt lat="46.1366624" lon="13.4199027"><ele>485.0</ele><time>2026-05-02T13:54:56.309Z</time></trkpt><trkpt lat="46.1365864" lon="13.4198517"><ele>485.0</ele><time>2026-05-02T13:54:57.308Z</time></trkpt><trkpt lat="46.1365174" lon="13.4197932"><ele>485.0</ele><time>2026-05-02T13:54:58.309Z</time></trkpt><trkpt lat="46.1364532" lon="13.419728"><ele>485.0</ele><time>2026-05-02T13:54:59.308Z</time></trkpt><trkpt lat="46.136363" lon="13.4196252"><ele>490.2</ele><time>2026-05-02T13:55:01.308Z</time></trkpt><trkpt lat="46.1363241" lon="13.4194752"><ele>495.4</ele><time>2026-05-02T13:55:03.308Z</time></trkpt><trkpt lat="46.136296" lon="13.4193382"><ele>500.6</ele><time>2026-05-02T13:55:05.309Z</time></trkpt><trkpt lat="46.1362513" lon="13.4192318"><ele>505.8</ele><time>2026-05-02T13:55:07.308Z</time></trkpt><trkpt lat="46.1361901" lon="13.4191784"><ele>511.0</ele><time>2026-05-02T13:55:09.309Z</time></trkpt><trkpt lat="46.1361352" lon="13.4192706"><ele>511.0</ele><time>2026-05-02T13:55:11.308Z</time></trkpt><trkpt lat="46.1361148" lon="13.4194133"><ele>511.0</ele><time>2026-05-02T13:55:13.308Z</time></trkpt><trkpt lat="46.1360777" lon="13.4195663"><ele>511.0</ele><time>2026-05-02T13:55:15.309Z</time></trkpt><trkpt lat="46.1360196" lon="13.4197249"><ele>511.0</ele><time>2026-05-02T13:55:17.309Z</time></trkpt><trkpt lat="46.1359773" lon="13.419805"><ele>511.0</ele><time>2026-05-02T13:55:18.309Z</time></trkpt><trkpt lat="46.1359168" lon="13.4198722"><ele>507.33333333333337</ele><time>2026-05-02T13:55:19.308Z</time></trkpt><trkpt lat="46.135801" lon="13.4199491"><ele>503.6666666666667</ele><time>2026-05-02T13:55:21.309Z</time></trkpt><trkpt lat="46.1357375" lon="13.4199373"><ele>500.0</ele><time>2026-05-02T13:55:22.308Z</time></trkpt><trkpt lat="46.1356718" lon="13.4199069"><ele>496.33333333333337</ele><time>2026-05-02T13:55:23.309Z</time></trkpt><trkpt lat="46.1355966" lon="13.4198806"><ele>492.6666666666667</ele><time>2026-05-02T13:55:24.309Z</time></trkpt><trkpt lat="46.135524" lon="13.4198692"><ele>489.0</ele><time>2026-05-02T13:55:25.308Z</time></trkpt><trkpt lat="46.1354591" lon="13.4198923"><ele>489.0</ele><time>2026-05-02T13:55:26.308Z</time></trkpt><trkpt lat="46.1353797" lon="13.4199455"><ele>489.0</ele><time>2026-05-02T13:55:27.309Z</time></trkpt><trkpt lat="46.1353135" lon="13.4199938"><ele>489.0</ele><time>2026-05-02T13:55:28.308Z</time></trkpt><trkpt lat="46.1352451" lon="13.4200364"><ele>489.0</ele><time>2026-05-02T13:55:29.308Z</time></trkpt><trkpt lat="46.1351787" lon="13.4200788"><ele>489.0</ele><time>2026-05-02T13:55:30.309Z</time></trkpt><trkpt lat="46.1351139" lon="13.4201503"><ele>489.0</ele><time>2026-05-02T13:55:31.308Z</time></trkpt><trkpt lat="46.1350528" lon="13.4202176"><ele>489.0</ele><time>2026-05-02T13:55:32.308Z</time></trkpt><trkpt lat="46.13499" lon="13.4202893"><ele>489.0</ele><time>2026-05-02T13:55:33.309Z</time></trkpt><trkpt lat="46.1349287" lon="13.4203841"><ele>489.0</ele><time>2026-05-02T13:55:34.308Z</time></trkpt><trkpt lat="46.1348669" lon="13.4204751"><ele>489.0</ele><time>2026-05-02T13:55:35.309Z</time></trkpt><trkpt lat="46.1348049" lon="13.4205696"><ele>489.0</ele><time>2026-05-02T13:55:36.308Z</time></trkpt><trkpt lat="46.1347261" lon="13.4206726"><ele>485.1666666666667</ele><time>2026-05-02T13:55:37.308Z</time></trkpt><trkpt lat="46.134649" lon="13.4207632"><ele>481.33333333333337</ele><time>2026-05-02T13:55:38.308Z</time></trkpt><trkpt lat="46.1345863" lon="13.4208405"><ele>477.5</ele><time>2026-05-02T13:55:39.308Z</time></trkpt><trkpt lat="46.1344981" lon="13.4209034"><ele>473.6666666666667</ele><time>2026-05-02T13:55:40.309Z</time></trkpt><trkpt lat="46.134418" lon="13.4209302"><ele>469.83333333333337</ele><time>2026-05-02T13:55:41.308Z</time></trkpt><trkpt lat="46.134339" lon="13.420947"><ele>466.0</ele><time>2026-05-02T13:55:42.308Z</time></trkpt><trkpt lat="46.1342728" lon="13.4209923"><ele>466.0</ele><time>2026-05-02T13:55:43.308Z</time></trkpt><trkpt lat="46.1342121" lon="13.4210371"><ele>466.0</ele><time>2026-05-02T13:55:44.309Z</time></trkpt><trkpt lat="46.1341552" lon="13.4210853"><ele>466.0</ele><time>2026-05-02T13:55:45.308Z</time></trkpt><trkpt lat="46.1340969" lon="13.4211408"><ele>466.0</ele><time>2026-05-02T13:55:46.308Z</time></trkpt><trkpt lat="46.1340355" lon="13.4212012"><ele>466.0</ele><time>2026-05-02T13:55:47.308Z</time></trkpt><trkpt lat="46.1339738" lon="13.4212574"><ele>466.0</ele><time>2026-05-02T13:55:48.309Z</time></trkpt><trkpt lat="46.1339153" lon="13.4213101"><ele>466.0</ele><time>2026-05-02T13:55:49.309Z</time></trkpt><trkpt lat="46.1338537" lon="13.4213541"><ele>461.6666666666667</ele><time>2026-05-02T13:55:50.309Z</time></trkpt><trkpt lat="46.1337998" lon="13.4214045"><ele>457.33333333333337</ele><time>2026-05-02T13:55:51.309Z</time></trkpt><trkpt lat="46.1337424" lon="13.42145"><ele>453.0</ele><time>2026-05-02T13:55:52.308Z</time></trkpt><trkpt lat="46.1336882" lon="13.4215118"><ele>448.66666666666663</ele><time>2026-05-02T13:55:53.309Z</time></trkpt><trkpt lat="46.1335917" lon="13.4215858"><ele>444.3333333333333</ele><time>2026-05-02T13:55:55.308Z</time></trkpt><trkpt lat="46.1335289" lon="13.4216177"><ele>440.0</ele><time>2026-05-02T13:55:56.308Z</time></trkpt><trkpt lat="46.1334038" lon="13.4216724"><ele>440.0</ele><time>2026-05-02T13:55:58.308Z</time></trkpt><trkpt lat="46.1333349" lon="13.4216891"><ele>440.0</ele><time>2026-05-02T13:55:59.308Z</time></trkpt><trkpt lat="46.1332243" lon="13.4216673"><ele>440.0</ele><time>2026-05-02T13:56:01.308Z</time></trkpt><trkpt lat="46.1331481" lon="13.4215542"><ele>440.0</ele><time>2026-05-02T13:56:03.308Z</time></trkpt><trkpt lat="46.1331305" lon="13.421394"><ele>440.0</ele><time>2026-05-02T13:56:05.309Z</time></trkpt><trkpt lat="46.133145" lon="13.4212006"><ele>434.99999999999994</ele><time>2026-05-02T13:56:07.308Z</time></trkpt><trkpt lat="46.1331521" lon="13.4211052"><ele>430.0</ele><time>2026-05-02T13:56:08.308Z</time></trkpt><trkpt lat="46.1331564" lon="13.4210005"><ele>425.0</ele><time>2026-05-02T13:56:09.309Z</time></trkpt><trkpt lat="46.1331521" lon="13.4208959"><ele>420.0</ele><time>2026-05-02T13:56:10.309Z</time></trkpt><trkpt lat="46.1331347" lon="13.4207966"><ele>414.99999999999994</ele><time>2026-05-02T13:56:11.309Z</time></trkpt><trkpt lat="46.133102" lon="13.420714"><ele>410.0</ele><time>2026-05-02T13:56:12.308Z</time></trkpt><trkpt lat="46.1330178" lon="13.4206028"><ele>410.0</ele><time>2026-05-02T13:56:14.308Z</time></trkpt><trkpt lat="46.1329168" lon="13.4205564"><ele>410.0</ele><time>2026-05-02T13:56:16.308Z</time></trkpt><trkpt lat="46.1328074" lon="13.4205619"><ele>410.0</ele><time>2026-05-02T13:56:18.309Z</time></trkpt><trkpt lat="46.132698" lon="13.4206242"><ele>410.0</ele><time>2026-05-02T13:56:20.309Z</time></trkpt><trkpt lat="46.1325883" lon="13.4206447"><ele>410.0</ele><time>2026-05-02T13:56:22.308Z</time></trkpt><trkpt lat="46.1325024" lon="13.4205433"><ele>410.8</ele><time>2026-05-02T13:56:24.309Z</time></trkpt><trkpt lat="46.1324375" lon="13.4204024"><ele>411.6</ele><time>2026-05-02T13:56:26.308Z</time></trkpt><trkpt lat="46.1324027" lon="13.4203121"><ele>412.4</ele><time>2026-05-02T13:56:27.309Z</time></trkpt><trkpt lat="46.1323868" lon="13.4201145"><ele>413.2</ele><time>2026-05-02T13:56:29.309Z</time></trkpt><trkpt lat="46.1323799" lon="13.4200042"><ele>414.0</ele><time>2026-05-02T13:56:30.308Z</time></trkpt><trkpt lat="46.1323773" lon="13.4199042"><ele>412.8333333333333</ele><time>2026-05-02T13:56:31.308Z</time></trkpt><trkpt lat="46.1323715" lon="13.4197976"><ele>411.66666666666663</ele><time>2026-05-02T13:56:32.309Z</time></trkpt><trkpt lat="46.1323735" lon="13.4196666"><ele>410.5</ele><time>2026-05-02T13:56:33.309Z</time></trkpt><trkpt lat="46.1323774" lon="13.4195555"><ele>409.3333333333333</ele><time>2026-05-02T13:56:34.309Z</time></trkpt><trkpt lat="46.1323898" lon="13.4194539"><ele>408.16666666666663</ele><time>2026-05-02T13:56:35.308Z</time></trkpt><trkpt lat="46.1324013" lon="13.4193525"><ele>407.0</ele><time>2026-05-02T13:56:36.309Z</time></trkpt><trkpt lat="46.1323894" lon="13.4192422"><ele>398.66666666666663</ele><time>2026-05-02T13:56:37.309Z</time></trkpt><trkpt lat="46.1323728" lon="13.4191295"><ele>390.3333333333333</ele><time>2026-05-02T13:56:38.309Z</time></trkpt><trkpt lat="46.132367" lon="13.4190239"><ele>382.0</ele><time>2026-05-02T13:56:39.308Z</time></trkpt><trkpt lat="46.132367" lon="13.4189309"><ele>373.66666666666663</ele><time>2026-05-02T13:56:40.308Z</time></trkpt><trkpt lat="46.1323536" lon="13.4187929"><ele>365.3333333333333</ele><time>2026-05-02T13:56:42.309Z</time></trkpt><trkpt lat="46.1323198" lon="13.4186705"><ele>357.0</ele><time>2026-05-02T13:56:44.308Z</time></trkpt><trkpt lat="46.1322944" lon="13.4185444"><ele>356.6</ele><time>2026-05-02T13:56:46.308Z</time></trkpt><trkpt lat="46.1322663" lon="13.4183863"><ele>356.20000000000005</ele><time>2026-05-02T13:56:48.308Z</time></trkpt><trkpt lat="46.132255" lon="13.4182941"><ele>355.8</ele><time>2026-05-02T13:56:49.308Z</time></trkpt><trkpt lat="46.132243" lon="13.4181787"><ele>355.4</ele><time>2026-05-02T13:56:50.309Z</time></trkpt><trkpt lat="46.1322185" lon="13.4180415"><ele>355.0</ele><time>2026-05-02T13:56:51.308Z</time></trkpt><trkpt lat="46.1321964" lon="13.4179097"><ele>356.8333333333333</ele><time>2026-05-02T13:56:52.309Z</time></trkpt><trkpt lat="46.1321723" lon="13.417787"><ele>358.66666666666663</ele><time>2026-05-02T13:56:53.308Z</time></trkpt><trkpt lat="46.1321499" lon="13.41766"><ele>360.5</ele><time>2026-05-02T13:56:54.308Z</time></trkpt><trkpt lat="46.1321295" lon="13.4175283"><ele>362.3333333333333</ele><time>2026-05-02T13:56:55.308Z</time></trkpt><trkpt lat="46.1321066" lon="13.417416"><ele>364.1666666666667</ele><time>2026-05-02T13:56:56.309Z</time></trkpt><trkpt lat="46.1320759" lon="13.4173199"><ele>366.0</ele><time>2026-05-02T13:56:57.308Z</time></trkpt><trkpt lat="46.1320189" lon="13.4171758"><ele>366.0</ele><time>2026-05-02T13:56:59.309Z</time></trkpt><trkpt lat="46.1319135" lon="13.4171687"><ele>366.0</ele><time>2026-05-02T13:57:01.308Z</time></trkpt><trkpt lat="46.1318401" lon="13.4171819"><ele>366.0</ele><time>2026-05-02T13:57:02.309Z</time></trkpt><trkpt lat="46.1317716" lon="13.4172084"><ele>366.0</ele><time>2026-05-02T13:57:03.309Z</time></trkpt><trkpt lat="46.1317019" lon="13.4172478"><ele>366.0</ele><time>2026-05-02T13:57:04.308Z</time></trkpt><trkpt lat="46.131624" lon="13.4172893"><ele>366.0</ele><time>2026-05-02T13:57:05.308Z</time></trkpt><trkpt lat="46.131541" lon="13.4173354"><ele>362.8</ele><time>2026-05-02T13:57:06.309Z</time></trkpt><trkpt lat="46.131449" lon="13.4173822"><ele>359.6</ele><time>2026-05-02T13:57:07.308Z</time></trkpt><trkpt lat="46.1313531" lon="13.4174397"><ele>356.4</ele><time>2026-05-02T13:57:08.309Z</time></trkpt><trkpt lat="46.1312659" lon="13.4174955"><ele>353.2</ele><time>2026-05-02T13:57:09.309Z</time></trkpt><trkpt lat="46.1311833" lon="13.417553"><ele>350.0</ele><time>2026-05-02T13:57:10.308Z</time></trkpt><trkpt lat="46.1310973" lon="13.4176136"><ele>350.0</ele><time>2026-05-02T13:57:11.309Z</time></trkpt><trkpt lat="46.131012" lon="13.4176624"><ele>350.0</ele><time>2026-05-02T13:57:12.309Z</time></trkpt><trkpt lat="46.1309241" lon="13.4177203"><ele>350.0</ele><time>2026-05-02T13:57:13.308Z</time></trkpt><trkpt lat="46.1308476" lon="13.4177797"><ele>350.0</ele><time>2026-05-02T13:57:14.309Z</time></trkpt><trkpt lat="46.130764" lon="13.4178296"><ele>350.0</ele><time>2026-05-02T13:57:15.308Z</time></trkpt><trkpt lat="46.130699" lon="13.4178646"><ele>350.0</ele><time>2026-05-02T13:57:16.308Z</time></trkpt><trkpt lat="46.1306201" lon="13.4178519"><ele>343.6</ele><time>2026-05-02T13:57:18.308Z</time></trkpt><trkpt lat="46.1306037" lon="13.4176959"><ele>337.2</ele><time>2026-05-02T13:57:20.308Z</time></trkpt><trkpt lat="46.130595" lon="13.4175134"><ele>330.8</ele><time>2026-05-02T13:57:22.308Z</time></trkpt><trkpt lat="46.1305821" lon="13.4174199"><ele>324.4</ele><time>2026-05-02T13:57:23.309Z</time></trkpt><trkpt lat="46.1305491" lon="13.4173179"><ele>318.0</ele><time>2026-05-02T13:57:24.308Z</time></trkpt><trkpt lat="46.1305009" lon="13.4172389"><ele>318.0</ele><time>2026-05-02T13:57:25.309Z</time></trkpt><trkpt lat="46.1304442" lon="13.4171691"><ele>318.0</ele><time>2026-05-02T13:57:26.309Z</time></trkpt><trkpt lat="46.130388" lon="13.4171108"><ele>318.0</ele><time>2026-05-02T13:57:27.308Z</time></trkpt><trkpt lat="46.1302917" lon="13.4170499"><ele>318.0</ele><time>2026-05-02T13:57:29.308Z</time></trkpt><trkpt lat="46.1301895" lon="13.4170423"><ele>318.0</ele><time>2026-05-02T13:57:31.308Z</time></trkpt><trkpt lat="46.1301289" lon="13.4170679"><ele>318.0</ele><time>2026-05-02T13:57:32.308Z</time></trkpt><trkpt lat="46.1300217" lon="13.4171162"><ele>319.8</ele><time>2026-05-02T13:57:34.309Z</time></trkpt><trkpt lat="46.1299224" lon="13.417136"><ele>321.6</ele><time>2026-05-02T13:57:36.308Z</time></trkpt><trkpt lat="46.1298457" lon="13.4170565"><ele>323.40000000000003</ele><time>2026-05-02T13:57:39.308Z</time></trkpt><trkpt lat="46.129819" lon="13.4169319"><ele>325.20000000000005</ele><time>2026-05-02T13:57:41.308Z</time></trkpt><trkpt lat="46.1298071" lon="13.4167557"><ele>327.0</ele><time>2026-05-02T13:57:43.309Z</time></trkpt><trkpt lat="46.12981" lon="13.4166609"><ele>322.0</ele><time>2026-05-02T13:57:44.309Z</time></trkpt><trkpt lat="46.1298216" lon="13.4165617"><ele>317.0</ele><time>2026-05-02T13:57:45.308Z</time></trkpt><trkpt lat="46.1298269" lon="13.416465"><ele>312.0</ele><time>2026-05-02T13:57:46.309Z</time></trkpt><trkpt lat="46.1298368" lon="13.416375"><ele>307.0</ele><time>2026-05-02T13:57:47.308Z</time></trkpt><trkpt lat="46.1298438" lon="13.4162193"><ele>302.0</ele><time>2026-05-02T13:57:49.308Z</time></trkpt><trkpt lat="46.12983" lon="13.4160684"><ele>297.0</ele><time>2026-05-02T13:57:51.308Z</time></trkpt><trkpt lat="46.1297969" lon="13.4159137"><ele>297.0</ele><time>2026-05-02T13:57:53.308Z</time></trkpt><trkpt lat="46.1297477" lon="13.4157397"><ele>297.0</ele><time>2026-05-02T13:57:55.309Z</time></trkpt><trkpt lat="46.1297037" lon="13.4156411"><ele>297.0</ele><time>2026-05-02T13:57:56.308Z</time></trkpt><trkpt lat="46.1296633" lon="13.4155428"><ele>297.0</ele><time>2026-05-02T13:57:57.309Z</time></trkpt><trkpt lat="46.1296221" lon="13.4154587"><ele>297.0</ele><time>2026-05-02T13:57:58.309Z</time></trkpt><trkpt lat="46.1295797" lon="13.4153887"><ele>297.0</ele><time>2026-05-02T13:57:59.308Z</time></trkpt><trkpt lat="46.1295168" lon="13.415341"><ele>297.0</ele><time>2026-05-02T13:58:00.308Z</time></trkpt><trkpt lat="46.1294483" lon="13.415331"><ele>297.0</ele><time>2026-05-02T13:58:01.308Z</time></trkpt><trkpt lat="46.129374" lon="13.4153593"><ele>297.0</ele><time>2026-05-02T13:58:02.308Z</time></trkpt><trkpt lat="46.1292974" lon="13.4154015"><ele>297.0</ele><time>2026-05-02T13:58:03.309Z</time></trkpt><trkpt lat="46.1292275" lon="13.4154503"><ele>297.0</ele><time>2026-05-02T13:58:04.309Z</time></trkpt><trkpt lat="46.1291461" lon="13.4154992"><ele>297.0</ele><time>2026-05-02T13:58:05.308Z</time></trkpt><trkpt lat="46.1290605" lon="13.4155503"><ele>296.6666666666667</ele><time>2026-05-02T13:58:06.308Z</time></trkpt><trkpt lat="46.1289805" lon="13.4155944"><ele>296.3333333333333</ele><time>2026-05-02T13:58:07.308Z</time></trkpt><trkpt lat="46.1288931" lon="13.4156226"><ele>296.0</ele><time>2026-05-02T13:58:08.309Z</time></trkpt><trkpt lat="46.1288094" lon="13.4156322"><ele>295.66666666666663</ele><time>2026-05-02T13:58:09.309Z</time></trkpt><trkpt lat="46.128735" lon="13.4156615"><ele>295.3333333333333</ele><time>2026-05-02T13:58:10.308Z</time></trkpt><trkpt lat="46.1286637" lon="13.4156992"><ele>295.0</ele><time>2026-05-02T13:58:11.308Z</time></trkpt><trkpt lat="46.1285958" lon="13.4157501"><ele>295.0</ele><time>2026-05-02T13:58:12.309Z</time></trkpt><trkpt lat="46.1285299" lon="13.4157941"><ele>295.0</ele><time>2026-05-02T13:58:13.309Z</time></trkpt><trkpt lat="46.1284692" lon="13.4158399"><ele>295.0</ele><time>2026-05-02T13:58:14.308Z</time></trkpt><trkpt lat="46.1284001" lon="13.4158972"><ele>295.0</ele><time>2026-05-02T13:58:15.308Z</time></trkpt><trkpt lat="46.1283248" lon="13.415956"><ele>295.0</ele><time>2026-05-02T13:58:16.308Z</time></trkpt><trkpt lat="46.1282483" lon="13.4159837"><ele>295.0</ele><time>2026-05-02T13:58:17.309Z</time></trkpt><trkpt lat="46.1281775" lon="13.4160067"><ele>294.8333333333333</ele><time>2026-05-02T13:58:18.308Z</time></trkpt><trkpt lat="46.1281017" lon="13.416059"><ele>294.66666666666663</ele><time>2026-05-02T13:58:19.309Z</time></trkpt><trkpt lat="46.1280243" lon="13.4161198"><ele>294.5</ele><time>2026-05-02T13:58:20.309Z</time></trkpt><trkpt lat="46.1279468" lon="13.4161856"><ele>294.3333333333333</ele><time>2026-05-02T13:58:21.309Z</time></trkpt><trkpt lat="46.1278683" lon="13.4162469"><ele>294.1666666666667</ele><time>2026-05-02T13:58:22.308Z</time></trkpt><trkpt lat="46.1277787" lon="13.4162896"><ele>294.0</ele><time>2026-05-02T13:58:23.308Z</time></trkpt><trkpt lat="46.1276987" lon="13.4163311"><ele>288.5</ele><time>2026-05-02T13:58:24.308Z</time></trkpt><trkpt lat="46.1276201" lon="13.4163685"><ele>283.0</ele><time>2026-05-02T13:58:25.309Z</time></trkpt><trkpt lat="46.1275425" lon="13.4163935"><ele>277.5</ele><time>2026-05-02T13:58:26.309Z</time></trkpt><trkpt lat="46.1274705" lon="13.4164088"><ele>272.0</ele><time>2026-05-02T13:58:27.308Z</time></trkpt><trkpt lat="46.1273904" lon="13.4164113"><ele>266.5</ele><time>2026-05-02T13:58:28.308Z</time></trkpt><trkpt lat="46.1273229" lon="13.4164075"><ele>261.0</ele><time>2026-05-02T13:58:29.309Z</time></trkpt><trkpt lat="46.1272031" lon="13.4163797"><ele>261.6</ele><time>2026-05-02T13:58:31.308Z</time></trkpt><trkpt lat="46.1271061" lon="13.4162644"><ele>262.20000000000005</ele><time>2026-05-02T13:58:33.308Z</time></trkpt><trkpt lat="46.1270176" lon="13.4161305"><ele>262.79999999999995</ele><time>2026-05-02T13:58:35.308Z</time></trkpt><trkpt lat="46.1269595" lon="13.4160666"><ele>263.4</ele><time>2026-05-02T13:58:36.309Z</time></trkpt><trkpt lat="46.1269027" lon="13.4159918"><ele>264.0</ele><time>2026-05-02T13:58:37.309Z</time></trkpt><trkpt lat="46.126832" lon="13.4159243"><ele>264.0</ele><time>2026-05-02T13:58:38.309Z</time></trkpt><trkpt lat="46.1267701" lon="13.4158544"><ele>264.0</ele><time>2026-05-02T13:58:39.309Z</time></trkpt><trkpt lat="46.1267101" lon="13.4157909"><ele>264.0</ele><time>2026-05-02T13:58:40.308Z</time></trkpt><trkpt lat="46.126647" lon="13.4157431"><ele>264.0</ele><time>2026-05-02T13:58:41.308Z</time></trkpt><trkpt lat="46.1265223" lon="13.4157228"><ele>264.0</ele><time>2026-05-02T13:58:43.309Z</time></trkpt><trkpt lat="46.1264049" lon="13.4157674"><ele>259.5</ele><time>2026-05-02T13:58:45.309Z</time></trkpt><trkpt lat="46.12633" lon="13.4158147"><ele>255.0</ele><time>2026-05-02T13:58:46.309Z</time></trkpt><trkpt lat="46.126253" lon="13.415851"><ele>250.5</ele><time>2026-05-02T13:58:47.309Z</time></trkpt><trkpt lat="46.1261854" lon="13.4158653"><ele>246.0</ele><time>2026-05-02T13:58:48.309Z</time></trkpt><trkpt lat="46.1260708" lon="13.4158646"><ele>241.5</ele><time>2026-05-02T13:58:50.308Z</time></trkpt><trkpt lat="46.1260152" lon="13.4157477"><ele>237.0</ele><time>2026-05-02T13:58:52.308Z</time></trkpt><trkpt lat="46.1260167" lon="13.4155859"><ele>239.5</ele><time>2026-05-02T13:58:54.309Z</time></trkpt><trkpt lat="46.1260409" lon="13.415425"><ele>242.0</ele><time>2026-05-02T13:58:56.309Z</time></trkpt><trkpt lat="46.1260222" lon="13.4152704"><ele>244.5</ele><time>2026-05-02T13:58:58.309Z</time></trkpt><trkpt lat="46.1259856" lon="13.4151935"><ele>247.0</ele><time>2026-05-02T13:58:59.309Z</time></trkpt><trkpt lat="46.1259276" lon="13.4151267"><ele>249.5</ele><time>2026-05-02T13:59:00.309Z</time></trkpt><trkpt lat="46.1258725" lon="13.4150681"><ele>252.0</ele><time>2026-05-02T13:59:01.309Z</time></trkpt><trkpt lat="46.1258134" lon="13.4150156"><ele>252.0</ele><time>2026-05-02T13:59:02.308Z</time></trkpt><trkpt lat="46.1257545" lon="13.4149671"><ele>252.0</ele><time>2026-05-02T13:59:03.308Z</time></trkpt><trkpt lat="46.1256952" lon="13.4149233"><ele>252.0</ele><time>2026-05-02T13:59:04.308Z</time></trkpt><trkpt lat="46.1256278" lon="13.4148893"><ele>252.0</ele><time>2026-05-02T13:59:05.309Z</time></trkpt><trkpt lat="46.1255603" lon="13.4148474"><ele>252.0</ele><time>2026-05-02T13:59:06.309Z</time></trkpt><trkpt lat="46.1254978" lon="13.4148115"><ele>252.0</ele><time>2026-05-02T13:59:07.309Z</time></trkpt><trkpt lat="46.1254299" lon="13.4147615"><ele>252.0</ele><time>2026-05-02T13:59:08.308Z</time></trkpt><trkpt lat="46.1253518" lon="13.4147203"><ele>248.16666666666666</ele><time>2026-05-02T13:59:09.308Z</time></trkpt><trkpt lat="46.1252898" lon="13.4146962"><ele>244.33333333333331</ele><time>2026-05-02T13:59:10.308Z</time></trkpt><trkpt lat="46.1252241" lon="13.414709"><ele>240.5</ele><time>2026-05-02T13:59:11.309Z</time></trkpt><trkpt lat="46.1251089" lon="13.4147347"><ele>236.66666666666666</ele><time>2026-05-02T13:59:13.309Z</time></trkpt><trkpt lat="46.125045" lon="13.4147452"><ele>232.83333333333331</ele><time>2026-05-02T13:59:14.308Z</time></trkpt><trkpt lat="46.1249389" lon="13.4147295"><ele>229.0</ele><time>2026-05-02T13:59:16.309Z</time></trkpt><trkpt lat="46.1248763" lon="13.4147124"><ele>228.99999999999997</ele><time>2026-05-02T13:59:17.309Z</time></trkpt><trkpt lat="46.1248162" lon="13.4146835"><ele>229.0</ele><time>2026-05-02T13:59:18.309Z</time></trkpt><trkpt lat="46.1247532" lon="13.4146466"><ele>229.0</ele><time>2026-05-02T13:59:19.309Z</time></trkpt><trkpt lat="46.1246907" lon="13.4145993"><ele>229.0</ele><time>2026-05-02T13:59:20.309Z</time></trkpt><trkpt lat="46.1246145" lon="13.4145308"><ele>228.99999999999997</ele><time>2026-05-02T13:59:21.308Z</time></trkpt><trkpt lat="46.1245337" lon="13.4144482"><ele>229.0</ele><time>2026-05-02T13:59:22.309Z</time></trkpt><trkpt lat="46.1244544" lon="13.4143669"><ele>228.99999999999997</ele><time>2026-05-02T13:59:23.309Z</time></trkpt><trkpt lat="46.1243805" lon="13.4143061"><ele>229.0</ele><time>2026-05-02T13:59:24.309Z</time></trkpt><trkpt lat="46.124321" lon="13.4142487"><ele>229.0</ele><time>2026-05-02T13:59:25.309Z</time></trkpt><trkpt lat="46.1242682" lon="13.4141854"><ele>229.0</ele><time>2026-05-02T13:59:26.309Z</time></trkpt><trkpt lat="46.1242189" lon="13.4140958"><ele>228.99999999999997</ele><time>2026-05-02T13:59:27.309Z</time></trkpt><trkpt lat="46.1241657" lon="13.4140078"><ele>229.0</ele><time>2026-05-02T13:59:28.309Z</time></trkpt><trkpt lat="46.124114" lon="13.413944"><ele>226.57142857142856</ele><time>2026-05-02T13:59:29.309Z</time></trkpt><trkpt lat="46.1240629" lon="13.4138736"><ele>224.14285714285717</ele><time>2026-05-02T13:59:30.308Z</time></trkpt><trkpt lat="46.124005" lon="13.4138031"><ele>221.71428571428572</ele><time>2026-05-02T13:59:31.308Z</time></trkpt><trkpt lat="46.1239452" lon="13.4137447"><ele>219.28571428571428</ele><time>2026-05-02T13:59:32.308Z</time></trkpt><trkpt lat="46.1238774" lon="13.4136995"><ele>216.85714285714283</ele><time>2026-05-02T13:59:33.309Z</time></trkpt><trkpt lat="46.123807" lon="13.4136697"><ele>214.42857142857144</ele><time>2026-05-02T13:59:34.309Z</time></trkpt><trkpt lat="46.1237394" lon="13.4136438"><ele>212.0</ele><time>2026-05-02T13:59:35.309Z</time></trkpt><trkpt lat="46.1236623" lon="13.4136373"><ele>212.0</ele><time>2026-05-02T13:59:36.309Z</time></trkpt><trkpt lat="46.1235916" lon="13.4136133"><ele>212.0</ele><time>2026-05-02T13:59:37.309Z</time></trkpt><trkpt lat="46.1235253" lon="13.4136044"><ele>212.0</ele><time>2026-05-02T13:59:38.309Z</time></trkpt><trkpt lat="46.1234526" lon="13.413605"><ele>212.0</ele><time>2026-05-02T13:59:39.309Z</time></trkpt><trkpt lat="46.1233796" lon="13.4136224"><ele>212.0</ele><time>2026-05-02T13:59:40.308Z</time></trkpt><trkpt lat="46.1232985" lon="13.4136568"><ele>212.0</ele><time>2026-05-02T13:59:41.309Z</time></trkpt><trkpt lat="46.1232254" lon="13.4136845"><ele>212.0</ele><time>2026-05-02T13:59:42.308Z</time></trkpt><trkpt lat="46.1231538" lon="13.413708"><ele>209.00000000000003</ele><time>2026-05-02T13:59:43.308Z</time></trkpt><trkpt lat="46.1230717" lon="13.4137492"><ele>206.0</ele><time>2026-05-02T13:59:44.309Z</time></trkpt><trkpt lat="46.1229923" lon="13.4137748"><ele>203.0</ele><time>2026-05-02T13:59:45.309Z</time></trkpt><trkpt lat="46.1229135" lon="13.4137901"><ele>200.0</ele><time>2026-05-02T13:59:46.308Z</time></trkpt><trkpt lat="46.1228353" lon="13.4138062"><ele>197.00000000000003</ele><time>2026-05-02T13:59:47.308Z</time></trkpt><trkpt lat="46.1227489" lon="13.4137975"><ele>194.0</ele><time>2026-05-02T13:59:49.309Z</time></trkpt><trkpt lat="46.1227081" lon="13.4137073"><ele>194.0</ele><time>2026-05-02T13:59:51.308Z</time></trkpt><trkpt lat="46.1227723" lon="13.413584"><ele>194.0</ele><time>2026-05-02T13:59:53.308Z</time></trkpt><trkpt lat="46.1228651" lon="13.4134757"><ele>194.0</ele><time>2026-05-02T13:59:55.308Z</time></trkpt><trkpt lat="46.1229628" lon="13.4133514"><ele>194.0</ele><time>2026-05-02T13:59:57.309Z</time></trkpt><trkpt lat="46.1230644" lon="13.413241"><ele>194.00000000000003</ele><time>2026-05-02T13:59:59.309Z</time></trkpt><trkpt lat="46.1231233" lon="13.4132012"><ele>194.0</ele><time>2026-05-02T14:00:00.309Z</time></trkpt><trkpt lat="46.1231815" lon="13.4131622"><ele>194.0</ele><time>2026-05-02T14:00:01.308Z</time></trkpt><trkpt lat="46.1232892" lon="13.4130973"><ele>194.0</ele><time>2026-05-02T14:00:03.308Z</time></trkpt><trkpt lat="46.1233787" lon="13.413052"><ele>194.00000000000003</ele><time>2026-05-02T14:00:05.308Z</time></trkpt><trkpt lat="46.1234625" lon="13.412953"><ele>194.0</ele><time>2026-05-02T14:00:07.308Z</time></trkpt><trkpt lat="46.1235045" lon="13.4128845"><ele>195.00000000000003</ele><time>2026-05-02T14:00:08.308Z</time></trkpt><trkpt lat="46.1235454" lon="13.4127626"><ele>196.0</ele><time>2026-05-02T14:00:10.308Z</time></trkpt><trkpt lat="46.1235299" lon="13.4126478"><ele>197.0</ele><time>2026-05-02T14:00:12.308Z</time></trkpt><trkpt lat="46.1234637" lon="13.4124985"><ele>198.0</ele><time>2026-05-02T14:00:14.308Z</time></trkpt><trkpt lat="46.1234234" lon="13.4124047"><ele>199.00000000000003</ele><time>2026-05-02T14:00:15.309Z</time></trkpt><trkpt lat="46.1233972" lon="13.4123173"><ele>200.0</ele><time>2026-05-02T14:00:16.308Z</time></trkpt><trkpt lat="46.1233417" lon="13.4121795"><ele>199.4</ele><time>2026-05-02T14:00:18.308Z</time></trkpt><trkpt lat="46.1232666" lon="13.4120538"><ele>198.8</ele><time>2026-05-02T14:00:20.308Z</time></trkpt><trkpt lat="46.1231828" lon="13.4119408"><ele>198.2</ele><time>2026-05-02T14:00:22.309Z</time></trkpt><trkpt lat="46.1231427" lon="13.4118577"><ele>197.6</ele><time>2026-05-02T14:00:23.309Z</time></trkpt><trkpt lat="46.1230798" lon="13.411786"><ele>197.0</ele><time>2026-05-02T14:00:24.308Z</time></trkpt><trkpt lat="46.1230125" lon="13.4117419"><ele>193.33333333333334</ele><time>2026-05-02T14:00:25.309Z</time></trkpt><trkpt lat="46.1229387" lon="13.4117274"><ele>189.66666666666669</ele><time>2026-05-02T14:00:26.308Z</time></trkpt><trkpt lat="46.1228575" lon="13.4117222"><ele>186.0</ele><time>2026-05-02T14:00:27.308Z</time></trkpt><trkpt lat="46.1227795" lon="13.4117134"><ele>182.33333333333334</ele><time>2026-05-02T14:00:28.309Z</time></trkpt><trkpt lat="46.1227017" lon="13.411676"><ele>178.66666666666669</ele><time>2026-05-02T14:00:29.309Z</time></trkpt><trkpt lat="46.1226142" lon="13.4116341"><ele>175.0</ele><time>2026-05-02T14:00:30.308Z</time></trkpt><trkpt lat="46.1225287" lon="13.4115911"><ele>175.0</ele><time>2026-05-02T14:00:31.308Z</time></trkpt><trkpt lat="46.1224433" lon="13.4115487"><ele>175.0</ele><time>2026-05-02T14:00:32.308Z</time></trkpt><trkpt lat="46.1223591" lon="13.4114786"><ele>175.0</ele><time>2026-05-02T14:00:33.308Z</time></trkpt><trkpt lat="46.1222766" lon="13.4113933"><ele>175.0</ele><time>2026-05-02T14:00:34.308Z</time></trkpt><trkpt lat="46.1222002" lon="13.411305"><ele>175.0</ele><time>2026-05-02T14:00:35.308Z</time></trkpt><trkpt lat="46.1221135" lon="13.4112239"><ele>172.2</ele><time>2026-05-02T14:00:36.308Z</time></trkpt><trkpt lat="46.1220247" lon="13.4111438"><ele>169.4</ele><time>2026-05-02T14:00:37.309Z</time></trkpt><trkpt lat="46.1219471" lon="13.4110519"><ele>166.60000000000002</ele><time>2026-05-02T14:00:38.308Z</time></trkpt><trkpt lat="46.1218625" lon="13.4109625"><ele>163.8</ele><time>2026-05-02T14:00:39.309Z</time></trkpt><trkpt lat="46.1217854" lon="13.4108742"><ele>161.0</ele><time>2026-05-02T14:00:40.309Z</time></trkpt><trkpt lat="46.1217145" lon="13.4107933"><ele>161.0</ele><time>2026-05-02T14:00:41.309Z</time></trkpt><trkpt lat="46.1216469" lon="13.4107128"><ele>161.0</ele><time>2026-05-02T14:00:42.308Z</time></trkpt><trkpt lat="46.1215728" lon="13.4106339"><ele>161.0</ele><time>2026-05-02T14:00:43.309Z</time></trkpt><trkpt lat="46.1214934" lon="13.4105659"><ele>161.0</ele><time>2026-05-02T14:00:44.309Z</time></trkpt><trkpt lat="46.121414" lon="13.4104997"><ele>161.0</ele><time>2026-05-02T14:00:45.308Z</time></trkpt><trkpt lat="46.1213336" lon="13.4104341"><ele>161.0</ele><time>2026-05-02T14:00:46.308Z</time></trkpt><trkpt lat="46.121251" lon="13.4103687"><ele>161.0</ele><time>2026-05-02T14:00:47.308Z</time></trkpt><trkpt lat="46.1211649" lon="13.4103112"><ele>161.0</ele><time>2026-05-02T14:00:48.308Z</time></trkpt><trkpt lat="46.1210784" lon="13.4102518"><ele>161.0</ele><time>2026-05-02T14:00:49.309Z</time></trkpt><trkpt lat="46.1209984" lon="13.4101877"><ele>161.0</ele><time>2026-05-02T14:00:50.308Z</time></trkpt><trkpt lat="46.1209197" lon="13.4101248"><ele>161.0</ele><time>2026-05-02T14:00:51.309Z</time></trkpt><trkpt lat="46.120844" lon="13.4100515"><ele>161.0</ele><time>2026-05-02T14:00:52.309Z</time></trkpt><trkpt lat="46.1207727" lon="13.4099699"><ele>161.0</ele><time>2026-05-02T14:00:53.309Z</time></trkpt><trkpt lat="46.120705" lon="13.4098723"><ele>161.0</ele><time>2026-05-02T14:00:54.309Z</time></trkpt><trkpt lat="46.1206363" lon="13.4097692"><ele>161.0</ele><time>2026-05-02T14:00:55.309Z</time></trkpt><trkpt lat="46.1205674" lon="13.4096612"><ele>160.4</ele><time>2026-05-02T14:00:56.308Z</time></trkpt><trkpt lat="46.1205116" lon="13.4095378"><ele>159.8</ele><time>2026-05-02T14:00:57.309Z</time></trkpt><trkpt lat="46.1204753" lon="13.4094161"><ele>159.20000000000002</ele><time>2026-05-02T14:00:58.308Z</time></trkpt><trkpt lat="46.1204421" lon="13.4092985"><ele>158.60000000000002</ele><time>2026-05-02T14:00:59.308Z</time></trkpt><trkpt lat="46.1204158" lon="13.4091599"><ele>158.0</ele><time>2026-05-02T14:01:00.308Z</time></trkpt><trkpt lat="46.120385" lon="13.4090211"><ele>158.0</ele><time>2026-05-02T14:01:01.308Z</time></trkpt><trkpt lat="46.1203466" lon="13.4089022"><ele>158.0</ele><time>2026-05-02T14:01:02.309Z</time></trkpt><trkpt lat="46.1202941" lon="13.4088045"><ele>158.0</ele><time>2026-05-02T14:01:03.309Z</time></trkpt><trkpt lat="46.1202168" lon="13.4087302"><ele>158.0</ele><time>2026-05-02T14:01:04.308Z</time></trkpt><trkpt lat="46.1201351" lon="13.4086849"><ele>158.0</ele><time>2026-05-02T14:01:05.309Z</time></trkpt><trkpt lat="46.1200441" lon="13.4086441"><ele>156.6</ele><time>2026-05-02T14:01:06.308Z</time></trkpt><trkpt lat="46.1199561" lon="13.4086124"><ele>155.20000000000002</ele><time>2026-05-02T14:01:07.309Z</time></trkpt><trkpt lat="46.1198704" lon="13.4086277"><ele>153.8</ele><time>2026-05-02T14:01:08.309Z</time></trkpt><trkpt lat="46.1197894" lon="13.4086886"><ele>152.4</ele><time>2026-05-02T14:01:09.309Z</time></trkpt><trkpt lat="46.1197017" lon="13.4087668"><ele>151.0</ele><time>2026-05-02T14:01:10.308Z</time></trkpt><trkpt lat="46.1196081" lon="13.4088416"><ele>151.0</ele><time>2026-05-02T14:01:11.308Z</time></trkpt><trkpt lat="46.1195198" lon="13.4089099"><ele>151.0</ele><time>2026-05-02T14:01:12.308Z</time></trkpt><trkpt lat="46.1194372" lon="13.408981"><ele>151.0</ele><time>2026-05-02T14:01:13.309Z</time></trkpt><trkpt lat="46.1193588" lon="13.4090436"><ele>151.0</ele><time>2026-05-02T14:01:14.309Z</time></trkpt><trkpt lat="46.1192911" lon="13.4091115"><ele>151.0</ele><time>2026-05-02T14:01:15.308Z</time></trkpt><trkpt lat="46.1192277" lon="13.4091664"><ele>151.0</ele><time>2026-05-02T14:01:16.308Z</time></trkpt><trkpt lat="46.1191438" lon="13.4092334"><ele>151.0</ele><time>2026-05-02T14:01:18.308Z</time></trkpt><trkpt lat="46.1190877" lon="13.4092854"><ele>151.0</ele><time>2026-05-02T14:01:27.308Z</time></trkpt><trkpt lat="46.1190824" lon="13.4093838"><ele>151.0</ele><time>2026-05-02T14:01:29.309Z</time></trkpt><trkpt lat="46.1191365" lon="13.4095352"><ele>151.0</ele><time>2026-05-02T14:01:31.308Z</time></trkpt><trkpt lat="46.1191531" lon="13.4096375"><ele>151.0</ele><time>2026-05-02T14:01:32.308Z</time></trkpt><trkpt lat="46.1191583" lon="13.4097397"><ele>151.0</ele><time>2026-05-02T14:01:33.308Z</time></trkpt><trkpt lat="46.1191621" lon="13.4098549"><ele>150.75</ele><time>2026-05-02T14:01:34.308Z</time></trkpt><trkpt lat="46.1191481" lon="13.4100099"><ele>150.5</ele><time>2026-05-02T14:01:35.308Z</time></trkpt><trkpt lat="46.1191191" lon="13.4101949"><ele>150.25</ele><time>2026-05-02T14:01:36.308Z</time></trkpt><trkpt lat="46.1190903" lon="13.410402"><ele>150.0</ele><time>2026-05-02T14:01:37.308Z</time></trkpt><trkpt lat="46.1190764" lon="13.4106163"><ele>150.0</ele><time>2026-05-02T14:01:38.309Z</time></trkpt><trkpt lat="46.1190734" lon="13.4108489"><ele>150.0</ele><time>2026-05-02T14:01:39.309Z</time></trkpt><trkpt lat="46.1190829" lon="13.4110913"><ele>150.0</ele><time>2026-05-02T14:01:40.309Z</time></trkpt><trkpt lat="46.1191026" lon="13.4113337"><ele>149.66666666666666</ele><time>2026-05-02T14:01:41.309Z</time></trkpt><trkpt lat="46.1191373" lon="13.4115748"><ele>149.33333333333331</ele><time>2026-05-02T14:01:42.308Z</time></trkpt><trkpt lat="46.1191835" lon="13.4118234"><ele>149.0</ele><time>2026-05-02T14:01:43.308Z</time></trkpt><trkpt lat="46.1192276" lon="13.4120674"><ele>149.0</ele><time>2026-05-02T14:01:44.308Z</time></trkpt><trkpt lat="46.1192714" lon="13.4123086"><ele>149.0</ele><time>2026-05-02T14:01:45.309Z</time></trkpt><trkpt lat="46.1193085" lon="13.4125262"><ele>149.0</ele><time>2026-05-02T14:01:46.309Z</time></trkpt><trkpt lat="46.1193472" lon="13.4127304"><ele>149.0</ele><time>2026-05-02T14:01:47.308Z</time></trkpt><trkpt lat="46.119374" lon="13.412939"><ele>149.0</ele><time>2026-05-02T14:01:48.309Z</time></trkpt><trkpt lat="46.1193923" lon="13.4131461"><ele>149.0</ele><time>2026-05-02T14:01:49.309Z</time></trkpt><trkpt lat="46.1193996" lon="13.4133541"><ele>149.0</ele><time>2026-05-02T14:01:50.309Z</time></trkpt><trkpt lat="46.1194055" lon="13.4135648"><ele>148.25</ele><time>2026-05-02T14:01:51.308Z</time></trkpt><trkpt lat="46.1194155" lon="13.4137724"><ele>147.5</ele><time>2026-05-02T14:01:52.309Z</time></trkpt><trkpt lat="46.1194362" lon="13.4139704"><ele>146.75</ele><time>2026-05-02T14:01:53.308Z</time></trkpt><trkpt lat="46.1194605" lon="13.4141586"><ele>146.0</ele><time>2026-05-02T14:01:54.308Z</time></trkpt><trkpt lat="46.1194864" lon="13.4143421"><ele>146.0</ele><time>2026-05-02T14:01:55.309Z</time></trkpt><trkpt lat="46.1195134" lon="13.4145344"><ele>146.0</ele><time>2026-05-02T14:01:56.309Z</time></trkpt><trkpt lat="46.1195382" lon="13.4147301"><ele>146.0</ele><time>2026-05-02T14:01:57.308Z</time></trkpt><trkpt lat="46.1195543" lon="13.4149334"><ele>146.0</ele><time>2026-05-02T14:01:58.308Z</time></trkpt><trkpt lat="46.1195695" lon="13.4151422"><ele>146.0</ele><time>2026-05-02T14:01:59.309Z</time></trkpt><trkpt lat="46.1195879" lon="13.4153506"><ele>146.0</ele><time>2026-05-02T14:02:00.309Z</time></trkpt><trkpt lat="46.1196135" lon="13.4155576"><ele>146.0</ele><time>2026-05-02T14:02:01.309Z</time></trkpt><trkpt lat="46.1196459" lon="13.4157669"><ele>146.0</ele><time>2026-05-02T14:02:02.309Z</time></trkpt><trkpt lat="46.1196835" lon="13.4159738"><ele>146.33333333333331</ele><time>2026-05-02T14:02:03.309Z</time></trkpt><trkpt lat="46.1197245" lon="13.4161776"><ele>146.66666666666666</ele><time>2026-05-02T14:02:04.309Z</time></trkpt><trkpt lat="46.1197745" lon="13.416379"><ele>147.0</ele><time>2026-05-02T14:02:05.308Z</time></trkpt><trkpt lat="46.1198276" lon="13.4165891"><ele>147.66666666666666</ele><time>2026-05-02T14:02:06.309Z</time></trkpt><trkpt lat="46.1198807" lon="13.4167985"><ele>148.33333333333331</ele><time>2026-05-02T14:02:07.309Z</time></trkpt><trkpt lat="46.119936" lon="13.4170084"><ele>149.0</ele><time>2026-05-02T14:02:08.309Z</time></trkpt><trkpt lat="46.1199862" lon="13.4172032"><ele>149.0</ele><time>2026-05-02T14:02:09.308Z</time></trkpt><trkpt lat="46.1200303" lon="13.4173805"><ele>149.0</ele><time>2026-05-02T14:02:10.308Z</time></trkpt><trkpt lat="46.1200695" lon="13.4175437"><ele>149.0</ele><time>2026-05-02T14:02:11.308Z</time></trkpt><trkpt lat="46.1201114" lon="13.4177068"><ele>149.0</ele><time>2026-05-02T14:02:12.309Z</time></trkpt><trkpt lat="46.1201474" lon="13.4178669"><ele>149.4</ele><time>2026-05-02T14:02:13.309Z</time></trkpt><trkpt lat="46.1201826" lon="13.418025"><ele>149.8</ele><time>2026-05-02T14:02:14.309Z</time></trkpt><trkpt lat="46.1202187" lon="13.4181768"><ele>150.2</ele><time>2026-05-02T14:02:15.309Z</time></trkpt><trkpt lat="46.1202552" lon="13.4183227"><ele>150.6</ele><time>2026-05-02T14:02:16.308Z</time></trkpt><trkpt lat="46.1202906" lon="13.418459"><ele>151.0</ele><time>2026-05-02T14:02:17.309Z</time></trkpt><trkpt lat="46.1203249" lon="13.4185975"><ele>151.0</ele><time>2026-05-02T14:02:18.308Z</time></trkpt><trkpt lat="46.1203569" lon="13.4187354"><ele>151.0</ele><time>2026-05-02T14:02:19.308Z</time></trkpt><trkpt lat="46.1203862" lon="13.4188718"><ele>151.0</ele><time>2026-05-02T14:02:20.309Z</time></trkpt><trkpt lat="46.1204123" lon="13.4190165"><ele>151.0</ele><time>2026-05-02T14:02:21.309Z</time></trkpt><trkpt lat="46.1204328" lon="13.4191552"><ele>151.0</ele><time>2026-05-02T14:02:22.308Z</time></trkpt><trkpt lat="46.1204479" lon="13.4192784"><ele>151.66666666666669</ele><time>2026-05-02T14:02:23.308Z</time></trkpt><trkpt lat="46.1204571" lon="13.4194007"><ele>152.33333333333334</ele><time>2026-05-02T14:02:24.308Z</time></trkpt><trkpt lat="46.120456" lon="13.4195152"><ele>153.0</ele><time>2026-05-02T14:02:25.308Z</time></trkpt><trkpt lat="46.1204503" lon="13.4196131"><ele>153.66666666666666</ele><time>2026-05-02T14:02:26.308Z</time></trkpt><trkpt lat="46.1204372" lon="13.4197048"><ele>154.33333333333331</ele><time>2026-05-02T14:02:27.309Z</time></trkpt><trkpt lat="46.1204322" lon="13.4198941"><ele>155.0</ele><time>2026-05-02T14:02:29.308Z</time></trkpt><trkpt lat="46.1204273" lon="13.4199911"><ele>155.0</ele><time>2026-05-02T14:02:30.308Z</time></trkpt><trkpt lat="46.1204066" lon="13.4201014"><ele>155.0</ele><time>2026-05-02T14:02:31.309Z</time></trkpt><trkpt lat="46.1203584" lon="13.4202215"><ele>155.0</ele><time>2026-05-02T14:02:32.309Z</time></trkpt><trkpt lat="46.1203073" lon="13.4203439"><ele>155.0</ele><time>2026-05-02T14:02:33.308Z</time></trkpt><trkpt lat="46.1202471" lon="13.4204558"><ele>155.0</ele><time>2026-05-02T14:02:34.308Z</time></trkpt><trkpt lat="46.1201897" lon="13.420587"><ele>155.0</ele><time>2026-05-02T14:02:35.308Z</time></trkpt><trkpt lat="46.120133" lon="13.4207221"><ele>155.0</ele><time>2026-05-02T14:02:36.309Z</time></trkpt><trkpt lat="46.1200747" lon="13.4208585"><ele>155.0</ele><time>2026-05-02T14:02:37.308Z</time></trkpt><trkpt lat="46.1200176" lon="13.4209809"><ele>155.0</ele><time>2026-05-02T14:02:38.308Z</time></trkpt><trkpt lat="46.1199697" lon="13.421091"><ele>155.0</ele><time>2026-05-02T14:02:39.309Z</time></trkpt><trkpt lat="46.1199391" lon="13.4211731"><ele>155.0</ele><time>2026-05-02T14:02:40.309Z</time></trkpt><trkpt lat="46.1199067" lon="13.4212603"><ele>155.0</ele><time>2026-05-02T14:02:53.309Z</time></trkpt><trkpt lat="46.1198932" lon="13.4213529"><ele>155.0</ele><time>2026-05-02T14:03:43.309Z</time></trkpt><trkpt lat="46.119963" lon="13.4215139"><ele>155.0</ele><time>2026-05-02T14:03:45.308Z</time></trkpt><trkpt lat="46.1200156" lon="13.4215834"><ele>155.0</ele><time>2026-05-02T14:03:46.309Z</time></trkpt><trkpt lat="46.1200607" lon="13.4216546"><ele>155.0</ele><time>2026-05-02T14:03:47.308Z</time></trkpt><trkpt lat="46.1201073" lon="13.4217746"><ele>155.0</ele><time>2026-05-02T14:03:49.308Z</time></trkpt><trkpt lat="46.1200925" lon="13.4218646"><ele>155.0</ele><time>2026-05-02T14:03:51.308Z</time></trkpt><trkpt lat="46.1200111" lon="13.4218888"><ele>155.0</ele><time>2026-05-02T14:03:54.308Z</time></trkpt><trkpt lat="46.1199627" lon="13.4217805"><ele>155.0</ele><time>2026-05-02T14:03:57.308Z</time></trkpt><trkpt lat="46.119903" lon="13.4216719"><ele>155.0</ele><time>2026-05-02T14:04:00.309Z</time></trkpt><trkpt lat="46.1198505" lon="13.4216183"><ele>155.0</ele><time>2026-05-02T14:04:02.309Z</time></trkpt><trkpt lat="46.1197899" lon="13.4215862"><ele>154.57142857142858</ele><time>2026-05-02T14:04:04.308Z</time></trkpt><trkpt lat="46.1197275" lon="13.4215681"><ele>154.14285714285714</ele><time>2026-05-02T14:04:06.309Z</time></trkpt><trkpt lat="46.1196615" lon="13.421597"><ele>153.71428571428572</ele><time>2026-05-02T14:04:09.308Z</time></trkpt><trkpt lat="46.1196177" lon="13.4216742"><ele>153.28571428571428</ele><time>2026-05-02T14:04:11.308Z</time></trkpt><trkpt lat="46.1195622" lon="13.421767"><ele>152.85714285714286</ele><time>2026-05-02T14:04:13.308Z</time></trkpt><trkpt lat="46.1195172" lon="13.4218456"><ele>152.42857142857142</ele><time>2026-05-02T14:04:15.309Z</time></trkpt><trkpt lat="46.1195048" lon="13.4219704"><ele>152.0</ele><time>2026-05-02T14:04:17.308Z</time></trkpt><trkpt lat="46.1195125" lon="13.4220928"><ele>151.79999999999998</ele><time>2026-05-02T14:04:19.308Z</time></trkpt><trkpt lat="46.1195748" lon="13.422173"><ele>151.6</ele><time>2026-05-02T14:04:21.308Z</time></trkpt><trkpt lat="46.1196716" lon="13.4222344"><ele>151.39999999999998</ele><time>2026-05-02T14:04:23.309Z</time></trkpt><trkpt lat="46.119787" lon="13.4223224"><ele>151.2</ele><time>2026-05-02T14:04:25.309Z</time></trkpt><trkpt lat="46.1198527" lon="13.4223994"><ele>151.0</ele><time>2026-05-02T14:04:26.309Z</time></trkpt><trkpt lat="46.119912" lon="13.422502"><ele>151.8</ele><time>2026-05-02T14:04:27.309Z</time></trkpt><trkpt lat="46.1199621" lon="13.4226214"><ele>152.6</ele><time>2026-05-02T14:04:28.309Z</time></trkpt><trkpt lat="46.1200144" lon="13.4227408"><ele>153.4</ele><time>2026-05-02T14:04:29.308Z</time></trkpt><trkpt lat="46.1200538" lon="13.4228323"><ele>154.2</ele><time>2026-05-02T14:04:30.308Z</time></trkpt><trkpt lat="46.1200787" lon="13.4230044"><ele>155.0</ele><time>2026-05-02T14:04:32.309Z</time></trkpt><trkpt lat="46.1200795" lon="13.4231013"><ele>155.16666666666666</ele><time>2026-05-02T14:04:33.309Z</time></trkpt><trkpt lat="46.1200618" lon="13.4231902"><ele>155.33333333333331</ele><time>2026-05-02T14:04:34.309Z</time></trkpt><trkpt lat="46.1199847" lon="13.4233174"><ele>155.5</ele><time>2026-05-02T14:04:36.309Z</time></trkpt><trkpt lat="46.1199252" lon="13.423363"><ele>155.66666666666666</ele><time>2026-05-02T14:04:37.309Z</time></trkpt><trkpt lat="46.119863" lon="13.4234093"><ele>155.83333333333334</ele><time>2026-05-02T14:04:38.308Z</time></trkpt><trkpt lat="46.1197998" lon="13.4234649"><ele>156.0</ele><time>2026-05-02T14:04:39.309Z</time></trkpt><trkpt lat="46.1197446" lon="13.4235276"><ele>155.6</ele><time>2026-05-02T14:04:40.308Z</time></trkpt><trkpt lat="46.1196773" lon="13.4236726"><ele>155.2</ele><time>2026-05-02T14:04:42.309Z</time></trkpt><trkpt lat="46.1196656" lon="13.4237693"><ele>154.8</ele><time>2026-05-02T14:04:43.309Z</time></trkpt><trkpt lat="46.1196657" lon="13.4239039"><ele>154.4</ele><time>2026-05-02T14:04:44.308Z</time></trkpt><trkpt lat="46.1196779" lon="13.4240638"><ele>154.0</ele><time>2026-05-02T14:04:45.308Z</time></trkpt><trkpt lat="46.119684" lon="13.4242445"><ele>154.0</ele><time>2026-05-02T14:04:46.309Z</time></trkpt><trkpt lat="46.1196872" lon="13.424409"><ele>154.0</ele><time>2026-05-02T14:04:47.308Z</time></trkpt><trkpt lat="46.1196825" lon="13.4245679"><ele>154.0</ele><time>2026-05-02T14:04:48.309Z</time></trkpt><trkpt lat="46.1196655" lon="13.4247286"><ele>154.0</ele><time>2026-05-02T14:04:49.308Z</time></trkpt><trkpt lat="46.1196383" lon="13.4248884"><ele>154.16666666666669</ele><time>2026-05-02T14:04:50.309Z</time></trkpt><trkpt lat="46.1196085" lon="13.4250392"><ele>154.33333333333334</ele><time>2026-05-02T14:04:51.309Z</time></trkpt><trkpt lat="46.1195802" lon="13.4251698"><ele>154.5</ele><time>2026-05-02T14:04:52.309Z</time></trkpt><trkpt lat="46.1195573" lon="13.425283"><ele>154.66666666666666</ele><time>2026-05-02T14:04:53.308Z</time></trkpt><trkpt lat="46.1195324" lon="13.4253936"><ele>154.83333333333331</ele><time>2026-05-02T14:04:54.309Z</time></trkpt><trkpt lat="46.1195127" lon="13.4254981"><ele>155.0</ele><time>2026-05-02T14:04:55.308Z</time></trkpt><trkpt lat="46.1194675" lon="13.425637"><ele>155.2</ele><time>2026-05-02T14:04:57.309Z</time></trkpt><trkpt lat="46.1193611" lon="13.4257178"><ele>155.4</ele><time>2026-05-02T14:04:59.309Z</time></trkpt><trkpt lat="46.1193027" lon="13.4257531"><ele>155.6</ele><time>2026-05-02T14:05:00.309Z</time></trkpt><trkpt lat="46.1192455" lon="13.4258661"><ele>155.8</ele><time>2026-05-02T14:05:02.308Z</time></trkpt><trkpt lat="46.1192572" lon="13.4260087"><ele>156.0</ele><time>2026-05-02T14:05:04.308Z</time></trkpt><trkpt lat="46.1192904" lon="13.4261049"><ele>156.0</ele><time>2026-05-02T14:05:05.308Z</time></trkpt><trkpt lat="46.1193371" lon="13.4262189"><ele>156.0</ele><time>2026-05-02T14:05:06.308Z</time></trkpt><trkpt lat="46.1193934" lon="13.4263249"><ele>156.0</ele><time>2026-05-02T14:05:07.308Z</time></trkpt><trkpt lat="46.1194536" lon="13.4264328"><ele>156.0</ele><time>2026-05-02T14:05:08.309Z</time></trkpt><trkpt lat="46.1195274" lon="13.4265439"><ele>156.0</ele><time>2026-05-02T14:05:09.309Z</time></trkpt><trkpt lat="46.1196097" lon="13.4266698"><ele>156.0</ele><time>2026-05-02T14:05:10.308Z</time></trkpt><trkpt lat="46.1196851" lon="13.4267775"><ele>156.0</ele><time>2026-05-02T14:05:11.308Z</time></trkpt><trkpt lat="46.1197586" lon="13.4268891"><ele>156.0</ele><time>2026-05-02T14:05:12.308Z</time></trkpt><trkpt lat="46.1198249" lon="13.427002"><ele>156.0</ele><time>2026-05-02T14:05:13.308Z</time></trkpt><trkpt lat="46.1198886" lon="13.4271071"><ele>156.0</ele><time>2026-05-02T14:05:14.308Z</time></trkpt><trkpt lat="46.119955" lon="13.4272036"><ele>156.33333333333334</ele><time>2026-05-02T14:05:15.308Z</time></trkpt><trkpt lat="46.1200143" lon="13.4272913"><ele>156.66666666666666</ele><time>2026-05-02T14:05:16.309Z</time></trkpt><trkpt lat="46.1200764" lon="13.4273793"><ele>157.0</ele><time>2026-05-02T14:05:17.308Z</time></trkpt><trkpt lat="46.1201367" lon="13.4274696"><ele>157.33333333333331</ele><time>2026-05-02T14:05:18.308Z</time></trkpt><trkpt lat="46.1201996" lon="13.427568"><ele>157.66666666666666</ele><time>2026-05-02T14:05:19.308Z</time></trkpt><trkpt lat="46.1202639" lon="13.4276627"><ele>158.0</ele><time>2026-05-02T14:05:20.309Z</time></trkpt><trkpt lat="46.1203215" lon="13.4277603"><ele>158.0</ele><time>2026-05-02T14:05:21.308Z</time></trkpt><trkpt lat="46.120381" lon="13.4278499"><ele>158.0</ele><time>2026-05-02T14:05:22.308Z</time></trkpt><trkpt lat="46.1204331" lon="13.4279334"><ele>158.0</ele><time>2026-05-02T14:05:23.309Z</time></trkpt><trkpt lat="46.1204725" lon="13.4280063"><ele>158.0</ele><time>2026-05-02T14:05:24.309Z</time></trkpt><trkpt lat="46.1205355" lon="13.4281232"><ele>158.0</ele><time>2026-05-02T14:05:26.308Z</time></trkpt><trkpt lat="46.1206161" lon="13.4282177"><ele>158.0</ele><time>2026-05-02T14:05:28.308Z</time></trkpt><trkpt lat="46.1207134" lon="13.4282529"><ele>158.60000000000002</ele><time>2026-05-02T14:05:30.309Z</time></trkpt><trkpt lat="46.120781" lon="13.4282343"><ele>159.20000000000002</ele><time>2026-05-02T14:05:31.308Z</time></trkpt><trkpt lat="46.1208607" lon="13.4281925"><ele>159.8</ele><time>2026-05-02T14:05:32.309Z</time></trkpt><trkpt lat="46.12096" lon="13.4281607"><ele>160.4</ele><time>2026-05-02T14:05:33.308Z</time></trkpt><trkpt lat="46.1210822" lon="13.4281636"><ele>161.0</ele><time>2026-05-02T14:05:34.309Z</time></trkpt><trkpt lat="46.1212031" lon="13.4281696"><ele>161.0</ele><time>2026-05-02T14:05:35.308Z</time></trkpt><trkpt lat="46.1213259" lon="13.4281717"><ele>161.0</ele><time>2026-05-02T14:05:36.308Z</time></trkpt><trkpt lat="46.1214491" lon="13.4281706"><ele>161.0</ele><time>2026-05-02T14:05:37.308Z</time></trkpt><trkpt lat="46.1215727" lon="13.4281693"><ele>161.0</ele><time>2026-05-02T14:05:38.309Z</time></trkpt><trkpt lat="46.1216886" lon="13.4281691"><ele>161.0</ele><time>2026-05-02T14:05:39.309Z</time></trkpt><trkpt lat="46.1217923" lon="13.4281653"><ele>161.0</ele><time>2026-05-02T14:05:40.308Z</time></trkpt><trkpt lat="46.1218866" lon="13.4281668"><ele>161.0</ele><time>2026-05-02T14:05:41.309Z</time></trkpt><trkpt lat="46.1219765" lon="13.4281773"><ele>161.0</ele><time>2026-05-02T14:05:42.309Z</time></trkpt><trkpt lat="46.1220638" lon="13.428195"><ele>161.0</ele><time>2026-05-02T14:05:43.308Z</time></trkpt><trkpt lat="46.1221544" lon="13.4282213"><ele>161.0</ele><time>2026-05-02T14:05:44.309Z</time></trkpt><trkpt lat="46.1222404" lon="13.4282518"><ele>161.0</ele><time>2026-05-02T14:05:45.309Z</time></trkpt><trkpt lat="46.1223264" lon="13.4282862"><ele>161.0</ele><time>2026-05-02T14:05:46.308Z</time></trkpt><trkpt lat="46.1224014" lon="13.4283198"><ele>161.0</ele><time>2026-05-02T14:05:47.309Z</time></trkpt><trkpt lat="46.1224762" lon="13.4283531"><ele>161.0</ele><time>2026-05-02T14:05:48.308Z</time></trkpt><trkpt lat="46.1225565" lon="13.4284098"><ele>161.0</ele><time>2026-05-02T14:05:49.308Z</time></trkpt><trkpt lat="46.122636" lon="13.428499"><ele>161.0</ele><time>2026-05-02T14:05:50.308Z</time></trkpt><trkpt lat="46.1227121" lon="13.4286182"><ele>161.0</ele><time>2026-05-02T14:05:51.308Z</time></trkpt><trkpt lat="46.1227979" lon="13.4287373"><ele>161.0</ele><time>2026-05-02T14:05:52.308Z</time></trkpt><trkpt lat="46.1228774" lon="13.4288619"><ele>161.0</ele><time>2026-05-02T14:05:53.308Z</time></trkpt><trkpt lat="46.1229601" lon="13.4289967"><ele>161.25</ele><time>2026-05-02T14:05:54.308Z</time></trkpt><trkpt lat="46.1230409" lon="13.4291309"><ele>161.5</ele><time>2026-05-02T14:05:55.309Z</time></trkpt><trkpt lat="46.1231256" lon="13.4292571"><ele>161.75</ele><time>2026-05-02T14:05:56.308Z</time></trkpt><trkpt lat="46.1232163" lon="13.4293669"><ele>162.0</ele><time>2026-05-02T14:05:57.309Z</time></trkpt><trkpt lat="46.123307" lon="13.4294629"><ele>162.8</ele><time>2026-05-02T14:05:58.309Z</time></trkpt><trkpt lat="46.1233952" lon="13.429563"><ele>163.6</ele><time>2026-05-02T14:05:59.309Z</time></trkpt><trkpt lat="46.1234694" lon="13.4296799"><ele>164.4</ele><time>2026-05-02T14:06:00.309Z</time></trkpt><trkpt lat="46.1235387" lon="13.4297965"><ele>165.20000000000002</ele><time>2026-05-02T14:06:01.308Z</time></trkpt><trkpt lat="46.1236131" lon="13.4299006"><ele>166.0</ele><time>2026-05-02T14:06:02.309Z</time></trkpt><trkpt lat="46.1236999" lon="13.4299862"><ele>166.0</ele><time>2026-05-02T14:06:03.309Z</time></trkpt><trkpt lat="46.1237978" lon="13.4300275"><ele>166.0</ele><time>2026-05-02T14:06:04.309Z</time></trkpt><trkpt lat="46.1239053" lon="13.4300551"><ele>166.0</ele><time>2026-05-02T14:06:05.309Z</time></trkpt><trkpt lat="46.1240203" lon="13.4300652"><ele>166.0</ele><time>2026-05-02T14:06:06.309Z</time></trkpt><trkpt lat="46.1241354" lon="13.4300513"><ele>166.0</ele><time>2026-05-02T14:06:07.309Z</time></trkpt><trkpt lat="46.1242415" lon="13.4300101"><ele>166.20000000000002</ele><time>2026-05-02T14:06:08.308Z</time></trkpt><trkpt lat="46.1243271" lon="13.429948"><ele>166.4</ele><time>2026-05-02T14:06:09.309Z</time></trkpt><trkpt lat="46.1243987" lon="13.4298666"><ele>166.6</ele><time>2026-05-02T14:06:10.308Z</time></trkpt><trkpt lat="46.1244654" lon="13.4297758"><ele>166.8</ele><time>2026-05-02T14:06:11.309Z</time></trkpt><trkpt lat="46.1245344" lon="13.4296776"><ele>167.0</ele><time>2026-05-02T14:06:12.309Z</time></trkpt><trkpt lat="46.1246054" lon="13.4295846"><ele>167.0</ele><time>2026-05-02T14:06:13.308Z</time></trkpt><trkpt lat="46.1246718" lon="13.4295002"><ele>167.0</ele><time>2026-05-02T14:06:14.308Z</time></trkpt><trkpt lat="46.1247276" lon="13.4294326"><ele>167.0</ele><time>2026-05-02T14:06:15.308Z</time></trkpt><trkpt lat="46.1248314" lon="13.4293998"><ele>167.0</ele><time>2026-05-02T14:06:17.308Z</time></trkpt><trkpt lat="46.1248879" lon="13.4294608"><ele>167.0</ele><time>2026-05-02T14:06:18.309Z</time></trkpt><trkpt lat="46.1249577" lon="13.4295532"><ele>167.0</ele><time>2026-05-02T14:06:19.308Z</time></trkpt><trkpt lat="46.1250424" lon="13.429663"><ele>167.6</ele><time>2026-05-02T14:06:20.308Z</time></trkpt><trkpt lat="46.1251285" lon="13.429771"><ele>168.2</ele><time>2026-05-02T14:06:21.309Z</time></trkpt><trkpt lat="46.1252144" lon="13.4298808"><ele>168.8</ele><time>2026-05-02T14:06:22.308Z</time></trkpt><trkpt lat="46.1252873" lon="13.4299674"><ele>169.4</ele><time>2026-05-02T14:06:23.308Z</time></trkpt><trkpt lat="46.1253469" lon="13.4300385"><ele>170.0</ele><time>2026-05-02T14:06:24.309Z</time></trkpt><trkpt lat="46.1254265" lon="13.4301269"><ele>170.0</ele><time>2026-05-02T14:06:26.309Z</time></trkpt><trkpt lat="46.1255164" lon="13.4300971"><ele>170.0</ele><time>2026-05-02T14:06:30.309Z</time></trkpt><trkpt lat="46.1256067" lon="13.4299548"><ele>170.0</ele><time>2026-05-02T14:06:32.308Z</time></trkpt><trkpt lat="46.1256656" lon="13.429862"><ele>170.0</ele><time>2026-05-02T14:06:33.309Z</time></trkpt><trkpt lat="46.1257271" lon="13.4297654"><ele>170.0</ele><time>2026-05-02T14:06:34.309Z</time></trkpt><trkpt lat="46.1258045" lon="13.429668"><ele>170.2</ele><time>2026-05-02T14:06:35.308Z</time></trkpt><trkpt lat="46.1258912" lon="13.4295685"><ele>170.4</ele><time>2026-05-02T14:06:36.308Z</time></trkpt><trkpt lat="46.1259827" lon="13.4294838"><ele>170.60000000000002</ele><time>2026-05-02T14:06:37.309Z</time></trkpt><trkpt lat="46.1260645" lon="13.4294127"><ele>170.8</ele><time>2026-05-02T14:06:38.309Z</time></trkpt><trkpt lat="46.1261409" lon="13.429368"><ele>171.0</ele><time>2026-05-02T14:06:39.308Z</time></trkpt><trkpt lat="46.1262468" lon="13.4293796"><ele>171.0</ele><time>2026-05-02T14:06:41.309Z</time></trkpt><trkpt lat="46.1263052" lon="13.4294264"><ele>171.0</ele><time>2026-05-02T14:06:42.308Z</time></trkpt><trkpt lat="46.1263603" lon="13.4294955"><ele>171.0</ele><time>2026-05-02T14:06:43.309Z</time></trkpt><trkpt lat="46.1264373" lon="13.4296116"><ele>171.0</ele><time>2026-05-02T14:06:44.309Z</time></trkpt><trkpt lat="46.1265415" lon="13.4297372"><ele>171.0</ele><time>2026-05-02T14:06:45.309Z</time></trkpt><trkpt lat="46.1266512" lon="13.4298461"><ele>171.5</ele><time>2026-05-02T14:06:46.309Z</time></trkpt><trkpt lat="46.1267746" lon="13.4299428"><ele>172.0</ele><time>2026-05-02T14:06:47.308Z</time></trkpt><trkpt lat="46.126905" lon="13.4300308"><ele>172.5</ele><time>2026-05-02T14:06:48.309Z</time></trkpt><trkpt lat="46.1270323" lon="13.4301186"><ele>173.0</ele><time>2026-05-02T14:06:49.308Z</time></trkpt><trkpt lat="46.127155" lon="13.4301943"><ele>173.0</ele><time>2026-05-02T14:06:50.308Z</time></trkpt><trkpt lat="46.1272657" lon="13.4302704"><ele>173.0</ele><time>2026-05-02T14:06:51.308Z</time></trkpt><trkpt lat="46.1273636" lon="13.4303544"><ele>173.0</ele><time>2026-05-02T14:06:52.309Z</time></trkpt><trkpt lat="46.1274654" lon="13.4304511"><ele>173.0</ele><time>2026-05-02T14:06:53.309Z</time></trkpt><trkpt lat="46.1275706" lon="13.4305698"><ele>173.75</ele><time>2026-05-02T14:06:54.308Z</time></trkpt><trkpt lat="46.1276748" lon="13.4306905"><ele>174.5</ele><time>2026-05-02T14:06:55.309Z</time></trkpt><trkpt lat="46.1277734" lon="13.4308142"><ele>175.25</ele><time>2026-05-02T14:06:56.309Z</time></trkpt><trkpt lat="46.1278779" lon="13.4309487"><ele>176.0</ele><time>2026-05-02T14:06:57.308Z</time></trkpt><trkpt lat="46.1279845" lon="13.4310932"><ele>176.0</ele><time>2026-05-02T14:06:58.309Z</time></trkpt><trkpt lat="46.1280944" lon="13.4312316"><ele>176.0</ele><time>2026-05-02T14:06:59.309Z</time></trkpt><trkpt lat="46.1282094" lon="13.4313796"><ele>176.0</ele><time>2026-05-02T14:07:00.309Z</time></trkpt><trkpt lat="46.1283257" lon="13.4315247"><ele>176.33333333333331</ele><time>2026-05-02T14:07:01.309Z</time></trkpt><trkpt lat="46.1284454" lon="13.4316781"><ele>176.66666666666666</ele><time>2026-05-02T14:07:02.309Z</time></trkpt><trkpt lat="46.1285668" lon="13.4318277"><ele>177.0</ele><time>2026-05-02T14:07:03.308Z</time></trkpt><trkpt lat="46.1286927" lon="13.4319624"><ele>177.0</ele><time>2026-05-02T14:07:04.308Z</time></trkpt><trkpt lat="46.1288158" lon="13.4320689"><ele>177.0</ele><time>2026-05-02T14:07:05.309Z</time></trkpt><trkpt lat="46.1289423" lon="13.432151"><ele>177.0</ele><time>2026-05-02T14:07:06.308Z</time></trkpt><trkpt lat="46.1290741" lon="13.4322125"><ele>177.0</ele><time>2026-05-02T14:07:07.309Z</time></trkpt><trkpt lat="46.1291928" lon="13.4322718"><ele>179.0</ele><time>2026-05-02T14:07:08.309Z</time></trkpt><trkpt lat="46.1293097" lon="13.4323199"><ele>181.0</ele><time>2026-05-02T14:07:09.309Z</time></trkpt><trkpt lat="46.1295394" lon="13.4324318"><ele>183.0</ele><time>2026-05-02T14:07:11.309Z</time></trkpt><trkpt lat="46.129656" lon="13.4324898"><ele>183.0</ele><time>2026-05-02T14:07:12.308Z</time></trkpt><trkpt lat="46.1297811" lon="13.4325506"><ele>183.0</ele><time>2026-05-02T14:07:13.309Z</time></trkpt><trkpt lat="46.1299118" lon="13.4326125"><ele>183.0</ele><time>2026-05-02T14:07:14.308Z</time></trkpt><trkpt lat="46.1300526" lon="13.4326797"><ele>183.0</ele><time>2026-05-02T14:07:15.309Z</time></trkpt><trkpt lat="46.1301946" lon="13.4327466"><ele>183.0</ele><time>2026-05-02T14:07:16.308Z</time></trkpt><trkpt lat="46.1303377" lon="13.4328149"><ele>183.0</ele><time>2026-05-02T14:07:17.308Z</time></trkpt><trkpt lat="46.1304838" lon="13.4328824"><ele>183.0</ele><time>2026-05-02T14:07:18.309Z</time></trkpt><trkpt lat="46.1306254" lon="13.432946"><ele>184.5</ele><time>2026-05-02T14:07:19.309Z</time></trkpt><trkpt lat="46.1307526" lon="13.4330206"><ele>186.0</ele><time>2026-05-02T14:07:20.308Z</time></trkpt><trkpt lat="46.1308666" lon="13.4331054"><ele>187.5</ele><time>2026-05-02T14:07:21.308Z</time></trkpt><trkpt lat="46.1309778" lon="13.4331979"><ele>189.0</ele><time>2026-05-02T14:07:22.309Z</time></trkpt><trkpt lat="46.1310852" lon="13.4332954"><ele>189.0</ele><time>2026-05-02T14:07:23.309Z</time></trkpt><trkpt lat="46.1311948" lon="13.433399"><ele>189.0</ele><time>2026-05-02T14:07:24.309Z</time></trkpt><trkpt lat="46.1313054" lon="13.4335033"><ele>189.0</ele><time>2026-05-02T14:07:25.308Z</time></trkpt><trkpt lat="46.1314231" lon="13.4335986"><ele>189.0</ele><time>2026-05-02T14:07:26.308Z</time></trkpt><trkpt lat="46.1315285" lon="13.4336831"><ele>189.0</ele><time>2026-05-02T14:07:27.309Z</time></trkpt><trkpt lat="46.1316319" lon="13.4337756"><ele>189.0</ele><time>2026-05-02T14:07:28.309Z</time></trkpt><trkpt lat="46.1317374" lon="13.4338635"><ele>189.0</ele><time>2026-05-02T14:07:29.309Z</time></trkpt><trkpt lat="46.1318389" lon="13.433952"><ele>189.0</ele><time>2026-05-02T14:07:30.308Z</time></trkpt><trkpt lat="46.1319344" lon="13.4340307"><ele>189.16666666666666</ele><time>2026-05-02T14:07:31.308Z</time></trkpt><trkpt lat="46.1320098" lon="13.4340951"><ele>189.33333333333334</ele><time>2026-05-02T14:07:32.309Z</time></trkpt><trkpt lat="46.1320691" lon="13.4341502"><ele>189.5</ele><time>2026-05-02T14:07:33.308Z</time></trkpt><trkpt lat="46.1321408" lon="13.4342204"><ele>189.66666666666669</ele><time>2026-05-02T14:07:34.309Z</time></trkpt><trkpt lat="46.132203" lon="13.4342956"><ele>189.83333333333334</ele><time>2026-05-02T14:07:35.308Z</time></trkpt><trkpt lat="46.1322596" lon="13.4344158"><ele>190.0</ele><time>2026-05-02T14:07:36.308Z</time></trkpt><trkpt lat="46.1323057" lon="13.4345478"><ele>190.0</ele><time>2026-05-02T14:07:37.308Z</time></trkpt><trkpt lat="46.1323514" lon="13.4346722"><ele>190.0</ele><time>2026-05-02T14:07:38.309Z</time></trkpt><trkpt lat="46.1323948" lon="13.4348145"><ele>190.0</ele><time>2026-05-02T14:07:39.308Z</time></trkpt><trkpt lat="46.1324349" lon="13.4349566"><ele>190.0</ele><time>2026-05-02T14:07:40.309Z</time></trkpt><trkpt lat="46.132483" lon="13.4350793"><ele>190.0</ele><time>2026-05-02T14:07:41.308Z</time></trkpt><trkpt lat="46.13251" lon="13.435171"><ele>190.16666666666669</ele><time>2026-05-02T14:07:42.308Z</time></trkpt><trkpt lat="46.1325821" lon="13.435305"><ele>190.33333333333334</ele><time>2026-05-02T14:07:44.309Z</time></trkpt><trkpt lat="46.1326578" lon="13.4353817"><ele>190.5</ele><time>2026-05-02T14:07:46.308Z</time></trkpt><trkpt lat="46.1327229" lon="13.4354536"><ele>190.66666666666666</ele><time>2026-05-02T14:07:48.309Z</time></trkpt><trkpt lat="46.132771" lon="13.4355434"><ele>190.83333333333331</ele><time>2026-05-02T14:07:50.308Z</time></trkpt><trkpt lat="46.1327862" lon="13.4356522"><ele>191.0</ele><time>2026-05-02T14:07:52.309Z</time></trkpt><trkpt lat="46.1327398" lon="13.4357639"><ele>191.0</ele><time>2026-05-02T14:07:54.308Z</time></trkpt><trkpt lat="46.1326692" lon="13.4358982"><ele>191.0</ele><time>2026-05-02T14:07:56.308Z</time></trkpt><trkpt lat="46.1326342" lon="13.4359761"><ele>191.0</ele><time>2026-05-02T14:07:57.309Z</time></trkpt><trkpt lat="46.1325965" lon="13.4360578"><ele>191.0</ele><time>2026-05-02T14:07:58.308Z</time></trkpt><trkpt lat="46.1325635" lon="13.4361436"><ele>191.0</ele><time>2026-05-02T14:07:59.308Z</time></trkpt><trkpt lat="46.1325255" lon="13.4362279"><ele>191.0</ele><time>2026-05-02T14:08:00.308Z</time></trkpt><trkpt lat="46.1324873" lon="13.4363092"><ele>191.2857142857143</ele><time>2026-05-02T14:08:01.309Z</time></trkpt><trkpt lat="46.1324475" lon="13.4363903"><ele>191.57142857142856</ele><time>2026-05-02T14:08:02.308Z</time></trkpt><trkpt lat="46.1323978" lon="13.4364781"><ele>191.85714285714286</ele><time>2026-05-02T14:08:03.309Z</time></trkpt><trkpt lat="46.1323456" lon="13.4365685"><ele>192.14285714285717</ele><time>2026-05-02T14:08:04.309Z</time></trkpt><trkpt lat="46.1322917" lon="13.4366504"><ele>192.42857142857144</ele><time>2026-05-02T14:08:05.308Z</time></trkpt><trkpt lat="46.1322393" lon="13.4367213"><ele>192.71428571428572</ele><time>2026-05-02T14:08:06.308Z</time></trkpt><trkpt lat="46.1321956" lon="13.436788"><ele>193.0</ele><time>2026-05-02T14:08:07.308Z</time></trkpt><trkpt lat="46.1320937" lon="13.4368487"><ele>194.83333333333331</ele><time>2026-05-02T14:08:09.308Z</time></trkpt><trkpt lat="46.1319662" lon="13.4368096"><ele>196.66666666666666</ele><time>2026-05-02T14:08:11.308Z</time></trkpt><trkpt lat="46.1319058" lon="13.4367675"><ele>198.5</ele><time>2026-05-02T14:08:12.308Z</time></trkpt><trkpt lat="46.1318218" lon="13.4367404"><ele>200.33333333333331</ele><time>2026-05-02T14:08:13.309Z</time></trkpt><trkpt lat="46.1317459" lon="13.4367499"><ele>202.16666666666666</ele><time>2026-05-02T14:08:14.308Z</time></trkpt><trkpt lat="46.1316614" lon="13.4367592"><ele>204.0</ele><time>2026-05-02T14:08:15.309Z</time></trkpt><trkpt lat="46.1315749" lon="13.4367939"><ele>204.6</ele><time>2026-05-02T14:08:16.309Z</time></trkpt><trkpt lat="46.1314959" lon="13.4368121"><ele>205.2</ele><time>2026-05-02T14:08:17.308Z</time></trkpt><trkpt lat="46.1314228" lon="13.4368501"><ele>205.79999999999998</ele><time>2026-05-02T14:08:18.308Z</time></trkpt><trkpt lat="46.1313218" lon="13.4368997"><ele>206.39999999999998</ele><time>2026-05-02T14:08:20.308Z</time></trkpt><trkpt lat="46.1312122" lon="13.4368907"><ele>207.0</ele><time>2026-05-02T14:08:22.309Z</time></trkpt><trkpt lat="46.1311194" lon="13.4368884"><ele>207.0</ele><time>2026-05-02T14:08:24.309Z</time></trkpt><trkpt lat="46.1311137" lon="13.4370084"><ele>207.0</ele><time>2026-05-02T14:08:26.309Z</time></trkpt><trkpt lat="46.1312219" lon="13.437081"><ele>207.0</ele><time>2026-05-02T14:08:28.308Z</time></trkpt><trkpt lat="46.1313289" lon="13.4371242"><ele>207.0</ele><time>2026-05-02T14:08:30.307Z</time></trkpt><trkpt lat="46.1313967" lon="13.4371458"><ele>207.0</ele><time>2026-05-02T14:08:31.308Z</time></trkpt><trkpt lat="46.1315141" lon="13.4372268"><ele>210.2</ele><time>2026-05-02T14:08:33.307Z</time></trkpt><trkpt lat="46.1315778" lon="13.4372748"><ele>213.39999999999998</ele><time>2026-05-02T14:08:34.307Z</time></trkpt><trkpt lat="46.1316345" lon="13.4373404"><ele>216.60000000000002</ele><time>2026-05-02T14:08:35.307Z</time></trkpt><trkpt lat="46.1317268" lon="13.4374598"><ele>219.8</ele><time>2026-05-02T14:08:37.308Z</time></trkpt><trkpt lat="46.1317677" lon="13.4375312"><ele>223.0</ele><time>2026-05-02T14:08:38.308Z</time></trkpt><trkpt lat="46.1318418" lon="13.4376927"><ele>222.99999999999997</ele><time>2026-05-02T14:08:40.308Z</time></trkpt><trkpt lat="46.1318806" lon="13.4377947"><ele>223.0</ele><time>2026-05-02T14:08:41.308Z</time></trkpt><trkpt lat="46.1319111" lon="13.4378877"><ele>223.0</ele><time>2026-05-02T14:08:42.307Z</time></trkpt><trkpt lat="46.1319562" lon="13.4379961"><ele>223.0</ele><time>2026-05-02T14:08:43.308Z</time></trkpt><trkpt lat="46.1320076" lon="13.4381059"><ele>222.99999999999997</ele><time>2026-05-02T14:08:44.308Z</time></trkpt><trkpt lat="46.1320443" lon="13.4382031"><ele>223.0</ele><time>2026-05-02T14:08:45.307Z</time></trkpt><trkpt lat="46.1320785" lon="13.4383011"><ele>226.49999999999997</ele><time>2026-05-02T14:08:46.308Z</time></trkpt><trkpt lat="46.1321183" lon="13.4383956"><ele>230.0</ele><time>2026-05-02T14:08:47.307Z</time></trkpt><trkpt lat="46.1321539" lon="13.4384851"><ele>233.5</ele><time>2026-05-02T14:08:48.308Z</time></trkpt><trkpt lat="46.1321996" lon="13.4385819"><ele>237.0</ele><time>2026-05-02T14:08:49.307Z</time></trkpt><trkpt lat="46.1322413" lon="13.4386757"><ele>240.49999999999997</ele><time>2026-05-02T14:08:50.308Z</time></trkpt><trkpt lat="46.1322958" lon="13.4387587"><ele>244.0</ele><time>2026-05-02T14:08:51.308Z</time></trkpt><trkpt lat="46.1323456" lon="13.4388487"><ele>245.99999999999997</ele><time>2026-05-02T14:08:52.308Z</time></trkpt><trkpt lat="46.1324095" lon="13.4389342"><ele>248.0</ele><time>2026-05-02T14:08:53.307Z</time></trkpt><trkpt lat="46.1324685" lon="13.4390042"><ele>250.0</ele><time>2026-05-02T14:08:54.308Z</time></trkpt><trkpt lat="46.1325782" lon="13.4391108"><ele>252.0</ele><time>2026-05-02T14:08:56.307Z</time></trkpt><trkpt lat="46.1326391" lon="13.4391507"><ele>253.99999999999997</ele><time>2026-05-02T14:08:57.307Z</time></trkpt><trkpt lat="46.1327029" lon="13.4391972"><ele>256.0</ele><time>2026-05-02T14:08:58.308Z</time></trkpt><trkpt lat="46.1327643" lon="13.4392726"><ele>255.99999999999997</ele><time>2026-05-02T14:08:59.308Z</time></trkpt><trkpt lat="46.132809" lon="13.4393433"><ele>256.0</ele><time>2026-05-02T14:09:00.308Z</time></trkpt><trkpt lat="46.1328585" lon="13.4394295"><ele>256.0</ele><time>2026-05-02T14:09:01.307Z</time></trkpt><trkpt lat="46.1328979" lon="13.4395099"><ele>256.0</ele><time>2026-05-02T14:09:02.308Z</time></trkpt><trkpt lat="46.1329338" lon="13.4395846"><ele>255.99999999999997</ele><time>2026-05-02T14:09:03.307Z</time></trkpt><trkpt lat="46.1329759" lon="13.439674"><ele>256.0</ele><time>2026-05-02T14:09:04.307Z</time></trkpt><trkpt lat="46.1330508" lon="13.4398082"><ele>259.66666666666663</ele><time>2026-05-02T14:09:06.309Z</time></trkpt><trkpt lat="46.1330894" lon="13.4399104"><ele>263.3333333333333</ele><time>2026-05-02T14:09:08.309Z</time></trkpt><trkpt lat="46.133051" lon="13.4399997"><ele>267.0</ele><time>2026-05-02T14:09:11.309Z</time></trkpt><trkpt lat="46.1329344" lon="13.4399403"><ele>270.6666666666667</ele><time>2026-05-02T14:09:13.308Z</time></trkpt><trkpt lat="46.1328685" lon="13.4398658"><ele>274.33333333333337</ele><time>2026-05-02T14:09:14.308Z</time></trkpt><trkpt lat="46.132802" lon="13.4398093"><ele>278.0</ele><time>2026-05-02T14:09:15.308Z</time></trkpt><trkpt lat="46.1327115" lon="13.4397484"><ele>278.0</ele><time>2026-05-02T14:09:16.308Z</time></trkpt><trkpt lat="46.1326211" lon="13.4396863"><ele>278.0</ele><time>2026-05-02T14:09:17.307Z</time></trkpt><trkpt lat="46.1325411" lon="13.4396212"><ele>278.0</ele><time>2026-05-02T14:09:18.307Z</time></trkpt><trkpt lat="46.1324616" lon="13.4395577"><ele>278.0</ele><time>2026-05-02T14:09:19.307Z</time></trkpt><trkpt lat="46.132376" lon="13.4395006"><ele>278.0</ele><time>2026-05-02T14:09:20.308Z</time></trkpt><trkpt lat="46.1322962" lon="13.4394433"><ele>276.0</ele><time>2026-05-02T14:09:21.308Z</time></trkpt><trkpt lat="46.1322241" lon="13.439401"><ele>274.0</ele><time>2026-05-02T14:09:22.308Z</time></trkpt><trkpt lat="46.1321504" lon="13.4393683"><ele>272.0</ele><time>2026-05-02T14:09:23.308Z</time></trkpt><trkpt lat="46.1320765" lon="13.4393404"><ele>270.0</ele><time>2026-05-02T14:09:24.307Z</time></trkpt><trkpt lat="46.1319934" lon="13.4393183"><ele>268.0</ele><time>2026-05-02T14:09:25.308Z</time></trkpt><trkpt lat="46.1319203" lon="13.4392868"><ele>266.0</ele><time>2026-05-02T14:09:26.308Z</time></trkpt><trkpt lat="46.1318495" lon="13.4392561"><ele>266.0</ele><time>2026-05-02T14:09:27.308Z</time></trkpt><trkpt lat="46.1317782" lon="13.4392359"><ele>266.0</ele><time>2026-05-02T14:09:28.308Z</time></trkpt><trkpt lat="46.1317133" lon="13.4392506"><ele>266.0</ele><time>2026-05-02T14:09:29.308Z</time></trkpt><trkpt lat="46.131635" lon="13.4392785"><ele>266.0</ele><time>2026-05-02T14:09:30.307Z</time></trkpt><trkpt lat="46.1315689" lon="13.4393173"><ele>266.0</ele><time>2026-05-02T14:09:31.307Z</time></trkpt><trkpt lat="46.1314907" lon="13.4393577"><ele>266.0</ele><time>2026-05-02T14:09:32.308Z</time></trkpt><trkpt lat="46.1314192" lon="13.4393863"><ele>266.0</ele><time>2026-05-02T14:09:33.308Z</time></trkpt><trkpt lat="46.1313533" lon="13.4394162"><ele>271.0</ele><time>2026-05-02T14:09:34.307Z</time></trkpt><trkpt lat="46.1312864" lon="13.4395359"><ele>276.0</ele><time>2026-05-02T14:09:36.308Z</time></trkpt><trkpt lat="46.1313322" lon="13.4396513"><ele>281.0</ele><time>2026-05-02T14:09:38.307Z</time></trkpt><trkpt lat="46.1314501" lon="13.4396844"><ele>286.0</ele><time>2026-05-02T14:09:40.307Z</time></trkpt><trkpt lat="46.131585" lon="13.4396765"><ele>287.0</ele><time>2026-05-02T14:09:42.308Z</time></trkpt><trkpt lat="46.1317081" lon="13.4397013"><ele>288.0</ele><time>2026-05-02T14:09:44.307Z</time></trkpt><trkpt lat="46.1318372" lon="13.4397637"><ele>289.0</ele><time>2026-05-02T14:09:46.307Z</time></trkpt><trkpt lat="46.1319465" lon="13.4398741"><ele>290.0</ele><time>2026-05-02T14:09:48.308Z</time></trkpt><trkpt lat="46.1320087" lon="13.439949"><ele>290.0</ele><time>2026-05-02T14:09:49.308Z</time></trkpt><trkpt lat="46.1320804" lon="13.4400156"><ele>290.0</ele><time>2026-05-02T14:09:50.308Z</time></trkpt><trkpt lat="46.1321449" lon="13.4400791"><ele>290.0</ele><time>2026-05-02T14:09:51.308Z</time></trkpt><trkpt lat="46.1322218" lon="13.4401523"><ele>290.0</ele><time>2026-05-02T14:09:52.308Z</time></trkpt><trkpt lat="46.1322815" lon="13.4402459"><ele>290.0</ele><time>2026-05-02T14:09:53.307Z</time></trkpt><trkpt lat="46.1323309" lon="13.4403369"><ele>290.0</ele><time>2026-05-02T14:09:54.307Z</time></trkpt><trkpt lat="46.1323628" lon="13.4404376"><ele>290.6666666666667</ele><time>2026-05-02T14:09:55.307Z</time></trkpt><trkpt lat="46.1324026" lon="13.4405452"><ele>291.33333333333337</ele><time>2026-05-02T14:09:56.308Z</time></trkpt><trkpt lat="46.132441" lon="13.4406485"><ele>292.0</ele><time>2026-05-02T14:09:57.307Z</time></trkpt><trkpt lat="46.1324891" lon="13.4407498"><ele>292.6666666666667</ele><time>2026-05-02T14:09:58.308Z</time></trkpt><trkpt lat="46.1325194" lon="13.4408604"><ele>293.3333333333333</ele><time>2026-05-02T14:09:59.308Z</time></trkpt><trkpt lat="46.1325394" lon="13.4409658"><ele>294.0</ele><time>2026-05-02T14:10:00.307Z</time></trkpt><trkpt lat="46.1325405" lon="13.4410672"><ele>294.0</ele><time>2026-05-02T14:10:01.307Z</time></trkpt><trkpt lat="46.1325269" lon="13.4411566"><ele>294.0</ele><time>2026-05-02T14:10:02.308Z</time></trkpt><trkpt lat="46.1324838" lon="13.4412493"><ele>294.0</ele><time>2026-05-02T14:10:03.308Z</time></trkpt><trkpt lat="46.13245" lon="13.4413467"><ele>294.0</ele><time>2026-05-02T14:10:04.307Z</time></trkpt><trkpt lat="46.1324219" lon="13.4414389"><ele>294.0</ele><time>2026-05-02T14:10:05.308Z</time></trkpt><trkpt lat="46.132389" lon="13.4415401"><ele>294.0</ele><time>2026-05-02T14:10:06.307Z</time></trkpt><trkpt lat="46.1323679" lon="13.4416359"><ele>294.0</ele><time>2026-05-02T14:10:07.308Z</time></trkpt><trkpt lat="46.1323474" lon="13.441728"><ele>305.75</ele><time>2026-05-02T14:10:08.308Z</time></trkpt><trkpt lat="46.1323183" lon="13.4418917"><ele>317.5</ele><time>2026-05-02T14:10:10.307Z</time></trkpt><trkpt lat="46.1322807" lon="13.4420517"><ele>329.25</ele><time>2026-05-02T14:10:12.307Z</time></trkpt><trkpt lat="46.1322788" lon="13.4422146"><ele>341.0</ele><time>2026-05-02T14:10:14.307Z</time></trkpt><trkpt lat="46.1323173" lon="13.4423706"><ele>342.6666666666667</ele><time>2026-05-02T14:10:16.308Z</time></trkpt><trkpt lat="46.1323731" lon="13.442439"><ele>344.33333333333337</ele><time>2026-05-02T14:10:17.308Z</time></trkpt><trkpt lat="46.1324244" lon="13.4425214"><ele>346.0</ele><time>2026-05-02T14:10:18.307Z</time></trkpt><trkpt lat="46.1324706" lon="13.4426384"><ele>347.6666666666667</ele><time>2026-05-02T14:10:19.307Z</time></trkpt><trkpt lat="46.1325026" lon="13.4427694"><ele>349.3333333333333</ele><time>2026-05-02T14:10:20.307Z</time></trkpt><trkpt lat="46.1325331" lon="13.4429039"><ele>351.0</ele><time>2026-05-02T14:10:21.308Z</time></trkpt><trkpt lat="46.1325683" lon="13.4430348"><ele>344.6</ele><time>2026-05-02T14:10:22.307Z</time></trkpt><trkpt lat="46.1325828" lon="13.4431414"><ele>338.20000000000005</ele><time>2026-05-02T14:10:23.308Z</time></trkpt><trkpt lat="46.1325646" lon="13.4433066"><ele>331.79999999999995</ele><time>2026-05-02T14:10:25.308Z</time></trkpt><trkpt lat="46.132549" lon="13.4433972"><ele>325.4</ele><time>2026-05-02T14:10:26.307Z</time></trkpt><trkpt lat="46.1325099" lon="13.4435606"><ele>319.0</ele><time>2026-05-02T14:10:28.307Z</time></trkpt><trkpt lat="46.1325181" lon="13.4436943"><ele>319.0</ele><time>2026-05-02T14:10:30.308Z</time></trkpt><trkpt lat="46.1325979" lon="13.4437495"><ele>319.0</ele><time>2026-05-02T14:10:32.308Z</time></trkpt><trkpt lat="46.132721" lon="13.443727"><ele>319.0</ele><time>2026-05-02T14:10:34.307Z</time></trkpt><trkpt lat="46.1327894" lon="13.4436956"><ele>319.0</ele><time>2026-05-02T14:10:35.308Z</time></trkpt><trkpt lat="46.1328629" lon="13.4436693"><ele>319.0</ele><time>2026-05-02T14:10:36.307Z</time></trkpt><trkpt lat="46.1329291" lon="13.4436767"><ele>319.0</ele><time>2026-05-02T14:10:37.307Z</time></trkpt><trkpt lat="46.1329985" lon="13.4437152"><ele>319.0</ele><time>2026-05-02T14:10:38.308Z</time></trkpt><trkpt lat="46.133066" lon="13.4437568"><ele>319.0</ele><time>2026-05-02T14:10:39.307Z</time></trkpt><trkpt lat="46.1331213" lon="13.4438316"><ele>319.0</ele><time>2026-05-02T14:10:40.308Z</time></trkpt><trkpt lat="46.133179" lon="13.4439368"><ele>319.0</ele><time>2026-05-02T14:10:41.307Z</time></trkpt><trkpt lat="46.133257" lon="13.4440535"><ele>319.0</ele><time>2026-05-02T14:10:42.307Z</time></trkpt><trkpt lat="46.1333174" lon="13.4441666"><ele>318.8333333333333</ele><time>2026-05-02T14:10:43.308Z</time></trkpt><trkpt lat="46.1333714" lon="13.4442806"><ele>318.66666666666663</ele><time>2026-05-02T14:10:44.308Z</time></trkpt><trkpt lat="46.1334097" lon="13.444379"><ele>318.5</ele><time>2026-05-02T14:10:45.308Z</time></trkpt><trkpt lat="46.1334315" lon="13.4444796"><ele>318.3333333333333</ele><time>2026-05-02T14:10:46.307Z</time></trkpt><trkpt lat="46.1334447" lon="13.4445866"><ele>318.1666666666667</ele><time>2026-05-02T14:10:47.307Z</time></trkpt><trkpt lat="46.133475" lon="13.4446676"><ele>318.0</ele><time>2026-05-02T14:10:48.308Z</time></trkpt><trkpt lat="46.1335213" lon="13.444734"><ele>321.5</ele><time>2026-05-02T14:10:49.307Z</time></trkpt><trkpt lat="46.1335772" lon="13.4447935"><ele>325.0</ele><time>2026-05-02T14:10:50.308Z</time></trkpt><trkpt lat="46.1336857" lon="13.4448313"><ele>328.5</ele><time>2026-05-02T14:10:52.308Z</time></trkpt><trkpt lat="46.1337898" lon="13.444784"><ele>332.0</ele><time>2026-05-02T14:10:54.308Z</time></trkpt><trkpt lat="46.1338593" lon="13.444749"><ele>335.5</ele><time>2026-05-02T14:10:55.307Z</time></trkpt><trkpt lat="46.1339328" lon="13.4447136"><ele>339.0</ele><time>2026-05-02T14:10:56.307Z</time></trkpt><trkpt lat="46.1340088" lon="13.4446795"><ele>337.0</ele><time>2026-05-02T14:10:57.308Z</time></trkpt><trkpt lat="46.1340912" lon="13.44464"><ele>335.0</ele><time>2026-05-02T14:10:58.307Z</time></trkpt><trkpt lat="46.1341712" lon="13.4445913"><ele>333.0</ele><time>2026-05-02T14:10:59.308Z</time></trkpt><trkpt lat="46.1342509" lon="13.4445476"><ele>331.0</ele><time>2026-05-02T14:11:00.308Z</time></trkpt><trkpt lat="46.1343293" lon="13.4444958"><ele>329.0</ele><time>2026-05-02T14:11:01.308Z</time></trkpt><trkpt lat="46.1344034" lon="13.4444529"><ele>327.0</ele><time>2026-05-02T14:11:02.308Z</time></trkpt><trkpt lat="46.1344797" lon="13.4443952"><ele>323.40000000000003</ele><time>2026-05-02T14:11:03.307Z</time></trkpt><trkpt lat="46.1345551" lon="13.4443171"><ele>319.8</ele><time>2026-05-02T14:11:04.308Z</time></trkpt><trkpt lat="46.1346045" lon="13.4442342"><ele>316.2</ele><time>2026-05-02T14:11:05.308Z</time></trkpt><trkpt lat="46.1346398" lon="13.4441284"><ele>312.6</ele><time>2026-05-02T14:11:06.308Z</time></trkpt><trkpt lat="46.1346849" lon="13.4439404"><ele>309.0</ele><time>2026-05-02T14:11:08.307Z</time></trkpt><trkpt lat="46.1347125" lon="13.4438106"><ele>307.5</ele><time>2026-05-02T14:11:09.307Z</time></trkpt><trkpt lat="46.1347354" lon="13.443685"><ele>306.0</ele><time>2026-05-02T14:11:10.307Z</time></trkpt><trkpt lat="46.134739" lon="13.44356"><ele>304.5</ele><time>2026-05-02T14:11:11.307Z</time></trkpt><trkpt lat="46.1347503" lon="13.4434593"><ele>303.0</ele><time>2026-05-02T14:11:12.307Z</time></trkpt><trkpt lat="46.1347511" lon="13.4433529"><ele>301.5</ele><time>2026-05-02T14:11:13.307Z</time></trkpt><trkpt lat="46.1347535" lon="13.443254"><ele>300.0</ele><time>2026-05-02T14:11:14.307Z</time></trkpt><trkpt lat="46.1347604" lon="13.4431608"><ele>300.0</ele><time>2026-05-02T14:11:15.308Z</time></trkpt><trkpt lat="46.1347754" lon="13.443069"><ele>300.0</ele><time>2026-05-02T14:11:16.308Z</time></trkpt><trkpt lat="46.1348003" lon="13.4429851"><ele>300.0</ele><time>2026-05-02T14:11:17.308Z</time></trkpt><trkpt lat="46.134861" lon="13.4428991"><ele>300.0</ele><time>2026-05-02T14:11:19.307Z</time></trkpt><trkpt lat="46.1349297" lon="13.4428982"><ele>300.0</ele><time>2026-05-02T14:11:22.307Z</time></trkpt><trkpt lat="46.1349966" lon="13.442981"><ele>300.0</ele><time>2026-05-02T14:11:24.307Z</time></trkpt><trkpt lat="46.1350509" lon="13.4431551"><ele>301.3333333333333</ele><time>2026-05-02T14:11:26.308Z</time></trkpt><trkpt lat="46.1350773" lon="13.4432682"><ele>302.6666666666667</ele><time>2026-05-02T14:11:27.308Z</time></trkpt><trkpt lat="46.1350958" lon="13.4433773"><ele>304.0</ele><time>2026-05-02T14:11:28.307Z</time></trkpt><trkpt lat="46.1350997" lon="13.4434845"><ele>305.33333333333337</ele><time>2026-05-02T14:11:29.308Z</time></trkpt><trkpt lat="46.1350762" lon="13.4435944"><ele>306.6666666666667</ele><time>2026-05-02T14:11:30.307Z</time></trkpt><trkpt lat="46.1350422" lon="13.443711"><ele>308.0</ele><time>2026-05-02T14:11:31.307Z</time></trkpt><trkpt lat="46.1350094" lon="13.4438218"><ele>309.2</ele><time>2026-05-02T14:11:32.307Z</time></trkpt><trkpt lat="46.1349816" lon="13.4439163"><ele>310.4</ele><time>2026-05-02T14:11:33.308Z</time></trkpt><trkpt lat="46.1349737" lon="13.444101"><ele>311.59999999999997</ele><time>2026-05-02T14:11:35.307Z</time></trkpt><trkpt lat="46.1349998" lon="13.4442104"><ele>312.8</ele><time>2026-05-02T14:11:36.307Z</time></trkpt><trkpt lat="46.1350234" lon="13.4443548"><ele>314.0</ele><time>2026-05-02T14:11:37.308Z</time></trkpt><trkpt lat="46.1350362" lon="13.4444787"><ele>314.0</ele><time>2026-05-02T14:11:38.307Z</time></trkpt><trkpt lat="46.1350509" lon="13.4446071"><ele>314.0</ele><time>2026-05-02T14:11:39.308Z</time></trkpt><trkpt lat="46.1350492" lon="13.4447291"><ele>314.0</ele><time>2026-05-02T14:11:40.308Z</time></trkpt><trkpt lat="46.135041" lon="13.4448402"><ele>314.0</ele><time>2026-05-02T14:11:41.308Z</time></trkpt><trkpt lat="46.135025" lon="13.4449474"><ele>314.0</ele><time>2026-05-02T14:11:42.308Z</time></trkpt><trkpt lat="46.1350113" lon="13.4450624"><ele>314.0</ele><time>2026-05-02T14:11:43.307Z</time></trkpt><trkpt lat="46.1350076" lon="13.4451658"><ele>316.0</ele><time>2026-05-02T14:11:44.307Z</time></trkpt><trkpt lat="46.1350187" lon="13.4452828"><ele>318.0</ele><time>2026-05-02T14:11:45.307Z</time></trkpt><trkpt lat="46.1350404" lon="13.4453856"><ele>320.0</ele><time>2026-05-02T14:11:46.308Z</time></trkpt><trkpt lat="46.1350788" lon="13.4455079"><ele>322.0</ele><time>2026-05-02T14:11:48.307Z</time></trkpt><trkpt lat="46.1351652" lon="13.4455541"><ele>324.0</ele><time>2026-05-02T14:11:50.308Z</time></trkpt><trkpt lat="46.1352737" lon="13.4455802"><ele>327.2</ele><time>2026-05-02T14:11:52.307Z</time></trkpt><trkpt lat="46.135331" lon="13.4456292"><ele>330.4</ele><time>2026-05-02T14:11:53.307Z</time></trkpt><trkpt lat="46.1353969" lon="13.4457166"><ele>333.6</ele><time>2026-05-02T14:11:54.307Z</time></trkpt><trkpt lat="46.1354791" lon="13.445819"><ele>336.8</ele><time>2026-05-02T14:11:55.308Z</time></trkpt><trkpt lat="46.1355552" lon="13.4459365"><ele>340.0</ele><time>2026-05-02T14:11:56.308Z</time></trkpt><trkpt lat="46.1356277" lon="13.4460466"><ele>340.0</ele><time>2026-05-02T14:11:57.308Z</time></trkpt><trkpt lat="46.1356899" lon="13.4461388"><ele>340.0</ele><time>2026-05-02T14:11:58.308Z</time></trkpt><trkpt lat="46.1357534" lon="13.4462216"><ele>340.0</ele><time>2026-05-02T14:11:59.307Z</time></trkpt><trkpt lat="46.1358206" lon="13.446314"><ele>340.0</ele><time>2026-05-02T14:12:00.308Z</time></trkpt><trkpt lat="46.135872" lon="13.4463991"><ele>340.0</ele><time>2026-05-02T14:12:01.308Z</time></trkpt><trkpt lat="46.1359252" lon="13.446501"><ele>340.0</ele><time>2026-05-02T14:12:02.308Z</time></trkpt><trkpt lat="46.1359545" lon="13.4466062"><ele>343.0</ele><time>2026-05-02T14:12:03.307Z</time></trkpt><trkpt lat="46.1359612" lon="13.4467501"><ele>346.0</ele><time>2026-05-02T14:12:04.307Z</time></trkpt><trkpt lat="46.1359642" lon="13.4468863"><ele>349.0</ele><time>2026-05-02T14:12:05.307Z</time></trkpt><trkpt lat="46.135962" lon="13.446982"><ele>352.0</ele><time>2026-05-02T14:12:06.307Z</time></trkpt><trkpt lat="46.1359413" lon="13.4470702"><ele>355.0</ele><time>2026-05-02T14:12:07.307Z</time></trkpt><trkpt lat="46.1358702" lon="13.4472064"><ele>358.0</ele><time>2026-05-02T14:12:09.308Z</time></trkpt><trkpt lat="46.1358529" lon="13.4473194"><ele>360.5</ele><time>2026-05-02T14:12:11.308Z</time></trkpt><trkpt lat="46.135892" lon="13.4474174"><ele>363.0</ele><time>2026-05-02T14:12:13.308Z</time></trkpt><trkpt lat="46.1360056" lon="13.4473947"><ele>365.5</ele><time>2026-05-02T14:12:15.308Z</time></trkpt><trkpt lat="46.1360665" lon="13.4473676"><ele>368.0</ele><time>2026-05-02T14:12:16.308Z</time></trkpt><trkpt lat="46.1361381" lon="13.4473085"><ele>370.5</ele><time>2026-05-02T14:12:17.308Z</time></trkpt><trkpt lat="46.1362246" lon="13.4472347"><ele>373.0</ele><time>2026-05-02T14:12:18.307Z</time></trkpt><trkpt lat="46.1362922" lon="13.4471686"><ele>371.16666666666663</ele><time>2026-05-02T14:12:19.307Z</time></trkpt><trkpt lat="46.1363469" lon="13.4471129"><ele>369.3333333333333</ele><time>2026-05-02T14:12:20.308Z</time></trkpt><trkpt lat="46.1364679" lon="13.4470662"><ele>367.5</ele><time>2026-05-02T14:12:22.307Z</time></trkpt><trkpt lat="46.1365377" lon="13.4471015"><ele>365.6666666666667</ele><time>2026-05-02T14:12:23.308Z</time></trkpt><trkpt lat="46.1365947" lon="13.4471585"><ele>363.83333333333337</ele><time>2026-05-02T14:12:24.307Z</time></trkpt><trkpt lat="46.1366538" lon="13.4472353"><ele>362.0</ele><time>2026-05-02T14:12:25.307Z</time></trkpt><trkpt lat="46.1367049" lon="13.447336"><ele>362.0</ele><time>2026-05-02T14:12:26.307Z</time></trkpt><trkpt lat="46.1367478" lon="13.4474303"><ele>362.0</ele><time>2026-05-02T14:12:27.307Z</time></trkpt><trkpt lat="46.1367751" lon="13.4475284"><ele>362.0</ele><time>2026-05-02T14:12:28.307Z</time></trkpt><trkpt lat="46.1368046" lon="13.4476239"><ele>362.0</ele><time>2026-05-02T14:12:29.308Z</time></trkpt><trkpt lat="46.1368367" lon="13.4477276"><ele>362.0</ele><time>2026-05-02T14:12:30.307Z</time></trkpt><trkpt lat="46.1368548" lon="13.4478378"><ele>362.0</ele><time>2026-05-02T14:12:31.308Z</time></trkpt><trkpt lat="46.1368618" lon="13.4479525"><ele>364.0</ele><time>2026-05-02T14:12:32.307Z</time></trkpt><trkpt lat="46.1368702" lon="13.4480731"><ele>366.0</ele><time>2026-05-02T14:12:33.307Z</time></trkpt><trkpt lat="46.1368825" lon="13.4481821"><ele>368.0</ele><time>2026-05-02T14:12:34.308Z</time></trkpt><trkpt lat="46.1368924" lon="13.4482805"><ele>370.0</ele><time>2026-05-02T14:12:35.308Z</time></trkpt><trkpt lat="46.1369036" lon="13.4483831"><ele>372.0</ele><time>2026-05-02T14:12:36.308Z</time></trkpt><trkpt lat="46.136908" lon="13.4484895"><ele>374.0</ele><time>2026-05-02T14:12:37.307Z</time></trkpt><trkpt lat="46.1369098" lon="13.4485958"><ele>376.0</ele><time>2026-05-02T14:12:38.307Z</time></trkpt><trkpt lat="46.1369099" lon="13.4486972"><ele>378.0</ele><time>2026-05-02T14:12:39.308Z</time></trkpt><trkpt lat="46.1369143" lon="13.4488021"><ele>380.0</ele><time>2026-05-02T14:12:40.307Z</time></trkpt><trkpt lat="46.1369084" lon="13.4489024"><ele>382.0</ele><time>2026-05-02T14:12:41.307Z</time></trkpt><trkpt lat="46.136903" lon="13.4490064"><ele>384.0</ele><time>2026-05-02T14:12:42.307Z</time></trkpt><trkpt lat="46.1368892" lon="13.4491128"><ele>386.0</ele><time>2026-05-02T14:12:43.307Z</time></trkpt><trkpt lat="46.136868" lon="13.4492246"><ele>388.0</ele><time>2026-05-02T14:12:44.307Z</time></trkpt><trkpt lat="46.1368449" lon="13.4493272"><ele>390.0</ele><time>2026-05-02T14:12:45.308Z</time></trkpt><trkpt lat="46.1368102" lon="13.4494137"><ele>390.0</ele><time>2026-05-02T14:12:46.308Z</time></trkpt><trkpt lat="46.1367435" lon="13.4495458"><ele>390.0</ele><time>2026-05-02T14:12:48.307Z</time></trkpt><trkpt lat="46.1367106" lon="13.4496409"><ele>390.0</ele><time>2026-05-02T14:12:50.307Z</time></trkpt><trkpt lat="46.1367645" lon="13.4497545"><ele>390.0</ele><time>2026-05-02T14:12:53.307Z</time></trkpt><trkpt lat="46.1368241" lon="13.4497904"><ele>390.0</ele><time>2026-05-02T14:12:54.308Z</time></trkpt><trkpt lat="46.1369085" lon="13.4498155"><ele>390.0</ele><time>2026-05-02T14:12:55.308Z</time></trkpt><trkpt lat="46.1369892" lon="13.4498359"><ele>392.5</ele><time>2026-05-02T14:12:56.308Z</time></trkpt><trkpt lat="46.1370766" lon="13.4498604"><ele>395.0</ele><time>2026-05-02T14:12:57.307Z</time></trkpt><trkpt lat="46.1371416" lon="13.4499398"><ele>397.5</ele><time>2026-05-02T14:12:58.308Z</time></trkpt><trkpt lat="46.137179" lon="13.4500382"><ele>400.0</ele><time>2026-05-02T14:12:59.307Z</time></trkpt><trkpt lat="46.1371957" lon="13.4501332"><ele>402.5</ele><time>2026-05-02T14:13:00.308Z</time></trkpt><trkpt lat="46.137192" lon="13.4502419"><ele>405.0</ele><time>2026-05-02T14:13:01.308Z</time></trkpt><trkpt lat="46.1371749" lon="13.4503352"><ele>407.5</ele><time>2026-05-02T14:13:02.308Z</time></trkpt><trkpt lat="46.137132" lon="13.4504921"><ele>410.0</ele><time>2026-05-02T14:13:04.307Z</time></trkpt><trkpt lat="46.1371023" lon="13.4505782"><ele>412.5</ele><time>2026-05-02T14:13:05.307Z</time></trkpt><trkpt lat="46.1370545" lon="13.4506773"><ele>415.0</ele><time>2026-05-02T14:13:06.308Z</time></trkpt><trkpt lat="46.137004" lon="13.4507766"><ele>417.5</ele><time>2026-05-02T14:13:07.308Z</time></trkpt><trkpt lat="46.1369651" lon="13.450871"><ele>420.0</ele><time>2026-05-02T14:13:08.308Z</time></trkpt><trkpt lat="46.1369346" lon="13.450963"><ele>420.0</ele><time>2026-05-02T14:13:09.307Z</time></trkpt><trkpt lat="46.1369197" lon="13.4510552"><ele>420.0</ele><time>2026-05-02T14:13:10.308Z</time></trkpt><trkpt lat="46.1369858" lon="13.4512097"><ele>420.0</ele><time>2026-05-02T14:13:12.307Z</time></trkpt><trkpt lat="46.1371031" lon="13.4512764"><ele>420.0</ele><time>2026-05-02T14:13:14.307Z</time></trkpt><trkpt lat="46.1371623" lon="13.4513137"><ele>420.0</ele><time>2026-05-02T14:13:15.308Z</time></trkpt><trkpt lat="46.1372546" lon="13.4513477"><ele>422.0</ele><time>2026-05-02T14:13:17.307Z</time></trkpt><trkpt lat="46.1372494" lon="13.451459"><ele>424.0</ele><time>2026-05-02T14:13:21.308Z</time></trkpt><trkpt lat="46.1371547" lon="13.4514717"><ele>426.0</ele><time>2026-05-02T14:13:23.307Z</time></trkpt><trkpt lat="46.1370659" lon="13.4514806"><ele>428.0</ele><time>2026-05-02T14:13:24.308Z</time></trkpt><trkpt lat="46.1369831" lon="13.4514714"><ele>430.0</ele><time>2026-05-02T14:13:25.307Z</time></trkpt><trkpt lat="46.1368941" lon="13.4514415"><ele>432.0</ele><time>2026-05-02T14:13:26.307Z</time></trkpt><trkpt lat="46.1368298" lon="13.4513942"><ele>432.0</ele><time>2026-05-02T14:13:27.308Z</time></trkpt><trkpt lat="46.1367809" lon="13.4513308"><ele>432.0</ele><time>2026-05-02T14:13:28.308Z</time></trkpt><trkpt lat="46.1367569" lon="13.451167"><ele>432.0</ele><time>2026-05-02T14:13:30.307Z</time></trkpt><trkpt lat="46.1367551" lon="13.4510586"><ele>432.0</ele><time>2026-05-02T14:13:31.307Z</time></trkpt><trkpt lat="46.1367379" lon="13.4509553"><ele>432.0</ele><time>2026-05-02T14:13:32.307Z</time></trkpt><trkpt lat="46.1367042" lon="13.4508702"><ele>432.0</ele><time>2026-05-02T14:13:33.307Z</time></trkpt><trkpt lat="46.1366551" lon="13.4507799"><ele>432.8</ele><time>2026-05-02T14:13:34.308Z</time></trkpt><trkpt lat="46.1365945" lon="13.450688"><ele>433.6</ele><time>2026-05-02T14:13:35.308Z</time></trkpt><trkpt lat="46.1365282" lon="13.4505923"><ele>434.40000000000003</ele><time>2026-05-02T14:13:36.308Z</time></trkpt><trkpt lat="46.1364442" lon="13.4504858"><ele>435.20000000000005</ele><time>2026-05-02T14:13:37.308Z</time></trkpt><trkpt lat="46.1363671" lon="13.4504018"><ele>436.0</ele><time>2026-05-02T14:13:38.307Z</time></trkpt><trkpt lat="46.1363062" lon="13.4503293"><ele>436.00000000000006</ele><time>2026-05-02T14:13:39.307Z</time></trkpt><trkpt lat="46.136242" lon="13.4502408"><ele>436.0</ele><time>2026-05-02T14:13:40.308Z</time></trkpt><trkpt lat="46.1361827" lon="13.4501505"><ele>436.0</ele><time>2026-05-02T14:13:41.307Z</time></trkpt><trkpt lat="46.1361316" lon="13.4500593"><ele>436.0</ele><time>2026-05-02T14:13:42.308Z</time></trkpt><trkpt lat="46.1360969" lon="13.4499596"><ele>436.00000000000006</ele><time>2026-05-02T14:13:43.308Z</time></trkpt><trkpt lat="46.1360609" lon="13.4498575"><ele>436.0</ele><time>2026-05-02T14:13:44.308Z</time></trkpt><trkpt lat="46.1360334" lon="13.4497642"><ele>436.20000000000005</ele><time>2026-05-02T14:13:45.307Z</time></trkpt><trkpt lat="46.1359909" lon="13.4496104"><ele>436.40000000000003</ele><time>2026-05-02T14:13:47.307Z</time></trkpt><trkpt lat="46.1359117" lon="13.4495042"><ele>436.6</ele><time>2026-05-02T14:13:49.308Z</time></trkpt><trkpt lat="46.1358068" lon="13.449421"><ele>436.8</ele><time>2026-05-02T14:13:51.307Z</time></trkpt><trkpt lat="46.135741" lon="13.4493869"><ele>437.0</ele><time>2026-05-02T14:13:52.308Z</time></trkpt><trkpt lat="46.1356742" lon="13.4493498"><ele>436.99999999999994</ele><time>2026-05-02T14:13:53.308Z</time></trkpt><trkpt lat="46.1355966" lon="13.4493252"><ele>437.0</ele><time>2026-05-02T14:13:54.307Z</time></trkpt><trkpt lat="46.1355222" lon="13.4492998"><ele>437.0</ele><time>2026-05-02T14:13:55.307Z</time></trkpt><trkpt lat="46.1354473" lon="13.4492727"><ele>437.0</ele><time>2026-05-02T14:13:56.307Z</time></trkpt><trkpt lat="46.1353579" lon="13.4492435"><ele>436.99999999999994</ele><time>2026-05-02T14:13:57.308Z</time></trkpt><trkpt lat="46.1352857" lon="13.4492247"><ele>437.0</ele><time>2026-05-02T14:13:58.307Z</time></trkpt><trkpt lat="46.1352197" lon="13.4492081"><ele>437.0</ele><time>2026-05-02T14:13:59.308Z</time></trkpt><trkpt lat="46.1351474" lon="13.4491817"><ele>437.0</ele><time>2026-05-02T14:14:00.308Z</time></trkpt><trkpt lat="46.1350899" lon="13.4491369"><ele>437.0</ele><time>2026-05-02T14:14:01.308Z</time></trkpt><trkpt lat="46.135044" lon="13.4490628"><ele>437.0</ele><time>2026-05-02T14:14:02.308Z</time></trkpt><trkpt lat="46.1349883" lon="13.448977"><ele>437.0</ele><time>2026-05-02T14:14:03.307Z</time></trkpt><trkpt lat="46.1349549" lon="13.4488935"><ele>437.0</ele><time>2026-05-02T14:14:04.307Z</time></trkpt><trkpt lat="46.1348965" lon="13.4488041"><ele>437.0</ele><time>2026-05-02T14:14:05.308Z</time></trkpt><trkpt lat="46.1348268" lon="13.4487095"><ele>437.16666666666663</ele><time>2026-05-02T14:14:06.308Z</time></trkpt><trkpt lat="46.134755" lon="13.4486532"><ele>437.3333333333333</ele><time>2026-05-02T14:14:07.307Z</time></trkpt><trkpt lat="46.1346842" lon="13.4485935"><ele>437.5</ele><time>2026-05-02T14:14:08.307Z</time></trkpt><trkpt lat="46.1346144" lon="13.4485486"><ele>437.66666666666663</ele><time>2026-05-02T14:14:09.308Z</time></trkpt><trkpt lat="46.134495" lon="13.4485066"><ele>437.8333333333333</ele><time>2026-05-02T14:14:11.307Z</time></trkpt><trkpt lat="46.1344318" lon="13.4484844"><ele>438.0</ele><time>2026-05-02T14:14:12.307Z</time></trkpt><trkpt lat="46.1343554" lon="13.4484489"><ele>438.0</ele><time>2026-05-02T14:14:13.308Z</time></trkpt><trkpt lat="46.1342597" lon="13.4484013"><ele>437.99999999999994</ele><time>2026-05-02T14:14:14.307Z</time></trkpt><trkpt lat="46.1341709" lon="13.4483601"><ele>437.99999999999994</ele><time>2026-05-02T14:14:15.308Z</time></trkpt><trkpt lat="46.1340527" lon="13.4482982"><ele>438.0</ele><time>2026-05-02T14:14:16.307Z</time></trkpt><trkpt lat="46.1339325" lon="13.4482406"><ele>438.0</ele><time>2026-05-02T14:14:17.307Z</time></trkpt><trkpt lat="46.1338382" lon="13.4482013"><ele>439.59999999999997</ele><time>2026-05-02T14:14:18.308Z</time></trkpt><trkpt lat="46.1337322" lon="13.4481432"><ele>441.19999999999993</ele><time>2026-05-02T14:14:19.307Z</time></trkpt><trkpt lat="46.1336606" lon="13.4481139"><ele>442.8</ele><time>2026-05-02T14:14:20.308Z</time></trkpt><trkpt lat="46.1335756" lon="13.4480741"><ele>444.4</ele><time>2026-05-02T14:14:21.308Z</time></trkpt><trkpt lat="46.1334985" lon="13.4480658"><ele>446.0</ele><time>2026-05-02T14:14:22.307Z</time></trkpt><trkpt lat="46.1333797" lon="13.4481127"><ele>445.99999999999994</ele><time>2026-05-02T14:14:24.308Z</time></trkpt><trkpt lat="46.133289" lon="13.4482254"><ele>446.0</ele><time>2026-05-02T14:14:26.307Z</time></trkpt><trkpt lat="46.1332295" lon="13.4482988"><ele>446.0</ele><time>2026-05-02T14:14:27.308Z</time></trkpt><trkpt lat="46.1331596" lon="13.4483588"><ele>446.0</ele><time>2026-05-02T14:14:28.308Z</time></trkpt><trkpt lat="46.1331024" lon="13.448417"><ele>445.99999999999994</ele><time>2026-05-02T14:14:29.307Z</time></trkpt><trkpt lat="46.1330565" lon="13.4484872"><ele>446.0</ele><time>2026-05-02T14:14:30.308Z</time></trkpt><trkpt lat="46.1329552" lon="13.448549"><ele>448.4</ele><time>2026-05-02T14:14:32.308Z</time></trkpt><trkpt lat="46.1328545" lon="13.4485102"><ele>450.8</ele><time>2026-05-02T14:14:34.307Z</time></trkpt><trkpt lat="46.1327615" lon="13.4484039"><ele>453.19999999999993</ele><time>2026-05-02T14:14:36.307Z</time></trkpt><trkpt lat="46.1327287" lon="13.4483153"><ele>455.59999999999997</ele><time>2026-05-02T14:14:37.308Z</time></trkpt><trkpt lat="46.132691" lon="13.4482256"><ele>458.0</ele><time>2026-05-02T14:14:38.308Z</time></trkpt><trkpt lat="46.1326274" lon="13.4481241"><ele>458.0</ele><time>2026-05-02T14:14:39.308Z</time></trkpt><trkpt lat="46.1325758" lon="13.4480235"><ele>457.99999999999994</ele><time>2026-05-02T14:14:40.308Z</time></trkpt><trkpt lat="46.1325092" lon="13.4479311"><ele>457.99999999999994</ele><time>2026-05-02T14:14:41.308Z</time></trkpt><trkpt lat="46.132431" lon="13.4478394"><ele>458.0</ele><time>2026-05-02T14:14:42.307Z</time></trkpt><trkpt lat="46.1323564" lon="13.4477547"><ele>458.0</ele><time>2026-05-02T14:14:43.307Z</time></trkpt><trkpt lat="46.1322683" lon="13.4476638"><ele>457.3333333333333</ele><time>2026-05-02T14:14:44.308Z</time></trkpt><trkpt lat="46.1321976" lon="13.4475938"><ele>456.66666666666663</ele><time>2026-05-02T14:14:45.308Z</time></trkpt><trkpt lat="46.1321172" lon="13.4475346"><ele>456.0</ele><time>2026-05-02T14:14:46.307Z</time></trkpt><trkpt lat="46.132048" lon="13.4474831"><ele>455.33333333333337</ele><time>2026-05-02T14:14:47.307Z</time></trkpt><trkpt lat="46.1319684" lon="13.4474344"><ele>454.6666666666667</ele><time>2026-05-02T14:14:48.308Z</time></trkpt><trkpt lat="46.1318806" lon="13.4473862"><ele>454.0</ele><time>2026-05-02T14:14:49.307Z</time></trkpt><trkpt lat="46.1318046" lon="13.4473533"><ele>454.00000000000006</ele><time>2026-05-02T14:14:50.307Z</time></trkpt><trkpt lat="46.1317245" lon="13.4473444"><ele>454.0</ele><time>2026-05-02T14:14:51.307Z</time></trkpt><trkpt lat="46.1316412" lon="13.4473453"><ele>454.0</ele><time>2026-05-02T14:14:52.308Z</time></trkpt><trkpt lat="46.1315752" lon="13.4473467"><ele>454.0</ele><time>2026-05-02T14:14:53.308Z</time></trkpt><trkpt lat="46.1315107" lon="13.4473515"><ele>454.00000000000006</ele><time>2026-05-02T14:14:54.308Z</time></trkpt><trkpt lat="46.1314331" lon="13.4473898"><ele>454.0</ele><time>2026-05-02T14:14:55.307Z</time></trkpt><trkpt lat="46.1313634" lon="13.4474427"><ele>454.1666666666667</ele><time>2026-05-02T14:14:56.307Z</time></trkpt><trkpt lat="46.1313078" lon="13.4475025"><ele>454.33333333333337</ele><time>2026-05-02T14:14:57.307Z</time></trkpt><trkpt lat="46.1312507" lon="13.4475715"><ele>454.5</ele><time>2026-05-02T14:14:58.308Z</time></trkpt><trkpt lat="46.1311856" lon="13.4476172"><ele>454.66666666666663</ele><time>2026-05-02T14:14:59.307Z</time></trkpt><trkpt lat="46.1310855" lon="13.4476715"><ele>454.8333333333333</ele><time>2026-05-02T14:15:01.308Z</time></trkpt><trkpt lat="46.1310098" lon="13.4477166"><ele>455.0</ele><time>2026-05-02T14:15:03.308Z</time></trkpt><trkpt lat="46.1309093" lon="13.4477537"><ele>454.99999999999994</ele><time>2026-05-02T14:15:05.307Z</time></trkpt><trkpt lat="46.130815" lon="13.4477681"><ele>455.0</ele><time>2026-05-02T14:15:07.308Z</time></trkpt><trkpt lat="46.1307191" lon="13.447783"><ele>455.0</ele><time>2026-05-02T14:15:09.308Z</time></trkpt><trkpt lat="46.1306255" lon="13.4477576"><ele>455.0</ele><time>2026-05-02T14:15:11.308Z</time></trkpt><trkpt lat="46.1305915" lon="13.44763"><ele>454.99999999999994</ele><time>2026-05-02T14:15:14.308Z</time></trkpt><trkpt lat="46.1305828" lon="13.4475396"><ele>455.0</ele><time>2026-05-02T14:15:15.308Z</time></trkpt><trkpt lat="46.1305581" lon="13.4474401"><ele>456.0</ele><time>2026-05-02T14:15:16.308Z</time></trkpt><trkpt lat="46.130555" lon="13.4473385"><ele>457.0</ele><time>2026-05-02T14:15:17.308Z</time></trkpt><trkpt lat="46.1305568" lon="13.4472346"><ele>458.0</ele><time>2026-05-02T14:15:18.308Z</time></trkpt><trkpt lat="46.1305643" lon="13.4471403"><ele>459.0</ele><time>2026-05-02T14:15:19.308Z</time></trkpt><trkpt lat="46.130571" lon="13.4470242"><ele>460.0</ele><time>2026-05-02T14:15:20.307Z</time></trkpt><trkpt lat="46.1305695" lon="13.4469243"><ele>461.0</ele><time>2026-05-02T14:15:21.308Z</time></trkpt><trkpt lat="46.1305632" lon="13.4468085"><ele>462.0</ele><time>2026-05-02T14:15:22.307Z</time></trkpt><trkpt lat="46.1305554" lon="13.4466891"><ele>462.0</ele><time>2026-05-02T14:15:23.307Z</time></trkpt><trkpt lat="46.1305371" lon="13.4465892"><ele>462.00000000000006</ele><time>2026-05-02T14:15:24.308Z</time></trkpt><trkpt lat="46.1304887" lon="13.4464246"><ele>462.00000000000006</ele><time>2026-05-02T14:15:26.308Z</time></trkpt><trkpt lat="46.1304258" lon="13.4463115"><ele>462.0</ele><time>2026-05-02T14:15:28.308Z</time></trkpt><trkpt lat="46.1303304" lon="13.4462158"><ele>462.0</ele><time>2026-05-02T14:15:30.308Z</time></trkpt><trkpt lat="46.1302721" lon="13.4461668"><ele>456.75</ele><time>2026-05-02T14:15:31.308Z</time></trkpt><trkpt lat="46.1301671" lon="13.4461127"><ele>451.5</ele><time>2026-05-02T14:15:33.307Z</time></trkpt><trkpt lat="46.1300741" lon="13.446059"><ele>446.25</ele><time>2026-05-02T14:15:35.308Z</time></trkpt><trkpt lat="46.1299726" lon="13.4459834"><ele>441.0</ele><time>2026-05-02T14:15:37.308Z</time></trkpt><trkpt lat="46.1298392" lon="13.4459183"><ele>440.4</ele><time>2026-05-02T14:15:39.308Z</time></trkpt><trkpt lat="46.1297672" lon="13.4459007"><ele>439.8</ele><time>2026-05-02T14:15:40.307Z</time></trkpt><trkpt lat="46.129629" lon="13.4458654"><ele>439.19999999999993</ele><time>2026-05-02T14:15:42.307Z</time></trkpt><trkpt lat="46.1295632" lon="13.4458487"><ele>438.59999999999997</ele><time>2026-05-02T14:15:43.308Z</time></trkpt><trkpt lat="46.1294773" lon="13.4458299"><ele>438.0</ele><time>2026-05-02T14:15:44.307Z</time></trkpt><trkpt lat="46.1293901" lon="13.4458059"><ele>438.0</ele><time>2026-05-02T14:15:45.308Z</time></trkpt><trkpt lat="46.1293115" lon="13.4457839"><ele>438.0</ele><time>2026-05-02T14:15:46.308Z</time></trkpt><trkpt lat="46.1292178" lon="13.4457787"><ele>438.0</ele><time>2026-05-02T14:15:47.308Z</time></trkpt><trkpt lat="46.1291409" lon="13.4457672"><ele>438.0</ele><time>2026-05-02T14:15:48.308Z</time></trkpt><trkpt lat="46.1290609" lon="13.4457532"><ele>438.0</ele><time>2026-05-02T14:15:49.307Z</time></trkpt><trkpt lat="46.1289982" lon="13.4457365"><ele>438.0</ele><time>2026-05-02T14:15:50.307Z</time></trkpt><trkpt lat="46.1289279" lon="13.4457325"><ele>437.79999999999995</ele><time>2026-05-02T14:15:51.308Z</time></trkpt><trkpt lat="46.1287994" lon="13.4456934"><ele>437.59999999999997</ele><time>2026-05-02T14:15:53.307Z</time></trkpt><trkpt lat="46.1287069" lon="13.445681"><ele>437.40000000000003</ele><time>2026-05-02T14:15:55.308Z</time></trkpt><trkpt lat="46.1286157" lon="13.4456625"><ele>437.20000000000005</ele><time>2026-05-02T14:15:57.308Z</time></trkpt><trkpt lat="46.128543" lon="13.4456611"><ele>437.0</ele><time>2026-05-02T14:15:58.307Z</time></trkpt><trkpt lat="46.128476" lon="13.4456553"><ele>437.0</ele><time>2026-05-02T14:15:59.307Z</time></trkpt><trkpt lat="46.1283906" lon="13.4456278"><ele>437.00000000000006</ele><time>2026-05-02T14:16:01.307Z</time></trkpt><trkpt lat="46.128305" lon="13.4455833"><ele>437.00000000000006</ele><time>2026-05-02T14:16:04.307Z</time></trkpt><trkpt lat="46.1282008" lon="13.4455769"><ele>437.0</ele><time>2026-05-02T14:16:06.308Z</time></trkpt><trkpt lat="46.1281157" lon="13.445559"><ele>437.0</ele><time>2026-05-02T14:16:08.308Z</time></trkpt><trkpt lat="46.1280287" lon="13.4455189"><ele>433.0</ele><time>2026-05-02T14:16:10.307Z</time></trkpt><trkpt lat="46.1279191" lon="13.4454593"><ele>429.00000000000006</ele><time>2026-05-02T14:16:13.307Z</time></trkpt><trkpt lat="46.1278622" lon="13.4453908"><ele>425.0</ele><time>2026-05-02T14:16:15.307Z</time></trkpt><trkpt lat="46.1277746" lon="13.445348"><ele>421.0</ele><time>2026-05-02T14:16:18.308Z</time></trkpt><trkpt lat="46.1276923" lon="13.4453338"><ele>417.0</ele><time>2026-05-02T14:16:20.307Z</time></trkpt><trkpt lat="46.1276105" lon="13.4452912"><ele>417.0</ele><time>2026-05-02T14:16:22.307Z</time></trkpt><trkpt lat="46.1275241" lon="13.4452012"><ele>417.0</ele><time>2026-05-02T14:16:24.308Z</time></trkpt><trkpt lat="46.1274689" lon="13.4451411"><ele>417.0</ele><time>2026-05-02T14:16:25.307Z</time></trkpt><trkpt lat="46.1273994" lon="13.4450664"><ele>417.0</ele><time>2026-05-02T14:16:26.308Z</time></trkpt><trkpt lat="46.1272939" lon="13.4449241"><ele>417.0</ele><time>2026-05-02T14:16:28.307Z</time></trkpt><trkpt lat="46.1272375" lon="13.4448171"><ele>417.1666666666667</ele><time>2026-05-02T14:16:29.307Z</time></trkpt><trkpt lat="46.1271895" lon="13.4447356"><ele>417.33333333333337</ele><time>2026-05-02T14:16:30.307Z</time></trkpt><trkpt lat="46.1271341" lon="13.4446357"><ele>417.5</ele><time>2026-05-02T14:16:31.307Z</time></trkpt><trkpt lat="46.1270918" lon="13.4445416"><ele>417.6666666666667</ele><time>2026-05-02T14:16:32.308Z</time></trkpt><trkpt lat="46.1270596" lon="13.4444633"><ele>417.83333333333337</ele><time>2026-05-02T14:16:33.308Z</time></trkpt><trkpt lat="46.1269797" lon="13.4443106"><ele>418.0</ele><time>2026-05-02T14:16:35.307Z</time></trkpt><trkpt lat="46.1269105" lon="13.4441984"><ele>416.00000000000006</ele><time>2026-05-02T14:16:37.307Z</time></trkpt><trkpt lat="46.1268587" lon="13.4441398"><ele>414.0</ele><time>2026-05-02T14:16:38.307Z</time></trkpt><trkpt lat="46.1267949" lon="13.444096"><ele>412.0</ele><time>2026-05-02T14:16:39.308Z</time></trkpt><trkpt lat="46.1267196" lon="13.4440331"><ele>410.0</ele><time>2026-05-02T14:16:40.307Z</time></trkpt><trkpt lat="46.126651" lon="13.4439898"><ele>408.00000000000006</ele><time>2026-05-02T14:16:41.308Z</time></trkpt><trkpt lat="46.1265418" lon="13.4439114"><ele>406.0</ele><time>2026-05-02T14:16:43.308Z</time></trkpt><trkpt lat="46.1264871" lon="13.4438645"><ele>404.20000000000005</ele><time>2026-05-02T14:16:44.308Z</time></trkpt><trkpt lat="46.1263758" lon="13.4437873"><ele>402.40000000000003</ele><time>2026-05-02T14:16:46.307Z</time></trkpt><trkpt lat="46.1263154" lon="13.4437386"><ele>400.6</ele><time>2026-05-02T14:16:47.307Z</time></trkpt><trkpt lat="46.1262232" lon="13.4436461"><ele>398.8</ele><time>2026-05-02T14:16:49.307Z</time></trkpt><trkpt lat="46.1261737" lon="13.4435716"><ele>397.0</ele><time>2026-05-02T14:16:50.308Z</time></trkpt><trkpt lat="46.1261182" lon="13.4435025"><ele>397.0</ele><time>2026-05-02T14:16:51.307Z</time></trkpt><trkpt lat="46.1260192" lon="13.4434054"><ele>397.0</ele><time>2026-05-02T14:16:53.308Z</time></trkpt><trkpt lat="46.1259341" lon="13.4433222"><ele>397.0</ele><time>2026-05-02T14:16:55.308Z</time></trkpt><trkpt lat="46.1258473" lon="13.4432258"><ele>397.0</ele><time>2026-05-02T14:16:57.308Z</time></trkpt><trkpt lat="46.1257728" lon="13.4431131"><ele>397.0</ele><time>2026-05-02T14:16:59.307Z</time></trkpt><trkpt lat="46.125714" lon="13.4429803"><ele>398.0</ele><time>2026-05-02T14:17:01.307Z</time></trkpt><trkpt lat="46.1256746" lon="13.4428962"><ele>399.0</ele><time>2026-05-02T14:17:02.307Z</time></trkpt><trkpt lat="46.1256191" lon="13.4427098"><ele>400.0</ele><time>2026-05-02T14:17:04.308Z</time></trkpt><trkpt lat="46.125588" lon="13.4425418"><ele>401.0</ele><time>2026-05-02T14:17:06.308Z</time></trkpt><trkpt lat="46.1255557" lon="13.4423883"><ele>402.0</ele><time>2026-05-02T14:17:08.308Z</time></trkpt><trkpt lat="46.1255356" lon="13.4422923"><ele>402.0</ele><time>2026-05-02T14:17:09.307Z</time></trkpt><trkpt lat="46.1255108" lon="13.442134"><ele>402.0</ele><time>2026-05-02T14:17:11.307Z</time></trkpt><trkpt lat="46.1254992" lon="13.4419828"><ele>402.0</ele><time>2026-05-02T14:17:13.307Z</time></trkpt><trkpt lat="46.1254573" lon="13.4418763"><ele>402.0</ele><time>2026-05-02T14:17:15.308Z</time></trkpt><trkpt lat="46.1254311" lon="13.4417895"><ele>402.0</ele><time>2026-05-02T14:17:16.308Z</time></trkpt><trkpt lat="46.1254091" lon="13.4416962"><ele>402.0</ele><time>2026-05-02T14:17:17.307Z</time></trkpt><trkpt lat="46.125364" lon="13.4415699"><ele>402.5</ele><time>2026-05-02T14:17:19.308Z</time></trkpt><trkpt lat="46.1253275" lon="13.441487"><ele>403.0</ele><time>2026-05-02T14:17:21.307Z</time></trkpt><trkpt lat="46.1253006" lon="13.4413849"><ele>403.5</ele><time>2026-05-02T14:17:24.308Z</time></trkpt><trkpt lat="46.1252566" lon="13.4412769"><ele>404.0</ele><time>2026-05-02T14:17:27.308Z</time></trkpt><trkpt lat="46.1252614" lon="13.441148"><ele>404.5</ele><time>2026-05-02T14:17:32.307Z</time></trkpt><trkpt lat="46.1252713" lon="13.4410352"><ele>405.0</ele><time>2026-05-02T14:17:34.307Z</time></trkpt><trkpt lat="46.1252959" lon="13.4409349"><ele>402.8</ele><time>2026-05-02T14:17:36.308Z</time></trkpt><trkpt lat="46.1252941" lon="13.440837"><ele>400.6</ele><time>2026-05-02T14:17:37.308Z</time></trkpt><trkpt lat="46.1253119" lon="13.4407331"><ele>398.4</ele><time>2026-05-02T14:17:38.308Z</time></trkpt><trkpt lat="46.1253618" lon="13.4405756"><ele>396.2</ele><time>2026-05-02T14:17:40.307Z</time></trkpt><trkpt lat="46.1254034" lon="13.4404229"><ele>394.0</ele><time>2026-05-02T14:17:42.307Z</time></trkpt><trkpt lat="46.1254209" lon="13.4402672"><ele>391.79999999999995</ele><time>2026-05-02T14:17:44.307Z</time></trkpt><trkpt lat="46.1254052" lon="13.4401302"><ele>389.59999999999997</ele><time>2026-05-02T14:17:46.308Z</time></trkpt><trkpt lat="46.1253572" lon="13.4399789"><ele>387.4</ele><time>2026-05-02T14:17:48.308Z</time></trkpt><trkpt lat="46.125269" lon="13.4398573"><ele>385.2</ele><time>2026-05-02T14:17:50.307Z</time></trkpt><trkpt lat="46.1252121" lon="13.4397818"><ele>383.0</ele><time>2026-05-02T14:17:51.307Z</time></trkpt><trkpt lat="46.1251525" lon="13.4397147"><ele>383.0</ele><time>2026-05-02T14:17:52.308Z</time></trkpt><trkpt lat="46.1251031" lon="13.4396564"><ele>383.0</ele><time>2026-05-02T14:17:53.308Z</time></trkpt><trkpt lat="46.1250542" lon="13.4395978"><ele>383.0</ele><time>2026-05-02T14:17:54.307Z</time></trkpt><trkpt lat="46.1249523" lon="13.4395049"><ele>383.0</ele><time>2026-05-02T14:17:56.308Z</time></trkpt><trkpt lat="46.1248562" lon="13.4393521"><ele>383.0</ele><time>2026-05-02T14:17:58.308Z</time></trkpt><trkpt lat="46.124825" lon="13.4392622"><ele>379.4</ele><time>2026-05-02T14:17:59.307Z</time></trkpt><trkpt lat="46.1248111" lon="13.4390958"><ele>375.79999999999995</ele><time>2026-05-02T14:18:01.307Z</time></trkpt><trkpt lat="46.1247829" lon="13.4389957"><ele>372.2</ele><time>2026-05-02T14:18:02.307Z</time></trkpt><trkpt lat="46.1247622" lon="13.4388582"><ele>368.6</ele><time>2026-05-02T14:18:03.307Z</time></trkpt><trkpt lat="46.1247368" lon="13.438743"><ele>365.0</ele><time>2026-05-02T14:18:04.307Z</time></trkpt><trkpt lat="46.1246608" lon="13.4385962"><ele>361.0</ele><time>2026-05-02T14:18:06.307Z</time></trkpt><trkpt lat="46.1245682" lon="13.4385607"><ele>357.0</ele><time>2026-05-02T14:18:08.308Z</time></trkpt><trkpt lat="46.12447" lon="13.4385386"><ele>353.0</ele><time>2026-05-02T14:18:10.308Z</time></trkpt><trkpt lat="46.1243745" lon="13.4385577"><ele>349.0</ele><time>2026-05-02T14:18:12.307Z</time></trkpt><trkpt lat="46.1242796" lon="13.4386059"><ele>345.0</ele><time>2026-05-02T14:18:14.307Z</time></trkpt><trkpt lat="46.1242055" lon="13.4386849"><ele>345.0</ele><time>2026-05-02T14:18:16.307Z</time></trkpt><trkpt lat="46.1241438" lon="13.4387146"><ele>345.0</ele><time>2026-05-02T14:18:18.307Z</time></trkpt><trkpt lat="46.1239856" lon="13.4388368"><ele>345.0</ele><time>2026-05-02T14:18:20.308Z</time></trkpt><trkpt lat="46.1239181" lon="13.4388814"><ele>345.0</ele><time>2026-05-02T14:18:21.308Z</time></trkpt><trkpt lat="46.1238177" lon="13.4389041"><ele>345.0</ele><time>2026-05-02T14:18:23.307Z</time></trkpt><trkpt lat="46.1237375" lon="13.4389333"><ele>346.6</ele><time>2026-05-02T14:18:24.308Z</time></trkpt><trkpt lat="46.1236154" lon="13.438943"><ele>348.2</ele><time>2026-05-02T14:18:26.308Z</time></trkpt><trkpt lat="46.1235231" lon="13.4389458"><ele>349.79999999999995</ele><time>2026-05-02T14:18:27.307Z</time></trkpt><trkpt lat="46.1234508" lon="13.4389429"><ele>351.4</ele><time>2026-05-02T14:18:28.307Z</time></trkpt><trkpt lat="46.1233417" lon="13.4389346"><ele>353.0</ele><time>2026-05-02T14:18:30.308Z</time></trkpt><trkpt lat="46.1232237" lon="13.4389073"><ele>353.4</ele><time>2026-05-02T14:18:32.308Z</time></trkpt><trkpt lat="46.1231136" lon="13.4389178"><ele>353.79999999999995</ele><time>2026-05-02T14:18:34.307Z</time></trkpt><trkpt lat="46.1230388" lon="13.4389165"><ele>354.2</ele><time>2026-05-02T14:18:35.308Z</time></trkpt><trkpt lat="46.122929" lon="13.4388874"><ele>354.6</ele><time>2026-05-02T14:18:37.307Z</time></trkpt><trkpt lat="46.1228226" lon="13.4388651"><ele>355.0</ele><time>2026-05-02T14:18:39.308Z</time></trkpt><trkpt lat="46.1227332" lon="13.4388405"><ele>355.0</ele><time>2026-05-02T14:18:40.307Z</time></trkpt><trkpt lat="46.1226128" lon="13.4388338"><ele>355.0</ele><time>2026-05-02T14:18:42.307Z</time></trkpt><trkpt lat="46.1224973" lon="13.4388095"><ele>355.0</ele><time>2026-05-02T14:18:44.307Z</time></trkpt><trkpt lat="46.1223852" lon="13.4387772"><ele>355.0</ele><time>2026-05-02T14:18:46.307Z</time></trkpt><trkpt lat="46.1222721" lon="13.438744"><ele>347.75</ele><time>2026-05-02T14:18:48.308Z</time></trkpt><trkpt lat="46.1221308" lon="13.4387069"><ele>340.5</ele><time>2026-05-02T14:18:50.307Z</time></trkpt><trkpt lat="46.122048" lon="13.4387042"><ele>333.25</ele><time>2026-05-02T14:18:51.307Z</time></trkpt><trkpt lat="46.1219192" lon="13.4387154"><ele>326.0</ele><time>2026-05-02T14:18:53.308Z</time></trkpt><trkpt lat="46.121787" lon="13.4387121"><ele>326.0</ele><time>2026-05-02T14:18:55.307Z</time></trkpt><trkpt lat="46.1216633" lon="13.4386567"><ele>326.0</ele><time>2026-05-02T14:18:57.308Z</time></trkpt><trkpt lat="46.1215686" lon="13.4385781"><ele>326.0</ele><time>2026-05-02T14:18:59.307Z</time></trkpt><trkpt lat="46.1214619" lon="13.4385498"><ele>326.0</ele><time>2026-05-02T14:19:01.307Z</time></trkpt><trkpt lat="46.1213925" lon="13.438537"><ele>326.0</ele><time>2026-05-02T14:19:02.308Z</time></trkpt><trkpt lat="46.1212899" lon="13.4385284"><ele>327.6</ele><time>2026-05-02T14:19:04.308Z</time></trkpt><trkpt lat="46.1212209" lon="13.4385169"><ele>329.20000000000005</ele><time>2026-05-02T14:19:05.307Z</time></trkpt><trkpt lat="46.1211304" lon="13.4384086"><ele>330.79999999999995</ele><time>2026-05-02T14:19:07.307Z</time></trkpt><trkpt lat="46.1210597" lon="13.4382528"><ele>332.4</ele><time>2026-05-02T14:19:09.307Z</time></trkpt><trkpt lat="46.1209833" lon="13.4381614"><ele>334.0</ele><time>2026-05-02T14:19:11.308Z</time></trkpt><trkpt lat="46.1208793" lon="13.4381127"><ele>334.0</ele><time>2026-05-02T14:19:13.307Z</time></trkpt><trkpt lat="46.1207879" lon="13.4380983"><ele>334.0</ele><time>2026-05-02T14:19:15.307Z</time></trkpt><trkpt lat="46.1206968" lon="13.4380848"><ele>334.0</ele><time>2026-05-02T14:19:17.308Z</time></trkpt><trkpt lat="46.1206247" lon="13.4379872"><ele>334.0</ele><time>2026-05-02T14:19:19.308Z</time></trkpt><trkpt lat="46.1205827" lon="13.437829"><ele>334.0</ele><time>2026-05-02T14:19:21.307Z</time></trkpt><trkpt lat="46.1205683" lon="13.4376621"><ele>334.4</ele><time>2026-05-02T14:19:23.307Z</time></trkpt><trkpt lat="46.1205661" lon="13.4375149"><ele>334.79999999999995</ele><time>2026-05-02T14:19:25.307Z</time></trkpt><trkpt lat="46.1205605" lon="13.4373546"><ele>335.20000000000005</ele><time>2026-05-02T14:19:27.307Z</time></trkpt><trkpt lat="46.1205178" lon="13.4372052"><ele>335.6</ele><time>2026-05-02T14:19:29.307Z</time></trkpt><trkpt lat="46.1204599" lon="13.4370565"><ele>336.0</ele><time>2026-05-02T14:19:31.308Z</time></trkpt><trkpt lat="46.1204179" lon="13.4369568"><ele>333.1666666666667</ele><time>2026-05-02T14:19:33.307Z</time></trkpt><trkpt lat="46.1203818" lon="13.4368567"><ele>330.3333333333333</ele><time>2026-05-02T14:19:36.308Z</time></trkpt><trkpt lat="46.1203672" lon="13.4367431"><ele>327.5</ele><time>2026-05-02T14:19:39.308Z</time></trkpt><trkpt lat="46.1203515" lon="13.4366437"><ele>324.66666666666663</ele><time>2026-05-02T14:19:41.308Z</time></trkpt><trkpt lat="46.1203331" lon="13.4365235"><ele>321.8333333333333</ele><time>2026-05-02T14:19:44.307Z</time></trkpt><trkpt lat="46.1202954" lon="13.4363868"><ele>319.0</ele><time>2026-05-02T14:19:47.307Z</time></trkpt><trkpt lat="46.1202358" lon="13.4362766"><ele>315.16666666666663</ele><time>2026-05-02T14:19:49.308Z</time></trkpt><trkpt lat="46.1201701" lon="13.4361571"><ele>311.3333333333333</ele><time>2026-05-02T14:19:51.308Z</time></trkpt><trkpt lat="46.1201214" lon="13.4360661"><ele>307.5</ele><time>2026-05-02T14:19:53.307Z</time></trkpt><trkpt lat="46.1200333" lon="13.4360128"><ele>303.6666666666667</ele><time>2026-05-02T14:19:55.308Z</time></trkpt><trkpt lat="46.1199471" lon="13.4360097"><ele>299.83333333333337</ele><time>2026-05-02T14:19:57.307Z</time></trkpt><trkpt lat="46.1198648" lon="13.4360133"><ele>296.0</ele><time>2026-05-02T14:19:59.307Z</time></trkpt><trkpt lat="46.1197906" lon="13.4360379"><ele>293.25</ele><time>2026-05-02T14:20:01.307Z</time></trkpt><trkpt lat="46.1196939" lon="13.4360773"><ele>290.5</ele><time>2026-05-02T14:20:03.308Z</time></trkpt><trkpt lat="46.1195869" lon="13.4361261"><ele>287.75</ele><time>2026-05-02T14:20:05.307Z</time></trkpt><trkpt lat="46.1194744" lon="13.4361671"><ele>285.0</ele><time>2026-05-02T14:20:07.308Z</time></trkpt><trkpt lat="46.1193372" lon="13.4362243"><ele>285.0</ele><time>2026-05-02T14:20:09.308Z</time></trkpt><trkpt lat="46.119261" lon="13.4362573"><ele>285.0</ele><time>2026-05-02T14:20:10.307Z</time></trkpt><trkpt lat="46.1191975" lon="13.4362892"><ele>285.0</ele><time>2026-05-02T14:20:11.308Z</time></trkpt><trkpt lat="46.1191321" lon="13.4363179"><ele>285.0</ele><time>2026-05-02T14:20:12.308Z</time></trkpt><trkpt lat="46.1190663" lon="13.4363326"><ele>285.0</ele><time>2026-05-02T14:20:13.308Z</time></trkpt><trkpt lat="46.1189413" lon="13.4363771"><ele>285.0</ele><time>2026-05-02T14:20:15.307Z</time></trkpt><trkpt lat="46.1188682" lon="13.4364231"><ele>286.1666666666667</ele><time>2026-05-02T14:20:16.307Z</time></trkpt><trkpt lat="46.1188012" lon="13.4364721"><ele>287.3333333333333</ele><time>2026-05-02T14:20:17.308Z</time></trkpt><trkpt lat="46.1187246" lon="13.4365352"><ele>288.5</ele><time>2026-05-02T14:20:19.308Z</time></trkpt><trkpt lat="46.1186342" lon="13.4365559"><ele>289.66666666666663</ele><time>2026-05-02T14:20:21.308Z</time></trkpt><trkpt lat="46.1185533" lon="13.4365688"><ele>290.8333333333333</ele><time>2026-05-02T14:20:22.308Z</time></trkpt><trkpt lat="46.118468" lon="13.4365667"><ele>292.0</ele><time>2026-05-02T14:20:24.307Z</time></trkpt><trkpt lat="46.1183887" lon="13.4365631"><ele>292.0</ele><time>2026-05-02T14:20:26.308Z</time></trkpt><trkpt lat="46.1182893" lon="13.4365446"><ele>292.0</ele><time>2026-05-02T14:20:28.308Z</time></trkpt><trkpt lat="46.1181937" lon="13.4364872"><ele>292.0</ele><time>2026-05-02T14:20:30.308Z</time></trkpt><trkpt lat="46.1181205" lon="13.4364421"><ele>292.0</ele><time>2026-05-02T14:20:31.307Z</time></trkpt><trkpt lat="46.1180126" lon="13.4363798"><ele>292.0</ele><time>2026-05-02T14:20:33.308Z</time></trkpt><trkpt lat="46.117918" lon="13.436322"><ele>289.66666666666663</ele><time>2026-05-02T14:20:35.308Z</time></trkpt><trkpt lat="46.1178552" lon="13.4362981"><ele>287.3333333333333</ele><time>2026-05-02T14:20:36.307Z</time></trkpt><trkpt lat="46.1177887" lon="13.4362717"><ele>285.0</ele><time>2026-05-02T14:20:37.308Z</time></trkpt><trkpt lat="46.1176735" lon="13.4362688"><ele>282.6666666666667</ele><time>2026-05-02T14:20:39.308Z</time></trkpt><trkpt lat="46.1175453" lon="13.4362655"><ele>280.33333333333337</ele><time>2026-05-02T14:20:41.308Z</time></trkpt><trkpt lat="46.1174782" lon="13.4362381"><ele>278.0</ele><time>2026-05-02T14:20:42.307Z</time></trkpt><trkpt lat="46.1174172" lon="13.4361979"><ele>280.33333333333337</ele><time>2026-05-02T14:20:43.307Z</time></trkpt><trkpt lat="46.1173534" lon="13.4361437"><ele>282.6666666666667</ele><time>2026-05-02T14:20:44.307Z</time></trkpt><trkpt lat="46.1172914" lon="13.4360723"><ele>285.0</ele><time>2026-05-02T14:20:45.307Z</time></trkpt><trkpt lat="46.1172341" lon="13.4359938"><ele>287.3333333333333</ele><time>2026-05-02T14:20:46.308Z</time></trkpt><trkpt lat="46.1171747" lon="13.4359088"><ele>289.66666666666663</ele><time>2026-05-02T14:20:47.307Z</time></trkpt><trkpt lat="46.1171297" lon="13.4358287"><ele>292.0</ele><time>2026-05-02T14:20:48.307Z</time></trkpt><trkpt lat="46.1170821" lon="13.4357578"><ele>292.0</ele><time>2026-05-02T14:20:49.308Z</time></trkpt><trkpt lat="46.1170125" lon="13.4356352"><ele>292.0</ele><time>2026-05-02T14:20:51.308Z</time></trkpt><trkpt lat="46.116945" lon="13.4355431"><ele>292.0</ele><time>2026-05-02T14:20:52.308Z</time></trkpt><trkpt lat="46.1168394" lon="13.4354467"><ele>292.0</ele><time>2026-05-02T14:20:54.308Z</time></trkpt><trkpt lat="46.1167783" lon="13.4353954"><ele>292.0</ele><time>2026-05-02T14:20:55.308Z</time></trkpt><trkpt lat="46.1166685" lon="13.4353082"><ele>292.6</ele><time>2026-05-02T14:20:57.307Z</time></trkpt><trkpt lat="46.116605" lon="13.4352563"><ele>293.2</ele><time>2026-05-02T14:20:58.307Z</time></trkpt><trkpt lat="46.1165493" lon="13.4352066"><ele>293.8</ele><time>2026-05-02T14:20:59.307Z</time></trkpt><trkpt lat="46.1164402" lon="13.4351103"><ele>294.4</ele><time>2026-05-02T14:21:01.308Z</time></trkpt><trkpt lat="46.1163348" lon="13.4350373"><ele>295.0</ele><time>2026-05-02T14:21:03.308Z</time></trkpt><trkpt lat="46.1162444" lon="13.434992"><ele>295.0</ele><time>2026-05-02T14:21:04.308Z</time></trkpt><trkpt lat="46.1161182" lon="13.4348928"><ele>295.0</ele><time>2026-05-02T14:21:06.307Z</time></trkpt><trkpt lat="46.1160456" lon="13.4348257"><ele>295.0</ele><time>2026-05-02T14:21:07.307Z</time></trkpt><trkpt lat="46.1159945" lon="13.4347585"><ele>295.0</ele><time>2026-05-02T14:21:08.307Z</time></trkpt><trkpt lat="46.1159321" lon="13.4346685"><ele>295.0</ele><time>2026-05-02T14:21:09.307Z</time></trkpt><trkpt lat="46.1158929" lon="13.4345686"><ele>293.0</ele><time>2026-05-02T14:21:10.308Z</time></trkpt><trkpt lat="46.1158513" lon="13.4344707"><ele>291.0</ele><time>2026-05-02T14:21:11.307Z</time></trkpt><trkpt lat="46.1158126" lon="13.4343559"><ele>289.0</ele><time>2026-05-02T14:21:12.308Z</time></trkpt><trkpt lat="46.1157891" lon="13.4342528"><ele>287.0</ele><time>2026-05-02T14:21:13.307Z</time></trkpt><trkpt lat="46.1157717" lon="13.4341465"><ele>285.0</ele><time>2026-05-02T14:21:14.308Z</time></trkpt><trkpt lat="46.1157452" lon="13.4340511"><ele>283.0</ele><time>2026-05-02T14:21:15.307Z</time></trkpt><trkpt lat="46.1157107" lon="13.4339523"><ele>285.3333333333333</ele><time>2026-05-02T14:21:16.307Z</time></trkpt><trkpt lat="46.115677" lon="13.4338483"><ele>287.66666666666663</ele><time>2026-05-02T14:21:17.308Z</time></trkpt><trkpt lat="46.1156516" lon="13.4337556"><ele>290.0</ele><time>2026-05-02T14:21:18.308Z</time></trkpt><trkpt lat="46.1156208" lon="13.433669"><ele>292.3333333333333</ele><time>2026-05-02T14:21:19.308Z</time></trkpt><trkpt lat="46.1155811" lon="13.4335237"><ele>294.6666666666667</ele><time>2026-05-02T14:21:21.307Z</time></trkpt><trkpt lat="46.1155122" lon="13.4333843"><ele>297.0</ele><time>2026-05-02T14:21:23.308Z</time></trkpt><trkpt lat="46.1154123" lon="13.4332963"><ele>297.0</ele><time>2026-05-02T14:21:25.307Z</time></trkpt><trkpt lat="46.1153486" lon="13.4332713"><ele>297.0</ele><time>2026-05-02T14:21:26.307Z</time></trkpt><trkpt lat="46.1152819" lon="13.4332375"><ele>297.0</ele><time>2026-05-02T14:21:27.308Z</time></trkpt><trkpt lat="46.1151727" lon="13.4331449"><ele>297.0</ele><time>2026-05-02T14:21:29.307Z</time></trkpt><trkpt lat="46.1151244" lon="13.4330745"><ele>297.0</ele><time>2026-05-02T14:21:30.307Z</time></trkpt><trkpt lat="46.1150947" lon="13.4329924"><ele>297.0</ele><time>2026-05-02T14:21:31.307Z</time></trkpt><trkpt lat="46.1150751" lon="13.4328182"><ele>293.8333333333333</ele><time>2026-05-02T14:21:33.308Z</time></trkpt><trkpt lat="46.1150621" lon="13.4327235"><ele>290.6666666666667</ele><time>2026-05-02T14:21:34.307Z</time></trkpt><trkpt lat="46.1150514" lon="13.432545"><ele>287.5</ele><time>2026-05-02T14:21:36.308Z</time></trkpt><trkpt lat="46.1150383" lon="13.4324532"><ele>284.33333333333337</ele><time>2026-05-02T14:21:37.308Z</time></trkpt><trkpt lat="46.1149825" lon="13.4323003"><ele>281.1666666666667</ele><time>2026-05-02T14:21:39.308Z</time></trkpt><trkpt lat="46.1149506" lon="13.4322172"><ele>278.0</ele><time>2026-05-02T14:21:40.308Z</time></trkpt><trkpt lat="46.114907" lon="13.4320054"><ele>277.1666666666667</ele><time>2026-05-02T14:21:42.307Z</time></trkpt><trkpt lat="46.114886" lon="13.4318965"><ele>276.33333333333337</ele><time>2026-05-02T14:21:43.308Z</time></trkpt><trkpt lat="46.1148761" lon="13.431746"><ele>275.5</ele><time>2026-05-02T14:21:45.308Z</time></trkpt><trkpt lat="46.1148707" lon="13.4316285"><ele>274.6666666666667</ele><time>2026-05-02T14:21:46.308Z</time></trkpt><trkpt lat="46.1148953" lon="13.4315289"><ele>273.8333333333333</ele><time>2026-05-02T14:21:47.308Z</time></trkpt><trkpt lat="46.1149295" lon="13.4314128"><ele>273.0</ele><time>2026-05-02T14:21:48.307Z</time></trkpt><trkpt lat="46.1149606" lon="13.4313151"><ele>271.8</ele><time>2026-05-02T14:21:49.307Z</time></trkpt><trkpt lat="46.1149878" lon="13.4311873"><ele>270.6</ele><time>2026-05-02T14:21:50.307Z</time></trkpt><trkpt lat="46.1149996" lon="13.4310821"><ele>269.4</ele><time>2026-05-02T14:21:51.308Z</time></trkpt><trkpt lat="46.1150163" lon="13.4308941"><ele>268.2</ele><time>2026-05-02T14:21:53.308Z</time></trkpt><trkpt lat="46.115026" lon="13.430795"><ele>267.0</ele><time>2026-05-02T14:21:54.308Z</time></trkpt><trkpt lat="46.1150402" lon="13.4306765"><ele>267.0</ele><time>2026-05-02T14:21:55.308Z</time></trkpt><trkpt lat="46.115039" lon="13.4305642"><ele>267.0</ele><time>2026-05-02T14:21:56.308Z</time></trkpt><trkpt lat="46.114995" lon="13.4303761"><ele>267.0</ele><time>2026-05-02T14:21:58.307Z</time></trkpt><trkpt lat="46.1149344" lon="13.4302669"><ele>267.0</ele><time>2026-05-02T14:22:00.307Z</time></trkpt><trkpt lat="46.1148746" lon="13.4302142"><ele>267.0</ele><time>2026-05-02T14:22:01.308Z</time></trkpt><trkpt lat="46.1148105" lon="13.4301929"><ele>267.0</ele><time>2026-05-02T14:22:02.307Z</time></trkpt><trkpt lat="46.1147218" lon="13.43016"><ele>264.6</ele><time>2026-05-02T14:22:04.308Z</time></trkpt><trkpt lat="46.114658" lon="13.4301367"><ele>262.2</ele><time>2026-05-02T14:22:05.308Z</time></trkpt><trkpt lat="46.1145317" lon="13.4301795"><ele>259.8</ele><time>2026-05-02T14:22:07.307Z</time></trkpt><trkpt lat="46.1144578" lon="13.4302042"><ele>257.4</ele><time>2026-05-02T14:22:09.308Z</time></trkpt><trkpt lat="46.1143617" lon="13.4302755"><ele>255.0</ele><time>2026-05-02T14:22:11.307Z</time></trkpt><trkpt lat="46.1143006" lon="13.4303656"><ele>254.2</ele><time>2026-05-02T14:22:12.308Z</time></trkpt><trkpt lat="46.1142149" lon="13.4304809"><ele>253.4</ele><time>2026-05-02T14:22:14.308Z</time></trkpt><trkpt lat="46.1141408" lon="13.43064"><ele>252.60000000000002</ele><time>2026-05-02T14:22:16.307Z</time></trkpt><trkpt lat="46.1140989" lon="13.4307197"><ele>251.8</ele><time>2026-05-02T14:22:17.307Z</time></trkpt><trkpt lat="46.1140606" lon="13.4308052"><ele>251.0</ele><time>2026-05-02T14:22:18.308Z</time></trkpt><trkpt lat="46.1139784" lon="13.4309337"><ele>251.00000000000003</ele><time>2026-05-02T14:22:20.308Z</time></trkpt><trkpt lat="46.1139116" lon="13.4309918"><ele>251.0</ele><time>2026-05-02T14:22:21.307Z</time></trkpt><trkpt lat="46.1138427" lon="13.4310315"><ele>251.0</ele><time>2026-05-02T14:22:22.308Z</time></trkpt><trkpt lat="46.1137373" lon="13.4310726"><ele>251.0</ele><time>2026-05-02T14:22:24.308Z</time></trkpt><trkpt lat="46.1136435" lon="13.4311017"><ele>251.00000000000003</ele><time>2026-05-02T14:22:26.308Z</time></trkpt><trkpt lat="46.1135601" lon="13.4311558"><ele>251.0</ele><time>2026-05-02T14:22:28.308Z</time></trkpt><trkpt lat="46.1134544" lon="13.4312133"><ele>251.0</ele><time>2026-05-02T14:22:30.308Z</time></trkpt><trkpt lat="46.1133804" lon="13.4311642"><ele>251.00000000000003</ele><time>2026-05-02T14:22:32.307Z</time></trkpt><trkpt lat="46.1132937" lon="13.4310697"><ele>251.00000000000003</ele><time>2026-05-02T14:22:35.308Z</time></trkpt><trkpt lat="46.1132058" lon="13.4309898"><ele>251.0</ele><time>2026-05-02T14:22:37.307Z</time></trkpt><trkpt lat="46.1131138" lon="13.4309319"><ele>251.0</ele><time>2026-05-02T14:22:39.308Z</time></trkpt><trkpt lat="46.1130433" lon="13.4309148"><ele>250.8</ele><time>2026-05-02T14:22:40.307Z</time></trkpt><trkpt lat="46.1129358" lon="13.4309078"><ele>250.60000000000002</ele><time>2026-05-02T14:22:42.307Z</time></trkpt><trkpt lat="46.1128196" lon="13.430921"><ele>250.4</ele><time>2026-05-02T14:22:44.307Z</time></trkpt><trkpt lat="46.1127231" lon="13.43093"><ele>250.2</ele><time>2026-05-02T14:22:46.308Z</time></trkpt><trkpt lat="46.1126217" lon="13.4309006"><ele>250.0</ele><time>2026-05-02T14:22:48.308Z</time></trkpt><trkpt lat="46.1125213" lon="13.4308177"><ele>250.0</ele><time>2026-05-02T14:22:50.308Z</time></trkpt><trkpt lat="46.1124517" lon="13.4306858"><ele>250.0</ele><time>2026-05-02T14:22:52.308Z</time></trkpt><trkpt lat="46.1124132" lon="13.4306089"><ele>250.0</ele><time>2026-05-02T14:22:53.308Z</time></trkpt><trkpt lat="46.1123213" lon="13.4304864"><ele>250.0</ele><time>2026-05-02T14:22:55.308Z</time></trkpt><trkpt lat="46.1122256" lon="13.430393"><ele>250.0</ele><time>2026-05-02T14:22:57.307Z</time></trkpt><trkpt lat="46.1121614" lon="13.4303338"><ele>248.8</ele><time>2026-05-02T14:22:58.308Z</time></trkpt><trkpt lat="46.1121101" lon="13.4302806"><ele>247.6</ele><time>2026-05-02T14:22:59.308Z</time></trkpt><trkpt lat="46.1120177" lon="13.4301633"><ele>246.39999999999998</ele><time>2026-05-02T14:23:01.308Z</time></trkpt><trkpt lat="46.1119357" lon="13.4300743"><ele>245.2</ele><time>2026-05-02T14:23:03.307Z</time></trkpt><trkpt lat="46.111834" lon="13.4299502"><ele>244.0</ele><time>2026-05-02T14:23:05.308Z</time></trkpt><trkpt lat="46.1117795" lon="13.4298838"><ele>243.99999999999997</ele><time>2026-05-02T14:23:06.308Z</time></trkpt><trkpt lat="46.1117335" lon="13.4298137"><ele>244.0</ele><time>2026-05-02T14:23:07.308Z</time></trkpt><trkpt lat="46.1116615" lon="13.4297334"><ele>244.0</ele><time>2026-05-02T14:23:08.307Z</time></trkpt><trkpt lat="46.1115865" lon="13.4296599"><ele>244.0</ele><time>2026-05-02T14:23:09.307Z</time></trkpt><trkpt lat="46.1115123" lon="13.4295824"><ele>243.99999999999997</ele><time>2026-05-02T14:23:10.308Z</time></trkpt><trkpt lat="46.1114516" lon="13.4295283"><ele>244.0</ele><time>2026-05-02T14:23:11.308Z</time></trkpt><trkpt lat="46.1113922" lon="13.4294792"><ele>243.16666666666666</ele><time>2026-05-02T14:23:12.307Z</time></trkpt><trkpt lat="46.1113244" lon="13.4294355"><ele>242.33333333333331</ele><time>2026-05-02T14:23:13.307Z</time></trkpt><trkpt lat="46.1112467" lon="13.4293888"><ele>241.5</ele><time>2026-05-02T14:23:14.308Z</time></trkpt><trkpt lat="46.1111758" lon="13.4293381"><ele>240.66666666666669</ele><time>2026-05-02T14:23:15.308Z</time></trkpt><trkpt lat="46.1111025" lon="13.4292827"><ele>239.83333333333334</ele><time>2026-05-02T14:23:16.308Z</time></trkpt><trkpt lat="46.111027" lon="13.429239"><ele>239.0</ele><time>2026-05-02T14:23:17.307Z</time></trkpt><trkpt lat="46.1109528" lon="13.4292073"><ele>239.00000000000003</ele><time>2026-05-02T14:23:18.307Z</time></trkpt><trkpt lat="46.1108818" lon="13.4291598"><ele>239.0</ele><time>2026-05-02T14:23:19.307Z</time></trkpt><trkpt lat="46.1108204" lon="13.429115"><ele>239.0</ele><time>2026-05-02T14:23:20.308Z</time></trkpt><trkpt lat="46.1107341" lon="13.4290025"><ele>239.0</ele><time>2026-05-02T14:23:22.308Z</time></trkpt><trkpt lat="46.1106808" lon="13.4289101"><ele>239.00000000000003</ele><time>2026-05-02T14:23:24.307Z</time></trkpt><trkpt lat="46.1106711" lon="13.4288025"><ele>239.0</ele><time>2026-05-02T14:23:26.308Z</time></trkpt><trkpt lat="46.1106843" lon="13.4286691"><ele>237.83333333333334</ele><time>2026-05-02T14:23:28.307Z</time></trkpt><trkpt lat="46.1107398" lon="13.4286156"><ele>236.66666666666669</ele><time>2026-05-02T14:23:29.307Z</time></trkpt><trkpt lat="46.1108205" lon="13.428549"><ele>235.5</ele><time>2026-05-02T14:23:30.307Z</time></trkpt><trkpt lat="46.1108748" lon="13.4284831"><ele>234.33333333333331</ele><time>2026-05-02T14:23:31.308Z</time></trkpt><trkpt lat="46.1109267" lon="13.4284047"><ele>233.16666666666666</ele><time>2026-05-02T14:23:32.307Z</time></trkpt><trkpt lat="46.1109686" lon="13.4282525"><ele>232.0</ele><time>2026-05-02T14:23:34.307Z</time></trkpt><trkpt lat="46.110959" lon="13.4281451"><ele>231.83333333333331</ele><time>2026-05-02T14:23:36.308Z</time></trkpt><trkpt lat="46.1109038" lon="13.4280497"><ele>231.66666666666666</ele><time>2026-05-02T14:23:37.308Z</time></trkpt><trkpt lat="46.1108288" lon="13.427937"><ele>231.5</ele><time>2026-05-02T14:23:38.307Z</time></trkpt><trkpt lat="46.110776" lon="13.4278263"><ele>231.33333333333331</ele><time>2026-05-02T14:23:39.308Z</time></trkpt><trkpt lat="46.1107435" lon="13.4277132"><ele>231.16666666666666</ele><time>2026-05-02T14:23:40.307Z</time></trkpt><trkpt lat="46.110714" lon="13.4276137"><ele>231.0</ele><time>2026-05-02T14:23:41.308Z</time></trkpt><trkpt lat="46.1106223" lon="13.4274986"><ele>229.42857142857142</ele><time>2026-05-02T14:23:43.307Z</time></trkpt><trkpt lat="46.1105501" lon="13.4274483"><ele>227.85714285714286</ele><time>2026-05-02T14:23:44.307Z</time></trkpt><trkpt lat="46.1104854" lon="13.4274393"><ele>226.28571428571428</ele><time>2026-05-02T14:23:45.307Z</time></trkpt><trkpt lat="46.1104203" lon="13.4274428"><ele>224.71428571428572</ele><time>2026-05-02T14:23:46.307Z</time></trkpt><trkpt lat="46.1103508" lon="13.4274603"><ele>223.14285714285714</ele><time>2026-05-02T14:23:47.307Z</time></trkpt><trkpt lat="46.1102707" lon="13.4274473"><ele>221.57142857142856</ele><time>2026-05-02T14:23:48.307Z</time></trkpt><trkpt lat="46.1102117" lon="13.427413"><ele>220.0</ele><time>2026-05-02T14:23:49.307Z</time></trkpt><trkpt lat="46.1101545" lon="13.427363"><ele>220.0</ele><time>2026-05-02T14:23:50.308Z</time></trkpt><trkpt lat="46.1100825" lon="13.4273031"><ele>220.0</ele><time>2026-05-02T14:23:52.307Z</time></trkpt><trkpt lat="46.1100083" lon="13.4272705"><ele>220.0</ele><time>2026-05-02T14:23:54.307Z</time></trkpt><trkpt lat="46.1099131" lon="13.4272899"><ele>220.0</ele><time>2026-05-02T14:23:57.308Z</time></trkpt><trkpt lat="46.1098142" lon="13.4272291"><ele>220.0</ele><time>2026-05-02T14:23:59.308Z</time></trkpt><trkpt lat="46.109715" lon="13.4271397"><ele>220.33333333333331</ele><time>2026-05-02T14:24:01.307Z</time></trkpt><trkpt lat="46.1096362" lon="13.4270652"><ele>220.66666666666666</ele><time>2026-05-02T14:24:03.307Z</time></trkpt><trkpt lat="46.1095754" lon="13.4270357"><ele>221.0</ele><time>2026-05-02T14:24:06.307Z</time></trkpt><trkpt lat="46.1094933" lon="13.4269931"><ele>221.33333333333331</ele><time>2026-05-02T14:25:07.308Z</time></trkpt><trkpt lat="46.1094173" lon="13.4268917"><ele>221.66666666666666</ele><time>2026-05-02T14:25:09.308Z</time></trkpt><trkpt lat="46.1093691" lon="13.4268259"><ele>222.0</ele><time>2026-05-02T14:25:10.307Z</time></trkpt><trkpt lat="46.1093208" lon="13.4267672"><ele>222.0</ele><time>2026-05-02T14:25:11.308Z</time></trkpt><trkpt lat="46.1092685" lon="13.4267079"><ele>222.0</ele><time>2026-05-02T14:25:12.307Z</time></trkpt><trkpt lat="46.1092052" lon="13.4266044"><ele>222.0</ele><time>2026-05-02T14:25:14.308Z</time></trkpt><trkpt lat="46.1091545" lon="13.4265213"><ele>222.0</ele><time>2026-05-02T14:25:16.308Z</time></trkpt><trkpt lat="46.1091252" lon="13.4264007"><ele>222.0</ele><time>2026-05-02T14:25:18.307Z</time></trkpt><trkpt lat="46.1091144" lon="13.4262742"><ele>222.0</ele><time>2026-05-02T14:25:21.307Z</time></trkpt><trkpt lat="46.109086" lon="13.4261882"><ele>220.83333333333334</ele><time>2026-05-02T14:25:23.307Z</time></trkpt><trkpt lat="46.1090176" lon="13.4261119"><ele>219.66666666666669</ele><time>2026-05-02T14:25:25.308Z</time></trkpt><trkpt lat="46.1089204" lon="13.4260156"><ele>218.5</ele><time>2026-05-02T14:25:27.307Z</time></trkpt><trkpt lat="46.1088544" lon="13.425954"><ele>217.33333333333334</ele><time>2026-05-02T14:25:28.308Z</time></trkpt><trkpt lat="46.1087902" lon="13.425885"><ele>216.16666666666669</ele><time>2026-05-02T14:25:29.307Z</time></trkpt><trkpt lat="46.1087393" lon="13.4258225"><ele>215.0</ele><time>2026-05-02T14:25:30.307Z</time></trkpt><trkpt lat="46.108686" lon="13.4257665"><ele>215.0</ele><time>2026-05-02T14:25:31.307Z</time></trkpt><trkpt lat="46.10861" lon="13.4256933"><ele>215.0</ele><time>2026-05-02T14:25:32.307Z</time></trkpt><trkpt lat="46.1085297" lon="13.4256439"><ele>215.0</ele><time>2026-05-02T14:25:33.308Z</time></trkpt><trkpt lat="46.1084538" lon="13.4256041"><ele>215.0</ele><time>2026-05-02T14:25:34.307Z</time></trkpt><trkpt lat="46.1083868" lon="13.42557"><ele>215.0</ele><time>2026-05-02T14:25:35.308Z</time></trkpt><trkpt lat="46.1082561" lon="13.4254904"><ele>213.8</ele><time>2026-05-02T14:25:37.307Z</time></trkpt><trkpt lat="46.10815" lon="13.4254403"><ele>212.6</ele><time>2026-05-02T14:25:39.307Z</time></trkpt><trkpt lat="46.1080615" lon="13.425361"><ele>211.39999999999998</ele><time>2026-05-02T14:25:41.307Z</time></trkpt><trkpt lat="46.1080135" lon="13.4252604"><ele>210.2</ele><time>2026-05-02T14:25:43.308Z</time></trkpt><trkpt lat="46.107973" lon="13.4251134"><ele>209.0</ele><time>2026-05-02T14:25:45.308Z</time></trkpt><trkpt lat="46.1079238" lon="13.4249802"><ele>209.0</ele><time>2026-05-02T14:25:47.307Z</time></trkpt><trkpt lat="46.1079002" lon="13.4248471"><ele>209.0</ele><time>2026-05-02T14:25:50.308Z</time></trkpt><trkpt lat="46.1078505" lon="13.4247151"><ele>209.0</ele><time>2026-05-02T14:25:52.308Z</time></trkpt><trkpt lat="46.1077904" lon="13.4245901"><ele>209.0</ele><time>2026-05-02T14:25:54.308Z</time></trkpt><trkpt lat="46.1076965" lon="13.42444"><ele>209.0</ele><time>2026-05-02T14:25:56.307Z</time></trkpt><trkpt lat="46.1076107" lon="13.4242759"><ele>209.6</ele><time>2026-05-02T14:25:58.308Z</time></trkpt><trkpt lat="46.1075602" lon="13.4242015"><ele>210.2</ele><time>2026-05-02T14:25:59.308Z</time></trkpt><trkpt lat="46.107478" lon="13.42412"><ele>210.79999999999998</ele><time>2026-05-02T14:26:01.308Z</time></trkpt><trkpt lat="46.1073658" lon="13.4240689"><ele>211.39999999999998</ele><time>2026-05-02T14:26:03.307Z</time></trkpt><trkpt lat="46.1072888" lon="13.4240794"><ele>212.0</ele><time>2026-05-02T14:26:04.308Z</time></trkpt><trkpt lat="46.1072009" lon="13.4240947"><ele>210.5</ele><time>2026-05-02T14:26:05.308Z</time></trkpt><trkpt lat="46.1070749" lon="13.4241123"><ele>209.0</ele><time>2026-05-02T14:26:06.307Z</time></trkpt><trkpt lat="46.1069477" lon="13.4241275"><ele>207.5</ele><time>2026-05-02T14:26:07.307Z</time></trkpt><trkpt lat="46.1068262" lon="13.4241365"><ele>206.0</ele><time>2026-05-02T14:26:08.307Z</time></trkpt><trkpt lat="46.1067232" lon="13.4241533"><ele>206.0</ele><time>2026-05-02T14:26:09.307Z</time></trkpt><trkpt lat="46.1066271" lon="13.4241753"><ele>206.0</ele><time>2026-05-02T14:26:10.307Z</time></trkpt><trkpt lat="46.1065363" lon="13.4242174"><ele>206.0</ele><time>2026-05-02T14:26:11.307Z</time></trkpt><trkpt lat="46.1064527" lon="13.4242716"><ele>206.0</ele><time>2026-05-02T14:26:12.308Z</time></trkpt><trkpt lat="46.1063823" lon="13.4243305"><ele>206.0</ele><time>2026-05-02T14:26:13.307Z</time></trkpt><trkpt lat="46.1063096" lon="13.4243998"><ele>207.20000000000002</ele><time>2026-05-02T14:26:14.307Z</time></trkpt><trkpt lat="46.1062338" lon="13.4244656"><ele>208.4</ele><time>2026-05-02T14:26:15.307Z</time></trkpt><trkpt lat="46.1061455" lon="13.4245207"><ele>209.6</ele><time>2026-05-02T14:26:16.307Z</time></trkpt><trkpt lat="46.1060316" lon="13.4245646"><ele>210.8</ele><time>2026-05-02T14:26:17.307Z</time></trkpt><trkpt lat="46.1059063" lon="13.4246103"><ele>212.0</ele><time>2026-05-02T14:26:18.307Z</time></trkpt><trkpt lat="46.1057944" lon="13.4246599"><ele>212.2</ele><time>2026-05-02T14:26:19.307Z</time></trkpt><trkpt lat="46.1056904" lon="13.4247021"><ele>212.39999999999998</ele><time>2026-05-02T14:26:20.307Z</time></trkpt><trkpt lat="46.1056059" lon="13.4247333"><ele>212.60000000000002</ele><time>2026-05-02T14:26:21.307Z</time></trkpt><trkpt lat="46.1055078" lon="13.4247422"><ele>212.8</ele><time>2026-05-02T14:26:22.308Z</time></trkpt><trkpt lat="46.1054072" lon="13.4247303"><ele>213.0</ele><time>2026-05-02T14:26:23.308Z</time></trkpt><trkpt lat="46.1053043" lon="13.424702"><ele>213.0</ele><time>2026-05-02T14:26:24.307Z</time></trkpt><trkpt lat="46.1052232" lon="13.4246839"><ele>213.0</ele><time>2026-05-02T14:26:25.308Z</time></trkpt><trkpt lat="46.1051363" lon="13.4246608"><ele>213.0</ele><time>2026-05-02T14:26:26.307Z</time></trkpt><trkpt lat="46.1050403" lon="13.4246511"><ele>213.0</ele><time>2026-05-02T14:26:27.307Z</time></trkpt><trkpt lat="46.1049321" lon="13.4246511"><ele>213.0</ele><time>2026-05-02T14:26:28.307Z</time></trkpt><trkpt lat="46.1048093" lon="13.424644"><ele>208.75</ele><time>2026-05-02T14:26:29.307Z</time></trkpt><trkpt lat="46.1046871" lon="13.4246334"><ele>204.5</ele><time>2026-05-02T14:26:30.307Z</time></trkpt><trkpt lat="46.1045672" lon="13.4246094"><ele>200.25</ele><time>2026-05-02T14:26:31.307Z</time></trkpt><trkpt lat="46.1044434" lon="13.4245761"><ele>196.0</ele><time>2026-05-02T14:26:32.307Z</time></trkpt><trkpt lat="46.104325" lon="13.4245512"><ele>196.0</ele><time>2026-05-02T14:26:33.308Z</time></trkpt><trkpt lat="46.1042213" lon="13.4245337"><ele>196.0</ele><time>2026-05-02T14:26:34.308Z</time></trkpt><trkpt lat="46.1041198" lon="13.4245216"><ele>196.0</ele><time>2026-05-02T14:26:35.308Z</time></trkpt><trkpt lat="46.1040307" lon="13.4245043"><ele>196.0</ele><time>2026-05-02T14:26:36.307Z</time></trkpt><trkpt lat="46.1039574" lon="13.4244533"><ele>196.0</ele><time>2026-05-02T14:26:37.308Z</time></trkpt><trkpt lat="46.1038812" lon="13.4244078"><ele>194.83333333333331</ele><time>2026-05-02T14:26:38.308Z</time></trkpt><trkpt lat="46.103797" lon="13.4243839"><ele>193.66666666666666</ele><time>2026-05-02T14:26:39.308Z</time></trkpt><trkpt lat="46.1037085" lon="13.4243834"><ele>192.5</ele><time>2026-05-02T14:26:40.307Z</time></trkpt><trkpt lat="46.1036236" lon="13.4243929"><ele>191.33333333333331</ele><time>2026-05-02T14:26:41.308Z</time></trkpt><trkpt lat="46.1035394" lon="13.4244236"><ele>190.16666666666666</ele><time>2026-05-02T14:26:42.307Z</time></trkpt><trkpt lat="46.1034643" lon="13.4244524"><ele>189.0</ele><time>2026-05-02T14:26:43.307Z</time></trkpt><trkpt lat="46.1033978" lon="13.4244604"><ele>189.0</ele><time>2026-05-02T14:26:44.307Z</time></trkpt><trkpt lat="46.103331" lon="13.4244402"><ele>189.0</ele><time>2026-05-02T14:26:45.307Z</time></trkpt><trkpt lat="46.1032554" lon="13.4244409"><ele>189.0</ele><time>2026-05-02T14:26:46.308Z</time></trkpt><trkpt lat="46.1031885" lon="13.4244671"><ele>189.0</ele><time>2026-05-02T14:26:47.308Z</time></trkpt><trkpt lat="46.1031201" lon="13.4244995"><ele>189.0</ele><time>2026-05-02T14:26:48.308Z</time></trkpt><trkpt lat="46.1030308" lon="13.4245118"><ele>189.0</ele><time>2026-05-02T14:26:49.307Z</time></trkpt><trkpt lat="46.1029277" lon="13.4244767"><ele>187.83333333333334</ele><time>2026-05-02T14:26:50.308Z</time></trkpt><trkpt lat="46.1028417" lon="13.4244327"><ele>186.66666666666666</ele><time>2026-05-02T14:26:51.307Z</time></trkpt><trkpt lat="46.1027601" lon="13.4243874"><ele>185.5</ele><time>2026-05-02T14:26:52.308Z</time></trkpt><trkpt lat="46.1026864" lon="13.4243453"><ele>184.33333333333331</ele><time>2026-05-02T14:26:53.307Z</time></trkpt><trkpt lat="46.1026095" lon="13.4243037"><ele>183.16666666666666</ele><time>2026-05-02T14:26:54.307Z</time></trkpt><trkpt lat="46.1025224" lon="13.4242646"><ele>182.0</ele><time>2026-05-02T14:26:55.307Z</time></trkpt><trkpt lat="46.1024459" lon="13.4242372"><ele>180.66666666666666</ele><time>2026-05-02T14:26:56.308Z</time></trkpt><trkpt lat="46.1023773" lon="13.4242163"><ele>179.33333333333331</ele><time>2026-05-02T14:26:57.307Z</time></trkpt><trkpt lat="46.1022993" lon="13.4242175"><ele>178.0</ele><time>2026-05-02T14:26:58.308Z</time></trkpt><trkpt lat="46.1022319" lon="13.4242185"><ele>176.66666666666666</ele><time>2026-05-02T14:26:59.307Z</time></trkpt><trkpt lat="46.1021583" lon="13.424199"><ele>175.33333333333334</ele><time>2026-05-02T14:27:00.308Z</time></trkpt><trkpt lat="46.1020678" lon="13.4241477"><ele>174.0</ele><time>2026-05-02T14:27:01.308Z</time></trkpt><trkpt lat="46.1019897" lon="13.424103"><ele>174.0</ele><time>2026-05-02T14:27:02.308Z</time></trkpt><trkpt lat="46.1019117" lon="13.4240595"><ele>174.0</ele><time>2026-05-02T14:27:04.308Z</time></trkpt><trkpt lat="46.101848" lon="13.4240441"><ele>174.0</ele><time>2026-05-02T14:27:05.307Z</time></trkpt><trkpt lat="46.1017824" lon="13.4240036"><ele>174.0</ele><time>2026-05-02T14:27:06.307Z</time></trkpt><trkpt lat="46.1017004" lon="13.4239794"><ele>174.0</ele><time>2026-05-02T14:27:07.307Z</time></trkpt><trkpt lat="46.1016169" lon="13.4239523"><ele>174.0</ele><time>2026-05-02T14:27:08.307Z</time></trkpt><trkpt lat="46.1015337" lon="13.4238915"><ele>172.79999999999998</ele><time>2026-05-02T14:27:09.307Z</time></trkpt><trkpt lat="46.1014637" lon="13.4237979"><ele>171.6</ele><time>2026-05-02T14:27:10.307Z</time></trkpt><trkpt lat="46.1013954" lon="13.4236945"><ele>170.4</ele><time>2026-05-02T14:27:11.308Z</time></trkpt><trkpt lat="46.1013206" lon="13.4235971"><ele>169.2</ele><time>2026-05-02T14:27:12.307Z</time></trkpt><trkpt lat="46.1012385" lon="13.4234952"><ele>168.0</ele><time>2026-05-02T14:27:13.307Z</time></trkpt><trkpt lat="46.1011564" lon="13.4234015"><ele>168.0</ele><time>2026-05-02T14:27:14.308Z</time></trkpt><trkpt lat="46.1010694" lon="13.4233372"><ele>168.0</ele><time>2026-05-02T14:27:15.308Z</time></trkpt><trkpt lat="46.1009695" lon="13.4233079"><ele>168.0</ele><time>2026-05-02T14:27:16.307Z</time></trkpt><trkpt lat="46.100873" lon="13.4233337"><ele>168.0</ele><time>2026-05-02T14:27:17.307Z</time></trkpt><trkpt lat="46.1007712" lon="13.423402"><ele>168.0</ele><time>2026-05-02T14:27:18.308Z</time></trkpt><trkpt lat="46.1006896" lon="13.4234816"><ele>164.8</ele><time>2026-05-02T14:27:19.307Z</time></trkpt><trkpt lat="46.1006175" lon="13.4235752"><ele>161.60000000000002</ele><time>2026-05-02T14:27:20.308Z</time></trkpt><trkpt lat="46.1005546" lon="13.4236865"><ele>158.39999999999998</ele><time>2026-05-02T14:27:21.307Z</time></trkpt><trkpt lat="46.1004921" lon="13.4237821"><ele>155.2</ele><time>2026-05-02T14:27:22.307Z</time></trkpt><trkpt lat="46.1004314" lon="13.4238786"><ele>152.0</ele><time>2026-05-02T14:27:23.308Z</time></trkpt><trkpt lat="46.1003773" lon="13.423976"><ele>152.0</ele><time>2026-05-02T14:27:24.308Z</time></trkpt><trkpt lat="46.1003288" lon="13.4240866"><ele>152.0</ele><time>2026-05-02T14:27:25.308Z</time></trkpt><trkpt lat="46.1002886" lon="13.4242205"><ele>152.0</ele><time>2026-05-02T14:27:26.307Z</time></trkpt><trkpt lat="46.1002547" lon="13.4243568"><ele>152.0</ele><time>2026-05-02T14:27:27.307Z</time></trkpt><trkpt lat="46.1002251" lon="13.4245057"><ele>152.0</ele><time>2026-05-02T14:27:28.307Z</time></trkpt><trkpt lat="46.1001942" lon="13.4246638"><ele>151.4</ele><time>2026-05-02T14:27:29.307Z</time></trkpt><trkpt lat="46.1001737" lon="13.4248195"><ele>150.79999999999998</ele><time>2026-05-02T14:27:30.307Z</time></trkpt><trkpt lat="46.1001551" lon="13.4249751"><ele>150.2</ele><time>2026-05-02T14:27:31.308Z</time></trkpt><trkpt lat="46.1001417" lon="13.4251238"><ele>149.6</ele><time>2026-05-02T14:27:32.308Z</time></trkpt><trkpt lat="46.1001224" lon="13.4252682"><ele>149.0</ele><time>2026-05-02T14:27:33.307Z</time></trkpt><trkpt lat="46.1001121" lon="13.425406"><ele>148.6</ele><time>2026-05-02T14:27:34.308Z</time></trkpt><trkpt lat="46.1001159" lon="13.4255501"><ele>148.2</ele><time>2026-05-02T14:27:35.307Z</time></trkpt><trkpt lat="46.1001359" lon="13.4257116"><ele>147.79999999999998</ele><time>2026-05-02T14:27:36.307Z</time></trkpt><trkpt lat="46.1001542" lon="13.4258789"><ele>147.4</ele><time>2026-05-02T14:27:37.308Z</time></trkpt><trkpt lat="46.1001601" lon="13.4260347"><ele>147.0</ele><time>2026-05-02T14:27:38.307Z</time></trkpt><trkpt lat="46.1001474" lon="13.4261849"><ele>145.79999999999998</ele><time>2026-05-02T14:27:39.307Z</time></trkpt><trkpt lat="46.1001201" lon="13.4263316"><ele>144.6</ele><time>2026-05-02T14:27:40.307Z</time></trkpt><trkpt lat="46.1000694" lon="13.426467"><ele>143.39999999999998</ele><time>2026-05-02T14:27:41.308Z</time></trkpt><trkpt lat="46.0999953" lon="13.4265879"><ele>142.2</ele><time>2026-05-02T14:27:42.307Z</time></trkpt><trkpt lat="46.0999128" lon="13.4267021"><ele>141.0</ele><time>2026-05-02T14:27:43.307Z</time></trkpt><trkpt lat="46.0998327" lon="13.4268161"><ele>140.0</ele><time>2026-05-02T14:27:44.308Z</time></trkpt><trkpt lat="46.0997619" lon="13.4269215"><ele>139.0</ele><time>2026-05-02T14:27:45.308Z</time></trkpt><trkpt lat="46.0996919" lon="13.4270092"><ele>138.0</ele><time>2026-05-02T14:27:46.308Z</time></trkpt><trkpt lat="46.0996125" lon="13.4270764"><ele>137.0</ele><time>2026-05-02T14:27:47.307Z</time></trkpt><trkpt lat="46.0995101" lon="13.4271162"><ele>136.0</ele><time>2026-05-02T14:27:48.308Z</time></trkpt><trkpt lat="46.0994121" lon="13.4271392"><ele>136.0</ele><time>2026-05-02T14:27:49.308Z</time></trkpt><trkpt lat="46.0993244" lon="13.427142"><ele>136.0</ele><time>2026-05-02T14:27:50.307Z</time></trkpt><trkpt lat="46.0992289" lon="13.4271196"><ele>136.0</ele><time>2026-05-02T14:27:51.308Z</time></trkpt><trkpt lat="46.0991203" lon="13.4270812"><ele>136.0</ele><time>2026-05-02T14:27:52.307Z</time></trkpt><trkpt lat="46.0989993" lon="13.4270255"><ele>136.0</ele><time>2026-05-02T14:27:53.307Z</time></trkpt><trkpt lat="46.0988806" lon="13.426987"><ele>135.75</ele><time>2026-05-02T14:27:54.308Z</time></trkpt><trkpt lat="46.0987587" lon="13.4269529"><ele>135.5</ele><time>2026-05-02T14:27:55.308Z</time></trkpt><trkpt lat="46.0986489" lon="13.4269164"><ele>135.25</ele><time>2026-05-02T14:27:56.307Z</time></trkpt><trkpt lat="46.0985451" lon="13.4268689"><ele>135.0</ele><time>2026-05-02T14:27:57.307Z</time></trkpt><trkpt lat="46.098444" lon="13.4268207"><ele>135.0</ele><time>2026-05-02T14:27:58.307Z</time></trkpt><trkpt lat="46.0983557" lon="13.4267694"><ele>135.0</ele><time>2026-05-02T14:27:59.308Z</time></trkpt><trkpt lat="46.0982641" lon="13.426709"><ele>135.0</ele><time>2026-05-02T14:28:00.307Z</time></trkpt><trkpt lat="46.0981796" lon="13.4266563"><ele>135.0</ele><time>2026-05-02T14:28:01.308Z</time></trkpt><trkpt lat="46.0981022" lon="13.4266026"><ele>135.0</ele><time>2026-05-02T14:28:02.308Z</time></trkpt><trkpt lat="46.0980249" lon="13.4265519"><ele>135.16666666666666</ele><time>2026-05-02T14:28:03.307Z</time></trkpt><trkpt lat="46.0979476" lon="13.4264959"><ele>135.33333333333334</ele><time>2026-05-02T14:28:04.308Z</time></trkpt><trkpt lat="46.0978753" lon="13.4264415"><ele>135.5</ele><time>2026-05-02T14:28:05.308Z</time></trkpt><trkpt lat="46.0978117" lon="13.4264039"><ele>135.66666666666669</ele><time>2026-05-02T14:28:06.308Z</time></trkpt><trkpt lat="46.0977281" lon="13.4263629"><ele>135.83333333333334</ele><time>2026-05-02T14:28:08.307Z</time></trkpt><trkpt lat="46.0976428" lon="13.426337"><ele>136.0</ele><time>2026-05-02T14:28:14.307Z</time></trkpt><trkpt lat="46.0975594" lon="13.4264534"><ele>136.0</ele><time>2026-05-02T14:28:16.308Z</time></trkpt><trkpt lat="46.0975072" lon="13.4265042"><ele>136.0</ele><time>2026-05-02T14:28:17.307Z</time></trkpt><trkpt lat="46.0974439" lon="13.4265236"><ele>136.0</ele><time>2026-05-02T14:28:18.307Z</time></trkpt><trkpt lat="46.0973612" lon="13.4265567"><ele>136.0</ele><time>2026-05-02T14:28:19.307Z</time></trkpt><trkpt lat="46.0972718" lon="13.4265923"><ele>136.0</ele><time>2026-05-02T14:28:20.308Z</time></trkpt><trkpt lat="46.0971821" lon="13.4266299"><ele>136.0</ele><time>2026-05-02T14:28:21.308Z</time></trkpt><trkpt lat="46.0970863" lon="13.4266678"><ele>135.8</ele><time>2026-05-02T14:28:22.308Z</time></trkpt><trkpt lat="46.0969843" lon="13.4267072"><ele>135.6</ele><time>2026-05-02T14:28:23.308Z</time></trkpt><trkpt lat="46.09688" lon="13.426745"><ele>135.4</ele><time>2026-05-02T14:28:24.307Z</time></trkpt><trkpt lat="46.096778" lon="13.4267888"><ele>135.2</ele><time>2026-05-02T14:28:25.307Z</time></trkpt><trkpt lat="46.0966777" lon="13.4268336"><ele>135.0</ele><time>2026-05-02T14:28:26.308Z</time></trkpt><trkpt lat="46.0965809" lon="13.4268735"><ele>134.83333333333334</ele><time>2026-05-02T14:28:27.308Z</time></trkpt><trkpt lat="46.0964903" lon="13.4269139"><ele>134.66666666666666</ele><time>2026-05-02T14:28:28.307Z</time></trkpt><trkpt lat="46.0964072" lon="13.4269569"><ele>134.5</ele><time>2026-05-02T14:28:29.307Z</time></trkpt><trkpt lat="46.0963365" lon="13.4269959"><ele>134.33333333333331</ele><time>2026-05-02T14:28:30.308Z</time></trkpt><trkpt lat="46.0962752" lon="13.4270336"><ele>134.16666666666666</ele><time>2026-05-02T14:28:31.307Z</time></trkpt><trkpt lat="46.0962143" lon="13.427069"><ele>134.0</ele><time>2026-05-02T14:28:33.308Z</time></trkpt><trkpt lat="46.0961412" lon="13.4271015"><ele>134.0</ele><time>2026-05-02T14:28:36.307Z</time></trkpt><trkpt lat="46.0960738" lon="13.4271201"><ele>134.0</ele><time>2026-05-02T14:28:38.308Z</time></trkpt><trkpt lat="46.0960054" lon="13.4271166"><ele>134.0</ele><time>2026-05-02T14:28:42.308Z</time></trkpt><trkpt lat="46.0959049" lon="13.427041"><ele>134.0</ele><time>2026-05-02T14:28:45.308Z</time></trkpt><trkpt lat="46.0958618" lon="13.4269581"><ele>134.0</ele><time>2026-05-02T14:28:46.307Z</time></trkpt><trkpt lat="46.0958259" lon="13.4268717"><ele>134.0</ele><time>2026-05-02T14:28:47.307Z</time></trkpt><trkpt lat="46.0958065" lon="13.4267696"><ele>134.0</ele><time>2026-05-02T14:28:48.307Z</time></trkpt><trkpt lat="46.0957985" lon="13.4266365"><ele>134.0</ele><time>2026-05-02T14:28:49.307Z</time></trkpt><trkpt lat="46.0957942" lon="13.4264939"><ele>134.0</ele><time>2026-05-02T14:28:50.308Z</time></trkpt><trkpt lat="46.0957924" lon="13.4263498"><ele>134.0</ele><time>2026-05-02T14:28:51.307Z</time></trkpt><trkpt lat="46.0957903" lon="13.4262042"><ele>134.0</ele><time>2026-05-02T14:28:52.308Z</time></trkpt><trkpt lat="46.0957891" lon="13.4260572"><ele>134.0</ele><time>2026-05-02T14:28:53.307Z</time></trkpt><trkpt lat="46.0957854" lon="13.4259105"><ele>134.0</ele><time>2026-05-02T14:28:54.308Z</time></trkpt><trkpt lat="46.0957842" lon="13.4257733"><ele>134.0</ele><time>2026-05-02T14:28:55.307Z</time></trkpt><trkpt lat="46.0957834" lon="13.4256386"><ele>134.0</ele><time>2026-05-02T14:28:56.307Z</time></trkpt><trkpt lat="46.0957835" lon="13.4255137"><ele>134.0</ele><time>2026-05-02T14:28:57.308Z</time></trkpt><trkpt lat="46.0957799" lon="13.4253981"><ele>134.0</ele><time>2026-05-02T14:28:58.308Z</time></trkpt><trkpt lat="46.0957785" lon="13.4252921"><ele>134.0</ele><time>2026-05-02T14:28:59.307Z</time></trkpt><trkpt lat="46.0957798" lon="13.4251916"><ele>134.0</ele><time>2026-05-02T14:29:00.308Z</time></trkpt><trkpt lat="46.0957929" lon="13.4250263"><ele>134.0</ele><time>2026-05-02T14:29:02.308Z</time></trkpt><trkpt lat="46.0958069" lon="13.4249185"><ele>134.0</ele><time>2026-05-02T14:29:05.308Z</time></trkpt><trkpt lat="46.0958245" lon="13.4248088"><ele>134.0</ele><time>2026-05-02T14:29:09.308Z</time></trkpt><trkpt lat="46.0958931" lon="13.4246427"><ele>133.6</ele><time>2026-05-02T14:29:11.308Z</time></trkpt><trkpt lat="46.0959394" lon="13.4245437"><ele>133.2</ele><time>2026-05-02T14:29:12.308Z</time></trkpt><trkpt lat="46.0959533" lon="13.4244455"><ele>132.79999999999998</ele><time>2026-05-02T14:29:13.307Z</time></trkpt><trkpt lat="46.0958987" lon="13.4242924"><ele>132.4</ele><time>2026-05-02T14:29:15.308Z</time></trkpt><trkpt lat="46.0958429" lon="13.4242487"><ele>132.0</ele><time>2026-05-02T14:29:16.308Z</time></trkpt><trkpt lat="46.0957154" lon="13.4242716"><ele>132.0</ele><time>2026-05-02T14:29:18.307Z</time></trkpt><trkpt lat="46.0956342" lon="13.4243027"><ele>132.0</ele><time>2026-05-02T14:29:19.307Z</time></trkpt><trkpt lat="46.0955316" lon="13.4243261"><ele>132.0</ele><time>2026-05-02T14:29:20.308Z</time></trkpt><trkpt lat="46.0954188" lon="13.4243469"><ele>132.0</ele><time>2026-05-02T14:29:21.307Z</time></trkpt><trkpt lat="46.0953106" lon="13.4243544"><ele>132.0</ele><time>2026-05-02T14:29:22.307Z</time></trkpt><trkpt lat="46.0952171" lon="13.4243565"><ele>132.0</ele><time>2026-05-02T14:29:23.307Z</time></trkpt><trkpt lat="46.0951213" lon="13.424359"><ele>132.0</ele><time>2026-05-02T14:29:24.308Z</time></trkpt><trkpt lat="46.0950218" lon="13.4243575"><ele>132.0</ele><time>2026-05-02T14:29:25.307Z</time></trkpt><trkpt lat="46.0949212" lon="13.4243486"><ele>132.0</ele><time>2026-05-02T14:29:26.307Z</time></trkpt><trkpt lat="46.094817" lon="13.424348"><ele>132.0</ele><time>2026-05-02T14:29:27.308Z</time></trkpt><trkpt lat="46.0946911" lon="13.4243658"><ele>132.25</ele><time>2026-05-02T14:29:28.308Z</time></trkpt><trkpt lat="46.094553" lon="13.4243974"><ele>132.5</ele><time>2026-05-02T14:29:29.308Z</time></trkpt><trkpt lat="46.0944049" lon="13.42442"><ele>132.75</ele><time>2026-05-02T14:29:30.308Z</time></trkpt><trkpt lat="46.0942544" lon="13.4244347"><ele>133.0</ele><time>2026-05-02T14:29:31.308Z</time></trkpt><trkpt lat="46.094125" lon="13.4244449"><ele>133.0</ele><time>2026-05-02T14:29:32.307Z</time></trkpt><trkpt lat="46.0939864" lon="13.4244572"><ele>133.0</ele><time>2026-05-02T14:29:33.307Z</time></trkpt><trkpt lat="46.0938445" lon="13.4244694"><ele>133.0</ele><time>2026-05-02T14:29:34.307Z</time></trkpt><trkpt lat="46.093703" lon="13.4244819"><ele>133.0</ele><time>2026-05-02T14:29:35.308Z</time></trkpt><trkpt lat="46.0935556" lon="13.4244904"><ele>133.0</ele><time>2026-05-02T14:29:36.307Z</time></trkpt><trkpt lat="46.0934161" lon="13.4245035"><ele>133.0</ele><time>2026-05-02T14:29:37.308Z</time></trkpt><trkpt lat="46.0932823" lon="13.4245142"><ele>133.0</ele><time>2026-05-02T14:29:38.307Z</time></trkpt><trkpt lat="46.0931556" lon="13.4245179"><ele>133.0</ele><time>2026-05-02T14:29:39.307Z</time></trkpt><trkpt lat="46.0930247" lon="13.4245305"><ele>133.5</ele><time>2026-05-02T14:29:40.307Z</time></trkpt><trkpt lat="46.0928964" lon="13.4245371"><ele>134.0</ele><time>2026-05-02T14:29:41.308Z</time></trkpt><trkpt lat="46.0927748" lon="13.4245517"><ele>134.5</ele><time>2026-05-02T14:29:42.307Z</time></trkpt><trkpt lat="46.0926704" lon="13.4245803"><ele>135.0</ele><time>2026-05-02T14:29:43.307Z</time></trkpt><trkpt lat="46.0925762" lon="13.4246237"><ele>135.0</ele><time>2026-05-02T14:29:44.307Z</time></trkpt><trkpt lat="46.0924893" lon="13.424717"><ele>135.0</ele><time>2026-05-02T14:29:45.308Z</time></trkpt><trkpt lat="46.0923997" lon="13.4248441"><ele>135.0</ele><time>2026-05-02T14:29:46.307Z</time></trkpt><trkpt lat="46.0923031" lon="13.4249867"><ele>135.0</ele><time>2026-05-02T14:29:47.308Z</time></trkpt><trkpt lat="46.0921825" lon="13.4251087"><ele>135.33333333333334</ele><time>2026-05-02T14:29:48.308Z</time></trkpt><trkpt lat="46.0920275" lon="13.4252035"><ele>135.66666666666669</ele><time>2026-05-02T14:29:49.307Z</time></trkpt><trkpt lat="46.0918586" lon="13.4253084"><ele>136.0</ele><time>2026-05-02T14:29:50.307Z</time></trkpt><trkpt lat="46.0916908" lon="13.4254019"><ele>134.66666666666669</ele><time>2026-05-02T14:29:51.307Z</time></trkpt><trkpt lat="46.0915428" lon="13.4254813"><ele>133.33333333333334</ele><time>2026-05-02T14:29:52.308Z</time></trkpt><trkpt lat="46.0913961" lon="13.4255606"><ele>132.0</ele><time>2026-05-02T14:29:53.308Z</time></trkpt><trkpt lat="46.0912504" lon="13.4256357"><ele>132.0</ele><time>2026-05-02T14:29:54.307Z</time></trkpt><trkpt lat="46.0911083" lon="13.4257102"><ele>132.0</ele><time>2026-05-02T14:29:55.308Z</time></trkpt><trkpt lat="46.0909711" lon="13.4257862"><ele>132.0</ele><time>2026-05-02T14:29:56.307Z</time></trkpt><trkpt lat="46.0908337" lon="13.4258604"><ele>132.0</ele><time>2026-05-02T14:29:57.308Z</time></trkpt><trkpt lat="46.0906855" lon="13.4259183"><ele>129.33333333333334</ele><time>2026-05-02T14:29:58.307Z</time></trkpt><trkpt lat="46.0905323" lon="13.4259691"><ele>126.66666666666667</ele><time>2026-05-02T14:29:59.308Z</time></trkpt><trkpt lat="46.090373" lon="13.4260219"><ele>124.0</ele><time>2026-05-02T14:30:00.308Z</time></trkpt><trkpt lat="46.0902037" lon="13.4260688"><ele>124.0</ele><time>2026-05-02T14:30:01.308Z</time></trkpt><trkpt lat="46.0900365" lon="13.4261165"><ele>124.0</ele><time>2026-05-02T14:30:02.307Z</time></trkpt><trkpt lat="46.089864" lon="13.4261737"><ele>124.0</ele><time>2026-05-02T14:30:03.307Z</time></trkpt><trkpt lat="46.0896969" lon="13.4262215"><ele>124.33333333333334</ele><time>2026-05-02T14:30:04.308Z</time></trkpt><trkpt lat="46.0895363" lon="13.4262757"><ele>124.66666666666666</ele><time>2026-05-02T14:30:05.307Z</time></trkpt><trkpt lat="46.0893791" lon="13.4263205"><ele>125.0</ele><time>2026-05-02T14:30:06.308Z</time></trkpt><trkpt lat="46.0892235" lon="13.426356"><ele>125.0</ele><time>2026-05-02T14:30:07.307Z</time></trkpt><trkpt lat="46.089069" lon="13.4263887"><ele>125.0</ele><time>2026-05-02T14:30:08.307Z</time></trkpt><trkpt lat="46.0889098" lon="13.4264023"><ele>125.0</ele><time>2026-05-02T14:30:09.308Z</time></trkpt><trkpt lat="46.0887302" lon="13.4264154"><ele>125.0</ele><time>2026-05-02T14:30:10.307Z</time></trkpt><trkpt lat="46.0885496" lon="13.4264385"><ele>125.0</ele><time>2026-05-02T14:30:11.307Z</time></trkpt><trkpt lat="46.088381" lon="13.4264804"><ele>125.0</ele><time>2026-05-02T14:30:12.308Z</time></trkpt><trkpt lat="46.0882277" lon="13.4265599"><ele>125.33333333333333</ele><time>2026-05-02T14:30:13.307Z</time></trkpt><trkpt lat="46.0880784" lon="13.4266657"><ele>125.66666666666666</ele><time>2026-05-02T14:30:14.307Z</time></trkpt><trkpt lat="46.0879408" lon="13.426799"><ele>126.0</ele><time>2026-05-02T14:30:15.308Z</time></trkpt><trkpt lat="46.0878188" lon="13.4269523"><ele>126.0</ele><time>2026-05-02T14:30:16.308Z</time></trkpt><trkpt lat="46.0877178" lon="13.4271181"><ele>126.0</ele><time>2026-05-02T14:30:17.308Z</time></trkpt><trkpt lat="46.0876328" lon="13.4272942"><ele>126.0</ele><time>2026-05-02T14:30:18.307Z</time></trkpt><trkpt lat="46.0875631" lon="13.4274615"><ele>126.0</ele><time>2026-05-02T14:30:19.307Z</time></trkpt><trkpt lat="46.0875083" lon="13.4276153"><ele>127.4</ele><time>2026-05-02T14:30:20.307Z</time></trkpt><trkpt lat="46.0874496" lon="13.427765"><ele>128.8</ele><time>2026-05-02T14:30:21.308Z</time></trkpt><trkpt lat="46.0873926" lon="13.4278902"><ele>130.20000000000002</ele><time>2026-05-02T14:30:22.307Z</time></trkpt><trkpt lat="46.0873417" lon="13.4280043"><ele>131.6</ele><time>2026-05-02T14:30:23.307Z</time></trkpt><trkpt lat="46.0872978" lon="13.4280896"><ele>133.0</ele><time>2026-05-02T14:30:24.308Z</time></trkpt><trkpt lat="46.0872508" lon="13.4281551"><ele>133.0</ele><time>2026-05-02T14:30:25.308Z</time></trkpt><trkpt lat="46.0872042" lon="13.4282312"><ele>133.0</ele><time>2026-05-02T14:30:26.307Z</time></trkpt><trkpt lat="46.08714" lon="13.4283819"><ele>133.0</ele><time>2026-05-02T14:30:28.307Z</time></trkpt><trkpt lat="46.0871714" lon="13.4284771"><ele>133.0</ele><time>2026-05-02T14:30:29.307Z</time></trkpt><trkpt lat="46.0872234" lon="13.4285535"><ele>133.0</ele><time>2026-05-02T14:30:30.308Z</time></trkpt><trkpt lat="46.087292" lon="13.428632"><ele>133.0</ele><time>2026-05-02T14:30:31.308Z</time></trkpt><trkpt lat="46.0873725" lon="13.4287345"><ele>132.75</ele><time>2026-05-02T14:30:32.308Z</time></trkpt><trkpt lat="46.0874786" lon="13.428863"><ele>132.5</ele><time>2026-05-02T14:30:33.308Z</time></trkpt><trkpt lat="46.0875919" lon="13.4290154"><ele>132.25</ele><time>2026-05-02T14:30:34.307Z</time></trkpt><trkpt lat="46.0877059" lon="13.4291543"><ele>132.0</ele><time>2026-05-02T14:30:35.308Z</time></trkpt><trkpt lat="46.0878063" lon="13.4292999"><ele>132.0</ele><time>2026-05-02T14:30:36.308Z</time></trkpt><trkpt lat="46.0878967" lon="13.4294506"><ele>132.0</ele><time>2026-05-02T14:30:37.307Z</time></trkpt><trkpt lat="46.0879825" lon="13.429616"><ele>132.0</ele><time>2026-05-02T14:30:38.307Z</time></trkpt><trkpt lat="46.0880634" lon="13.4297912"><ele>132.0</ele><time>2026-05-02T14:30:39.308Z</time></trkpt><trkpt lat="46.0881475" lon="13.4299796"><ele>132.0</ele><time>2026-05-02T14:30:40.307Z</time></trkpt><trkpt lat="46.0882247" lon="13.4301672"><ele>132.0</ele><time>2026-05-02T14:30:41.308Z</time></trkpt><trkpt lat="46.0883057" lon="13.4303651"><ele>132.0</ele><time>2026-05-02T14:30:42.307Z</time></trkpt><trkpt lat="46.0883776" lon="13.4305575"><ele>132.5</ele><time>2026-05-02T14:30:43.308Z</time></trkpt><trkpt lat="46.0884532" lon="13.4307414"><ele>133.0</ele><time>2026-05-02T14:30:44.307Z</time></trkpt><trkpt lat="46.0885301" lon="13.4309255"><ele>133.5</ele><time>2026-05-02T14:30:45.307Z</time></trkpt><trkpt lat="46.0886078" lon="13.4311109"><ele>134.0</ele><time>2026-05-02T14:30:46.307Z</time></trkpt><trkpt lat="46.0886841" lon="13.431301"><ele>134.33333333333331</ele><time>2026-05-02T14:30:47.307Z</time></trkpt><trkpt lat="46.0887575" lon="13.4314922"><ele>134.66666666666666</ele><time>2026-05-02T14:30:48.307Z</time></trkpt><trkpt lat="46.0888337" lon="13.4316853"><ele>135.0</ele><time>2026-05-02T14:30:49.307Z</time></trkpt><trkpt lat="46.0889083" lon="13.4318694"><ele>135.0</ele><time>2026-05-02T14:30:50.307Z</time></trkpt><trkpt lat="46.0889783" lon="13.4320495"><ele>135.0</ele><time>2026-05-02T14:30:51.308Z</time></trkpt><trkpt lat="46.089049" lon="13.4322226"><ele>135.0</ele><time>2026-05-02T14:30:52.308Z</time></trkpt><trkpt lat="46.0891102" lon="13.4323824"><ele>135.0</ele><time>2026-05-02T14:30:53.307Z</time></trkpt><trkpt lat="46.0891586" lon="13.432516"><ele>135.0</ele><time>2026-05-02T14:30:54.308Z</time></trkpt><trkpt lat="46.0892022" lon="13.4326219"><ele>135.0</ele><time>2026-05-02T14:30:55.307Z</time></trkpt><trkpt lat="46.089238" lon="13.4327068"><ele>135.0</ele><time>2026-05-02T14:30:56.308Z</time></trkpt><trkpt lat="46.0892918" lon="13.4328294"><ele>135.0</ele><time>2026-05-02T14:30:58.307Z</time></trkpt><trkpt lat="46.0893475" lon="13.4329219"><ele>135.0</ele><time>2026-05-02T14:31:01.307Z</time></trkpt><trkpt lat="46.0893815" lon="13.4330035"><ele>135.0</ele><time>2026-05-02T14:31:04.308Z</time></trkpt><trkpt lat="46.0894341" lon="13.4331361"><ele>135.0</ele><time>2026-05-02T14:31:53.308Z</time></trkpt><trkpt lat="46.0894345" lon="13.4332272"><ele>135.0</ele><time>2026-05-02T14:32:03.307Z</time></trkpt><trkpt lat="46.0894949" lon="13.4334028"><ele>135.0</ele><time>2026-05-02T14:32:05.307Z</time></trkpt><trkpt lat="46.0894967" lon="13.4335379"><ele>135.0</ele><time>2026-05-02T14:32:06.308Z</time></trkpt><trkpt lat="46.0894884" lon="13.4336889"><ele>135.0</ele><time>2026-05-02T14:32:07.308Z</time></trkpt><trkpt lat="46.0894834" lon="13.4338524"><ele>135.5</ele><time>2026-05-02T14:32:08.307Z</time></trkpt><trkpt lat="46.0894824" lon="13.4340485"><ele>136.0</ele><time>2026-05-02T14:32:09.308Z</time></trkpt><trkpt lat="46.0894847" lon="13.4342414"><ele>136.5</ele><time>2026-05-02T14:32:10.308Z</time></trkpt><trkpt lat="46.0894726" lon="13.4344322"><ele>137.0</ele><time>2026-05-02T14:32:11.308Z</time></trkpt><trkpt lat="46.0894609" lon="13.4346243"><ele>137.25</ele><time>2026-05-02T14:32:12.307Z</time></trkpt><trkpt lat="46.0894482" lon="13.4348276"><ele>137.5</ele><time>2026-05-02T14:32:13.307Z</time></trkpt><trkpt lat="46.0894274" lon="13.4350311"><ele>137.75</ele><time>2026-05-02T14:32:14.308Z</time></trkpt><trkpt lat="46.0894159" lon="13.4352451"><ele>138.0</ele><time>2026-05-02T14:32:15.307Z</time></trkpt><trkpt lat="46.0894017" lon="13.43546"><ele>137.5</ele><time>2026-05-02T14:32:16.307Z</time></trkpt><trkpt lat="46.0893869" lon="13.4356792"><ele>137.0</ele><time>2026-05-02T14:32:17.308Z</time></trkpt><trkpt lat="46.0893753" lon="13.4358961"><ele>136.5</ele><time>2026-05-02T14:32:18.308Z</time></trkpt><trkpt lat="46.0893672" lon="13.4360935"><ele>136.0</ele><time>2026-05-02T14:32:19.307Z</time></trkpt><trkpt lat="46.0893556" lon="13.436273"><ele>136.5</ele><time>2026-05-02T14:32:20.308Z</time></trkpt><trkpt lat="46.0893448" lon="13.4364495"><ele>137.0</ele><time>2026-05-02T14:32:21.307Z</time></trkpt><trkpt lat="46.0893339" lon="13.4366226"><ele>137.5</ele><time>2026-05-02T14:32:22.307Z</time></trkpt><trkpt lat="46.0893206" lon="13.436786"><ele>138.0</ele><time>2026-05-02T14:32:23.307Z</time></trkpt><trkpt lat="46.0893176" lon="13.4369314"><ele>138.0</ele><time>2026-05-02T14:32:24.308Z</time></trkpt><trkpt lat="46.089323" lon="13.4370679"><ele>138.0</ele><time>2026-05-02T14:32:25.308Z</time></trkpt><trkpt lat="46.0893209" lon="13.4371961"><ele>138.0</ele><time>2026-05-02T14:32:26.307Z</time></trkpt><trkpt lat="46.089304" lon="13.4373272"><ele>138.0</ele><time>2026-05-02T14:32:27.308Z</time></trkpt><trkpt lat="46.0892849" lon="13.4374482"><ele>138.0</ele><time>2026-05-02T14:32:28.307Z</time></trkpt><trkpt lat="46.0892717" lon="13.4375984"><ele>138.4</ele><time>2026-05-02T14:32:29.307Z</time></trkpt><trkpt lat="46.0892592" lon="13.4377499"><ele>138.8</ele><time>2026-05-02T14:32:30.306Z</time></trkpt><trkpt lat="46.0892301" lon="13.4379057"><ele>139.2</ele><time>2026-05-02T14:32:31.307Z</time></trkpt><trkpt lat="46.089189" lon="13.4380151"><ele>139.6</ele><time>2026-05-02T14:32:32.306Z</time></trkpt><trkpt lat="46.0891626" lon="13.4381034"><ele>140.0</ele><time>2026-05-02T14:32:33.307Z</time></trkpt><trkpt lat="46.0890996" lon="13.4382579"><ele>140.0</ele><time>2026-05-02T14:32:35.306Z</time></trkpt><trkpt lat="46.0890778" lon="13.4383489"><ele>140.0</ele><time>2026-05-02T14:32:36.306Z</time></trkpt><trkpt lat="46.0891212" lon="13.438513"><ele>140.0</ele><time>2026-05-02T14:32:38.306Z</time></trkpt><trkpt lat="46.0892098" lon="13.4385533"><ele>140.0</ele><time>2026-05-02T14:32:39.307Z</time></trkpt><trkpt lat="46.0893172" lon="13.4386038"><ele>140.0</ele><time>2026-05-02T14:32:40.307Z</time></trkpt><trkpt lat="46.0894294" lon="13.4386399"><ele>140.0</ele><time>2026-05-02T14:32:41.306Z</time></trkpt><trkpt lat="46.0895457" lon="13.4386397"><ele>140.0</ele><time>2026-05-02T14:32:42.306Z</time></trkpt><trkpt lat="46.0896552" lon="13.438609"><ele>140.0</ele><time>2026-05-02T14:32:43.306Z</time></trkpt><trkpt lat="46.0897487" lon="13.4385741"><ele>140.0</ele><time>2026-05-02T14:32:44.306Z</time></trkpt><trkpt lat="46.0898262" lon="13.4385643"><ele>140.0</ele><time>2026-05-02T14:32:45.306Z</time></trkpt><trkpt lat="46.0898997" lon="13.438593"><ele>140.0</ele><time>2026-05-02T14:32:46.306Z</time></trkpt><trkpt lat="46.0899743" lon="13.4386763"><ele>140.0</ele><time>2026-05-02T14:32:47.306Z</time></trkpt><trkpt lat="46.0900238" lon="13.4387945"><ele>140.0</ele><time>2026-05-02T14:32:48.306Z</time></trkpt><trkpt lat="46.0900858" lon="13.4389763"><ele>140.0</ele><time>2026-05-02T14:32:49.306Z</time></trkpt><trkpt lat="46.0901524" lon="13.4391691"><ele>139.66666666666666</ele><time>2026-05-02T14:32:50.307Z</time></trkpt><trkpt lat="46.0902157" lon="13.4393724"><ele>139.33333333333334</ele><time>2026-05-02T14:32:51.307Z</time></trkpt><trkpt lat="46.0902755" lon="13.4395793"><ele>139.0</ele><time>2026-05-02T14:32:52.306Z</time></trkpt><trkpt lat="46.0903293" lon="13.4398016"><ele>139.0</ele><time>2026-05-02T14:32:53.306Z</time></trkpt><trkpt lat="46.0903898" lon="13.4400213"><ele>139.0</ele><time>2026-05-02T14:32:54.307Z</time></trkpt><trkpt lat="46.0904527" lon="13.4402456"><ele>139.0</ele><time>2026-05-02T14:32:55.307Z</time></trkpt><trkpt lat="46.0905122" lon="13.4404845"><ele>138.33333333333334</ele><time>2026-05-02T14:32:56.306Z</time></trkpt><trkpt lat="46.0905647" lon="13.440739"><ele>137.66666666666666</ele><time>2026-05-02T14:32:57.307Z</time></trkpt><trkpt lat="46.0906163" lon="13.4409937"><ele>137.0</ele><time>2026-05-02T14:32:58.307Z</time></trkpt><trkpt lat="46.0906641" lon="13.4412463"><ele>137.0</ele><time>2026-05-02T14:32:59.306Z</time></trkpt><trkpt lat="46.0907146" lon="13.4414892"><ele>137.0</ele><time>2026-05-02T14:33:00.306Z</time></trkpt><trkpt lat="46.0907633" lon="13.4417129"><ele>137.0</ele><time>2026-05-02T14:33:01.307Z</time></trkpt><trkpt lat="46.0908103" lon="13.4419243"><ele>137.25</ele><time>2026-05-02T14:33:02.306Z</time></trkpt><trkpt lat="46.0908496" lon="13.4421321"><ele>137.5</ele><time>2026-05-02T14:33:03.306Z</time></trkpt><trkpt lat="46.0908934" lon="13.442336"><ele>137.75</ele><time>2026-05-02T14:33:04.307Z</time></trkpt><trkpt lat="46.0909409" lon="13.4425408"><ele>138.0</ele><time>2026-05-02T14:33:05.306Z</time></trkpt><trkpt lat="46.0909922" lon="13.4427449"><ele>138.0</ele><time>2026-05-02T14:33:06.307Z</time></trkpt><trkpt lat="46.0910531" lon="13.4429495"><ele>138.0</ele><time>2026-05-02T14:33:07.307Z</time></trkpt><trkpt lat="46.0911158" lon="13.4431478"><ele>138.0</ele><time>2026-05-02T14:33:08.306Z</time></trkpt><trkpt lat="46.0911833" lon="13.4433457"><ele>138.0</ele><time>2026-05-02T14:33:09.306Z</time></trkpt><trkpt lat="46.0912464" lon="13.4435403"><ele>138.0</ele><time>2026-05-02T14:33:10.306Z</time></trkpt><trkpt lat="46.0913058" lon="13.4437305"><ele>138.0</ele><time>2026-05-02T14:33:11.306Z</time></trkpt><trkpt lat="46.0913616" lon="13.4439197"><ele>138.0</ele><time>2026-05-02T14:33:12.307Z</time></trkpt><trkpt lat="46.0914103" lon="13.4441206"><ele>138.0</ele><time>2026-05-02T14:33:13.307Z</time></trkpt><trkpt lat="46.0914566" lon="13.4443137"><ele>138.0</ele><time>2026-05-02T14:33:14.306Z</time></trkpt><trkpt lat="46.0914941" lon="13.4445149"><ele>138.0</ele><time>2026-05-02T14:33:15.306Z</time></trkpt><trkpt lat="46.0915318" lon="13.4447224"><ele>138.0</ele><time>2026-05-02T14:33:16.306Z</time></trkpt><trkpt lat="46.091564" lon="13.4449298"><ele>138.5</ele><time>2026-05-02T14:33:17.307Z</time></trkpt><trkpt lat="46.0915883" lon="13.4451317"><ele>139.0</ele><time>2026-05-02T14:33:18.307Z</time></trkpt><trkpt lat="46.0916065" lon="13.4453344"><ele>139.5</ele><time>2026-05-02T14:33:19.307Z</time></trkpt><trkpt lat="46.0916268" lon="13.4455322"><ele>140.0</ele><time>2026-05-02T14:33:20.307Z</time></trkpt><trkpt lat="46.0916498" lon="13.4457259"><ele>140.25</ele><time>2026-05-02T14:33:21.307Z</time></trkpt><trkpt lat="46.091679" lon="13.4459015"><ele>140.5</ele><time>2026-05-02T14:33:22.307Z</time></trkpt><trkpt lat="46.0917176" lon="13.4460689"><ele>140.75</ele><time>2026-05-02T14:33:23.306Z</time></trkpt><trkpt lat="46.0917642" lon="13.4462185"><ele>141.0</ele><time>2026-05-02T14:33:24.306Z</time></trkpt><trkpt lat="46.09181" lon="13.4463754"><ele>141.25</ele><time>2026-05-02T14:33:25.307Z</time></trkpt><trkpt lat="46.0918477" lon="13.4465335"><ele>141.5</ele><time>2026-05-02T14:33:26.307Z</time></trkpt><trkpt lat="46.0918823" lon="13.4467097"><ele>141.75</ele><time>2026-05-02T14:33:27.306Z</time></trkpt><trkpt lat="46.0919089" lon="13.4469109"><ele>142.0</ele><time>2026-05-02T14:33:28.306Z</time></trkpt><trkpt lat="46.0919535" lon="13.4471202"><ele>142.75</ele><time>2026-05-02T14:33:29.307Z</time></trkpt><trkpt lat="46.0920191" lon="13.4473319"><ele>143.5</ele><time>2026-05-02T14:33:30.307Z</time></trkpt><trkpt lat="46.0920859" lon="13.4475318"><ele>144.25</ele><time>2026-05-02T14:33:31.307Z</time></trkpt><trkpt lat="46.0921396" lon="13.4477059"><ele>145.0</ele><time>2026-05-02T14:33:32.306Z</time></trkpt><trkpt lat="46.0921979" lon="13.4478696"><ele>146.0</ele><time>2026-05-02T14:33:33.307Z</time></trkpt><trkpt lat="46.0922434" lon="13.4480218"><ele>147.0</ele><time>2026-05-02T14:33:34.307Z</time></trkpt><trkpt lat="46.0922829" lon="13.448172"><ele>148.0</ele><time>2026-05-02T14:33:35.307Z</time></trkpt><trkpt lat="46.0923153" lon="13.4483227"><ele>149.0</ele><time>2026-05-02T14:33:36.306Z</time></trkpt><trkpt lat="46.0923152" lon="13.4484849"><ele>150.0</ele><time>2026-05-02T14:33:37.307Z</time></trkpt><trkpt lat="46.0922863" lon="13.4486478"><ele>150.5</ele><time>2026-05-02T14:33:38.307Z</time></trkpt><trkpt lat="46.0922412" lon="13.4488239"><ele>151.0</ele><time>2026-05-02T14:33:39.306Z</time></trkpt><trkpt lat="46.0921972" lon="13.4489912"><ele>151.5</ele><time>2026-05-02T14:33:40.307Z</time></trkpt><trkpt lat="46.0921589" lon="13.4491588"><ele>152.0</ele><time>2026-05-02T14:33:41.306Z</time></trkpt><trkpt lat="46.0921362" lon="13.4492965"><ele>152.0</ele><time>2026-05-02T14:33:42.306Z</time></trkpt><trkpt lat="46.0921239" lon="13.4494008"><ele>152.0</ele><time>2026-05-02T14:33:43.307Z</time></trkpt><trkpt lat="46.0921137" lon="13.4495256"><ele>152.0</ele><time>2026-05-02T14:33:44.307Z</time></trkpt><trkpt lat="46.0921008" lon="13.449662"><ele>152.0</ele><time>2026-05-02T14:33:45.307Z</time></trkpt><trkpt lat="46.0920814" lon="13.4497994"><ele>152.0</ele><time>2026-05-02T14:33:46.306Z</time></trkpt><trkpt lat="46.0920564" lon="13.4499409"><ele>153.2</ele><time>2026-05-02T14:33:47.306Z</time></trkpt><trkpt lat="46.0920381" lon="13.4500902"><ele>154.39999999999998</ele><time>2026-05-02T14:33:48.307Z</time></trkpt><trkpt lat="46.0920145" lon="13.4502463"><ele>155.60000000000002</ele><time>2026-05-02T14:33:49.306Z</time></trkpt><trkpt lat="46.0919856" lon="13.4503668"><ele>156.8</ele><time>2026-05-02T14:33:50.306Z</time></trkpt><trkpt lat="46.0919452" lon="13.4505357"><ele>158.0</ele><time>2026-05-02T14:33:52.307Z</time></trkpt><trkpt lat="46.0919169" lon="13.4506566"><ele>160.0</ele><time>2026-05-02T14:33:53.306Z</time></trkpt><trkpt lat="46.0919047" lon="13.4508253"><ele>162.0</ele><time>2026-05-02T14:33:54.306Z</time></trkpt><trkpt lat="46.0918829" lon="13.4510112"><ele>164.0</ele><time>2026-05-02T14:33:55.306Z</time></trkpt><trkpt lat="46.0918552" lon="13.4512137"><ele>166.0</ele><time>2026-05-02T14:33:56.306Z</time></trkpt><trkpt lat="46.0918208" lon="13.4514136"><ele>167.0</ele><time>2026-05-02T14:33:57.306Z</time></trkpt><trkpt lat="46.0917809" lon="13.4516191"><ele>168.0</ele><time>2026-05-02T14:33:58.307Z</time></trkpt><trkpt lat="46.0917471" lon="13.451813"><ele>169.0</ele><time>2026-05-02T14:33:59.307Z</time></trkpt><trkpt lat="46.0917348" lon="13.4520074"><ele>170.0</ele><time>2026-05-02T14:34:00.306Z</time></trkpt><trkpt lat="46.0917642" lon="13.4522132"><ele>170.0</ele><time>2026-05-02T14:34:01.307Z</time></trkpt><trkpt lat="46.0918282" lon="13.4524207"><ele>170.0</ele><time>2026-05-02T14:34:02.307Z</time></trkpt><trkpt lat="46.0919099" lon="13.4526635"><ele>170.0</ele><time>2026-05-02T14:34:03.307Z</time></trkpt><trkpt lat="46.0919923" lon="13.4529133"><ele>169.0</ele><time>2026-05-02T14:34:04.306Z</time></trkpt><trkpt lat="46.0920561" lon="13.4531712"><ele>168.0</ele><time>2026-05-02T14:34:05.306Z</time></trkpt><trkpt lat="46.0921034" lon="13.4534278"><ele>167.0</ele><time>2026-05-02T14:34:06.306Z</time></trkpt><trkpt lat="46.0921234" lon="13.4536834"><ele>168.0</ele><time>2026-05-02T14:34:07.306Z</time></trkpt><trkpt lat="46.0921258" lon="13.453948"><ele>169.0</ele><time>2026-05-02T14:34:08.306Z</time></trkpt><trkpt lat="46.0921234" lon="13.4542279"><ele>170.0</ele><time>2026-05-02T14:34:09.306Z</time></trkpt><trkpt lat="46.0921189" lon="13.4545188"><ele>172.33333333333331</ele><time>2026-05-02T14:34:10.307Z</time></trkpt><trkpt lat="46.0921171" lon="13.4547899"><ele>174.66666666666666</ele><time>2026-05-02T14:34:11.307Z</time></trkpt><trkpt lat="46.0921014" lon="13.455062"><ele>177.0</ele><time>2026-05-02T14:34:12.307Z</time></trkpt><trkpt lat="46.0920676" lon="13.455346"><ele>180.0</ele><time>2026-05-02T14:34:13.306Z</time></trkpt><trkpt lat="46.0920319" lon="13.4556438"><ele>183.0</ele><time>2026-05-02T14:34:14.306Z</time></trkpt><trkpt lat="46.0919944" lon="13.4559365"><ele>186.0</ele><time>2026-05-02T14:34:15.306Z</time></trkpt><trkpt lat="46.0919555" lon="13.4562279"><ele>189.0</ele><time>2026-05-02T14:34:16.306Z</time></trkpt><trkpt lat="46.0919132" lon="13.4564921"><ele>192.0</ele><time>2026-05-02T14:34:17.307Z</time></trkpt><trkpt lat="46.0918718" lon="13.4567431"><ele>195.0</ele><time>2026-05-02T14:34:18.306Z</time></trkpt><trkpt lat="46.0918373" lon="13.4569812"><ele>195.66666666666669</ele><time>2026-05-02T14:34:19.306Z</time></trkpt><trkpt lat="46.0918197" lon="13.4572234"><ele>196.33333333333334</ele><time>2026-05-02T14:34:20.307Z</time></trkpt><trkpt lat="46.0918098" lon="13.4574769"><ele>197.0</ele><time>2026-05-02T14:34:21.306Z</time></trkpt><trkpt lat="46.0918022" lon="13.4577347"><ele>199.66666666666669</ele><time>2026-05-02T14:34:22.306Z</time></trkpt><trkpt lat="46.0917927" lon="13.457988"><ele>202.33333333333331</ele><time>2026-05-02T14:34:23.307Z</time></trkpt><trkpt lat="46.0917673" lon="13.4582302"><ele>205.0</ele><time>2026-05-02T14:34:24.306Z</time></trkpt><trkpt lat="46.0917238" lon="13.4584607"><ele>205.0</ele><time>2026-05-02T14:34:25.307Z</time></trkpt><trkpt lat="46.0916668" lon="13.4587011"><ele>205.0</ele><time>2026-05-02T14:34:26.307Z</time></trkpt><trkpt lat="46.0916141" lon="13.45893"><ele>205.0</ele><time>2026-05-02T14:34:27.307Z</time></trkpt><trkpt lat="46.0915492" lon="13.4591372"><ele>203.66666666666666</ele><time>2026-05-02T14:34:28.307Z</time></trkpt><trkpt lat="46.0914757" lon="13.4593236"><ele>202.33333333333331</ele><time>2026-05-02T14:34:29.306Z</time></trkpt><trkpt lat="46.091397" lon="13.4595022"><ele>201.0</ele><time>2026-05-02T14:34:30.307Z</time></trkpt><trkpt lat="46.0913343" lon="13.4597057"><ele>201.0</ele><time>2026-05-02T14:34:31.307Z</time></trkpt><trkpt lat="46.0912872" lon="13.4599315"><ele>201.0</ele><time>2026-05-02T14:34:32.306Z</time></trkpt><trkpt lat="46.091241" lon="13.4601736"><ele>201.0</ele><time>2026-05-02T14:34:33.307Z</time></trkpt><trkpt lat="46.0911796" lon="13.4604363"><ele>204.66666666666669</ele><time>2026-05-02T14:34:34.306Z</time></trkpt><trkpt lat="46.0911189" lon="13.4607107"><ele>208.33333333333334</ele><time>2026-05-02T14:34:35.306Z</time></trkpt><trkpt lat="46.0910621" lon="13.4609659"><ele>212.0</ele><time>2026-05-02T14:34:36.307Z</time></trkpt><trkpt lat="46.0910021" lon="13.4612065"><ele>215.33333333333334</ele><time>2026-05-02T14:34:37.306Z</time></trkpt><trkpt lat="46.0909423" lon="13.4614414"><ele>218.66666666666669</ele><time>2026-05-02T14:34:38.306Z</time></trkpt><trkpt lat="46.0908668" lon="13.4616514"><ele>222.0</ele><time>2026-05-02T14:34:39.306Z</time></trkpt><trkpt lat="46.0907874" lon="13.4618453"><ele>223.25</ele><time>2026-05-02T14:34:40.306Z</time></trkpt><trkpt lat="46.0907512" lon="13.4620597"><ele>224.5</ele><time>2026-05-02T14:34:41.306Z</time></trkpt><trkpt lat="46.0907386" lon="13.4622824"><ele>225.75</ele><time>2026-05-02T14:34:42.307Z</time></trkpt><trkpt lat="46.0907508" lon="13.4624732"><ele>227.0</ele><time>2026-05-02T14:34:43.307Z</time></trkpt><trkpt lat="46.0907665" lon="13.4626025"><ele>231.6</ele><time>2026-05-02T14:34:44.307Z</time></trkpt><trkpt lat="46.0907492" lon="13.4626992"><ele>236.2</ele><time>2026-05-02T14:34:45.306Z</time></trkpt><trkpt lat="46.090693" lon="13.4627529"><ele>240.8</ele><time>2026-05-02T14:34:46.306Z</time></trkpt><trkpt lat="46.0905741" lon="13.4626547"><ele>245.4</ele><time>2026-05-02T14:34:48.307Z</time></trkpt><trkpt lat="46.0905545" lon="13.4625162"><ele>250.0</ele><time>2026-05-02T14:34:49.306Z</time></trkpt><trkpt lat="46.0905462" lon="13.4623449"><ele>250.0</ele><time>2026-05-02T14:34:50.307Z</time></trkpt><trkpt lat="46.0904967" lon="13.4621936"><ele>250.0</ele><time>2026-05-02T14:34:51.306Z</time></trkpt><trkpt lat="46.0904235" lon="13.4621038"><ele>250.0</ele><time>2026-05-02T14:34:52.306Z</time></trkpt><trkpt lat="46.0903494" lon="13.4620945"><ele>250.0</ele><time>2026-05-02T14:34:53.307Z</time></trkpt><trkpt lat="46.0902891" lon="13.4621492"><ele>250.0</ele><time>2026-05-02T14:34:54.307Z</time></trkpt><trkpt lat="46.0903372" lon="13.4623303"><ele>250.0</ele><time>2026-05-02T14:34:56.306Z</time></trkpt><trkpt lat="46.0903926" lon="13.4624507"><ele>250.0</ele><time>2026-05-02T14:34:57.307Z</time></trkpt><trkpt lat="46.0904465" lon="13.4625521"><ele>250.0</ele><time>2026-05-02T14:34:58.307Z</time></trkpt><trkpt lat="46.0904548" lon="13.4626729"><ele>250.0</ele><time>2026-05-02T14:34:59.306Z</time></trkpt><trkpt lat="46.0903807" lon="13.462884"><ele>250.0</ele><time>2026-05-02T14:35:00.306Z</time></trkpt><trkpt lat="46.0903062" lon="13.4630848"><ele>252.33333333333331</ele><time>2026-05-02T14:35:01.306Z</time></trkpt><trkpt lat="46.0902265" lon="13.4632813"><ele>254.66666666666669</ele><time>2026-05-02T14:35:02.307Z</time></trkpt><trkpt lat="46.0901188" lon="13.4634471"><ele>257.0</ele><time>2026-05-02T14:35:03.306Z</time></trkpt><trkpt lat="46.0899987" lon="13.4635981"><ele>260.8</ele><time>2026-05-02T14:35:04.307Z</time></trkpt><trkpt lat="46.0899128" lon="13.4637432"><ele>264.6</ele><time>2026-05-02T14:35:05.307Z</time></trkpt><trkpt lat="46.0898919" lon="13.4638967"><ele>268.40000000000003</ele><time>2026-05-02T14:35:06.307Z</time></trkpt><trkpt lat="46.0898814" lon="13.4640451"><ele>272.2</ele><time>2026-05-02T14:35:07.307Z</time></trkpt><trkpt lat="46.0898402" lon="13.4641427"><ele>276.0</ele><time>2026-05-02T14:35:08.307Z</time></trkpt><trkpt lat="46.08972" lon="13.4640869"><ele>276.0</ele><time>2026-05-02T14:35:10.306Z</time></trkpt><trkpt lat="46.0897079" lon="13.4639516"><ele>276.0</ele><time>2026-05-02T14:35:11.307Z</time></trkpt><trkpt lat="46.0897354" lon="13.4637864"><ele>276.0</ele><time>2026-05-02T14:35:12.306Z</time></trkpt><trkpt lat="46.0897731" lon="13.4636112"><ele>276.0</ele><time>2026-05-02T14:35:13.306Z</time></trkpt><trkpt lat="46.0897987" lon="13.4634112"><ele>276.0</ele><time>2026-05-02T14:35:14.307Z</time></trkpt><trkpt lat="46.0897843" lon="13.4632321"><ele>276.0</ele><time>2026-05-02T14:35:15.306Z</time></trkpt><trkpt lat="46.0897515" lon="13.4630957"><ele>276.0</ele><time>2026-05-02T14:35:16.307Z</time></trkpt><trkpt lat="46.0896794" lon="13.4629703"><ele>276.0</ele><time>2026-05-02T14:35:17.307Z</time></trkpt><trkpt lat="46.0895693" lon="13.4628755"><ele>272.75</ele><time>2026-05-02T14:35:18.306Z</time></trkpt><trkpt lat="46.089446" lon="13.4627841"><ele>269.5</ele><time>2026-05-02T14:35:19.307Z</time></trkpt><trkpt lat="46.0893297" lon="13.4626927"><ele>266.25</ele><time>2026-05-02T14:35:20.306Z</time></trkpt><trkpt lat="46.0892353" lon="13.4626421"><ele>263.0</ele><time>2026-05-02T14:35:21.307Z</time></trkpt><trkpt lat="46.0891274" lon="13.4626679"><ele>262.2</ele><time>2026-05-02T14:35:22.306Z</time></trkpt><trkpt lat="46.0890272" lon="13.4627369"><ele>261.4</ele><time>2026-05-02T14:35:23.306Z</time></trkpt><trkpt lat="46.0889448" lon="13.4628408"><ele>260.59999999999997</ele><time>2026-05-02T14:35:24.306Z</time></trkpt><trkpt lat="46.0888958" lon="13.4629717"><ele>259.8</ele><time>2026-05-02T14:35:25.307Z</time></trkpt><trkpt lat="46.0888926" lon="13.463111"><ele>259.0</ele><time>2026-05-02T14:35:26.306Z</time></trkpt><trkpt lat="46.0889299" lon="13.4632347"><ele>263.25</ele><time>2026-05-02T14:35:27.307Z</time></trkpt><trkpt lat="46.08902" lon="13.4633186"><ele>267.5</ele><time>2026-05-02T14:35:28.307Z</time></trkpt><trkpt lat="46.0891241" lon="13.4633909"><ele>271.75</ele><time>2026-05-02T14:35:29.306Z</time></trkpt><trkpt lat="46.0892138" lon="13.4635083"><ele>276.0</ele><time>2026-05-02T14:35:30.306Z</time></trkpt><trkpt lat="46.0892577" lon="13.4636915"><ele>278.5</ele><time>2026-05-02T14:35:31.306Z</time></trkpt><trkpt lat="46.0892676" lon="13.4638818"><ele>281.0</ele><time>2026-05-02T14:35:32.307Z</time></trkpt><trkpt lat="46.0892532" lon="13.4640832"><ele>283.5</ele><time>2026-05-02T14:35:33.307Z</time></trkpt><trkpt lat="46.0892209" lon="13.4642705"><ele>286.0</ele><time>2026-05-02T14:35:34.307Z</time></trkpt><trkpt lat="46.0891425" lon="13.464479"><ele>290.0</ele><time>2026-05-02T14:35:35.307Z</time></trkpt><trkpt lat="46.0890456" lon="13.4646981"><ele>294.0</ele><time>2026-05-02T14:35:36.307Z</time></trkpt><trkpt lat="46.0889415" lon="13.4648954"><ele>298.0</ele><time>2026-05-02T14:35:37.306Z</time></trkpt><trkpt lat="46.0888004" lon="13.4650502"><ele>298.0</ele><time>2026-05-02T14:35:38.307Z</time></trkpt><trkpt lat="46.0886571" lon="13.4651755"><ele>298.0</ele><time>2026-05-02T14:35:39.307Z</time></trkpt><trkpt lat="46.0885124" lon="13.4652843"><ele>298.0</ele><time>2026-05-02T14:35:40.307Z</time></trkpt><trkpt lat="46.0883673" lon="13.4653741"><ele>301.5</ele><time>2026-05-02T14:35:41.306Z</time></trkpt><trkpt lat="46.0882437" lon="13.4654746"><ele>305.0</ele><time>2026-05-02T14:35:42.307Z</time></trkpt><trkpt lat="46.0881256" lon="13.4655862"><ele>308.5</ele><time>2026-05-02T14:35:43.307Z</time></trkpt><trkpt lat="46.0880144" lon="13.4657165"><ele>312.0</ele><time>2026-05-02T14:35:44.306Z</time></trkpt><trkpt lat="46.0879136" lon="13.4658434"><ele>312.0</ele><time>2026-05-02T14:35:45.306Z</time></trkpt><trkpt lat="46.0878073" lon="13.4659739"><ele>312.0</ele><time>2026-05-02T14:35:46.307Z</time></trkpt><trkpt lat="46.0876932" lon="13.4661051"><ele>312.0</ele><time>2026-05-02T14:35:47.307Z</time></trkpt><trkpt lat="46.0875885" lon="13.4662403"><ele>312.0</ele><time>2026-05-02T14:35:48.306Z</time></trkpt><trkpt lat="46.0875024" lon="13.4663803"><ele>316.4</ele><time>2026-05-02T14:35:49.306Z</time></trkpt><trkpt lat="46.0874206" lon="13.4665135"><ele>320.79999999999995</ele><time>2026-05-02T14:35:50.307Z</time></trkpt><trkpt lat="46.0873554" lon="13.4666391"><ele>325.2</ele><time>2026-05-02T14:35:51.307Z</time></trkpt><trkpt lat="46.0872876" lon="13.46675"><ele>329.59999999999997</ele><time>2026-05-02T14:35:52.306Z</time></trkpt><trkpt lat="46.0872336" lon="13.4668488"><ele>334.0</ele><time>2026-05-02T14:35:53.307Z</time></trkpt><trkpt lat="46.0871755" lon="13.4669528"><ele>334.0</ele><time>2026-05-02T14:35:54.307Z</time></trkpt><trkpt lat="46.0871362" lon="13.4670614"><ele>334.0</ele><time>2026-05-02T14:35:55.306Z</time></trkpt><trkpt lat="46.0871408" lon="13.4672104"><ele>334.0</ele><time>2026-05-02T14:35:56.306Z</time></trkpt><trkpt lat="46.0871826" lon="13.4673615"><ele>334.0</ele><time>2026-05-02T14:35:57.307Z</time></trkpt><trkpt lat="46.0872236" lon="13.4675168"><ele>334.0</ele><time>2026-05-02T14:35:58.307Z</time></trkpt><trkpt lat="46.0872517" lon="13.4676762"><ele>334.0</ele><time>2026-05-02T14:35:59.307Z</time></trkpt><trkpt lat="46.0872674" lon="13.4678251"><ele>334.0</ele><time>2026-05-02T14:36:00.307Z</time></trkpt><trkpt lat="46.0872831" lon="13.4679599"><ele>334.0</ele><time>2026-05-02T14:36:01.306Z</time></trkpt><trkpt lat="46.0873276" lon="13.4680651"><ele>334.0</ele><time>2026-05-02T14:36:02.307Z</time></trkpt><trkpt lat="46.0874106" lon="13.4681151"><ele>334.0</ele><time>2026-05-02T14:36:03.306Z</time></trkpt><trkpt lat="46.0875122" lon="13.4681357"><ele>331.0</ele><time>2026-05-02T14:36:04.306Z</time></trkpt><trkpt lat="46.0876454" lon="13.4681019"><ele>328.0</ele><time>2026-05-02T14:36:05.306Z</time></trkpt><trkpt lat="46.0877936" lon="13.4680871"><ele>325.0</ele><time>2026-05-02T14:36:06.307Z</time></trkpt><trkpt lat="46.0879367" lon="13.4681338"><ele>322.0</ele><time>2026-05-02T14:36:07.306Z</time></trkpt><trkpt lat="46.0880714" lon="13.4682524"><ele>322.0</ele><time>2026-05-02T14:36:08.307Z</time></trkpt><trkpt lat="46.0882159" lon="13.4684008"><ele>322.0</ele><time>2026-05-02T14:36:09.307Z</time></trkpt><trkpt lat="46.0883744" lon="13.4685479"><ele>322.0</ele><time>2026-05-02T14:36:10.306Z</time></trkpt><trkpt lat="46.0885322" lon="13.468699"><ele>321.25</ele><time>2026-05-02T14:36:11.307Z</time></trkpt><trkpt lat="46.0886768" lon="13.4688384"><ele>320.5</ele><time>2026-05-02T14:36:12.306Z</time></trkpt><trkpt lat="46.0887913" lon="13.4689603"><ele>319.75</ele><time>2026-05-02T14:36:13.306Z</time></trkpt><trkpt lat="46.0888552" lon="13.4690782"><ele>319.0</ele><time>2026-05-02T14:36:14.307Z</time></trkpt><trkpt lat="46.088872" lon="13.4691959"><ele>319.0</ele><time>2026-05-02T14:36:15.306Z</time></trkpt><trkpt lat="46.0888322" lon="13.4692953"><ele>319.0</ele><time>2026-05-02T14:36:16.306Z</time></trkpt><trkpt lat="46.0887603" lon="13.4693871"><ele>319.0</ele><time>2026-05-02T14:36:17.306Z</time></trkpt><trkpt lat="46.0886458" lon="13.4694379"><ele>319.0</ele><time>2026-05-02T14:36:18.307Z</time></trkpt><trkpt lat="46.088482" lon="13.4694819"><ele>319.0</ele><time>2026-05-02T14:36:19.307Z</time></trkpt><trkpt lat="46.0883167" lon="13.4695414"><ele>319.0</ele><time>2026-05-02T14:36:20.306Z</time></trkpt><trkpt lat="46.0881561" lon="13.4696218"><ele>319.0</ele><time>2026-05-02T14:36:21.307Z</time></trkpt><trkpt lat="46.0879819" lon="13.4697311"><ele>315.66666666666663</ele><time>2026-05-02T14:36:22.306Z</time></trkpt><trkpt lat="46.0877963" lon="13.4698462"><ele>312.3333333333333</ele><time>2026-05-02T14:36:23.307Z</time></trkpt><trkpt lat="46.087628" lon="13.4699224"><ele>309.0</ele><time>2026-05-02T14:36:24.307Z</time></trkpt><trkpt lat="46.0874637" lon="13.4700087"><ele>310.6666666666667</ele><time>2026-05-02T14:36:25.307Z</time></trkpt><trkpt lat="46.0873224" lon="13.470116"><ele>312.33333333333337</ele><time>2026-05-02T14:36:26.306Z</time></trkpt><trkpt lat="46.0871991" lon="13.4702573"><ele>314.0</ele><time>2026-05-02T14:36:27.307Z</time></trkpt><trkpt lat="46.087088" lon="13.4704294"><ele>311.6666666666667</ele><time>2026-05-02T14:36:28.306Z</time></trkpt><trkpt lat="46.0870073" lon="13.4706277"><ele>309.3333333333333</ele><time>2026-05-02T14:36:29.307Z</time></trkpt><trkpt lat="46.0869483" lon="13.4708558"><ele>307.0</ele><time>2026-05-02T14:36:30.306Z</time></trkpt><trkpt lat="46.0869093" lon="13.4710902"><ele>303.0</ele><time>2026-05-02T14:36:31.306Z</time></trkpt><trkpt lat="46.0868689" lon="13.4713222"><ele>299.0</ele><time>2026-05-02T14:36:32.306Z</time></trkpt><trkpt lat="46.0868243" lon="13.4715513"><ele>295.0</ele><time>2026-05-02T14:36:33.306Z</time></trkpt><trkpt lat="46.0867799" lon="13.4717862"><ele>295.0</ele><time>2026-05-02T14:36:34.307Z</time></trkpt><trkpt lat="46.0867344" lon="13.4720139"><ele>295.0</ele><time>2026-05-02T14:36:35.307Z</time></trkpt><trkpt lat="46.0866708" lon="13.4722166"><ele>295.0</ele><time>2026-05-02T14:36:36.307Z</time></trkpt><trkpt lat="46.0865857" lon="13.472406"><ele>290.0</ele><time>2026-05-02T14:36:37.307Z</time></trkpt><trkpt lat="46.0864693" lon="13.4725732"><ele>285.0</ele><time>2026-05-02T14:36:38.306Z</time></trkpt><trkpt lat="46.0863317" lon="13.4727244"><ele>280.0</ele><time>2026-05-02T14:36:39.306Z</time></trkpt><trkpt lat="46.0861967" lon="13.4728853"><ele>278.3333333333333</ele><time>2026-05-02T14:36:40.307Z</time></trkpt><trkpt lat="46.0860609" lon="13.4730531"><ele>276.6666666666667</ele><time>2026-05-02T14:36:41.307Z</time></trkpt><trkpt lat="46.0859255" lon="13.4732258"><ele>275.0</ele><time>2026-05-02T14:36:42.306Z</time></trkpt><trkpt lat="46.0858041" lon="13.4734126"><ele>273.33333333333337</ele><time>2026-05-02T14:36:43.307Z</time></trkpt><trkpt lat="46.085694" lon="13.4736083"><ele>271.6666666666667</ele><time>2026-05-02T14:36:44.307Z</time></trkpt><trkpt lat="46.0855932" lon="13.4738032"><ele>270.0</ele><time>2026-05-02T14:36:45.306Z</time></trkpt><trkpt lat="46.0854966" lon="13.4739881"><ele>270.0</ele><time>2026-05-02T14:36:46.306Z</time></trkpt><trkpt lat="46.0854134" lon="13.4741569"><ele>270.0</ele><time>2026-05-02T14:36:47.306Z</time></trkpt><trkpt lat="46.0853519" lon="13.4743079"><ele>270.0</ele><time>2026-05-02T14:36:48.307Z</time></trkpt><trkpt lat="46.0853098" lon="13.4744625"><ele>270.0</ele><time>2026-05-02T14:36:49.306Z</time></trkpt><trkpt lat="46.085298" lon="13.4746159"><ele>270.5</ele><time>2026-05-02T14:36:50.306Z</time></trkpt><trkpt lat="46.0853111" lon="13.4747777"><ele>271.0</ele><time>2026-05-02T14:36:51.307Z</time></trkpt><trkpt lat="46.0853436" lon="13.4749398"><ele>271.5</ele><time>2026-05-02T14:36:52.306Z</time></trkpt><trkpt lat="46.0853881" lon="13.4751238"><ele>272.0</ele><time>2026-05-02T14:36:53.306Z</time></trkpt><trkpt lat="46.0854254" lon="13.4753266"><ele>271.6666666666667</ele><time>2026-05-02T14:36:54.307Z</time></trkpt><trkpt lat="46.085476" lon="13.4755412"><ele>271.3333333333333</ele><time>2026-05-02T14:36:55.307Z</time></trkpt><trkpt lat="46.0855314" lon="13.4757698"><ele>271.0</ele><time>2026-05-02T14:36:56.307Z</time></trkpt><trkpt lat="46.0855846" lon="13.4759986"><ele>271.0</ele><time>2026-05-02T14:36:57.307Z</time></trkpt><trkpt lat="46.0856318" lon="13.4762333"><ele>271.0</ele><time>2026-05-02T14:36:58.307Z</time></trkpt><trkpt lat="46.0856823" lon="13.4764613"><ele>271.0</ele><time>2026-05-02T14:36:59.307Z</time></trkpt><trkpt lat="46.0857238" lon="13.4766926"><ele>270.66666666666663</ele><time>2026-05-02T14:37:00.306Z</time></trkpt><trkpt lat="46.0857479" lon="13.4769303"><ele>270.3333333333333</ele><time>2026-05-02T14:37:01.306Z</time></trkpt><trkpt lat="46.0857583" lon="13.4771872"><ele>270.0</ele><time>2026-05-02T14:37:02.306Z</time></trkpt><trkpt lat="46.0857559" lon="13.4774493"><ele>269.0</ele><time>2026-05-02T14:37:03.307Z</time></trkpt><trkpt lat="46.085759" lon="13.4777079"><ele>268.0</ele><time>2026-05-02T14:37:04.307Z</time></trkpt><trkpt lat="46.085772" lon="13.4779576"><ele>267.0</ele><time>2026-05-02T14:37:05.307Z</time></trkpt><trkpt lat="46.0858218" lon="13.4782026"><ele>275.0</ele><time>2026-05-02T14:37:06.307Z</time></trkpt><trkpt lat="46.0858889" lon="13.4784422"><ele>283.0</ele><time>2026-05-02T14:37:07.307Z</time></trkpt><trkpt lat="46.0859584" lon="13.4786837"><ele>291.0</ele><time>2026-05-02T14:37:08.307Z</time></trkpt><trkpt lat="46.0860253" lon="13.4789159"><ele>291.75</ele><time>2026-05-02T14:37:09.307Z</time></trkpt><trkpt lat="46.0860814" lon="13.4791122"><ele>292.5</ele><time>2026-05-02T14:37:10.306Z</time></trkpt><trkpt lat="46.0861349" lon="13.4792959"><ele>293.25</ele><time>2026-05-02T14:37:11.307Z</time></trkpt><trkpt lat="46.0861718" lon="13.4794696"><ele>294.0</ele><time>2026-05-02T14:37:12.307Z</time></trkpt><trkpt lat="46.086204" lon="13.4796389"><ele>294.0</ele><time>2026-05-02T14:37:13.307Z</time></trkpt><trkpt lat="46.0862329" lon="13.4797903"><ele>294.0</ele><time>2026-05-02T14:37:14.307Z</time></trkpt><trkpt lat="46.086263" lon="13.4799231"><ele>294.0</ele><time>2026-05-02T14:37:15.307Z</time></trkpt><trkpt lat="46.0862843" lon="13.4800397"><ele>294.0</ele><time>2026-05-02T14:37:16.307Z</time></trkpt><trkpt lat="46.0863043" lon="13.4801426"><ele>294.0</ele><time>2026-05-02T14:37:17.306Z</time></trkpt><trkpt lat="46.086317" lon="13.4802371"><ele>294.0</ele><time>2026-05-02T14:37:18.307Z</time></trkpt><trkpt lat="46.0863287" lon="13.4803301"><ele>294.0</ele><time>2026-05-02T14:37:19.306Z</time></trkpt><trkpt lat="46.0863356" lon="13.4804243"><ele>294.0</ele><time>2026-05-02T14:37:20.306Z</time></trkpt><trkpt lat="46.0863472" lon="13.4805179"><ele>298.0</ele><time>2026-05-02T14:37:21.306Z</time></trkpt><trkpt lat="46.0863629" lon="13.4806527"><ele>298.0</ele><time>2026-05-02T14:37:23.306Z</time></trkpt><trkpt lat="46.0863923" lon="13.4807374"><ele>298.0</ele><time>2026-05-02T14:37:45.306Z</time></trkpt><trkpt lat="46.0864503" lon="13.4806724"><ele>298.0</ele><time>2026-05-02T14:37:49.306Z</time></trkpt></trkseg><trkseg><trkpt lat="46.0863494" lon="13.4807656"><ele>298.0</ele><time>2026-05-02T14:54:37.305Z</time></trkpt><trkpt lat="46.086349" lon="13.4809047"><ele>298.0</ele><time>2026-05-02T14:54:39.304Z</time></trkpt><trkpt lat="46.0863303" lon="13.4810722"><ele>298.0</ele><time>2026-05-02T14:54:41.304Z</time></trkpt><trkpt lat="46.086325" lon="13.4811686"><ele>298.0</ele><time>2026-05-02T14:54:42.304Z</time></trkpt><trkpt lat="46.0863143" lon="13.48128"><ele>298.0</ele><time>2026-05-02T14:54:43.305Z</time></trkpt><trkpt lat="46.0863012" lon="13.4814145"><ele>300.25</ele><time>2026-05-02T14:54:44.305Z</time></trkpt><trkpt lat="46.0862996" lon="13.4815706"><ele>302.5</ele><time>2026-05-02T14:54:45.305Z</time></trkpt><trkpt lat="46.0862915" lon="13.4817428"><ele>304.75</ele><time>2026-05-02T14:54:46.304Z</time></trkpt><trkpt lat="46.0862948" lon="13.4819138"><ele>307.0</ele><time>2026-05-02T14:54:47.304Z</time></trkpt><trkpt lat="46.0863162" lon="13.4820715"><ele>307.5</ele><time>2026-05-02T14:54:48.305Z</time></trkpt><trkpt lat="46.0863717" lon="13.4822166"><ele>308.0</ele><time>2026-05-02T14:54:49.304Z</time></trkpt><trkpt lat="46.0864338" lon="13.482363"><ele>308.5</ele><time>2026-05-02T14:54:50.304Z</time></trkpt><trkpt lat="46.086499" lon="13.48252"><ele>309.0</ele><time>2026-05-02T14:54:51.304Z</time></trkpt><trkpt lat="46.0865646" lon="13.4826874"><ele>312.25</ele><time>2026-05-02T14:54:52.304Z</time></trkpt><trkpt lat="46.086635" lon="13.4828573"><ele>315.5</ele><time>2026-05-02T14:54:53.304Z</time></trkpt><trkpt lat="46.0867185" lon="13.4830214"><ele>318.75</ele><time>2026-05-02T14:54:54.305Z</time></trkpt><trkpt lat="46.0868109" lon="13.4831845"><ele>322.0</ele><time>2026-05-02T14:54:55.305Z</time></trkpt><trkpt lat="46.086905" lon="13.4833509"><ele>322.0</ele><time>2026-05-02T14:54:56.305Z</time></trkpt><trkpt lat="46.0869957" lon="13.4835194"><ele>322.0</ele><time>2026-05-02T14:54:57.305Z</time></trkpt><trkpt lat="46.0870798" lon="13.4836811"><ele>322.0</ele><time>2026-05-02T14:54:58.304Z</time></trkpt><trkpt lat="46.0871496" lon="13.4838496"><ele>322.0</ele><time>2026-05-02T14:54:59.304Z</time></trkpt><trkpt lat="46.0871981" lon="13.4840171"><ele>319.75</ele><time>2026-05-02T14:55:00.304Z</time></trkpt><trkpt lat="46.0872361" lon="13.4841794"><ele>317.5</ele><time>2026-05-02T14:55:01.304Z</time></trkpt><trkpt lat="46.0872835" lon="13.4843308"><ele>315.25</ele><time>2026-05-02T14:55:02.304Z</time></trkpt><trkpt lat="46.087345" lon="13.4844702"><ele>313.0</ele><time>2026-05-02T14:55:03.305Z</time></trkpt><trkpt lat="46.087421" lon="13.484583"><ele>319.0</ele><time>2026-05-02T14:55:04.305Z</time></trkpt><trkpt lat="46.0875255" lon="13.4846653"><ele>325.0</ele><time>2026-05-02T14:55:05.304Z</time></trkpt><trkpt lat="46.0876456" lon="13.4847256"><ele>331.0</ele><time>2026-05-02T14:55:06.305Z</time></trkpt><trkpt lat="46.0877847" lon="13.4847781"><ele>337.0</ele><time>2026-05-02T14:55:07.305Z</time></trkpt><trkpt lat="46.0879306" lon="13.4848392"><ele>337.0</ele><time>2026-05-02T14:55:08.304Z</time></trkpt><trkpt lat="46.0880815" lon="13.484905"><ele>337.0</ele><time>2026-05-02T14:55:09.305Z</time></trkpt><trkpt lat="46.0882343" lon="13.4849808"><ele>337.0</ele><time>2026-05-02T14:55:10.305Z</time></trkpt><trkpt lat="46.0883842" lon="13.4850676"><ele>344.0</ele><time>2026-05-02T14:55:11.304Z</time></trkpt><trkpt lat="46.0885299" lon="13.4851709"><ele>351.0</ele><time>2026-05-02T14:55:12.305Z</time></trkpt><trkpt lat="46.0886667" lon="13.4852911"><ele>358.0</ele><time>2026-05-02T14:55:13.304Z</time></trkpt><trkpt lat="46.0888036" lon="13.4854174"><ele>359.3333333333333</ele><time>2026-05-02T14:55:14.305Z</time></trkpt><trkpt lat="46.0889388" lon="13.4855402"><ele>360.6666666666667</ele><time>2026-05-02T14:55:15.305Z</time></trkpt><trkpt lat="46.0890603" lon="13.485665"><ele>362.0</ele><time>2026-05-02T14:55:16.304Z</time></trkpt><trkpt lat="46.0891751" lon="13.4858018"><ele>362.0</ele><time>2026-05-02T14:55:17.304Z</time></trkpt><trkpt lat="46.0892667" lon="13.4859676"><ele>362.0</ele><time>2026-05-02T14:55:18.305Z</time></trkpt><trkpt lat="46.0893416" lon="13.4861645"><ele>362.0</ele><time>2026-05-02T14:55:19.305Z</time></trkpt><trkpt lat="46.0893884" lon="13.4863494"><ele>362.0</ele><time>2026-05-02T14:55:20.305Z</time></trkpt><trkpt lat="46.0894159" lon="13.4865475"><ele>358.0</ele><time>2026-05-02T14:55:21.305Z</time></trkpt><trkpt lat="46.0894389" lon="13.48674"><ele>354.0</ele><time>2026-05-02T14:55:22.305Z</time></trkpt><trkpt lat="46.0894483" lon="13.4869186"><ele>350.0</ele><time>2026-05-02T14:55:23.304Z</time></trkpt><trkpt lat="46.089478" lon="13.4870945"><ele>346.0</ele><time>2026-05-02T14:55:24.305Z</time></trkpt><trkpt lat="46.0895344" lon="13.4872817"><ele>343.75</ele><time>2026-05-02T14:55:25.304Z</time></trkpt><trkpt lat="46.0895867" lon="13.4874608"><ele>341.5</ele><time>2026-05-02T14:55:26.304Z</time></trkpt><trkpt lat="46.0896555" lon="13.4876113"><ele>339.25</ele><time>2026-05-02T14:55:27.304Z</time></trkpt><trkpt lat="46.089752" lon="13.4877556"><ele>337.0</ele><time>2026-05-02T14:55:28.305Z</time></trkpt><trkpt lat="46.089853" lon="13.4879137"><ele>341.0</ele><time>2026-05-02T14:55:29.304Z</time></trkpt><trkpt lat="46.0899515" lon="13.4880852"><ele>345.0</ele><time>2026-05-02T14:55:30.305Z</time></trkpt><trkpt lat="46.090039" lon="13.4882512"><ele>349.0</ele><time>2026-05-02T14:55:31.304Z</time></trkpt><trkpt lat="46.0901104" lon="13.4884154"><ele>353.0</ele><time>2026-05-02T14:55:32.305Z</time></trkpt><trkpt lat="46.0901645" lon="13.4885764"><ele>353.0</ele><time>2026-05-02T14:55:33.305Z</time></trkpt><trkpt lat="46.0901948" lon="13.4887189"><ele>353.0</ele><time>2026-05-02T14:55:34.305Z</time></trkpt><trkpt lat="46.0902004" lon="13.4888804"><ele>353.0</ele><time>2026-05-02T14:55:35.305Z</time></trkpt><trkpt lat="46.0901902" lon="13.4890565"><ele>353.0</ele><time>2026-05-02T14:55:36.304Z</time></trkpt><trkpt lat="46.0901843" lon="13.4892595"><ele>353.6666666666667</ele><time>2026-05-02T14:55:37.304Z</time></trkpt><trkpt lat="46.0901743" lon="13.4894656"><ele>354.3333333333333</ele><time>2026-05-02T14:55:38.304Z</time></trkpt><trkpt lat="46.0901644" lon="13.4896863"><ele>355.0</ele><time>2026-05-02T14:55:39.305Z</time></trkpt><trkpt lat="46.0901472" lon="13.4899091"><ele>355.75</ele><time>2026-05-02T14:55:40.305Z</time></trkpt><trkpt lat="46.0901198" lon="13.4901182"><ele>356.5</ele><time>2026-05-02T14:55:41.304Z</time></trkpt><trkpt lat="46.0900806" lon="13.4903235"><ele>357.25</ele><time>2026-05-02T14:55:42.304Z</time></trkpt><trkpt lat="46.090045" lon="13.4905255"><ele>358.0</ele><time>2026-05-02T14:55:43.304Z</time></trkpt><trkpt lat="46.0900181" lon="13.4907225"><ele>359.25</ele><time>2026-05-02T14:55:44.304Z</time></trkpt><trkpt lat="46.0899992" lon="13.4909175"><ele>360.5</ele><time>2026-05-02T14:55:45.305Z</time></trkpt><trkpt lat="46.0899811" lon="13.4911047"><ele>361.75</ele><time>2026-05-02T14:55:46.304Z</time></trkpt><trkpt lat="46.0899685" lon="13.4913029"><ele>363.0</ele><time>2026-05-02T14:55:47.304Z</time></trkpt><trkpt lat="46.089954" lon="13.4914973"><ele>364.5</ele><time>2026-05-02T14:55:48.304Z</time></trkpt><trkpt lat="46.0899441" lon="13.4916996"><ele>366.0</ele><time>2026-05-02T14:55:49.304Z</time></trkpt><trkpt lat="46.0899371" lon="13.4919071"><ele>367.5</ele><time>2026-05-02T14:55:50.304Z</time></trkpt><trkpt lat="46.0899365" lon="13.4921132"><ele>369.0</ele><time>2026-05-02T14:55:51.304Z</time></trkpt><trkpt lat="46.0899325" lon="13.4923281"><ele>372.3333333333333</ele><time>2026-05-02T14:55:52.304Z</time></trkpt><trkpt lat="46.0899252" lon="13.492552"><ele>375.66666666666663</ele><time>2026-05-02T14:55:53.304Z</time></trkpt><trkpt lat="46.0899229" lon="13.4927665"><ele>379.0</ele><time>2026-05-02T14:55:54.304Z</time></trkpt><trkpt lat="46.0899251" lon="13.4929824"><ele>381.5</ele><time>2026-05-02T14:55:55.305Z</time></trkpt><trkpt lat="46.0899355" lon="13.4931963"><ele>384.0</ele><time>2026-05-02T14:55:56.304Z</time></trkpt><trkpt lat="46.0899325" lon="13.4934023"><ele>386.5</ele><time>2026-05-02T14:55:57.304Z</time></trkpt><trkpt lat="46.0899052" lon="13.4936015"><ele>389.0</ele><time>2026-05-02T14:55:58.305Z</time></trkpt><trkpt lat="46.0898754" lon="13.4938077"><ele>389.0</ele><time>2026-05-02T14:55:59.305Z</time></trkpt><trkpt lat="46.0898277" lon="13.4940053"><ele>389.0</ele><time>2026-05-02T14:56:00.305Z</time></trkpt><trkpt lat="46.0897779" lon="13.4941739"><ele>389.0</ele><time>2026-05-02T14:56:01.304Z</time></trkpt><trkpt lat="46.0897037" lon="13.4942989"><ele>389.0</ele><time>2026-05-02T14:56:02.305Z</time></trkpt><trkpt lat="46.0896099" lon="13.4943514"><ele>389.0</ele><time>2026-05-02T14:56:03.305Z</time></trkpt><trkpt lat="46.0895046" lon="13.4943629"><ele>389.0</ele><time>2026-05-02T14:56:04.305Z</time></trkpt><trkpt lat="46.0894117" lon="13.494375"><ele>389.0</ele><time>2026-05-02T14:56:05.304Z</time></trkpt><trkpt lat="46.0893447" lon="13.4944253"><ele>389.0</ele><time>2026-05-02T14:56:06.304Z</time></trkpt><trkpt lat="46.0893077" lon="13.4945285"><ele>389.0</ele><time>2026-05-02T14:56:07.305Z</time></trkpt><trkpt lat="46.0892863" lon="13.4946663"><ele>390.8333333333333</ele><time>2026-05-02T14:56:08.304Z</time></trkpt><trkpt lat="46.0892676" lon="13.4948124"><ele>392.66666666666663</ele><time>2026-05-02T14:56:09.305Z</time></trkpt><trkpt lat="46.0892612" lon="13.4949378"><ele>394.5</ele><time>2026-05-02T14:56:10.305Z</time></trkpt><trkpt lat="46.0892808" lon="13.4950285"><ele>396.33333333333337</ele><time>2026-05-02T14:56:11.304Z</time></trkpt><trkpt lat="46.0893953" lon="13.4950589"><ele>398.1666666666667</ele><time>2026-05-02T14:56:13.305Z</time></trkpt><trkpt lat="46.0894422" lon="13.4949845"><ele>400.0</ele><time>2026-05-02T14:56:14.305Z</time></trkpt><trkpt lat="46.0894769" lon="13.4948712"><ele>400.0</ele><time>2026-05-02T14:56:15.305Z</time></trkpt><trkpt lat="46.0895309" lon="13.4947914"><ele>400.0</ele><time>2026-05-02T14:56:16.304Z</time></trkpt><trkpt lat="46.0896102" lon="13.4947765"><ele>400.0</ele><time>2026-05-02T14:56:17.305Z</time></trkpt><trkpt lat="46.089708" lon="13.4948288"><ele>400.0</ele><time>2026-05-02T14:56:18.305Z</time></trkpt><trkpt lat="46.0898146" lon="13.4948867"><ele>400.0</ele><time>2026-05-02T14:56:19.304Z</time></trkpt><trkpt lat="46.0899148" lon="13.4949481"><ele>403.5</ele><time>2026-05-02T14:56:20.305Z</time></trkpt><trkpt lat="46.0900044" lon="13.4950426"><ele>407.0</ele><time>2026-05-02T14:56:21.305Z</time></trkpt><trkpt lat="46.0900638" lon="13.4951844"><ele>410.5</ele><time>2026-05-02T14:56:22.304Z</time></trkpt><trkpt lat="46.0901045" lon="13.4953658"><ele>414.0</ele><time>2026-05-02T14:56:23.305Z</time></trkpt><trkpt lat="46.0901408" lon="13.495555"><ele>415.5</ele><time>2026-05-02T14:56:24.305Z</time></trkpt><trkpt lat="46.0901622" lon="13.4957629"><ele>417.0</ele><time>2026-05-02T14:56:25.304Z</time></trkpt><trkpt lat="46.0901778" lon="13.4959735"><ele>418.5</ele><time>2026-05-02T14:56:26.305Z</time></trkpt><trkpt lat="46.0901941" lon="13.4961921"><ele>420.0</ele><time>2026-05-02T14:56:27.304Z</time></trkpt><trkpt lat="46.0902106" lon="13.4964251"><ele>420.0</ele><time>2026-05-02T14:56:28.305Z</time></trkpt><trkpt lat="46.0902333" lon="13.496664"><ele>420.0</ele><time>2026-05-02T14:56:29.304Z</time></trkpt><trkpt lat="46.0902672" lon="13.4968968"><ele>420.0</ele><time>2026-05-02T14:56:30.304Z</time></trkpt><trkpt lat="46.0902942" lon="13.4971169"><ele>420.0</ele><time>2026-05-02T14:56:31.304Z</time></trkpt><trkpt lat="46.0903371" lon="13.4973214"><ele>420.0</ele><time>2026-05-02T14:56:32.304Z</time></trkpt><trkpt lat="46.0903977" lon="13.4975203"><ele>420.0</ele><time>2026-05-02T14:56:33.305Z</time></trkpt><trkpt lat="46.0904676" lon="13.4977283"><ele>419.0</ele><time>2026-05-02T14:56:34.305Z</time></trkpt><trkpt lat="46.0905248" lon="13.4979289"><ele>418.0</ele><time>2026-05-02T14:56:35.304Z</time></trkpt><trkpt lat="46.0905675" lon="13.4981392"><ele>417.0</ele><time>2026-05-02T14:56:36.304Z</time></trkpt><trkpt lat="46.0906155" lon="13.4983509"><ele>417.0</ele><time>2026-05-02T14:56:37.304Z</time></trkpt><trkpt lat="46.0906667" lon="13.4985663"><ele>417.0</ele><time>2026-05-02T14:56:38.304Z</time></trkpt><trkpt lat="46.0907113" lon="13.4987838"><ele>417.0</ele><time>2026-05-02T14:56:39.304Z</time></trkpt><trkpt lat="46.0907567" lon="13.4990033"><ele>425.0</ele><time>2026-05-02T14:56:40.305Z</time></trkpt><trkpt lat="46.0908009" lon="13.4992216"><ele>433.0</ele><time>2026-05-02T14:56:41.305Z</time></trkpt><trkpt lat="46.0908464" lon="13.4994372"><ele>441.0</ele><time>2026-05-02T14:56:42.305Z</time></trkpt><trkpt lat="46.0908976" lon="13.4996493"><ele>441.0</ele><time>2026-05-02T14:56:43.304Z</time></trkpt><trkpt lat="46.0909514" lon="13.4998637"><ele>441.0</ele><time>2026-05-02T14:56:44.304Z</time></trkpt><trkpt lat="46.0910117" lon="13.5000818"><ele>441.0</ele><time>2026-05-02T14:56:45.305Z</time></trkpt><trkpt lat="46.0910657" lon="13.5003015"><ele>442.66666666666663</ele><time>2026-05-02T14:56:46.305Z</time></trkpt><trkpt lat="46.0910997" lon="13.5005321"><ele>444.3333333333333</ele><time>2026-05-02T14:56:47.304Z</time></trkpt><trkpt lat="46.0911156" lon="13.5007556"><ele>446.0</ele><time>2026-05-02T14:56:48.305Z</time></trkpt><trkpt lat="46.0911077" lon="13.5009996"><ele>446.0</ele><time>2026-05-02T14:56:49.304Z</time></trkpt><trkpt lat="46.0911045" lon="13.5012325"><ele>446.0</ele><time>2026-05-02T14:56:50.304Z</time></trkpt><trkpt lat="46.0911059" lon="13.5014649"><ele>446.0</ele><time>2026-05-02T14:56:51.304Z</time></trkpt><trkpt lat="46.091107" lon="13.5016978"><ele>447.3333333333333</ele><time>2026-05-02T14:56:52.304Z</time></trkpt><trkpt lat="46.0911045" lon="13.5019306"><ele>448.66666666666663</ele><time>2026-05-02T14:56:53.305Z</time></trkpt><trkpt lat="46.0910985" lon="13.5021538"><ele>450.0</ele><time>2026-05-02T14:56:54.305Z</time></trkpt><trkpt lat="46.0910963" lon="13.502369"><ele>450.25</ele><time>2026-05-02T14:56:55.304Z</time></trkpt><trkpt lat="46.0910901" lon="13.5025719"><ele>450.5</ele><time>2026-05-02T14:56:56.304Z</time></trkpt><trkpt lat="46.091089" lon="13.5027708"><ele>450.75</ele><time>2026-05-02T14:56:57.304Z</time></trkpt><trkpt lat="46.0911217" lon="13.5029575"><ele>451.0</ele><time>2026-05-02T14:56:58.305Z</time></trkpt><trkpt lat="46.0911764" lon="13.5031303"><ele>451.0</ele><time>2026-05-02T14:56:59.305Z</time></trkpt><trkpt lat="46.0912451" lon="13.5032917"><ele>451.0</ele><time>2026-05-02T14:57:00.305Z</time></trkpt><trkpt lat="46.0913223" lon="13.5034479"><ele>451.0</ele><time>2026-05-02T14:57:01.304Z</time></trkpt><trkpt lat="46.0914168" lon="13.5035904"><ele>451.0</ele><time>2026-05-02T14:57:02.305Z</time></trkpt><trkpt lat="46.0915197" lon="13.5037344"><ele>457.0</ele><time>2026-05-02T14:57:03.304Z</time></trkpt><trkpt lat="46.0916215" lon="13.503892"><ele>463.0</ele><time>2026-05-02T14:57:04.304Z</time></trkpt><trkpt lat="46.0917209" lon="13.5040542"><ele>469.0</ele><time>2026-05-02T14:57:05.304Z</time></trkpt><trkpt lat="46.091821" lon="13.5042147"><ele>475.0</ele><time>2026-05-02T14:57:06.304Z</time></trkpt><trkpt lat="46.0919055" lon="13.504365"><ele>475.0</ele><time>2026-05-02T14:57:07.304Z</time></trkpt><trkpt lat="46.091976" lon="13.5044978"><ele>475.0</ele><time>2026-05-02T14:57:08.304Z</time></trkpt><trkpt lat="46.0920472" lon="13.5046154"><ele>475.0</ele><time>2026-05-02T14:57:09.305Z</time></trkpt><trkpt lat="46.0921149" lon="13.5047305"><ele>475.0</ele><time>2026-05-02T14:57:10.305Z</time></trkpt><trkpt lat="46.0921675" lon="13.5048075"><ele>475.0</ele><time>2026-05-02T14:57:11.305Z</time></trkpt><trkpt lat="46.0922217" lon="13.5048841"><ele>474.4</ele><time>2026-05-02T14:57:12.305Z</time></trkpt><trkpt lat="46.092332" lon="13.5049593"><ele>473.8</ele><time>2026-05-02T14:57:14.304Z</time></trkpt><trkpt lat="46.0924539" lon="13.505002"><ele>473.20000000000005</ele><time>2026-05-02T14:57:16.304Z</time></trkpt><trkpt lat="46.0925418" lon="13.5049728"><ele>472.6</ele><time>2026-05-02T14:57:18.305Z</time></trkpt><trkpt lat="46.0926072" lon="13.5048757"><ele>472.0</ele><time>2026-05-02T14:57:20.304Z</time></trkpt><trkpt lat="46.0927111" lon="13.5048196"><ele>475.33333333333337</ele><time>2026-05-02T14:57:22.304Z</time></trkpt><trkpt lat="46.0927815" lon="13.5048046"><ele>478.6666666666667</ele><time>2026-05-02T14:57:23.305Z</time></trkpt><trkpt lat="46.0928718" lon="13.5048003"><ele>482.0</ele><time>2026-05-02T14:57:24.304Z</time></trkpt><trkpt lat="46.0929761" lon="13.5048059"><ele>485.33333333333337</ele><time>2026-05-02T14:57:25.304Z</time></trkpt><trkpt lat="46.0930704" lon="13.5048137"><ele>488.6666666666667</ele><time>2026-05-02T14:57:26.305Z</time></trkpt><trkpt lat="46.0931497" lon="13.5048114"><ele>492.0</ele><time>2026-05-02T14:57:27.305Z</time></trkpt><trkpt lat="46.0932174" lon="13.5048177"><ele>493.0</ele><time>2026-05-02T14:57:28.305Z</time></trkpt><trkpt lat="46.0932803" lon="13.5048431"><ele>494.00000000000006</ele><time>2026-05-02T14:57:29.304Z</time></trkpt><trkpt lat="46.0934063" lon="13.5049416"><ele>495.00000000000006</ele><time>2026-05-02T14:57:31.305Z</time></trkpt><trkpt lat="46.0934809" lon="13.5050095"><ele>496.0</ele><time>2026-05-02T14:57:32.304Z</time></trkpt><trkpt lat="46.0935577" lon="13.5050753"><ele>497.0</ele><time>2026-05-02T14:57:33.305Z</time></trkpt><trkpt lat="46.0936284" lon="13.50512"><ele>496.99999999999994</ele><time>2026-05-02T14:57:34.305Z</time></trkpt><trkpt lat="46.0936867" lon="13.5051713"><ele>497.0</ele><time>2026-05-02T14:57:35.304Z</time></trkpt><trkpt lat="46.0937518" lon="13.5052235"><ele>497.0</ele><time>2026-05-02T14:57:36.305Z</time></trkpt><trkpt lat="46.0938162" lon="13.5052777"><ele>497.0</ele><time>2026-05-02T14:57:37.304Z</time></trkpt><trkpt lat="46.0938823" lon="13.5053266"><ele>496.99999999999994</ele><time>2026-05-02T14:57:38.304Z</time></trkpt><trkpt lat="46.0939568" lon="13.5053978"><ele>497.0</ele><time>2026-05-02T14:57:39.305Z</time></trkpt><trkpt lat="46.0940263" lon="13.5054494"><ele>496.99999999999994</ele><time>2026-05-02T14:57:40.304Z</time></trkpt><trkpt lat="46.0940979" lon="13.5055018"><ele>497.0</ele><time>2026-05-02T14:57:41.305Z</time></trkpt><trkpt lat="46.0941735" lon="13.5055364"><ele>497.0</ele><time>2026-05-02T14:57:42.305Z</time></trkpt><trkpt lat="46.0942502" lon="13.5055722"><ele>497.0</ele><time>2026-05-02T14:57:43.305Z</time></trkpt><trkpt lat="46.0943173" lon="13.5055941"><ele>496.99999999999994</ele><time>2026-05-02T14:57:44.305Z</time></trkpt><trkpt lat="46.0943843" lon="13.5056097"><ele>497.0</ele><time>2026-05-02T14:57:45.305Z</time></trkpt><trkpt lat="46.0944968" lon="13.5055981"><ele>496.99999999999994</ele><time>2026-05-02T14:57:47.305Z</time></trkpt><trkpt lat="46.0945618" lon="13.5055866"><ele>497.0</ele><time>2026-05-02T14:57:48.305Z</time></trkpt><trkpt lat="46.0946219" lon="13.5055535"><ele>497.0</ele><time>2026-05-02T14:57:49.305Z</time></trkpt><trkpt lat="46.0947298" lon="13.5054642"><ele>497.0</ele><time>2026-05-02T14:57:51.305Z</time></trkpt><trkpt lat="46.0947857" lon="13.5054171"><ele>496.99999999999994</ele><time>2026-05-02T14:57:52.305Z</time></trkpt><trkpt lat="46.0948708" lon="13.5053402"><ele>497.0</ele><time>2026-05-02T14:57:54.304Z</time></trkpt><trkpt lat="46.0949567" lon="13.5052841"><ele>492.16666666666663</ele><time>2026-05-02T14:57:56.304Z</time></trkpt><trkpt lat="46.09505" lon="13.5052501"><ele>487.3333333333333</ele><time>2026-05-02T14:57:58.305Z</time></trkpt><trkpt lat="46.0951694" lon="13.5052581"><ele>482.5</ele><time>2026-05-02T14:58:00.304Z</time></trkpt><trkpt lat="46.0952491" lon="13.505266"><ele>477.66666666666663</ele><time>2026-05-02T14:58:01.304Z</time></trkpt><trkpt lat="46.095317" lon="13.5052605"><ele>472.8333333333333</ele><time>2026-05-02T14:58:02.304Z</time></trkpt><trkpt lat="46.0953841" lon="13.5052389"><ele>468.0</ele><time>2026-05-02T14:58:03.304Z</time></trkpt><trkpt lat="46.0955009" lon="13.5051634"><ele>468.0</ele><time>2026-05-02T14:58:05.305Z</time></trkpt><trkpt lat="46.0955714" lon="13.5050987"><ele>468.00000000000006</ele><time>2026-05-02T14:58:06.305Z</time></trkpt><trkpt lat="46.0956225" lon="13.5050366"><ele>468.0</ele><time>2026-05-02T14:58:07.305Z</time></trkpt><trkpt lat="46.0956674" lon="13.5049636"><ele>468.0</ele><time>2026-05-02T14:58:08.305Z</time></trkpt><trkpt lat="46.0957198" lon="13.5048873"><ele>468.00000000000006</ele><time>2026-05-02T14:58:09.304Z</time></trkpt><trkpt lat="46.0957676" lon="13.5048059"><ele>468.0</ele><time>2026-05-02T14:58:10.305Z</time></trkpt><trkpt lat="46.0958206" lon="13.5047215"><ele>468.0</ele><time>2026-05-02T14:58:11.305Z</time></trkpt><trkpt lat="46.0958671" lon="13.504644"><ele>466.0</ele><time>2026-05-02T14:58:12.304Z</time></trkpt><trkpt lat="46.0959167" lon="13.5045632"><ele>464.00000000000006</ele><time>2026-05-02T14:58:13.305Z</time></trkpt><trkpt lat="46.0959713" lon="13.5044985"><ele>462.0</ele><time>2026-05-02T14:58:14.304Z</time></trkpt><trkpt lat="46.0960257" lon="13.5044352"><ele>460.0</ele><time>2026-05-02T14:58:15.305Z</time></trkpt><trkpt lat="46.0960845" lon="13.5043706"><ele>458.00000000000006</ele><time>2026-05-02T14:58:16.304Z</time></trkpt><trkpt lat="46.0961467" lon="13.5042995"><ele>456.0</ele><time>2026-05-02T14:58:17.305Z</time></trkpt><trkpt lat="46.0962067" lon="13.5042343"><ele>454.0</ele><time>2026-05-02T14:58:18.304Z</time></trkpt><trkpt lat="46.0962745" lon="13.5041658"><ele>454.00000000000006</ele><time>2026-05-02T14:58:19.305Z</time></trkpt><trkpt lat="46.0963316" lon="13.5040994"><ele>454.0</ele><time>2026-05-02T14:58:20.304Z</time></trkpt><trkpt lat="46.0963938" lon="13.5040365"><ele>454.0</ele><time>2026-05-02T14:58:21.304Z</time></trkpt><trkpt lat="46.0964545" lon="13.5039782"><ele>454.0</ele><time>2026-05-02T14:58:22.305Z</time></trkpt><trkpt lat="46.0965102" lon="13.5039029"><ele>454.00000000000006</ele><time>2026-05-02T14:58:23.305Z</time></trkpt><trkpt lat="46.0965699" lon="13.5038342"><ele>454.0</ele><time>2026-05-02T14:58:24.305Z</time></trkpt><trkpt lat="46.0966621" lon="13.5037439"><ele>453.00000000000006</ele><time>2026-05-02T14:58:26.305Z</time></trkpt><trkpt lat="46.0967145" lon="13.5036926"><ele>452.0</ele><time>2026-05-02T14:58:27.304Z</time></trkpt><trkpt lat="46.0967696" lon="13.50364"><ele>451.0</ele><time>2026-05-02T14:58:28.305Z</time></trkpt><trkpt lat="46.0968268" lon="13.5035883"><ele>450.0</ele><time>2026-05-02T14:58:29.304Z</time></trkpt><trkpt lat="46.0969073" lon="13.5035197"><ele>449.00000000000006</ele><time>2026-05-02T14:58:30.304Z</time></trkpt><trkpt lat="46.0969899" lon="13.503463"><ele>448.0</ele><time>2026-05-02T14:58:31.305Z</time></trkpt><trkpt lat="46.0970826" lon="13.5034146"><ele>448.0</ele><time>2026-05-02T14:58:32.304Z</time></trkpt><trkpt lat="46.0971689" lon="13.5033738"><ele>447.99999999999994</ele><time>2026-05-02T14:58:33.305Z</time></trkpt><trkpt lat="46.0972472" lon="13.5033361"><ele>447.99999999999994</ele><time>2026-05-02T14:58:34.305Z</time></trkpt><trkpt lat="46.0973326" lon="13.5032891"><ele>448.0</ele><time>2026-05-02T14:58:35.304Z</time></trkpt><trkpt lat="46.0974202" lon="13.5032499"><ele>448.0</ele><time>2026-05-02T14:58:36.305Z</time></trkpt><trkpt lat="46.0975134" lon="13.5032034"><ele>446.33333333333337</ele><time>2026-05-02T14:58:37.305Z</time></trkpt><trkpt lat="46.0975908" lon="13.5031608"><ele>444.6666666666667</ele><time>2026-05-02T14:58:38.304Z</time></trkpt><trkpt lat="46.0976615" lon="13.5031214"><ele>443.0</ele><time>2026-05-02T14:58:39.304Z</time></trkpt><trkpt lat="46.097729" lon="13.5030717"><ele>441.33333333333337</ele><time>2026-05-02T14:58:40.304Z</time></trkpt><trkpt lat="46.0978112" lon="13.5030182"><ele>439.6666666666667</ele><time>2026-05-02T14:58:41.305Z</time></trkpt><trkpt lat="46.0978976" lon="13.5029717"><ele>438.0</ele><time>2026-05-02T14:58:42.305Z</time></trkpt><trkpt lat="46.097988" lon="13.5029172"><ele>437.3333333333333</ele><time>2026-05-02T14:58:43.305Z</time></trkpt><trkpt lat="46.0980577" lon="13.5028831"><ele>436.66666666666663</ele><time>2026-05-02T14:58:44.305Z</time></trkpt><trkpt lat="46.0981266" lon="13.5028443"><ele>436.0</ele><time>2026-05-02T14:58:45.305Z</time></trkpt><trkpt lat="46.098193" lon="13.5027893"><ele>435.3333333333333</ele><time>2026-05-02T14:58:46.305Z</time></trkpt><trkpt lat="46.0982557" lon="13.5027315"><ele>434.66666666666663</ele><time>2026-05-02T14:58:47.304Z</time></trkpt><trkpt lat="46.0983172" lon="13.5026633"><ele>434.0</ele><time>2026-05-02T14:58:48.304Z</time></trkpt><trkpt lat="46.0983777" lon="13.5025909"><ele>433.99999999999994</ele><time>2026-05-02T14:58:49.305Z</time></trkpt><trkpt lat="46.0984319" lon="13.5025181"><ele>434.0</ele><time>2026-05-02T14:58:50.304Z</time></trkpt><trkpt lat="46.0984889" lon="13.5024153"><ele>434.0</ele><time>2026-05-02T14:58:51.305Z</time></trkpt><trkpt lat="46.0985563" lon="13.5023237"><ele>434.0</ele><time>2026-05-02T14:58:52.305Z</time></trkpt><trkpt lat="46.0986267" lon="13.5022412"><ele>433.99999999999994</ele><time>2026-05-02T14:58:53.305Z</time></trkpt><trkpt lat="46.0986871" lon="13.5021491"><ele>434.0</ele><time>2026-05-02T14:58:54.305Z</time></trkpt><trkpt lat="46.098747" lon="13.5020467"><ele>432.6</ele><time>2026-05-02T14:58:55.305Z</time></trkpt><trkpt lat="46.0988074" lon="13.5019535"><ele>431.2</ele><time>2026-05-02T14:58:56.305Z</time></trkpt><trkpt lat="46.0988709" lon="13.5018667"><ele>429.80000000000007</ele><time>2026-05-02T14:58:57.304Z</time></trkpt><trkpt lat="46.0989439" lon="13.5017841"><ele>428.40000000000003</ele><time>2026-05-02T14:58:58.304Z</time></trkpt><trkpt lat="46.0990361" lon="13.5017031"><ele>427.0</ele><time>2026-05-02T14:58:59.304Z</time></trkpt><trkpt lat="46.0991213" lon="13.5016098"><ele>426.83333333333337</ele><time>2026-05-02T14:59:00.304Z</time></trkpt><trkpt lat="46.0991909" lon="13.5015071"><ele>426.6666666666667</ele><time>2026-05-02T14:59:01.304Z</time></trkpt><trkpt lat="46.0992412" lon="13.5013981"><ele>426.5</ele><time>2026-05-02T14:59:02.304Z</time></trkpt><trkpt lat="46.0992831" lon="13.5012918"><ele>426.33333333333337</ele><time>2026-05-02T14:59:03.304Z</time></trkpt><trkpt lat="46.0993184" lon="13.5011784"><ele>426.1666666666667</ele><time>2026-05-02T14:59:04.305Z</time></trkpt><trkpt lat="46.0993416" lon="13.5010626"><ele>426.0</ele><time>2026-05-02T14:59:05.304Z</time></trkpt><trkpt lat="46.0993691" lon="13.5009466"><ele>424.8</ele><time>2026-05-02T14:59:06.304Z</time></trkpt><trkpt lat="46.0993912" lon="13.5008226"><ele>423.6</ele><time>2026-05-02T14:59:07.305Z</time></trkpt><trkpt lat="46.0994125" lon="13.5006905"><ele>422.4</ele><time>2026-05-02T14:59:08.305Z</time></trkpt><trkpt lat="46.0994324" lon="13.500561"><ele>421.2</ele><time>2026-05-02T14:59:09.304Z</time></trkpt><trkpt lat="46.0994482" lon="13.5004283"><ele>420.0</ele><time>2026-05-02T14:59:10.305Z</time></trkpt><trkpt lat="46.0994646" lon="13.500289"><ele>418.8333333333333</ele><time>2026-05-02T14:59:11.305Z</time></trkpt><trkpt lat="46.099479" lon="13.5001558"><ele>417.66666666666663</ele><time>2026-05-02T14:59:12.304Z</time></trkpt><trkpt lat="46.0994907" lon="13.5000356"><ele>416.5</ele><time>2026-05-02T14:59:13.305Z</time></trkpt><trkpt lat="46.0994989" lon="13.4999221"><ele>415.3333333333333</ele><time>2026-05-02T14:59:14.304Z</time></trkpt><trkpt lat="46.0995094" lon="13.4997963"><ele>414.16666666666663</ele><time>2026-05-02T14:59:15.305Z</time></trkpt><trkpt lat="46.0995174" lon="13.4996611"><ele>413.0</ele><time>2026-05-02T14:59:16.305Z</time></trkpt><trkpt lat="46.0995393" lon="13.4995256"><ele>411.59999999999997</ele><time>2026-05-02T14:59:17.304Z</time></trkpt><trkpt lat="46.0995592" lon="13.4993928"><ele>410.2</ele><time>2026-05-02T14:59:18.304Z</time></trkpt><trkpt lat="46.0995959" lon="13.4992685"><ele>408.8</ele><time>2026-05-02T14:59:19.305Z</time></trkpt><trkpt lat="46.099639" lon="13.4991406"><ele>407.4</ele><time>2026-05-02T14:59:20.304Z</time></trkpt><trkpt lat="46.0996831" lon="13.499017"><ele>406.0</ele><time>2026-05-02T14:59:21.304Z</time></trkpt><trkpt lat="46.0997348" lon="13.4988826"><ele>403.4</ele><time>2026-05-02T14:59:22.305Z</time></trkpt><trkpt lat="46.0997795" lon="13.4987407"><ele>400.8</ele><time>2026-05-02T14:59:23.305Z</time></trkpt><trkpt lat="46.0998326" lon="13.4986051"><ele>398.2</ele><time>2026-05-02T14:59:24.304Z</time></trkpt><trkpt lat="46.0998817" lon="13.4984643"><ele>395.59999999999997</ele><time>2026-05-02T14:59:25.305Z</time></trkpt><trkpt lat="46.099927" lon="13.4983238"><ele>393.0</ele><time>2026-05-02T14:59:26.304Z</time></trkpt><trkpt lat="46.0999766" lon="13.4981864"><ele>397.59999999999997</ele><time>2026-05-02T14:59:27.305Z</time></trkpt><trkpt lat="46.1000294" lon="13.4980682"><ele>402.2</ele><time>2026-05-02T14:59:28.305Z</time></trkpt><trkpt lat="46.1000753" lon="13.4979441"><ele>406.8</ele><time>2026-05-02T14:59:29.304Z</time></trkpt><trkpt lat="46.1001144" lon="13.4978074"><ele>411.4</ele><time>2026-05-02T14:59:30.304Z</time></trkpt><trkpt lat="46.1001514" lon="13.4976786"><ele>416.0</ele><time>2026-05-02T14:59:31.304Z</time></trkpt><trkpt lat="46.1001892" lon="13.4975485"><ele>416.0</ele><time>2026-05-02T14:59:32.304Z</time></trkpt><trkpt lat="46.1002297" lon="13.4974176"><ele>416.0</ele><time>2026-05-02T14:59:33.305Z</time></trkpt><trkpt lat="46.1002618" lon="13.497291"><ele>416.0</ele><time>2026-05-02T14:59:34.304Z</time></trkpt><trkpt lat="46.1002916" lon="13.4971674"><ele>416.0</ele><time>2026-05-02T14:59:35.304Z</time></trkpt><trkpt lat="46.1003237" lon="13.4970399"><ele>416.0</ele><time>2026-05-02T14:59:36.305Z</time></trkpt><trkpt lat="46.1003498" lon="13.4969074"><ele>414.66666666666663</ele><time>2026-05-02T14:59:37.305Z</time></trkpt><trkpt lat="46.100382" lon="13.4967832"><ele>413.3333333333333</ele><time>2026-05-02T14:59:38.305Z</time></trkpt><trkpt lat="46.1004176" lon="13.4966608"><ele>412.0</ele><time>2026-05-02T14:59:39.304Z</time></trkpt><trkpt lat="46.1004388" lon="13.4965387"><ele>410.66666666666663</ele><time>2026-05-02T14:59:40.305Z</time></trkpt><trkpt lat="46.1004566" lon="13.4964345"><ele>409.3333333333333</ele><time>2026-05-02T14:59:41.304Z</time></trkpt><trkpt lat="46.1004717" lon="13.4963283"><ele>408.0</ele><time>2026-05-02T14:59:42.304Z</time></trkpt><trkpt lat="46.1005013" lon="13.4962295"><ele>405.8333333333333</ele><time>2026-05-02T14:59:43.304Z</time></trkpt><trkpt lat="46.10052" lon="13.4961212"><ele>403.66666666666663</ele><time>2026-05-02T14:59:44.305Z</time></trkpt><trkpt lat="46.1005585" lon="13.4959966"><ele>401.5</ele><time>2026-05-02T14:59:45.304Z</time></trkpt><trkpt lat="46.1005879" lon="13.4958936"><ele>399.3333333333333</ele><time>2026-05-02T14:59:46.304Z</time></trkpt><trkpt lat="46.1006269" lon="13.4957598"><ele>397.16666666666663</ele><time>2026-05-02T14:59:47.304Z</time></trkpt><trkpt lat="46.1006686" lon="13.4956443"><ele>395.0</ele><time>2026-05-02T14:59:48.305Z</time></trkpt><trkpt lat="46.100711" lon="13.4955357"><ele>398.3333333333333</ele><time>2026-05-02T14:59:49.305Z</time></trkpt><trkpt lat="46.1007539" lon="13.4954177"><ele>401.66666666666663</ele><time>2026-05-02T14:59:50.305Z</time></trkpt><trkpt lat="46.1008007" lon="13.4953027"><ele>405.0</ele><time>2026-05-02T14:59:51.305Z</time></trkpt><trkpt lat="46.1008477" lon="13.4951978"><ele>408.33333333333337</ele><time>2026-05-02T14:59:52.305Z</time></trkpt><trkpt lat="46.100888" lon="13.495079"><ele>411.6666666666667</ele><time>2026-05-02T14:59:53.305Z</time></trkpt><trkpt lat="46.1009349" lon="13.4949852"><ele>415.0</ele><time>2026-05-02T14:59:54.305Z</time></trkpt><trkpt lat="46.1009818" lon="13.4948825"><ele>415.00000000000006</ele><time>2026-05-02T14:59:55.305Z</time></trkpt><trkpt lat="46.1010268" lon="13.4947861"><ele>415.0</ele><time>2026-05-02T14:59:56.304Z</time></trkpt><trkpt lat="46.1010728" lon="13.4946943"><ele>415.0</ele><time>2026-05-02T14:59:57.304Z</time></trkpt><trkpt lat="46.1011222" lon="13.4946046"><ele>415.0</ele><time>2026-05-02T14:59:58.304Z</time></trkpt><trkpt lat="46.1011617" lon="13.4945194"><ele>415.00000000000006</ele><time>2026-05-02T14:59:59.304Z</time></trkpt><trkpt lat="46.101201" lon="13.4944298"><ele>415.0</ele><time>2026-05-02T15:00:00.304Z</time></trkpt><trkpt lat="46.1012407" lon="13.4943374"><ele>413.14285714285717</ele><time>2026-05-02T15:00:01.304Z</time></trkpt><trkpt lat="46.1012744" lon="13.4942448"><ele>411.28571428571433</ele><time>2026-05-02T15:00:02.304Z</time></trkpt><trkpt lat="46.1013156" lon="13.4941681"><ele>409.42857142857144</ele><time>2026-05-02T15:00:03.305Z</time></trkpt><trkpt lat="46.1013562" lon="13.4940801"><ele>407.57142857142856</ele><time>2026-05-02T15:00:04.305Z</time></trkpt><trkpt lat="46.1013974" lon="13.4939904"><ele>405.7142857142857</ele><time>2026-05-02T15:00:05.305Z</time></trkpt><trkpt lat="46.101439" lon="13.4939024"><ele>403.85714285714283</ele><time>2026-05-02T15:00:06.305Z</time></trkpt><trkpt lat="46.1014778" lon="13.4938149"><ele>402.0</ele><time>2026-05-02T15:00:07.304Z</time></trkpt><trkpt lat="46.101522" lon="13.4937316"><ele>402.0</ele><time>2026-05-02T15:00:08.304Z</time></trkpt><trkpt lat="46.101564" lon="13.4936543"><ele>402.0</ele><time>2026-05-02T15:00:09.304Z</time></trkpt><trkpt lat="46.1016057" lon="13.4935795"><ele>402.0</ele><time>2026-05-02T15:00:10.304Z</time></trkpt><trkpt lat="46.1016548" lon="13.4935037"><ele>402.0</ele><time>2026-05-02T15:00:11.304Z</time></trkpt><trkpt lat="46.1017346" lon="13.4934332"><ele>402.0</ele><time>2026-05-02T15:00:12.305Z</time></trkpt><trkpt lat="46.1018112" lon="13.4933611"><ele>402.0</ele><time>2026-05-02T15:00:13.304Z</time></trkpt><trkpt lat="46.1018769" lon="13.4932947"><ele>402.0</ele><time>2026-05-02T15:00:14.305Z</time></trkpt><trkpt lat="46.1019397" lon="13.4932089"><ele>402.0</ele><time>2026-05-02T15:00:15.305Z</time></trkpt><trkpt lat="46.1019943" lon="13.4930988"><ele>402.0</ele><time>2026-05-02T15:00:16.304Z</time></trkpt><trkpt lat="46.1020499" lon="13.4929719"><ele>402.0</ele><time>2026-05-02T15:00:17.304Z</time></trkpt><trkpt lat="46.1021025" lon="13.4928397"><ele>402.0</ele><time>2026-05-02T15:00:18.304Z</time></trkpt><trkpt lat="46.1021624" lon="13.4926968"><ele>399.8</ele><time>2026-05-02T15:00:19.304Z</time></trkpt><trkpt lat="46.1022162" lon="13.4925652"><ele>397.6</ele><time>2026-05-02T15:00:20.305Z</time></trkpt><trkpt lat="46.1022717" lon="13.4924348"><ele>395.40000000000003</ele><time>2026-05-02T15:00:21.304Z</time></trkpt><trkpt lat="46.1023182" lon="13.4923173"><ele>393.20000000000005</ele><time>2026-05-02T15:00:22.305Z</time></trkpt><trkpt lat="46.1023607" lon="13.4922001"><ele>391.0</ele><time>2026-05-02T15:00:23.305Z</time></trkpt><trkpt lat="46.1024021" lon="13.4920916"><ele>393.1666666666667</ele><time>2026-05-02T15:00:24.304Z</time></trkpt><trkpt lat="46.1024483" lon="13.4919879"><ele>395.33333333333337</ele><time>2026-05-02T15:00:25.304Z</time></trkpt><trkpt lat="46.1024808" lon="13.4918827"><ele>397.5</ele><time>2026-05-02T15:00:26.305Z</time></trkpt><trkpt lat="46.1025172" lon="13.4917671"><ele>399.66666666666663</ele><time>2026-05-02T15:00:27.305Z</time></trkpt><trkpt lat="46.1025482" lon="13.4916558"><ele>401.8333333333333</ele><time>2026-05-02T15:00:28.305Z</time></trkpt><trkpt lat="46.1025866" lon="13.4915441"><ele>404.0</ele><time>2026-05-02T15:00:29.304Z</time></trkpt><trkpt lat="46.102627" lon="13.4914334"><ele>404.0</ele><time>2026-05-02T15:00:30.304Z</time></trkpt><trkpt lat="46.1026552" lon="13.4913326"><ele>404.0</ele><time>2026-05-02T15:00:31.304Z</time></trkpt><trkpt lat="46.1026869" lon="13.4912345"><ele>404.0</ele><time>2026-05-02T15:00:32.304Z</time></trkpt><trkpt lat="46.1027158" lon="13.491144"><ele>404.0</ele><time>2026-05-02T15:00:33.305Z</time></trkpt><trkpt lat="46.102798" lon="13.491015"><ele>404.0</ele><time>2026-05-02T15:00:35.304Z</time></trkpt><trkpt lat="46.1029246" lon="13.4909716"><ele>402.2</ele><time>2026-05-02T15:00:37.304Z</time></trkpt><trkpt lat="46.1029971" lon="13.4909849"><ele>400.4</ele><time>2026-05-02T15:00:38.305Z</time></trkpt><trkpt lat="46.1030599" lon="13.4909708"><ele>398.6</ele><time>2026-05-02T15:00:39.305Z</time></trkpt><trkpt lat="46.1030315" lon="13.4908161"><ele>396.8</ele><time>2026-05-02T15:00:41.304Z</time></trkpt><trkpt lat="46.1029533" lon="13.4907018"><ele>395.0</ele><time>2026-05-02T15:00:42.304Z</time></trkpt><trkpt lat="46.102866" lon="13.4905723"><ele>395.0</ele><time>2026-05-02T15:00:43.305Z</time></trkpt><trkpt lat="46.1027866" lon="13.4904478"><ele>395.0</ele><time>2026-05-02T15:00:44.304Z</time></trkpt><trkpt lat="46.1027235" lon="13.4903381"><ele>395.0</ele><time>2026-05-02T15:00:45.305Z</time></trkpt><trkpt lat="46.102689" lon="13.4902371"><ele>395.0</ele><time>2026-05-02T15:00:46.304Z</time></trkpt><trkpt lat="46.1027472" lon="13.4901302"><ele>395.0</ele><time>2026-05-02T15:00:48.305Z</time></trkpt><trkpt lat="46.1028282" lon="13.4901266"><ele>391.8</ele><time>2026-05-02T15:00:49.304Z</time></trkpt><trkpt lat="46.1029217" lon="13.4901441"><ele>388.6</ele><time>2026-05-02T15:00:50.304Z</time></trkpt><trkpt lat="46.102999" lon="13.490129"><ele>385.4</ele><time>2026-05-02T15:00:51.305Z</time></trkpt><trkpt lat="46.1030476" lon="13.4900043"><ele>382.2</ele><time>2026-05-02T15:00:52.305Z</time></trkpt><trkpt lat="46.103075" lon="13.4898459"><ele>379.0</ele><time>2026-05-02T15:00:53.305Z</time></trkpt><trkpt lat="46.10308" lon="13.489706"><ele>375.2</ele><time>2026-05-02T15:00:54.304Z</time></trkpt><trkpt lat="46.1030831" lon="13.4895806"><ele>371.4</ele><time>2026-05-02T15:00:55.305Z</time></trkpt><trkpt lat="46.1030841" lon="13.4894403"><ele>367.6</ele><time>2026-05-02T15:00:56.305Z</time></trkpt><trkpt lat="46.1030824" lon="13.4892882"><ele>363.8</ele><time>2026-05-02T15:00:57.304Z</time></trkpt><trkpt lat="46.1030698" lon="13.4891287"><ele>360.0</ele><time>2026-05-02T15:00:58.304Z</time></trkpt><trkpt lat="46.1030681" lon="13.4889783"><ele>360.0</ele><time>2026-05-02T15:00:59.305Z</time></trkpt><trkpt lat="46.1030695" lon="13.4888384"><ele>360.0</ele><time>2026-05-02T15:01:00.304Z</time></trkpt><trkpt lat="46.1030623" lon="13.4887084"><ele>360.0</ele><time>2026-05-02T15:01:01.305Z</time></trkpt><trkpt lat="46.1030492" lon="13.4885831"><ele>360.0</ele><time>2026-05-02T15:01:02.305Z</time></trkpt><trkpt lat="46.1030491" lon="13.4884719"><ele>360.0</ele><time>2026-05-02T15:01:03.305Z</time></trkpt><trkpt lat="46.1030608" lon="13.4883586"><ele>360.0</ele><time>2026-05-02T15:01:04.305Z</time></trkpt><trkpt lat="46.1030709" lon="13.4882491"><ele>358.85714285714283</ele><time>2026-05-02T15:01:05.304Z</time></trkpt><trkpt lat="46.1030785" lon="13.4881403"><ele>357.7142857142857</ele><time>2026-05-02T15:01:06.305Z</time></trkpt><trkpt lat="46.103072" lon="13.4880445"><ele>356.57142857142856</ele><time>2026-05-02T15:01:07.305Z</time></trkpt><trkpt lat="46.1030653" lon="13.4879454"><ele>355.42857142857144</ele><time>2026-05-02T15:01:08.304Z</time></trkpt><trkpt lat="46.103059" lon="13.487841"><ele>354.2857142857143</ele><time>2026-05-02T15:01:09.304Z</time></trkpt><trkpt lat="46.1030405" lon="13.4877391"><ele>353.14285714285717</ele><time>2026-05-02T15:01:10.304Z</time></trkpt><trkpt lat="46.1030246" lon="13.4876362"><ele>352.0</ele><time>2026-05-02T15:01:11.305Z</time></trkpt><trkpt lat="46.1030028" lon="13.4875351"><ele>351.3333333333333</ele><time>2026-05-02T15:01:12.304Z</time></trkpt><trkpt lat="46.102992" lon="13.4874342"><ele>350.66666666666663</ele><time>2026-05-02T15:01:13.305Z</time></trkpt><trkpt lat="46.1029932" lon="13.487331"><ele>350.0</ele><time>2026-05-02T15:01:14.304Z</time></trkpt><trkpt lat="46.1030059" lon="13.4872211"><ele>349.3333333333333</ele><time>2026-05-02T15:01:15.304Z</time></trkpt><trkpt lat="46.1030221" lon="13.4871222"><ele>348.6666666666667</ele><time>2026-05-02T15:01:16.305Z</time></trkpt><trkpt lat="46.1030687" lon="13.4870151"><ele>348.0</ele><time>2026-05-02T15:01:17.305Z</time></trkpt><trkpt lat="46.1031074" lon="13.4869042"><ele>346.7142857142857</ele><time>2026-05-02T15:01:18.304Z</time></trkpt><trkpt lat="46.1031388" lon="13.4868062"><ele>345.42857142857144</ele><time>2026-05-02T15:01:19.305Z</time></trkpt><trkpt lat="46.1031623" lon="13.4867033"><ele>344.1428571428571</ele><time>2026-05-02T15:01:20.304Z</time></trkpt><trkpt lat="46.1031774" lon="13.4866099"><ele>342.8571428571429</ele><time>2026-05-02T15:01:21.305Z</time></trkpt><trkpt lat="46.1031932" lon="13.4865195"><ele>341.5714285714286</ele><time>2026-05-02T15:01:22.304Z</time></trkpt><trkpt lat="46.1031962" lon="13.4864245"><ele>340.2857142857143</ele><time>2026-05-02T15:01:23.305Z</time></trkpt><trkpt lat="46.1032016" lon="13.48633"><ele>339.0</ele><time>2026-05-02T15:01:24.305Z</time></trkpt><trkpt lat="46.1032074" lon="13.4862355"><ele>337.7142857142857</ele><time>2026-05-02T15:01:25.305Z</time></trkpt><trkpt lat="46.1032041" lon="13.4861417"><ele>336.42857142857144</ele><time>2026-05-02T15:01:26.304Z</time></trkpt><trkpt lat="46.1031983" lon="13.4860398"><ele>335.14285714285717</ele><time>2026-05-02T15:01:27.305Z</time></trkpt><trkpt lat="46.1031984" lon="13.4859398"><ele>333.8571428571429</ele><time>2026-05-02T15:01:28.305Z</time></trkpt><trkpt lat="46.1031891" lon="13.4858485"><ele>332.57142857142856</ele><time>2026-05-02T15:01:29.305Z</time></trkpt><trkpt lat="46.1031722" lon="13.4856894"><ele>331.28571428571433</ele><time>2026-05-02T15:01:31.304Z</time></trkpt><trkpt lat="46.1031449" lon="13.4856044"><ele>330.0</ele><time>2026-05-02T15:01:32.305Z</time></trkpt><trkpt lat="46.1031277" lon="13.485515"><ele>329.42857142857144</ele><time>2026-05-02T15:01:33.305Z</time></trkpt><trkpt lat="46.1031198" lon="13.4854221"><ele>328.8571428571429</ele><time>2026-05-02T15:01:34.304Z</time></trkpt><trkpt lat="46.1031108" lon="13.4853225"><ele>328.28571428571433</ele><time>2026-05-02T15:01:35.305Z</time></trkpt><trkpt lat="46.1031121" lon="13.4852209"><ele>327.7142857142857</ele><time>2026-05-02T15:01:36.304Z</time></trkpt><trkpt lat="46.1031169" lon="13.4851098"><ele>327.1428571428571</ele><time>2026-05-02T15:01:37.304Z</time></trkpt><trkpt lat="46.1031166" lon="13.484988"><ele>326.5714285714286</ele><time>2026-05-02T15:01:38.304Z</time></trkpt><trkpt lat="46.1031219" lon="13.4848875"><ele>326.0</ele><time>2026-05-02T15:01:39.305Z</time></trkpt><trkpt lat="46.1031416" lon="13.4847654"><ele>326.0</ele><time>2026-05-02T15:01:40.305Z</time></trkpt><trkpt lat="46.1031567" lon="13.4846488"><ele>326.0</ele><time>2026-05-02T15:01:41.304Z</time></trkpt><trkpt lat="46.103169" lon="13.4845368"><ele>326.0</ele><time>2026-05-02T15:01:42.305Z</time></trkpt><trkpt lat="46.1031787" lon="13.4844174"><ele>326.0</ele><time>2026-05-02T15:01:43.304Z</time></trkpt><trkpt lat="46.1031931" lon="13.4842698"><ele>326.0</ele><time>2026-05-02T15:01:44.304Z</time></trkpt><trkpt lat="46.1032108" lon="13.4841425"><ele>326.0</ele><time>2026-05-02T15:01:45.305Z</time></trkpt><trkpt lat="46.1032407" lon="13.4840127"><ele>327.5</ele><time>2026-05-02T15:01:46.304Z</time></trkpt><trkpt lat="46.1032641" lon="13.4839"><ele>329.0</ele><time>2026-05-02T15:01:47.304Z</time></trkpt><trkpt lat="46.1032954" lon="13.4837795"><ele>330.5</ele><time>2026-05-02T15:01:48.305Z</time></trkpt><trkpt lat="46.1033181" lon="13.4836597"><ele>332.0</ele><time>2026-05-02T15:01:49.304Z</time></trkpt><trkpt lat="46.1033212" lon="13.483532"><ele>333.5</ele><time>2026-05-02T15:01:50.304Z</time></trkpt><trkpt lat="46.1033218" lon="13.4834138"><ele>335.0</ele><time>2026-05-02T15:01:51.304Z</time></trkpt><trkpt lat="46.1033218" lon="13.4833072"><ele>334.99999999999994</ele><time>2026-05-02T15:01:52.305Z</time></trkpt><trkpt lat="46.1033267" lon="13.4832074"><ele>335.0</ele><time>2026-05-02T15:01:53.304Z</time></trkpt><trkpt lat="46.1033493" lon="13.4831221"><ele>335.0</ele><time>2026-05-02T15:01:54.305Z</time></trkpt><trkpt lat="46.1033778" lon="13.4830249"><ele>335.0</ele><time>2026-05-02T15:01:55.305Z</time></trkpt><trkpt lat="46.1034138" lon="13.4829417"><ele>335.0</ele><time>2026-05-02T15:01:56.304Z</time></trkpt><trkpt lat="46.1034649" lon="13.4828745"><ele>334.99999999999994</ele><time>2026-05-02T15:01:57.305Z</time></trkpt><trkpt lat="46.1035356" lon="13.4828226"><ele>335.0</ele><time>2026-05-02T15:01:58.305Z</time></trkpt><trkpt lat="46.1036016" lon="13.4827936"><ele>332.6666666666667</ele><time>2026-05-02T15:01:59.304Z</time></trkpt><trkpt lat="46.1036797" lon="13.48277"><ele>330.33333333333337</ele><time>2026-05-02T15:02:00.304Z</time></trkpt><trkpt lat="46.1037505" lon="13.4827426"><ele>328.0</ele><time>2026-05-02T15:02:01.305Z</time></trkpt><trkpt lat="46.103829" lon="13.4827254"><ele>325.6666666666667</ele><time>2026-05-02T15:02:02.304Z</time></trkpt><trkpt lat="46.1039033" lon="13.4827042"><ele>323.3333333333333</ele><time>2026-05-02T15:02:03.304Z</time></trkpt><trkpt lat="46.1039828" lon="13.4826061"><ele>321.0</ele><time>2026-05-02T15:02:05.304Z</time></trkpt><trkpt lat="46.1040154" lon="13.4825276"><ele>320.99999999999994</ele><time>2026-05-02T15:02:06.305Z</time></trkpt><trkpt lat="46.1040591" lon="13.4824254"><ele>321.0</ele><time>2026-05-02T15:02:07.304Z</time></trkpt><trkpt lat="46.1041016" lon="13.4823267"><ele>321.0</ele><time>2026-05-02T15:02:08.305Z</time></trkpt><trkpt lat="46.1041347" lon="13.4822339"><ele>321.0</ele><time>2026-05-02T15:02:09.304Z</time></trkpt><trkpt lat="46.1041651" lon="13.4821433"><ele>321.0</ele><time>2026-05-02T15:02:10.304Z</time></trkpt><trkpt lat="46.1041984" lon="13.4820577"><ele>320.99999999999994</ele><time>2026-05-02T15:02:11.304Z</time></trkpt><trkpt lat="46.1042359" lon="13.48197"><ele>321.0</ele><time>2026-05-02T15:02:12.305Z</time></trkpt><trkpt lat="46.1042634" lon="13.4818765"><ele>320.6666666666667</ele><time>2026-05-02T15:02:13.305Z</time></trkpt><trkpt lat="46.1042972" lon="13.4817821"><ele>320.3333333333333</ele><time>2026-05-02T15:02:14.304Z</time></trkpt><trkpt lat="46.1043364" lon="13.4816968"><ele>320.0</ele><time>2026-05-02T15:02:15.304Z</time></trkpt><trkpt lat="46.1043886" lon="13.4816227"><ele>319.66666666666663</ele><time>2026-05-02T15:02:16.305Z</time></trkpt><trkpt lat="46.1044536" lon="13.4815604"><ele>319.3333333333333</ele><time>2026-05-02T15:02:17.305Z</time></trkpt><trkpt lat="46.1045251" lon="13.4815049"><ele>319.0</ele><time>2026-05-02T15:02:18.305Z</time></trkpt><trkpt lat="46.1045957" lon="13.4814588"><ele>319.0</ele><time>2026-05-02T15:02:19.304Z</time></trkpt><trkpt lat="46.1046649" lon="13.4814335"><ele>319.0</ele><time>2026-05-02T15:02:20.305Z</time></trkpt><trkpt lat="46.1047278" lon="13.4814129"><ele>319.0</ele><time>2026-05-02T15:02:21.304Z</time></trkpt><trkpt lat="46.1048376" lon="13.4814255"><ele>319.0</ele><time>2026-05-02T15:02:23.305Z</time></trkpt><trkpt lat="46.1048929" lon="13.4814852"><ele>319.0</ele><time>2026-05-02T15:02:24.305Z</time></trkpt><trkpt lat="46.104942" lon="13.481559"><ele>319.0</ele><time>2026-05-02T15:02:25.304Z</time></trkpt><trkpt lat="46.1049959" lon="13.4816434"><ele>319.8333333333333</ele><time>2026-05-02T15:02:26.305Z</time></trkpt><trkpt lat="46.1050518" lon="13.4817278"><ele>320.66666666666663</ele><time>2026-05-02T15:02:27.304Z</time></trkpt><trkpt lat="46.1051186" lon="13.4818074"><ele>321.5</ele><time>2026-05-02T15:02:28.305Z</time></trkpt><trkpt lat="46.105195" lon="13.4818762"><ele>322.3333333333333</ele><time>2026-05-02T15:02:29.304Z</time></trkpt><trkpt lat="46.1052541" lon="13.4819591"><ele>323.1666666666667</ele><time>2026-05-02T15:02:30.304Z</time></trkpt><trkpt lat="46.1053001" lon="13.4820238"><ele>324.0</ele><time>2026-05-02T15:02:31.305Z</time></trkpt><trkpt lat="46.1053816" lon="13.4820748"><ele>324.0</ele><time>2026-05-02T15:02:33.304Z</time></trkpt><trkpt lat="46.1054517" lon="13.4819841"><ele>324.0</ele><time>2026-05-02T15:02:35.304Z</time></trkpt><trkpt lat="46.1054978" lon="13.4818993"><ele>324.0</ele><time>2026-05-02T15:02:36.304Z</time></trkpt><trkpt lat="46.1055469" lon="13.481801"><ele>324.0</ele><time>2026-05-02T15:02:37.304Z</time></trkpt><trkpt lat="46.1056039" lon="13.4816923"><ele>324.0</ele><time>2026-05-02T15:02:38.305Z</time></trkpt><trkpt lat="46.1056633" lon="13.4815908"><ele>324.0</ele><time>2026-05-02T15:02:39.305Z</time></trkpt><trkpt lat="46.1057252" lon="13.4814966"><ele>324.2</ele><time>2026-05-02T15:02:40.304Z</time></trkpt><trkpt lat="46.1057894" lon="13.4814074"><ele>324.4</ele><time>2026-05-02T15:02:41.304Z</time></trkpt><trkpt lat="46.1058554" lon="13.4813119"><ele>324.6</ele><time>2026-05-02T15:02:42.304Z</time></trkpt><trkpt lat="46.1059202" lon="13.4812168"><ele>324.8</ele><time>2026-05-02T15:02:43.304Z</time></trkpt><trkpt lat="46.1059911" lon="13.481126"><ele>325.0</ele><time>2026-05-02T15:02:44.304Z</time></trkpt><trkpt lat="46.1060556" lon="13.4810469"><ele>320.5</ele><time>2026-05-02T15:02:45.305Z</time></trkpt><trkpt lat="46.1061111" lon="13.4809638"><ele>316.0</ele><time>2026-05-02T15:02:46.304Z</time></trkpt><trkpt lat="46.1061647" lon="13.4808742"><ele>311.5</ele><time>2026-05-02T15:02:47.305Z</time></trkpt><trkpt lat="46.1062192" lon="13.4807823"><ele>307.0</ele><time>2026-05-02T15:02:48.305Z</time></trkpt><trkpt lat="46.1062738" lon="13.4807036"><ele>302.5</ele><time>2026-05-02T15:02:49.305Z</time></trkpt><trkpt lat="46.1063235" lon="13.4806269"><ele>298.0</ele><time>2026-05-02T15:02:50.304Z</time></trkpt><trkpt lat="46.1063691" lon="13.4805463"><ele>298.0</ele><time>2026-05-02T15:02:51.305Z</time></trkpt><trkpt lat="46.1064294" lon="13.4804729"><ele>298.0</ele><time>2026-05-02T15:02:52.304Z</time></trkpt><trkpt lat="46.1064864" lon="13.4804028"><ele>298.0</ele><time>2026-05-02T15:02:53.304Z</time></trkpt><trkpt lat="46.1065414" lon="13.4803368"><ele>298.0</ele><time>2026-05-02T15:02:54.304Z</time></trkpt><trkpt lat="46.106602" lon="13.4802792"><ele>298.0</ele><time>2026-05-02T15:02:55.305Z</time></trkpt><trkpt lat="46.1066764" lon="13.4802291"><ele>298.0</ele><time>2026-05-02T15:02:56.304Z</time></trkpt><trkpt lat="46.1067505" lon="13.480183"><ele>296.3333333333333</ele><time>2026-05-02T15:02:57.305Z</time></trkpt><trkpt lat="46.1068188" lon="13.4801428"><ele>294.66666666666663</ele><time>2026-05-02T15:02:58.305Z</time></trkpt><trkpt lat="46.1068866" lon="13.4801081"><ele>293.0</ele><time>2026-05-02T15:02:59.305Z</time></trkpt><trkpt lat="46.1069531" lon="13.4800883"><ele>291.3333333333333</ele><time>2026-05-02T15:03:00.305Z</time></trkpt><trkpt lat="46.1070161" lon="13.4800816"><ele>289.6666666666667</ele><time>2026-05-02T15:03:01.305Z</time></trkpt><trkpt lat="46.107141" lon="13.4800622"><ele>288.0</ele><time>2026-05-02T15:03:03.304Z</time></trkpt><trkpt lat="46.1072419" lon="13.4800665"><ele>288.0</ele><time>2026-05-02T15:03:05.305Z</time></trkpt><trkpt lat="46.1073071" lon="13.4801103"><ele>288.0</ele><time>2026-05-02T15:03:07.305Z</time></trkpt><trkpt lat="46.1073458" lon="13.4802541"><ele>288.0</ele><time>2026-05-02T15:03:09.304Z</time></trkpt><trkpt lat="46.1073761" lon="13.4803793"><ele>288.0</ele><time>2026-05-02T15:03:10.304Z</time></trkpt><trkpt lat="46.1073896" lon="13.4805217"><ele>288.0</ele><time>2026-05-02T15:03:11.304Z</time></trkpt><trkpt lat="46.1074133" lon="13.4806821"><ele>290.2</ele><time>2026-05-02T15:03:12.304Z</time></trkpt><trkpt lat="46.1074588" lon="13.4808451"><ele>292.4</ele><time>2026-05-02T15:03:13.304Z</time></trkpt><trkpt lat="46.1074921" lon="13.4810015"><ele>294.59999999999997</ele><time>2026-05-02T15:03:14.305Z</time></trkpt><trkpt lat="46.1075077" lon="13.4811333"><ele>296.8</ele><time>2026-05-02T15:03:15.305Z</time></trkpt><trkpt lat="46.1075278" lon="13.4812393"><ele>299.0</ele><time>2026-05-02T15:03:16.305Z</time></trkpt><trkpt lat="46.1075767" lon="13.4814245"><ele>301.85714285714283</ele><time>2026-05-02T15:03:18.305Z</time></trkpt><trkpt lat="46.1076022" lon="13.4815092"><ele>304.7142857142857</ele><time>2026-05-02T15:03:19.305Z</time></trkpt><trkpt lat="46.1076339" lon="13.4815939"><ele>307.57142857142856</ele><time>2026-05-02T15:03:20.304Z</time></trkpt><trkpt lat="46.107671" lon="13.4816867"><ele>310.42857142857144</ele><time>2026-05-02T15:03:21.304Z</time></trkpt><trkpt lat="46.1077168" lon="13.4817741"><ele>313.2857142857143</ele><time>2026-05-02T15:03:22.305Z</time></trkpt><trkpt lat="46.1077637" lon="13.481867"><ele>316.14285714285717</ele><time>2026-05-02T15:03:23.305Z</time></trkpt><trkpt lat="46.1078146" lon="13.4819522"><ele>319.0</ele><time>2026-05-02T15:03:24.304Z</time></trkpt><trkpt lat="46.1078683" lon="13.4820385"><ele>322.0</ele><time>2026-05-02T15:03:25.304Z</time></trkpt><trkpt lat="46.1079192" lon="13.482126"><ele>325.0</ele><time>2026-05-02T15:03:26.305Z</time></trkpt><trkpt lat="46.1079571" lon="13.4822074"><ele>328.0</ele><time>2026-05-02T15:03:27.305Z</time></trkpt><trkpt lat="46.1079939" lon="13.4822909"><ele>331.0</ele><time>2026-05-02T15:03:28.304Z</time></trkpt><trkpt lat="46.1080242" lon="13.4823735"><ele>334.0</ele><time>2026-05-02T15:03:29.304Z</time></trkpt><trkpt lat="46.1080415" lon="13.4824614"><ele>337.0</ele><time>2026-05-02T15:03:30.305Z</time></trkpt><trkpt lat="46.1080579" lon="13.4826415"><ele>337.0</ele><time>2026-05-02T15:03:32.304Z</time></trkpt><trkpt lat="46.1080552" lon="13.4827357"><ele>337.0</ele><time>2026-05-02T15:03:33.305Z</time></trkpt><trkpt lat="46.1080684" lon="13.4828512"><ele>337.0</ele><time>2026-05-02T15:03:34.304Z</time></trkpt><trkpt lat="46.1080785" lon="13.4829829"><ele>337.0</ele><time>2026-05-02T15:03:35.305Z</time></trkpt><trkpt lat="46.1080931" lon="13.4831356"><ele>337.0</ele><time>2026-05-02T15:03:36.305Z</time></trkpt><trkpt lat="46.108096" lon="13.4832854"><ele>337.0</ele><time>2026-05-02T15:03:37.305Z</time></trkpt><trkpt lat="46.1080802" lon="13.483406"><ele>337.0</ele><time>2026-05-02T15:03:38.304Z</time></trkpt><trkpt lat="46.1080541" lon="13.4835184"><ele>337.0</ele><time>2026-05-02T15:03:39.305Z</time></trkpt><trkpt lat="46.108017" lon="13.4836183"><ele>337.0</ele><time>2026-05-02T15:03:40.304Z</time></trkpt><trkpt lat="46.1079757" lon="13.4837187"><ele>337.0</ele><time>2026-05-02T15:03:41.304Z</time></trkpt><trkpt lat="46.1079381" lon="13.4838143"><ele>337.0</ele><time>2026-05-02T15:03:42.304Z</time></trkpt><trkpt lat="46.1079061" lon="13.4838998"><ele>337.0</ele><time>2026-05-02T15:03:43.304Z</time></trkpt><trkpt lat="46.1078796" lon="13.483988"><ele>337.00000000000006</ele><time>2026-05-02T15:03:44.304Z</time></trkpt><trkpt lat="46.1078716" lon="13.484089"><ele>337.0</ele><time>2026-05-02T15:03:45.304Z</time></trkpt><trkpt lat="46.1078607" lon="13.4841903"><ele>337.0</ele><time>2026-05-02T15:03:46.305Z</time></trkpt><trkpt lat="46.1078485" lon="13.4842925"><ele>337.0</ele><time>2026-05-02T15:03:47.305Z</time></trkpt><trkpt lat="46.1078398" lon="13.4843985"><ele>337.0</ele><time>2026-05-02T15:03:48.305Z</time></trkpt><trkpt lat="46.1078373" lon="13.4845049"><ele>337.00000000000006</ele><time>2026-05-02T15:03:49.304Z</time></trkpt><trkpt lat="46.1078468" lon="13.4846103"><ele>337.0</ele><time>2026-05-02T15:03:50.305Z</time></trkpt><trkpt lat="46.1078425" lon="13.4847244"><ele>336.00000000000006</ele><time>2026-05-02T15:03:51.304Z</time></trkpt><trkpt lat="46.1078558" lon="13.4848228"><ele>335.0</ele><time>2026-05-02T15:03:52.305Z</time></trkpt><trkpt lat="46.1078782" lon="13.4849207"><ele>334.0</ele><time>2026-05-02T15:03:53.304Z</time></trkpt><trkpt lat="46.1079014" lon="13.4850105"><ele>333.0</ele><time>2026-05-02T15:03:54.304Z</time></trkpt><trkpt lat="46.1079218" lon="13.4851056"><ele>332.0</ele><time>2026-05-02T15:03:55.305Z</time></trkpt><trkpt lat="46.1079471" lon="13.4852042"><ele>331.00000000000006</ele><time>2026-05-02T15:03:56.304Z</time></trkpt><trkpt lat="46.1079741" lon="13.4852902"><ele>330.0</ele><time>2026-05-02T15:03:57.304Z</time></trkpt><trkpt lat="46.1080065" lon="13.4853953"><ele>330.0</ele><time>2026-05-02T15:03:58.304Z</time></trkpt><trkpt lat="46.1080373" lon="13.4854923"><ele>330.0</ele><time>2026-05-02T15:03:59.305Z</time></trkpt><trkpt lat="46.1080684" lon="13.4855827"><ele>330.0</ele><time>2026-05-02T15:04:00.304Z</time></trkpt><trkpt lat="46.1081035" lon="13.4856821"><ele>330.0</ele><time>2026-05-02T15:04:01.304Z</time></trkpt><trkpt lat="46.10814" lon="13.4857678"><ele>330.0</ele><time>2026-05-02T15:04:02.304Z</time></trkpt><trkpt lat="46.1081776" lon="13.4858539"><ele>330.0</ele><time>2026-05-02T15:04:03.305Z</time></trkpt><trkpt lat="46.1082259" lon="13.486039"><ele>324.1666666666667</ele><time>2026-05-02T15:04:05.305Z</time></trkpt><trkpt lat="46.1082504" lon="13.4861543"><ele>318.3333333333333</ele><time>2026-05-02T15:04:06.304Z</time></trkpt><trkpt lat="46.1082622" lon="13.4862654"><ele>312.5</ele><time>2026-05-02T15:04:07.305Z</time></trkpt><trkpt lat="46.1082681" lon="13.4863702"><ele>306.66666666666663</ele><time>2026-05-02T15:04:08.305Z</time></trkpt><trkpt lat="46.1082734" lon="13.486486"><ele>300.8333333333333</ele><time>2026-05-02T15:04:09.304Z</time></trkpt><trkpt lat="46.1082738" lon="13.4865962"><ele>295.0</ele><time>2026-05-02T15:04:10.304Z</time></trkpt><trkpt lat="46.1082849" lon="13.4867342"><ele>295.0</ele><time>2026-05-02T15:04:11.305Z</time></trkpt><trkpt lat="46.1082987" lon="13.4868587"><ele>295.0</ele><time>2026-05-02T15:04:12.304Z</time></trkpt><trkpt lat="46.1083103" lon="13.4869888"><ele>295.0</ele><time>2026-05-02T15:04:13.304Z</time></trkpt><trkpt lat="46.1083273" lon="13.4871248"><ele>295.0</ele><time>2026-05-02T15:04:14.304Z</time></trkpt><trkpt lat="46.1083407" lon="13.4872394"><ele>295.0</ele><time>2026-05-02T15:04:15.304Z</time></trkpt><trkpt lat="46.1083529" lon="13.4873544"><ele>295.0</ele><time>2026-05-02T15:04:16.304Z</time></trkpt><trkpt lat="46.1083581" lon="13.4874765"><ele>295.66666666666663</ele><time>2026-05-02T15:04:17.304Z</time></trkpt><trkpt lat="46.1083612" lon="13.487591"><ele>296.3333333333333</ele><time>2026-05-02T15:04:18.304Z</time></trkpt><trkpt lat="46.1083669" lon="13.4877036"><ele>297.0</ele><time>2026-05-02T15:04:19.305Z</time></trkpt><trkpt lat="46.1083472" lon="13.4878345"><ele>297.6666666666667</ele><time>2026-05-02T15:04:20.304Z</time></trkpt><trkpt lat="46.1083346" lon="13.4879582"><ele>298.33333333333337</ele><time>2026-05-02T15:04:21.304Z</time></trkpt><trkpt lat="46.1083285" lon="13.4880759"><ele>299.0</ele><time>2026-05-02T15:04:22.305Z</time></trkpt><trkpt lat="46.1083233" lon="13.488191"><ele>299.0</ele><time>2026-05-02T15:04:23.305Z</time></trkpt><trkpt lat="46.1083275" lon="13.4883172"><ele>299.0</ele><time>2026-05-02T15:04:24.304Z</time></trkpt><trkpt lat="46.1083241" lon="13.4884238"><ele>299.0</ele><time>2026-05-02T15:04:25.304Z</time></trkpt><trkpt lat="46.1083096" lon="13.4885359"><ele>299.0</ele><time>2026-05-02T15:04:26.305Z</time></trkpt><trkpt lat="46.1082974" lon="13.4886602"><ele>299.0</ele><time>2026-05-02T15:04:27.304Z</time></trkpt><trkpt lat="46.1082845" lon="13.4887704"><ele>299.0</ele><time>2026-05-02T15:04:28.305Z</time></trkpt><trkpt lat="46.108273" lon="13.4888636"><ele>300.4</ele><time>2026-05-02T15:04:29.304Z</time></trkpt><trkpt lat="46.1082582" lon="13.4890333"><ele>301.79999999999995</ele><time>2026-05-02T15:04:31.305Z</time></trkpt><trkpt lat="46.1083271" lon="13.4891838"><ele>303.20000000000005</ele><time>2026-05-02T15:04:33.305Z</time></trkpt><trkpt lat="46.1084033" lon="13.4892385"><ele>304.6</ele><time>2026-05-02T15:04:34.304Z</time></trkpt><trkpt lat="46.1084988" lon="13.4893072"><ele>306.0</ele><time>2026-05-02T15:04:35.304Z</time></trkpt><trkpt lat="46.1085833" lon="13.4893715"><ele>306.0</ele><time>2026-05-02T15:04:36.304Z</time></trkpt><trkpt lat="46.1086602" lon="13.4894229"><ele>306.0</ele><time>2026-05-02T15:04:37.305Z</time></trkpt><trkpt lat="46.1087383" lon="13.4894849"><ele>306.0</ele><time>2026-05-02T15:04:38.304Z</time></trkpt><trkpt lat="46.1087936" lon="13.4895368"><ele>306.0</ele><time>2026-05-02T15:04:39.305Z</time></trkpt><trkpt lat="46.1088813" lon="13.4896517"><ele>306.0</ele><time>2026-05-02T15:04:41.305Z</time></trkpt><trkpt lat="46.1089186" lon="13.4897286"><ele>306.0</ele><time>2026-05-02T15:04:42.305Z</time></trkpt><trkpt lat="46.1089465" lon="13.489813"><ele>308.8333333333333</ele><time>2026-05-02T15:04:43.304Z</time></trkpt><trkpt lat="46.1089694" lon="13.4899078"><ele>311.6666666666667</ele><time>2026-05-02T15:04:44.305Z</time></trkpt><trkpt lat="46.1089938" lon="13.4900063"><ele>314.5</ele><time>2026-05-02T15:04:45.305Z</time></trkpt><trkpt lat="46.1090118" lon="13.4901177"><ele>317.33333333333337</ele><time>2026-05-02T15:04:46.305Z</time></trkpt><trkpt lat="46.1090201" lon="13.490233"><ele>320.1666666666667</ele><time>2026-05-02T15:04:47.305Z</time></trkpt><trkpt lat="46.1090281" lon="13.490341"><ele>323.0</ele><time>2026-05-02T15:04:48.304Z</time></trkpt><trkpt lat="46.1090418" lon="13.4904443"><ele>323.00000000000006</ele><time>2026-05-02T15:04:49.305Z</time></trkpt><trkpt lat="46.1090503" lon="13.4905446"><ele>323.0</ele><time>2026-05-02T15:04:50.305Z</time></trkpt><trkpt lat="46.1090625" lon="13.4906419"><ele>323.0</ele><time>2026-05-02T15:04:51.305Z</time></trkpt><trkpt lat="46.1090704" lon="13.4907435"><ele>323.0</ele><time>2026-05-02T15:04:52.305Z</time></trkpt><trkpt lat="46.1090811" lon="13.4908415"><ele>323.0</ele><time>2026-05-02T15:04:53.305Z</time></trkpt><trkpt lat="46.1091048" lon="13.4909313"><ele>323.00000000000006</ele><time>2026-05-02T15:04:54.304Z</time></trkpt><trkpt lat="46.1091389" lon="13.4910161"><ele>323.0</ele><time>2026-05-02T15:04:55.305Z</time></trkpt><trkpt lat="46.1092334" lon="13.4911548"><ele>321.5714285714286</ele><time>2026-05-02T15:04:57.304Z</time></trkpt><trkpt lat="46.1092931" lon="13.4912111"><ele>320.14285714285717</ele><time>2026-05-02T15:04:58.305Z</time></trkpt><trkpt lat="46.1093462" lon="13.4912687"><ele>318.7142857142857</ele><time>2026-05-02T15:04:59.304Z</time></trkpt><trkpt lat="46.1094088" lon="13.4913187"><ele>317.28571428571433</ele><time>2026-05-02T15:05:00.304Z</time></trkpt><trkpt lat="46.1094879" lon="13.4913673"><ele>315.8571428571429</ele><time>2026-05-02T15:05:01.305Z</time></trkpt><trkpt lat="46.1095518" lon="13.4914062"><ele>314.42857142857144</ele><time>2026-05-02T15:05:02.305Z</time></trkpt><trkpt lat="46.1096184" lon="13.491431"><ele>313.0</ele><time>2026-05-02T15:05:03.305Z</time></trkpt><trkpt lat="46.1096845" lon="13.4914615"><ele>312.8</ele><time>2026-05-02T15:05:04.305Z</time></trkpt><trkpt lat="46.109782" lon="13.4915999"><ele>312.6</ele><time>2026-05-02T15:05:06.304Z</time></trkpt><trkpt lat="46.1098225" lon="13.491704"><ele>312.4</ele><time>2026-05-02T15:05:07.305Z</time></trkpt><trkpt lat="46.1098605" lon="13.4918249"><ele>312.2</ele><time>2026-05-02T15:05:08.305Z</time></trkpt><trkpt lat="46.1099012" lon="13.4919422"><ele>312.0</ele><time>2026-05-02T15:05:09.305Z</time></trkpt><trkpt lat="46.1099214" lon="13.4920532"><ele>309.8333333333333</ele><time>2026-05-02T15:05:10.305Z</time></trkpt><trkpt lat="46.1099247" lon="13.4921621"><ele>307.6666666666667</ele><time>2026-05-02T15:05:11.305Z</time></trkpt><trkpt lat="46.1099252" lon="13.4922666"><ele>305.5</ele><time>2026-05-02T15:05:12.304Z</time></trkpt><trkpt lat="46.1099207" lon="13.4923742"><ele>303.33333333333337</ele><time>2026-05-02T15:05:13.304Z</time></trkpt><trkpt lat="46.1099085" lon="13.4924923"><ele>301.1666666666667</ele><time>2026-05-02T15:05:14.304Z</time></trkpt><trkpt lat="46.1098895" lon="13.4926033"><ele>299.0</ele><time>2026-05-02T15:05:15.305Z</time></trkpt><trkpt lat="46.1098719" lon="13.4927167"><ele>299.0</ele><time>2026-05-02T15:05:16.305Z</time></trkpt><trkpt lat="46.1098558" lon="13.4928215"><ele>299.0</ele><time>2026-05-02T15:05:17.305Z</time></trkpt><trkpt lat="46.1098377" lon="13.4929121"><ele>299.0</ele><time>2026-05-02T15:05:18.304Z</time></trkpt><trkpt lat="46.1097876" lon="13.4930598"><ele>299.0</ele><time>2026-05-02T15:05:20.305Z</time></trkpt><trkpt lat="46.1097092" lon="13.4931923"><ele>299.0</ele><time>2026-05-02T15:05:22.304Z</time></trkpt><trkpt lat="46.1096154" lon="13.493289"><ele>295.75</ele><time>2026-05-02T15:05:24.304Z</time></trkpt><trkpt lat="46.1094967" lon="13.493317"><ele>292.5</ele><time>2026-05-02T15:05:26.305Z</time></trkpt><trkpt lat="46.1093803" lon="13.4933428"><ele>289.25</ele><time>2026-05-02T15:05:28.305Z</time></trkpt><trkpt lat="46.1092627" lon="13.4933656"><ele>286.0</ele><time>2026-05-02T15:05:30.305Z</time></trkpt><trkpt lat="46.1091354" lon="13.4933733"><ele>283.57142857142856</ele><time>2026-05-02T15:05:32.305Z</time></trkpt><trkpt lat="46.1090663" lon="13.493379"><ele>281.1428571428571</ele><time>2026-05-02T15:05:33.305Z</time></trkpt><trkpt lat="46.1090033" lon="13.493353"><ele>278.7142857142857</ele><time>2026-05-02T15:05:34.304Z</time></trkpt><trkpt lat="46.1089327" lon="13.4933063"><ele>276.2857142857143</ele><time>2026-05-02T15:05:35.305Z</time></trkpt><trkpt lat="46.1088721" lon="13.4932642"><ele>273.8571428571429</ele><time>2026-05-02T15:05:36.305Z</time></trkpt><trkpt lat="46.1088042" lon="13.4932172"><ele>271.42857142857144</ele><time>2026-05-02T15:05:37.304Z</time></trkpt><trkpt lat="46.1087284" lon="13.493178"><ele>269.0</ele><time>2026-05-02T15:05:38.304Z</time></trkpt><trkpt lat="46.1086568" lon="13.4931294"><ele>269.0</ele><time>2026-05-02T15:05:39.305Z</time></trkpt><trkpt lat="46.1085935" lon="13.4930868"><ele>269.0</ele><time>2026-05-02T15:05:40.305Z</time></trkpt><trkpt lat="46.1085342" lon="13.4930382"><ele>269.0</ele><time>2026-05-02T15:05:41.304Z</time></trkpt><trkpt lat="46.1084749" lon="13.4929912"><ele>269.0</ele><time>2026-05-02T15:05:42.304Z</time></trkpt><trkpt lat="46.1084132" lon="13.4929478"><ele>269.0</ele><time>2026-05-02T15:05:43.305Z</time></trkpt><trkpt lat="46.1083106" lon="13.4928658"><ele>269.0</ele><time>2026-05-02T15:05:45.304Z</time></trkpt><trkpt lat="46.1082085" lon="13.4929426"><ele>267.14285714285717</ele><time>2026-05-02T15:05:47.305Z</time></trkpt><trkpt lat="46.1081695" lon="13.4930152"><ele>265.28571428571433</ele><time>2026-05-02T15:05:48.304Z</time></trkpt><trkpt lat="46.1081128" lon="13.4930885"><ele>263.42857142857144</ele><time>2026-05-02T15:05:49.305Z</time></trkpt><trkpt lat="46.1080444" lon="13.4931489"><ele>261.57142857142856</ele><time>2026-05-02T15:05:50.304Z</time></trkpt><trkpt lat="46.1079873" lon="13.4932125"><ele>259.71428571428567</ele><time>2026-05-02T15:05:51.305Z</time></trkpt><trkpt lat="46.107931" lon="13.4932786"><ele>257.85714285714283</ele><time>2026-05-02T15:05:52.305Z</time></trkpt><trkpt lat="46.1078726" lon="13.4933428"><ele>256.0</ele><time>2026-05-02T15:05:53.304Z</time></trkpt><trkpt lat="46.1078091" lon="13.493386"><ele>256.0</ele><time>2026-05-02T15:05:54.304Z</time></trkpt><trkpt lat="46.1077447" lon="13.4934078"><ele>256.0</ele><time>2026-05-02T15:05:55.305Z</time></trkpt><trkpt lat="46.1076776" lon="13.4934305"><ele>256.0</ele><time>2026-05-02T15:05:56.305Z</time></trkpt><trkpt lat="46.1075655" lon="13.4934373"><ele>256.0</ele><time>2026-05-02T15:05:58.305Z</time></trkpt><trkpt lat="46.1074698" lon="13.4934169"><ele>256.0</ele><time>2026-05-02T15:06:00.305Z</time></trkpt><trkpt lat="46.1073755" lon="13.493342"><ele>254.60000000000002</ele><time>2026-05-02T15:06:02.304Z</time></trkpt><trkpt lat="46.1072834" lon="13.4932527"><ele>253.20000000000002</ele><time>2026-05-02T15:06:04.305Z</time></trkpt><trkpt lat="46.107179" lon="13.4931711"><ele>251.79999999999998</ele><time>2026-05-02T15:06:06.305Z</time></trkpt><trkpt lat="46.1070809" lon="13.49312"><ele>250.39999999999998</ele><time>2026-05-02T15:06:08.304Z</time></trkpt><trkpt lat="46.1069834" lon="13.4930633"><ele>249.0</ele><time>2026-05-02T15:06:10.304Z</time></trkpt><trkpt lat="46.1068924" lon="13.4930432"><ele>249.0</ele><time>2026-05-02T15:06:12.304Z</time></trkpt><trkpt lat="46.1068003" lon="13.4931289"><ele>249.0</ele><time>2026-05-02T15:06:14.304Z</time></trkpt><trkpt lat="46.1067406" lon="13.4932003"><ele>249.0</ele><time>2026-05-02T15:06:15.304Z</time></trkpt><trkpt lat="46.1066819" lon="13.4932803"><ele>249.0</ele><time>2026-05-02T15:06:16.304Z</time></trkpt><trkpt lat="46.1066285" lon="13.4933687"><ele>249.0</ele><time>2026-05-02T15:06:17.305Z</time></trkpt><trkpt lat="46.1065771" lon="13.493457"><ele>249.0</ele><time>2026-05-02T15:06:18.305Z</time></trkpt><trkpt lat="46.1065272" lon="13.4935361"><ele>250.6</ele><time>2026-05-02T15:06:19.305Z</time></trkpt><trkpt lat="46.1064268" lon="13.4935928"><ele>252.2</ele><time>2026-05-02T15:06:21.305Z</time></trkpt><trkpt lat="46.1063334" lon="13.4935859"><ele>253.79999999999998</ele><time>2026-05-02T15:06:23.304Z</time></trkpt><trkpt lat="46.1062283" lon="13.4935241"><ele>255.39999999999998</ele><time>2026-05-02T15:06:25.305Z</time></trkpt><trkpt lat="46.1061385" lon="13.4934098"><ele>257.0</ele><time>2026-05-02T15:06:27.305Z</time></trkpt><trkpt lat="46.1060941" lon="13.4933347"><ele>257.0</ele><time>2026-05-02T15:06:28.304Z</time></trkpt><trkpt lat="46.1060084" lon="13.4932227"><ele>257.0</ele><time>2026-05-02T15:06:30.305Z</time></trkpt><trkpt lat="46.1059575" lon="13.4931632"><ele>257.0</ele><time>2026-05-02T15:06:31.304Z</time></trkpt><trkpt lat="46.105855" lon="13.4930545"><ele>257.0</ele><time>2026-05-02T15:06:33.305Z</time></trkpt><trkpt lat="46.1057884" lon="13.4930019"><ele>257.0</ele><time>2026-05-02T15:06:34.305Z</time></trkpt><trkpt lat="46.1057257" lon="13.4929643"><ele>265.6</ele><time>2026-05-02T15:06:35.304Z</time></trkpt><trkpt lat="46.1056105" lon="13.4929483"><ele>274.2</ele><time>2026-05-02T15:06:37.305Z</time></trkpt><trkpt lat="46.1055294" lon="13.4930393"><ele>282.8</ele><time>2026-05-02T15:06:39.304Z</time></trkpt><trkpt lat="46.10554" lon="13.4931834"><ele>291.4</ele><time>2026-05-02T15:06:41.304Z</time></trkpt><trkpt lat="46.1055811" lon="13.4932645"><ele>300.0</ele><time>2026-05-02T15:06:42.304Z</time></trkpt><trkpt lat="46.1056235" lon="13.4934494"><ele>299.99999999999994</ele><time>2026-05-02T15:06:44.304Z</time></trkpt><trkpt lat="46.1056399" lon="13.4935515"><ele>300.0</ele><time>2026-05-02T15:06:45.305Z</time></trkpt><trkpt lat="46.1056555" lon="13.4936699"><ele>300.0</ele><time>2026-05-02T15:06:46.305Z</time></trkpt><trkpt lat="46.1056608" lon="13.4937828"><ele>300.0</ele><time>2026-05-02T15:06:47.305Z</time></trkpt><trkpt lat="46.1056688" lon="13.4938745"><ele>300.0</ele><time>2026-05-02T15:06:48.304Z</time></trkpt><trkpt lat="46.1056563" lon="13.4939766"><ele>299.99999999999994</ele><time>2026-05-02T15:06:49.305Z</time></trkpt><trkpt lat="46.1056418" lon="13.4940789"><ele>300.0</ele><time>2026-05-02T15:06:50.305Z</time></trkpt><trkpt lat="46.1056177" lon="13.4941922"><ele>300.5</ele><time>2026-05-02T15:06:51.304Z</time></trkpt><trkpt lat="46.1055851" lon="13.4943142"><ele>301.0</ele><time>2026-05-02T15:06:52.304Z</time></trkpt><trkpt lat="46.1055641" lon="13.4944146"><ele>301.5</ele><time>2026-05-02T15:06:53.305Z</time></trkpt><trkpt lat="46.1055537" lon="13.4945104"><ele>302.0</ele><time>2026-05-02T15:06:54.304Z</time></trkpt><trkpt lat="46.105547" lon="13.4946723"><ele>302.5</ele><time>2026-05-02T15:06:56.305Z</time></trkpt><trkpt lat="46.1055347" lon="13.4948054"><ele>303.0</ele><time>2026-05-02T15:06:58.304Z</time></trkpt><trkpt lat="46.105528" lon="13.4949042"><ele>299.6666666666667</ele><time>2026-05-02T15:07:02.305Z</time></trkpt><trkpt lat="46.1055452" lon="13.4949961"><ele>296.3333333333333</ele><time>2026-05-02T15:07:51.305Z</time></trkpt><trkpt lat="46.1055439" lon="13.4950946"><ele>293.0</ele><time>2026-05-02T15:07:57.304Z</time></trkpt><trkpt lat="46.105533" lon="13.4952078"><ele>289.66666666666663</ele><time>2026-05-02T15:08:00.304Z</time></trkpt><trkpt lat="46.1055025" lon="13.4952901"><ele>286.3333333333333</ele><time>2026-05-02T15:08:02.304Z</time></trkpt><trkpt lat="46.1054554" lon="13.4953755"><ele>283.0</ele><time>2026-05-02T15:08:04.305Z</time></trkpt><trkpt lat="46.1053805" lon="13.4954989"><ele>279.8333333333333</ele><time>2026-05-02T15:08:06.305Z</time></trkpt><trkpt lat="46.1052918" lon="13.4956423"><ele>276.66666666666663</ele><time>2026-05-02T15:08:08.305Z</time></trkpt><trkpt lat="46.1052481" lon="13.495717"><ele>273.5</ele><time>2026-05-02T15:08:09.304Z</time></trkpt><trkpt lat="46.1051994" lon="13.4957842"><ele>270.3333333333333</ele><time>2026-05-02T15:08:10.304Z</time></trkpt><trkpt lat="46.1051331" lon="13.4958693"><ele>267.1666666666667</ele><time>2026-05-02T15:08:11.305Z</time></trkpt><trkpt lat="46.1050633" lon="13.4959513"><ele>264.0</ele><time>2026-05-02T15:08:12.305Z</time></trkpt><trkpt lat="46.1050073" lon="13.4960246"><ele>264.0</ele><time>2026-05-02T15:08:13.304Z</time></trkpt><trkpt lat="46.1049581" lon="13.496112"><ele>264.0</ele><time>2026-05-02T15:08:14.305Z</time></trkpt><trkpt lat="46.1049128" lon="13.4961956"><ele>264.0</ele><time>2026-05-02T15:08:15.305Z</time></trkpt><trkpt lat="46.1048703" lon="13.4962966"><ele>264.0</ele><time>2026-05-02T15:08:16.305Z</time></trkpt><trkpt lat="46.1048279" lon="13.4963977"><ele>264.0</ele><time>2026-05-02T15:08:17.305Z</time></trkpt><trkpt lat="46.104795" lon="13.4965014"><ele>264.0</ele><time>2026-05-02T15:08:18.304Z</time></trkpt><trkpt lat="46.104721" lon="13.4966538"><ele>271.4</ele><time>2026-05-02T15:08:20.304Z</time></trkpt><trkpt lat="46.1046825" lon="13.4967425"><ele>278.79999999999995</ele><time>2026-05-02T15:08:21.304Z</time></trkpt><trkpt lat="46.1046485" lon="13.4968404"><ele>286.20000000000005</ele><time>2026-05-02T15:08:22.304Z</time></trkpt><trkpt lat="46.104599" lon="13.4970096"><ele>293.6</ele><time>2026-05-02T15:08:24.304Z</time></trkpt><trkpt lat="46.1045597" lon="13.4971796"><ele>301.0</ele><time>2026-05-02T15:08:26.304Z</time></trkpt><trkpt lat="46.1045738" lon="13.4972919"><ele>302.6</ele><time>2026-05-02T15:08:28.305Z</time></trkpt><trkpt lat="46.1046486" lon="13.4973835"><ele>304.20000000000005</ele><time>2026-05-02T15:08:30.304Z</time></trkpt><trkpt lat="46.1047535" lon="13.4974482"><ele>305.79999999999995</ele><time>2026-05-02T15:08:32.305Z</time></trkpt><trkpt lat="46.1048559" lon="13.4975599"><ele>307.4</ele><time>2026-05-02T15:08:34.304Z</time></trkpt><trkpt lat="46.104894" lon="13.4976385"><ele>309.0</ele><time>2026-05-02T15:08:35.304Z</time></trkpt><trkpt lat="46.1049338" lon="13.4977206"><ele>305.5</ele><time>2026-05-02T15:08:36.304Z</time></trkpt><trkpt lat="46.1049728" lon="13.4978142"><ele>302.0</ele><time>2026-05-02T15:08:37.305Z</time></trkpt><trkpt lat="46.1050233" lon="13.4979041"><ele>298.5</ele><time>2026-05-02T15:08:38.304Z</time></trkpt><trkpt lat="46.1050856" lon="13.4980009"><ele>295.0</ele><time>2026-05-02T15:08:39.304Z</time></trkpt><trkpt lat="46.1051486" lon="13.4980823"><ele>291.5</ele><time>2026-05-02T15:08:40.305Z</time></trkpt><trkpt lat="46.1052088" lon="13.4981829"><ele>288.0</ele><time>2026-05-02T15:08:41.305Z</time></trkpt><trkpt lat="46.1052584" lon="13.498284"><ele>288.0</ele><time>2026-05-02T15:08:42.305Z</time></trkpt><trkpt lat="46.1053043" lon="13.4984011"><ele>288.0</ele><time>2026-05-02T15:08:43.305Z</time></trkpt><trkpt lat="46.1053488" lon="13.4985241"><ele>288.0</ele><time>2026-05-02T15:08:44.304Z</time></trkpt><trkpt lat="46.1054015" lon="13.4986394"><ele>288.0</ele><time>2026-05-02T15:08:45.305Z</time></trkpt><trkpt lat="46.1054489" lon="13.4987314"><ele>288.0</ele><time>2026-05-02T15:08:46.304Z</time></trkpt><trkpt lat="46.1055037" lon="13.4988117"><ele>288.0</ele><time>2026-05-02T15:08:47.304Z</time></trkpt><trkpt lat="46.1055714" lon="13.4988943"><ele>286.0</ele><time>2026-05-02T15:08:48.304Z</time></trkpt><trkpt lat="46.105618" lon="13.4989613"><ele>284.0</ele><time>2026-05-02T15:08:49.304Z</time></trkpt><trkpt lat="46.1056839" lon="13.4990305"><ele>282.0</ele><time>2026-05-02T15:08:50.304Z</time></trkpt><trkpt lat="46.1057593" lon="13.4990864"><ele>280.0</ele><time>2026-05-02T15:08:51.305Z</time></trkpt><trkpt lat="46.105834" lon="13.4991313"><ele>278.0</ele><time>2026-05-02T15:08:52.305Z</time></trkpt><trkpt lat="46.1058974" lon="13.4991725"><ele>276.0</ele><time>2026-05-02T15:08:53.304Z</time></trkpt><trkpt lat="46.1060244" lon="13.499196"><ele>276.0</ele><time>2026-05-02T15:08:55.304Z</time></trkpt><trkpt lat="46.1061106" lon="13.4991792"><ele>276.0</ele><time>2026-05-02T15:08:56.304Z</time></trkpt><trkpt lat="46.1061819" lon="13.4991409"><ele>276.0</ele><time>2026-05-02T15:08:57.304Z</time></trkpt><trkpt lat="46.1062523" lon="13.499111"><ele>276.0</ele><time>2026-05-02T15:08:58.305Z</time></trkpt><trkpt lat="46.1063101" lon="13.4990703"><ele>276.0</ele><time>2026-05-02T15:08:59.304Z</time></trkpt><trkpt lat="46.1063862" lon="13.4990298"><ele>276.0</ele><time>2026-05-02T15:09:00.305Z</time></trkpt><trkpt lat="46.1064504" lon="13.4989857"><ele>276.0</ele><time>2026-05-02T15:09:01.304Z</time></trkpt><trkpt lat="46.1065147" lon="13.4989655"><ele>276.0</ele><time>2026-05-02T15:09:02.304Z</time></trkpt><trkpt lat="46.1065906" lon="13.4989663"><ele>276.0</ele><time>2026-05-02T15:09:03.305Z</time></trkpt><trkpt lat="46.1066683" lon="13.4989806"><ele>276.0</ele><time>2026-05-02T15:09:04.305Z</time></trkpt><trkpt lat="46.106744" lon="13.4989971"><ele>276.0</ele><time>2026-05-02T15:09:05.304Z</time></trkpt><trkpt lat="46.106818" lon="13.4990134"><ele>276.0</ele><time>2026-05-02T15:09:06.304Z</time></trkpt><trkpt lat="46.1068885" lon="13.4990188"><ele>276.0</ele><time>2026-05-02T15:09:07.305Z</time></trkpt><trkpt lat="46.1069606" lon="13.4990092"><ele>271.0</ele><time>2026-05-02T15:09:08.305Z</time></trkpt><trkpt lat="46.1070453" lon="13.4989738"><ele>266.0</ele><time>2026-05-02T15:09:09.305Z</time></trkpt><trkpt lat="46.1071427" lon="13.498957"><ele>261.0</ele><time>2026-05-02T15:09:10.304Z</time></trkpt><trkpt lat="46.1072383" lon="13.4989691"><ele>256.0</ele><time>2026-05-02T15:09:11.305Z</time></trkpt><trkpt lat="46.1073119" lon="13.4989899"><ele>251.0</ele><time>2026-05-02T15:09:12.304Z</time></trkpt><trkpt lat="46.1074213" lon="13.4989945"><ele>248.0</ele><time>2026-05-02T15:09:14.304Z</time></trkpt><trkpt lat="46.1075115" lon="13.4989933"><ele>245.00000000000003</ele><time>2026-05-02T15:09:16.304Z</time></trkpt><trkpt lat="46.1075966" lon="13.4989916"><ele>242.00000000000003</ele><time>2026-05-02T15:09:18.305Z</time></trkpt><trkpt lat="46.1076781" lon="13.4990152"><ele>239.0</ele><time>2026-05-02T15:09:20.304Z</time></trkpt><trkpt lat="46.1077789" lon="13.4990736"><ele>236.0</ele><time>2026-05-02T15:09:22.304Z</time></trkpt><trkpt lat="46.107883" lon="13.4991574"><ele>236.0</ele><time>2026-05-02T15:09:24.304Z</time></trkpt><trkpt lat="46.1079313" lon="13.4992162"><ele>236.0</ele><time>2026-05-02T15:09:25.305Z</time></trkpt><trkpt lat="46.1079769" lon="13.4992952"><ele>236.0</ele><time>2026-05-02T15:09:26.304Z</time></trkpt><trkpt lat="46.1080242" lon="13.4993889"><ele>236.0</ele><time>2026-05-02T15:09:27.305Z</time></trkpt><trkpt lat="46.108064" lon="13.4994919"><ele>236.0</ele><time>2026-05-02T15:09:28.304Z</time></trkpt><trkpt lat="46.1080978" lon="13.49958"><ele>236.0</ele><time>2026-05-02T15:09:29.305Z</time></trkpt><trkpt lat="46.1081249" lon="13.4996887"><ele>236.0</ele><time>2026-05-02T15:09:30.305Z</time></trkpt><trkpt lat="46.1081461" lon="13.4997956"><ele>236.83333333333334</ele><time>2026-05-02T15:09:31.304Z</time></trkpt><trkpt lat="46.1081564" lon="13.4999236"><ele>237.66666666666669</ele><time>2026-05-02T15:09:32.304Z</time></trkpt><trkpt lat="46.10817" lon="13.5000377"><ele>238.5</ele><time>2026-05-02T15:09:33.304Z</time></trkpt><trkpt lat="46.1081898" lon="13.5001595"><ele>239.33333333333331</ele><time>2026-05-02T15:09:34.305Z</time></trkpt><trkpt lat="46.1082065" lon="13.5002719"><ele>240.16666666666666</ele><time>2026-05-02T15:09:35.304Z</time></trkpt><trkpt lat="46.1082245" lon="13.500376"><ele>241.0</ele><time>2026-05-02T15:09:36.304Z</time></trkpt><trkpt lat="46.1082637" lon="13.5004608"><ele>234.16666666666666</ele><time>2026-05-02T15:09:37.304Z</time></trkpt><trkpt lat="46.1083223" lon="13.5004962"><ele>227.33333333333331</ele><time>2026-05-02T15:09:38.305Z</time></trkpt><trkpt lat="46.108395" lon="13.5005196"><ele>220.5</ele><time>2026-05-02T15:09:39.304Z</time></trkpt><trkpt lat="46.1084734" lon="13.5005235"><ele>213.66666666666669</ele><time>2026-05-02T15:09:40.304Z</time></trkpt><trkpt lat="46.1085501" lon="13.5005268"><ele>206.83333333333334</ele><time>2026-05-02T15:09:41.305Z</time></trkpt><trkpt lat="46.1086276" lon="13.5005328"><ele>200.0</ele><time>2026-05-02T15:09:42.305Z</time></trkpt><trkpt lat="46.1087505" lon="13.5005267"><ele>200.00000000000003</ele><time>2026-05-02T15:09:44.304Z</time></trkpt><trkpt lat="46.1088168" lon="13.5005028"><ele>200.0</ele><time>2026-05-02T15:09:45.304Z</time></trkpt><trkpt lat="46.1088905" lon="13.5004805"><ele>200.0</ele><time>2026-05-02T15:09:46.305Z</time></trkpt><trkpt lat="46.1089545" lon="13.5004366"><ele>200.0</ele><time>2026-05-02T15:09:47.305Z</time></trkpt><trkpt lat="46.1090208" lon="13.500405"><ele>200.0</ele><time>2026-05-02T15:09:48.305Z</time></trkpt><trkpt lat="46.1090824" lon="13.5003776"><ele>200.00000000000003</ele><time>2026-05-02T15:09:49.305Z</time></trkpt><trkpt lat="46.1091506" lon="13.5003462"><ele>200.0</ele><time>2026-05-02T15:09:50.304Z</time></trkpt><trkpt lat="46.1092145" lon="13.500333"><ele>199.00000000000003</ele><time>2026-05-02T15:09:51.304Z</time></trkpt><trkpt lat="46.1092789" lon="13.5003224"><ele>198.0</ele><time>2026-05-02T15:09:52.305Z</time></trkpt><trkpt lat="46.1093505" lon="13.5003265"><ele>197.0</ele><time>2026-05-02T15:09:53.305Z</time></trkpt><trkpt lat="46.1094293" lon="13.5003337"><ele>196.0</ele><time>2026-05-02T15:09:54.305Z</time></trkpt><trkpt lat="46.1095202" lon="13.500344"><ele>195.00000000000003</ele><time>2026-05-02T15:09:55.305Z</time></trkpt><trkpt lat="46.1096064" lon="13.5003565"><ele>194.0</ele><time>2026-05-02T15:09:56.304Z</time></trkpt><trkpt lat="46.1096752" lon="13.5003718"><ele>194.00000000000003</ele><time>2026-05-02T15:09:57.305Z</time></trkpt><trkpt lat="46.1097479" lon="13.5003964"><ele>194.0</ele><time>2026-05-02T15:09:58.305Z</time></trkpt><trkpt lat="46.1098203" lon="13.5004503"><ele>194.0</ele><time>2026-05-02T15:09:59.305Z</time></trkpt><trkpt lat="46.1098844" lon="13.5005134"><ele>194.0</ele><time>2026-05-02T15:10:00.305Z</time></trkpt><trkpt lat="46.1099522" lon="13.5005951"><ele>194.00000000000003</ele><time>2026-05-02T15:10:01.304Z</time></trkpt><trkpt lat="46.1100098" lon="13.5006817"><ele>194.0</ele><time>2026-05-02T15:10:02.305Z</time></trkpt><trkpt lat="46.1100676" lon="13.5007759"><ele>192.00000000000003</ele><time>2026-05-02T15:10:03.304Z</time></trkpt><trkpt lat="46.110119" lon="13.5008567"><ele>190.0</ele><time>2026-05-02T15:10:04.304Z</time></trkpt><trkpt lat="46.1101737" lon="13.5009332"><ele>188.0</ele><time>2026-05-02T15:10:05.305Z</time></trkpt><trkpt lat="46.1102351" lon="13.5010256"><ele>186.0</ele><time>2026-05-02T15:10:06.305Z</time></trkpt><trkpt lat="46.1103004" lon="13.5011114"><ele>184.0</ele><time>2026-05-02T15:10:07.305Z</time></trkpt><trkpt lat="46.1103677" lon="13.5011893"><ele>182.0</ele><time>2026-05-02T15:10:08.304Z</time></trkpt><trkpt lat="46.1104251" lon="13.5012651"><ele>180.71428571428572</ele><time>2026-05-02T15:10:09.304Z</time></trkpt><trkpt lat="46.110472" lon="13.5013436"><ele>179.42857142857144</ele><time>2026-05-02T15:10:10.305Z</time></trkpt><trkpt lat="46.1105202" lon="13.501427"><ele>178.14285714285714</ele><time>2026-05-02T15:10:11.305Z</time></trkpt><trkpt lat="46.1105683" lon="13.501506"><ele>176.85714285714286</ele><time>2026-05-02T15:10:12.304Z</time></trkpt><trkpt lat="46.1106066" lon="13.5015851"><ele>175.57142857142858</ele><time>2026-05-02T15:10:13.304Z</time></trkpt><trkpt lat="46.1106295" lon="13.5016838"><ele>174.28571428571428</ele><time>2026-05-02T15:10:14.305Z</time></trkpt><trkpt lat="46.1106486" lon="13.5017835"><ele>173.0</ele><time>2026-05-02T15:10:15.305Z</time></trkpt><trkpt lat="46.1106598" lon="13.5018887"><ele>173.0</ele><time>2026-05-02T15:10:16.304Z</time></trkpt><trkpt lat="46.1106747" lon="13.5019855"><ele>173.0</ele><time>2026-05-02T15:10:17.304Z</time></trkpt><trkpt lat="46.110704" lon="13.502078"><ele>173.0</ele><time>2026-05-02T15:10:18.304Z</time></trkpt><trkpt lat="46.1107472" lon="13.5021606"><ele>173.0</ele><time>2026-05-02T15:10:19.305Z</time></trkpt><trkpt lat="46.1107933" lon="13.5022584"><ele>173.0</ele><time>2026-05-02T15:10:20.305Z</time></trkpt><trkpt lat="46.110852" lon="13.5023471"><ele>173.0</ele><time>2026-05-02T15:10:21.305Z</time></trkpt><trkpt lat="46.1109142" lon="13.5024212"><ele>170.60000000000002</ele><time>2026-05-02T15:10:22.304Z</time></trkpt><trkpt lat="46.1109668" lon="13.5024944"><ele>168.20000000000002</ele><time>2026-05-02T15:10:23.305Z</time></trkpt><trkpt lat="46.1110606" lon="13.502633"><ele>165.8</ele><time>2026-05-02T15:10:25.304Z</time></trkpt><trkpt lat="46.1111714" lon="13.5027226"><ele>163.4</ele><time>2026-05-02T15:10:27.304Z</time></trkpt><trkpt lat="46.1112739" lon="13.5027836"><ele>161.0</ele><time>2026-05-02T15:10:29.304Z</time></trkpt><trkpt lat="46.1113689" lon="13.5028492"><ele>161.0</ele><time>2026-05-02T15:10:31.304Z</time></trkpt><trkpt lat="46.1114339" lon="13.5029075"><ele>161.0</ele><time>2026-05-02T15:10:32.305Z</time></trkpt><trkpt lat="46.1115015" lon="13.5029528"><ele>161.0</ele><time>2026-05-02T15:10:33.305Z</time></trkpt><trkpt lat="46.1115726" lon="13.5029916"><ele>161.0</ele><time>2026-05-02T15:10:34.305Z</time></trkpt><trkpt lat="46.1116578" lon="13.5030179"><ele>161.0</ele><time>2026-05-02T15:10:35.305Z</time></trkpt><trkpt lat="46.111751" lon="13.5030285"><ele>161.0</ele><time>2026-05-02T15:10:36.304Z</time></trkpt><trkpt lat="46.1118487" lon="13.503045"><ele>159.20000000000002</ele><time>2026-05-02T15:10:37.305Z</time></trkpt><trkpt lat="46.1119577" lon="13.5030633"><ele>157.4</ele><time>2026-05-02T15:10:38.304Z</time></trkpt><trkpt lat="46.1120725" lon="13.5030773"><ele>155.6</ele><time>2026-05-02T15:10:39.304Z</time></trkpt><trkpt lat="46.1121604" lon="13.5031045"><ele>153.8</ele><time>2026-05-02T15:10:40.305Z</time></trkpt><trkpt lat="46.1122294" lon="13.50315"><ele>152.0</ele><time>2026-05-02T15:10:41.304Z</time></trkpt><trkpt lat="46.1122756" lon="13.5033107"><ele>152.0</ele><time>2026-05-02T15:10:43.304Z</time></trkpt><trkpt lat="46.1122764" lon="13.5034092"><ele>152.0</ele><time>2026-05-02T15:10:44.305Z</time></trkpt><trkpt lat="46.1122708" lon="13.5035215"><ele>152.0</ele><time>2026-05-02T15:10:45.304Z</time></trkpt><trkpt lat="46.1122609" lon="13.5036328"><ele>152.0</ele><time>2026-05-02T15:10:46.304Z</time></trkpt><trkpt lat="46.1122414" lon="13.5037465"><ele>152.0</ele><time>2026-05-02T15:10:47.305Z</time></trkpt><trkpt lat="46.112216" lon="13.5038517"><ele>152.0</ele><time>2026-05-02T15:10:48.304Z</time></trkpt><trkpt lat="46.1121619" lon="13.5039839"><ele>151.66666666666666</ele><time>2026-05-02T15:10:50.304Z</time></trkpt><trkpt lat="46.1121124" lon="13.5041161"><ele>151.33333333333331</ele><time>2026-05-02T15:10:52.304Z</time></trkpt><trkpt lat="46.1120789" lon="13.5041958"><ele>151.0</ele><time>2026-05-02T15:10:54.304Z</time></trkpt><trkpt lat="46.1120474" lon="13.5043019"><ele>150.66666666666666</ele><time>2026-05-02T15:10:57.305Z</time></trkpt><trkpt lat="46.1120101" lon="13.5044065"><ele>150.33333333333334</ele><time>2026-05-02T15:10:59.304Z</time></trkpt><trkpt lat="46.1119697" lon="13.5045318"><ele>150.0</ele><time>2026-05-02T15:11:01.305Z</time></trkpt><trkpt lat="46.1119457" lon="13.5046223"><ele>149.99999999999997</ele><time>2026-05-02T15:11:02.304Z</time></trkpt><trkpt lat="46.1119084" lon="13.504712"><ele>150.0</ele><time>2026-05-02T15:11:03.305Z</time></trkpt><trkpt lat="46.1118756" lon="13.5047971"><ele>150.0</ele><time>2026-05-02T15:11:04.305Z</time></trkpt><trkpt lat="46.1118416" lon="13.5048931"><ele>150.0</ele><time>2026-05-02T15:11:05.304Z</time></trkpt><trkpt lat="46.1118187" lon="13.5050015"><ele>150.0</ele><time>2026-05-02T15:11:06.305Z</time></trkpt><trkpt lat="46.1118105" lon="13.5051054"><ele>149.99999999999997</ele><time>2026-05-02T15:11:07.304Z</time></trkpt><trkpt lat="46.1118236" lon="13.5051981"><ele>150.0</ele><time>2026-05-02T15:11:08.305Z</time></trkpt><trkpt lat="46.1118571" lon="13.5052806"><ele>152.6</ele><time>2026-05-02T15:11:09.305Z</time></trkpt><trkpt lat="46.1119271" lon="13.5054396"><ele>155.2</ele><time>2026-05-02T15:11:11.305Z</time></trkpt><trkpt lat="46.1119703" lon="13.5055304"><ele>157.8</ele><time>2026-05-02T15:11:12.304Z</time></trkpt><trkpt lat="46.1120195" lon="13.5056201"><ele>160.4</ele><time>2026-05-02T15:11:13.304Z</time></trkpt><trkpt lat="46.1120742" lon="13.5057154"><ele>163.0</ele><time>2026-05-02T15:11:14.305Z</time></trkpt><trkpt lat="46.1121294" lon="13.5058063"><ele>163.0</ele><time>2026-05-02T15:11:15.305Z</time></trkpt><trkpt lat="46.1121834" lon="13.5058886"><ele>163.0</ele><time>2026-05-02T15:11:16.305Z</time></trkpt><trkpt lat="46.1122364" lon="13.505961"><ele>163.0</ele><time>2026-05-02T15:11:17.305Z</time></trkpt><trkpt lat="46.1122786" lon="13.5060297"><ele>163.0</ele><time>2026-05-02T15:11:18.305Z</time></trkpt><trkpt lat="46.1123516" lon="13.5061568"><ele>163.0</ele><time>2026-05-02T15:11:20.305Z</time></trkpt><trkpt lat="46.1123982" lon="13.5062187"><ele>163.0</ele><time>2026-05-02T15:11:21.304Z</time></trkpt><trkpt lat="46.1124741" lon="13.5063376"><ele>165.0</ele><time>2026-05-02T15:11:23.304Z</time></trkpt><trkpt lat="46.1125519" lon="13.5064953"><ele>167.0</ele><time>2026-05-02T15:11:25.304Z</time></trkpt><trkpt lat="46.1125954" lon="13.5065688"><ele>169.0</ele><time>2026-05-02T15:11:26.304Z</time></trkpt><trkpt lat="46.1126464" lon="13.5066397"><ele>171.0</ele><time>2026-05-02T15:11:27.304Z</time></trkpt><trkpt lat="46.1127035" lon="13.5066967"><ele>173.0</ele><time>2026-05-02T15:11:28.304Z</time></trkpt><trkpt lat="46.1127608" lon="13.5067456"><ele>175.0</ele><time>2026-05-02T15:11:29.304Z</time></trkpt><trkpt lat="46.1128145" lon="13.5067936"><ele>175.0</ele><time>2026-05-02T15:11:30.304Z</time></trkpt><trkpt lat="46.1128758" lon="13.5068371"><ele>175.0</ele><time>2026-05-02T15:11:31.304Z</time></trkpt><trkpt lat="46.1129358" lon="13.5068895"><ele>175.0</ele><time>2026-05-02T15:11:32.304Z</time></trkpt><trkpt lat="46.1129902" lon="13.5069668"><ele>175.0</ele><time>2026-05-02T15:11:33.305Z</time></trkpt><trkpt lat="46.1130476" lon="13.5070649"><ele>175.0</ele><time>2026-05-02T15:11:34.304Z</time></trkpt><trkpt lat="46.1130954" lon="13.507174"><ele>175.0</ele><time>2026-05-02T15:11:35.305Z</time></trkpt><trkpt lat="46.1131393" lon="13.5072982"><ele>176.6</ele><time>2026-05-02T15:11:36.305Z</time></trkpt><trkpt lat="46.1131806" lon="13.5074026"><ele>178.2</ele><time>2026-05-02T15:11:37.304Z</time></trkpt><trkpt lat="46.1132165" lon="13.5074857"><ele>179.8</ele><time>2026-05-02T15:11:38.304Z</time></trkpt><trkpt lat="46.1132633" lon="13.5076116"><ele>181.4</ele><time>2026-05-02T15:11:40.304Z</time></trkpt><trkpt lat="46.1133131" lon="13.5077826"><ele>183.0</ele><time>2026-05-02T15:11:42.304Z</time></trkpt><trkpt lat="46.1133394" lon="13.5078877"><ele>178.33333333333334</ele><time>2026-05-02T15:11:43.304Z</time></trkpt><trkpt lat="46.1133626" lon="13.508002"><ele>173.66666666666666</ele><time>2026-05-02T15:11:44.304Z</time></trkpt><trkpt lat="46.1133811" lon="13.5081177"><ele>169.0</ele><time>2026-05-02T15:11:45.305Z</time></trkpt><trkpt lat="46.1134219" lon="13.5082274"><ele>164.33333333333331</ele><time>2026-05-02T15:11:46.304Z</time></trkpt><trkpt lat="46.1134716" lon="13.508332"><ele>159.66666666666666</ele><time>2026-05-02T15:11:47.305Z</time></trkpt><trkpt lat="46.113521" lon="13.5084192"><ele>155.0</ele><time>2026-05-02T15:11:48.304Z</time></trkpt><trkpt lat="46.1135661" lon="13.5084984"><ele>155.0</ele><time>2026-05-02T15:11:49.305Z</time></trkpt><trkpt lat="46.1136222" lon="13.5085737"><ele>155.0</ele><time>2026-05-02T15:11:50.304Z</time></trkpt><trkpt lat="46.1136788" lon="13.5086623"><ele>155.0</ele><time>2026-05-02T15:11:51.304Z</time></trkpt><trkpt lat="46.1137353" lon="13.5087563"><ele>155.0</ele><time>2026-05-02T15:11:52.304Z</time></trkpt><trkpt lat="46.1137887" lon="13.5088513"><ele>155.0</ele><time>2026-05-02T15:11:53.305Z</time></trkpt><trkpt lat="46.1138443" lon="13.508947"><ele>155.0</ele><time>2026-05-02T15:11:54.304Z</time></trkpt><trkpt lat="46.113894" lon="13.5090328"><ele>155.5</ele><time>2026-05-02T15:11:55.304Z</time></trkpt><trkpt lat="46.1139279" lon="13.5091094"><ele>156.0</ele><time>2026-05-02T15:11:56.304Z</time></trkpt><trkpt lat="46.1139206" lon="13.5092327"><ele>156.5</ele><time>2026-05-02T15:11:58.304Z</time></trkpt><trkpt lat="46.1138338" lon="13.5093129"><ele>157.0</ele><time>2026-05-02T15:12:00.305Z</time></trkpt><trkpt lat="46.1137816" lon="13.5093735"><ele>157.5</ele><time>2026-05-02T15:12:01.304Z</time></trkpt><trkpt lat="46.1137476" lon="13.509554"><ele>158.0</ele><time>2026-05-02T15:12:03.305Z</time></trkpt><trkpt lat="46.1137572" lon="13.5096888"><ele>159.0</ele><time>2026-05-02T15:12:04.304Z</time></trkpt><trkpt lat="46.1137724" lon="13.5098367"><ele>160.0</ele><time>2026-05-02T15:12:05.304Z</time></trkpt><trkpt lat="46.1137764" lon="13.5099594"><ele>161.0</ele><time>2026-05-02T15:12:06.304Z</time></trkpt><trkpt lat="46.1137825" lon="13.510081"><ele>162.0</ele><time>2026-05-02T15:12:07.305Z</time></trkpt><trkpt lat="46.1137893" lon="13.5102198"><ele>163.0</ele><time>2026-05-02T15:12:08.305Z</time></trkpt><trkpt lat="46.1137994" lon="13.5103646"><ele>162.83333333333334</ele><time>2026-05-02T15:12:09.305Z</time></trkpt><trkpt lat="46.1138119" lon="13.5105055"><ele>162.66666666666669</ele><time>2026-05-02T15:12:10.304Z</time></trkpt><trkpt lat="46.1138225" lon="13.5106304"><ele>162.5</ele><time>2026-05-02T15:12:11.304Z</time></trkpt><trkpt lat="46.1138351" lon="13.5107595"><ele>162.33333333333334</ele><time>2026-05-02T15:12:12.305Z</time></trkpt><trkpt lat="46.113843" lon="13.5108864"><ele>162.16666666666666</ele><time>2026-05-02T15:12:13.305Z</time></trkpt><trkpt lat="46.1138472" lon="13.5110068"><ele>162.0</ele><time>2026-05-02T15:12:14.305Z</time></trkpt><trkpt lat="46.1138458" lon="13.511126"><ele>162.0</ele><time>2026-05-02T15:12:15.304Z</time></trkpt><trkpt lat="46.1138421" lon="13.5112361"><ele>162.0</ele><time>2026-05-02T15:12:16.305Z</time></trkpt><trkpt lat="46.113842" lon="13.5113454"><ele>162.0</ele><time>2026-05-02T15:12:17.304Z</time></trkpt><trkpt lat="46.1138399" lon="13.5114547"><ele>162.0</ele><time>2026-05-02T15:12:18.305Z</time></trkpt><trkpt lat="46.1138341" lon="13.511562"><ele>162.0</ele><time>2026-05-02T15:12:19.304Z</time></trkpt><trkpt lat="46.1138238" lon="13.5116745"><ele>162.0</ele><time>2026-05-02T15:12:20.305Z</time></trkpt><trkpt lat="46.1138178" lon="13.5117749"><ele>162.2</ele><time>2026-05-02T15:12:21.305Z</time></trkpt><trkpt lat="46.1138344" lon="13.511881"><ele>162.39999999999998</ele><time>2026-05-02T15:12:22.305Z</time></trkpt><trkpt lat="46.1138667" lon="13.5120007"><ele>162.60000000000002</ele><time>2026-05-02T15:12:23.304Z</time></trkpt><trkpt lat="46.1139019" lon="13.5121271"><ele>162.8</ele><time>2026-05-02T15:12:24.305Z</time></trkpt><trkpt lat="46.1139315" lon="13.5122739"><ele>163.0</ele><time>2026-05-02T15:12:25.304Z</time></trkpt><trkpt lat="46.1139666" lon="13.5124094"><ele>162.83333333333334</ele><time>2026-05-02T15:12:26.305Z</time></trkpt><trkpt lat="46.1139993" lon="13.5125229"><ele>162.66666666666669</ele><time>2026-05-02T15:12:27.305Z</time></trkpt><trkpt lat="46.114023" lon="13.5126295"><ele>162.5</ele><time>2026-05-02T15:12:28.305Z</time></trkpt><trkpt lat="46.1140354" lon="13.5127418"><ele>162.33333333333334</ele><time>2026-05-02T15:12:29.305Z</time></trkpt><trkpt lat="46.1140487" lon="13.512873"><ele>162.16666666666666</ele><time>2026-05-02T15:12:30.304Z</time></trkpt><trkpt lat="46.1140639" lon="13.5130261"><ele>162.0</ele><time>2026-05-02T15:12:31.304Z</time></trkpt><trkpt lat="46.1140802" lon="13.513167"><ele>162.0</ele><time>2026-05-02T15:12:32.304Z</time></trkpt><trkpt lat="46.1141045" lon="13.513291"><ele>162.0</ele><time>2026-05-02T15:12:33.304Z</time></trkpt><trkpt lat="46.1141328" lon="13.5134346"><ele>162.0</ele><time>2026-05-02T15:12:34.305Z</time></trkpt><trkpt lat="46.1141545" lon="13.5135624"><ele>162.0</ele><time>2026-05-02T15:12:35.304Z</time></trkpt><trkpt lat="46.1141878" lon="13.5136739"><ele>162.0</ele><time>2026-05-02T15:12:36.305Z</time></trkpt><trkpt lat="46.1142315" lon="13.5137803"><ele>162.6</ele><time>2026-05-02T15:12:37.304Z</time></trkpt><trkpt lat="46.1142667" lon="13.5138927"><ele>163.2</ele><time>2026-05-02T15:12:38.305Z</time></trkpt><trkpt lat="46.1143037" lon="13.5139961"><ele>163.8</ele><time>2026-05-02T15:12:39.305Z</time></trkpt><trkpt lat="46.1143346" lon="13.5141284"><ele>164.4</ele><time>2026-05-02T15:12:40.304Z</time></trkpt><trkpt lat="46.1143566" lon="13.5142665"><ele>165.0</ele><time>2026-05-02T15:12:41.305Z</time></trkpt><trkpt lat="46.1143778" lon="13.5144125"><ele>166.0</ele><time>2026-05-02T15:12:42.304Z</time></trkpt><trkpt lat="46.1144124" lon="13.5145744"><ele>167.0</ele><time>2026-05-02T15:12:43.304Z</time></trkpt><trkpt lat="46.1144357" lon="13.5147454"><ele>168.0</ele><time>2026-05-02T15:12:44.304Z</time></trkpt><trkpt lat="46.1144543" lon="13.5149197"><ele>169.0</ele><time>2026-05-02T15:12:45.304Z</time></trkpt><trkpt lat="46.1144529" lon="13.5150968"><ele>169.0</ele><time>2026-05-02T15:12:46.305Z</time></trkpt><trkpt lat="46.114445" lon="13.5152419"><ele>169.0</ele><time>2026-05-02T15:12:47.304Z</time></trkpt><trkpt lat="46.1144521" lon="13.5153653"><ele>169.0</ele><time>2026-05-02T15:12:48.305Z</time></trkpt><trkpt lat="46.114458" lon="13.5154867"><ele>169.0</ele><time>2026-05-02T15:12:49.305Z</time></trkpt><trkpt lat="46.1144535" lon="13.5156005"><ele>169.0</ele><time>2026-05-02T15:12:50.304Z</time></trkpt><trkpt lat="46.1144454" lon="13.5157034"><ele>169.0</ele><time>2026-05-02T15:12:51.305Z</time></trkpt><trkpt lat="46.1144484" lon="13.5158052"><ele>169.5</ele><time>2026-05-02T15:12:52.305Z</time></trkpt><trkpt lat="46.1144607" lon="13.5159073"><ele>170.0</ele><time>2026-05-02T15:12:53.304Z</time></trkpt><trkpt lat="46.1144781" lon="13.5160229"><ele>170.5</ele><time>2026-05-02T15:12:54.304Z</time></trkpt><trkpt lat="46.1144956" lon="13.5161479"><ele>171.0</ele><time>2026-05-02T15:12:55.305Z</time></trkpt><trkpt lat="46.1145285" lon="13.5162778"><ele>171.5</ele><time>2026-05-02T15:12:56.305Z</time></trkpt><trkpt lat="46.114564" lon="13.51639"><ele>172.0</ele><time>2026-05-02T15:12:57.304Z</time></trkpt><trkpt lat="46.1145978" lon="13.5165093"><ele>172.0</ele><time>2026-05-02T15:12:58.304Z</time></trkpt><trkpt lat="46.114664" lon="13.5166276"><ele>172.0</ele><time>2026-05-02T15:12:59.304Z</time></trkpt><trkpt lat="46.1147256" lon="13.5167376"><ele>172.0</ele><time>2026-05-02T15:13:00.304Z</time></trkpt><trkpt lat="46.1147928" lon="13.5168441"><ele>172.0</ele><time>2026-05-02T15:13:01.304Z</time></trkpt><trkpt lat="46.1148627" lon="13.5169793"><ele>172.0</ele><time>2026-05-02T15:13:02.304Z</time></trkpt><trkpt lat="46.114923" lon="13.517107"><ele>168.0</ele><time>2026-05-02T15:13:03.305Z</time></trkpt><trkpt lat="46.1149885" lon="13.5172176"><ele>164.0</ele><time>2026-05-02T15:13:04.305Z</time></trkpt><trkpt lat="46.1150553" lon="13.5173258"><ele>160.0</ele><time>2026-05-02T15:13:05.304Z</time></trkpt><trkpt lat="46.1151284" lon="13.5174276"><ele>156.0</ele><time>2026-05-02T15:13:06.305Z</time></trkpt><trkpt lat="46.115198" lon="13.517525"><ele>152.0</ele><time>2026-05-02T15:13:07.304Z</time></trkpt><trkpt lat="46.1152711" lon="13.517642"><ele>152.0</ele><time>2026-05-02T15:13:08.305Z</time></trkpt><trkpt lat="46.1153358" lon="13.5177397"><ele>152.0</ele><time>2026-05-02T15:13:09.305Z</time></trkpt><trkpt lat="46.1153968" lon="13.5178368"><ele>152.0</ele><time>2026-05-02T15:13:10.304Z</time></trkpt><trkpt lat="46.115458" lon="13.5179215"><ele>152.0</ele><time>2026-05-02T15:13:11.305Z</time></trkpt><trkpt lat="46.1155236" lon="13.5180132"><ele>152.0</ele><time>2026-05-02T15:13:12.304Z</time></trkpt><trkpt lat="46.1155951" lon="13.5180974"><ele>151.79999999999998</ele><time>2026-05-02T15:13:13.304Z</time></trkpt><trkpt lat="46.1156645" lon="13.5181621"><ele>151.6</ele><time>2026-05-02T15:13:14.305Z</time></trkpt><trkpt lat="46.1157433" lon="13.5182286"><ele>151.39999999999998</ele><time>2026-05-02T15:13:15.305Z</time></trkpt><trkpt lat="46.1158229" lon="13.5182938"><ele>151.2</ele><time>2026-05-02T15:13:16.305Z</time></trkpt><trkpt lat="46.1159061" lon="13.5183542"><ele>151.0</ele><time>2026-05-02T15:13:17.305Z</time></trkpt><trkpt lat="46.1159925" lon="13.5184156"><ele>151.0</ele><time>2026-05-02T15:13:18.309Z</time></trkpt><trkpt lat="46.1160863" lon="13.5184726"><ele>151.0</ele><time>2026-05-02T15:13:19.308Z</time></trkpt><trkpt lat="46.1161694" lon="13.5185324"><ele>151.0</ele><time>2026-05-02T15:13:20.308Z</time></trkpt><trkpt lat="46.1162415" lon="13.5186159"><ele>151.0</ele><time>2026-05-02T15:13:21.308Z</time></trkpt><trkpt lat="46.1163133" lon="13.5187141"><ele>151.0</ele><time>2026-05-02T15:13:22.308Z</time></trkpt><trkpt lat="46.1163799" lon="13.518809"><ele>151.0</ele><time>2026-05-02T15:13:23.308Z</time></trkpt><trkpt lat="46.1164511" lon="13.5188896"><ele>151.0</ele><time>2026-05-02T15:13:24.309Z</time></trkpt><trkpt lat="46.1165261" lon="13.518967"><ele>151.0</ele><time>2026-05-02T15:13:25.308Z</time></trkpt><trkpt lat="46.1166088" lon="13.5190338"><ele>151.0</ele><time>2026-05-02T15:13:26.309Z</time></trkpt><trkpt lat="46.1166913" lon="13.519103"><ele>151.0</ele><time>2026-05-02T15:13:27.308Z</time></trkpt><trkpt lat="46.1167806" lon="13.5191747"><ele>151.6</ele><time>2026-05-02T15:13:28.308Z</time></trkpt><trkpt lat="46.1168635" lon="13.5192433"><ele>152.2</ele><time>2026-05-02T15:13:29.309Z</time></trkpt><trkpt lat="46.1169432" lon="13.5193217"><ele>152.8</ele><time>2026-05-02T15:13:30.309Z</time></trkpt><trkpt lat="46.1170158" lon="13.5194014"><ele>153.4</ele><time>2026-05-02T15:13:31.309Z</time></trkpt><trkpt lat="46.1170869" lon="13.5194745"><ele>154.0</ele><time>2026-05-02T15:13:32.308Z</time></trkpt><trkpt lat="46.1171523" lon="13.5195598"><ele>153.66666666666669</ele><time>2026-05-02T15:13:33.308Z</time></trkpt><trkpt lat="46.1172204" lon="13.5196397"><ele>153.33333333333334</ele><time>2026-05-02T15:13:34.308Z</time></trkpt><trkpt lat="46.1172849" lon="13.519722"><ele>153.0</ele><time>2026-05-02T15:13:35.308Z</time></trkpt><trkpt lat="46.1173347" lon="13.5198128"><ele>152.66666666666666</ele><time>2026-05-02T15:13:36.308Z</time></trkpt><trkpt lat="46.1173749" lon="13.5199226"><ele>152.33333333333331</ele><time>2026-05-02T15:13:37.308Z</time></trkpt><trkpt lat="46.1174028" lon="13.520052"><ele>152.0</ele><time>2026-05-02T15:13:38.309Z</time></trkpt><trkpt lat="46.1174293" lon="13.5201835"><ele>152.0</ele><time>2026-05-02T15:13:39.308Z</time></trkpt><trkpt lat="46.1174662" lon="13.5202908"><ele>152.0</ele><time>2026-05-02T15:13:40.308Z</time></trkpt><trkpt lat="46.1175192" lon="13.5203949"><ele>152.0</ele><time>2026-05-02T15:13:41.308Z</time></trkpt><trkpt lat="46.1175755" lon="13.5204963"><ele>152.0</ele><time>2026-05-02T15:13:42.309Z</time></trkpt><trkpt lat="46.1176367" lon="13.5205893"><ele>152.0</ele><time>2026-05-02T15:13:43.309Z</time></trkpt><trkpt lat="46.1176989" lon="13.5206664"><ele>152.0</ele><time>2026-05-02T15:13:44.308Z</time></trkpt><trkpt lat="46.1177591" lon="13.5207454"><ele>152.16666666666666</ele><time>2026-05-02T15:13:45.308Z</time></trkpt><trkpt lat="46.1178274" lon="13.5208255"><ele>152.33333333333331</ele><time>2026-05-02T15:13:46.309Z</time></trkpt><trkpt lat="46.1179077" lon="13.5209015"><ele>152.5</ele><time>2026-05-02T15:13:47.308Z</time></trkpt><trkpt lat="46.1179865" lon="13.5209772"><ele>152.66666666666666</ele><time>2026-05-02T15:13:48.308Z</time></trkpt><trkpt lat="46.1180601" lon="13.5210336"><ele>152.83333333333334</ele><time>2026-05-02T15:13:49.309Z</time></trkpt><trkpt lat="46.1181223" lon="13.5210963"><ele>153.0</ele><time>2026-05-02T15:13:50.309Z</time></trkpt><trkpt lat="46.1181649" lon="13.5211652"><ele>153.0</ele><time>2026-05-02T15:13:51.308Z</time></trkpt><trkpt lat="46.1181873" lon="13.521329"><ele>153.0</ele><time>2026-05-02T15:13:53.308Z</time></trkpt><trkpt lat="46.118169" lon="13.5214278"><ele>153.0</ele><time>2026-05-02T15:13:54.309Z</time></trkpt><trkpt lat="46.1181399" lon="13.5215369"><ele>153.0</ele><time>2026-05-02T15:13:55.308Z</time></trkpt><trkpt lat="46.1181095" lon="13.5216335"><ele>153.0</ele><time>2026-05-02T15:13:56.309Z</time></trkpt><trkpt lat="46.1180911" lon="13.5217709"><ele>153.0</ele><time>2026-05-02T15:13:58.308Z</time></trkpt><trkpt lat="46.1181763" lon="13.5218496"><ele>153.20000000000002</ele><time>2026-05-02T15:14:01.309Z</time></trkpt><trkpt lat="46.1183147" lon="13.5218471"><ele>153.4</ele><time>2026-05-02T15:14:03.309Z</time></trkpt><trkpt lat="46.1184115" lon="13.5218747"><ele>153.60000000000002</ele><time>2026-05-02T15:14:04.309Z</time></trkpt><trkpt lat="46.118507" lon="13.5219294"><ele>153.8</ele><time>2026-05-02T15:14:05.308Z</time></trkpt><trkpt lat="46.1185988" lon="13.5219918"><ele>154.0</ele><time>2026-05-02T15:14:06.309Z</time></trkpt><trkpt lat="46.1187031" lon="13.5220536"><ele>153.8</ele><time>2026-05-02T15:14:07.309Z</time></trkpt><trkpt lat="46.1188036" lon="13.5221075"><ele>153.60000000000002</ele><time>2026-05-02T15:14:08.308Z</time></trkpt><trkpt lat="46.1189016" lon="13.5221658"><ele>153.4</ele><time>2026-05-02T15:14:09.308Z</time></trkpt><trkpt lat="46.1190007" lon="13.5222171"><ele>153.20000000000002</ele><time>2026-05-02T15:14:10.309Z</time></trkpt><trkpt lat="46.1190988" lon="13.5222582"><ele>153.0</ele><time>2026-05-02T15:14:11.309Z</time></trkpt><trkpt lat="46.1191886" lon="13.5222867"><ele>153.33333333333334</ele><time>2026-05-02T15:14:12.309Z</time></trkpt><trkpt lat="46.1192764" lon="13.5222933"><ele>153.66666666666666</ele><time>2026-05-02T15:14:13.308Z</time></trkpt><trkpt lat="46.1193691" lon="13.5222832"><ele>154.0</ele><time>2026-05-02T15:14:14.308Z</time></trkpt><trkpt lat="46.1194588" lon="13.5222682"><ele>154.33333333333331</ele><time>2026-05-02T15:14:15.309Z</time></trkpt><trkpt lat="46.1195371" lon="13.5222779"><ele>154.66666666666666</ele><time>2026-05-02T15:14:16.309Z</time></trkpt><trkpt lat="46.1196054" lon="13.522346"><ele>155.0</ele><time>2026-05-02T15:14:17.308Z</time></trkpt><trkpt lat="46.1196813" lon="13.5224572"><ele>155.0</ele><time>2026-05-02T15:14:18.308Z</time></trkpt><trkpt lat="46.1197548" lon="13.5225624"><ele>155.0</ele><time>2026-05-02T15:14:19.308Z</time></trkpt><trkpt lat="46.1198402" lon="13.5226636"><ele>155.0</ele><time>2026-05-02T15:14:20.308Z</time></trkpt><trkpt lat="46.1199107" lon="13.5227608"><ele>155.0</ele><time>2026-05-02T15:14:21.308Z</time></trkpt><trkpt lat="46.1199623" lon="13.5228732"><ele>155.0</ele><time>2026-05-02T15:14:22.309Z</time></trkpt><trkpt lat="46.1200057" lon="13.5229851"><ele>155.0</ele><time>2026-05-02T15:14:23.308Z</time></trkpt><trkpt lat="46.1200567" lon="13.5230871"><ele>155.0</ele><time>2026-05-02T15:14:24.309Z</time></trkpt><trkpt lat="46.1201068" lon="13.5231864"><ele>155.0</ele><time>2026-05-02T15:14:25.309Z</time></trkpt><trkpt lat="46.1201504" lon="13.5232771"><ele>155.0</ele><time>2026-05-02T15:14:26.308Z</time></trkpt><trkpt lat="46.1201883" lon="13.5233663"><ele>155.0</ele><time>2026-05-02T15:14:27.308Z</time></trkpt><trkpt lat="46.1202554" lon="13.5235068"><ele>155.0</ele><time>2026-05-02T15:14:29.308Z</time></trkpt><trkpt lat="46.1202924" lon="13.5236144"><ele>155.0</ele><time>2026-05-02T15:14:31.309Z</time></trkpt><trkpt lat="46.1202844" lon="13.5237322"><ele>155.0</ele><time>2026-05-02T15:14:33.309Z</time></trkpt><trkpt lat="46.1202248" lon="13.5238068"><ele>155.0</ele><time>2026-05-02T15:14:35.308Z</time></trkpt><trkpt lat="46.1201497" lon="13.5238639"><ele>155.0</ele><time>2026-05-02T15:14:37.309Z</time></trkpt><trkpt lat="46.1200777" lon="13.5239408"><ele>155.0</ele><time>2026-05-02T15:14:40.309Z</time></trkpt><trkpt lat="46.1200272" lon="13.5239968"><ele>155.0</ele><time>2026-05-02T15:14:42.308Z</time></trkpt><trkpt lat="46.1200022" lon="13.5240826"><ele>155.0</ele><time>2026-05-02T15:14:45.308Z</time></trkpt></trkseg><trkseg><trkpt lat="46.1091865" lon="13.4934334"><ele>286.0</ele><time>2026-05-03T07:18:23.015Z</time></trkpt><trkpt lat="46.1092524" lon="13.493436"><ele>286.0</ele><time>2026-05-03T07:18:24.014Z</time></trkpt><trkpt lat="46.1093166" lon="13.4934114"><ele>286.0</ele><time>2026-05-03T07:18:25.014Z</time></trkpt><trkpt lat="46.1093871" lon="13.4933761"><ele>286.0</ele><time>2026-05-03T07:18:26.014Z</time></trkpt><trkpt lat="46.1094526" lon="13.493349"><ele>286.0</ele><time>2026-05-03T07:18:27.015Z</time></trkpt><trkpt lat="46.1095203" lon="13.4933081"><ele>286.0</ele><time>2026-05-03T07:18:28.015Z</time></trkpt><trkpt lat="46.1096017" lon="13.4931995"><ele>286.0</ele><time>2026-05-03T07:18:30.014Z</time></trkpt><trkpt lat="46.1096704" lon="13.4930991"><ele>286.0</ele><time>2026-05-03T07:18:31.015Z</time></trkpt><trkpt lat="46.1097262" lon="13.493016"><ele>286.0</ele><time>2026-05-03T07:18:32.014Z</time></trkpt><trkpt lat="46.1097706" lon="13.4929419"><ele>286.0</ele><time>2026-05-03T07:18:33.014Z</time></trkpt><trkpt lat="46.1098037" lon="13.4928571"><ele>286.0</ele><time>2026-05-03T07:18:34.014Z</time></trkpt><trkpt lat="46.1098374" lon="13.4927375"><ele>286.0</ele><time>2026-05-03T07:18:35.015Z</time></trkpt><trkpt lat="46.1098623" lon="13.4926323"><ele>287.6</ele><time>2026-05-03T07:18:36.015Z</time></trkpt><trkpt lat="46.1098891" lon="13.4924853"><ele>289.20000000000005</ele><time>2026-05-03T07:18:37.015Z</time></trkpt><trkpt lat="46.1099032" lon="13.4923601"><ele>290.79999999999995</ele><time>2026-05-03T07:18:38.015Z</time></trkpt><trkpt lat="46.1099111" lon="13.4922215"><ele>292.4</ele><time>2026-05-03T07:18:39.014Z</time></trkpt><trkpt lat="46.109902" lon="13.4920995"><ele>294.0</ele><time>2026-05-03T07:18:40.015Z</time></trkpt><trkpt lat="46.1098922" lon="13.4919702"><ele>297.59999999999997</ele><time>2026-05-03T07:18:41.015Z</time></trkpt><trkpt lat="46.1098713" lon="13.491845"><ele>301.2</ele><time>2026-05-03T07:18:42.014Z</time></trkpt><trkpt lat="46.1098467" lon="13.4917346"><ele>304.79999999999995</ele><time>2026-05-03T07:18:43.014Z</time></trkpt><trkpt lat="46.1098223" lon="13.4916468"><ele>308.4</ele><time>2026-05-03T07:18:44.014Z</time></trkpt><trkpt lat="46.1097431" lon="13.4915094"><ele>312.0</ele><time>2026-05-03T07:18:46.014Z</time></trkpt><trkpt lat="46.1096248" lon="13.4914418"><ele>312.0</ele><time>2026-05-03T07:18:48.014Z</time></trkpt><trkpt lat="46.1095582" lon="13.4914099"><ele>312.0</ele><time>2026-05-03T07:18:49.014Z</time></trkpt><trkpt lat="46.1094841" lon="13.4913709"><ele>312.0</ele><time>2026-05-03T07:18:50.014Z</time></trkpt><trkpt lat="46.1094229" lon="13.4913319"><ele>312.0</ele><time>2026-05-03T07:18:51.015Z</time></trkpt><trkpt lat="46.1093555" lon="13.4912815"><ele>312.0</ele><time>2026-05-03T07:18:52.015Z</time></trkpt><trkpt lat="46.1092832" lon="13.491217"><ele>312.0</ele><time>2026-05-03T07:18:53.015Z</time></trkpt><trkpt lat="46.1092385" lon="13.4911475"><ele>312.0</ele><time>2026-05-03T07:18:54.014Z</time></trkpt><trkpt lat="46.1091979" lon="13.491066"><ele>312.1666666666667</ele><time>2026-05-03T07:18:55.014Z</time></trkpt><trkpt lat="46.1091518" lon="13.490966"><ele>312.3333333333333</ele><time>2026-05-03T07:18:56.014Z</time></trkpt><trkpt lat="46.1091333" lon="13.490872"><ele>312.5</ele><time>2026-05-03T07:18:57.015Z</time></trkpt><trkpt lat="46.1091222" lon="13.490737"><ele>312.66666666666663</ele><time>2026-05-03T07:18:58.014Z</time></trkpt><trkpt lat="46.1091179" lon="13.4905955"><ele>312.8333333333333</ele><time>2026-05-03T07:18:59.014Z</time></trkpt><trkpt lat="46.109109" lon="13.4904797"><ele>313.0</ele><time>2026-05-03T07:19:00.014Z</time></trkpt><trkpt lat="46.1090941" lon="13.4903604"><ele>315.3333333333333</ele><time>2026-05-03T07:19:01.014Z</time></trkpt><trkpt lat="46.1090731" lon="13.4902317"><ele>317.66666666666663</ele><time>2026-05-03T07:19:02.014Z</time></trkpt><trkpt lat="46.1090482" lon="13.4901155"><ele>320.0</ele><time>2026-05-03T07:19:03.014Z</time></trkpt><trkpt lat="46.1090158" lon="13.4899838"><ele>322.3333333333333</ele><time>2026-05-03T07:19:04.015Z</time></trkpt><trkpt lat="46.1089858" lon="13.4898866"><ele>324.6666666666667</ele><time>2026-05-03T07:19:05.015Z</time></trkpt><trkpt lat="46.1089242" lon="13.4897876"><ele>327.0</ele><time>2026-05-03T07:19:06.015Z</time></trkpt><trkpt lat="46.1088801" lon="13.489705"><ele>327.0</ele><time>2026-05-03T07:19:07.014Z</time></trkpt><trkpt lat="46.108832" lon="13.489632"><ele>327.0</ele><time>2026-05-03T07:19:08.014Z</time></trkpt><trkpt lat="46.1087636" lon="13.4895565"><ele>327.0</ele><time>2026-05-03T07:19:09.015Z</time></trkpt><trkpt lat="46.1086925" lon="13.4895102"><ele>327.0</ele><time>2026-05-03T07:19:10.014Z</time></trkpt><trkpt lat="46.1086211" lon="13.489466"><ele>327.0</ele><time>2026-05-03T07:19:11.015Z</time></trkpt><trkpt lat="46.1085447" lon="13.4894124"><ele>327.0</ele><time>2026-05-03T07:19:12.015Z</time></trkpt><trkpt lat="46.1084657" lon="13.4893569"><ele>323.5</ele><time>2026-05-03T07:19:13.015Z</time></trkpt><trkpt lat="46.1084043" lon="13.4893118"><ele>320.0</ele><time>2026-05-03T07:19:14.014Z</time></trkpt><trkpt lat="46.1083105" lon="13.4892086"><ele>316.5</ele><time>2026-05-03T07:19:16.015Z</time></trkpt><trkpt lat="46.1082549" lon="13.4890875"><ele>313.0</ele><time>2026-05-03T07:19:18.015Z</time></trkpt><trkpt lat="46.1082427" lon="13.4889859"><ele>309.5</ele><time>2026-05-03T07:19:19.014Z</time></trkpt><trkpt lat="46.1082415" lon="13.4888871"><ele>306.0</ele><time>2026-05-03T07:19:20.015Z</time></trkpt><trkpt lat="46.1082465" lon="13.488772"><ele>304.6</ele><time>2026-05-03T07:19:21.014Z</time></trkpt><trkpt lat="46.1082637" lon="13.4886461"><ele>303.20000000000005</ele><time>2026-05-03T07:19:22.015Z</time></trkpt><trkpt lat="46.1082825" lon="13.4885312"><ele>301.79999999999995</ele><time>2026-05-03T07:19:23.014Z</time></trkpt><trkpt lat="46.1082992" lon="13.4883876"><ele>300.4</ele><time>2026-05-03T07:19:24.014Z</time></trkpt><trkpt lat="46.1083139" lon="13.4882427"><ele>299.0</ele><time>2026-05-03T07:19:25.014Z</time></trkpt><trkpt lat="46.1083217" lon="13.4880737"><ele>299.59999999999997</ele><time>2026-05-03T07:19:26.015Z</time></trkpt><trkpt lat="46.1083334" lon="13.4879112"><ele>300.2</ele><time>2026-05-03T07:19:27.015Z</time></trkpt><trkpt lat="46.1083511" lon="13.4877572"><ele>300.79999999999995</ele><time>2026-05-03T07:19:28.015Z</time></trkpt><trkpt lat="46.1083716" lon="13.4876219"><ele>301.4</ele><time>2026-05-03T07:19:29.014Z</time></trkpt><trkpt lat="46.1083751" lon="13.4874898"><ele>302.0</ele><time>2026-05-03T07:19:30.015Z</time></trkpt><trkpt lat="46.1083557" lon="13.4873505"><ele>302.0</ele><time>2026-05-03T07:19:31.014Z</time></trkpt><trkpt lat="46.1083518" lon="13.4872275"><ele>302.0</ele><time>2026-05-03T07:19:32.015Z</time></trkpt><trkpt lat="46.1083448" lon="13.4871062"><ele>302.0</ele><time>2026-05-03T07:19:33.015Z</time></trkpt><trkpt lat="46.108313" lon="13.4869594"><ele>302.0</ele><time>2026-05-03T07:19:34.015Z</time></trkpt><trkpt lat="46.1082972" lon="13.4868185"><ele>302.0</ele><time>2026-05-03T07:19:35.015Z</time></trkpt><trkpt lat="46.108282" lon="13.4866684"><ele>300.83333333333337</ele><time>2026-05-03T07:19:36.015Z</time></trkpt><trkpt lat="46.1082724" lon="13.4865244"><ele>299.6666666666667</ele><time>2026-05-03T07:19:37.014Z</time></trkpt><trkpt lat="46.1082681" lon="13.4863702"><ele>298.5</ele><time>2026-05-03T07:19:38.014Z</time></trkpt><trkpt lat="46.108254" lon="13.4862473"><ele>297.3333333333333</ele><time>2026-05-03T07:19:39.015Z</time></trkpt><trkpt lat="46.1082389" lon="13.4861367"><ele>296.16666666666663</ele><time>2026-05-03T07:19:40.014Z</time></trkpt><trkpt lat="46.1082135" lon="13.4860323"><ele>295.0</ele><time>2026-05-03T07:19:41.014Z</time></trkpt><trkpt lat="46.1081922" lon="13.4859345"><ele>300.8333333333333</ele><time>2026-05-03T07:19:42.014Z</time></trkpt><trkpt lat="46.1081585" lon="13.4858335"><ele>306.66666666666663</ele><time>2026-05-03T07:19:43.014Z</time></trkpt><trkpt lat="46.1081191" lon="13.4857607"><ele>312.5</ele><time>2026-05-03T07:19:44.014Z</time></trkpt><trkpt lat="46.1080819" lon="13.4856796"><ele>318.3333333333333</ele><time>2026-05-03T07:19:45.014Z</time></trkpt><trkpt lat="46.1080451" lon="13.4855806"><ele>324.1666666666667</ele><time>2026-05-03T07:19:46.014Z</time></trkpt><trkpt lat="46.1080135" lon="13.4854453"><ele>330.0</ele><time>2026-05-03T07:19:47.014Z</time></trkpt><trkpt lat="46.1079797" lon="13.4853091"><ele>330.0</ele><time>2026-05-03T07:19:48.014Z</time></trkpt><trkpt lat="46.1079435" lon="13.4851815"><ele>330.0</ele><time>2026-05-03T07:19:49.014Z</time></trkpt><trkpt lat="46.1079068" lon="13.4850574"><ele>330.0</ele><time>2026-05-03T07:19:50.015Z</time></trkpt><trkpt lat="46.1078781" lon="13.4849386"><ele>330.0</ele><time>2026-05-03T07:19:51.015Z</time></trkpt><trkpt lat="46.1078688" lon="13.4848195"><ele>330.0</ele><time>2026-05-03T07:19:52.015Z</time></trkpt><trkpt lat="46.1078729" lon="13.4847119"><ele>330.0</ele><time>2026-05-03T07:19:53.015Z</time></trkpt><trkpt lat="46.1078755" lon="13.4846031"><ele>331.4</ele><time>2026-05-03T07:19:54.014Z</time></trkpt><trkpt lat="46.1078758" lon="13.484478"><ele>332.8</ele><time>2026-05-03T07:19:55.014Z</time></trkpt><trkpt lat="46.1078766" lon="13.4843169"><ele>334.20000000000005</ele><time>2026-05-03T07:19:56.015Z</time></trkpt><trkpt lat="46.1078815" lon="13.4841721"><ele>335.6</ele><time>2026-05-03T07:19:57.014Z</time></trkpt><trkpt lat="46.1078956" lon="13.484042"><ele>337.0</ele><time>2026-05-03T07:19:58.014Z</time></trkpt><trkpt lat="46.1079129" lon="13.4839245"><ele>337.0</ele><time>2026-05-03T07:19:59.014Z</time></trkpt><trkpt lat="46.1079321" lon="13.4838085"><ele>337.0</ele><time>2026-05-03T07:20:00.014Z</time></trkpt><trkpt lat="46.1079561" lon="13.4837053"><ele>337.0</ele><time>2026-05-03T07:20:01.014Z</time></trkpt><trkpt lat="46.107987" lon="13.483611"><ele>337.0</ele><time>2026-05-03T07:20:02.015Z</time></trkpt><trkpt lat="46.1080195" lon="13.4835047"><ele>337.0</ele><time>2026-05-03T07:20:03.014Z</time></trkpt><trkpt lat="46.108059" lon="13.4834018"><ele>337.0</ele><time>2026-05-03T07:20:04.015Z</time></trkpt><trkpt lat="46.1080819" lon="13.4832726"><ele>337.0</ele><time>2026-05-03T07:20:05.015Z</time></trkpt><trkpt lat="46.1080951" lon="13.483133"><ele>337.0</ele><time>2026-05-03T07:20:06.014Z</time></trkpt><trkpt lat="46.1080952" lon="13.4829886"><ele>337.0</ele><time>2026-05-03T07:20:07.014Z</time></trkpt><trkpt lat="46.108097" lon="13.4828527"><ele>337.0</ele><time>2026-05-03T07:20:08.014Z</time></trkpt><trkpt lat="46.1080972" lon="13.4827313"><ele>337.0</ele><time>2026-05-03T07:20:09.015Z</time></trkpt><trkpt lat="46.1081112" lon="13.4826295"><ele>337.0</ele><time>2026-05-03T07:20:10.014Z</time></trkpt><trkpt lat="46.1081324" lon="13.4825237"><ele>337.0</ele><time>2026-05-03T07:20:11.015Z</time></trkpt><trkpt lat="46.1081006" lon="13.4823572"><ele>337.0</ele><time>2026-05-03T07:20:13.014Z</time></trkpt><trkpt lat="46.1080314" lon="13.482198"><ele>337.0</ele><time>2026-05-03T07:20:15.014Z</time></trkpt><trkpt lat="46.1079486" lon="13.4820728"><ele>337.0</ele><time>2026-05-03T07:20:16.015Z</time></trkpt><trkpt lat="46.1078788" lon="13.4819533"><ele>334.0</ele><time>2026-05-03T07:20:17.015Z</time></trkpt><trkpt lat="46.107813" lon="13.4818504"><ele>331.0</ele><time>2026-05-03T07:20:18.014Z</time></trkpt><trkpt lat="46.1077579" lon="13.4817645"><ele>328.0</ele><time>2026-05-03T07:20:19.014Z</time></trkpt><trkpt lat="46.107713" lon="13.4816921"><ele>325.0</ele><time>2026-05-03T07:20:20.014Z</time></trkpt><trkpt lat="46.1076667" lon="13.4816027"><ele>322.0</ele><time>2026-05-03T07:20:21.015Z</time></trkpt><trkpt lat="46.1076273" lon="13.4814962"><ele>319.0</ele><time>2026-05-03T07:20:22.015Z</time></trkpt><trkpt lat="46.1075864" lon="13.4813499"><ele>314.0</ele><time>2026-05-03T07:20:23.014Z</time></trkpt><trkpt lat="46.1075357" lon="13.4811898"><ele>309.0</ele><time>2026-05-03T07:20:24.015Z</time></trkpt><trkpt lat="46.1075059" lon="13.4810313"><ele>304.0</ele><time>2026-05-03T07:20:25.014Z</time></trkpt><trkpt lat="46.1074664" lon="13.4808671"><ele>299.0</ele><time>2026-05-03T07:20:26.014Z</time></trkpt><trkpt lat="46.1074315" lon="13.4807041"><ele>296.8</ele><time>2026-05-03T07:20:27.014Z</time></trkpt><trkpt lat="46.1074021" lon="13.4805242"><ele>294.59999999999997</ele><time>2026-05-03T07:20:28.014Z</time></trkpt><trkpt lat="46.1073575" lon="13.4803882"><ele>292.4</ele><time>2026-05-03T07:20:29.015Z</time></trkpt><trkpt lat="46.107331" lon="13.4802686"><ele>290.2</ele><time>2026-05-03T07:20:30.014Z</time></trkpt><trkpt lat="46.1073011" lon="13.4801864"><ele>288.0</ele><time>2026-05-03T07:20:31.015Z</time></trkpt><trkpt lat="46.1072461" lon="13.4800592"><ele>288.0</ele><time>2026-05-03T07:20:33.014Z</time></trkpt><trkpt lat="46.107159" lon="13.4799836"><ele>288.0</ele><time>2026-05-03T07:20:35.014Z</time></trkpt><trkpt lat="46.107094" lon="13.4799791"><ele>288.0</ele><time>2026-05-03T07:20:36.014Z</time></trkpt><trkpt lat="46.1070205" lon="13.4799863"><ele>288.0</ele><time>2026-05-03T07:20:37.014Z</time></trkpt><trkpt lat="46.1069355" lon="13.479988"><ele>288.0</ele><time>2026-05-03T07:20:38.015Z</time></trkpt><trkpt lat="46.1068345" lon="13.4799988"><ele>288.0</ele><time>2026-05-03T07:20:39.015Z</time></trkpt><trkpt lat="46.1067413" lon="13.4800203"><ele>288.00000000000006</ele><time>2026-05-03T07:20:40.015Z</time></trkpt><trkpt lat="46.1066665" lon="13.4800377"><ele>288.0</ele><time>2026-05-03T07:20:41.015Z</time></trkpt><trkpt lat="46.1065978" lon="13.4800469"><ele>288.0</ele><time>2026-05-03T07:20:42.016Z</time></trkpt><trkpt lat="46.1065328" lon="13.480064"><ele>288.0</ele><time>2026-05-03T07:20:43.015Z</time></trkpt><trkpt lat="46.1064697" lon="13.4800936"><ele>288.0</ele><time>2026-05-03T07:20:44.016Z</time></trkpt><trkpt lat="46.1064026" lon="13.4801437"><ele>288.00000000000006</ele><time>2026-05-03T07:20:45.016Z</time></trkpt><trkpt lat="46.1063349" lon="13.4801945"><ele>288.0</ele><time>2026-05-03T07:20:46.015Z</time></trkpt><trkpt lat="46.1062661" lon="13.4802554"><ele>289.6666666666667</ele><time>2026-05-03T07:20:47.016Z</time></trkpt><trkpt lat="46.106198" lon="13.480321"><ele>291.3333333333333</ele><time>2026-05-03T07:20:48.016Z</time></trkpt><trkpt lat="46.106117" lon="13.4803775"><ele>293.0</ele><time>2026-05-03T07:20:49.015Z</time></trkpt><trkpt lat="46.1060327" lon="13.4804336"><ele>294.66666666666663</ele><time>2026-05-03T07:20:50.015Z</time></trkpt><trkpt lat="46.1059539" lon="13.4804967"><ele>296.3333333333333</ele><time>2026-05-03T07:20:51.016Z</time></trkpt><trkpt lat="46.1058734" lon="13.4805582"><ele>298.0</ele><time>2026-05-03T07:20:52.016Z</time></trkpt><trkpt lat="46.1058063" lon="13.4806211"><ele>299.8333333333333</ele><time>2026-05-03T07:20:53.016Z</time></trkpt><trkpt lat="46.1057412" lon="13.4806997"><ele>301.66666666666663</ele><time>2026-05-03T07:20:54.015Z</time></trkpt><trkpt lat="46.1056812" lon="13.4807679"><ele>303.5</ele><time>2026-05-03T07:20:55.015Z</time></trkpt><trkpt lat="46.1056234" lon="13.4808426"><ele>305.3333333333333</ele><time>2026-05-03T07:20:56.016Z</time></trkpt><trkpt lat="46.105574" lon="13.4809172"><ele>307.1666666666667</ele><time>2026-05-03T07:20:57.015Z</time></trkpt><trkpt lat="46.1055202" lon="13.4809743"><ele>309.0</ele><time>2026-05-03T07:20:58.015Z</time></trkpt><trkpt lat="46.1054386" lon="13.4810546"><ele>309.0</ele><time>2026-05-03T07:21:00.016Z</time></trkpt><trkpt lat="46.1053509" lon="13.4810817"><ele>309.0</ele><time>2026-05-03T07:21:02.015Z</time></trkpt><trkpt lat="46.1052906" lon="13.4809955"><ele>309.0</ele><time>2026-05-03T07:21:04.015Z</time></trkpt><trkpt lat="46.1052895" lon="13.4808819"><ele>309.0</ele><time>2026-05-03T07:21:05.016Z</time></trkpt><trkpt lat="46.1052967" lon="13.4807666"><ele>309.0</ele><time>2026-05-03T07:21:06.015Z</time></trkpt><trkpt lat="46.1053106" lon="13.4806147"><ele>309.0</ele><time>2026-05-03T07:21:07.015Z</time></trkpt><trkpt lat="46.1053251" lon="13.4804796"><ele>306.0</ele><time>2026-05-03T07:21:08.015Z</time></trkpt><trkpt lat="46.1053346" lon="13.480341"><ele>303.0</ele><time>2026-05-03T07:21:09.016Z</time></trkpt><trkpt lat="46.1053379" lon="13.4802159"><ele>300.0</ele><time>2026-05-03T07:21:10.015Z</time></trkpt><trkpt lat="46.1053395" lon="13.4800946"><ele>297.0</ele><time>2026-05-03T07:21:11.016Z</time></trkpt><trkpt lat="46.1053471" lon="13.4799854"><ele>294.0</ele><time>2026-05-03T07:21:12.016Z</time></trkpt><trkpt lat="46.1053475" lon="13.4798759"><ele>291.0</ele><time>2026-05-03T07:21:13.015Z</time></trkpt><trkpt lat="46.1053409" lon="13.4797753"><ele>291.0</ele><time>2026-05-03T07:21:14.015Z</time></trkpt><trkpt lat="46.1052938" lon="13.4796159"><ele>291.0</ele><time>2026-05-03T07:21:16.016Z</time></trkpt><trkpt lat="46.1051987" lon="13.4794834"><ele>291.0</ele><time>2026-05-03T07:21:18.015Z</time></trkpt><trkpt lat="46.1051283" lon="13.4794288"><ele>291.0</ele><time>2026-05-03T07:21:19.016Z</time></trkpt><trkpt lat="46.1050502" lon="13.4793799"><ele>291.0</ele><time>2026-05-03T07:21:20.015Z</time></trkpt><trkpt lat="46.1049702" lon="13.4793412"><ele>287.8333333333333</ele><time>2026-05-03T07:21:21.015Z</time></trkpt><trkpt lat="46.1049002" lon="13.4792992"><ele>284.6666666666667</ele><time>2026-05-03T07:21:22.016Z</time></trkpt><trkpt lat="46.1048273" lon="13.4792592"><ele>281.5</ele><time>2026-05-03T07:21:23.015Z</time></trkpt><trkpt lat="46.1047651" lon="13.4792299"><ele>278.33333333333337</ele><time>2026-05-03T07:21:24.015Z</time></trkpt><trkpt lat="46.1046964" lon="13.4792027"><ele>275.1666666666667</ele><time>2026-05-03T07:21:25.015Z</time></trkpt><trkpt lat="46.1046004" lon="13.4791148"><ele>272.0</ele><time>2026-05-03T07:21:27.015Z</time></trkpt><trkpt lat="46.1045718" lon="13.4789132"><ele>269.25</ele><time>2026-05-03T07:21:29.015Z</time></trkpt><trkpt lat="46.1045497" lon="13.4787456"><ele>266.5</ele><time>2026-05-03T07:21:30.016Z</time></trkpt><trkpt lat="46.1045042" lon="13.4785356"><ele>263.75</ele><time>2026-05-03T07:21:31.015Z</time></trkpt><trkpt lat="46.1044447" lon="13.4783067"><ele>261.0</ele><time>2026-05-03T07:21:32.015Z</time></trkpt><trkpt lat="46.1043991" lon="13.4780944"><ele>258.0</ele><time>2026-05-03T07:21:33.016Z</time></trkpt><trkpt lat="46.1043584" lon="13.4779157"><ele>255.00000000000003</ele><time>2026-05-03T07:21:34.015Z</time></trkpt><trkpt lat="46.1043354" lon="13.4777728"><ele>252.00000000000003</ele><time>2026-05-03T07:21:35.015Z</time></trkpt><trkpt lat="46.1043205" lon="13.4776582"><ele>249.0</ele><time>2026-05-03T07:21:36.015Z</time></trkpt><trkpt lat="46.104283" lon="13.4775176"><ele>246.0</ele><time>2026-05-03T07:21:38.016Z</time></trkpt><trkpt lat="46.1042251" lon="13.4774761"><ele>246.0</ele><time>2026-05-03T07:21:39.016Z</time></trkpt><trkpt lat="46.1041476" lon="13.4774857"><ele>246.0</ele><time>2026-05-03T07:21:40.015Z</time></trkpt><trkpt lat="46.1040546" lon="13.4775292"><ele>246.0</ele><time>2026-05-03T07:21:41.015Z</time></trkpt><trkpt lat="46.1039591" lon="13.4775661"><ele>246.0</ele><time>2026-05-03T07:21:42.016Z</time></trkpt><trkpt lat="46.103876" lon="13.4776034"><ele>246.0</ele><time>2026-05-03T07:21:43.015Z</time></trkpt><trkpt lat="46.1038096" lon="13.4776615"><ele>246.0</ele><time>2026-05-03T07:21:44.016Z</time></trkpt><trkpt lat="46.1037401" lon="13.4777652"><ele>242.75</ele><time>2026-05-03T07:21:45.016Z</time></trkpt><trkpt lat="46.1036774" lon="13.4779122"><ele>239.5</ele><time>2026-05-03T07:21:46.015Z</time></trkpt><trkpt lat="46.1036074" lon="13.4780708"><ele>236.25</ele><time>2026-05-03T07:21:47.015Z</time></trkpt><trkpt lat="46.1035352" lon="13.4782549"><ele>233.0</ele><time>2026-05-03T07:21:48.016Z</time></trkpt><trkpt lat="46.1034637" lon="13.4784144"><ele>233.0</ele><time>2026-05-03T07:21:49.016Z</time></trkpt><trkpt lat="46.1033989" lon="13.4785631"><ele>233.0</ele><time>2026-05-03T07:21:50.016Z</time></trkpt><trkpt lat="46.1033406" lon="13.4787033"><ele>233.0</ele><time>2026-05-03T07:21:51.016Z</time></trkpt><trkpt lat="46.1032876" lon="13.4788324"><ele>233.0</ele><time>2026-05-03T07:21:52.016Z</time></trkpt><trkpt lat="46.1032386" lon="13.4789545"><ele>233.0</ele><time>2026-05-03T07:21:53.016Z</time></trkpt><trkpt lat="46.1031939" lon="13.4790985"><ele>231.4</ele><time>2026-05-03T07:21:54.016Z</time></trkpt><trkpt lat="46.1031525" lon="13.4792343"><ele>229.8</ele><time>2026-05-03T07:21:55.015Z</time></trkpt><trkpt lat="46.1031042" lon="13.4793764"><ele>228.2</ele><time>2026-05-03T07:21:56.015Z</time></trkpt><trkpt lat="46.1030449" lon="13.4795189"><ele>226.6</ele><time>2026-05-03T07:21:57.016Z</time></trkpt><trkpt lat="46.1029894" lon="13.4796621"><ele>225.0</ele><time>2026-05-03T07:21:58.015Z</time></trkpt><trkpt lat="46.1029165" lon="13.4797892"><ele>225.0</ele><time>2026-05-03T07:21:59.015Z</time></trkpt><trkpt lat="46.1028253" lon="13.4799055"><ele>225.0</ele><time>2026-05-03T07:22:00.015Z</time></trkpt><trkpt lat="46.102743" lon="13.4800151"><ele>225.0</ele><time>2026-05-03T07:22:01.015Z</time></trkpt><trkpt lat="46.1026573" lon="13.4800941"><ele>225.0</ele><time>2026-05-03T07:22:02.015Z</time></trkpt><trkpt lat="46.1025677" lon="13.4801533"><ele>225.0</ele><time>2026-05-03T07:22:03.015Z</time></trkpt><trkpt lat="46.1024773" lon="13.4802067"><ele>221.6</ele><time>2026-05-03T07:22:04.016Z</time></trkpt><trkpt lat="46.1023803" lon="13.4802604"><ele>218.2</ele><time>2026-05-03T07:22:05.015Z</time></trkpt><trkpt lat="46.1022856" lon="13.4803227"><ele>214.8</ele><time>2026-05-03T07:22:06.015Z</time></trkpt><trkpt lat="46.1021812" lon="13.480396"><ele>211.4</ele><time>2026-05-03T07:22:07.015Z</time></trkpt><trkpt lat="46.1020877" lon="13.4804754"><ele>208.0</ele><time>2026-05-03T07:22:08.015Z</time></trkpt><trkpt lat="46.1020076" lon="13.4805913"><ele>208.0</ele><time>2026-05-03T07:22:09.016Z</time></trkpt><trkpt lat="46.1019403" lon="13.4807334"><ele>208.0</ele><time>2026-05-03T07:22:10.015Z</time></trkpt><trkpt lat="46.1018639" lon="13.4808754"><ele>208.0</ele><time>2026-05-03T07:22:11.015Z</time></trkpt><trkpt lat="46.1017966" lon="13.4810035"><ele>208.0</ele><time>2026-05-03T07:22:12.015Z</time></trkpt><trkpt lat="46.1017383" lon="13.4811379"><ele>207.8</ele><time>2026-05-03T07:22:13.016Z</time></trkpt><trkpt lat="46.1017024" lon="13.4812872"><ele>207.60000000000002</ele><time>2026-05-03T07:22:14.015Z</time></trkpt><trkpt lat="46.1016591" lon="13.4814148"><ele>207.39999999999998</ele><time>2026-05-03T07:22:15.016Z</time></trkpt><trkpt lat="46.1016221" lon="13.4815216"><ele>207.2</ele><time>2026-05-03T07:22:16.015Z</time></trkpt><trkpt lat="46.1015161" lon="13.4815805"><ele>207.0</ele><time>2026-05-03T07:22:18.016Z</time></trkpt><trkpt lat="46.1014469" lon="13.4815443"><ele>207.0</ele><time>2026-05-03T07:22:19.015Z</time></trkpt><trkpt lat="46.1013695" lon="13.4815237"><ele>207.0</ele><time>2026-05-03T07:22:20.016Z</time></trkpt><trkpt lat="46.1012905" lon="13.4815526"><ele>207.0</ele><time>2026-05-03T07:22:21.016Z</time></trkpt><trkpt lat="46.1012219" lon="13.4816282"><ele>207.0</ele><time>2026-05-03T07:22:22.016Z</time></trkpt><trkpt lat="46.1011626" lon="13.4817256"><ele>207.0</ele><time>2026-05-03T07:22:23.015Z</time></trkpt><trkpt lat="46.1011021" lon="13.4817996"><ele>207.0</ele><time>2026-05-03T07:22:24.016Z</time></trkpt><trkpt lat="46.1010328" lon="13.4818576"><ele>207.0</ele><time>2026-05-03T07:22:25.015Z</time></trkpt><trkpt lat="46.1009516" lon="13.4818872"><ele>207.0</ele><time>2026-05-03T07:22:26.016Z</time></trkpt><trkpt lat="46.1008706" lon="13.4818735"><ele>207.0</ele><time>2026-05-03T07:22:27.016Z</time></trkpt><trkpt lat="46.1007953" lon="13.4818383"><ele>207.0</ele><time>2026-05-03T07:22:28.016Z</time></trkpt><trkpt lat="46.1007207" lon="13.4817665"><ele>207.0</ele><time>2026-05-03T07:22:29.016Z</time></trkpt><trkpt lat="46.1006443" lon="13.4817002"><ele>207.0</ele><time>2026-05-03T07:22:30.015Z</time></trkpt><trkpt lat="46.1005644" lon="13.4816271"><ele>205.8</ele><time>2026-05-03T07:22:31.016Z</time></trkpt><trkpt lat="46.1004811" lon="13.4815498"><ele>204.6</ele><time>2026-05-03T07:22:32.016Z</time></trkpt><trkpt lat="46.1004189" lon="13.4814596"><ele>203.4</ele><time>2026-05-03T07:22:33.015Z</time></trkpt><trkpt lat="46.1003612" lon="13.4813464"><ele>202.20000000000002</ele><time>2026-05-03T07:22:34.015Z</time></trkpt><trkpt lat="46.1003011" lon="13.4812374"><ele>201.0</ele><time>2026-05-03T07:22:35.015Z</time></trkpt><trkpt lat="46.1002386" lon="13.4811424"><ele>197.66666666666666</ele><time>2026-05-03T07:22:36.016Z</time></trkpt><trkpt lat="46.1001746" lon="13.4810551"><ele>194.33333333333334</ele><time>2026-05-03T07:22:37.016Z</time></trkpt><trkpt lat="46.1001167" lon="13.4809926"><ele>191.0</ele><time>2026-05-03T07:22:38.016Z</time></trkpt><trkpt lat="46.1000508" lon="13.4809729"><ele>187.66666666666669</ele><time>2026-05-03T07:22:39.015Z</time></trkpt><trkpt lat="46.0999769" lon="13.4810139"><ele>184.33333333333334</ele><time>2026-05-03T07:22:40.015Z</time></trkpt><trkpt lat="46.099913" lon="13.4810807"><ele>181.0</ele><time>2026-05-03T07:22:41.015Z</time></trkpt><trkpt lat="46.0998596" lon="13.4811766"><ele>180.0</ele><time>2026-05-03T07:22:42.016Z</time></trkpt><trkpt lat="46.0998132" lon="13.4812778"><ele>179.0</ele><time>2026-05-03T07:22:43.016Z</time></trkpt><trkpt lat="46.09976" lon="13.4813656"><ele>178.0</ele><time>2026-05-03T07:22:44.015Z</time></trkpt><trkpt lat="46.0996894" lon="13.4814184"><ele>177.0</ele><time>2026-05-03T07:22:45.015Z</time></trkpt><trkpt lat="46.0996141" lon="13.481441"><ele>176.0</ele><time>2026-05-03T07:22:46.015Z</time></trkpt><trkpt lat="46.0995244" lon="13.4813772"><ele>175.0</ele><time>2026-05-03T07:22:48.016Z</time></trkpt><trkpt lat="46.0995366" lon="13.4812803"><ele>174.0</ele><time>2026-05-03T07:22:49.016Z</time></trkpt><trkpt lat="46.0995882" lon="13.4811957"><ele>173.0</ele><time>2026-05-03T07:22:50.015Z</time></trkpt><trkpt lat="46.099662" lon="13.481108"><ele>172.0</ele><time>2026-05-03T07:22:51.016Z</time></trkpt><trkpt lat="46.0997348" lon="13.4810028"><ele>171.0</ele><time>2026-05-03T07:22:52.015Z</time></trkpt><trkpt lat="46.0997969" lon="13.4808634"><ele>170.0</ele><time>2026-05-03T07:22:53.015Z</time></trkpt><trkpt lat="46.099844" lon="13.4807221"><ele>170.0</ele><time>2026-05-03T07:22:54.016Z</time></trkpt><trkpt lat="46.0998995" lon="13.4806055"><ele>170.0</ele><time>2026-05-03T07:22:55.016Z</time></trkpt><trkpt lat="46.0999766" lon="13.4805357"><ele>170.0</ele><time>2026-05-03T07:22:56.016Z</time></trkpt><trkpt lat="46.100059" lon="13.4805015"><ele>170.0</ele><time>2026-05-03T07:22:57.015Z</time></trkpt><trkpt lat="46.1001391" lon="13.4805519"><ele>170.0</ele><time>2026-05-03T07:22:58.015Z</time></trkpt><trkpt lat="46.100189" lon="13.480623"><ele>170.0</ele><time>2026-05-03T07:22:59.016Z</time></trkpt><trkpt lat="46.1002413" lon="13.480746"><ele>172.2</ele><time>2026-05-03T07:23:00.015Z</time></trkpt><trkpt lat="46.1003106" lon="13.4808755"><ele>174.4</ele><time>2026-05-03T07:23:01.015Z</time></trkpt><trkpt lat="46.1004014" lon="13.48095"><ele>176.60000000000002</ele><time>2026-05-03T07:23:02.015Z</time></trkpt><trkpt lat="46.1004979" lon="13.4809865"><ele>178.8</ele><time>2026-05-03T07:23:03.016Z</time></trkpt><trkpt lat="46.1005834" lon="13.4810227"><ele>181.0</ele><time>2026-05-03T07:23:04.016Z</time></trkpt><trkpt lat="46.1006508" lon="13.4810631"><ele>181.0</ele><time>2026-05-03T07:23:05.016Z</time></trkpt><trkpt lat="46.1007322" lon="13.4810413"><ele>181.0</ele><time>2026-05-03T07:23:07.015Z</time></trkpt><trkpt lat="46.1007764" lon="13.4809368"><ele>181.0</ele><time>2026-05-03T07:23:09.016Z</time></trkpt><trkpt lat="46.1008257" lon="13.4807421"><ele>181.0</ele><time>2026-05-03T07:23:11.016Z</time></trkpt><trkpt lat="46.1008557" lon="13.4806305"><ele>181.0</ele><time>2026-05-03T07:23:12.015Z</time></trkpt><trkpt lat="46.1008861" lon="13.4805"><ele>177.8</ele><time>2026-05-03T07:23:13.015Z</time></trkpt><trkpt lat="46.1009144" lon="13.4803665"><ele>174.60000000000002</ele><time>2026-05-03T07:23:14.031Z</time></trkpt><trkpt lat="46.1009373" lon="13.4802406"><ele>171.4</ele><time>2026-05-03T07:23:15.031Z</time></trkpt><trkpt lat="46.1009642" lon="13.4801133"><ele>168.2</ele><time>2026-05-03T07:23:16.031Z</time></trkpt><trkpt lat="46.1009845" lon="13.4799754"><ele>165.0</ele><time>2026-05-03T07:23:17.031Z</time></trkpt><trkpt lat="46.101006" lon="13.4798327"><ele>165.0</ele><time>2026-05-03T07:23:18.03Z</time></trkpt><trkpt lat="46.1010255" lon="13.479697"><ele>165.0</ele><time>2026-05-03T07:23:19.031Z</time></trkpt><trkpt lat="46.1010526" lon="13.4795645"><ele>165.0</ele><time>2026-05-03T07:23:20.031Z</time></trkpt><trkpt lat="46.1010794" lon="13.4794327"><ele>165.0</ele><time>2026-05-03T07:23:21.031Z</time></trkpt><trkpt lat="46.1011162" lon="13.479321"><ele>165.0</ele><time>2026-05-03T07:23:22.031Z</time></trkpt><trkpt lat="46.1011655" lon="13.4792309"><ele>165.33333333333334</ele><time>2026-05-03T07:23:23.031Z</time></trkpt><trkpt lat="46.1012268" lon="13.4791675"><ele>165.66666666666666</ele><time>2026-05-03T07:23:24.03Z</time></trkpt><trkpt lat="46.1013101" lon="13.4791268"><ele>166.0</ele><time>2026-05-03T07:23:25.03Z</time></trkpt><trkpt lat="46.1014041" lon="13.4790644"><ele>166.33333333333331</ele><time>2026-05-03T07:23:26.031Z</time></trkpt><trkpt lat="46.1014837" lon="13.478993"><ele>166.66666666666666</ele><time>2026-05-03T07:23:27.03Z</time></trkpt><trkpt lat="46.1015562" lon="13.4789244"><ele>167.0</ele><time>2026-05-03T07:23:28.03Z</time></trkpt><trkpt lat="46.1016249" lon="13.4788331"><ele>166.16666666666666</ele><time>2026-05-03T07:23:29.031Z</time></trkpt><trkpt lat="46.1016796" lon="13.4787396"><ele>165.33333333333331</ele><time>2026-05-03T07:23:30.031Z</time></trkpt><trkpt lat="46.101728" lon="13.4786404"><ele>164.5</ele><time>2026-05-03T07:23:31.031Z</time></trkpt><trkpt lat="46.1017636" lon="13.4785178"><ele>163.66666666666666</ele><time>2026-05-03T07:23:32.031Z</time></trkpt><trkpt lat="46.1017904" lon="13.4783911"><ele>162.83333333333334</ele><time>2026-05-03T07:23:33.03Z</time></trkpt><trkpt lat="46.1018004" lon="13.4782564"><ele>162.0</ele><time>2026-05-03T07:23:34.03Z</time></trkpt><trkpt lat="46.1018177" lon="13.4781232"><ele>162.0</ele><time>2026-05-03T07:23:35.031Z</time></trkpt><trkpt lat="46.1018361" lon="13.4779844"><ele>162.0</ele><time>2026-05-03T07:23:36.031Z</time></trkpt><trkpt lat="46.1018473" lon="13.477843"><ele>162.0</ele><time>2026-05-03T07:23:37.031Z</time></trkpt><trkpt lat="46.1018503" lon="13.4776924"><ele>162.0</ele><time>2026-05-03T07:23:38.031Z</time></trkpt><trkpt lat="46.1018451" lon="13.4775288"><ele>162.0</ele><time>2026-05-03T07:23:39.03Z</time></trkpt><trkpt lat="46.1018447" lon="13.4773676"><ele>161.25</ele><time>2026-05-03T07:23:40.03Z</time></trkpt><trkpt lat="46.101858" lon="13.4772039"><ele>160.5</ele><time>2026-05-03T07:23:41.03Z</time></trkpt><trkpt lat="46.1018753" lon="13.477033"><ele>159.75</ele><time>2026-05-03T07:23:42.03Z</time></trkpt><trkpt lat="46.1018803" lon="13.4768604"><ele>159.0</ele><time>2026-05-03T07:23:43.03Z</time></trkpt><trkpt lat="46.1018741" lon="13.4766934"><ele>158.0</ele><time>2026-05-03T07:23:44.03Z</time></trkpt><trkpt lat="46.1018622" lon="13.4765403"><ele>158.0</ele><time>2026-05-03T07:23:45.031Z</time></trkpt><trkpt lat="46.1018636" lon="13.4763952"><ele>158.0</ele><time>2026-05-03T07:23:46.031Z</time></trkpt></trkseg></trk></gpx>